<?xml version="1.0" encoding="UTF-8" standalone="no" ?>
<gpx xmlns="http://www.topografix.com/GPX/1/1" xmlns:xsi="http://www.w3.org/2001/XMLSchema-instance" xsi:schemaLocation="http://www.topografix.com/GPX/1/1 http://www.topografix.com/GPX/1/1/gpx.xsd" version="1.1" creator="VisuGPX - https://www.visugpx.com">
  <metadata>
    <name>Vallée Blanche</name>
    <desc><![CDATA[Sortie matinale dans des paysages figés par le gel. Superbe!]]></desc>
  </metadata>
  <trk>
    <name><![CDATA[20 Rue Antoine Coysevox]]></name>
    <desc><![CDATA[]]></desc>
    <trkseg>
      <trkpt lat="47.51787" lon="6.77455">
        <ele>358.2</ele>
        <time>2016-12-30T08:14:20.363Z</time>
      </trkpt>
      <trkpt lat="47.51786" lon="6.77455">
        <ele>396.7</ele>
        <time>2016-12-30T08:14:40.394Z</time>
      </trkpt>
      <trkpt lat="47.5178" lon="6.77444">
        <ele>394.8</ele>
        <time>2016-12-30T08:14:41.394Z</time>
      </trkpt>
      <trkpt lat="47.5178" lon="6.77444">
        <ele>403.6</ele>
        <time>2016-12-30T08:16:52.999Z</time>
      </trkpt>
      <trkpt lat="47.51802" lon="6.7748">
        <ele>403.6</ele>
        <time>2016-12-30T08:16:53.999Z</time>
      </trkpt>
      <trkpt lat="47.51805" lon="6.77483">
        <ele>422.3</ele>
        <time>2016-12-30T08:19:38.999Z</time>
      </trkpt>
      <trkpt lat="47.51806" lon="6.77484">
        <ele>422.6</ele>
        <time>2016-12-30T08:19:39.999Z</time>
      </trkpt>
      <trkpt lat="47.51809" lon="6.77488">
        <ele>422.8</ele>
        <time>2016-12-30T08:19:40.999Z</time>
      </trkpt>
      <trkpt lat="47.51809" lon="6.77491">
        <ele>423</ele>
        <time>2016-12-30T08:19:41.999Z</time>
      </trkpt>
      <trkpt lat="47.51806" lon="6.77495">
        <ele>423.4</ele>
        <time>2016-12-30T08:19:43.999Z</time>
      </trkpt>
      <trkpt lat="47.51804" lon="6.77495">
        <ele>423.5</ele>
        <time>2016-12-30T08:19:44.999Z</time>
      </trkpt>
      <trkpt lat="47.51801" lon="6.77496">
        <ele>423.7</ele>
        <time>2016-12-30T08:19:45.999Z</time>
      </trkpt>
      <trkpt lat="47.51799" lon="6.77495">
        <ele>423.8</ele>
        <time>2016-12-30T08:19:46.999Z</time>
      </trkpt>
      <trkpt lat="47.51796" lon="6.77495">
        <ele>423.9</ele>
        <time>2016-12-30T08:19:47.999Z</time>
      </trkpt>
      <trkpt lat="47.51792" lon="6.77495">
        <ele>423.9</ele>
        <time>2016-12-30T08:19:48.999Z</time>
      </trkpt>
      <trkpt lat="47.51789" lon="6.77495">
        <ele>424</ele>
        <time>2016-12-30T08:19:49.999Z</time>
      </trkpt>
      <trkpt lat="47.51786" lon="6.77495">
        <ele>424.1</ele>
        <time>2016-12-30T08:19:50.999Z</time>
      </trkpt>
      <trkpt lat="47.51784" lon="6.77495">
        <ele>424.2</ele>
        <time>2016-12-30T08:19:51.999Z</time>
      </trkpt>
      <trkpt lat="47.5178" lon="6.77495">
        <ele>424.4</ele>
        <time>2016-12-30T08:19:52.999Z</time>
      </trkpt>
      <trkpt lat="47.51777" lon="6.77495">
        <ele>424.5</ele>
        <time>2016-12-30T08:19:53.999Z</time>
      </trkpt>
      <trkpt lat="47.51772" lon="6.77495">
        <ele>424.6</ele>
        <time>2016-12-30T08:19:54.999Z</time>
      </trkpt>
      <trkpt lat="47.51768" lon="6.77495">
        <ele>424.8</ele>
        <time>2016-12-30T08:19:55.999Z</time>
      </trkpt>
      <trkpt lat="47.51764" lon="6.77494">
        <ele>425</ele>
        <time>2016-12-30T08:19:56.999Z</time>
      </trkpt>
      <trkpt lat="47.5176" lon="6.77494">
        <ele>425.2</ele>
        <time>2016-12-30T08:19:57.999Z</time>
      </trkpt>
      <trkpt lat="47.51756" lon="6.77493">
        <ele>426.9</ele>
        <time>2016-12-30T08:19:58.999Z</time>
      </trkpt>
      <trkpt lat="47.51752" lon="6.77492">
        <ele>428.4</ele>
        <time>2016-12-30T08:19:59.999Z</time>
      </trkpt>
      <trkpt lat="47.51748" lon="6.77491">
        <ele>429</ele>
        <time>2016-12-30T08:20:00.999Z</time>
      </trkpt>
      <trkpt lat="47.51744" lon="6.7749">
        <ele>429.8</ele>
        <time>2016-12-30T08:20:01.999Z</time>
      </trkpt>
      <trkpt lat="47.51741" lon="6.77492">
        <ele>429.8</ele>
        <time>2016-12-30T08:20:02.999Z</time>
      </trkpt>
      <trkpt lat="47.51739" lon="6.77496">
        <ele>430.2</ele>
        <time>2016-12-30T08:20:03.999Z</time>
      </trkpt>
      <trkpt lat="47.51736" lon="6.775">
        <ele>431.3</ele>
        <time>2016-12-30T08:20:04.999Z</time>
      </trkpt>
      <trkpt lat="47.51734" lon="6.77502">
        <ele>432.7</ele>
        <time>2016-12-30T08:20:05.999Z</time>
      </trkpt>
      <trkpt lat="47.51732" lon="6.77506">
        <ele>433.6</ele>
        <time>2016-12-30T08:20:06.999Z</time>
      </trkpt>
      <trkpt lat="47.5173" lon="6.77509">
        <ele>434</ele>
        <time>2016-12-30T08:20:07.999Z</time>
      </trkpt>
      <trkpt lat="47.51727" lon="6.77514">
        <ele>434.8</ele>
        <time>2016-12-30T08:20:08.999Z</time>
      </trkpt>
      <trkpt lat="47.51725" lon="6.7752">
        <ele>435.7</ele>
        <time>2016-12-30T08:20:09.999Z</time>
      </trkpt>
      <trkpt lat="47.51723" lon="6.77526">
        <ele>436.4</ele>
        <time>2016-12-30T08:20:10.999Z</time>
      </trkpt>
      <trkpt lat="47.51721" lon="6.77531">
        <ele>437.2</ele>
        <time>2016-12-30T08:20:11.999Z</time>
      </trkpt>
      <trkpt lat="47.5172" lon="6.77536">
        <ele>438.3</ele>
        <time>2016-12-30T08:20:12.999Z</time>
      </trkpt>
      <trkpt lat="47.51719" lon="6.77541">
        <ele>438.3</ele>
        <time>2016-12-30T08:20:13.999Z</time>
      </trkpt>
      <trkpt lat="47.51717" lon="6.77545">
        <ele>438.5</ele>
        <time>2016-12-30T08:20:14.999Z</time>
      </trkpt>
      <trkpt lat="47.51715" lon="6.77549">
        <ele>438.5</ele>
        <time>2016-12-30T08:20:15.999Z</time>
      </trkpt>
      <trkpt lat="47.51708" lon="6.7755">
        <ele>438.5</ele>
        <time>2016-12-30T08:20:16.999Z</time>
      </trkpt>
      <trkpt lat="47.51704" lon="6.77547">
        <ele>438.4</ele>
        <time>2016-12-30T08:20:17.999Z</time>
      </trkpt>
      <trkpt lat="47.517" lon="6.77543">
        <ele>437.7</ele>
        <time>2016-12-30T08:20:18.999Z</time>
      </trkpt>
      <trkpt lat="47.51695" lon="6.77538">
        <ele>437.4</ele>
        <time>2016-12-30T08:20:19.999Z</time>
      </trkpt>
      <trkpt lat="47.51691" lon="6.77533">
        <ele>437.2</ele>
        <time>2016-12-30T08:20:20.999Z</time>
      </trkpt>
      <trkpt lat="47.51687" lon="6.77529">
        <ele>436.7</ele>
        <time>2016-12-30T08:20:21.999Z</time>
      </trkpt>
      <trkpt lat="47.51682" lon="6.77524">
        <ele>436.7</ele>
        <time>2016-12-30T08:20:22.999Z</time>
      </trkpt>
      <trkpt lat="47.51678" lon="6.77518">
        <ele>437.1</ele>
        <time>2016-12-30T08:20:23.999Z</time>
      </trkpt>
      <trkpt lat="47.51673" lon="6.77512">
        <ele>437</ele>
        <time>2016-12-30T08:20:24.999Z</time>
      </trkpt>
      <trkpt lat="47.51668" lon="6.77507">
        <ele>437</ele>
        <time>2016-12-30T08:20:25.999Z</time>
      </trkpt>
      <trkpt lat="47.51664" lon="6.77501">
        <ele>437.2</ele>
        <time>2016-12-30T08:20:26.999Z</time>
      </trkpt>
      <trkpt lat="47.51659" lon="6.77495">
        <ele>437.5</ele>
        <time>2016-12-30T08:20:27.999Z</time>
      </trkpt>
      <trkpt lat="47.51654" lon="6.77489">
        <ele>437.5</ele>
        <time>2016-12-30T08:20:28.999Z</time>
      </trkpt>
      <trkpt lat="47.51648" lon="6.77482">
        <ele>437.7</ele>
        <time>2016-12-30T08:20:29.999Z</time>
      </trkpt>
      <trkpt lat="47.51643" lon="6.77476">
        <ele>437.6</ele>
        <time>2016-12-30T08:20:30.999Z</time>
      </trkpt>
      <trkpt lat="47.51637" lon="6.77468">
        <ele>437.7</ele>
        <time>2016-12-30T08:20:31.999Z</time>
      </trkpt>
      <trkpt lat="47.51632" lon="6.77462">
        <ele>438</ele>
        <time>2016-12-30T08:20:32.999Z</time>
      </trkpt>
      <trkpt lat="47.51627" lon="6.77456">
        <ele>438.5</ele>
        <time>2016-12-30T08:20:33.999Z</time>
      </trkpt>
      <trkpt lat="47.51622" lon="6.7745">
        <ele>438.9</ele>
        <time>2016-12-30T08:20:34.999Z</time>
      </trkpt>
      <trkpt lat="47.51617" lon="6.77444">
        <ele>438.9</ele>
        <time>2016-12-30T08:20:35.999Z</time>
      </trkpt>
      <trkpt lat="47.51612" lon="6.77438">
        <ele>438.8</ele>
        <time>2016-12-30T08:20:36.999Z</time>
      </trkpt>
      <trkpt lat="47.51606" lon="6.77432">
        <ele>437.9</ele>
        <time>2016-12-30T08:20:37.999Z</time>
      </trkpt>
      <trkpt lat="47.51599" lon="6.77424">
        <ele>437.4</ele>
        <time>2016-12-30T08:20:38.999Z</time>
      </trkpt>
      <trkpt lat="47.51593" lon="6.77416">
        <ele>436.9</ele>
        <time>2016-12-30T08:20:39.999Z</time>
      </trkpt>
      <trkpt lat="47.51587" lon="6.77408">
        <ele>436</ele>
        <time>2016-12-30T08:20:40.999Z</time>
      </trkpt>
      <trkpt lat="47.51581" lon="6.77401">
        <ele>435.4</ele>
        <time>2016-12-30T08:20:41.999Z</time>
      </trkpt>
      <trkpt lat="47.51575" lon="6.77394">
        <ele>434.6</ele>
        <time>2016-12-30T08:20:42.999Z</time>
      </trkpt>
      <trkpt lat="47.5157" lon="6.77388">
        <ele>433.9</ele>
        <time>2016-12-30T08:20:43.999Z</time>
      </trkpt>
      <trkpt lat="47.51564" lon="6.7738">
        <ele>433.1</ele>
        <time>2016-12-30T08:20:44.999Z</time>
      </trkpt>
      <trkpt lat="47.51557" lon="6.77372">
        <ele>432.4</ele>
        <time>2016-12-30T08:20:45.999Z</time>
      </trkpt>
      <trkpt lat="47.5155" lon="6.77364">
        <ele>431.9</ele>
        <time>2016-12-30T08:20:46.999Z</time>
      </trkpt>
      <trkpt lat="47.51544" lon="6.77357">
        <ele>431.6</ele>
        <time>2016-12-30T08:20:47.999Z</time>
      </trkpt>
      <trkpt lat="47.51537" lon="6.77349">
        <ele>431.4</ele>
        <time>2016-12-30T08:20:48.999Z</time>
      </trkpt>
      <trkpt lat="47.5153" lon="6.77341">
        <ele>430.9</ele>
        <time>2016-12-30T08:20:49.999Z</time>
      </trkpt>
      <trkpt lat="47.51523" lon="6.77333">
        <ele>430.8</ele>
        <time>2016-12-30T08:20:50.999Z</time>
      </trkpt>
      <trkpt lat="47.51516" lon="6.77325">
        <ele>430.4</ele>
        <time>2016-12-30T08:20:51.999Z</time>
      </trkpt>
      <trkpt lat="47.5151" lon="6.77317">
        <ele>429.8</ele>
        <time>2016-12-30T08:20:52.999Z</time>
      </trkpt>
      <trkpt lat="47.51506" lon="6.77312">
        <ele>429.1</ele>
        <time>2016-12-30T08:20:53.999Z</time>
      </trkpt>
      <trkpt lat="47.51502" lon="6.77306">
        <ele>428.5</ele>
        <time>2016-12-30T08:20:54.999Z</time>
      </trkpt>
      <trkpt lat="47.51498" lon="6.773">
        <ele>428</ele>
        <time>2016-12-30T08:20:55.999Z</time>
      </trkpt>
      <trkpt lat="47.51495" lon="6.77295">
        <ele>427.6</ele>
        <time>2016-12-30T08:20:56.999Z</time>
      </trkpt>
      <trkpt lat="47.51493" lon="6.77287">
        <ele>427.4</ele>
        <time>2016-12-30T08:20:57.999Z</time>
      </trkpt>
      <trkpt lat="47.51491" lon="6.77279">
        <ele>427.3</ele>
        <time>2016-12-30T08:20:58.999Z</time>
      </trkpt>
      <trkpt lat="47.51489" lon="6.77271">
        <ele>427.1</ele>
        <time>2016-12-30T08:20:59.999Z</time>
      </trkpt>
      <trkpt lat="47.51488" lon="6.77263">
        <ele>427.4</ele>
        <time>2016-12-30T08:21:00.999Z</time>
      </trkpt>
      <trkpt lat="47.51487" lon="6.77255">
        <ele>427.9</ele>
        <time>2016-12-30T08:21:01.999Z</time>
      </trkpt>
      <trkpt lat="47.51486" lon="6.77249">
        <ele>428.2</ele>
        <time>2016-12-30T08:21:02.999Z</time>
      </trkpt>
      <trkpt lat="47.51486" lon="6.77241">
        <ele>428.3</ele>
        <time>2016-12-30T08:21:03.999Z</time>
      </trkpt>
      <trkpt lat="47.51486" lon="6.77234">
        <ele>428.6</ele>
        <time>2016-12-30T08:21:04.999Z</time>
      </trkpt>
      <trkpt lat="47.51486" lon="6.77229">
        <ele>428.4</ele>
        <time>2016-12-30T08:21:05.999Z</time>
      </trkpt>
      <trkpt lat="47.51486" lon="6.77223">
        <ele>428.4</ele>
        <time>2016-12-30T08:21:06.999Z</time>
      </trkpt>
      <trkpt lat="47.51486" lon="6.77216">
        <ele>428.3</ele>
        <time>2016-12-30T08:21:07.999Z</time>
      </trkpt>
      <trkpt lat="47.51486" lon="6.77212">
        <ele>427.8</ele>
        <time>2016-12-30T08:21:08.999Z</time>
      </trkpt>
      <trkpt lat="47.51483" lon="6.77207">
        <ele>427.2</ele>
        <time>2016-12-30T08:21:09.999Z</time>
      </trkpt>
      <trkpt lat="47.5148" lon="6.77204">
        <ele>426.4</ele>
        <time>2016-12-30T08:21:10.999Z</time>
      </trkpt>
      <trkpt lat="47.51476" lon="6.77201">
        <ele>426.1</ele>
        <time>2016-12-30T08:21:11.999Z</time>
      </trkpt>
      <trkpt lat="47.5147" lon="6.77201">
        <ele>425.7</ele>
        <time>2016-12-30T08:21:12.999Z</time>
      </trkpt>
      <trkpt lat="47.51462" lon="6.77202">
        <ele>425.1</ele>
        <time>2016-12-30T08:21:13.999Z</time>
      </trkpt>
      <trkpt lat="47.51456" lon="6.77203">
        <ele>424.4</ele>
        <time>2016-12-30T08:21:14.999Z</time>
      </trkpt>
      <trkpt lat="47.5145" lon="6.77205">
        <ele>423.6</ele>
        <time>2016-12-30T08:21:15.999Z</time>
      </trkpt>
      <trkpt lat="47.51444" lon="6.77208">
        <ele>422.5</ele>
        <time>2016-12-30T08:21:16.999Z</time>
      </trkpt>
      <trkpt lat="47.51436" lon="6.77211">
        <ele>421.6</ele>
        <time>2016-12-30T08:21:17.999Z</time>
      </trkpt>
      <trkpt lat="47.51429" lon="6.77214">
        <ele>420.7</ele>
        <time>2016-12-30T08:21:18.999Z</time>
      </trkpt>
      <trkpt lat="47.51422" lon="6.77217">
        <ele>420.1</ele>
        <time>2016-12-30T08:21:19.999Z</time>
      </trkpt>
      <trkpt lat="47.51416" lon="6.77221">
        <ele>420</ele>
        <time>2016-12-30T08:21:20.999Z</time>
      </trkpt>
      <trkpt lat="47.51411" lon="6.77223">
        <ele>420</ele>
        <time>2016-12-30T08:21:21.999Z</time>
      </trkpt>
      <trkpt lat="47.51405" lon="6.77226">
        <ele>420.3</ele>
        <time>2016-12-30T08:21:22.999Z</time>
      </trkpt>
      <trkpt lat="47.514" lon="6.77229">
        <ele>420.8</ele>
        <time>2016-12-30T08:21:23.999Z</time>
      </trkpt>
      <trkpt lat="47.51394" lon="6.77233">
        <ele>421.4</ele>
        <time>2016-12-30T08:21:24.999Z</time>
      </trkpt>
      <trkpt lat="47.5139" lon="6.77236">
        <ele>421.5</ele>
        <time>2016-12-30T08:21:25.999Z</time>
      </trkpt>
      <trkpt lat="47.51386" lon="6.77239">
        <ele>421.3</ele>
        <time>2016-12-30T08:21:26.999Z</time>
      </trkpt>
      <trkpt lat="47.51381" lon="6.77241">
        <ele>421.5</ele>
        <time>2016-12-30T08:21:27.999Z</time>
      </trkpt>
      <trkpt lat="47.51377" lon="6.77244">
        <ele>421.6</ele>
        <time>2016-12-30T08:21:28.999Z</time>
      </trkpt>
      <trkpt lat="47.51373" lon="6.77247">
        <ele>422</ele>
        <time>2016-12-30T08:21:29.999Z</time>
      </trkpt>
      <trkpt lat="47.5137" lon="6.77249">
        <ele>422.1</ele>
        <time>2016-12-30T08:21:30.999Z</time>
      </trkpt>
      <trkpt lat="47.51367" lon="6.77252">
        <ele>422.2</ele>
        <time>2016-12-30T08:21:31.999Z</time>
      </trkpt>
      <trkpt lat="47.51363" lon="6.77255">
        <ele>422.3</ele>
        <time>2016-12-30T08:21:32.999Z</time>
      </trkpt>
      <trkpt lat="47.5136" lon="6.77258">
        <ele>422.3</ele>
        <time>2016-12-30T08:21:33.999Z</time>
      </trkpt>
      <trkpt lat="47.51357" lon="6.77262">
        <ele>422.4</ele>
        <time>2016-12-30T08:21:34.999Z</time>
      </trkpt>
      <trkpt lat="47.51353" lon="6.77264">
        <ele>422.5</ele>
        <time>2016-12-30T08:21:35.999Z</time>
      </trkpt>
      <trkpt lat="47.5135" lon="6.77267">
        <ele>422.6</ele>
        <time>2016-12-30T08:21:36.999Z</time>
      </trkpt>
      <trkpt lat="47.51347" lon="6.7727">
        <ele>422.6</ele>
        <time>2016-12-30T08:21:37.999Z</time>
      </trkpt>
      <trkpt lat="47.51346" lon="6.77271">
        <ele>422.7</ele>
        <time>2016-12-30T08:21:38.999Z</time>
      </trkpt>
      <trkpt lat="47.51342" lon="6.77274">
        <ele>422.9</ele>
        <time>2016-12-30T08:21:40.999Z</time>
      </trkpt>
      <trkpt lat="47.51339" lon="6.77276">
        <ele>423.1</ele>
        <time>2016-12-30T08:21:41.999Z</time>
      </trkpt>
      <trkpt lat="47.51337" lon="6.77278">
        <ele>423.2</ele>
        <time>2016-12-30T08:21:42.999Z</time>
      </trkpt>
      <trkpt lat="47.51334" lon="6.77279">
        <ele>423.2</ele>
        <time>2016-12-30T08:21:43.999Z</time>
      </trkpt>
      <trkpt lat="47.5133" lon="6.77281">
        <ele>423.4</ele>
        <time>2016-12-30T08:21:44.999Z</time>
      </trkpt>
      <trkpt lat="47.51327" lon="6.77282">
        <ele>423.5</ele>
        <time>2016-12-30T08:21:45.999Z</time>
      </trkpt>
      <trkpt lat="47.51323" lon="6.77282">
        <ele>423.6</ele>
        <time>2016-12-30T08:21:46.999Z</time>
      </trkpt>
      <trkpt lat="47.5132" lon="6.77282">
        <ele>423.6</ele>
        <time>2016-12-30T08:21:47.999Z</time>
      </trkpt>
      <trkpt lat="47.51317" lon="6.77282">
        <ele>423.7</ele>
        <time>2016-12-30T08:21:48.999Z</time>
      </trkpt>
      <trkpt lat="47.51314" lon="6.77281">
        <ele>423.8</ele>
        <time>2016-12-30T08:21:49.999Z</time>
      </trkpt>
      <trkpt lat="47.51311" lon="6.77281">
        <ele>423.9</ele>
        <time>2016-12-30T08:21:50.999Z</time>
      </trkpt>
      <trkpt lat="47.51308" lon="6.7728">
        <ele>424</ele>
        <time>2016-12-30T08:21:51.999Z</time>
      </trkpt>
      <trkpt lat="47.51305" lon="6.77279">
        <ele>424.2</ele>
        <time>2016-12-30T08:21:52.999Z</time>
      </trkpt>
      <trkpt lat="47.51303" lon="6.77277">
        <ele>424.3</ele>
        <time>2016-12-30T08:21:53.999Z</time>
      </trkpt>
      <trkpt lat="47.513" lon="6.77276">
        <ele>424.4</ele>
        <time>2016-12-30T08:21:54.999Z</time>
      </trkpt>
      <trkpt lat="47.51297" lon="6.77274">
        <ele>424.5</ele>
        <time>2016-12-30T08:21:55.999Z</time>
      </trkpt>
      <trkpt lat="47.51294" lon="6.77272">
        <ele>424.6</ele>
        <time>2016-12-30T08:21:56.999Z</time>
      </trkpt>
      <trkpt lat="47.51291" lon="6.7727">
        <ele>424.7</ele>
        <time>2016-12-30T08:21:57.999Z</time>
      </trkpt>
      <trkpt lat="47.51288" lon="6.77269">
        <ele>424.8</ele>
        <time>2016-12-30T08:21:58.999Z</time>
      </trkpt>
      <trkpt lat="47.51284" lon="6.77267">
        <ele>425</ele>
        <time>2016-12-30T08:21:59.999Z</time>
      </trkpt>
      <trkpt lat="47.51281" lon="6.77266">
        <ele>425.2</ele>
        <time>2016-12-30T08:22:00.999Z</time>
      </trkpt>
      <trkpt lat="47.51277" lon="6.77264">
        <ele>425.4</ele>
        <time>2016-12-30T08:22:01.999Z</time>
      </trkpt>
      <trkpt lat="47.51273" lon="6.77262">
        <ele>425.6</ele>
        <time>2016-12-30T08:22:02.999Z</time>
      </trkpt>
      <trkpt lat="47.51271" lon="6.7726">
        <ele>425.8</ele>
        <time>2016-12-30T08:22:03.999Z</time>
      </trkpt>
      <trkpt lat="47.51267" lon="6.77257">
        <ele>426</ele>
        <time>2016-12-30T08:22:04.999Z</time>
      </trkpt>
      <trkpt lat="47.51264" lon="6.77255">
        <ele>427.6</ele>
        <time>2016-12-30T08:22:05.999Z</time>
      </trkpt>
      <trkpt lat="47.51262" lon="6.77252">
        <ele>428.4</ele>
        <time>2016-12-30T08:22:06.999Z</time>
      </trkpt>
      <trkpt lat="47.51259" lon="6.77248">
        <ele>428.9</ele>
        <time>2016-12-30T08:22:07.999Z</time>
      </trkpt>
      <trkpt lat="47.51256" lon="6.77243">
        <ele>429.7</ele>
        <time>2016-12-30T08:22:08.999Z</time>
      </trkpt>
      <trkpt lat="47.51253" lon="6.77238">
        <ele>430.2</ele>
        <time>2016-12-30T08:22:09.999Z</time>
      </trkpt>
      <trkpt lat="47.51249" lon="6.77232">
        <ele>430</ele>
        <time>2016-12-30T08:22:10.999Z</time>
      </trkpt>
      <trkpt lat="47.51246" lon="6.77226">
        <ele>430</ele>
        <time>2016-12-30T08:22:11.999Z</time>
      </trkpt>
      <trkpt lat="47.51242" lon="6.77219">
        <ele>430</ele>
        <time>2016-12-30T08:22:12.999Z</time>
      </trkpt>
      <trkpt lat="47.51239" lon="6.77212">
        <ele>430</ele>
        <time>2016-12-30T08:22:13.999Z</time>
      </trkpt>
      <trkpt lat="47.51236" lon="6.77205">
        <ele>430.3</ele>
        <time>2016-12-30T08:22:14.999Z</time>
      </trkpt>
      <trkpt lat="47.51234" lon="6.772">
        <ele>429.6</ele>
        <time>2016-12-30T08:22:15.999Z</time>
      </trkpt>
      <trkpt lat="47.51232" lon="6.77195">
        <ele>428.9</ele>
        <time>2016-12-30T08:22:16.999Z</time>
      </trkpt>
      <trkpt lat="47.51229" lon="6.77189">
        <ele>429.1</ele>
        <time>2016-12-30T08:22:17.999Z</time>
      </trkpt>
      <trkpt lat="47.51226" lon="6.77182">
        <ele>429.6</ele>
        <time>2016-12-30T08:22:18.999Z</time>
      </trkpt>
      <trkpt lat="47.51223" lon="6.77174">
        <ele>429.7</ele>
        <time>2016-12-30T08:22:19.999Z</time>
      </trkpt>
      <trkpt lat="47.51219" lon="6.77167">
        <ele>429.7</ele>
        <time>2016-12-30T08:22:20.999Z</time>
      </trkpt>
      <trkpt lat="47.51215" lon="6.7716">
        <ele>430</ele>
        <time>2016-12-30T08:22:21.999Z</time>
      </trkpt>
      <trkpt lat="47.51212" lon="6.77153">
        <ele>430.3</ele>
        <time>2016-12-30T08:22:22.999Z</time>
      </trkpt>
      <trkpt lat="47.51208" lon="6.77145">
        <ele>430.9</ele>
        <time>2016-12-30T08:22:23.999Z</time>
      </trkpt>
      <trkpt lat="47.51203" lon="6.77137">
        <ele>431.5</ele>
        <time>2016-12-30T08:22:24.999Z</time>
      </trkpt>
      <trkpt lat="47.51199" lon="6.77129">
        <ele>431.6</ele>
        <time>2016-12-30T08:22:25.999Z</time>
      </trkpt>
      <trkpt lat="47.51195" lon="6.77121">
        <ele>431.4</ele>
        <time>2016-12-30T08:22:26.999Z</time>
      </trkpt>
      <trkpt lat="47.51191" lon="6.77113">
        <ele>431</ele>
        <time>2016-12-30T08:22:27.999Z</time>
      </trkpt>
      <trkpt lat="47.51187" lon="6.77105">
        <ele>430.8</ele>
        <time>2016-12-30T08:22:28.999Z</time>
      </trkpt>
      <trkpt lat="47.51182" lon="6.77097">
        <ele>430.2</ele>
        <time>2016-12-30T08:22:29.999Z</time>
      </trkpt>
      <trkpt lat="47.51178" lon="6.77089">
        <ele>429.7</ele>
        <time>2016-12-30T08:22:30.999Z</time>
      </trkpt>
      <trkpt lat="47.51174" lon="6.77082">
        <ele>429.2</ele>
        <time>2016-12-30T08:22:31.999Z</time>
      </trkpt>
      <trkpt lat="47.5117" lon="6.77075">
        <ele>428.9</ele>
        <time>2016-12-30T08:22:32.999Z</time>
      </trkpt>
      <trkpt lat="47.51166" lon="6.77068">
        <ele>428.4</ele>
        <time>2016-12-30T08:22:33.999Z</time>
      </trkpt>
      <trkpt lat="47.51162" lon="6.77063">
        <ele>427.8</ele>
        <time>2016-12-30T08:22:34.999Z</time>
      </trkpt>
      <trkpt lat="47.51157" lon="6.77058">
        <ele>427</ele>
        <time>2016-12-30T08:22:35.999Z</time>
      </trkpt>
      <trkpt lat="47.51152" lon="6.77052">
        <ele>426.7</ele>
        <time>2016-12-30T08:22:36.999Z</time>
      </trkpt>
      <trkpt lat="47.51146" lon="6.77046">
        <ele>426.8</ele>
        <time>2016-12-30T08:22:37.999Z</time>
      </trkpt>
      <trkpt lat="47.5114" lon="6.77041">
        <ele>426.2</ele>
        <time>2016-12-30T08:22:38.999Z</time>
      </trkpt>
      <trkpt lat="47.51135" lon="6.77036">
        <ele>426.3</ele>
        <time>2016-12-30T08:22:39.999Z</time>
      </trkpt>
      <trkpt lat="47.51129" lon="6.77031">
        <ele>426.4</ele>
        <time>2016-12-30T08:22:40.999Z</time>
      </trkpt>
      <trkpt lat="47.51123" lon="6.77027">
        <ele>425.7</ele>
        <time>2016-12-30T08:22:41.999Z</time>
      </trkpt>
      <trkpt lat="47.51117" lon="6.77022">
        <ele>425.3</ele>
        <time>2016-12-30T08:22:42.999Z</time>
      </trkpt>
      <trkpt lat="47.51111" lon="6.77017">
        <ele>425</ele>
        <time>2016-12-30T08:22:43.999Z</time>
      </trkpt>
      <trkpt lat="47.51106" lon="6.77013">
        <ele>425</ele>
        <time>2016-12-30T08:22:44.999Z</time>
      </trkpt>
      <trkpt lat="47.51101" lon="6.77009">
        <ele>424.8</ele>
        <time>2016-12-30T08:22:45.999Z</time>
      </trkpt>
      <trkpt lat="47.51096" lon="6.77004">
        <ele>424.8</ele>
        <time>2016-12-30T08:22:46.999Z</time>
      </trkpt>
      <trkpt lat="47.51092" lon="6.77001">
        <ele>424.7</ele>
        <time>2016-12-30T08:22:47.999Z</time>
      </trkpt>
      <trkpt lat="47.51086" lon="6.76996">
        <ele>424.8</ele>
        <time>2016-12-30T08:22:48.999Z</time>
      </trkpt>
      <trkpt lat="47.5108" lon="6.76991">
        <ele>424.9</ele>
        <time>2016-12-30T08:22:49.999Z</time>
      </trkpt>
      <trkpt lat="47.51076" lon="6.76987">
        <ele>425.1</ele>
        <time>2016-12-30T08:22:50.999Z</time>
      </trkpt>
      <trkpt lat="47.5107" lon="6.76983">
        <ele>424.6</ele>
        <time>2016-12-30T08:22:51.999Z</time>
      </trkpt>
      <trkpt lat="47.51065" lon="6.76978">
        <ele>424.4</ele>
        <time>2016-12-30T08:22:52.999Z</time>
      </trkpt>
      <trkpt lat="47.5106" lon="6.76974">
        <ele>424.2</ele>
        <time>2016-12-30T08:22:53.999Z</time>
      </trkpt>
      <trkpt lat="47.51056" lon="6.76971">
        <ele>424.7</ele>
        <time>2016-12-30T08:22:54.999Z</time>
      </trkpt>
      <trkpt lat="47.51051" lon="6.76967">
        <ele>424.7</ele>
        <time>2016-12-30T08:22:55.999Z</time>
      </trkpt>
      <trkpt lat="47.51045" lon="6.76962">
        <ele>425.2</ele>
        <time>2016-12-30T08:22:56.999Z</time>
      </trkpt>
      <trkpt lat="47.5104" lon="6.76959">
        <ele>425.6</ele>
        <time>2016-12-30T08:22:57.999Z</time>
      </trkpt>
      <trkpt lat="47.51035" lon="6.76953">
        <ele>426</ele>
        <time>2016-12-30T08:22:58.999Z</time>
      </trkpt>
      <trkpt lat="47.5103" lon="6.76949">
        <ele>426.8</ele>
        <time>2016-12-30T08:22:59.999Z</time>
      </trkpt>
      <trkpt lat="47.51027" lon="6.76945">
        <ele>427.1</ele>
        <time>2016-12-30T08:23:00.999Z</time>
      </trkpt>
      <trkpt lat="47.51023" lon="6.76941">
        <ele>427.2</ele>
        <time>2016-12-30T08:23:01.999Z</time>
      </trkpt>
      <trkpt lat="47.51019" lon="6.76936">
        <ele>426.4</ele>
        <time>2016-12-30T08:23:02.999Z</time>
      </trkpt>
      <trkpt lat="47.51015" lon="6.7693">
        <ele>426.2</ele>
        <time>2016-12-30T08:23:03.999Z</time>
      </trkpt>
      <trkpt lat="47.51011" lon="6.76926">
        <ele>425.8</ele>
        <time>2016-12-30T08:23:04.999Z</time>
      </trkpt>
      <trkpt lat="47.51006" lon="6.76922">
        <ele>425.8</ele>
        <time>2016-12-30T08:23:05.999Z</time>
      </trkpt>
      <trkpt lat="47.51" lon="6.76918">
        <ele>426.6</ele>
        <time>2016-12-30T08:23:06.999Z</time>
      </trkpt>
      <trkpt lat="47.50997" lon="6.76911">
        <ele>427</ele>
        <time>2016-12-30T08:23:07.999Z</time>
      </trkpt>
      <trkpt lat="47.50996" lon="6.76907">
        <ele>427.1</ele>
        <time>2016-12-30T08:23:08.999Z</time>
      </trkpt>
      <trkpt lat="47.50994" lon="6.76903">
        <ele>427.7</ele>
        <time>2016-12-30T08:23:09.999Z</time>
      </trkpt>
      <trkpt lat="47.50991" lon="6.76899">
        <ele>428.1</ele>
        <time>2016-12-30T08:23:10.999Z</time>
      </trkpt>
      <trkpt lat="47.50987" lon="6.76898">
        <ele>427.9</ele>
        <time>2016-12-30T08:23:11.999Z</time>
      </trkpt>
      <trkpt lat="47.50983" lon="6.76897">
        <ele>427.9</ele>
        <time>2016-12-30T08:23:12.999Z</time>
      </trkpt>
      <trkpt lat="47.5098" lon="6.76897">
        <ele>427.8</ele>
        <time>2016-12-30T08:23:13.999Z</time>
      </trkpt>
      <trkpt lat="47.50975" lon="6.76898">
        <ele>427.7</ele>
        <time>2016-12-30T08:23:14.999Z</time>
      </trkpt>
      <trkpt lat="47.50971" lon="6.76899">
        <ele>427.6</ele>
        <time>2016-12-30T08:23:15.999Z</time>
      </trkpt>
      <trkpt lat="47.50967" lon="6.76899">
        <ele>427.4</ele>
        <time>2016-12-30T08:23:16.999Z</time>
      </trkpt>
      <trkpt lat="47.50963" lon="6.76897">
        <ele>427.2</ele>
        <time>2016-12-30T08:23:17.999Z</time>
      </trkpt>
      <trkpt lat="47.5096" lon="6.76895">
        <ele>427</ele>
        <time>2016-12-30T08:23:18.999Z</time>
      </trkpt>
      <trkpt lat="47.50956" lon="6.76892">
        <ele>426.8</ele>
        <time>2016-12-30T08:23:19.999Z</time>
      </trkpt>
      <trkpt lat="47.50954" lon="6.76891">
        <ele>426.5</ele>
        <time>2016-12-30T08:23:20.999Z</time>
      </trkpt>
      <trkpt lat="47.50949" lon="6.76887">
        <ele>426.3</ele>
        <time>2016-12-30T08:23:21.999Z</time>
      </trkpt>
      <trkpt lat="47.50946" lon="6.76885">
        <ele>426.1</ele>
        <time>2016-12-30T08:23:22.999Z</time>
      </trkpt>
      <trkpt lat="47.50943" lon="6.7688">
        <ele>424.6</ele>
        <time>2016-12-30T08:23:23.999Z</time>
      </trkpt>
      <trkpt lat="47.5094" lon="6.76876">
        <ele>424.4</ele>
        <time>2016-12-30T08:23:24.999Z</time>
      </trkpt>
      <trkpt lat="47.50937" lon="6.7687">
        <ele>424.4</ele>
        <time>2016-12-30T08:23:25.999Z</time>
      </trkpt>
      <trkpt lat="47.50934" lon="6.76865">
        <ele>424.3</ele>
        <time>2016-12-30T08:23:26.999Z</time>
      </trkpt>
      <trkpt lat="47.50932" lon="6.76862">
        <ele>424.3</ele>
        <time>2016-12-30T08:23:27.999Z</time>
      </trkpt>
      <trkpt lat="47.50929" lon="6.76857">
        <ele>424.8</ele>
        <time>2016-12-30T08:23:28.999Z</time>
      </trkpt>
      <trkpt lat="47.50926" lon="6.76853">
        <ele>424.9</ele>
        <time>2016-12-30T08:23:29.999Z</time>
      </trkpt>
      <trkpt lat="47.50922" lon="6.76848">
        <ele>425.1</ele>
        <time>2016-12-30T08:23:30.999Z</time>
      </trkpt>
      <trkpt lat="47.5092" lon="6.76842">
        <ele>425.2</ele>
        <time>2016-12-30T08:23:31.999Z</time>
      </trkpt>
      <trkpt lat="47.50918" lon="6.76836">
        <ele>425.3</ele>
        <time>2016-12-30T08:23:32.999Z</time>
      </trkpt>
      <trkpt lat="47.50915" lon="6.76829">
        <ele>426.2</ele>
        <time>2016-12-30T08:23:33.999Z</time>
      </trkpt>
      <trkpt lat="47.50913" lon="6.76824">
        <ele>426.3</ele>
        <time>2016-12-30T08:23:34.999Z</time>
      </trkpt>
      <trkpt lat="47.50911" lon="6.76818">
        <ele>427.5</ele>
        <time>2016-12-30T08:23:35.999Z</time>
      </trkpt>
      <trkpt lat="47.50909" lon="6.76811">
        <ele>428.6</ele>
        <time>2016-12-30T08:23:36.999Z</time>
      </trkpt>
      <trkpt lat="47.50906" lon="6.76805">
        <ele>428.7</ele>
        <time>2016-12-30T08:23:37.999Z</time>
      </trkpt>
      <trkpt lat="47.50904" lon="6.768">
        <ele>428.9</ele>
        <time>2016-12-30T08:23:38.999Z</time>
      </trkpt>
      <trkpt lat="47.50902" lon="6.76796">
        <ele>430.2</ele>
        <time>2016-12-30T08:23:39.999Z</time>
      </trkpt>
      <trkpt lat="47.509" lon="6.76791">
        <ele>430.7</ele>
        <time>2016-12-30T08:23:40.999Z</time>
      </trkpt>
      <trkpt lat="47.50899" lon="6.76787">
        <ele>430.7</ele>
        <time>2016-12-30T08:23:41.999Z</time>
      </trkpt>
      <trkpt lat="47.50897" lon="6.76783">
        <ele>430.8</ele>
        <time>2016-12-30T08:23:42.999Z</time>
      </trkpt>
      <trkpt lat="47.50895" lon="6.76778">
        <ele>431.1</ele>
        <time>2016-12-30T08:23:43.999Z</time>
      </trkpt>
      <trkpt lat="47.50893" lon="6.76774">
        <ele>431.2</ele>
        <time>2016-12-30T08:23:44.999Z</time>
      </trkpt>
      <trkpt lat="47.50891" lon="6.7677">
        <ele>431.2</ele>
        <time>2016-12-30T08:23:45.999Z</time>
      </trkpt>
      <trkpt lat="47.5089" lon="6.76766">
        <ele>431.3</ele>
        <time>2016-12-30T08:23:46.999Z</time>
      </trkpt>
      <trkpt lat="47.50888" lon="6.76761">
        <ele>430.9</ele>
        <time>2016-12-30T08:23:47.999Z</time>
      </trkpt>
      <trkpt lat="47.50887" lon="6.76756">
        <ele>431.1</ele>
        <time>2016-12-30T08:23:48.999Z</time>
      </trkpt>
      <trkpt lat="47.50885" lon="6.7675">
        <ele>431.4</ele>
        <time>2016-12-30T08:23:49.999Z</time>
      </trkpt>
      <trkpt lat="47.50883" lon="6.76745">
        <ele>431.4</ele>
        <time>2016-12-30T08:23:50.999Z</time>
      </trkpt>
      <trkpt lat="47.50882" lon="6.7674">
        <ele>431.4</ele>
        <time>2016-12-30T08:23:51.999Z</time>
      </trkpt>
      <trkpt lat="47.5088" lon="6.76735">
        <ele>431.4</ele>
        <time>2016-12-30T08:23:52.999Z</time>
      </trkpt>
      <trkpt lat="47.50878" lon="6.7673">
        <ele>431.4</ele>
        <time>2016-12-30T08:23:53.999Z</time>
      </trkpt>
      <trkpt lat="47.50876" lon="6.76724">
        <ele>431.4</ele>
        <time>2016-12-30T08:23:54.999Z</time>
      </trkpt>
      <trkpt lat="47.50874" lon="6.7672">
        <ele>431.5</ele>
        <time>2016-12-30T08:23:55.999Z</time>
      </trkpt>
      <trkpt lat="47.50873" lon="6.76715">
        <ele>431.5</ele>
        <time>2016-12-30T08:23:56.999Z</time>
      </trkpt>
      <trkpt lat="47.50871" lon="6.7671">
        <ele>431.5</ele>
        <time>2016-12-30T08:23:57.999Z</time>
      </trkpt>
      <trkpt lat="47.50869" lon="6.76705">
        <ele>431.6</ele>
        <time>2016-12-30T08:23:58.999Z</time>
      </trkpt>
      <trkpt lat="47.50868" lon="6.76701">
        <ele>431.7</ele>
        <time>2016-12-30T08:23:59.999Z</time>
      </trkpt>
      <trkpt lat="47.50866" lon="6.76696">
        <ele>431.7</ele>
        <time>2016-12-30T08:24:00.999Z</time>
      </trkpt>
      <trkpt lat="47.50864" lon="6.76691">
        <ele>431.7</ele>
        <time>2016-12-30T08:24:01.999Z</time>
      </trkpt>
      <trkpt lat="47.50862" lon="6.76687">
        <ele>431.8</ele>
        <time>2016-12-30T08:24:02.999Z</time>
      </trkpt>
      <trkpt lat="47.50861" lon="6.76682">
        <ele>431.9</ele>
        <time>2016-12-30T08:24:03.999Z</time>
      </trkpt>
      <trkpt lat="47.50859" lon="6.76678">
        <ele>432</ele>
        <time>2016-12-30T08:24:04.999Z</time>
      </trkpt>
      <trkpt lat="47.50858" lon="6.76674">
        <ele>432.1</ele>
        <time>2016-12-30T08:24:05.999Z</time>
      </trkpt>
      <trkpt lat="47.50856" lon="6.7667">
        <ele>432.2</ele>
        <time>2016-12-30T08:24:06.999Z</time>
      </trkpt>
      <trkpt lat="47.50855" lon="6.76665">
        <ele>432.3</ele>
        <time>2016-12-30T08:24:07.999Z</time>
      </trkpt>
      <trkpt lat="47.50853" lon="6.76661">
        <ele>432.4</ele>
        <time>2016-12-30T08:24:08.999Z</time>
      </trkpt>
      <trkpt lat="47.50851" lon="6.76657">
        <ele>432.5</ele>
        <time>2016-12-30T08:24:09.999Z</time>
      </trkpt>
      <trkpt lat="47.50849" lon="6.76653">
        <ele>432.6</ele>
        <time>2016-12-30T08:24:10.999Z</time>
      </trkpt>
      <trkpt lat="47.50847" lon="6.7665">
        <ele>432.7</ele>
        <time>2016-12-30T08:24:11.999Z</time>
      </trkpt>
      <trkpt lat="47.50846" lon="6.76646">
        <ele>432.9</ele>
        <time>2016-12-30T08:24:12.999Z</time>
      </trkpt>
      <trkpt lat="47.50844" lon="6.76643">
        <ele>432.9</ele>
        <time>2016-12-30T08:24:13.999Z</time>
      </trkpt>
      <trkpt lat="47.50843" lon="6.7664">
        <ele>433.1</ele>
        <time>2016-12-30T08:24:14.999Z</time>
      </trkpt>
      <trkpt lat="47.50841" lon="6.76637">
        <ele>433.2</ele>
        <time>2016-12-30T08:24:15.999Z</time>
      </trkpt>
      <trkpt lat="47.5084" lon="6.76633">
        <ele>433.4</ele>
        <time>2016-12-30T08:24:16.999Z</time>
      </trkpt>
      <trkpt lat="47.50838" lon="6.76629">
        <ele>433.5</ele>
        <time>2016-12-30T08:24:17.999Z</time>
      </trkpt>
      <trkpt lat="47.50837" lon="6.76626">
        <ele>433.7</ele>
        <time>2016-12-30T08:24:18.999Z</time>
      </trkpt>
      <trkpt lat="47.50835" lon="6.76622">
        <ele>433.9</ele>
        <time>2016-12-30T08:24:19.999Z</time>
      </trkpt>
      <trkpt lat="47.50833" lon="6.76618">
        <ele>434</ele>
        <time>2016-12-30T08:24:20.999Z</time>
      </trkpt>
      <trkpt lat="47.50832" lon="6.76614">
        <ele>434.2</ele>
        <time>2016-12-30T08:24:21.999Z</time>
      </trkpt>
      <trkpt lat="47.5083" lon="6.76611">
        <ele>434.3</ele>
        <time>2016-12-30T08:24:22.999Z</time>
      </trkpt>
      <trkpt lat="47.50829" lon="6.76607">
        <ele>434.5</ele>
        <time>2016-12-30T08:24:23.999Z</time>
      </trkpt>
      <trkpt lat="47.50828" lon="6.76603">
        <ele>434.6</ele>
        <time>2016-12-30T08:24:24.999Z</time>
      </trkpt>
      <trkpt lat="47.50826" lon="6.76599">
        <ele>434.8</ele>
        <time>2016-12-30T08:24:25.999Z</time>
      </trkpt>
      <trkpt lat="47.50825" lon="6.76595">
        <ele>435</ele>
        <time>2016-12-30T08:24:26.999Z</time>
      </trkpt>
      <trkpt lat="47.50824" lon="6.76592">
        <ele>435.1</ele>
        <time>2016-12-30T08:24:27.999Z</time>
      </trkpt>
      <trkpt lat="47.50821" lon="6.76591">
        <ele>435.3</ele>
        <time>2016-12-30T08:24:28.999Z</time>
      </trkpt>
      <trkpt lat="47.50818" lon="6.76595">
        <ele>435.6</ele>
        <time>2016-12-30T08:24:30.999Z</time>
      </trkpt>
      <trkpt lat="47.50815" lon="6.76597">
        <ele>435.8</ele>
        <time>2016-12-30T08:24:31.999Z</time>
      </trkpt>
      <trkpt lat="47.50812" lon="6.76597">
        <ele>436</ele>
        <time>2016-12-30T08:24:32.999Z</time>
      </trkpt>
      <trkpt lat="47.50811" lon="6.76594">
        <ele>436.1</ele>
        <time>2016-12-30T08:24:33.999Z</time>
      </trkpt>
      <trkpt lat="47.50808" lon="6.76589">
        <ele>436.2</ele>
        <time>2016-12-30T08:24:35.999Z</time>
      </trkpt>
      <trkpt lat="47.50807" lon="6.76586">
        <ele>436.3</ele>
        <time>2016-12-30T08:24:36.999Z</time>
      </trkpt>
      <trkpt lat="47.50803" lon="6.76586">
        <ele>436.4</ele>
        <time>2016-12-30T08:24:38.999Z</time>
      </trkpt>
      <trkpt lat="47.508" lon="6.76586">
        <ele>436.4</ele>
        <time>2016-12-30T08:24:39.999Z</time>
      </trkpt>
      <trkpt lat="47.50797" lon="6.76587">
        <ele>436.4</ele>
        <time>2016-12-30T08:24:40.999Z</time>
      </trkpt>
      <trkpt lat="47.50795" lon="6.76588">
        <ele>436.5</ele>
        <time>2016-12-30T08:24:41.999Z</time>
      </trkpt>
      <trkpt lat="47.50792" lon="6.7659">
        <ele>437.7</ele>
        <time>2016-12-30T08:24:54.999Z</time>
      </trkpt>
      <trkpt lat="47.50786" lon="6.76592">
        <ele>437.8</ele>
        <time>2016-12-30T08:24:55.999Z</time>
      </trkpt>
      <trkpt lat="47.50786" lon="6.76592">
        <ele>438.9</ele>
        <time>2016-12-30T08:25:06.999Z</time>
      </trkpt>
      <trkpt lat="47.50775" lon="6.76593">
        <ele>438.9</ele>
        <time>2016-12-30T08:25:07.999Z</time>
      </trkpt>
      <trkpt lat="47.50772" lon="6.76594">
        <ele>439</ele>
        <time>2016-12-30T08:25:08.999Z</time>
      </trkpt>
      <trkpt lat="47.50769" lon="6.76596">
        <ele>439</ele>
        <time>2016-12-30T08:25:09.999Z</time>
      </trkpt>
      <trkpt lat="47.50767" lon="6.76597">
        <ele>439</ele>
        <time>2016-12-30T08:25:10.999Z</time>
      </trkpt>
      <trkpt lat="47.50764" lon="6.76598">
        <ele>439</ele>
        <time>2016-12-30T08:25:11.999Z</time>
      </trkpt>
      <trkpt lat="47.50761" lon="6.76598">
        <ele>439.1</ele>
        <time>2016-12-30T08:25:12.999Z</time>
      </trkpt>
      <trkpt lat="47.50758" lon="6.76599">
        <ele>439.2</ele>
        <time>2016-12-30T08:25:13.999Z</time>
      </trkpt>
      <trkpt lat="47.50756" lon="6.76598">
        <ele>439.3</ele>
        <time>2016-12-30T08:25:14.999Z</time>
      </trkpt>
      <trkpt lat="47.50752" lon="6.76597">
        <ele>439.3</ele>
        <time>2016-12-30T08:25:15.999Z</time>
      </trkpt>
      <trkpt lat="47.50749" lon="6.76596">
        <ele>439.4</ele>
        <time>2016-12-30T08:25:16.999Z</time>
      </trkpt>
      <trkpt lat="47.50747" lon="6.76596">
        <ele>439.5</ele>
        <time>2016-12-30T08:25:17.999Z</time>
      </trkpt>
      <trkpt lat="47.50744" lon="6.76595">
        <ele>439.5</ele>
        <time>2016-12-30T08:25:18.999Z</time>
      </trkpt>
      <trkpt lat="47.50741" lon="6.76595">
        <ele>439.6</ele>
        <time>2016-12-30T08:25:19.999Z</time>
      </trkpt>
      <trkpt lat="47.50738" lon="6.76594">
        <ele>439.8</ele>
        <time>2016-12-30T08:25:20.999Z</time>
      </trkpt>
      <trkpt lat="47.50734" lon="6.76593">
        <ele>439.9</ele>
        <time>2016-12-30T08:25:21.999Z</time>
      </trkpt>
      <trkpt lat="47.50731" lon="6.76593">
        <ele>440</ele>
        <time>2016-12-30T08:25:22.999Z</time>
      </trkpt>
      <trkpt lat="47.50727" lon="6.76592">
        <ele>440.1</ele>
        <time>2016-12-30T08:25:23.999Z</time>
      </trkpt>
      <trkpt lat="47.50725" lon="6.76592">
        <ele>440.2</ele>
        <time>2016-12-30T08:25:24.999Z</time>
      </trkpt>
      <trkpt lat="47.50722" lon="6.76592">
        <ele>440.3</ele>
        <time>2016-12-30T08:25:25.999Z</time>
      </trkpt>
      <trkpt lat="47.5072" lon="6.76592">
        <ele>440.4</ele>
        <time>2016-12-30T08:25:26.999Z</time>
      </trkpt>
      <trkpt lat="47.50718" lon="6.76592">
        <ele>440.4</ele>
        <time>2016-12-30T08:25:27.999Z</time>
      </trkpt>
      <trkpt lat="47.50715" lon="6.76591">
        <ele>440.5</ele>
        <time>2016-12-30T08:25:28.999Z</time>
      </trkpt>
      <trkpt lat="47.5071" lon="6.7659">
        <ele>440.6</ele>
        <time>2016-12-30T08:25:29.999Z</time>
      </trkpt>
      <trkpt lat="47.50708" lon="6.7659">
        <ele>440.7</ele>
        <time>2016-12-30T08:25:30.999Z</time>
      </trkpt>
      <trkpt lat="47.50705" lon="6.7659">
        <ele>440.7</ele>
        <time>2016-12-30T08:25:31.999Z</time>
      </trkpt>
      <trkpt lat="47.50702" lon="6.7659">
        <ele>440.8</ele>
        <time>2016-12-30T08:25:32.999Z</time>
      </trkpt>
      <trkpt lat="47.50698" lon="6.76589">
        <ele>440.8</ele>
        <time>2016-12-30T08:25:33.999Z</time>
      </trkpt>
      <trkpt lat="47.50695" lon="6.76589">
        <ele>440.9</ele>
        <time>2016-12-30T08:25:34.999Z</time>
      </trkpt>
      <trkpt lat="47.50693" lon="6.76589">
        <ele>441</ele>
        <time>2016-12-30T08:25:35.999Z</time>
      </trkpt>
      <trkpt lat="47.5069" lon="6.76589">
        <ele>441.1</ele>
        <time>2016-12-30T08:25:36.999Z</time>
      </trkpt>
      <trkpt lat="47.50687" lon="6.76589">
        <ele>441.1</ele>
        <time>2016-12-30T08:25:37.999Z</time>
      </trkpt>
      <trkpt lat="47.50683" lon="6.76589">
        <ele>441.2</ele>
        <time>2016-12-30T08:25:38.999Z</time>
      </trkpt>
      <trkpt lat="47.5068" lon="6.76589">
        <ele>441.3</ele>
        <time>2016-12-30T08:25:39.999Z</time>
      </trkpt>
      <trkpt lat="47.50678" lon="6.76589">
        <ele>441.3</ele>
        <time>2016-12-30T08:25:40.999Z</time>
      </trkpt>
      <trkpt lat="47.50674" lon="6.76589">
        <ele>441.5</ele>
        <time>2016-12-30T08:25:41.999Z</time>
      </trkpt>
      <trkpt lat="47.5067" lon="6.7659">
        <ele>441.6</ele>
        <time>2016-12-30T08:25:42.999Z</time>
      </trkpt>
      <trkpt lat="47.50667" lon="6.7659">
        <ele>441.7</ele>
        <time>2016-12-30T08:25:43.999Z</time>
      </trkpt>
      <trkpt lat="47.50663" lon="6.7659">
        <ele>441.8</ele>
        <time>2016-12-30T08:25:44.999Z</time>
      </trkpt>
      <trkpt lat="47.5066" lon="6.76591">
        <ele>441.9</ele>
        <time>2016-12-30T08:25:45.999Z</time>
      </trkpt>
      <trkpt lat="47.50658" lon="6.76591">
        <ele>442.1</ele>
        <time>2016-12-30T08:25:46.999Z</time>
      </trkpt>
      <trkpt lat="47.50655" lon="6.76594">
        <ele>442.2</ele>
        <time>2016-12-30T08:25:47.999Z</time>
      </trkpt>
      <trkpt lat="47.50653" lon="6.76594">
        <ele>442.3</ele>
        <time>2016-12-30T08:25:48.999Z</time>
      </trkpt>
      <trkpt lat="47.50649" lon="6.76597">
        <ele>442.3</ele>
        <time>2016-12-30T08:25:49.999Z</time>
      </trkpt>
      <trkpt lat="47.50646" lon="6.766">
        <ele>442.4</ele>
        <time>2016-12-30T08:25:50.999Z</time>
      </trkpt>
      <trkpt lat="47.50644" lon="6.76602">
        <ele>442.5</ele>
        <time>2016-12-30T08:25:51.999Z</time>
      </trkpt>
      <trkpt lat="47.50641" lon="6.76604">
        <ele>442.5</ele>
        <time>2016-12-30T08:25:52.999Z</time>
      </trkpt>
      <trkpt lat="47.50638" lon="6.76606">
        <ele>442.5</ele>
        <time>2016-12-30T08:25:53.999Z</time>
      </trkpt>
      <trkpt lat="47.50635" lon="6.76608">
        <ele>442.6</ele>
        <time>2016-12-30T08:25:54.999Z</time>
      </trkpt>
      <trkpt lat="47.50632" lon="6.76609">
        <ele>442.6</ele>
        <time>2016-12-30T08:25:55.999Z</time>
      </trkpt>
      <trkpt lat="47.5063" lon="6.76611">
        <ele>442.7</ele>
        <time>2016-12-30T08:25:56.999Z</time>
      </trkpt>
      <trkpt lat="47.50628" lon="6.76613">
        <ele>442.8</ele>
        <time>2016-12-30T08:25:57.999Z</time>
      </trkpt>
      <trkpt lat="47.50625" lon="6.76614">
        <ele>442.8</ele>
        <time>2016-12-30T08:25:58.999Z</time>
      </trkpt>
      <trkpt lat="47.50623" lon="6.76615">
        <ele>442.9</ele>
        <time>2016-12-30T08:25:59.999Z</time>
      </trkpt>
      <trkpt lat="47.50621" lon="6.76617">
        <ele>443</ele>
        <time>2016-12-30T08:26:00.999Z</time>
      </trkpt>
      <trkpt lat="47.50618" lon="6.76618">
        <ele>443.1</ele>
        <time>2016-12-30T08:26:01.999Z</time>
      </trkpt>
      <trkpt lat="47.50615" lon="6.7662">
        <ele>443.1</ele>
        <time>2016-12-30T08:26:02.999Z</time>
      </trkpt>
      <trkpt lat="47.50611" lon="6.76622">
        <ele>443.2</ele>
        <time>2016-12-30T08:26:03.999Z</time>
      </trkpt>
      <trkpt lat="47.50607" lon="6.76624">
        <ele>443.3</ele>
        <time>2016-12-30T08:26:04.999Z</time>
      </trkpt>
      <trkpt lat="47.50604" lon="6.76624">
        <ele>443.4</ele>
        <time>2016-12-30T08:26:05.999Z</time>
      </trkpt>
      <trkpt lat="47.50601" lon="6.76625">
        <ele>443.6</ele>
        <time>2016-12-30T08:26:06.999Z</time>
      </trkpt>
      <trkpt lat="47.50598" lon="6.76627">
        <ele>443.8</ele>
        <time>2016-12-30T08:26:07.999Z</time>
      </trkpt>
      <trkpt lat="47.50594" lon="6.76628">
        <ele>443.9</ele>
        <time>2016-12-30T08:26:08.999Z</time>
      </trkpt>
      <trkpt lat="47.50592" lon="6.76628">
        <ele>444</ele>
        <time>2016-12-30T08:26:09.999Z</time>
      </trkpt>
      <trkpt lat="47.50589" lon="6.76629">
        <ele>444.2</ele>
        <time>2016-12-30T08:26:10.999Z</time>
      </trkpt>
      <trkpt lat="47.50586" lon="6.7663">
        <ele>444.2</ele>
        <time>2016-12-30T08:26:11.999Z</time>
      </trkpt>
      <trkpt lat="47.50584" lon="6.7663">
        <ele>444.3</ele>
        <time>2016-12-30T08:26:12.999Z</time>
      </trkpt>
      <trkpt lat="47.50581" lon="6.76631">
        <ele>444.5</ele>
        <time>2016-12-30T08:26:13.999Z</time>
      </trkpt>
      <trkpt lat="47.50577" lon="6.76632">
        <ele>444.6</ele>
        <time>2016-12-30T08:26:14.999Z</time>
      </trkpt>
      <trkpt lat="47.50574" lon="6.76633">
        <ele>444.7</ele>
        <time>2016-12-30T08:26:15.999Z</time>
      </trkpt>
      <trkpt lat="47.50572" lon="6.76634">
        <ele>444.9</ele>
        <time>2016-12-30T08:26:16.999Z</time>
      </trkpt>
      <trkpt lat="47.50569" lon="6.76635">
        <ele>445</ele>
        <time>2016-12-30T08:26:17.999Z</time>
      </trkpt>
      <trkpt lat="47.50566" lon="6.76636">
        <ele>445.1</ele>
        <time>2016-12-30T08:26:18.999Z</time>
      </trkpt>
      <trkpt lat="47.50563" lon="6.76637">
        <ele>445.2</ele>
        <time>2016-12-30T08:26:19.999Z</time>
      </trkpt>
      <trkpt lat="47.5056" lon="6.76638">
        <ele>445.3</ele>
        <time>2016-12-30T08:26:20.999Z</time>
      </trkpt>
      <trkpt lat="47.50556" lon="6.76639">
        <ele>445.4</ele>
        <time>2016-12-30T08:26:21.999Z</time>
      </trkpt>
      <trkpt lat="47.50553" lon="6.7664">
        <ele>445.4</ele>
        <time>2016-12-30T08:26:22.999Z</time>
      </trkpt>
      <trkpt lat="47.50549" lon="6.76641">
        <ele>445.4</ele>
        <time>2016-12-30T08:26:23.999Z</time>
      </trkpt>
      <trkpt lat="47.50546" lon="6.76642">
        <ele>445.6</ele>
        <time>2016-12-30T08:26:24.999Z</time>
      </trkpt>
      <trkpt lat="47.50543" lon="6.76642">
        <ele>445.6</ele>
        <time>2016-12-30T08:26:25.999Z</time>
      </trkpt>
      <trkpt lat="47.5054" lon="6.76644">
        <ele>445.7</ele>
        <time>2016-12-30T08:26:26.999Z</time>
      </trkpt>
      <trkpt lat="47.50537" lon="6.76645">
        <ele>445.8</ele>
        <time>2016-12-30T08:26:27.999Z</time>
      </trkpt>
      <trkpt lat="47.50532" lon="6.76645">
        <ele>445.8</ele>
        <time>2016-12-30T08:26:28.999Z</time>
      </trkpt>
      <trkpt lat="47.50529" lon="6.76646">
        <ele>446.2</ele>
        <time>2016-12-30T08:26:29.999Z</time>
      </trkpt>
      <trkpt lat="47.50526" lon="6.76647">
        <ele>446.2</ele>
        <time>2016-12-30T08:26:30.999Z</time>
      </trkpt>
      <trkpt lat="47.50522" lon="6.76649">
        <ele>446.4</ele>
        <time>2016-12-30T08:26:31.999Z</time>
      </trkpt>
      <trkpt lat="47.50517" lon="6.7665">
        <ele>446.8</ele>
        <time>2016-12-30T08:26:32.999Z</time>
      </trkpt>
      <trkpt lat="47.50512" lon="6.76652">
        <ele>447.4</ele>
        <time>2016-12-30T08:26:33.999Z</time>
      </trkpt>
      <trkpt lat="47.50508" lon="6.76653">
        <ele>448</ele>
        <time>2016-12-30T08:26:34.999Z</time>
      </trkpt>
      <trkpt lat="47.50503" lon="6.76654">
        <ele>448</ele>
        <time>2016-12-30T08:26:35.999Z</time>
      </trkpt>
      <trkpt lat="47.50498" lon="6.76654">
        <ele>448.1</ele>
        <time>2016-12-30T08:26:36.999Z</time>
      </trkpt>
      <trkpt lat="47.50494" lon="6.76655">
        <ele>448.3</ele>
        <time>2016-12-30T08:26:37.999Z</time>
      </trkpt>
      <trkpt lat="47.50489" lon="6.76656">
        <ele>448.5</ele>
        <time>2016-12-30T08:26:38.999Z</time>
      </trkpt>
      <trkpt lat="47.50484" lon="6.76658">
        <ele>448.7</ele>
        <time>2016-12-30T08:26:39.999Z</time>
      </trkpt>
      <trkpt lat="47.50479" lon="6.7666">
        <ele>449.4</ele>
        <time>2016-12-30T08:26:40.999Z</time>
      </trkpt>
      <trkpt lat="47.50474" lon="6.76662">
        <ele>449.6</ele>
        <time>2016-12-30T08:26:41.999Z</time>
      </trkpt>
      <trkpt lat="47.50469" lon="6.76663">
        <ele>449.8</ele>
        <time>2016-12-30T08:26:42.999Z</time>
      </trkpt>
      <trkpt lat="47.50464" lon="6.76665">
        <ele>450.2</ele>
        <time>2016-12-30T08:26:43.999Z</time>
      </trkpt>
      <trkpt lat="47.50459" lon="6.76667">
        <ele>450.5</ele>
        <time>2016-12-30T08:26:44.999Z</time>
      </trkpt>
      <trkpt lat="47.50454" lon="6.76669">
        <ele>450.8</ele>
        <time>2016-12-30T08:26:45.999Z</time>
      </trkpt>
      <trkpt lat="47.5045" lon="6.76671">
        <ele>450.2</ele>
        <time>2016-12-30T08:26:46.999Z</time>
      </trkpt>
      <trkpt lat="47.50446" lon="6.76673">
        <ele>449.8</ele>
        <time>2016-12-30T08:26:47.999Z</time>
      </trkpt>
      <trkpt lat="47.50442" lon="6.76675">
        <ele>449.7</ele>
        <time>2016-12-30T08:26:48.999Z</time>
      </trkpt>
      <trkpt lat="47.50437" lon="6.76677">
        <ele>449.1</ele>
        <time>2016-12-30T08:26:49.999Z</time>
      </trkpt>
      <trkpt lat="47.50432" lon="6.7668">
        <ele>448.5</ele>
        <time>2016-12-30T08:26:50.999Z</time>
      </trkpt>
      <trkpt lat="47.50428" lon="6.76682">
        <ele>448.4</ele>
        <time>2016-12-30T08:26:51.999Z</time>
      </trkpt>
      <trkpt lat="47.50425" lon="6.76684">
        <ele>448.4</ele>
        <time>2016-12-30T08:26:52.999Z</time>
      </trkpt>
      <trkpt lat="47.5042" lon="6.76686">
        <ele>448.5</ele>
        <time>2016-12-30T08:26:53.999Z</time>
      </trkpt>
      <trkpt lat="47.50416" lon="6.76688">
        <ele>448.7</ele>
        <time>2016-12-30T08:26:54.999Z</time>
      </trkpt>
      <trkpt lat="47.50411" lon="6.7669">
        <ele>448.2</ele>
        <time>2016-12-30T08:26:55.999Z</time>
      </trkpt>
      <trkpt lat="47.50406" lon="6.76692">
        <ele>448.3</ele>
        <time>2016-12-30T08:26:56.999Z</time>
      </trkpt>
      <trkpt lat="47.50402" lon="6.76694">
        <ele>448.2</ele>
        <time>2016-12-30T08:26:57.999Z</time>
      </trkpt>
      <trkpt lat="47.50397" lon="6.76696">
        <ele>447.9</ele>
        <time>2016-12-30T08:26:58.999Z</time>
      </trkpt>
      <trkpt lat="47.50393" lon="6.76697">
        <ele>447.7</ele>
        <time>2016-12-30T08:26:59.999Z</time>
      </trkpt>
      <trkpt lat="47.50389" lon="6.76699">
        <ele>447.5</ele>
        <time>2016-12-30T08:27:00.999Z</time>
      </trkpt>
      <trkpt lat="47.50386" lon="6.767">
        <ele>447.9</ele>
        <time>2016-12-30T08:27:01.999Z</time>
      </trkpt>
      <trkpt lat="47.50382" lon="6.76702">
        <ele>448.3</ele>
        <time>2016-12-30T08:27:02.999Z</time>
      </trkpt>
      <trkpt lat="47.50377" lon="6.76704">
        <ele>448.5</ele>
        <time>2016-12-30T08:27:03.999Z</time>
      </trkpt>
      <trkpt lat="47.50373" lon="6.76706">
        <ele>448.6</ele>
        <time>2016-12-30T08:27:04.999Z</time>
      </trkpt>
      <trkpt lat="47.50369" lon="6.76708">
        <ele>448.6</ele>
        <time>2016-12-30T08:27:05.999Z</time>
      </trkpt>
      <trkpt lat="47.50365" lon="6.76709">
        <ele>448.5</ele>
        <time>2016-12-30T08:27:06.999Z</time>
      </trkpt>
      <trkpt lat="47.50361" lon="6.76711">
        <ele>448.7</ele>
        <time>2016-12-30T08:27:07.999Z</time>
      </trkpt>
      <trkpt lat="47.50356" lon="6.76712">
        <ele>449.2</ele>
        <time>2016-12-30T08:27:08.999Z</time>
      </trkpt>
      <trkpt lat="47.50351" lon="6.76714">
        <ele>449.8</ele>
        <time>2016-12-30T08:27:09.999Z</time>
      </trkpt>
      <trkpt lat="47.50347" lon="6.76715">
        <ele>449.8</ele>
        <time>2016-12-30T08:27:10.999Z</time>
      </trkpt>
      <trkpt lat="47.50342" lon="6.76716">
        <ele>450.1</ele>
        <time>2016-12-30T08:27:11.999Z</time>
      </trkpt>
      <trkpt lat="47.50338" lon="6.76718">
        <ele>449.9</ele>
        <time>2016-12-30T08:27:12.999Z</time>
      </trkpt>
      <trkpt lat="47.50334" lon="6.76719">
        <ele>449.4</ele>
        <time>2016-12-30T08:27:13.999Z</time>
      </trkpt>
      <trkpt lat="47.50329" lon="6.76721">
        <ele>448.9</ele>
        <time>2016-12-30T08:27:14.999Z</time>
      </trkpt>
      <trkpt lat="47.50325" lon="6.76723">
        <ele>449.2</ele>
        <time>2016-12-30T08:27:15.999Z</time>
      </trkpt>
      <trkpt lat="47.50321" lon="6.76724">
        <ele>450</ele>
        <time>2016-12-30T08:27:16.999Z</time>
      </trkpt>
      <trkpt lat="47.50317" lon="6.76726">
        <ele>450.5</ele>
        <time>2016-12-30T08:27:17.999Z</time>
      </trkpt>
      <trkpt lat="47.50314" lon="6.76727">
        <ele>450.9</ele>
        <time>2016-12-30T08:27:18.999Z</time>
      </trkpt>
      <trkpt lat="47.5031" lon="6.7673">
        <ele>450.5</ele>
        <time>2016-12-30T08:27:19.999Z</time>
      </trkpt>
      <trkpt lat="47.50306" lon="6.76732">
        <ele>450.2</ele>
        <time>2016-12-30T08:27:20.999Z</time>
      </trkpt>
      <trkpt lat="47.50302" lon="6.76733">
        <ele>449.2</ele>
        <time>2016-12-30T08:27:21.999Z</time>
      </trkpt>
      <trkpt lat="47.50297" lon="6.76735">
        <ele>449.6</ele>
        <time>2016-12-30T08:27:22.999Z</time>
      </trkpt>
      <trkpt lat="47.50293" lon="6.76737">
        <ele>449.3</ele>
        <time>2016-12-30T08:27:23.999Z</time>
      </trkpt>
      <trkpt lat="47.50288" lon="6.76739">
        <ele>449.5</ele>
        <time>2016-12-30T08:27:24.999Z</time>
      </trkpt>
      <trkpt lat="47.50284" lon="6.7674">
        <ele>449.4</ele>
        <time>2016-12-30T08:27:25.999Z</time>
      </trkpt>
      <trkpt lat="47.5028" lon="6.76741">
        <ele>448.6</ele>
        <time>2016-12-30T08:27:26.999Z</time>
      </trkpt>
      <trkpt lat="47.50276" lon="6.76741">
        <ele>448.6</ele>
        <time>2016-12-30T08:27:27.999Z</time>
      </trkpt>
      <trkpt lat="47.50272" lon="6.76742">
        <ele>447.8</ele>
        <time>2016-12-30T08:27:28.999Z</time>
      </trkpt>
      <trkpt lat="47.50269" lon="6.76743">
        <ele>447.8</ele>
        <time>2016-12-30T08:27:29.999Z</time>
      </trkpt>
      <trkpt lat="47.50264" lon="6.76745">
        <ele>447.7</ele>
        <time>2016-12-30T08:27:30.999Z</time>
      </trkpt>
      <trkpt lat="47.50261" lon="6.76746">
        <ele>447.7</ele>
        <time>2016-12-30T08:27:31.999Z</time>
      </trkpt>
      <trkpt lat="47.50256" lon="6.76748">
        <ele>447.7</ele>
        <time>2016-12-30T08:27:32.999Z</time>
      </trkpt>
      <trkpt lat="47.50252" lon="6.76749">
        <ele>447.6</ele>
        <time>2016-12-30T08:27:33.999Z</time>
      </trkpt>
      <trkpt lat="47.50249" lon="6.76748">
        <ele>447.7</ele>
        <time>2016-12-30T08:27:34.999Z</time>
      </trkpt>
      <trkpt lat="47.50246" lon="6.76746">
        <ele>447.8</ele>
        <time>2016-12-30T08:27:35.999Z</time>
      </trkpt>
      <trkpt lat="47.50245" lon="6.76744">
        <ele>447.7</ele>
        <time>2016-12-30T08:27:36.999Z</time>
      </trkpt>
      <trkpt lat="47.50243" lon="6.76741">
        <ele>447.7</ele>
        <time>2016-12-30T08:27:37.999Z</time>
      </trkpt>
      <trkpt lat="47.50242" lon="6.76738">
        <ele>447.7</ele>
        <time>2016-12-30T08:27:38.999Z</time>
      </trkpt>
      <trkpt lat="47.5024" lon="6.76734">
        <ele>447.8</ele>
        <time>2016-12-30T08:27:39.999Z</time>
      </trkpt>
      <trkpt lat="47.50238" lon="6.7673">
        <ele>447.8</ele>
        <time>2016-12-30T08:27:40.999Z</time>
      </trkpt>
      <trkpt lat="47.50236" lon="6.76725">
        <ele>447.8</ele>
        <time>2016-12-30T08:27:41.999Z</time>
      </trkpt>
      <trkpt lat="47.50234" lon="6.7672">
        <ele>447.9</ele>
        <time>2016-12-30T08:27:42.999Z</time>
      </trkpt>
      <trkpt lat="47.50232" lon="6.76714">
        <ele>447.8</ele>
        <time>2016-12-30T08:27:43.999Z</time>
      </trkpt>
      <trkpt lat="47.50229" lon="6.76708">
        <ele>447.9</ele>
        <time>2016-12-30T08:27:44.999Z</time>
      </trkpt>
      <trkpt lat="47.50227" lon="6.76702">
        <ele>448.4</ele>
        <time>2016-12-30T08:27:45.999Z</time>
      </trkpt>
      <trkpt lat="47.50225" lon="6.76698">
        <ele>448.2</ele>
        <time>2016-12-30T08:27:46.999Z</time>
      </trkpt>
      <trkpt lat="47.50224" lon="6.76692">
        <ele>447.6</ele>
        <time>2016-12-30T08:27:47.999Z</time>
      </trkpt>
      <trkpt lat="47.50221" lon="6.76685">
        <ele>447.6</ele>
        <time>2016-12-30T08:27:48.999Z</time>
      </trkpt>
      <trkpt lat="47.50219" lon="6.76678">
        <ele>447.7</ele>
        <time>2016-12-30T08:27:49.999Z</time>
      </trkpt>
      <trkpt lat="47.50218" lon="6.76672">
        <ele>447.7</ele>
        <time>2016-12-30T08:27:50.999Z</time>
      </trkpt>
      <trkpt lat="47.50216" lon="6.76667">
        <ele>447.7</ele>
        <time>2016-12-30T08:27:51.999Z</time>
      </trkpt>
      <trkpt lat="47.50214" lon="6.76661">
        <ele>447</ele>
        <time>2016-12-30T08:27:52.999Z</time>
      </trkpt>
      <trkpt lat="47.50213" lon="6.76656">
        <ele>446.8</ele>
        <time>2016-12-30T08:27:53.999Z</time>
      </trkpt>
      <trkpt lat="47.50212" lon="6.76651">
        <ele>446.2</ele>
        <time>2016-12-30T08:27:54.999Z</time>
      </trkpt>
      <trkpt lat="47.5021" lon="6.76646">
        <ele>446.8</ele>
        <time>2016-12-30T08:27:55.999Z</time>
      </trkpt>
      <trkpt lat="47.50208" lon="6.7664">
        <ele>447.1</ele>
        <time>2016-12-30T08:27:56.999Z</time>
      </trkpt>
      <trkpt lat="47.50206" lon="6.76634">
        <ele>447</ele>
        <time>2016-12-30T08:27:57.999Z</time>
      </trkpt>
      <trkpt lat="47.50203" lon="6.76628">
        <ele>446.5</ele>
        <time>2016-12-30T08:27:58.999Z</time>
      </trkpt>
      <trkpt lat="47.50201" lon="6.76621">
        <ele>446.2</ele>
        <time>2016-12-30T08:27:59.999Z</time>
      </trkpt>
      <trkpt lat="47.50199" lon="6.76615">
        <ele>446.2</ele>
        <time>2016-12-30T08:28:00.999Z</time>
      </trkpt>
      <trkpt lat="47.50197" lon="6.7661">
        <ele>446.2</ele>
        <time>2016-12-30T08:28:01.999Z</time>
      </trkpt>
      <trkpt lat="47.50195" lon="6.76604">
        <ele>446.2</ele>
        <time>2016-12-30T08:28:02.999Z</time>
      </trkpt>
      <trkpt lat="47.50194" lon="6.76599">
        <ele>446.3</ele>
        <time>2016-12-30T08:28:03.999Z</time>
      </trkpt>
      <trkpt lat="47.50194" lon="6.76594">
        <ele>446.3</ele>
        <time>2016-12-30T08:28:04.999Z</time>
      </trkpt>
      <trkpt lat="47.50193" lon="6.76587">
        <ele>446.3</ele>
        <time>2016-12-30T08:28:05.999Z</time>
      </trkpt>
      <trkpt lat="47.50192" lon="6.76581">
        <ele>446.3</ele>
        <time>2016-12-30T08:28:06.999Z</time>
      </trkpt>
      <trkpt lat="47.50192" lon="6.76575">
        <ele>446.2</ele>
        <time>2016-12-30T08:28:07.999Z</time>
      </trkpt>
      <trkpt lat="47.50194" lon="6.76571">
        <ele>446.1</ele>
        <time>2016-12-30T08:28:08.999Z</time>
      </trkpt>
      <trkpt lat="47.50196" lon="6.76566">
        <ele>445.9</ele>
        <time>2016-12-30T08:28:09.999Z</time>
      </trkpt>
      <trkpt lat="47.50199" lon="6.76565">
        <ele>445.8</ele>
        <time>2016-12-30T08:28:10.999Z</time>
      </trkpt>
      <trkpt lat="47.50202" lon="6.76563">
        <ele>445.5</ele>
        <time>2016-12-30T08:28:11.999Z</time>
      </trkpt>
      <trkpt lat="47.50206" lon="6.76561">
        <ele>445.3</ele>
        <time>2016-12-30T08:28:12.999Z</time>
      </trkpt>
      <trkpt lat="47.5021" lon="6.7656">
        <ele>442.3</ele>
        <time>2016-12-30T08:28:13.999Z</time>
      </trkpt>
      <trkpt lat="47.50213" lon="6.76557">
        <ele>442.1</ele>
        <time>2016-12-30T08:28:14.999Z</time>
      </trkpt>
      <trkpt lat="47.50215" lon="6.76552">
        <ele>439.1</ele>
        <time>2016-12-30T08:28:15.999Z</time>
      </trkpt>
      <trkpt lat="47.50215" lon="6.76549">
        <ele>438.8</ele>
        <time>2016-12-30T08:28:16.999Z</time>
      </trkpt>
      <trkpt lat="47.50218" lon="6.76543">
        <ele>437</ele>
        <time>2016-12-30T08:28:17.999Z</time>
      </trkpt>
      <trkpt lat="47.5022" lon="6.76539">
        <ele>436.5</ele>
        <time>2016-12-30T08:28:19.999Z</time>
      </trkpt>
      <trkpt lat="47.50219" lon="6.76535">
        <ele>436.5</ele>
        <time>2016-12-30T08:28:20.999Z</time>
      </trkpt>
      <trkpt lat="47.50218" lon="6.76529">
        <ele>436.4</ele>
        <time>2016-12-30T08:28:21.999Z</time>
      </trkpt>
      <trkpt lat="47.50217" lon="6.76522">
        <ele>436.6</ele>
        <time>2016-12-30T08:28:22.999Z</time>
      </trkpt>
      <trkpt lat="47.50214" lon="6.76514">
        <ele>436.4</ele>
        <time>2016-12-30T08:28:23.999Z</time>
      </trkpt>
      <trkpt lat="47.50211" lon="6.76506">
        <ele>436.2</ele>
        <time>2016-12-30T08:28:24.999Z</time>
      </trkpt>
      <trkpt lat="47.50208" lon="6.76498">
        <ele>436.1</ele>
        <time>2016-12-30T08:28:25.999Z</time>
      </trkpt>
      <trkpt lat="47.50205" lon="6.7649">
        <ele>436.5</ele>
        <time>2016-12-30T08:28:26.999Z</time>
      </trkpt>
      <trkpt lat="47.50203" lon="6.76479">
        <ele>436.7</ele>
        <time>2016-12-30T08:28:27.999Z</time>
      </trkpt>
      <trkpt lat="47.502" lon="6.7647">
        <ele>437.3</ele>
        <time>2016-12-30T08:28:28.999Z</time>
      </trkpt>
      <trkpt lat="47.50197" lon="6.76461">
        <ele>437.1</ele>
        <time>2016-12-30T08:28:29.999Z</time>
      </trkpt>
      <trkpt lat="47.50194" lon="6.76451">
        <ele>437</ele>
        <time>2016-12-30T08:28:30.999Z</time>
      </trkpt>
      <trkpt lat="47.50192" lon="6.76442">
        <ele>437.4</ele>
        <time>2016-12-30T08:28:31.999Z</time>
      </trkpt>
      <trkpt lat="47.50188" lon="6.76432">
        <ele>438</ele>
        <time>2016-12-30T08:28:32.999Z</time>
      </trkpt>
      <trkpt lat="47.50186" lon="6.76423">
        <ele>437.7</ele>
        <time>2016-12-30T08:28:33.999Z</time>
      </trkpt>
      <trkpt lat="47.50184" lon="6.76415">
        <ele>437</ele>
        <time>2016-12-30T08:28:34.999Z</time>
      </trkpt>
      <trkpt lat="47.50181" lon="6.76406">
        <ele>437.1</ele>
        <time>2016-12-30T08:28:35.999Z</time>
      </trkpt>
      <trkpt lat="47.50179" lon="6.76396">
        <ele>436.7</ele>
        <time>2016-12-30T08:28:36.999Z</time>
      </trkpt>
      <trkpt lat="47.50175" lon="6.76385">
        <ele>436.7</ele>
        <time>2016-12-30T08:28:37.999Z</time>
      </trkpt>
      <trkpt lat="47.50173" lon="6.76376">
        <ele>436.4</ele>
        <time>2016-12-30T08:28:38.999Z</time>
      </trkpt>
      <trkpt lat="47.50171" lon="6.76367">
        <ele>436</ele>
        <time>2016-12-30T08:28:39.999Z</time>
      </trkpt>
      <trkpt lat="47.50169" lon="6.76358">
        <ele>436</ele>
        <time>2016-12-30T08:28:40.999Z</time>
      </trkpt>
      <trkpt lat="47.50167" lon="6.76349">
        <ele>436.1</ele>
        <time>2016-12-30T08:28:41.999Z</time>
      </trkpt>
      <trkpt lat="47.50163" lon="6.7634">
        <ele>436.2</ele>
        <time>2016-12-30T08:28:42.999Z</time>
      </trkpt>
      <trkpt lat="47.5016" lon="6.76329">
        <ele>436.8</ele>
        <time>2016-12-30T08:28:43.999Z</time>
      </trkpt>
      <trkpt lat="47.50158" lon="6.76321">
        <ele>436.3</ele>
        <time>2016-12-30T08:28:44.999Z</time>
      </trkpt>
      <trkpt lat="47.50156" lon="6.76312">
        <ele>435.6</ele>
        <time>2016-12-30T08:28:45.999Z</time>
      </trkpt>
      <trkpt lat="47.50153" lon="6.76303">
        <ele>436.2</ele>
        <time>2016-12-30T08:28:46.999Z</time>
      </trkpt>
      <trkpt lat="47.50151" lon="6.76295">
        <ele>436.2</ele>
        <time>2016-12-30T08:28:47.999Z</time>
      </trkpt>
      <trkpt lat="47.50149" lon="6.76285">
        <ele>436.5</ele>
        <time>2016-12-30T08:28:48.999Z</time>
      </trkpt>
      <trkpt lat="47.50148" lon="6.76276">
        <ele>436.4</ele>
        <time>2016-12-30T08:28:49.999Z</time>
      </trkpt>
      <trkpt lat="47.50146" lon="6.76265">
        <ele>436.3</ele>
        <time>2016-12-30T08:28:50.999Z</time>
      </trkpt>
      <trkpt lat="47.50143" lon="6.76255">
        <ele>436.3</ele>
        <time>2016-12-30T08:28:51.999Z</time>
      </trkpt>
      <trkpt lat="47.50142" lon="6.76245">
        <ele>436.2</ele>
        <time>2016-12-30T08:28:52.999Z</time>
      </trkpt>
      <trkpt lat="47.5014" lon="6.76234">
        <ele>436.2</ele>
        <time>2016-12-30T08:28:53.999Z</time>
      </trkpt>
      <trkpt lat="47.50138" lon="6.76223">
        <ele>436.1</ele>
        <time>2016-12-30T08:28:54.999Z</time>
      </trkpt>
      <trkpt lat="47.50136" lon="6.76212">
        <ele>435.8</ele>
        <time>2016-12-30T08:28:55.999Z</time>
      </trkpt>
      <trkpt lat="47.50135" lon="6.76202">
        <ele>435.2</ele>
        <time>2016-12-30T08:28:56.999Z</time>
      </trkpt>
      <trkpt lat="47.50134" lon="6.76192">
        <ele>433.9</ele>
        <time>2016-12-30T08:28:57.999Z</time>
      </trkpt>
      <trkpt lat="47.50132" lon="6.76185">
        <ele>432.4</ele>
        <time>2016-12-30T08:28:58.999Z</time>
      </trkpt>
      <trkpt lat="47.5013" lon="6.76175">
        <ele>430.9</ele>
        <time>2016-12-30T08:28:59.999Z</time>
      </trkpt>
      <trkpt lat="47.50128" lon="6.76166">
        <ele>430.4</ele>
        <time>2016-12-30T08:29:00.999Z</time>
      </trkpt>
      <trkpt lat="47.50126" lon="6.76155">
        <ele>430</ele>
        <time>2016-12-30T08:29:01.999Z</time>
      </trkpt>
      <trkpt lat="47.50124" lon="6.76144">
        <ele>429.8</ele>
        <time>2016-12-30T08:29:02.999Z</time>
      </trkpt>
      <trkpt lat="47.50122" lon="6.76133">
        <ele>429.3</ele>
        <time>2016-12-30T08:29:03.999Z</time>
      </trkpt>
      <trkpt lat="47.5012" lon="6.76123">
        <ele>429.3</ele>
        <time>2016-12-30T08:29:04.999Z</time>
      </trkpt>
      <trkpt lat="47.50117" lon="6.7611">
        <ele>429.2</ele>
        <time>2016-12-30T08:29:05.999Z</time>
      </trkpt>
      <trkpt lat="47.50114" lon="6.76098">
        <ele>428.9</ele>
        <time>2016-12-30T08:29:06.999Z</time>
      </trkpt>
      <trkpt lat="47.50112" lon="6.76086">
        <ele>429.3</ele>
        <time>2016-12-30T08:29:07.999Z</time>
      </trkpt>
      <trkpt lat="47.50111" lon="6.76074">
        <ele>428.9</ele>
        <time>2016-12-30T08:29:08.999Z</time>
      </trkpt>
      <trkpt lat="47.5011" lon="6.7606">
        <ele>428.1</ele>
        <time>2016-12-30T08:29:09.999Z</time>
      </trkpt>
      <trkpt lat="47.50108" lon="6.76047">
        <ele>427.2</ele>
        <time>2016-12-30T08:29:10.999Z</time>
      </trkpt>
      <trkpt lat="47.50105" lon="6.76038">
        <ele>427</ele>
        <time>2016-12-30T08:29:11.999Z</time>
      </trkpt>
      <trkpt lat="47.50104" lon="6.76028">
        <ele>426.6</ele>
        <time>2016-12-30T08:29:12.999Z</time>
      </trkpt>
      <trkpt lat="47.50102" lon="6.76018">
        <ele>425.7</ele>
        <time>2016-12-30T08:29:13.999Z</time>
      </trkpt>
      <trkpt lat="47.50098" lon="6.76009">
        <ele>424.9</ele>
        <time>2016-12-30T08:29:14.999Z</time>
      </trkpt>
      <trkpt lat="47.50094" lon="6.76002">
        <ele>423.3</ele>
        <time>2016-12-30T08:29:15.999Z</time>
      </trkpt>
      <trkpt lat="47.50088" lon="6.75993">
        <ele>421.7</ele>
        <time>2016-12-30T08:29:16.999Z</time>
      </trkpt>
      <trkpt lat="47.50084" lon="6.75986">
        <ele>420.2</ele>
        <time>2016-12-30T08:29:17.999Z</time>
      </trkpt>
      <trkpt lat="47.5008" lon="6.75978">
        <ele>418.5</ele>
        <time>2016-12-30T08:29:18.999Z</time>
      </trkpt>
      <trkpt lat="47.50075" lon="6.75971">
        <ele>418.3</ele>
        <time>2016-12-30T08:29:19.999Z</time>
      </trkpt>
      <trkpt lat="47.50071" lon="6.75962">
        <ele>417.4</ele>
        <time>2016-12-30T08:29:20.999Z</time>
      </trkpt>
      <trkpt lat="47.50066" lon="6.75953">
        <ele>416.6</ele>
        <time>2016-12-30T08:29:21.999Z</time>
      </trkpt>
      <trkpt lat="47.50062" lon="6.75944">
        <ele>416.5</ele>
        <time>2016-12-30T08:29:22.999Z</time>
      </trkpt>
      <trkpt lat="47.50057" lon="6.75935">
        <ele>415.9</ele>
        <time>2016-12-30T08:29:23.999Z</time>
      </trkpt>
      <trkpt lat="47.50052" lon="6.75927">
        <ele>415.6</ele>
        <time>2016-12-30T08:29:24.999Z</time>
      </trkpt>
      <trkpt lat="47.50048" lon="6.75919">
        <ele>414.6</ele>
        <time>2016-12-30T08:29:25.999Z</time>
      </trkpt>
      <trkpt lat="47.50044" lon="6.75912">
        <ele>413.1</ele>
        <time>2016-12-30T08:29:26.999Z</time>
      </trkpt>
      <trkpt lat="47.50039" lon="6.75906">
        <ele>412.4</ele>
        <time>2016-12-30T08:29:27.999Z</time>
      </trkpt>
      <trkpt lat="47.50035" lon="6.75901">
        <ele>412.3</ele>
        <time>2016-12-30T08:29:28.999Z</time>
      </trkpt>
      <trkpt lat="47.50029" lon="6.75892">
        <ele>412.7</ele>
        <time>2016-12-30T08:29:29.999Z</time>
      </trkpt>
      <trkpt lat="47.50025" lon="6.75885">
        <ele>413</ele>
        <time>2016-12-30T08:29:30.999Z</time>
      </trkpt>
      <trkpt lat="47.50021" lon="6.75878">
        <ele>412.2</ele>
        <time>2016-12-30T08:29:31.999Z</time>
      </trkpt>
      <trkpt lat="47.50015" lon="6.75869">
        <ele>411.1</ele>
        <time>2016-12-30T08:29:32.999Z</time>
      </trkpt>
      <trkpt lat="47.5001" lon="6.75859">
        <ele>409.3</ele>
        <time>2016-12-30T08:29:33.999Z</time>
      </trkpt>
      <trkpt lat="47.50005" lon="6.75851">
        <ele>408</ele>
        <time>2016-12-30T08:29:34.999Z</time>
      </trkpt>
      <trkpt lat="47.49999" lon="6.7584">
        <ele>407.9</ele>
        <time>2016-12-30T08:29:35.999Z</time>
      </trkpt>
      <trkpt lat="47.49995" lon="6.75834">
        <ele>407.5</ele>
        <time>2016-12-30T08:29:36.999Z</time>
      </trkpt>
      <trkpt lat="47.4999" lon="6.75825">
        <ele>407.2</ele>
        <time>2016-12-30T08:29:37.999Z</time>
      </trkpt>
      <trkpt lat="47.49986" lon="6.75815">
        <ele>406.7</ele>
        <time>2016-12-30T08:29:38.999Z</time>
      </trkpt>
      <trkpt lat="47.49982" lon="6.75807">
        <ele>406.6</ele>
        <time>2016-12-30T08:29:39.999Z</time>
      </trkpt>
      <trkpt lat="47.49977" lon="6.75798">
        <ele>406.9</ele>
        <time>2016-12-30T08:29:40.999Z</time>
      </trkpt>
      <trkpt lat="47.4997" lon="6.7579">
        <ele>406.6</ele>
        <time>2016-12-30T08:29:41.999Z</time>
      </trkpt>
      <trkpt lat="47.49964" lon="6.75783">
        <ele>406.3</ele>
        <time>2016-12-30T08:29:42.999Z</time>
      </trkpt>
      <trkpt lat="47.49957" lon="6.75776">
        <ele>406.6</ele>
        <time>2016-12-30T08:29:43.999Z</time>
      </trkpt>
      <trkpt lat="47.4995" lon="6.75767">
        <ele>407.1</ele>
        <time>2016-12-30T08:29:44.999Z</time>
      </trkpt>
      <trkpt lat="47.49945" lon="6.75756">
        <ele>407</ele>
        <time>2016-12-30T08:29:45.999Z</time>
      </trkpt>
      <trkpt lat="47.49939" lon="6.75746">
        <ele>407</ele>
        <time>2016-12-30T08:29:46.999Z</time>
      </trkpt>
      <trkpt lat="47.49932" lon="6.75734">
        <ele>406.4</ele>
        <time>2016-12-30T08:29:47.999Z</time>
      </trkpt>
      <trkpt lat="47.49925" lon="6.75724">
        <ele>406</ele>
        <time>2016-12-30T08:29:48.999Z</time>
      </trkpt>
      <trkpt lat="47.49917" lon="6.75724">
        <ele>405.1</ele>
        <time>2016-12-30T08:29:49.999Z</time>
      </trkpt>
      <trkpt lat="47.49908" lon="6.75725">
        <ele>404.1</ele>
        <time>2016-12-30T08:29:50.999Z</time>
      </trkpt>
      <trkpt lat="47.49898" lon="6.75726">
        <ele>402.2</ele>
        <time>2016-12-30T08:29:51.999Z</time>
      </trkpt>
      <trkpt lat="47.4989" lon="6.75726">
        <ele>400.7</ele>
        <time>2016-12-30T08:29:52.999Z</time>
      </trkpt>
      <trkpt lat="47.4988" lon="6.75727">
        <ele>398.1</ele>
        <time>2016-12-30T08:29:53.999Z</time>
      </trkpt>
      <trkpt lat="47.49871" lon="6.75727">
        <ele>396</ele>
        <time>2016-12-30T08:29:54.999Z</time>
      </trkpt>
      <trkpt lat="47.49862" lon="6.75728">
        <ele>394.8</ele>
        <time>2016-12-30T08:29:55.999Z</time>
      </trkpt>
      <trkpt lat="47.49854" lon="6.7573">
        <ele>393.7</ele>
        <time>2016-12-30T08:29:56.999Z</time>
      </trkpt>
      <trkpt lat="47.49846" lon="6.75732">
        <ele>392.1</ele>
        <time>2016-12-30T08:29:57.999Z</time>
      </trkpt>
      <trkpt lat="47.49838" lon="6.75734">
        <ele>391.7</ele>
        <time>2016-12-30T08:29:58.999Z</time>
      </trkpt>
      <trkpt lat="47.49828" lon="6.75736">
        <ele>391.2</ele>
        <time>2016-12-30T08:29:59.999Z</time>
      </trkpt>
      <trkpt lat="47.49818" lon="6.75738">
        <ele>390.6</ele>
        <time>2016-12-30T08:30:00.999Z</time>
      </trkpt>
      <trkpt lat="47.49809" lon="6.7574">
        <ele>389.6</ele>
        <time>2016-12-30T08:30:01.999Z</time>
      </trkpt>
      <trkpt lat="47.49801" lon="6.75743">
        <ele>389.3</ele>
        <time>2016-12-30T08:30:02.999Z</time>
      </trkpt>
      <trkpt lat="47.4979" lon="6.75746">
        <ele>388.3</ele>
        <time>2016-12-30T08:30:03.999Z</time>
      </trkpt>
      <trkpt lat="47.49779" lon="6.75749">
        <ele>387.2</ele>
        <time>2016-12-30T08:30:04.999Z</time>
      </trkpt>
      <trkpt lat="47.4977" lon="6.75751">
        <ele>386.6</ele>
        <time>2016-12-30T08:30:05.999Z</time>
      </trkpt>
      <trkpt lat="47.49762" lon="6.75753">
        <ele>386.4</ele>
        <time>2016-12-30T08:30:06.999Z</time>
      </trkpt>
      <trkpt lat="47.49751" lon="6.75756">
        <ele>386.1</ele>
        <time>2016-12-30T08:30:07.999Z</time>
      </trkpt>
      <trkpt lat="47.49742" lon="6.75759">
        <ele>386.1</ele>
        <time>2016-12-30T08:30:08.999Z</time>
      </trkpt>
      <trkpt lat="47.49733" lon="6.75762">
        <ele>385.7</ele>
        <time>2016-12-30T08:30:09.999Z</time>
      </trkpt>
      <trkpt lat="47.49725" lon="6.75764">
        <ele>385.8</ele>
        <time>2016-12-30T08:30:10.999Z</time>
      </trkpt>
      <trkpt lat="47.49718" lon="6.75766">
        <ele>385.9</ele>
        <time>2016-12-30T08:30:11.999Z</time>
      </trkpt>
      <trkpt lat="47.49711" lon="6.75768">
        <ele>386.2</ele>
        <time>2016-12-30T08:30:12.999Z</time>
      </trkpt>
      <trkpt lat="47.49704" lon="6.7577">
        <ele>386.4</ele>
        <time>2016-12-30T08:30:13.999Z</time>
      </trkpt>
      <trkpt lat="47.49698" lon="6.75771">
        <ele>386.7</ele>
        <time>2016-12-30T08:30:14.999Z</time>
      </trkpt>
      <trkpt lat="47.49691" lon="6.75773">
        <ele>386.7</ele>
        <time>2016-12-30T08:30:15.999Z</time>
      </trkpt>
      <trkpt lat="47.49685" lon="6.75773">
        <ele>386.2</ele>
        <time>2016-12-30T08:30:16.999Z</time>
      </trkpt>
      <trkpt lat="47.49679" lon="6.75774">
        <ele>386.3</ele>
        <time>2016-12-30T08:30:17.999Z</time>
      </trkpt>
      <trkpt lat="47.49672" lon="6.75776">
        <ele>385.8</ele>
        <time>2016-12-30T08:30:18.999Z</time>
      </trkpt>
      <trkpt lat="47.49665" lon="6.75777">
        <ele>384.6</ele>
        <time>2016-12-30T08:30:19.999Z</time>
      </trkpt>
      <trkpt lat="47.49657" lon="6.75778">
        <ele>383.4</ele>
        <time>2016-12-30T08:30:20.999Z</time>
      </trkpt>
      <trkpt lat="47.4965" lon="6.75778">
        <ele>382.8</ele>
        <time>2016-12-30T08:30:21.999Z</time>
      </trkpt>
      <trkpt lat="47.49644" lon="6.75778">
        <ele>382.3</ele>
        <time>2016-12-30T08:30:22.999Z</time>
      </trkpt>
      <trkpt lat="47.49636" lon="6.75778">
        <ele>381.6</ele>
        <time>2016-12-30T08:30:23.999Z</time>
      </trkpt>
      <trkpt lat="47.49629" lon="6.75776">
        <ele>380.3</ele>
        <time>2016-12-30T08:30:24.999Z</time>
      </trkpt>
      <trkpt lat="47.49623" lon="6.75775">
        <ele>379.1</ele>
        <time>2016-12-30T08:30:25.999Z</time>
      </trkpt>
      <trkpt lat="47.49618" lon="6.75775">
        <ele>377.4</ele>
        <time>2016-12-30T08:30:26.999Z</time>
      </trkpt>
      <trkpt lat="47.49615" lon="6.75776">
        <ele>377.2</ele>
        <time>2016-12-30T08:30:27.999Z</time>
      </trkpt>
      <trkpt lat="47.49611" lon="6.75776">
        <ele>377</ele>
        <time>2016-12-30T08:30:28.999Z</time>
      </trkpt>
      <trkpt lat="47.49608" lon="6.75774">
        <ele>377</ele>
        <time>2016-12-30T08:30:29.999Z</time>
      </trkpt>
      <trkpt lat="47.49604" lon="6.75774">
        <ele>376.9</ele>
        <time>2016-12-30T08:30:30.999Z</time>
      </trkpt>
      <trkpt lat="47.49604" lon="6.75774">
        <ele>377.1</ele>
        <time>2016-12-30T08:30:34.999Z</time>
      </trkpt>
      <trkpt lat="47.49587" lon="6.75773">
        <ele>377.1</ele>
        <time>2016-12-30T08:30:35.999Z</time>
      </trkpt>
      <trkpt lat="47.49587" lon="6.75773">
        <ele>377.1</ele>
        <time>2016-12-30T08:30:36.999Z</time>
      </trkpt>
      <trkpt lat="47.49578" lon="6.75774">
        <ele>377.2</ele>
        <time>2016-12-30T08:30:37.999Z</time>
      </trkpt>
      <trkpt lat="47.49573" lon="6.75774">
        <ele>377.4</ele>
        <time>2016-12-30T08:30:38.999Z</time>
      </trkpt>
      <trkpt lat="47.49567" lon="6.75774">
        <ele>377.8</ele>
        <time>2016-12-30T08:30:39.999Z</time>
      </trkpt>
      <trkpt lat="47.49564" lon="6.75772">
        <ele>377.8</ele>
        <time>2016-12-30T08:30:40.999Z</time>
      </trkpt>
      <trkpt lat="47.4956" lon="6.7577">
        <ele>377.5</ele>
        <time>2016-12-30T08:30:41.999Z</time>
      </trkpt>
      <trkpt lat="47.49558" lon="6.75769">
        <ele>377.4</ele>
        <time>2016-12-30T08:30:42.999Z</time>
      </trkpt>
      <trkpt lat="47.49556" lon="6.75766">
        <ele>377.4</ele>
        <time>2016-12-30T08:30:43.999Z</time>
      </trkpt>
      <trkpt lat="47.49554" lon="6.7576">
        <ele>377.2</ele>
        <time>2016-12-30T08:30:44.999Z</time>
      </trkpt>
      <trkpt lat="47.49554" lon="6.75757">
        <ele>377.2</ele>
        <time>2016-12-30T08:30:45.999Z</time>
      </trkpt>
      <trkpt lat="47.49556" lon="6.75754">
        <ele>377.1</ele>
        <time>2016-12-30T08:30:46.999Z</time>
      </trkpt>
      <trkpt lat="47.49558" lon="6.75751">
        <ele>377</ele>
        <time>2016-12-30T08:30:47.999Z</time>
      </trkpt>
      <trkpt lat="47.49561" lon="6.7575">
        <ele>376.9</ele>
        <time>2016-12-30T08:30:48.999Z</time>
      </trkpt>
      <trkpt lat="47.49563" lon="6.75748">
        <ele>376.7</ele>
        <time>2016-12-30T08:30:49.999Z</time>
      </trkpt>
      <trkpt lat="47.49567" lon="6.75745">
        <ele>376.6</ele>
        <time>2016-12-30T08:30:50.999Z</time>
      </trkpt>
      <trkpt lat="47.4957" lon="6.75742">
        <ele>376.5</ele>
        <time>2016-12-30T08:30:51.999Z</time>
      </trkpt>
      <trkpt lat="47.49575" lon="6.75739">
        <ele>376.4</ele>
        <time>2016-12-30T08:30:52.999Z</time>
      </trkpt>
      <trkpt lat="47.49579" lon="6.75735">
        <ele>374.8</ele>
        <time>2016-12-30T08:30:53.999Z</time>
      </trkpt>
      <trkpt lat="47.49583" lon="6.75732">
        <ele>374.7</ele>
        <time>2016-12-30T08:30:54.999Z</time>
      </trkpt>
      <trkpt lat="47.49586" lon="6.75728">
        <ele>374.6</ele>
        <time>2016-12-30T08:30:55.999Z</time>
      </trkpt>
      <trkpt lat="47.4959" lon="6.75723">
        <ele>374.6</ele>
        <time>2016-12-30T08:30:56.999Z</time>
      </trkpt>
      <trkpt lat="47.49592" lon="6.75719">
        <ele>374.6</ele>
        <time>2016-12-30T08:30:57.999Z</time>
      </trkpt>
      <trkpt lat="47.49594" lon="6.75718">
        <ele>374.6</ele>
        <time>2016-12-30T08:30:58.999Z</time>
      </trkpt>
      <trkpt lat="47.49595" lon="6.75716">
        <ele>374.6</ele>
        <time>2016-12-30T08:30:59.999Z</time>
      </trkpt>
      <trkpt lat="47.49597" lon="6.75713">
        <ele>374.6</ele>
        <time>2016-12-30T08:31:00.999Z</time>
      </trkpt>
      <trkpt lat="47.49599" lon="6.75711">
        <ele>374.6</ele>
        <time>2016-12-30T08:31:01.999Z</time>
      </trkpt>
      <trkpt lat="47.49601" lon="6.75706">
        <ele>374.6</ele>
        <time>2016-12-30T08:31:02.999Z</time>
      </trkpt>
      <trkpt lat="47.49603" lon="6.75703">
        <ele>374.5</ele>
        <time>2016-12-30T08:31:03.999Z</time>
      </trkpt>
      <trkpt lat="47.49604" lon="6.75698">
        <ele>374.5</ele>
        <time>2016-12-30T08:31:04.999Z</time>
      </trkpt>
      <trkpt lat="47.49602" lon="6.75693">
        <ele>374.6</ele>
        <time>2016-12-30T08:31:05.999Z</time>
      </trkpt>
      <trkpt lat="47.49599" lon="6.75687">
        <ele>373.9</ele>
        <time>2016-12-30T08:31:06.999Z</time>
      </trkpt>
      <trkpt lat="47.49595" lon="6.75682">
        <ele>373.5</ele>
        <time>2016-12-30T08:31:07.999Z</time>
      </trkpt>
      <trkpt lat="47.49591" lon="6.75677">
        <ele>373.1</ele>
        <time>2016-12-30T08:31:08.999Z</time>
      </trkpt>
      <trkpt lat="47.49587" lon="6.7567">
        <ele>373.4</ele>
        <time>2016-12-30T08:31:09.999Z</time>
      </trkpt>
      <trkpt lat="47.4958" lon="6.75664">
        <ele>373.4</ele>
        <time>2016-12-30T08:31:10.999Z</time>
      </trkpt>
      <trkpt lat="47.49574" lon="6.75664">
        <ele>373.5</ele>
        <time>2016-12-30T08:31:11.999Z</time>
      </trkpt>
      <trkpt lat="47.49568" lon="6.75667">
        <ele>373.1</ele>
        <time>2016-12-30T08:31:12.999Z</time>
      </trkpt>
      <trkpt lat="47.49564" lon="6.75673">
        <ele>372.4</ele>
        <time>2016-12-30T08:31:13.999Z</time>
      </trkpt>
      <trkpt lat="47.49559" lon="6.75679">
        <ele>371.9</ele>
        <time>2016-12-30T08:31:14.999Z</time>
      </trkpt>
      <trkpt lat="47.49554" lon="6.75686">
        <ele>372.3</ele>
        <time>2016-12-30T08:31:15.999Z</time>
      </trkpt>
      <trkpt lat="47.49549" lon="6.75693">
        <ele>371.8</ele>
        <time>2016-12-30T08:31:16.999Z</time>
      </trkpt>
      <trkpt lat="47.49544" lon="6.75699">
        <ele>371.8</ele>
        <time>2016-12-30T08:31:17.999Z</time>
      </trkpt>
      <trkpt lat="47.49539" lon="6.75706">
        <ele>371.6</ele>
        <time>2016-12-30T08:31:18.999Z</time>
      </trkpt>
      <trkpt lat="47.49533" lon="6.75711">
        <ele>371.3</ele>
        <time>2016-12-30T08:31:19.999Z</time>
      </trkpt>
      <trkpt lat="47.49527" lon="6.75717">
        <ele>370.7</ele>
        <time>2016-12-30T08:31:20.999Z</time>
      </trkpt>
      <trkpt lat="47.49522" lon="6.75722">
        <ele>370.2</ele>
        <time>2016-12-30T08:31:21.999Z</time>
      </trkpt>
      <trkpt lat="47.49516" lon="6.75727">
        <ele>369.8</ele>
        <time>2016-12-30T08:31:22.999Z</time>
      </trkpt>
      <trkpt lat="47.4951" lon="6.7573">
        <ele>369.9</ele>
        <time>2016-12-30T08:31:23.999Z</time>
      </trkpt>
      <trkpt lat="47.49505" lon="6.75733">
        <ele>369.5</ele>
        <time>2016-12-30T08:31:24.999Z</time>
      </trkpt>
      <trkpt lat="47.49501" lon="6.75734">
        <ele>369.3</ele>
        <time>2016-12-30T08:31:25.999Z</time>
      </trkpt>
      <trkpt lat="47.49497" lon="6.75736">
        <ele>368.8</ele>
        <time>2016-12-30T08:31:26.999Z</time>
      </trkpt>
      <trkpt lat="47.49492" lon="6.75738">
        <ele>368.2</ele>
        <time>2016-12-30T08:31:27.999Z</time>
      </trkpt>
      <trkpt lat="47.49487" lon="6.75737">
        <ele>367.7</ele>
        <time>2016-12-30T08:31:28.999Z</time>
      </trkpt>
      <trkpt lat="47.49483" lon="6.75733">
        <ele>367.4</ele>
        <time>2016-12-30T08:31:29.999Z</time>
      </trkpt>
      <trkpt lat="47.49481" lon="6.75728">
        <ele>366.8</ele>
        <time>2016-12-30T08:31:30.999Z</time>
      </trkpt>
      <trkpt lat="47.49477" lon="6.7572">
        <ele>365.8</ele>
        <time>2016-12-30T08:31:31.999Z</time>
      </trkpt>
      <trkpt lat="47.49475" lon="6.75714">
        <ele>365.8</ele>
        <time>2016-12-30T08:31:32.999Z</time>
      </trkpt>
      <trkpt lat="47.49473" lon="6.75708">
        <ele>365.8</ele>
        <time>2016-12-30T08:31:33.999Z</time>
      </trkpt>
      <trkpt lat="47.4947" lon="6.75701">
        <ele>364.5</ele>
        <time>2016-12-30T08:31:34.999Z</time>
      </trkpt>
      <trkpt lat="47.49467" lon="6.75697">
        <ele>364.3</ele>
        <time>2016-12-30T08:31:35.999Z</time>
      </trkpt>
      <trkpt lat="47.49464" lon="6.75697">
        <ele>364.5</ele>
        <time>2016-12-30T08:31:36.999Z</time>
      </trkpt>
      <trkpt lat="47.49459" lon="6.75698">
        <ele>365.1</ele>
        <time>2016-12-30T08:31:37.999Z</time>
      </trkpt>
      <trkpt lat="47.49454" lon="6.75701">
        <ele>365.5</ele>
        <time>2016-12-30T08:31:38.999Z</time>
      </trkpt>
      <trkpt lat="47.49448" lon="6.757">
        <ele>365.3</ele>
        <time>2016-12-30T08:31:39.999Z</time>
      </trkpt>
      <trkpt lat="47.49444" lon="6.75697">
        <ele>365.5</ele>
        <time>2016-12-30T08:31:40.999Z</time>
      </trkpt>
      <trkpt lat="47.49442" lon="6.75692">
        <ele>365</ele>
        <time>2016-12-30T08:31:41.999Z</time>
      </trkpt>
      <trkpt lat="47.49441" lon="6.75687">
        <ele>365</ele>
        <time>2016-12-30T08:31:42.999Z</time>
      </trkpt>
      <trkpt lat="47.49439" lon="6.75681">
        <ele>364.9</ele>
        <time>2016-12-30T08:31:43.999Z</time>
      </trkpt>
      <trkpt lat="47.49437" lon="6.75676">
        <ele>364.8</ele>
        <time>2016-12-30T08:31:44.999Z</time>
      </trkpt>
      <trkpt lat="47.49435" lon="6.75671">
        <ele>364.8</ele>
        <time>2016-12-30T08:31:45.999Z</time>
      </trkpt>
      <trkpt lat="47.49431" lon="6.75667">
        <ele>364.8</ele>
        <time>2016-12-30T08:31:46.999Z</time>
      </trkpt>
      <trkpt lat="47.49427" lon="6.7567">
        <ele>364.6</ele>
        <time>2016-12-30T08:31:47.999Z</time>
      </trkpt>
      <trkpt lat="47.49424" lon="6.75672">
        <ele>364.1</ele>
        <time>2016-12-30T08:31:48.999Z</time>
      </trkpt>
      <trkpt lat="47.49418" lon="6.75674">
        <ele>364.1</ele>
        <time>2016-12-30T08:31:49.999Z</time>
      </trkpt>
      <trkpt lat="47.49414" lon="6.75677">
        <ele>363.8</ele>
        <time>2016-12-30T08:31:50.999Z</time>
      </trkpt>
      <trkpt lat="47.49409" lon="6.7568">
        <ele>363</ele>
        <time>2016-12-30T08:31:51.999Z</time>
      </trkpt>
      <trkpt lat="47.49405" lon="6.75683">
        <ele>362.9</ele>
        <time>2016-12-30T08:31:52.999Z</time>
      </trkpt>
      <trkpt lat="47.494" lon="6.75687">
        <ele>361.9</ele>
        <time>2016-12-30T08:31:53.999Z</time>
      </trkpt>
      <trkpt lat="47.49396" lon="6.7569">
        <ele>361.7</ele>
        <time>2016-12-30T08:31:54.999Z</time>
      </trkpt>
      <trkpt lat="47.49391" lon="6.75695">
        <ele>362.1</ele>
        <time>2016-12-30T08:31:55.999Z</time>
      </trkpt>
      <trkpt lat="47.49386" lon="6.75699">
        <ele>362.9</ele>
        <time>2016-12-30T08:31:56.999Z</time>
      </trkpt>
      <trkpt lat="47.49381" lon="6.75702">
        <ele>363.1</ele>
        <time>2016-12-30T08:31:57.999Z</time>
      </trkpt>
      <trkpt lat="47.49376" lon="6.75706">
        <ele>362.8</ele>
        <time>2016-12-30T08:31:58.999Z</time>
      </trkpt>
      <trkpt lat="47.49372" lon="6.75708">
        <ele>362.9</ele>
        <time>2016-12-30T08:31:59.999Z</time>
      </trkpt>
      <trkpt lat="47.49367" lon="6.7571">
        <ele>363.8</ele>
        <time>2016-12-30T08:32:00.999Z</time>
      </trkpt>
      <trkpt lat="47.49364" lon="6.75714">
        <ele>364.4</ele>
        <time>2016-12-30T08:32:01.999Z</time>
      </trkpt>
      <trkpt lat="47.4936" lon="6.75716">
        <ele>364.5</ele>
        <time>2016-12-30T08:32:02.999Z</time>
      </trkpt>
      <trkpt lat="47.49358" lon="6.75719">
        <ele>364.6</ele>
        <time>2016-12-30T08:32:03.999Z</time>
      </trkpt>
      <trkpt lat="47.49356" lon="6.75722">
        <ele>364.6</ele>
        <time>2016-12-30T08:32:04.999Z</time>
      </trkpt>
      <trkpt lat="47.49353" lon="6.75723">
        <ele>364.7</ele>
        <time>2016-12-30T08:32:05.999Z</time>
      </trkpt>
      <trkpt lat="47.49351" lon="6.75725">
        <ele>364.7</ele>
        <time>2016-12-30T08:32:06.999Z</time>
      </trkpt>
      <trkpt lat="47.49346" lon="6.75727">
        <ele>364.8</ele>
        <time>2016-12-30T08:32:07.999Z</time>
      </trkpt>
      <trkpt lat="47.49342" lon="6.75731">
        <ele>365.1</ele>
        <time>2016-12-30T08:32:08.999Z</time>
      </trkpt>
      <trkpt lat="47.49336" lon="6.75737">
        <ele>365.6</ele>
        <time>2016-12-30T08:32:09.999Z</time>
      </trkpt>
      <trkpt lat="47.49331" lon="6.75742">
        <ele>365.6</ele>
        <time>2016-12-30T08:32:10.999Z</time>
      </trkpt>
      <trkpt lat="47.49327" lon="6.75745">
        <ele>365.7</ele>
        <time>2016-12-30T08:32:11.999Z</time>
      </trkpt>
      <trkpt lat="47.49321" lon="6.75749">
        <ele>365.3</ele>
        <time>2016-12-30T08:32:12.999Z</time>
      </trkpt>
      <trkpt lat="47.49317" lon="6.75753">
        <ele>364.4</ele>
        <time>2016-12-30T08:32:13.999Z</time>
      </trkpt>
      <trkpt lat="47.49312" lon="6.75757">
        <ele>363.2</ele>
        <time>2016-12-30T08:32:14.999Z</time>
      </trkpt>
      <trkpt lat="47.49308" lon="6.75761">
        <ele>363.5</ele>
        <time>2016-12-30T08:32:15.999Z</time>
      </trkpt>
      <trkpt lat="47.49304" lon="6.75766">
        <ele>363.4</ele>
        <time>2016-12-30T08:32:16.999Z</time>
      </trkpt>
      <trkpt lat="47.493" lon="6.75772">
        <ele>363.4</ele>
        <time>2016-12-30T08:32:17.999Z</time>
      </trkpt>
      <trkpt lat="47.49296" lon="6.75776">
        <ele>363.4</ele>
        <time>2016-12-30T08:32:18.999Z</time>
      </trkpt>
      <trkpt lat="47.49291" lon="6.75782">
        <ele>363.3</ele>
        <time>2016-12-30T08:32:19.999Z</time>
      </trkpt>
      <trkpt lat="47.49285" lon="6.75788">
        <ele>363</ele>
        <time>2016-12-30T08:32:20.999Z</time>
      </trkpt>
      <trkpt lat="47.4928" lon="6.75795">
        <ele>363.1</ele>
        <time>2016-12-30T08:32:21.999Z</time>
      </trkpt>
      <trkpt lat="47.49276" lon="6.75801">
        <ele>362.9</ele>
        <time>2016-12-30T08:32:22.999Z</time>
      </trkpt>
      <trkpt lat="47.49272" lon="6.75807">
        <ele>363.1</ele>
        <time>2016-12-30T08:32:23.999Z</time>
      </trkpt>
      <trkpt lat="47.49268" lon="6.75812">
        <ele>362.8</ele>
        <time>2016-12-30T08:32:24.999Z</time>
      </trkpt>
      <trkpt lat="47.49263" lon="6.75818">
        <ele>362.5</ele>
        <time>2016-12-30T08:32:25.999Z</time>
      </trkpt>
      <trkpt lat="47.4926" lon="6.75824">
        <ele>362.4</ele>
        <time>2016-12-30T08:32:26.999Z</time>
      </trkpt>
      <trkpt lat="47.49257" lon="6.7583">
        <ele>362.3</ele>
        <time>2016-12-30T08:32:27.999Z</time>
      </trkpt>
      <trkpt lat="47.49254" lon="6.75835">
        <ele>362.4</ele>
        <time>2016-12-30T08:32:28.999Z</time>
      </trkpt>
      <trkpt lat="47.49251" lon="6.75841">
        <ele>362.4</ele>
        <time>2016-12-30T08:32:29.999Z</time>
      </trkpt>
      <trkpt lat="47.49247" lon="6.75847">
        <ele>362.3</ele>
        <time>2016-12-30T08:32:30.999Z</time>
      </trkpt>
      <trkpt lat="47.49244" lon="6.75853">
        <ele>362.5</ele>
        <time>2016-12-30T08:32:31.999Z</time>
      </trkpt>
      <trkpt lat="47.49241" lon="6.75861">
        <ele>362.9</ele>
        <time>2016-12-30T08:32:32.999Z</time>
      </trkpt>
      <trkpt lat="47.49237" lon="6.75868">
        <ele>363.8</ele>
        <time>2016-12-30T08:32:33.999Z</time>
      </trkpt>
      <trkpt lat="47.49234" lon="6.75876">
        <ele>364.3</ele>
        <time>2016-12-30T08:32:34.999Z</time>
      </trkpt>
      <trkpt lat="47.4923" lon="6.75884">
        <ele>364.4</ele>
        <time>2016-12-30T08:32:35.999Z</time>
      </trkpt>
      <trkpt lat="47.49227" lon="6.75891">
        <ele>364.1</ele>
        <time>2016-12-30T08:32:36.999Z</time>
      </trkpt>
      <trkpt lat="47.49224" lon="6.75898">
        <ele>364</ele>
        <time>2016-12-30T08:32:37.999Z</time>
      </trkpt>
      <trkpt lat="47.49221" lon="6.75906">
        <ele>363.2</ele>
        <time>2016-12-30T08:32:38.999Z</time>
      </trkpt>
      <trkpt lat="47.49217" lon="6.75913">
        <ele>362.5</ele>
        <time>2016-12-30T08:32:39.999Z</time>
      </trkpt>
      <trkpt lat="47.49214" lon="6.75922">
        <ele>362.5</ele>
        <time>2016-12-30T08:32:40.999Z</time>
      </trkpt>
      <trkpt lat="47.49211" lon="6.75929">
        <ele>361.9</ele>
        <time>2016-12-30T08:32:41.999Z</time>
      </trkpt>
      <trkpt lat="47.49208" lon="6.75934">
        <ele>361.6</ele>
        <time>2016-12-30T08:32:42.999Z</time>
      </trkpt>
      <trkpt lat="47.49204" lon="6.7594">
        <ele>361.6</ele>
        <time>2016-12-30T08:32:43.999Z</time>
      </trkpt>
      <trkpt lat="47.49201" lon="6.75947">
        <ele>360.2</ele>
        <time>2016-12-30T08:32:44.999Z</time>
      </trkpt>
      <trkpt lat="47.49198" lon="6.75952">
        <ele>360.2</ele>
        <time>2016-12-30T08:32:45.999Z</time>
      </trkpt>
      <trkpt lat="47.49195" lon="6.75958">
        <ele>360.6</ele>
        <time>2016-12-30T08:32:46.999Z</time>
      </trkpt>
      <trkpt lat="47.49192" lon="6.75965">
        <ele>360.2</ele>
        <time>2016-12-30T08:32:47.999Z</time>
      </trkpt>
      <trkpt lat="47.49188" lon="6.75973">
        <ele>360.4</ele>
        <time>2016-12-30T08:32:48.999Z</time>
      </trkpt>
      <trkpt lat="47.49184" lon="6.7598">
        <ele>360.4</ele>
        <time>2016-12-30T08:32:49.999Z</time>
      </trkpt>
      <trkpt lat="47.4918" lon="6.75987">
        <ele>360</ele>
        <time>2016-12-30T08:32:50.999Z</time>
      </trkpt>
      <trkpt lat="47.49178" lon="6.75992">
        <ele>359.6</ele>
        <time>2016-12-30T08:32:51.999Z</time>
      </trkpt>
      <trkpt lat="47.49175" lon="6.75998">
        <ele>358.8</ele>
        <time>2016-12-30T08:32:52.999Z</time>
      </trkpt>
      <trkpt lat="47.49172" lon="6.76003">
        <ele>358.9</ele>
        <time>2016-12-30T08:32:53.999Z</time>
      </trkpt>
      <trkpt lat="47.49169" lon="6.76011">
        <ele>359.1</ele>
        <time>2016-12-30T08:32:54.999Z</time>
      </trkpt>
      <trkpt lat="47.49166" lon="6.76019">
        <ele>359.6</ele>
        <time>2016-12-30T08:32:55.999Z</time>
      </trkpt>
      <trkpt lat="47.49163" lon="6.76026">
        <ele>359.5</ele>
        <time>2016-12-30T08:32:56.999Z</time>
      </trkpt>
      <trkpt lat="47.4916" lon="6.76035">
        <ele>359.7</ele>
        <time>2016-12-30T08:32:57.999Z</time>
      </trkpt>
      <trkpt lat="47.49157" lon="6.76043">
        <ele>360.2</ele>
        <time>2016-12-30T08:32:58.999Z</time>
      </trkpt>
      <trkpt lat="47.49154" lon="6.76051">
        <ele>360.6</ele>
        <time>2016-12-30T08:32:59.999Z</time>
      </trkpt>
      <trkpt lat="47.49151" lon="6.76061">
        <ele>360.5</ele>
        <time>2016-12-30T08:33:00.999Z</time>
      </trkpt>
      <trkpt lat="47.49148" lon="6.76071">
        <ele>360.7</ele>
        <time>2016-12-30T08:33:01.999Z</time>
      </trkpt>
      <trkpt lat="47.49145" lon="6.76079">
        <ele>361.1</ele>
        <time>2016-12-30T08:33:02.999Z</time>
      </trkpt>
      <trkpt lat="47.49143" lon="6.76086">
        <ele>361.5</ele>
        <time>2016-12-30T08:33:03.999Z</time>
      </trkpt>
      <trkpt lat="47.49141" lon="6.76094">
        <ele>361.6</ele>
        <time>2016-12-30T08:33:04.999Z</time>
      </trkpt>
      <trkpt lat="47.49139" lon="6.76102">
        <ele>361.7</ele>
        <time>2016-12-30T08:33:05.999Z</time>
      </trkpt>
      <trkpt lat="47.49138" lon="6.76111">
        <ele>362.3</ele>
        <time>2016-12-30T08:33:06.999Z</time>
      </trkpt>
      <trkpt lat="47.49136" lon="6.76119">
        <ele>362.9</ele>
        <time>2016-12-30T08:33:07.999Z</time>
      </trkpt>
      <trkpt lat="47.49135" lon="6.76127">
        <ele>363.1</ele>
        <time>2016-12-30T08:33:08.999Z</time>
      </trkpt>
      <trkpt lat="47.49134" lon="6.76135">
        <ele>363</ele>
        <time>2016-12-30T08:33:09.999Z</time>
      </trkpt>
      <trkpt lat="47.49133" lon="6.76142">
        <ele>363.5</ele>
        <time>2016-12-30T08:33:10.999Z</time>
      </trkpt>
      <trkpt lat="47.49132" lon="6.76149">
        <ele>362.7</ele>
        <time>2016-12-30T08:33:11.999Z</time>
      </trkpt>
      <trkpt lat="47.49131" lon="6.76157">
        <ele>362.2</ele>
        <time>2016-12-30T08:33:12.999Z</time>
      </trkpt>
      <trkpt lat="47.4913" lon="6.76166">
        <ele>361.4</ele>
        <time>2016-12-30T08:33:13.999Z</time>
      </trkpt>
      <trkpt lat="47.49129" lon="6.76175">
        <ele>361.2</ele>
        <time>2016-12-30T08:33:14.999Z</time>
      </trkpt>
      <trkpt lat="47.49128" lon="6.76183">
        <ele>360.9</ele>
        <time>2016-12-30T08:33:15.999Z</time>
      </trkpt>
      <trkpt lat="47.49127" lon="6.76191">
        <ele>360.4</ele>
        <time>2016-12-30T08:33:16.999Z</time>
      </trkpt>
      <trkpt lat="47.49126" lon="6.76199">
        <ele>360.2</ele>
        <time>2016-12-30T08:33:17.999Z</time>
      </trkpt>
      <trkpt lat="47.49126" lon="6.76207">
        <ele>360</ele>
        <time>2016-12-30T08:33:18.999Z</time>
      </trkpt>
      <trkpt lat="47.49126" lon="6.76215">
        <ele>359.6</ele>
        <time>2016-12-30T08:33:19.999Z</time>
      </trkpt>
      <trkpt lat="47.49126" lon="6.76221">
        <ele>359.3</ele>
        <time>2016-12-30T08:33:20.999Z</time>
      </trkpt>
      <trkpt lat="47.49126" lon="6.76229">
        <ele>358.5</ele>
        <time>2016-12-30T08:33:21.999Z</time>
      </trkpt>
      <trkpt lat="47.49127" lon="6.76237">
        <ele>358.4</ele>
        <time>2016-12-30T08:33:22.999Z</time>
      </trkpt>
      <trkpt lat="47.49127" lon="6.76245">
        <ele>359.1</ele>
        <time>2016-12-30T08:33:23.999Z</time>
      </trkpt>
      <trkpt lat="47.49126" lon="6.76254">
        <ele>358.9</ele>
        <time>2016-12-30T08:33:24.999Z</time>
      </trkpt>
      <trkpt lat="47.49126" lon="6.76264">
        <ele>358.4</ele>
        <time>2016-12-30T08:33:25.999Z</time>
      </trkpt>
      <trkpt lat="47.49126" lon="6.76272">
        <ele>358.2</ele>
        <time>2016-12-30T08:33:26.999Z</time>
      </trkpt>
      <trkpt lat="47.49126" lon="6.76281">
        <ele>357.9</ele>
        <time>2016-12-30T08:33:27.999Z</time>
      </trkpt>
      <trkpt lat="47.49126" lon="6.7629">
        <ele>357.8</ele>
        <time>2016-12-30T08:33:28.999Z</time>
      </trkpt>
      <trkpt lat="47.49126" lon="6.76298">
        <ele>357.9</ele>
        <time>2016-12-30T08:33:29.999Z</time>
      </trkpt>
      <trkpt lat="47.49127" lon="6.76307">
        <ele>357.7</ele>
        <time>2016-12-30T08:33:30.999Z</time>
      </trkpt>
      <trkpt lat="47.49126" lon="6.76315">
        <ele>357.9</ele>
        <time>2016-12-30T08:33:31.999Z</time>
      </trkpt>
      <trkpt lat="47.49126" lon="6.76323">
        <ele>358</ele>
        <time>2016-12-30T08:33:32.999Z</time>
      </trkpt>
      <trkpt lat="47.49126" lon="6.76331">
        <ele>357.7</ele>
        <time>2016-12-30T08:33:33.999Z</time>
      </trkpt>
      <trkpt lat="47.49125" lon="6.7634">
        <ele>357.9</ele>
        <time>2016-12-30T08:33:34.999Z</time>
      </trkpt>
      <trkpt lat="47.49125" lon="6.76347">
        <ele>357.2</ele>
        <time>2016-12-30T08:33:35.999Z</time>
      </trkpt>
      <trkpt lat="47.49125" lon="6.76356">
        <ele>357</ele>
        <time>2016-12-30T08:33:36.999Z</time>
      </trkpt>
      <trkpt lat="47.49125" lon="6.76367">
        <ele>356.5</ele>
        <time>2016-12-30T08:33:37.999Z</time>
      </trkpt>
      <trkpt lat="47.49125" lon="6.76375">
        <ele>357.1</ele>
        <time>2016-12-30T08:33:38.999Z</time>
      </trkpt>
      <trkpt lat="47.49124" lon="6.76386">
        <ele>357.1</ele>
        <time>2016-12-30T08:33:39.999Z</time>
      </trkpt>
      <trkpt lat="47.49124" lon="6.76395">
        <ele>357.2</ele>
        <time>2016-12-30T08:33:40.999Z</time>
      </trkpt>
      <trkpt lat="47.49124" lon="6.76404">
        <ele>358</ele>
        <time>2016-12-30T08:33:41.999Z</time>
      </trkpt>
      <trkpt lat="47.49123" lon="6.76412">
        <ele>358.6</ele>
        <time>2016-12-30T08:33:42.999Z</time>
      </trkpt>
      <trkpt lat="47.49122" lon="6.76418">
        <ele>359.1</ele>
        <time>2016-12-30T08:33:43.999Z</time>
      </trkpt>
      <trkpt lat="47.49122" lon="6.76426">
        <ele>360</ele>
        <time>2016-12-30T08:33:44.999Z</time>
      </trkpt>
      <trkpt lat="47.49122" lon="6.76433">
        <ele>360.7</ele>
        <time>2016-12-30T08:33:45.999Z</time>
      </trkpt>
      <trkpt lat="47.49122" lon="6.76439">
        <ele>361.3</ele>
        <time>2016-12-30T08:33:46.999Z</time>
      </trkpt>
      <trkpt lat="47.49122" lon="6.76443">
        <ele>362.1</ele>
        <time>2016-12-30T08:33:47.999Z</time>
      </trkpt>
      <trkpt lat="47.49122" lon="6.76449">
        <ele>362.8</ele>
        <time>2016-12-30T08:33:48.999Z</time>
      </trkpt>
      <trkpt lat="47.49122" lon="6.76456">
        <ele>363.2</ele>
        <time>2016-12-30T08:33:49.999Z</time>
      </trkpt>
      <trkpt lat="47.49122" lon="6.76463">
        <ele>362.3</ele>
        <time>2016-12-30T08:33:50.999Z</time>
      </trkpt>
      <trkpt lat="47.49122" lon="6.7647">
        <ele>362.2</ele>
        <time>2016-12-30T08:33:51.999Z</time>
      </trkpt>
      <trkpt lat="47.49121" lon="6.76478">
        <ele>362.2</ele>
        <time>2016-12-30T08:33:52.999Z</time>
      </trkpt>
      <trkpt lat="47.49121" lon="6.76484">
        <ele>362.2</ele>
        <time>2016-12-30T08:33:53.999Z</time>
      </trkpt>
      <trkpt lat="47.4912" lon="6.7649">
        <ele>362.2</ele>
        <time>2016-12-30T08:33:54.999Z</time>
      </trkpt>
      <trkpt lat="47.49122" lon="6.76496">
        <ele>362.1</ele>
        <time>2016-12-30T08:33:55.999Z</time>
      </trkpt>
      <trkpt lat="47.49125" lon="6.76501">
        <ele>362</ele>
        <time>2016-12-30T08:33:56.999Z</time>
      </trkpt>
      <trkpt lat="47.49127" lon="6.76505">
        <ele>362</ele>
        <time>2016-12-30T08:33:57.999Z</time>
      </trkpt>
      <trkpt lat="47.49129" lon="6.76506">
        <ele>361.9</ele>
        <time>2016-12-30T08:33:58.999Z</time>
      </trkpt>
      <trkpt lat="47.49132" lon="6.76506">
        <ele>361.6</ele>
        <time>2016-12-30T08:33:59.999Z</time>
      </trkpt>
      <trkpt lat="47.49134" lon="6.76506">
        <ele>361.5</ele>
        <time>2016-12-30T08:34:00.999Z</time>
      </trkpt>
      <trkpt lat="47.49137" lon="6.76506">
        <ele>361.4</ele>
        <time>2016-12-30T08:34:01.999Z</time>
      </trkpt>
      <trkpt lat="47.4914" lon="6.76506">
        <ele>361.3</ele>
        <time>2016-12-30T08:34:02.999Z</time>
      </trkpt>
      <trkpt lat="47.49144" lon="6.76505">
        <ele>361.2</ele>
        <time>2016-12-30T08:34:04.999Z</time>
      </trkpt>
      <trkpt lat="47.49146" lon="6.76506">
        <ele>361.2</ele>
        <time>2016-12-30T08:34:05.999Z</time>
      </trkpt>
      <trkpt lat="47.49148" lon="6.76507">
        <ele>361.2</ele>
        <time>2016-12-30T08:34:06.999Z</time>
      </trkpt>
      <trkpt lat="47.4915" lon="6.76508">
        <ele>361.3</ele>
        <time>2016-12-30T08:34:07.999Z</time>
      </trkpt>
      <trkpt lat="47.49153" lon="6.76507">
        <ele>361.4</ele>
        <time>2016-12-30T08:34:08.999Z</time>
      </trkpt>
      <trkpt lat="47.49156" lon="6.76508">
        <ele>361.5</ele>
        <time>2016-12-30T08:34:09.999Z</time>
      </trkpt>
      <trkpt lat="47.49159" lon="6.76509">
        <ele>361.5</ele>
        <time>2016-12-30T08:34:10.999Z</time>
      </trkpt>
      <trkpt lat="47.49161" lon="6.7651">
        <ele>361.6</ele>
        <time>2016-12-30T08:34:11.999Z</time>
      </trkpt>
      <trkpt lat="47.49166" lon="6.76511">
        <ele>361.6</ele>
        <time>2016-12-30T08:34:12.999Z</time>
      </trkpt>
      <trkpt lat="47.49168" lon="6.76511">
        <ele>361.6</ele>
        <time>2016-12-30T08:34:13.999Z</time>
      </trkpt>
      <trkpt lat="47.49171" lon="6.76509">
        <ele>361.6</ele>
        <time>2016-12-30T08:34:14.999Z</time>
      </trkpt>
      <trkpt lat="47.49174" lon="6.76505">
        <ele>361.5</ele>
        <time>2016-12-30T08:34:16.999Z</time>
      </trkpt>
      <trkpt lat="47.49176" lon="6.76504">
        <ele>361.5</ele>
        <time>2016-12-30T08:34:17.999Z</time>
      </trkpt>
      <trkpt lat="47.4918" lon="6.76506">
        <ele>361.4</ele>
        <time>2016-12-30T08:34:20.999Z</time>
      </trkpt>
      <trkpt lat="47.49182" lon="6.76505">
        <ele>361.4</ele>
        <time>2016-12-30T08:34:21.999Z</time>
      </trkpt>
      <trkpt lat="47.49185" lon="6.76502">
        <ele>361.4</ele>
        <time>2016-12-30T08:34:41.999Z</time>
      </trkpt>
      <trkpt lat="47.49178" lon="6.76498">
        <ele>361.5</ele>
        <time>2016-12-30T08:34:42.999Z</time>
      </trkpt>
      <trkpt lat="47.49178" lon="6.76498">
        <ele>362.7</ele>
        <time>2016-12-30T08:38:28.999Z</time>
      </trkpt>
      <trkpt lat="47.4917" lon="6.76505">
        <ele>362.7</ele>
        <time>2016-12-30T08:38:29.999Z</time>
      </trkpt>
      <trkpt lat="47.49167" lon="6.76508">
        <ele>362.7</ele>
        <time>2016-12-30T08:38:30.999Z</time>
      </trkpt>
      <trkpt lat="47.49162" lon="6.76511">
        <ele>363</ele>
        <time>2016-12-30T08:38:31.999Z</time>
      </trkpt>
      <trkpt lat="47.49158" lon="6.76513">
        <ele>363.5</ele>
        <time>2016-12-30T08:38:32.999Z</time>
      </trkpt>
      <trkpt lat="47.49153" lon="6.76516">
        <ele>363.3</ele>
        <time>2016-12-30T08:38:33.999Z</time>
      </trkpt>
      <trkpt lat="47.49149" lon="6.76518">
        <ele>363.1</ele>
        <time>2016-12-30T08:38:34.999Z</time>
      </trkpt>
      <trkpt lat="47.49143" lon="6.7652">
        <ele>362.6</ele>
        <time>2016-12-30T08:38:35.999Z</time>
      </trkpt>
      <trkpt lat="47.49138" lon="6.7652">
        <ele>361.6</ele>
        <time>2016-12-30T08:38:36.999Z</time>
      </trkpt>
      <trkpt lat="47.49133" lon="6.7652">
        <ele>361.3</ele>
        <time>2016-12-30T08:38:37.999Z</time>
      </trkpt>
      <trkpt lat="47.49129" lon="6.7652">
        <ele>361.3</ele>
        <time>2016-12-30T08:38:38.999Z</time>
      </trkpt>
      <trkpt lat="47.49125" lon="6.7652">
        <ele>361.2</ele>
        <time>2016-12-30T08:38:39.999Z</time>
      </trkpt>
      <trkpt lat="47.49122" lon="6.76516">
        <ele>360.9</ele>
        <time>2016-12-30T08:38:41.999Z</time>
      </trkpt>
      <trkpt lat="47.49122" lon="6.76511">
        <ele>360.7</ele>
        <time>2016-12-30T08:38:42.999Z</time>
      </trkpt>
      <trkpt lat="47.49122" lon="6.76505">
        <ele>360.4</ele>
        <time>2016-12-30T08:38:44.999Z</time>
      </trkpt>
      <trkpt lat="47.49123" lon="6.76501">
        <ele>360.3</ele>
        <time>2016-12-30T08:38:45.999Z</time>
      </trkpt>
      <trkpt lat="47.49123" lon="6.76496">
        <ele>360.4</ele>
        <time>2016-12-30T08:38:46.999Z</time>
      </trkpt>
      <trkpt lat="47.49124" lon="6.76492">
        <ele>360.4</ele>
        <time>2016-12-30T08:38:47.999Z</time>
      </trkpt>
      <trkpt lat="47.49124" lon="6.76486">
        <ele>360.5</ele>
        <time>2016-12-30T08:38:48.999Z</time>
      </trkpt>
      <trkpt lat="47.49124" lon="6.76482">
        <ele>360.6</ele>
        <time>2016-12-30T08:38:49.999Z</time>
      </trkpt>
      <trkpt lat="47.49125" lon="6.76478">
        <ele>360.7</ele>
        <time>2016-12-30T08:38:50.999Z</time>
      </trkpt>
      <trkpt lat="47.49125" lon="6.76474">
        <ele>360.8</ele>
        <time>2016-12-30T08:38:51.999Z</time>
      </trkpt>
      <trkpt lat="47.49126" lon="6.7647">
        <ele>361</ele>
        <time>2016-12-30T08:38:52.999Z</time>
      </trkpt>
      <trkpt lat="47.49126" lon="6.76464">
        <ele>361.2</ele>
        <time>2016-12-30T08:38:53.999Z</time>
      </trkpt>
      <trkpt lat="47.49127" lon="6.76458">
        <ele>361.4</ele>
        <time>2016-12-30T08:38:54.999Z</time>
      </trkpt>
      <trkpt lat="47.49127" lon="6.76453">
        <ele>361.5</ele>
        <time>2016-12-30T08:38:55.999Z</time>
      </trkpt>
      <trkpt lat="47.49126" lon="6.76449">
        <ele>361.7</ele>
        <time>2016-12-30T08:38:56.999Z</time>
      </trkpt>
      <trkpt lat="47.49126" lon="6.76445">
        <ele>361.9</ele>
        <time>2016-12-30T08:38:57.999Z</time>
      </trkpt>
      <trkpt lat="47.49126" lon="6.76441">
        <ele>362</ele>
        <time>2016-12-30T08:38:58.999Z</time>
      </trkpt>
      <trkpt lat="47.49126" lon="6.76436">
        <ele>362</ele>
        <time>2016-12-30T08:38:59.999Z</time>
      </trkpt>
      <trkpt lat="47.49126" lon="6.76432">
        <ele>362.1</ele>
        <time>2016-12-30T08:39:00.999Z</time>
      </trkpt>
      <trkpt lat="47.49125" lon="6.76428">
        <ele>362.1</ele>
        <time>2016-12-30T08:39:01.999Z</time>
      </trkpt>
      <trkpt lat="47.49122" lon="6.76427">
        <ele>362</ele>
        <time>2016-12-30T08:39:02.999Z</time>
      </trkpt>
      <trkpt lat="47.49119" lon="6.76428">
        <ele>361.9</ele>
        <time>2016-12-30T08:39:03.999Z</time>
      </trkpt>
      <trkpt lat="47.49115" lon="6.76429">
        <ele>361.8</ele>
        <time>2016-12-30T08:39:04.999Z</time>
      </trkpt>
      <trkpt lat="47.49112" lon="6.76429">
        <ele>361.7</ele>
        <time>2016-12-30T08:39:05.999Z</time>
      </trkpt>
      <trkpt lat="47.49109" lon="6.76431">
        <ele>361.6</ele>
        <time>2016-12-30T08:39:06.999Z</time>
      </trkpt>
      <trkpt lat="47.49107" lon="6.76431">
        <ele>361.5</ele>
        <time>2016-12-30T08:39:07.999Z</time>
      </trkpt>
      <trkpt lat="47.49105" lon="6.76432">
        <ele>361.4</ele>
        <time>2016-12-30T08:39:08.999Z</time>
      </trkpt>
      <trkpt lat="47.49101" lon="6.76437">
        <ele>361.3</ele>
        <time>2016-12-30T08:39:09.999Z</time>
      </trkpt>
      <trkpt lat="47.49099" lon="6.76441">
        <ele>361.2</ele>
        <time>2016-12-30T08:39:10.999Z</time>
      </trkpt>
      <trkpt lat="47.49099" lon="6.76447">
        <ele>361.2</ele>
        <time>2016-12-30T08:39:11.999Z</time>
      </trkpt>
      <trkpt lat="47.49099" lon="6.76453">
        <ele>361.2</ele>
        <time>2016-12-30T08:39:12.999Z</time>
      </trkpt>
      <trkpt lat="47.49099" lon="6.7646">
        <ele>361.4</ele>
        <time>2016-12-30T08:39:13.999Z</time>
      </trkpt>
      <trkpt lat="47.49099" lon="6.76466">
        <ele>361.5</ele>
        <time>2016-12-30T08:39:14.999Z</time>
      </trkpt>
      <trkpt lat="47.49099" lon="6.76474">
        <ele>361.8</ele>
        <time>2016-12-30T08:39:15.999Z</time>
      </trkpt>
      <trkpt lat="47.491" lon="6.7648">
        <ele>362.6</ele>
        <time>2016-12-30T08:39:16.999Z</time>
      </trkpt>
      <trkpt lat="47.491" lon="6.76486">
        <ele>362.8</ele>
        <time>2016-12-30T08:39:17.999Z</time>
      </trkpt>
      <trkpt lat="47.49101" lon="6.76493">
        <ele>363.5</ele>
        <time>2016-12-30T08:39:18.999Z</time>
      </trkpt>
      <trkpt lat="47.49101" lon="6.765">
        <ele>364.2</ele>
        <time>2016-12-30T08:39:19.999Z</time>
      </trkpt>
      <trkpt lat="47.49101" lon="6.76507">
        <ele>364.6</ele>
        <time>2016-12-30T08:39:20.999Z</time>
      </trkpt>
      <trkpt lat="47.49101" lon="6.76515">
        <ele>364.8</ele>
        <time>2016-12-30T08:39:21.999Z</time>
      </trkpt>
      <trkpt lat="47.491" lon="6.76523">
        <ele>365.1</ele>
        <time>2016-12-30T08:39:22.999Z</time>
      </trkpt>
      <trkpt lat="47.491" lon="6.7653">
        <ele>365.1</ele>
        <time>2016-12-30T08:39:23.999Z</time>
      </trkpt>
      <trkpt lat="47.49099" lon="6.76536">
        <ele>365.2</ele>
        <time>2016-12-30T08:39:24.999Z</time>
      </trkpt>
      <trkpt lat="47.49099" lon="6.76543">
        <ele>365.5</ele>
        <time>2016-12-30T08:39:25.999Z</time>
      </trkpt>
      <trkpt lat="47.49098" lon="6.7655">
        <ele>365.3</ele>
        <time>2016-12-30T08:39:26.999Z</time>
      </trkpt>
      <trkpt lat="47.49097" lon="6.76555">
        <ele>365.5</ele>
        <time>2016-12-30T08:39:27.999Z</time>
      </trkpt>
      <trkpt lat="47.49097" lon="6.76562">
        <ele>365.9</ele>
        <time>2016-12-30T08:39:28.999Z</time>
      </trkpt>
      <trkpt lat="47.49096" lon="6.76568">
        <ele>366.2</ele>
        <time>2016-12-30T08:39:29.999Z</time>
      </trkpt>
      <trkpt lat="47.49095" lon="6.76573">
        <ele>366.2</ele>
        <time>2016-12-30T08:39:30.999Z</time>
      </trkpt>
      <trkpt lat="47.49095" lon="6.76577">
        <ele>366.3</ele>
        <time>2016-12-30T08:39:31.999Z</time>
      </trkpt>
      <trkpt lat="47.49094" lon="6.76581">
        <ele>366.3</ele>
        <time>2016-12-30T08:39:32.999Z</time>
      </trkpt>
      <trkpt lat="47.49094" lon="6.76585">
        <ele>366.3</ele>
        <time>2016-12-30T08:39:33.999Z</time>
      </trkpt>
      <trkpt lat="47.49093" lon="6.76591">
        <ele>365.3</ele>
        <time>2016-12-30T08:39:34.999Z</time>
      </trkpt>
      <trkpt lat="47.49092" lon="6.76597">
        <ele>364.8</ele>
        <time>2016-12-30T08:39:35.999Z</time>
      </trkpt>
      <trkpt lat="47.49091" lon="6.76605">
        <ele>364.1</ele>
        <time>2016-12-30T08:39:36.999Z</time>
      </trkpt>
      <trkpt lat="47.49089" lon="6.76612">
        <ele>363.8</ele>
        <time>2016-12-30T08:39:37.999Z</time>
      </trkpt>
      <trkpt lat="47.49087" lon="6.76618">
        <ele>363.9</ele>
        <time>2016-12-30T08:39:38.999Z</time>
      </trkpt>
      <trkpt lat="47.49085" lon="6.76624">
        <ele>363.7</ele>
        <time>2016-12-30T08:39:39.999Z</time>
      </trkpt>
      <trkpt lat="47.49083" lon="6.7663">
        <ele>363.4</ele>
        <time>2016-12-30T08:39:40.999Z</time>
      </trkpt>
      <trkpt lat="47.49081" lon="6.76636">
        <ele>362.6</ele>
        <time>2016-12-30T08:39:41.999Z</time>
      </trkpt>
      <trkpt lat="47.4908" lon="6.76641">
        <ele>362.2</ele>
        <time>2016-12-30T08:39:42.999Z</time>
      </trkpt>
      <trkpt lat="47.49079" lon="6.76647">
        <ele>361.9</ele>
        <time>2016-12-30T08:39:43.999Z</time>
      </trkpt>
      <trkpt lat="47.49077" lon="6.76653">
        <ele>361.5</ele>
        <time>2016-12-30T08:39:44.999Z</time>
      </trkpt>
      <trkpt lat="47.49075" lon="6.7666">
        <ele>361.2</ele>
        <time>2016-12-30T08:39:45.999Z</time>
      </trkpt>
      <trkpt lat="47.49073" lon="6.76665">
        <ele>361.5</ele>
        <time>2016-12-30T08:39:46.999Z</time>
      </trkpt>
      <trkpt lat="47.49072" lon="6.76671">
        <ele>361.5</ele>
        <time>2016-12-30T08:39:47.999Z</time>
      </trkpt>
      <trkpt lat="47.4907" lon="6.76678">
        <ele>361.8</ele>
        <time>2016-12-30T08:39:48.999Z</time>
      </trkpt>
      <trkpt lat="47.49068" lon="6.76683">
        <ele>361.5</ele>
        <time>2016-12-30T08:39:49.999Z</time>
      </trkpt>
      <trkpt lat="47.49066" lon="6.76688">
        <ele>361.5</ele>
        <time>2016-12-30T08:39:50.999Z</time>
      </trkpt>
      <trkpt lat="47.49065" lon="6.76693">
        <ele>361.5</ele>
        <time>2016-12-30T08:39:51.999Z</time>
      </trkpt>
      <trkpt lat="47.49063" lon="6.76698">
        <ele>361.5</ele>
        <time>2016-12-30T08:39:52.999Z</time>
      </trkpt>
      <trkpt lat="47.49061" lon="6.76703">
        <ele>361.4</ele>
        <time>2016-12-30T08:39:54.999Z</time>
      </trkpt>
      <trkpt lat="47.49061" lon="6.76704">
        <ele>361.4</ele>
        <time>2016-12-30T08:39:55.999Z</time>
      </trkpt>
      <trkpt lat="47.49057" lon="6.76706">
        <ele>360.1</ele>
        <time>2016-12-30T08:40:20.999Z</time>
      </trkpt>
      <trkpt lat="47.49057" lon="6.76709">
        <ele>360</ele>
        <time>2016-12-30T08:40:21.999Z</time>
      </trkpt>
      <trkpt lat="47.49056" lon="6.76713">
        <ele>359.9</ele>
        <time>2016-12-30T08:40:22.999Z</time>
      </trkpt>
      <trkpt lat="47.49056" lon="6.76716">
        <ele>359.8</ele>
        <time>2016-12-30T08:40:23.999Z</time>
      </trkpt>
      <trkpt lat="47.49055" lon="6.7672">
        <ele>359.8</ele>
        <time>2016-12-30T08:40:24.999Z</time>
      </trkpt>
      <trkpt lat="47.49054" lon="6.76724">
        <ele>359.8</ele>
        <time>2016-12-30T08:40:25.999Z</time>
      </trkpt>
      <trkpt lat="47.49054" lon="6.76729">
        <ele>359.8</ele>
        <time>2016-12-30T08:40:26.999Z</time>
      </trkpt>
      <trkpt lat="47.49053" lon="6.76733">
        <ele>359.8</ele>
        <time>2016-12-30T08:40:27.999Z</time>
      </trkpt>
      <trkpt lat="47.49051" lon="6.76737">
        <ele>359.8</ele>
        <time>2016-12-30T08:40:28.999Z</time>
      </trkpt>
      <trkpt lat="47.4905" lon="6.76741">
        <ele>359.8</ele>
        <time>2016-12-30T08:40:29.999Z</time>
      </trkpt>
      <trkpt lat="47.49049" lon="6.76746">
        <ele>359.8</ele>
        <time>2016-12-30T08:40:30.999Z</time>
      </trkpt>
      <trkpt lat="47.49048" lon="6.7675">
        <ele>359.8</ele>
        <time>2016-12-30T08:40:31.999Z</time>
      </trkpt>
      <trkpt lat="47.49047" lon="6.76755">
        <ele>359.8</ele>
        <time>2016-12-30T08:40:32.999Z</time>
      </trkpt>
      <trkpt lat="47.49046" lon="6.7676">
        <ele>359.8</ele>
        <time>2016-12-30T08:40:33.999Z</time>
      </trkpt>
      <trkpt lat="47.49045" lon="6.76767">
        <ele>359.9</ele>
        <time>2016-12-30T08:40:34.999Z</time>
      </trkpt>
      <trkpt lat="47.49044" lon="6.76773">
        <ele>359.9</ele>
        <time>2016-12-30T08:40:35.999Z</time>
      </trkpt>
      <trkpt lat="47.49044" lon="6.76778">
        <ele>360</ele>
        <time>2016-12-30T08:40:36.999Z</time>
      </trkpt>
      <trkpt lat="47.49044" lon="6.76782">
        <ele>360</ele>
        <time>2016-12-30T08:40:37.999Z</time>
      </trkpt>
      <trkpt lat="47.49044" lon="6.76785">
        <ele>360</ele>
        <time>2016-12-30T08:40:38.999Z</time>
      </trkpt>
      <trkpt lat="47.49043" lon="6.76788">
        <ele>360</ele>
        <time>2016-12-30T08:40:39.999Z</time>
      </trkpt>
      <trkpt lat="47.4904" lon="6.7679">
        <ele>360</ele>
        <time>2016-12-30T08:40:40.999Z</time>
      </trkpt>
      <trkpt lat="47.49038" lon="6.7679">
        <ele>359.9</ele>
        <time>2016-12-30T08:40:41.999Z</time>
      </trkpt>
      <trkpt lat="47.49036" lon="6.76789">
        <ele>359.8</ele>
        <time>2016-12-30T08:40:42.999Z</time>
      </trkpt>
      <trkpt lat="47.49033" lon="6.76787">
        <ele>359.7</ele>
        <time>2016-12-30T08:40:43.999Z</time>
      </trkpt>
      <trkpt lat="47.49031" lon="6.76785">
        <ele>359.4</ele>
        <time>2016-12-30T08:40:44.999Z</time>
      </trkpt>
      <trkpt lat="47.49028" lon="6.76783">
        <ele>359.2</ele>
        <time>2016-12-30T08:40:45.999Z</time>
      </trkpt>
      <trkpt lat="47.49026" lon="6.76781">
        <ele>358.9</ele>
        <time>2016-12-30T08:40:46.999Z</time>
      </trkpt>
      <trkpt lat="47.49023" lon="6.76779">
        <ele>358.6</ele>
        <time>2016-12-30T08:40:47.999Z</time>
      </trkpt>
      <trkpt lat="47.4902" lon="6.76778">
        <ele>358.3</ele>
        <time>2016-12-30T08:40:48.999Z</time>
      </trkpt>
      <trkpt lat="47.49017" lon="6.76776">
        <ele>358.1</ele>
        <time>2016-12-30T08:40:49.999Z</time>
      </trkpt>
      <trkpt lat="47.49015" lon="6.76774">
        <ele>357.8</ele>
        <time>2016-12-30T08:40:50.999Z</time>
      </trkpt>
      <trkpt lat="47.49012" lon="6.76771">
        <ele>357.5</ele>
        <time>2016-12-30T08:40:51.999Z</time>
      </trkpt>
      <trkpt lat="47.49008" lon="6.76773">
        <ele>357.3</ele>
        <time>2016-12-30T08:40:53.999Z</time>
      </trkpt>
      <trkpt lat="47.49006" lon="6.76776">
        <ele>357.2</ele>
        <time>2016-12-30T08:40:54.999Z</time>
      </trkpt>
      <trkpt lat="47.49005" lon="6.76781">
        <ele>357.2</ele>
        <time>2016-12-30T08:40:55.999Z</time>
      </trkpt>
      <trkpt lat="47.49004" lon="6.76786">
        <ele>357.2</ele>
        <time>2016-12-30T08:40:56.999Z</time>
      </trkpt>
      <trkpt lat="47.49003" lon="6.76792">
        <ele>357.1</ele>
        <time>2016-12-30T08:40:57.999Z</time>
      </trkpt>
      <trkpt lat="47.49002" lon="6.76797">
        <ele>357</ele>
        <time>2016-12-30T08:40:58.999Z</time>
      </trkpt>
      <trkpt lat="47.49001" lon="6.76803">
        <ele>357</ele>
        <time>2016-12-30T08:40:59.999Z</time>
      </trkpt>
      <trkpt lat="47.49001" lon="6.76807">
        <ele>357</ele>
        <time>2016-12-30T08:41:00.999Z</time>
      </trkpt>
      <trkpt lat="47.49" lon="6.76813">
        <ele>357</ele>
        <time>2016-12-30T08:41:01.999Z</time>
      </trkpt>
      <trkpt lat="47.49" lon="6.76818">
        <ele>357</ele>
        <time>2016-12-30T08:41:02.999Z</time>
      </trkpt>
      <trkpt lat="47.48999" lon="6.76822">
        <ele>357.1</ele>
        <time>2016-12-30T08:41:03.999Z</time>
      </trkpt>
      <trkpt lat="47.48999" lon="6.76826">
        <ele>357</ele>
        <time>2016-12-30T08:41:04.999Z</time>
      </trkpt>
      <trkpt lat="47.48998" lon="6.76831">
        <ele>357</ele>
        <time>2016-12-30T08:41:05.999Z</time>
      </trkpt>
      <trkpt lat="47.48997" lon="6.76838">
        <ele>357</ele>
        <time>2016-12-30T08:41:06.999Z</time>
      </trkpt>
      <trkpt lat="47.48997" lon="6.76843">
        <ele>357</ele>
        <time>2016-12-30T08:41:07.999Z</time>
      </trkpt>
      <trkpt lat="47.48997" lon="6.76848">
        <ele>357.1</ele>
        <time>2016-12-30T08:41:08.999Z</time>
      </trkpt>
      <trkpt lat="47.48996" lon="6.76854">
        <ele>357.1</ele>
        <time>2016-12-30T08:41:09.999Z</time>
      </trkpt>
      <trkpt lat="47.48995" lon="6.7686">
        <ele>357.2</ele>
        <time>2016-12-30T08:41:10.999Z</time>
      </trkpt>
      <trkpt lat="47.48995" lon="6.76865">
        <ele>357.2</ele>
        <time>2016-12-30T08:41:11.999Z</time>
      </trkpt>
      <trkpt lat="47.48994" lon="6.76871">
        <ele>358.1</ele>
        <time>2016-12-30T08:41:12.999Z</time>
      </trkpt>
      <trkpt lat="47.48993" lon="6.76876">
        <ele>358.2</ele>
        <time>2016-12-30T08:41:13.999Z</time>
      </trkpt>
      <trkpt lat="47.48993" lon="6.76882">
        <ele>358.2</ele>
        <time>2016-12-30T08:41:14.999Z</time>
      </trkpt>
      <trkpt lat="47.48992" lon="6.76887">
        <ele>358.3</ele>
        <time>2016-12-30T08:41:15.999Z</time>
      </trkpt>
      <trkpt lat="47.48991" lon="6.76892">
        <ele>358.4</ele>
        <time>2016-12-30T08:41:16.999Z</time>
      </trkpt>
      <trkpt lat="47.4899" lon="6.76895">
        <ele>358.4</ele>
        <time>2016-12-30T08:41:17.999Z</time>
      </trkpt>
      <trkpt lat="47.4899" lon="6.76899">
        <ele>358.4</ele>
        <time>2016-12-30T08:41:18.999Z</time>
      </trkpt>
      <trkpt lat="47.48989" lon="6.76904">
        <ele>358.4</ele>
        <time>2016-12-30T08:41:19.999Z</time>
      </trkpt>
      <trkpt lat="47.48988" lon="6.76909">
        <ele>358.5</ele>
        <time>2016-12-30T08:41:20.999Z</time>
      </trkpt>
      <trkpt lat="47.48987" lon="6.76912">
        <ele>358.6</ele>
        <time>2016-12-30T08:41:21.999Z</time>
      </trkpt>
      <trkpt lat="47.48985" lon="6.76915">
        <ele>358.6</ele>
        <time>2016-12-30T08:41:22.999Z</time>
      </trkpt>
      <trkpt lat="47.48984" lon="6.76918">
        <ele>358.5</ele>
        <time>2016-12-30T08:41:23.999Z</time>
      </trkpt>
      <trkpt lat="47.48982" lon="6.76921">
        <ele>358.5</ele>
        <time>2016-12-30T08:41:24.999Z</time>
      </trkpt>
      <trkpt lat="47.4898" lon="6.76925">
        <ele>358.5</ele>
        <time>2016-12-30T08:41:25.999Z</time>
      </trkpt>
      <trkpt lat="47.48979" lon="6.76929">
        <ele>358.5</ele>
        <time>2016-12-30T08:41:26.999Z</time>
      </trkpt>
      <trkpt lat="47.48978" lon="6.76934">
        <ele>358.5</ele>
        <time>2016-12-30T08:41:27.999Z</time>
      </trkpt>
      <trkpt lat="47.48977" lon="6.76939">
        <ele>358.6</ele>
        <time>2016-12-30T08:41:28.999Z</time>
      </trkpt>
      <trkpt lat="47.48977" lon="6.76943">
        <ele>358.5</ele>
        <time>2016-12-30T08:41:29.999Z</time>
      </trkpt>
      <trkpt lat="47.48977" lon="6.76947">
        <ele>358.6</ele>
        <time>2016-12-30T08:41:30.999Z</time>
      </trkpt>
      <trkpt lat="47.48977" lon="6.76953">
        <ele>358.6</ele>
        <time>2016-12-30T08:41:31.999Z</time>
      </trkpt>
      <trkpt lat="47.48977" lon="6.76959">
        <ele>359</ele>
        <time>2016-12-30T08:41:32.999Z</time>
      </trkpt>
      <trkpt lat="47.48977" lon="6.76965">
        <ele>359.4</ele>
        <time>2016-12-30T08:41:33.999Z</time>
      </trkpt>
      <trkpt lat="47.48977" lon="6.76971">
        <ele>359.9</ele>
        <time>2016-12-30T08:41:34.999Z</time>
      </trkpt>
      <trkpt lat="47.48976" lon="6.76977">
        <ele>360.2</ele>
        <time>2016-12-30T08:41:35.999Z</time>
      </trkpt>
      <trkpt lat="47.48976" lon="6.76983">
        <ele>360.2</ele>
        <time>2016-12-30T08:41:36.999Z</time>
      </trkpt>
      <trkpt lat="47.48975" lon="6.7699">
        <ele>360.8</ele>
        <time>2016-12-30T08:41:37.999Z</time>
      </trkpt>
      <trkpt lat="47.48975" lon="6.76998">
        <ele>361</ele>
        <time>2016-12-30T08:41:38.999Z</time>
      </trkpt>
      <trkpt lat="47.48974" lon="6.77005">
        <ele>361.5</ele>
        <time>2016-12-30T08:41:39.999Z</time>
      </trkpt>
      <trkpt lat="47.48973" lon="6.77011">
        <ele>361</ele>
        <time>2016-12-30T08:41:40.999Z</time>
      </trkpt>
      <trkpt lat="47.48973" lon="6.77018">
        <ele>360.9</ele>
        <time>2016-12-30T08:41:41.999Z</time>
      </trkpt>
      <trkpt lat="47.48972" lon="6.77023">
        <ele>360.4</ele>
        <time>2016-12-30T08:41:42.999Z</time>
      </trkpt>
      <trkpt lat="47.48972" lon="6.77029">
        <ele>360</ele>
        <time>2016-12-30T08:41:43.999Z</time>
      </trkpt>
      <trkpt lat="47.48971" lon="6.77034">
        <ele>359.9</ele>
        <time>2016-12-30T08:41:44.999Z</time>
      </trkpt>
      <trkpt lat="47.48971" lon="6.77041">
        <ele>359.8</ele>
        <time>2016-12-30T08:41:45.999Z</time>
      </trkpt>
      <trkpt lat="47.4897" lon="6.77047">
        <ele>359.8</ele>
        <time>2016-12-30T08:41:46.999Z</time>
      </trkpt>
      <trkpt lat="47.4897" lon="6.77052">
        <ele>359.7</ele>
        <time>2016-12-30T08:41:47.999Z</time>
      </trkpt>
      <trkpt lat="47.4897" lon="6.77058">
        <ele>359.3</ele>
        <time>2016-12-30T08:41:48.999Z</time>
      </trkpt>
      <trkpt lat="47.4897" lon="6.77065">
        <ele>359.2</ele>
        <time>2016-12-30T08:41:49.999Z</time>
      </trkpt>
      <trkpt lat="47.48969" lon="6.77071">
        <ele>359.5</ele>
        <time>2016-12-30T08:41:50.999Z</time>
      </trkpt>
      <trkpt lat="47.48969" lon="6.77077">
        <ele>359.5</ele>
        <time>2016-12-30T08:41:51.999Z</time>
      </trkpt>
      <trkpt lat="47.48969" lon="6.77083">
        <ele>359.5</ele>
        <time>2016-12-30T08:41:52.999Z</time>
      </trkpt>
      <trkpt lat="47.48969" lon="6.77089">
        <ele>359.5</ele>
        <time>2016-12-30T08:41:53.999Z</time>
      </trkpt>
      <trkpt lat="47.48969" lon="6.77094">
        <ele>359.5</ele>
        <time>2016-12-30T08:41:54.999Z</time>
      </trkpt>
      <trkpt lat="47.48969" lon="6.771">
        <ele>359.6</ele>
        <time>2016-12-30T08:41:55.999Z</time>
      </trkpt>
      <trkpt lat="47.48968" lon="6.77107">
        <ele>359.8</ele>
        <time>2016-12-30T08:41:56.999Z</time>
      </trkpt>
      <trkpt lat="47.48968" lon="6.77113">
        <ele>359.6</ele>
        <time>2016-12-30T08:41:57.999Z</time>
      </trkpt>
      <trkpt lat="47.48968" lon="6.77119">
        <ele>359.6</ele>
        <time>2016-12-30T08:41:58.999Z</time>
      </trkpt>
      <trkpt lat="47.48969" lon="6.77125">
        <ele>359.6</ele>
        <time>2016-12-30T08:41:59.999Z</time>
      </trkpt>
      <trkpt lat="47.48969" lon="6.77129">
        <ele>359.6</ele>
        <time>2016-12-30T08:42:00.999Z</time>
      </trkpt>
      <trkpt lat="47.48968" lon="6.77134">
        <ele>359.5</ele>
        <time>2016-12-30T08:42:01.999Z</time>
      </trkpt>
      <trkpt lat="47.48968" lon="6.77141">
        <ele>359.5</ele>
        <time>2016-12-30T08:42:02.999Z</time>
      </trkpt>
      <trkpt lat="47.48969" lon="6.77147">
        <ele>359.4</ele>
        <time>2016-12-30T08:42:03.999Z</time>
      </trkpt>
      <trkpt lat="47.48968" lon="6.77153">
        <ele>359</ele>
        <time>2016-12-30T08:42:04.999Z</time>
      </trkpt>
      <trkpt lat="47.48967" lon="6.77158">
        <ele>359</ele>
        <time>2016-12-30T08:42:05.999Z</time>
      </trkpt>
      <trkpt lat="47.48966" lon="6.77162">
        <ele>358.9</ele>
        <time>2016-12-30T08:42:06.999Z</time>
      </trkpt>
      <trkpt lat="47.48965" lon="6.77168">
        <ele>359</ele>
        <time>2016-12-30T08:42:09.999Z</time>
      </trkpt>
      <trkpt lat="47.48965" lon="6.77172">
        <ele>359.1</ele>
        <time>2016-12-30T08:42:10.999Z</time>
      </trkpt>
      <trkpt lat="47.48965" lon="6.77175">
        <ele>359.1</ele>
        <time>2016-12-30T08:42:11.999Z</time>
      </trkpt>
      <trkpt lat="47.48963" lon="6.77181">
        <ele>359.1</ele>
        <time>2016-12-30T08:42:12.999Z</time>
      </trkpt>
      <trkpt lat="47.48962" lon="6.77186">
        <ele>359.1</ele>
        <time>2016-12-30T08:42:13.999Z</time>
      </trkpt>
      <trkpt lat="47.4896" lon="6.77191">
        <ele>359.2</ele>
        <time>2016-12-30T08:42:14.999Z</time>
      </trkpt>
      <trkpt lat="47.48959" lon="6.77196">
        <ele>359.2</ele>
        <time>2016-12-30T08:42:15.999Z</time>
      </trkpt>
      <trkpt lat="47.48958" lon="6.77202">
        <ele>358.6</ele>
        <time>2016-12-30T08:42:16.999Z</time>
      </trkpt>
      <trkpt lat="47.48957" lon="6.77208">
        <ele>358.5</ele>
        <time>2016-12-30T08:42:17.999Z</time>
      </trkpt>
      <trkpt lat="47.48956" lon="6.77215">
        <ele>358.5</ele>
        <time>2016-12-30T08:42:18.999Z</time>
      </trkpt>
      <trkpt lat="47.48955" lon="6.77221">
        <ele>358.5</ele>
        <time>2016-12-30T08:42:19.999Z</time>
      </trkpt>
      <trkpt lat="47.48953" lon="6.77225">
        <ele>358.3</ele>
        <time>2016-12-30T08:42:20.999Z</time>
      </trkpt>
      <trkpt lat="47.48951" lon="6.77229">
        <ele>358.5</ele>
        <time>2016-12-30T08:42:21.999Z</time>
      </trkpt>
      <trkpt lat="47.48949" lon="6.77233">
        <ele>358.8</ele>
        <time>2016-12-30T08:42:22.999Z</time>
      </trkpt>
      <trkpt lat="47.48947" lon="6.77238">
        <ele>359</ele>
        <time>2016-12-30T08:42:23.999Z</time>
      </trkpt>
      <trkpt lat="47.48945" lon="6.77243">
        <ele>359.1</ele>
        <time>2016-12-30T08:42:24.999Z</time>
      </trkpt>
      <trkpt lat="47.48943" lon="6.77249">
        <ele>358.9</ele>
        <time>2016-12-30T08:42:25.999Z</time>
      </trkpt>
      <trkpt lat="47.4894" lon="6.77254">
        <ele>358.6</ele>
        <time>2016-12-30T08:42:26.999Z</time>
      </trkpt>
      <trkpt lat="47.48937" lon="6.77259">
        <ele>358.6</ele>
        <time>2016-12-30T08:42:27.999Z</time>
      </trkpt>
      <trkpt lat="47.48935" lon="6.77265">
        <ele>358.7</ele>
        <time>2016-12-30T08:42:28.999Z</time>
      </trkpt>
      <trkpt lat="47.48932" lon="6.77271">
        <ele>358.7</ele>
        <time>2016-12-30T08:42:29.999Z</time>
      </trkpt>
      <trkpt lat="47.4893" lon="6.77276">
        <ele>358.8</ele>
        <time>2016-12-30T08:42:30.999Z</time>
      </trkpt>
      <trkpt lat="47.48928" lon="6.77284">
        <ele>359.3</ele>
        <time>2016-12-30T08:42:31.999Z</time>
      </trkpt>
      <trkpt lat="47.48928" lon="6.77291">
        <ele>359.4</ele>
        <time>2016-12-30T08:42:32.999Z</time>
      </trkpt>
      <trkpt lat="47.48929" lon="6.77298">
        <ele>359.2</ele>
        <time>2016-12-30T08:42:33.999Z</time>
      </trkpt>
      <trkpt lat="47.48931" lon="6.77305">
        <ele>359.6</ele>
        <time>2016-12-30T08:42:34.999Z</time>
      </trkpt>
      <trkpt lat="47.48932" lon="6.77308">
        <ele>359.6</ele>
        <time>2016-12-30T08:42:35.999Z</time>
      </trkpt>
      <trkpt lat="47.48934" lon="6.77311">
        <ele>359.6</ele>
        <time>2016-12-30T08:42:36.999Z</time>
      </trkpt>
      <trkpt lat="47.48937" lon="6.77313">
        <ele>359.7</ele>
        <time>2016-12-30T08:42:37.999Z</time>
      </trkpt>
      <trkpt lat="47.48941" lon="6.77314">
        <ele>359.7</ele>
        <time>2016-12-30T08:42:38.999Z</time>
      </trkpt>
      <trkpt lat="47.48945" lon="6.77316">
        <ele>359.7</ele>
        <time>2016-12-30T08:42:39.999Z</time>
      </trkpt>
      <trkpt lat="47.48949" lon="6.77317">
        <ele>359.2</ele>
        <time>2016-12-30T08:42:40.999Z</time>
      </trkpt>
      <trkpt lat="47.48952" lon="6.77318">
        <ele>358.4</ele>
        <time>2016-12-30T08:42:41.999Z</time>
      </trkpt>
      <trkpt lat="47.48956" lon="6.77319">
        <ele>358.3</ele>
        <time>2016-12-30T08:42:42.999Z</time>
      </trkpt>
      <trkpt lat="47.48961" lon="6.7732">
        <ele>357.1</ele>
        <time>2016-12-30T08:42:43.999Z</time>
      </trkpt>
      <trkpt lat="47.48965" lon="6.7732">
        <ele>356.6</ele>
        <time>2016-12-30T08:42:44.999Z</time>
      </trkpt>
      <trkpt lat="47.4897" lon="6.7732">
        <ele>356.5</ele>
        <time>2016-12-30T08:42:45.999Z</time>
      </trkpt>
      <trkpt lat="47.48974" lon="6.7732">
        <ele>356.6</ele>
        <time>2016-12-30T08:42:46.999Z</time>
      </trkpt>
      <trkpt lat="47.48978" lon="6.7732">
        <ele>356.8</ele>
        <time>2016-12-30T08:42:47.999Z</time>
      </trkpt>
      <trkpt lat="47.48984" lon="6.7732">
        <ele>357.4</ele>
        <time>2016-12-30T08:42:48.999Z</time>
      </trkpt>
      <trkpt lat="47.48988" lon="6.7732">
        <ele>357.4</ele>
        <time>2016-12-30T08:42:49.999Z</time>
      </trkpt>
      <trkpt lat="47.48992" lon="6.77319">
        <ele>358.1</ele>
        <time>2016-12-30T08:42:50.999Z</time>
      </trkpt>
      <trkpt lat="47.48997" lon="6.7732">
        <ele>358.6</ele>
        <time>2016-12-30T08:42:51.999Z</time>
      </trkpt>
      <trkpt lat="47.49001" lon="6.77321">
        <ele>359.2</ele>
        <time>2016-12-30T08:42:52.999Z</time>
      </trkpt>
      <trkpt lat="47.49006" lon="6.77321">
        <ele>359.4</ele>
        <time>2016-12-30T08:42:53.999Z</time>
      </trkpt>
      <trkpt lat="47.4901" lon="6.77322">
        <ele>359.5</ele>
        <time>2016-12-30T08:42:54.999Z</time>
      </trkpt>
      <trkpt lat="47.49013" lon="6.77324">
        <ele>359.6</ele>
        <time>2016-12-30T08:42:55.999Z</time>
      </trkpt>
      <trkpt lat="47.49016" lon="6.77326">
        <ele>359.6</ele>
        <time>2016-12-30T08:42:56.999Z</time>
      </trkpt>
      <trkpt lat="47.49017" lon="6.77329">
        <ele>359.7</ele>
        <time>2016-12-30T08:42:57.999Z</time>
      </trkpt>
      <trkpt lat="47.49017" lon="6.77334">
        <ele>360.5</ele>
        <time>2016-12-30T08:42:58.999Z</time>
      </trkpt>
      <trkpt lat="47.49019" lon="6.77341">
        <ele>360</ele>
        <time>2016-12-30T08:42:59.999Z</time>
      </trkpt>
      <trkpt lat="47.4902" lon="6.77346">
        <ele>360</ele>
        <time>2016-12-30T08:43:00.999Z</time>
      </trkpt>
      <trkpt lat="47.4902" lon="6.7735">
        <ele>359.9</ele>
        <time>2016-12-30T08:43:01.999Z</time>
      </trkpt>
      <trkpt lat="47.4902" lon="6.77355">
        <ele>359.8</ele>
        <time>2016-12-30T08:43:02.999Z</time>
      </trkpt>
      <trkpt lat="47.49021" lon="6.77362">
        <ele>359.7</ele>
        <time>2016-12-30T08:43:03.999Z</time>
      </trkpt>
      <trkpt lat="47.4902" lon="6.77368">
        <ele>359.6</ele>
        <time>2016-12-30T08:43:04.999Z</time>
      </trkpt>
      <trkpt lat="47.4902" lon="6.77374">
        <ele>359.4</ele>
        <time>2016-12-30T08:43:05.999Z</time>
      </trkpt>
      <trkpt lat="47.4902" lon="6.77378">
        <ele>359.3</ele>
        <time>2016-12-30T08:43:06.999Z</time>
      </trkpt>
      <trkpt lat="47.4902" lon="6.77383">
        <ele>359.2</ele>
        <time>2016-12-30T08:43:07.999Z</time>
      </trkpt>
      <trkpt lat="47.4902" lon="6.77387">
        <ele>359</ele>
        <time>2016-12-30T08:43:08.999Z</time>
      </trkpt>
      <trkpt lat="47.49019" lon="6.7739">
        <ele>359</ele>
        <time>2016-12-30T08:43:09.999Z</time>
      </trkpt>
      <trkpt lat="47.49018" lon="6.77394">
        <ele>358.8</ele>
        <time>2016-12-30T08:43:10.999Z</time>
      </trkpt>
      <trkpt lat="47.49017" lon="6.77398">
        <ele>358.8</ele>
        <time>2016-12-30T08:43:11.999Z</time>
      </trkpt>
      <trkpt lat="47.49015" lon="6.77403">
        <ele>358.6</ele>
        <time>2016-12-30T08:43:12.999Z</time>
      </trkpt>
      <trkpt lat="47.49014" lon="6.77408">
        <ele>358.6</ele>
        <time>2016-12-30T08:43:13.999Z</time>
      </trkpt>
      <trkpt lat="47.49014" lon="6.77414">
        <ele>358.5</ele>
        <time>2016-12-30T08:43:14.999Z</time>
      </trkpt>
      <trkpt lat="47.49014" lon="6.77419">
        <ele>358.4</ele>
        <time>2016-12-30T08:43:15.999Z</time>
      </trkpt>
      <trkpt lat="47.49014" lon="6.77425">
        <ele>358.4</ele>
        <time>2016-12-30T08:43:16.999Z</time>
      </trkpt>
      <trkpt lat="47.49014" lon="6.77431">
        <ele>358.3</ele>
        <time>2016-12-30T08:43:17.999Z</time>
      </trkpt>
      <trkpt lat="47.49014" lon="6.77435">
        <ele>358.2</ele>
        <time>2016-12-30T08:43:18.999Z</time>
      </trkpt>
      <trkpt lat="47.49015" lon="6.7744">
        <ele>358</ele>
        <time>2016-12-30T08:43:19.999Z</time>
      </trkpt>
      <trkpt lat="47.49015" lon="6.77445">
        <ele>357.8</ele>
        <time>2016-12-30T08:43:20.999Z</time>
      </trkpt>
      <trkpt lat="47.49014" lon="6.77449">
        <ele>357.7</ele>
        <time>2016-12-30T08:43:21.999Z</time>
      </trkpt>
      <trkpt lat="47.49014" lon="6.77454">
        <ele>357.5</ele>
        <time>2016-12-30T08:43:22.999Z</time>
      </trkpt>
      <trkpt lat="47.49014" lon="6.77459">
        <ele>357.4</ele>
        <time>2016-12-30T08:43:23.999Z</time>
      </trkpt>
      <trkpt lat="47.49013" lon="6.77464">
        <ele>357.3</ele>
        <time>2016-12-30T08:43:24.999Z</time>
      </trkpt>
      <trkpt lat="47.49012" lon="6.77471">
        <ele>356.8</ele>
        <time>2016-12-30T08:43:25.999Z</time>
      </trkpt>
      <trkpt lat="47.49011" lon="6.77475">
        <ele>356.8</ele>
        <time>2016-12-30T08:43:26.999Z</time>
      </trkpt>
      <trkpt lat="47.49011" lon="6.7748">
        <ele>356.7</ele>
        <time>2016-12-30T08:43:27.999Z</time>
      </trkpt>
      <trkpt lat="47.4901" lon="6.77485">
        <ele>356.8</ele>
        <time>2016-12-30T08:43:28.999Z</time>
      </trkpt>
      <trkpt lat="47.49009" lon="6.77492">
        <ele>356.8</ele>
        <time>2016-12-30T08:43:29.999Z</time>
      </trkpt>
      <trkpt lat="47.49008" lon="6.77499">
        <ele>356.8</ele>
        <time>2016-12-30T08:43:30.999Z</time>
      </trkpt>
      <trkpt lat="47.49008" lon="6.77506">
        <ele>356.9</ele>
        <time>2016-12-30T08:43:31.999Z</time>
      </trkpt>
      <trkpt lat="47.49007" lon="6.77511">
        <ele>356.9</ele>
        <time>2016-12-30T08:43:32.999Z</time>
      </trkpt>
      <trkpt lat="47.49007" lon="6.77515">
        <ele>357</ele>
        <time>2016-12-30T08:43:33.999Z</time>
      </trkpt>
      <trkpt lat="47.49006" lon="6.7752">
        <ele>356.9</ele>
        <time>2016-12-30T08:43:34.999Z</time>
      </trkpt>
      <trkpt lat="47.49006" lon="6.77525">
        <ele>356.9</ele>
        <time>2016-12-30T08:43:35.999Z</time>
      </trkpt>
      <trkpt lat="47.49005" lon="6.7753">
        <ele>356.9</ele>
        <time>2016-12-30T08:43:36.999Z</time>
      </trkpt>
      <trkpt lat="47.49004" lon="6.77534">
        <ele>356.8</ele>
        <time>2016-12-30T08:43:37.999Z</time>
      </trkpt>
      <trkpt lat="47.49003" lon="6.77539">
        <ele>356.9</ele>
        <time>2016-12-30T08:43:38.999Z</time>
      </trkpt>
      <trkpt lat="47.49002" lon="6.77544">
        <ele>357</ele>
        <time>2016-12-30T08:43:39.999Z</time>
      </trkpt>
      <trkpt lat="47.49" lon="6.77547">
        <ele>357</ele>
        <time>2016-12-30T08:43:40.999Z</time>
      </trkpt>
      <trkpt lat="47.48997" lon="6.7755">
        <ele>357.2</ele>
        <time>2016-12-30T08:43:41.999Z</time>
      </trkpt>
      <trkpt lat="47.48994" lon="6.77553">
        <ele>357.3</ele>
        <time>2016-12-30T08:43:42.999Z</time>
      </trkpt>
      <trkpt lat="47.48992" lon="6.77553">
        <ele>357.4</ele>
        <time>2016-12-30T08:43:43.999Z</time>
      </trkpt>
      <trkpt lat="47.4899" lon="6.77554">
        <ele>357.6</ele>
        <time>2016-12-30T08:43:45.999Z</time>
      </trkpt>
      <trkpt lat="47.48987" lon="6.77556">
        <ele>357.6</ele>
        <time>2016-12-30T08:43:46.999Z</time>
      </trkpt>
      <trkpt lat="47.48985" lon="6.77558">
        <ele>357.6</ele>
        <time>2016-12-30T08:43:47.999Z</time>
      </trkpt>
      <trkpt lat="47.48982" lon="6.7756">
        <ele>357.6</ele>
        <time>2016-12-30T08:43:48.999Z</time>
      </trkpt>
      <trkpt lat="47.4898" lon="6.77562">
        <ele>357.5</ele>
        <time>2016-12-30T08:43:49.999Z</time>
      </trkpt>
      <trkpt lat="47.48976" lon="6.77565">
        <ele>357.4</ele>
        <time>2016-12-30T08:43:50.999Z</time>
      </trkpt>
      <trkpt lat="47.48974" lon="6.77567">
        <ele>357.3</ele>
        <time>2016-12-30T08:43:51.999Z</time>
      </trkpt>
      <trkpt lat="47.48971" lon="6.7757">
        <ele>357.3</ele>
        <time>2016-12-30T08:43:52.999Z</time>
      </trkpt>
      <trkpt lat="47.48968" lon="6.77573">
        <ele>357.3</ele>
        <time>2016-12-30T08:43:53.999Z</time>
      </trkpt>
      <trkpt lat="47.48964" lon="6.77576">
        <ele>357.3</ele>
        <time>2016-12-30T08:43:54.999Z</time>
      </trkpt>
      <trkpt lat="47.4896" lon="6.77581">
        <ele>357.3</ele>
        <time>2016-12-30T08:43:55.999Z</time>
      </trkpt>
      <trkpt lat="47.48956" lon="6.77584">
        <ele>357.2</ele>
        <time>2016-12-30T08:43:56.999Z</time>
      </trkpt>
      <trkpt lat="47.48954" lon="6.77588">
        <ele>355.9</ele>
        <time>2016-12-30T08:43:57.999Z</time>
      </trkpt>
      <trkpt lat="47.4895" lon="6.77591">
        <ele>355.5</ele>
        <time>2016-12-30T08:43:58.999Z</time>
      </trkpt>
      <trkpt lat="47.48946" lon="6.77594">
        <ele>355.7</ele>
        <time>2016-12-30T08:43:59.999Z</time>
      </trkpt>
      <trkpt lat="47.48941" lon="6.77597">
        <ele>355.5</ele>
        <time>2016-12-30T08:44:00.999Z</time>
      </trkpt>
      <trkpt lat="47.48937" lon="6.776">
        <ele>355.6</ele>
        <time>2016-12-30T08:44:01.999Z</time>
      </trkpt>
      <trkpt lat="47.48934" lon="6.77599">
        <ele>355.6</ele>
        <time>2016-12-30T08:44:02.999Z</time>
      </trkpt>
      <trkpt lat="47.48931" lon="6.77598">
        <ele>355.5</ele>
        <time>2016-12-30T08:44:03.999Z</time>
      </trkpt>
      <trkpt lat="47.48928" lon="6.77599">
        <ele>355.4</ele>
        <time>2016-12-30T08:44:04.999Z</time>
      </trkpt>
      <trkpt lat="47.48926" lon="6.776">
        <ele>355.4</ele>
        <time>2016-12-30T08:44:05.999Z</time>
      </trkpt>
      <trkpt lat="47.48922" lon="6.77598">
        <ele>356.3</ele>
        <time>2016-12-30T08:44:10.999Z</time>
      </trkpt>
      <trkpt lat="47.48921" lon="6.77598">
        <ele>356.6</ele>
        <time>2016-12-30T08:44:11.999Z</time>
      </trkpt>
      <trkpt lat="47.48918" lon="6.77603">
        <ele>359.8</ele>
        <time>2016-12-30T08:44:24.999Z</time>
      </trkpt>
      <trkpt lat="47.48917" lon="6.77604">
        <ele>359.9</ele>
        <time>2016-12-30T08:44:25.999Z</time>
      </trkpt>
      <trkpt lat="47.48916" lon="6.77608">
        <ele>360.2</ele>
        <time>2016-12-30T08:44:27.999Z</time>
      </trkpt>
      <trkpt lat="47.48915" lon="6.77612">
        <ele>360.3</ele>
        <time>2016-12-30T08:44:28.999Z</time>
      </trkpt>
      <trkpt lat="47.48912" lon="6.77616">
        <ele>360.6</ele>
        <time>2016-12-30T08:44:32.999Z</time>
      </trkpt>
      <trkpt lat="47.48911" lon="6.77617">
        <ele>360.8</ele>
        <time>2016-12-30T08:44:33.999Z</time>
      </trkpt>
      <trkpt lat="47.4891" lon="6.77619">
        <ele>361.2</ele>
        <time>2016-12-30T08:44:35.999Z</time>
      </trkpt>
      <trkpt lat="47.48908" lon="6.77624">
        <ele>361.4</ele>
        <time>2016-12-30T08:44:36.999Z</time>
      </trkpt>
      <trkpt lat="47.48907" lon="6.77628">
        <ele>361.7</ele>
        <time>2016-12-30T08:44:37.999Z</time>
      </trkpt>
      <trkpt lat="47.48906" lon="6.77631">
        <ele>362</ele>
        <time>2016-12-30T08:44:38.999Z</time>
      </trkpt>
      <trkpt lat="47.48905" lon="6.77634">
        <ele>362.1</ele>
        <time>2016-12-30T08:44:39.999Z</time>
      </trkpt>
      <trkpt lat="47.48904" lon="6.77638">
        <ele>362.2</ele>
        <time>2016-12-30T08:44:40.999Z</time>
      </trkpt>
      <trkpt lat="47.48902" lon="6.77643">
        <ele>362.9</ele>
        <time>2016-12-30T08:44:44.999Z</time>
      </trkpt>
      <trkpt lat="47.48901" lon="6.77644">
        <ele>363.1</ele>
        <time>2016-12-30T08:44:45.999Z</time>
      </trkpt>
      <trkpt lat="47.48899" lon="6.7765">
        <ele>365</ele>
        <time>2016-12-30T08:44:58.999Z</time>
      </trkpt>
      <trkpt lat="47.48899" lon="6.7765">
        <ele>365.1</ele>
        <time>2016-12-30T08:44:59.999Z</time>
      </trkpt>
      <trkpt lat="47.48896" lon="6.77654">
        <ele>365.6</ele>
        <time>2016-12-30T08:45:03.999Z</time>
      </trkpt>
      <trkpt lat="47.48895" lon="6.77655">
        <ele>365.6</ele>
        <time>2016-12-30T08:45:04.999Z</time>
      </trkpt>
      <trkpt lat="47.48897" lon="6.77659">
        <ele>365.3</ele>
        <time>2016-12-30T08:45:10.999Z</time>
      </trkpt>
      <trkpt lat="47.48899" lon="6.77659">
        <ele>365.2</ele>
        <time>2016-12-30T08:45:11.999Z</time>
      </trkpt>
      <trkpt lat="47.48902" lon="6.7766">
        <ele>365.1</ele>
        <time>2016-12-30T08:45:12.999Z</time>
      </trkpt>
      <trkpt lat="47.48905" lon="6.77662">
        <ele>365</ele>
        <time>2016-12-30T08:45:13.999Z</time>
      </trkpt>
      <trkpt lat="47.48907" lon="6.77663">
        <ele>364.9</ele>
        <time>2016-12-30T08:45:14.999Z</time>
      </trkpt>
      <trkpt lat="47.4891" lon="6.77664">
        <ele>364.7</ele>
        <time>2016-12-30T08:45:15.999Z</time>
      </trkpt>
      <trkpt lat="47.48914" lon="6.77663">
        <ele>364.6</ele>
        <time>2016-12-30T08:45:16.999Z</time>
      </trkpt>
      <trkpt lat="47.48915" lon="6.77658">
        <ele>364.5</ele>
        <time>2016-12-30T08:45:17.999Z</time>
      </trkpt>
      <trkpt lat="47.48914" lon="6.77654">
        <ele>364.5</ele>
        <time>2016-12-30T08:45:18.999Z</time>
      </trkpt>
      <trkpt lat="47.48914" lon="6.77651">
        <ele>364.4</ele>
        <time>2016-12-30T08:45:19.999Z</time>
      </trkpt>
      <trkpt lat="47.48912" lon="6.77649">
        <ele>364.4</ele>
        <time>2016-12-30T08:45:21.999Z</time>
      </trkpt>
      <trkpt lat="47.4891" lon="6.77648">
        <ele>364.3</ele>
        <time>2016-12-30T08:45:22.999Z</time>
      </trkpt>
      <trkpt lat="47.48908" lon="6.77645">
        <ele>364.1</ele>
        <time>2016-12-30T08:45:25.999Z</time>
      </trkpt>
      <trkpt lat="47.48905" lon="6.77644">
        <ele>363.9</ele>
        <time>2016-12-30T08:45:26.999Z</time>
      </trkpt>
      <trkpt lat="47.48903" lon="6.77643">
        <ele>363.7</ele>
        <time>2016-12-30T08:45:27.999Z</time>
      </trkpt>
      <trkpt lat="47.48901" lon="6.77641">
        <ele>363.5</ele>
        <time>2016-12-30T08:45:28.999Z</time>
      </trkpt>
      <trkpt lat="47.48898" lon="6.77638">
        <ele>363.3</ele>
        <time>2016-12-30T08:45:29.999Z</time>
      </trkpt>
      <trkpt lat="47.48896" lon="6.77635">
        <ele>363.2</ele>
        <time>2016-12-30T08:45:30.999Z</time>
      </trkpt>
      <trkpt lat="47.48893" lon="6.77632">
        <ele>363</ele>
        <time>2016-12-30T08:45:31.999Z</time>
      </trkpt>
      <trkpt lat="47.48892" lon="6.7763">
        <ele>362.8</ele>
        <time>2016-12-30T08:45:32.999Z</time>
      </trkpt>
      <trkpt lat="47.48889" lon="6.77627">
        <ele>362.7</ele>
        <time>2016-12-30T08:45:33.999Z</time>
      </trkpt>
      <trkpt lat="47.48886" lon="6.77624">
        <ele>362.6</ele>
        <time>2016-12-30T08:45:34.999Z</time>
      </trkpt>
      <trkpt lat="47.48883" lon="6.77621">
        <ele>362.5</ele>
        <time>2016-12-30T08:45:35.999Z</time>
      </trkpt>
      <trkpt lat="47.4888" lon="6.77618">
        <ele>362.5</ele>
        <time>2016-12-30T08:45:36.999Z</time>
      </trkpt>
      <trkpt lat="47.48877" lon="6.77615">
        <ele>362.3</ele>
        <time>2016-12-30T08:45:37.999Z</time>
      </trkpt>
      <trkpt lat="47.48874" lon="6.77612">
        <ele>362.2</ele>
        <time>2016-12-30T08:45:38.999Z</time>
      </trkpt>
      <trkpt lat="47.48872" lon="6.7761">
        <ele>362.1</ele>
        <time>2016-12-30T08:45:39.999Z</time>
      </trkpt>
      <trkpt lat="47.48868" lon="6.77607">
        <ele>361.9</ele>
        <time>2016-12-30T08:45:40.999Z</time>
      </trkpt>
      <trkpt lat="47.48866" lon="6.77604">
        <ele>361.8</ele>
        <time>2016-12-30T08:45:41.999Z</time>
      </trkpt>
      <trkpt lat="47.48864" lon="6.77602">
        <ele>361.7</ele>
        <time>2016-12-30T08:45:42.999Z</time>
      </trkpt>
      <trkpt lat="47.48862" lon="6.77599">
        <ele>361.6</ele>
        <time>2016-12-30T08:45:43.999Z</time>
      </trkpt>
      <trkpt lat="47.4886" lon="6.77598">
        <ele>361.5</ele>
        <time>2016-12-30T08:45:44.999Z</time>
      </trkpt>
      <trkpt lat="47.48858" lon="6.77596">
        <ele>361.5</ele>
        <time>2016-12-30T08:45:45.999Z</time>
      </trkpt>
      <trkpt lat="47.48855" lon="6.77594">
        <ele>361.4</ele>
        <time>2016-12-30T08:45:46.999Z</time>
      </trkpt>
      <trkpt lat="47.48853" lon="6.77592">
        <ele>361.2</ele>
        <time>2016-12-30T08:45:47.999Z</time>
      </trkpt>
      <trkpt lat="47.48851" lon="6.77591">
        <ele>361</ele>
        <time>2016-12-30T08:45:48.999Z</time>
      </trkpt>
      <trkpt lat="47.48848" lon="6.77588">
        <ele>360.7</ele>
        <time>2016-12-30T08:45:50.999Z</time>
      </trkpt>
      <trkpt lat="47.48845" lon="6.77586">
        <ele>360.5</ele>
        <time>2016-12-30T08:45:51.999Z</time>
      </trkpt>
      <trkpt lat="47.48841" lon="6.77584">
        <ele>360.3</ele>
        <time>2016-12-30T08:45:52.999Z</time>
      </trkpt>
      <trkpt lat="47.48839" lon="6.77584">
        <ele>360.1</ele>
        <time>2016-12-30T08:45:53.999Z</time>
      </trkpt>
      <trkpt lat="47.48835" lon="6.77581">
        <ele>359.9</ele>
        <time>2016-12-30T08:45:55.999Z</time>
      </trkpt>
      <trkpt lat="47.48834" lon="6.77579">
        <ele>359.8</ele>
        <time>2016-12-30T08:45:56.999Z</time>
      </trkpt>
      <trkpt lat="47.48832" lon="6.77578">
        <ele>359.5</ele>
        <time>2016-12-30T08:45:58.999Z</time>
      </trkpt>
      <trkpt lat="47.48829" lon="6.77576">
        <ele>359.3</ele>
        <time>2016-12-30T08:45:59.999Z</time>
      </trkpt>
      <trkpt lat="47.48825" lon="6.77574">
        <ele>359.1</ele>
        <time>2016-12-30T08:46:01.999Z</time>
      </trkpt>
      <trkpt lat="47.48823" lon="6.77573">
        <ele>358.9</ele>
        <time>2016-12-30T08:46:02.999Z</time>
      </trkpt>
      <trkpt lat="47.48819" lon="6.77573">
        <ele>358.8</ele>
        <time>2016-12-30T08:46:05.999Z</time>
      </trkpt>
      <trkpt lat="47.48816" lon="6.77572">
        <ele>358.7</ele>
        <time>2016-12-30T08:46:06.999Z</time>
      </trkpt>
      <trkpt lat="47.48814" lon="6.77568">
        <ele>358</ele>
        <time>2016-12-30T08:46:09.999Z</time>
      </trkpt>
      <trkpt lat="47.48813" lon="6.77565">
        <ele>357.9</ele>
        <time>2016-12-30T08:46:10.999Z</time>
      </trkpt>
      <trkpt lat="47.48809" lon="6.77563">
        <ele>357.6</ele>
        <time>2016-12-30T08:46:13.999Z</time>
      </trkpt>
      <trkpt lat="47.48808" lon="6.77563">
        <ele>357.6</ele>
        <time>2016-12-30T08:46:14.999Z</time>
      </trkpt>
      <trkpt lat="47.48805" lon="6.77562">
        <ele>357.5</ele>
        <time>2016-12-30T08:46:16.999Z</time>
      </trkpt>
      <trkpt lat="47.48802" lon="6.77561">
        <ele>357.5</ele>
        <time>2016-12-30T08:46:17.999Z</time>
      </trkpt>
      <trkpt lat="47.48799" lon="6.77557">
        <ele>357.6</ele>
        <time>2016-12-30T08:46:19.999Z</time>
      </trkpt>
      <trkpt lat="47.48798" lon="6.77557">
        <ele>357.6</ele>
        <time>2016-12-30T08:46:20.999Z</time>
      </trkpt>
      <trkpt lat="47.48797" lon="6.77556">
        <ele>357.5</ele>
        <time>2016-12-30T08:46:21.999Z</time>
      </trkpt>
      <trkpt lat="47.48793" lon="6.77555">
        <ele>357.5</ele>
        <time>2016-12-30T08:46:22.999Z</time>
      </trkpt>
      <trkpt lat="47.48791" lon="6.77553">
        <ele>357.2</ele>
        <time>2016-12-30T08:46:25.999Z</time>
      </trkpt>
      <trkpt lat="47.4879" lon="6.7755">
        <ele>357.1</ele>
        <time>2016-12-30T08:46:26.999Z</time>
      </trkpt>
      <trkpt lat="47.48787" lon="6.77546">
        <ele>357</ele>
        <time>2016-12-30T08:46:28.999Z</time>
      </trkpt>
      <trkpt lat="47.48785" lon="6.77545">
        <ele>357</ele>
        <time>2016-12-30T08:46:29.999Z</time>
      </trkpt>
      <trkpt lat="47.48783" lon="6.77544">
        <ele>356.9</ele>
        <time>2016-12-30T08:46:31.999Z</time>
      </trkpt>
      <trkpt lat="47.4878" lon="6.77544">
        <ele>356.8</ele>
        <time>2016-12-30T08:46:32.999Z</time>
      </trkpt>
      <trkpt lat="47.48778" lon="6.77544">
        <ele>356.7</ele>
        <time>2016-12-30T08:46:34.999Z</time>
      </trkpt>
      <trkpt lat="47.48776" lon="6.77541">
        <ele>356.6</ele>
        <time>2016-12-30T08:46:35.999Z</time>
      </trkpt>
      <trkpt lat="47.48772" lon="6.7754">
        <ele>356.4</ele>
        <time>2016-12-30T08:46:38.999Z</time>
      </trkpt>
      <trkpt lat="47.48771" lon="6.7754">
        <ele>356.4</ele>
        <time>2016-12-30T08:46:39.999Z</time>
      </trkpt>
      <trkpt lat="47.48767" lon="6.7754">
        <ele>356.2</ele>
        <time>2016-12-30T08:46:42.999Z</time>
      </trkpt>
      <trkpt lat="47.48765" lon="6.7754">
        <ele>356.2</ele>
        <time>2016-12-30T08:46:43.999Z</time>
      </trkpt>
      <trkpt lat="47.48762" lon="6.77538">
        <ele>356.3</ele>
        <time>2016-12-30T08:46:45.999Z</time>
      </trkpt>
      <trkpt lat="47.4876" lon="6.77537">
        <ele>356.3</ele>
        <time>2016-12-30T08:46:46.999Z</time>
      </trkpt>
      <trkpt lat="47.48756" lon="6.77534">
        <ele>356.6</ele>
        <time>2016-12-30T08:46:49.999Z</time>
      </trkpt>
      <trkpt lat="47.48756" lon="6.77534">
        <ele>356.7</ele>
        <time>2016-12-30T08:46:50.999Z</time>
      </trkpt>
      <trkpt lat="47.48752" lon="6.77532">
        <ele>361.8</ele>
        <time>2016-12-30T08:47:11.000Z</time>
      </trkpt>
      <trkpt lat="47.48748" lon="6.7753">
        <ele>361.9</ele>
        <time>2016-12-30T08:47:12.000Z</time>
      </trkpt>
      <trkpt lat="47.48745" lon="6.7753">
        <ele>361.9</ele>
        <time>2016-12-30T08:47:15.000Z</time>
      </trkpt>
      <trkpt lat="47.48743" lon="6.7753">
        <ele>362</ele>
        <time>2016-12-30T08:47:16.000Z</time>
      </trkpt>
      <trkpt lat="47.4874" lon="6.7753">
        <ele>362.4</ele>
        <time>2016-12-30T08:47:19.000Z</time>
      </trkpt>
      <trkpt lat="47.48738" lon="6.77529">
        <ele>362.5</ele>
        <time>2016-12-30T08:47:20.000Z</time>
      </trkpt>
      <trkpt lat="47.48735" lon="6.77525">
        <ele>362.6</ele>
        <time>2016-12-30T08:47:22.000Z</time>
      </trkpt>
      <trkpt lat="47.48733" lon="6.77522">
        <ele>362.7</ele>
        <time>2016-12-30T08:47:23.000Z</time>
      </trkpt>
      <trkpt lat="47.48732" lon="6.77519">
        <ele>362.8</ele>
        <time>2016-12-30T08:47:24.000Z</time>
      </trkpt>
      <trkpt lat="47.4873" lon="6.77516">
        <ele>363</ele>
        <time>2016-12-30T08:47:25.000Z</time>
      </trkpt>
      <trkpt lat="47.48729" lon="6.77514">
        <ele>363.1</ele>
        <time>2016-12-30T08:47:26.000Z</time>
      </trkpt>
      <trkpt lat="47.48727" lon="6.77512">
        <ele>363.3</ele>
        <time>2016-12-30T08:47:27.000Z</time>
      </trkpt>
      <trkpt lat="47.48724" lon="6.77509">
        <ele>363.7</ele>
        <time>2016-12-30T08:47:29.000Z</time>
      </trkpt>
      <trkpt lat="47.48723" lon="6.77507">
        <ele>364</ele>
        <time>2016-12-30T08:47:30.000Z</time>
      </trkpt>
      <trkpt lat="47.4872" lon="6.77507">
        <ele>364.7</ele>
        <time>2016-12-30T08:47:33.000Z</time>
      </trkpt>
      <trkpt lat="47.48718" lon="6.77505">
        <ele>364.9</ele>
        <time>2016-12-30T08:47:34.000Z</time>
      </trkpt>
      <trkpt lat="47.48715" lon="6.77502">
        <ele>365</ele>
        <time>2016-12-30T08:47:36.000Z</time>
      </trkpt>
      <trkpt lat="47.48711" lon="6.77499">
        <ele>365.2</ele>
        <time>2016-12-30T08:47:37.000Z</time>
      </trkpt>
      <trkpt lat="47.48709" lon="6.77497">
        <ele>365.5</ele>
        <time>2016-12-30T08:47:38.000Z</time>
      </trkpt>
      <trkpt lat="47.48707" lon="6.77495">
        <ele>365.6</ele>
        <time>2016-12-30T08:47:39.000Z</time>
      </trkpt>
      <trkpt lat="47.48704" lon="6.77492">
        <ele>366</ele>
        <time>2016-12-30T08:47:42.000Z</time>
      </trkpt>
      <trkpt lat="47.48703" lon="6.77492">
        <ele>366.2</ele>
        <time>2016-12-30T08:47:43.000Z</time>
      </trkpt>
      <trkpt lat="47.48699" lon="6.77495">
        <ele>367.1</ele>
        <time>2016-12-30T08:47:47.000Z</time>
      </trkpt>
      <trkpt lat="47.48698" lon="6.77496">
        <ele>367.3</ele>
        <time>2016-12-30T08:47:48.000Z</time>
      </trkpt>
      <trkpt lat="47.48693" lon="6.77498">
        <ele>368.1</ele>
        <time>2016-12-30T08:47:51.000Z</time>
      </trkpt>
      <trkpt lat="47.48692" lon="6.77498">
        <ele>368.3</ele>
        <time>2016-12-30T08:47:52.000Z</time>
      </trkpt>
      <trkpt lat="47.48688" lon="6.77495">
        <ele>369</ele>
        <time>2016-12-30T08:47:55.000Z</time>
      </trkpt>
      <trkpt lat="47.48687" lon="6.77494">
        <ele>369.1</ele>
        <time>2016-12-30T08:47:56.000Z</time>
      </trkpt>
      <trkpt lat="47.48683" lon="6.77495">
        <ele>369.8</ele>
        <time>2016-12-30T08:48:00.000Z</time>
      </trkpt>
      <trkpt lat="47.48682" lon="6.77495">
        <ele>370</ele>
        <time>2016-12-30T08:48:01.000Z</time>
      </trkpt>
      <trkpt lat="47.48679" lon="6.77499">
        <ele>371.4</ele>
        <time>2016-12-30T08:48:08.000Z</time>
      </trkpt>
      <trkpt lat="47.48678" lon="6.77499">
        <ele>371.5</ele>
        <time>2016-12-30T08:48:09.000Z</time>
      </trkpt>
      <trkpt lat="47.48674" lon="6.77502">
        <ele>372.6</ele>
        <time>2016-12-30T08:48:14.000Z</time>
      </trkpt>
      <trkpt lat="47.48674" lon="6.77503">
        <ele>372.8</ele>
        <time>2016-12-30T08:48:15.000Z</time>
      </trkpt>
      <trkpt lat="47.48671" lon="6.77507">
        <ele>375.9</ele>
        <time>2016-12-30T08:48:31.000Z</time>
      </trkpt>
      <trkpt lat="47.4867" lon="6.77508">
        <ele>376</ele>
        <time>2016-12-30T08:48:32.000Z</time>
      </trkpt>
      <trkpt lat="47.48669" lon="6.7751">
        <ele>376.1</ele>
        <time>2016-12-30T08:48:34.000Z</time>
      </trkpt>
      <trkpt lat="47.48668" lon="6.77513">
        <ele>376.2</ele>
        <time>2016-12-30T08:48:35.000Z</time>
      </trkpt>
      <trkpt lat="47.48665" lon="6.77518">
        <ele>376.3</ele>
        <time>2016-12-30T08:48:37.000Z</time>
      </trkpt>
      <trkpt lat="47.48664" lon="6.77519">
        <ele>376.5</ele>
        <time>2016-12-30T08:48:38.000Z</time>
      </trkpt>
      <trkpt lat="47.48661" lon="6.7752">
        <ele>376.6</ele>
        <time>2016-12-30T08:48:39.000Z</time>
      </trkpt>
      <trkpt lat="47.48659" lon="6.77521">
        <ele>376.8</ele>
        <time>2016-12-30T08:48:40.000Z</time>
      </trkpt>
      <trkpt lat="47.48656" lon="6.77524">
        <ele>377.3</ele>
        <time>2016-12-30T08:48:43.000Z</time>
      </trkpt>
      <trkpt lat="47.48655" lon="6.77524">
        <ele>377.6</ele>
        <time>2016-12-30T08:48:44.000Z</time>
      </trkpt>
      <trkpt lat="47.48651" lon="6.77527">
        <ele>378.2</ele>
        <time>2016-12-30T08:48:47.000Z</time>
      </trkpt>
      <trkpt lat="47.4865" lon="6.77528">
        <ele>378.3</ele>
        <time>2016-12-30T08:48:48.000Z</time>
      </trkpt>
      <trkpt lat="47.48646" lon="6.7753">
        <ele>378.5</ele>
        <time>2016-12-30T08:48:49.000Z</time>
      </trkpt>
      <trkpt lat="47.48643" lon="6.77531">
        <ele>378.7</ele>
        <time>2016-12-30T08:48:50.000Z</time>
      </trkpt>
      <trkpt lat="47.4864" lon="6.77528">
        <ele>379.4</ele>
        <time>2016-12-30T08:48:54.000Z</time>
      </trkpt>
      <trkpt lat="47.48639" lon="6.77527">
        <ele>379.6</ele>
        <time>2016-12-30T08:48:55.000Z</time>
      </trkpt>
      <trkpt lat="47.48636" lon="6.77522">
        <ele>379.7</ele>
        <time>2016-12-30T08:48:57.000Z</time>
      </trkpt>
      <trkpt lat="47.48634" lon="6.7752">
        <ele>379.6</ele>
        <time>2016-12-30T08:48:58.000Z</time>
      </trkpt>
      <trkpt lat="47.4863" lon="6.77516">
        <ele>379.6</ele>
        <time>2016-12-30T08:49:00.000Z</time>
      </trkpt>
      <trkpt lat="47.48628" lon="6.77514">
        <ele>379.5</ele>
        <time>2016-12-30T08:49:01.000Z</time>
      </trkpt>
      <trkpt lat="47.48625" lon="6.77513">
        <ele>379.6</ele>
        <time>2016-12-30T08:49:03.000Z</time>
      </trkpt>
      <trkpt lat="47.48621" lon="6.77511">
        <ele>379.6</ele>
        <time>2016-12-30T08:49:04.000Z</time>
      </trkpt>
      <trkpt lat="47.48618" lon="6.77507">
        <ele>379.5</ele>
        <time>2016-12-30T08:49:06.000Z</time>
      </trkpt>
      <trkpt lat="47.48615" lon="6.77505">
        <ele>379.5</ele>
        <time>2016-12-30T08:49:07.000Z</time>
      </trkpt>
      <trkpt lat="47.48613" lon="6.77504">
        <ele>379.5</ele>
        <time>2016-12-30T08:49:08.000Z</time>
      </trkpt>
      <trkpt lat="47.48611" lon="6.77501">
        <ele>379.4</ele>
        <time>2016-12-30T08:49:09.000Z</time>
      </trkpt>
      <trkpt lat="47.48607" lon="6.77497">
        <ele>379.3</ele>
        <time>2016-12-30T08:49:10.000Z</time>
      </trkpt>
      <trkpt lat="47.48604" lon="6.77495">
        <ele>379.3</ele>
        <time>2016-12-30T08:49:11.000Z</time>
      </trkpt>
      <trkpt lat="47.48603" lon="6.77494">
        <ele>379.2</ele>
        <time>2016-12-30T08:49:12.000Z</time>
      </trkpt>
      <trkpt lat="47.48599" lon="6.77491">
        <ele>379.1</ele>
        <time>2016-12-30T08:49:13.000Z</time>
      </trkpt>
      <trkpt lat="47.48597" lon="6.77488">
        <ele>379.1</ele>
        <time>2016-12-30T08:49:14.000Z</time>
      </trkpt>
      <trkpt lat="47.48594" lon="6.77483">
        <ele>379.1</ele>
        <time>2016-12-30T08:49:15.000Z</time>
      </trkpt>
      <trkpt lat="47.48592" lon="6.77479">
        <ele>379</ele>
        <time>2016-12-30T08:49:17.000Z</time>
      </trkpt>
      <trkpt lat="47.4859" lon="6.7748">
        <ele>379</ele>
        <time>2016-12-30T08:49:18.000Z</time>
      </trkpt>
      <trkpt lat="47.48587" lon="6.7748">
        <ele>378.9</ele>
        <time>2016-12-30T08:49:19.000Z</time>
      </trkpt>
      <trkpt lat="47.48585" lon="6.77479">
        <ele>378.8</ele>
        <time>2016-12-30T08:49:20.000Z</time>
      </trkpt>
      <trkpt lat="47.48583" lon="6.77475">
        <ele>378.7</ele>
        <time>2016-12-30T08:49:21.000Z</time>
      </trkpt>
      <trkpt lat="47.48582" lon="6.77472">
        <ele>378.6</ele>
        <time>2016-12-30T08:49:22.000Z</time>
      </trkpt>
      <trkpt lat="47.4858" lon="6.77467">
        <ele>378.5</ele>
        <time>2016-12-30T08:49:23.000Z</time>
      </trkpt>
      <trkpt lat="47.48577" lon="6.77464">
        <ele>378.4</ele>
        <time>2016-12-30T08:49:24.000Z</time>
      </trkpt>
      <trkpt lat="47.48574" lon="6.7746">
        <ele>378.2</ele>
        <time>2016-12-30T08:49:25.000Z</time>
      </trkpt>
      <trkpt lat="47.4857" lon="6.77458">
        <ele>378.1</ele>
        <time>2016-12-30T08:49:26.000Z</time>
      </trkpt>
      <trkpt lat="47.48566" lon="6.77456">
        <ele>378</ele>
        <time>2016-12-30T08:49:27.000Z</time>
      </trkpt>
      <trkpt lat="47.48562" lon="6.77454">
        <ele>378</ele>
        <time>2016-12-30T08:49:28.000Z</time>
      </trkpt>
      <trkpt lat="47.4856" lon="6.77451">
        <ele>377.9</ele>
        <time>2016-12-30T08:49:29.000Z</time>
      </trkpt>
      <trkpt lat="47.48557" lon="6.77448">
        <ele>377.9</ele>
        <time>2016-12-30T08:49:30.000Z</time>
      </trkpt>
      <trkpt lat="47.48554" lon="6.77446">
        <ele>377.8</ele>
        <time>2016-12-30T08:49:31.000Z</time>
      </trkpt>
      <trkpt lat="47.48552" lon="6.77443">
        <ele>377.8</ele>
        <time>2016-12-30T08:49:32.000Z</time>
      </trkpt>
      <trkpt lat="47.48549" lon="6.7744">
        <ele>377.7</ele>
        <time>2016-12-30T08:49:33.000Z</time>
      </trkpt>
      <trkpt lat="47.48546" lon="6.77437">
        <ele>377.7</ele>
        <time>2016-12-30T08:49:34.000Z</time>
      </trkpt>
      <trkpt lat="47.48544" lon="6.77434">
        <ele>377.6</ele>
        <time>2016-12-30T08:49:35.000Z</time>
      </trkpt>
      <trkpt lat="47.48542" lon="6.77431">
        <ele>377.6</ele>
        <time>2016-12-30T08:49:36.000Z</time>
      </trkpt>
      <trkpt lat="47.48539" lon="6.77428">
        <ele>377.7</ele>
        <time>2016-12-30T08:49:37.000Z</time>
      </trkpt>
      <trkpt lat="47.48535" lon="6.77426">
        <ele>377.7</ele>
        <time>2016-12-30T08:49:38.000Z</time>
      </trkpt>
      <trkpt lat="47.48532" lon="6.77424">
        <ele>377.6</ele>
        <time>2016-12-30T08:49:39.000Z</time>
      </trkpt>
      <trkpt lat="47.48529" lon="6.77421">
        <ele>377.5</ele>
        <time>2016-12-30T08:49:40.000Z</time>
      </trkpt>
      <trkpt lat="47.48527" lon="6.77418">
        <ele>377.4</ele>
        <time>2016-12-30T08:49:41.000Z</time>
      </trkpt>
      <trkpt lat="47.48524" lon="6.77415">
        <ele>377.3</ele>
        <time>2016-12-30T08:49:42.000Z</time>
      </trkpt>
      <trkpt lat="47.48521" lon="6.77412">
        <ele>377.2</ele>
        <time>2016-12-30T08:49:43.000Z</time>
      </trkpt>
      <trkpt lat="47.48518" lon="6.77409">
        <ele>377</ele>
        <time>2016-12-30T08:49:44.000Z</time>
      </trkpt>
      <trkpt lat="47.48516" lon="6.77407">
        <ele>376.9</ele>
        <time>2016-12-30T08:49:45.000Z</time>
      </trkpt>
      <trkpt lat="47.48513" lon="6.77404">
        <ele>376.8</ele>
        <time>2016-12-30T08:49:46.000Z</time>
      </trkpt>
      <trkpt lat="47.4851" lon="6.77401">
        <ele>376.6</ele>
        <time>2016-12-30T08:49:47.000Z</time>
      </trkpt>
      <trkpt lat="47.48507" lon="6.77397">
        <ele>376.4</ele>
        <time>2016-12-30T08:49:48.000Z</time>
      </trkpt>
      <trkpt lat="47.48504" lon="6.77394">
        <ele>376.3</ele>
        <time>2016-12-30T08:49:49.000Z</time>
      </trkpt>
      <trkpt lat="47.48501" lon="6.77391">
        <ele>376.2</ele>
        <time>2016-12-30T08:49:50.000Z</time>
      </trkpt>
      <trkpt lat="47.48499" lon="6.77388">
        <ele>376.1</ele>
        <time>2016-12-30T08:49:51.000Z</time>
      </trkpt>
      <trkpt lat="47.48496" lon="6.77385">
        <ele>376</ele>
        <time>2016-12-30T08:49:52.000Z</time>
      </trkpt>
      <trkpt lat="47.48494" lon="6.77382">
        <ele>375.9</ele>
        <time>2016-12-30T08:49:53.000Z</time>
      </trkpt>
      <trkpt lat="47.48492" lon="6.77378">
        <ele>375.7</ele>
        <time>2016-12-30T08:49:54.000Z</time>
      </trkpt>
      <trkpt lat="47.48489" lon="6.77377">
        <ele>375.6</ele>
        <time>2016-12-30T08:49:55.000Z</time>
      </trkpt>
      <trkpt lat="47.48485" lon="6.77373">
        <ele>375.5</ele>
        <time>2016-12-30T08:49:56.000Z</time>
      </trkpt>
      <trkpt lat="47.48482" lon="6.7737">
        <ele>375.3</ele>
        <time>2016-12-30T08:49:57.000Z</time>
      </trkpt>
      <trkpt lat="47.48478" lon="6.77369">
        <ele>375.2</ele>
        <time>2016-12-30T08:49:58.000Z</time>
      </trkpt>
      <trkpt lat="47.48475" lon="6.77366">
        <ele>375.1</ele>
        <time>2016-12-30T08:49:59.000Z</time>
      </trkpt>
      <trkpt lat="47.48473" lon="6.77363">
        <ele>374.9</ele>
        <time>2016-12-30T08:50:00.000Z</time>
      </trkpt>
      <trkpt lat="47.48471" lon="6.7736">
        <ele>374.9</ele>
        <time>2016-12-30T08:50:01.000Z</time>
      </trkpt>
      <trkpt lat="47.48468" lon="6.77358">
        <ele>374.8</ele>
        <time>2016-12-30T08:50:02.000Z</time>
      </trkpt>
      <trkpt lat="47.48465" lon="6.77355">
        <ele>374.7</ele>
        <time>2016-12-30T08:50:03.000Z</time>
      </trkpt>
      <trkpt lat="47.48462" lon="6.77352">
        <ele>374.6</ele>
        <time>2016-12-30T08:50:04.000Z</time>
      </trkpt>
      <trkpt lat="47.48458" lon="6.77348">
        <ele>374.5</ele>
        <time>2016-12-30T08:50:05.000Z</time>
      </trkpt>
      <trkpt lat="47.48455" lon="6.77344">
        <ele>374.4</ele>
        <time>2016-12-30T08:50:06.000Z</time>
      </trkpt>
      <trkpt lat="47.48452" lon="6.77339">
        <ele>374.4</ele>
        <time>2016-12-30T08:50:07.000Z</time>
      </trkpt>
      <trkpt lat="47.4845" lon="6.77335">
        <ele>374.3</ele>
        <time>2016-12-30T08:50:08.000Z</time>
      </trkpt>
      <trkpt lat="47.48448" lon="6.77332">
        <ele>374.3</ele>
        <time>2016-12-30T08:50:09.000Z</time>
      </trkpt>
      <trkpt lat="47.48446" lon="6.77328">
        <ele>374.3</ele>
        <time>2016-12-30T08:50:10.000Z</time>
      </trkpt>
      <trkpt lat="47.48444" lon="6.77324">
        <ele>374.2</ele>
        <time>2016-12-30T08:50:11.000Z</time>
      </trkpt>
      <trkpt lat="47.48442" lon="6.77321">
        <ele>374.2</ele>
        <time>2016-12-30T08:50:12.000Z</time>
      </trkpt>
      <trkpt lat="47.48439" lon="6.77319">
        <ele>374.1</ele>
        <time>2016-12-30T08:50:13.000Z</time>
      </trkpt>
      <trkpt lat="47.48437" lon="6.77316">
        <ele>374.1</ele>
        <time>2016-12-30T08:50:14.000Z</time>
      </trkpt>
      <trkpt lat="47.48434" lon="6.77311">
        <ele>373.9</ele>
        <time>2016-12-30T08:50:15.000Z</time>
      </trkpt>
      <trkpt lat="47.48431" lon="6.77308">
        <ele>373.8</ele>
        <time>2016-12-30T08:50:16.000Z</time>
      </trkpt>
      <trkpt lat="47.48428" lon="6.77305">
        <ele>373.6</ele>
        <time>2016-12-30T08:50:17.000Z</time>
      </trkpt>
      <trkpt lat="47.48426" lon="6.77304">
        <ele>373.5</ele>
        <time>2016-12-30T08:50:18.000Z</time>
      </trkpt>
      <trkpt lat="47.48423" lon="6.77303">
        <ele>373.4</ele>
        <time>2016-12-30T08:50:19.000Z</time>
      </trkpt>
      <trkpt lat="47.48419" lon="6.77302">
        <ele>373.2</ele>
        <time>2016-12-30T08:50:20.000Z</time>
      </trkpt>
      <trkpt lat="47.48416" lon="6.77299">
        <ele>373.1</ele>
        <time>2016-12-30T08:50:21.000Z</time>
      </trkpt>
      <trkpt lat="47.48413" lon="6.77295">
        <ele>371</ele>
        <time>2016-12-30T08:50:22.000Z</time>
      </trkpt>
      <trkpt lat="47.48408" lon="6.77291">
        <ele>370.9</ele>
        <time>2016-12-30T08:50:23.000Z</time>
      </trkpt>
      <trkpt lat="47.48404" lon="6.77288">
        <ele>370.8</ele>
        <time>2016-12-30T08:50:24.000Z</time>
      </trkpt>
      <trkpt lat="47.48401" lon="6.77285">
        <ele>370.7</ele>
        <time>2016-12-30T08:50:25.000Z</time>
      </trkpt>
      <trkpt lat="47.48399" lon="6.77281">
        <ele>370.6</ele>
        <time>2016-12-30T08:50:26.000Z</time>
      </trkpt>
      <trkpt lat="47.48396" lon="6.77278">
        <ele>370.4</ele>
        <time>2016-12-30T08:50:27.000Z</time>
      </trkpt>
      <trkpt lat="47.48393" lon="6.77277">
        <ele>370.3</ele>
        <time>2016-12-30T08:50:28.000Z</time>
      </trkpt>
      <trkpt lat="47.4839" lon="6.77274">
        <ele>370.2</ele>
        <time>2016-12-30T08:50:29.000Z</time>
      </trkpt>
      <trkpt lat="47.48386" lon="6.77271">
        <ele>370.2</ele>
        <time>2016-12-30T08:50:30.000Z</time>
      </trkpt>
      <trkpt lat="47.48383" lon="6.77267">
        <ele>370</ele>
        <time>2016-12-30T08:50:31.000Z</time>
      </trkpt>
      <trkpt lat="47.4838" lon="6.77264">
        <ele>369.9</ele>
        <time>2016-12-30T08:50:32.000Z</time>
      </trkpt>
      <trkpt lat="47.48376" lon="6.77261">
        <ele>369.8</ele>
        <time>2016-12-30T08:50:33.000Z</time>
      </trkpt>
      <trkpt lat="47.48371" lon="6.77257">
        <ele>369.7</ele>
        <time>2016-12-30T08:50:34.000Z</time>
      </trkpt>
      <trkpt lat="47.48366" lon="6.77255">
        <ele>369.5</ele>
        <time>2016-12-30T08:50:35.000Z</time>
      </trkpt>
      <trkpt lat="47.48361" lon="6.7725">
        <ele>368.4</ele>
        <time>2016-12-30T08:50:36.000Z</time>
      </trkpt>
      <trkpt lat="47.48356" lon="6.77247">
        <ele>368.4</ele>
        <time>2016-12-30T08:50:37.000Z</time>
      </trkpt>
      <trkpt lat="47.48352" lon="6.77242">
        <ele>368.2</ele>
        <time>2016-12-30T08:50:38.000Z</time>
      </trkpt>
      <trkpt lat="47.48349" lon="6.77234">
        <ele>367.7</ele>
        <time>2016-12-30T08:50:39.000Z</time>
      </trkpt>
      <trkpt lat="47.48348" lon="6.77226">
        <ele>367.4</ele>
        <time>2016-12-30T08:50:40.000Z</time>
      </trkpt>
      <trkpt lat="47.48347" lon="6.77219">
        <ele>367.4</ele>
        <time>2016-12-30T08:50:41.000Z</time>
      </trkpt>
      <trkpt lat="47.48345" lon="6.77211">
        <ele>367.2</ele>
        <time>2016-12-30T08:50:42.000Z</time>
      </trkpt>
      <trkpt lat="47.48344" lon="6.77204">
        <ele>367.2</ele>
        <time>2016-12-30T08:50:43.000Z</time>
      </trkpt>
      <trkpt lat="47.48344" lon="6.77198">
        <ele>367.1</ele>
        <time>2016-12-30T08:50:44.000Z</time>
      </trkpt>
      <trkpt lat="47.48343" lon="6.7719">
        <ele>367</ele>
        <time>2016-12-30T08:50:45.000Z</time>
      </trkpt>
      <trkpt lat="47.48342" lon="6.77182">
        <ele>367.6</ele>
        <time>2016-12-30T08:50:46.000Z</time>
      </trkpt>
      <trkpt lat="47.48343" lon="6.77175">
        <ele>368.4</ele>
        <time>2016-12-30T08:50:47.000Z</time>
      </trkpt>
      <trkpt lat="47.48345" lon="6.77168">
        <ele>368.4</ele>
        <time>2016-12-30T08:50:48.000Z</time>
      </trkpt>
      <trkpt lat="47.48349" lon="6.77161">
        <ele>368.3</ele>
        <time>2016-12-30T08:50:49.000Z</time>
      </trkpt>
      <trkpt lat="47.48352" lon="6.77155">
        <ele>368.7</ele>
        <time>2016-12-30T08:50:50.000Z</time>
      </trkpt>
      <trkpt lat="47.48355" lon="6.77147">
        <ele>370</ele>
        <time>2016-12-30T08:50:51.000Z</time>
      </trkpt>
      <trkpt lat="47.48356" lon="6.77141">
        <ele>370</ele>
        <time>2016-12-30T08:50:52.000Z</time>
      </trkpt>
      <trkpt lat="47.48356" lon="6.77137">
        <ele>370</ele>
        <time>2016-12-30T08:50:53.000Z</time>
      </trkpt>
      <trkpt lat="47.48353" lon="6.7713">
        <ele>369</ele>
        <time>2016-12-30T08:50:54.000Z</time>
      </trkpt>
      <trkpt lat="47.48346" lon="6.77123">
        <ele>367.4</ele>
        <time>2016-12-30T08:50:55.000Z</time>
      </trkpt>
      <trkpt lat="47.48339" lon="6.77115">
        <ele>365.7</ele>
        <time>2016-12-30T08:50:56.000Z</time>
      </trkpt>
      <trkpt lat="47.48332" lon="6.77115">
        <ele>363.5</ele>
        <time>2016-12-30T08:50:57.000Z</time>
      </trkpt>
      <trkpt lat="47.48325" lon="6.77115">
        <ele>361.7</ele>
        <time>2016-12-30T08:50:58.000Z</time>
      </trkpt>
      <trkpt lat="47.48317" lon="6.77113">
        <ele>360.2</ele>
        <time>2016-12-30T08:50:59.000Z</time>
      </trkpt>
      <trkpt lat="47.4831" lon="6.77109">
        <ele>358.9</ele>
        <time>2016-12-30T08:51:00.000Z</time>
      </trkpt>
      <trkpt lat="47.48304" lon="6.77106">
        <ele>358.2</ele>
        <time>2016-12-30T08:51:01.000Z</time>
      </trkpt>
      <trkpt lat="47.48298" lon="6.77108">
        <ele>357.1</ele>
        <time>2016-12-30T08:51:02.000Z</time>
      </trkpt>
      <trkpt lat="47.48291" lon="6.77111">
        <ele>354.9</ele>
        <time>2016-12-30T08:51:03.000Z</time>
      </trkpt>
      <trkpt lat="47.48284" lon="6.77113">
        <ele>352.8</ele>
        <time>2016-12-30T08:51:04.000Z</time>
      </trkpt>
      <trkpt lat="47.48279" lon="6.77116">
        <ele>351.8</ele>
        <time>2016-12-30T08:51:05.000Z</time>
      </trkpt>
      <trkpt lat="47.48275" lon="6.77119">
        <ele>351.7</ele>
        <time>2016-12-30T08:51:06.000Z</time>
      </trkpt>
      <trkpt lat="47.48272" lon="6.77122">
        <ele>351.6</ele>
        <time>2016-12-30T08:51:07.000Z</time>
      </trkpt>
      <trkpt lat="47.4827" lon="6.77124">
        <ele>351.5</ele>
        <time>2016-12-30T08:51:08.000Z</time>
      </trkpt>
      <trkpt lat="47.48268" lon="6.77125">
        <ele>351.5</ele>
        <time>2016-12-30T08:51:09.000Z</time>
      </trkpt>
      <trkpt lat="47.48264" lon="6.77124">
        <ele>351.6</ele>
        <time>2016-12-30T08:51:15.000Z</time>
      </trkpt>
      <trkpt lat="47.48263" lon="6.77125">
        <ele>351.6</ele>
        <time>2016-12-30T08:51:16.000Z</time>
      </trkpt>
      <trkpt lat="47.48259" lon="6.77126">
        <ele>353</ele>
        <time>2016-12-30T08:51:23.000Z</time>
      </trkpt>
      <trkpt lat="47.48259" lon="6.77126">
        <ele>353.3</ele>
        <time>2016-12-30T08:51:24.000Z</time>
      </trkpt>
      <trkpt lat="47.48262" lon="6.77122">
        <ele>356.6</ele>
        <time>2016-12-30T08:51:37.000Z</time>
      </trkpt>
      <trkpt lat="47.48264" lon="6.77123">
        <ele>356.6</ele>
        <time>2016-12-30T08:51:38.000Z</time>
      </trkpt>
      <trkpt lat="47.48266" lon="6.77128">
        <ele>357.4</ele>
        <time>2016-12-30T08:51:42.000Z</time>
      </trkpt>
      <trkpt lat="47.48266" lon="6.77129">
        <ele>357.4</ele>
        <time>2016-12-30T08:51:43.000Z</time>
      </trkpt>
      <trkpt lat="47.48267" lon="6.77123">
        <ele>357.3</ele>
        <time>2016-12-30T08:51:51.000Z</time>
      </trkpt>
      <trkpt lat="47.48267" lon="6.77121">
        <ele>357.3</ele>
        <time>2016-12-30T08:51:52.000Z</time>
      </trkpt>
      <trkpt lat="47.48268" lon="6.77117">
        <ele>357.3</ele>
        <time>2016-12-30T08:51:53.000Z</time>
      </trkpt>
      <trkpt lat="47.48268" lon="6.77112">
        <ele>357.3</ele>
        <time>2016-12-30T08:51:54.000Z</time>
      </trkpt>
      <trkpt lat="47.4827" lon="6.77107">
        <ele>357.4</ele>
        <time>2016-12-30T08:51:56.000Z</time>
      </trkpt>
      <trkpt lat="47.4827" lon="6.77104">
        <ele>357.3</ele>
        <time>2016-12-30T08:51:57.000Z</time>
      </trkpt>
      <trkpt lat="47.48271" lon="6.771">
        <ele>357.4</ele>
        <time>2016-12-30T08:51:58.000Z</time>
      </trkpt>
      <trkpt lat="47.48271" lon="6.77094">
        <ele>357.4</ele>
        <time>2016-12-30T08:51:59.000Z</time>
      </trkpt>
      <trkpt lat="47.48272" lon="6.77091">
        <ele>357.3</ele>
        <time>2016-12-30T08:52:00.000Z</time>
      </trkpt>
      <trkpt lat="47.48272" lon="6.77087">
        <ele>357.3</ele>
        <time>2016-12-30T08:52:01.000Z</time>
      </trkpt>
      <trkpt lat="47.48272" lon="6.77083">
        <ele>357.2</ele>
        <time>2016-12-30T08:52:02.000Z</time>
      </trkpt>
      <trkpt lat="47.48273" lon="6.77079">
        <ele>357.2</ele>
        <time>2016-12-30T08:52:03.000Z</time>
      </trkpt>
      <trkpt lat="47.48272" lon="6.77074">
        <ele>357.1</ele>
        <time>2016-12-30T08:52:04.000Z</time>
      </trkpt>
      <trkpt lat="47.48273" lon="6.77069">
        <ele>357.1</ele>
        <time>2016-12-30T08:52:05.000Z</time>
      </trkpt>
      <trkpt lat="47.48273" lon="6.77065">
        <ele>357</ele>
        <time>2016-12-30T08:52:06.000Z</time>
      </trkpt>
      <trkpt lat="47.48273" lon="6.77062">
        <ele>357</ele>
        <time>2016-12-30T08:52:07.000Z</time>
      </trkpt>
      <trkpt lat="47.48274" lon="6.77057">
        <ele>357</ele>
        <time>2016-12-30T08:52:08.000Z</time>
      </trkpt>
      <trkpt lat="47.48275" lon="6.77053">
        <ele>357</ele>
        <time>2016-12-30T08:52:09.000Z</time>
      </trkpt>
      <trkpt lat="47.48276" lon="6.77048">
        <ele>357.1</ele>
        <time>2016-12-30T08:52:10.000Z</time>
      </trkpt>
      <trkpt lat="47.48277" lon="6.77042">
        <ele>357.1</ele>
        <time>2016-12-30T08:52:11.000Z</time>
      </trkpt>
      <trkpt lat="47.48279" lon="6.77035">
        <ele>357.2</ele>
        <time>2016-12-30T08:52:12.000Z</time>
      </trkpt>
      <trkpt lat="47.4828" lon="6.77031">
        <ele>357.3</ele>
        <time>2016-12-30T08:52:13.000Z</time>
      </trkpt>
      <trkpt lat="47.4828" lon="6.77026">
        <ele>357.3</ele>
        <time>2016-12-30T08:52:14.000Z</time>
      </trkpt>
      <trkpt lat="47.4828" lon="6.77021">
        <ele>357.3</ele>
        <time>2016-12-30T08:52:15.000Z</time>
      </trkpt>
      <trkpt lat="47.4828" lon="6.77017">
        <ele>357.3</ele>
        <time>2016-12-30T08:52:16.000Z</time>
      </trkpt>
      <trkpt lat="47.4828" lon="6.7701">
        <ele>357.5</ele>
        <time>2016-12-30T08:52:18.000Z</time>
      </trkpt>
      <trkpt lat="47.4828" lon="6.77007">
        <ele>357.7</ele>
        <time>2016-12-30T08:52:19.000Z</time>
      </trkpt>
      <trkpt lat="47.48279" lon="6.77002">
        <ele>358</ele>
        <time>2016-12-30T08:52:21.000Z</time>
      </trkpt>
      <trkpt lat="47.48276" lon="6.77">
        <ele>358</ele>
        <time>2016-12-30T08:52:22.000Z</time>
      </trkpt>
      <trkpt lat="47.48271" lon="6.76999">
        <ele>358.1</ele>
        <time>2016-12-30T08:52:23.000Z</time>
      </trkpt>
      <trkpt lat="47.48268" lon="6.76996">
        <ele>358.1</ele>
        <time>2016-12-30T08:52:24.000Z</time>
      </trkpt>
      <trkpt lat="47.48264" lon="6.76995">
        <ele>358.2</ele>
        <time>2016-12-30T08:52:25.000Z</time>
      </trkpt>
      <trkpt lat="47.48261" lon="6.76993">
        <ele>358.3</ele>
        <time>2016-12-30T08:52:26.000Z</time>
      </trkpt>
      <trkpt lat="47.48257" lon="6.76991">
        <ele>359.2</ele>
        <time>2016-12-30T08:52:27.000Z</time>
      </trkpt>
      <trkpt lat="47.48253" lon="6.76989">
        <ele>359.3</ele>
        <time>2016-12-30T08:52:28.000Z</time>
      </trkpt>
      <trkpt lat="47.48249" lon="6.76987">
        <ele>359.3</ele>
        <time>2016-12-30T08:52:29.000Z</time>
      </trkpt>
      <trkpt lat="47.48246" lon="6.76986">
        <ele>359.6</ele>
        <time>2016-12-30T08:52:30.000Z</time>
      </trkpt>
      <trkpt lat="47.48242" lon="6.76984">
        <ele>359.2</ele>
        <time>2016-12-30T08:52:31.000Z</time>
      </trkpt>
      <trkpt lat="47.48238" lon="6.76982">
        <ele>358.6</ele>
        <time>2016-12-30T08:52:32.000Z</time>
      </trkpt>
      <trkpt lat="47.48234" lon="6.7698">
        <ele>358.4</ele>
        <time>2016-12-30T08:52:33.000Z</time>
      </trkpt>
      <trkpt lat="47.48231" lon="6.76977">
        <ele>358.5</ele>
        <time>2016-12-30T08:52:34.000Z</time>
      </trkpt>
      <trkpt lat="47.48226" lon="6.76974">
        <ele>358.6</ele>
        <time>2016-12-30T08:52:35.000Z</time>
      </trkpt>
      <trkpt lat="47.48223" lon="6.76972">
        <ele>358.5</ele>
        <time>2016-12-30T08:52:36.000Z</time>
      </trkpt>
      <trkpt lat="47.4822" lon="6.7697">
        <ele>358.4</ele>
        <time>2016-12-30T08:52:37.000Z</time>
      </trkpt>
      <trkpt lat="47.48216" lon="6.76967">
        <ele>358.2</ele>
        <time>2016-12-30T08:52:38.000Z</time>
      </trkpt>
      <trkpt lat="47.48212" lon="6.76964">
        <ele>357.9</ele>
        <time>2016-12-30T08:52:39.000Z</time>
      </trkpt>
      <trkpt lat="47.48209" lon="6.76962">
        <ele>357.8</ele>
        <time>2016-12-30T08:52:40.000Z</time>
      </trkpt>
      <trkpt lat="47.48206" lon="6.7696">
        <ele>357.8</ele>
        <time>2016-12-30T08:52:41.000Z</time>
      </trkpt>
      <trkpt lat="47.48204" lon="6.76959">
        <ele>357.8</ele>
        <time>2016-12-30T08:52:42.000Z</time>
      </trkpt>
      <trkpt lat="47.48201" lon="6.76956">
        <ele>357.8</ele>
        <time>2016-12-30T08:52:43.000Z</time>
      </trkpt>
      <trkpt lat="47.48198" lon="6.76954">
        <ele>357.8</ele>
        <time>2016-12-30T08:52:44.000Z</time>
      </trkpt>
      <trkpt lat="47.48193" lon="6.76953">
        <ele>357.8</ele>
        <time>2016-12-30T08:52:46.000Z</time>
      </trkpt>
      <trkpt lat="47.48191" lon="6.76951">
        <ele>357.8</ele>
        <time>2016-12-30T08:52:47.000Z</time>
      </trkpt>
      <trkpt lat="47.48189" lon="6.7695">
        <ele>357.9</ele>
        <time>2016-12-30T08:52:48.000Z</time>
      </trkpt>
      <trkpt lat="47.48186" lon="6.76947">
        <ele>358</ele>
        <time>2016-12-30T08:52:49.000Z</time>
      </trkpt>
      <trkpt lat="47.48181" lon="6.76944">
        <ele>358.1</ele>
        <time>2016-12-30T08:52:50.000Z</time>
      </trkpt>
      <trkpt lat="47.48177" lon="6.76942">
        <ele>358.1</ele>
        <time>2016-12-30T08:52:51.000Z</time>
      </trkpt>
      <trkpt lat="47.48173" lon="6.76939">
        <ele>358.2</ele>
        <time>2016-12-30T08:52:52.000Z</time>
      </trkpt>
      <trkpt lat="47.4817" lon="6.76937">
        <ele>358.4</ele>
        <time>2016-12-30T08:52:53.000Z</time>
      </trkpt>
      <trkpt lat="47.48166" lon="6.76935">
        <ele>358.5</ele>
        <time>2016-12-30T08:52:54.000Z</time>
      </trkpt>
      <trkpt lat="47.48162" lon="6.76933">
        <ele>360</ele>
        <time>2016-12-30T08:52:55.000Z</time>
      </trkpt>
      <trkpt lat="47.48158" lon="6.7693">
        <ele>361</ele>
        <time>2016-12-30T08:52:56.000Z</time>
      </trkpt>
      <trkpt lat="47.48155" lon="6.76929">
        <ele>361.9</ele>
        <time>2016-12-30T08:52:57.000Z</time>
      </trkpt>
      <trkpt lat="47.48151" lon="6.76926">
        <ele>361.9</ele>
        <time>2016-12-30T08:52:58.000Z</time>
      </trkpt>
      <trkpt lat="47.48147" lon="6.76924">
        <ele>361.9</ele>
        <time>2016-12-30T08:52:59.000Z</time>
      </trkpt>
      <trkpt lat="47.48144" lon="6.76922">
        <ele>361.2</ele>
        <time>2016-12-30T08:53:00.000Z</time>
      </trkpt>
      <trkpt lat="47.4814" lon="6.7692">
        <ele>360.3</ele>
        <time>2016-12-30T08:53:01.000Z</time>
      </trkpt>
      <trkpt lat="47.48136" lon="6.76918">
        <ele>359.8</ele>
        <time>2016-12-30T08:53:02.000Z</time>
      </trkpt>
      <trkpt lat="47.48131" lon="6.76916">
        <ele>359.1</ele>
        <time>2016-12-30T08:53:03.000Z</time>
      </trkpt>
      <trkpt lat="47.48127" lon="6.76914">
        <ele>358.7</ele>
        <time>2016-12-30T08:53:04.000Z</time>
      </trkpt>
      <trkpt lat="47.48124" lon="6.76912">
        <ele>358.7</ele>
        <time>2016-12-30T08:53:05.000Z</time>
      </trkpt>
      <trkpt lat="47.48121" lon="6.76911">
        <ele>358.6</ele>
        <time>2016-12-30T08:53:06.000Z</time>
      </trkpt>
      <trkpt lat="47.48119" lon="6.7691">
        <ele>358.6</ele>
        <time>2016-12-30T08:53:07.000Z</time>
      </trkpt>
      <trkpt lat="47.48116" lon="6.76908">
        <ele>358.4</ele>
        <time>2016-12-30T08:53:08.000Z</time>
      </trkpt>
      <trkpt lat="47.48113" lon="6.76906">
        <ele>358.3</ele>
        <time>2016-12-30T08:53:09.000Z</time>
      </trkpt>
      <trkpt lat="47.4811" lon="6.76904">
        <ele>358.2</ele>
        <time>2016-12-30T08:53:10.000Z</time>
      </trkpt>
      <trkpt lat="47.48106" lon="6.76901">
        <ele>358.1</ele>
        <time>2016-12-30T08:53:11.000Z</time>
      </trkpt>
      <trkpt lat="47.48102" lon="6.76898">
        <ele>358.1</ele>
        <time>2016-12-30T08:53:12.000Z</time>
      </trkpt>
      <trkpt lat="47.48098" lon="6.76894">
        <ele>357.6</ele>
        <time>2016-12-30T08:53:13.000Z</time>
      </trkpt>
      <trkpt lat="47.48095" lon="6.76892">
        <ele>357.6</ele>
        <time>2016-12-30T08:53:14.000Z</time>
      </trkpt>
      <trkpt lat="47.48092" lon="6.76889">
        <ele>357.5</ele>
        <time>2016-12-30T08:53:15.000Z</time>
      </trkpt>
      <trkpt lat="47.48088" lon="6.76886">
        <ele>357.3</ele>
        <time>2016-12-30T08:53:16.000Z</time>
      </trkpt>
      <trkpt lat="47.48085" lon="6.76883">
        <ele>357.4</ele>
        <time>2016-12-30T08:53:17.000Z</time>
      </trkpt>
      <trkpt lat="47.48081" lon="6.7688">
        <ele>357.4</ele>
        <time>2016-12-30T08:53:18.000Z</time>
      </trkpt>
      <trkpt lat="47.48077" lon="6.76876">
        <ele>357.4</ele>
        <time>2016-12-30T08:53:19.000Z</time>
      </trkpt>
      <trkpt lat="47.48074" lon="6.76872">
        <ele>357.4</ele>
        <time>2016-12-30T08:53:20.000Z</time>
      </trkpt>
      <trkpt lat="47.48072" lon="6.76869">
        <ele>357.6</ele>
        <time>2016-12-30T08:53:21.000Z</time>
      </trkpt>
      <trkpt lat="47.48069" lon="6.76867">
        <ele>358.3</ele>
        <time>2016-12-30T08:53:22.000Z</time>
      </trkpt>
      <trkpt lat="47.48065" lon="6.76862">
        <ele>358</ele>
        <time>2016-12-30T08:53:23.000Z</time>
      </trkpt>
      <trkpt lat="47.48061" lon="6.76858">
        <ele>357.2</ele>
        <time>2016-12-30T08:53:24.000Z</time>
      </trkpt>
      <trkpt lat="47.48059" lon="6.76856">
        <ele>357.3</ele>
        <time>2016-12-30T08:53:25.000Z</time>
      </trkpt>
      <trkpt lat="47.48056" lon="6.76852">
        <ele>357.7</ele>
        <time>2016-12-30T08:53:26.000Z</time>
      </trkpt>
      <trkpt lat="47.48053" lon="6.76848">
        <ele>358.6</ele>
        <time>2016-12-30T08:53:27.000Z</time>
      </trkpt>
      <trkpt lat="47.4805" lon="6.76844">
        <ele>359.4</ele>
        <time>2016-12-30T08:53:28.000Z</time>
      </trkpt>
      <trkpt lat="47.48047" lon="6.76839">
        <ele>359.8</ele>
        <time>2016-12-30T08:53:29.000Z</time>
      </trkpt>
      <trkpt lat="47.48044" lon="6.76835">
        <ele>359.7</ele>
        <time>2016-12-30T08:53:30.000Z</time>
      </trkpt>
      <trkpt lat="47.48041" lon="6.76831">
        <ele>359.2</ele>
        <time>2016-12-30T08:53:31.000Z</time>
      </trkpt>
      <trkpt lat="47.48038" lon="6.76827">
        <ele>359</ele>
        <time>2016-12-30T08:53:32.000Z</time>
      </trkpt>
      <trkpt lat="47.48035" lon="6.76823">
        <ele>358.4</ele>
        <time>2016-12-30T08:53:33.000Z</time>
      </trkpt>
      <trkpt lat="47.48033" lon="6.76819">
        <ele>358</ele>
        <time>2016-12-30T08:53:34.000Z</time>
      </trkpt>
      <trkpt lat="47.48029" lon="6.76814">
        <ele>357.6</ele>
        <time>2016-12-30T08:53:35.000Z</time>
      </trkpt>
      <trkpt lat="47.48026" lon="6.76808">
        <ele>357.5</ele>
        <time>2016-12-30T08:53:36.000Z</time>
      </trkpt>
      <trkpt lat="47.48022" lon="6.76803">
        <ele>357.4</ele>
        <time>2016-12-30T08:53:37.000Z</time>
      </trkpt>
      <trkpt lat="47.4802" lon="6.768">
        <ele>356.9</ele>
        <time>2016-12-30T08:53:38.000Z</time>
      </trkpt>
      <trkpt lat="47.48017" lon="6.76796">
        <ele>355.9</ele>
        <time>2016-12-30T08:53:39.000Z</time>
      </trkpt>
      <trkpt lat="47.48014" lon="6.76791">
        <ele>355.9</ele>
        <time>2016-12-30T08:53:40.000Z</time>
      </trkpt>
      <trkpt lat="47.48011" lon="6.76786">
        <ele>355.8</ele>
        <time>2016-12-30T08:53:41.000Z</time>
      </trkpt>
      <trkpt lat="47.48008" lon="6.76781">
        <ele>354.9</ele>
        <time>2016-12-30T08:53:42.000Z</time>
      </trkpt>
      <trkpt lat="47.48006" lon="6.76775">
        <ele>355</ele>
        <time>2016-12-30T08:53:43.000Z</time>
      </trkpt>
      <trkpt lat="47.48003" lon="6.7677">
        <ele>355</ele>
        <time>2016-12-30T08:53:44.000Z</time>
      </trkpt>
      <trkpt lat="47.48001" lon="6.76766">
        <ele>355</ele>
        <time>2016-12-30T08:53:45.000Z</time>
      </trkpt>
      <trkpt lat="47.47998" lon="6.76761">
        <ele>355.3</ele>
        <time>2016-12-30T08:53:46.000Z</time>
      </trkpt>
      <trkpt lat="47.47996" lon="6.76756">
        <ele>356.2</ele>
        <time>2016-12-30T08:53:47.000Z</time>
      </trkpt>
      <trkpt lat="47.47994" lon="6.76749">
        <ele>356.5</ele>
        <time>2016-12-30T08:53:48.000Z</time>
      </trkpt>
      <trkpt lat="47.47992" lon="6.76743">
        <ele>356.4</ele>
        <time>2016-12-30T08:53:49.000Z</time>
      </trkpt>
      <trkpt lat="47.4799" lon="6.76737">
        <ele>356.1</ele>
        <time>2016-12-30T08:53:50.000Z</time>
      </trkpt>
      <trkpt lat="47.47988" lon="6.7673">
        <ele>355.9</ele>
        <time>2016-12-30T08:53:51.000Z</time>
      </trkpt>
      <trkpt lat="47.47986" lon="6.76724">
        <ele>355.6</ele>
        <time>2016-12-30T08:53:52.000Z</time>
      </trkpt>
      <trkpt lat="47.47985" lon="6.76719">
        <ele>355.4</ele>
        <time>2016-12-30T08:53:53.000Z</time>
      </trkpt>
      <trkpt lat="47.47983" lon="6.76712">
        <ele>354.7</ele>
        <time>2016-12-30T08:53:54.000Z</time>
      </trkpt>
      <trkpt lat="47.47982" lon="6.76706">
        <ele>354.4</ele>
        <time>2016-12-30T08:53:55.000Z</time>
      </trkpt>
      <trkpt lat="47.47982" lon="6.76699">
        <ele>354.6</ele>
        <time>2016-12-30T08:53:56.000Z</time>
      </trkpt>
      <trkpt lat="47.47981" lon="6.76694">
        <ele>355</ele>
        <time>2016-12-30T08:53:57.000Z</time>
      </trkpt>
      <trkpt lat="47.47981" lon="6.76688">
        <ele>356.3</ele>
        <time>2016-12-30T08:53:58.000Z</time>
      </trkpt>
      <trkpt lat="47.4798" lon="6.76684">
        <ele>357.2</ele>
        <time>2016-12-30T08:53:59.000Z</time>
      </trkpt>
      <trkpt lat="47.47979" lon="6.76679">
        <ele>357.6</ele>
        <time>2016-12-30T08:54:00.000Z</time>
      </trkpt>
      <trkpt lat="47.47979" lon="6.76673">
        <ele>358.6</ele>
        <time>2016-12-30T08:54:01.000Z</time>
      </trkpt>
      <trkpt lat="47.47978" lon="6.76667">
        <ele>359.2</ele>
        <time>2016-12-30T08:54:02.000Z</time>
      </trkpt>
      <trkpt lat="47.47977" lon="6.76659">
        <ele>359.1</ele>
        <time>2016-12-30T08:54:03.000Z</time>
      </trkpt>
      <trkpt lat="47.47976" lon="6.76652">
        <ele>359.5</ele>
        <time>2016-12-30T08:54:04.000Z</time>
      </trkpt>
      <trkpt lat="47.47975" lon="6.76645">
        <ele>359.5</ele>
        <time>2016-12-30T08:54:05.000Z</time>
      </trkpt>
      <trkpt lat="47.47973" lon="6.7664">
        <ele>360</ele>
        <time>2016-12-30T08:54:06.000Z</time>
      </trkpt>
      <trkpt lat="47.47972" lon="6.76634">
        <ele>360.2</ele>
        <time>2016-12-30T08:54:07.000Z</time>
      </trkpt>
      <trkpt lat="47.47971" lon="6.76629">
        <ele>360.8</ele>
        <time>2016-12-30T08:54:08.000Z</time>
      </trkpt>
      <trkpt lat="47.4797" lon="6.76623">
        <ele>361.5</ele>
        <time>2016-12-30T08:54:09.000Z</time>
      </trkpt>
      <trkpt lat="47.47968" lon="6.76618">
        <ele>362</ele>
        <time>2016-12-30T08:54:10.000Z</time>
      </trkpt>
      <trkpt lat="47.47965" lon="6.76614">
        <ele>362.8</ele>
        <time>2016-12-30T08:54:11.000Z</time>
      </trkpt>
      <trkpt lat="47.47964" lon="6.76611">
        <ele>362.8</ele>
        <time>2016-12-30T08:54:12.000Z</time>
      </trkpt>
      <trkpt lat="47.4796" lon="6.76609">
        <ele>362.8</ele>
        <time>2016-12-30T08:54:13.000Z</time>
      </trkpt>
      <trkpt lat="47.47958" lon="6.76607">
        <ele>362.7</ele>
        <time>2016-12-30T08:54:14.000Z</time>
      </trkpt>
      <trkpt lat="47.47957" lon="6.76601">
        <ele>362.6</ele>
        <time>2016-12-30T08:54:15.000Z</time>
      </trkpt>
      <trkpt lat="47.47955" lon="6.76595">
        <ele>362.5</ele>
        <time>2016-12-30T08:54:16.000Z</time>
      </trkpt>
      <trkpt lat="47.47954" lon="6.76589">
        <ele>362.5</ele>
        <time>2016-12-30T08:54:17.000Z</time>
      </trkpt>
      <trkpt lat="47.47952" lon="6.76583">
        <ele>362.5</ele>
        <time>2016-12-30T08:54:18.000Z</time>
      </trkpt>
      <trkpt lat="47.47951" lon="6.76576">
        <ele>362.4</ele>
        <time>2016-12-30T08:54:19.000Z</time>
      </trkpt>
      <trkpt lat="47.47949" lon="6.76571">
        <ele>362.3</ele>
        <time>2016-12-30T08:54:20.000Z</time>
      </trkpt>
      <trkpt lat="47.47947" lon="6.76565">
        <ele>362.2</ele>
        <time>2016-12-30T08:54:21.000Z</time>
      </trkpt>
      <trkpt lat="47.47945" lon="6.76559">
        <ele>362.1</ele>
        <time>2016-12-30T08:54:22.000Z</time>
      </trkpt>
      <trkpt lat="47.47943" lon="6.76552">
        <ele>361.5</ele>
        <time>2016-12-30T08:54:23.000Z</time>
      </trkpt>
      <trkpt lat="47.47942" lon="6.76547">
        <ele>361.5</ele>
        <time>2016-12-30T08:54:24.000Z</time>
      </trkpt>
      <trkpt lat="47.4794" lon="6.7654">
        <ele>361</ele>
        <time>2016-12-30T08:54:25.000Z</time>
      </trkpt>
      <trkpt lat="47.47938" lon="6.76532">
        <ele>360.4</ele>
        <time>2016-12-30T08:54:26.000Z</time>
      </trkpt>
      <trkpt lat="47.47937" lon="6.76526">
        <ele>360.5</ele>
        <time>2016-12-30T08:54:27.000Z</time>
      </trkpt>
      <trkpt lat="47.47935" lon="6.7652">
        <ele>360.6</ele>
        <time>2016-12-30T08:54:28.000Z</time>
      </trkpt>
      <trkpt lat="47.47933" lon="6.76513">
        <ele>360.6</ele>
        <time>2016-12-30T08:54:29.000Z</time>
      </trkpt>
      <trkpt lat="47.47931" lon="6.76506">
        <ele>360.5</ele>
        <time>2016-12-30T08:54:30.000Z</time>
      </trkpt>
      <trkpt lat="47.47929" lon="6.76499">
        <ele>359.9</ele>
        <time>2016-12-30T08:54:31.000Z</time>
      </trkpt>
      <trkpt lat="47.47928" lon="6.76493">
        <ele>359.8</ele>
        <time>2016-12-30T08:54:32.000Z</time>
      </trkpt>
      <trkpt lat="47.47926" lon="6.76488">
        <ele>360.2</ele>
        <time>2016-12-30T08:54:33.000Z</time>
      </trkpt>
      <trkpt lat="47.47925" lon="6.76482">
        <ele>360.6</ele>
        <time>2016-12-30T08:54:34.000Z</time>
      </trkpt>
      <trkpt lat="47.47924" lon="6.76476">
        <ele>360.7</ele>
        <time>2016-12-30T08:54:35.000Z</time>
      </trkpt>
      <trkpt lat="47.47922" lon="6.76469">
        <ele>360.9</ele>
        <time>2016-12-30T08:54:36.000Z</time>
      </trkpt>
      <trkpt lat="47.4792" lon="6.76462">
        <ele>361</ele>
        <time>2016-12-30T08:54:37.000Z</time>
      </trkpt>
      <trkpt lat="47.47919" lon="6.76455">
        <ele>360.9</ele>
        <time>2016-12-30T08:54:38.000Z</time>
      </trkpt>
      <trkpt lat="47.47917" lon="6.76449">
        <ele>360.1</ele>
        <time>2016-12-30T08:54:39.000Z</time>
      </trkpt>
      <trkpt lat="47.47915" lon="6.76442">
        <ele>359.2</ele>
        <time>2016-12-30T08:54:40.000Z</time>
      </trkpt>
      <trkpt lat="47.47913" lon="6.76435">
        <ele>358.2</ele>
        <time>2016-12-30T08:54:41.000Z</time>
      </trkpt>
      <trkpt lat="47.47911" lon="6.76428">
        <ele>358.5</ele>
        <time>2016-12-30T08:54:42.000Z</time>
      </trkpt>
      <trkpt lat="47.4791" lon="6.76421">
        <ele>359</ele>
        <time>2016-12-30T08:54:43.000Z</time>
      </trkpt>
      <trkpt lat="47.47908" lon="6.76415">
        <ele>359.4</ele>
        <time>2016-12-30T08:54:44.000Z</time>
      </trkpt>
      <trkpt lat="47.47906" lon="6.76409">
        <ele>359.5</ele>
        <time>2016-12-30T08:54:45.000Z</time>
      </trkpt>
      <trkpt lat="47.47904" lon="6.76404">
        <ele>359.7</ele>
        <time>2016-12-30T08:54:46.000Z</time>
      </trkpt>
      <trkpt lat="47.47902" lon="6.76399">
        <ele>360.6</ele>
        <time>2016-12-30T08:54:47.000Z</time>
      </trkpt>
      <trkpt lat="47.479" lon="6.76393">
        <ele>360.8</ele>
        <time>2016-12-30T08:54:48.000Z</time>
      </trkpt>
      <trkpt lat="47.47896" lon="6.76387">
        <ele>360.3</ele>
        <time>2016-12-30T08:54:49.000Z</time>
      </trkpt>
      <trkpt lat="47.47893" lon="6.76381">
        <ele>360.1</ele>
        <time>2016-12-30T08:54:50.000Z</time>
      </trkpt>
      <trkpt lat="47.47891" lon="6.76375">
        <ele>360.3</ele>
        <time>2016-12-30T08:54:51.000Z</time>
      </trkpt>
      <trkpt lat="47.47888" lon="6.76369">
        <ele>360.4</ele>
        <time>2016-12-30T08:54:52.000Z</time>
      </trkpt>
      <trkpt lat="47.47885" lon="6.76364">
        <ele>360.3</ele>
        <time>2016-12-30T08:54:53.000Z</time>
      </trkpt>
      <trkpt lat="47.47882" lon="6.76358">
        <ele>359.6</ele>
        <time>2016-12-30T08:54:54.000Z</time>
      </trkpt>
      <trkpt lat="47.47879" lon="6.76352">
        <ele>359.7</ele>
        <time>2016-12-30T08:54:55.000Z</time>
      </trkpt>
      <trkpt lat="47.47876" lon="6.76347">
        <ele>359.7</ele>
        <time>2016-12-30T08:54:56.000Z</time>
      </trkpt>
      <trkpt lat="47.47874" lon="6.76341">
        <ele>359.6</ele>
        <time>2016-12-30T08:54:57.000Z</time>
      </trkpt>
      <trkpt lat="47.4787" lon="6.76336">
        <ele>359.3</ele>
        <time>2016-12-30T08:54:58.000Z</time>
      </trkpt>
      <trkpt lat="47.47867" lon="6.7633">
        <ele>359.7</ele>
        <time>2016-12-30T08:54:59.000Z</time>
      </trkpt>
      <trkpt lat="47.47864" lon="6.76325">
        <ele>359.7</ele>
        <time>2016-12-30T08:55:00.000Z</time>
      </trkpt>
      <trkpt lat="47.47861" lon="6.76318">
        <ele>359.3</ele>
        <time>2016-12-30T08:55:01.000Z</time>
      </trkpt>
      <trkpt lat="47.47857" lon="6.76312">
        <ele>358.8</ele>
        <time>2016-12-30T08:55:02.000Z</time>
      </trkpt>
      <trkpt lat="47.47854" lon="6.76306">
        <ele>358.6</ele>
        <time>2016-12-30T08:55:03.000Z</time>
      </trkpt>
      <trkpt lat="47.4785" lon="6.76301">
        <ele>358.8</ele>
        <time>2016-12-30T08:55:04.000Z</time>
      </trkpt>
      <trkpt lat="47.47847" lon="6.76296">
        <ele>358.8</ele>
        <time>2016-12-30T08:55:05.000Z</time>
      </trkpt>
      <trkpt lat="47.47844" lon="6.76291">
        <ele>358.8</ele>
        <time>2016-12-30T08:55:06.000Z</time>
      </trkpt>
      <trkpt lat="47.47841" lon="6.76287">
        <ele>359.3</ele>
        <time>2016-12-30T08:55:07.000Z</time>
      </trkpt>
      <trkpt lat="47.47837" lon="6.76282">
        <ele>359.7</ele>
        <time>2016-12-30T08:55:08.000Z</time>
      </trkpt>
      <trkpt lat="47.47834" lon="6.76279">
        <ele>360</ele>
        <time>2016-12-30T08:55:09.000Z</time>
      </trkpt>
      <trkpt lat="47.4783" lon="6.76276">
        <ele>360</ele>
        <time>2016-12-30T08:55:10.000Z</time>
      </trkpt>
      <trkpt lat="47.47827" lon="6.76272">
        <ele>360.4</ele>
        <time>2016-12-30T08:55:11.000Z</time>
      </trkpt>
      <trkpt lat="47.47823" lon="6.76269">
        <ele>360.9</ele>
        <time>2016-12-30T08:55:12.000Z</time>
      </trkpt>
      <trkpt lat="47.47818" lon="6.76266">
        <ele>360.9</ele>
        <time>2016-12-30T08:55:13.000Z</time>
      </trkpt>
      <trkpt lat="47.47815" lon="6.76264">
        <ele>360.7</ele>
        <time>2016-12-30T08:55:14.000Z</time>
      </trkpt>
      <trkpt lat="47.47809" lon="6.76261">
        <ele>360.7</ele>
        <time>2016-12-30T08:55:15.000Z</time>
      </trkpt>
      <trkpt lat="47.47804" lon="6.76259">
        <ele>360.3</ele>
        <time>2016-12-30T08:55:16.000Z</time>
      </trkpt>
      <trkpt lat="47.47799" lon="6.76256">
        <ele>359.8</ele>
        <time>2016-12-30T08:55:17.000Z</time>
      </trkpt>
      <trkpt lat="47.47795" lon="6.76254">
        <ele>359.4</ele>
        <time>2016-12-30T08:55:18.000Z</time>
      </trkpt>
      <trkpt lat="47.47792" lon="6.76251">
        <ele>358.8</ele>
        <time>2016-12-30T08:55:19.000Z</time>
      </trkpt>
      <trkpt lat="47.47789" lon="6.76249">
        <ele>358.3</ele>
        <time>2016-12-30T08:55:20.000Z</time>
      </trkpt>
      <trkpt lat="47.47786" lon="6.76247">
        <ele>358</ele>
        <time>2016-12-30T08:55:21.000Z</time>
      </trkpt>
      <trkpt lat="47.47782" lon="6.76243">
        <ele>358.1</ele>
        <time>2016-12-30T08:55:22.000Z</time>
      </trkpt>
      <trkpt lat="47.47778" lon="6.76239">
        <ele>358.1</ele>
        <time>2016-12-30T08:55:23.000Z</time>
      </trkpt>
      <trkpt lat="47.47775" lon="6.76234">
        <ele>358.3</ele>
        <time>2016-12-30T08:55:24.000Z</time>
      </trkpt>
      <trkpt lat="47.47772" lon="6.7623">
        <ele>358.3</ele>
        <time>2016-12-30T08:55:25.000Z</time>
      </trkpt>
      <trkpt lat="47.47769" lon="6.76226">
        <ele>358.4</ele>
        <time>2016-12-30T08:55:26.000Z</time>
      </trkpt>
      <trkpt lat="47.47766" lon="6.76221">
        <ele>358.4</ele>
        <time>2016-12-30T08:55:27.000Z</time>
      </trkpt>
      <trkpt lat="47.47762" lon="6.76215">
        <ele>358.6</ele>
        <time>2016-12-30T08:55:28.000Z</time>
      </trkpt>
      <trkpt lat="47.47759" lon="6.76209">
        <ele>357.9</ele>
        <time>2016-12-30T08:55:29.000Z</time>
      </trkpt>
      <trkpt lat="47.47756" lon="6.76204">
        <ele>357.5</ele>
        <time>2016-12-30T08:55:30.000Z</time>
      </trkpt>
      <trkpt lat="47.47752" lon="6.76199">
        <ele>358</ele>
        <time>2016-12-30T08:55:31.000Z</time>
      </trkpt>
      <trkpt lat="47.4775" lon="6.76194">
        <ele>358.1</ele>
        <time>2016-12-30T08:55:32.000Z</time>
      </trkpt>
      <trkpt lat="47.47746" lon="6.76189">
        <ele>358.1</ele>
        <time>2016-12-30T08:55:33.000Z</time>
      </trkpt>
      <trkpt lat="47.47744" lon="6.76184">
        <ele>358.1</ele>
        <time>2016-12-30T08:55:34.000Z</time>
      </trkpt>
      <trkpt lat="47.47741" lon="6.7618">
        <ele>358.9</ele>
        <time>2016-12-30T08:55:35.000Z</time>
      </trkpt>
      <trkpt lat="47.47738" lon="6.76176">
        <ele>359.7</ele>
        <time>2016-12-30T08:55:36.000Z</time>
      </trkpt>
      <trkpt lat="47.47735" lon="6.76172">
        <ele>360.3</ele>
        <time>2016-12-30T08:55:37.000Z</time>
      </trkpt>
      <trkpt lat="47.47733" lon="6.76168">
        <ele>360.9</ele>
        <time>2016-12-30T08:55:38.000Z</time>
      </trkpt>
      <trkpt lat="47.4773" lon="6.76165">
        <ele>361.2</ele>
        <time>2016-12-30T08:55:39.000Z</time>
      </trkpt>
      <trkpt lat="47.47727" lon="6.76159">
        <ele>361.5</ele>
        <time>2016-12-30T08:55:40.000Z</time>
      </trkpt>
      <trkpt lat="47.47723" lon="6.76154">
        <ele>362</ele>
        <time>2016-12-30T08:55:41.000Z</time>
      </trkpt>
      <trkpt lat="47.47721" lon="6.7615">
        <ele>362.2</ele>
        <time>2016-12-30T08:55:42.000Z</time>
      </trkpt>
      <trkpt lat="47.47718" lon="6.76146">
        <ele>362.6</ele>
        <time>2016-12-30T08:55:43.000Z</time>
      </trkpt>
      <trkpt lat="47.47715" lon="6.76142">
        <ele>362.5</ele>
        <time>2016-12-30T08:55:44.000Z</time>
      </trkpt>
      <trkpt lat="47.47713" lon="6.76137">
        <ele>362.4</ele>
        <time>2016-12-30T08:55:45.000Z</time>
      </trkpt>
      <trkpt lat="47.4771" lon="6.76133">
        <ele>362.4</ele>
        <time>2016-12-30T08:55:46.000Z</time>
      </trkpt>
      <trkpt lat="47.47707" lon="6.76128">
        <ele>362.6</ele>
        <time>2016-12-30T08:55:47.000Z</time>
      </trkpt>
      <trkpt lat="47.47703" lon="6.76124">
        <ele>362.6</ele>
        <time>2016-12-30T08:55:48.000Z</time>
      </trkpt>
      <trkpt lat="47.47701" lon="6.76119">
        <ele>362.6</ele>
        <time>2016-12-30T08:55:49.000Z</time>
      </trkpt>
      <trkpt lat="47.47698" lon="6.76115">
        <ele>362.5</ele>
        <time>2016-12-30T08:55:50.000Z</time>
      </trkpt>
      <trkpt lat="47.47696" lon="6.76111">
        <ele>362.6</ele>
        <time>2016-12-30T08:55:51.000Z</time>
      </trkpt>
      <trkpt lat="47.47694" lon="6.76107">
        <ele>362.7</ele>
        <time>2016-12-30T08:55:52.000Z</time>
      </trkpt>
      <trkpt lat="47.47692" lon="6.76103">
        <ele>362.7</ele>
        <time>2016-12-30T08:55:53.000Z</time>
      </trkpt>
      <trkpt lat="47.47689" lon="6.76099">
        <ele>362.7</ele>
        <time>2016-12-30T08:55:54.000Z</time>
      </trkpt>
      <trkpt lat="47.47686" lon="6.76095">
        <ele>362.7</ele>
        <time>2016-12-30T08:55:55.000Z</time>
      </trkpt>
      <trkpt lat="47.47683" lon="6.76092">
        <ele>362.7</ele>
        <time>2016-12-30T08:55:56.000Z</time>
      </trkpt>
      <trkpt lat="47.4768" lon="6.76088">
        <ele>362.7</ele>
        <time>2016-12-30T08:55:57.000Z</time>
      </trkpt>
      <trkpt lat="47.47676" lon="6.76085">
        <ele>362.7</ele>
        <time>2016-12-30T08:55:58.000Z</time>
      </trkpt>
      <trkpt lat="47.47672" lon="6.76085">
        <ele>362.6</ele>
        <time>2016-12-30T08:55:59.000Z</time>
      </trkpt>
      <trkpt lat="47.47669" lon="6.76087">
        <ele>362.6</ele>
        <time>2016-12-30T08:56:00.000Z</time>
      </trkpt>
      <trkpt lat="47.47666" lon="6.76092">
        <ele>362.3</ele>
        <time>2016-12-30T08:56:01.000Z</time>
      </trkpt>
      <trkpt lat="47.47664" lon="6.76098">
        <ele>362.1</ele>
        <time>2016-12-30T08:56:02.000Z</time>
      </trkpt>
      <trkpt lat="47.47662" lon="6.76104">
        <ele>361.9</ele>
        <time>2016-12-30T08:56:03.000Z</time>
      </trkpt>
      <trkpt lat="47.4766" lon="6.76113">
        <ele>361.9</ele>
        <time>2016-12-30T08:56:04.000Z</time>
      </trkpt>
      <trkpt lat="47.47657" lon="6.7612">
        <ele>361.4</ele>
        <time>2016-12-30T08:56:05.000Z</time>
      </trkpt>
      <trkpt lat="47.47655" lon="6.76127">
        <ele>361.2</ele>
        <time>2016-12-30T08:56:06.000Z</time>
      </trkpt>
      <trkpt lat="47.47653" lon="6.76134">
        <ele>360.6</ele>
        <time>2016-12-30T08:56:07.000Z</time>
      </trkpt>
      <trkpt lat="47.47652" lon="6.76139">
        <ele>360.2</ele>
        <time>2016-12-30T08:56:08.000Z</time>
      </trkpt>
      <trkpt lat="47.47651" lon="6.76144">
        <ele>359.8</ele>
        <time>2016-12-30T08:56:09.000Z</time>
      </trkpt>
      <trkpt lat="47.47649" lon="6.76151">
        <ele>359</ele>
        <time>2016-12-30T08:56:10.000Z</time>
      </trkpt>
      <trkpt lat="47.47646" lon="6.76158">
        <ele>358.6</ele>
        <time>2016-12-30T08:56:11.000Z</time>
      </trkpt>
      <trkpt lat="47.47644" lon="6.76165">
        <ele>358.3</ele>
        <time>2016-12-30T08:56:12.000Z</time>
      </trkpt>
      <trkpt lat="47.47643" lon="6.76172">
        <ele>358.1</ele>
        <time>2016-12-30T08:56:13.000Z</time>
      </trkpt>
      <trkpt lat="47.47641" lon="6.76179">
        <ele>358</ele>
        <time>2016-12-30T08:56:14.000Z</time>
      </trkpt>
      <trkpt lat="47.47639" lon="6.76185">
        <ele>357.8</ele>
        <time>2016-12-30T08:56:15.000Z</time>
      </trkpt>
      <trkpt lat="47.47636" lon="6.76191">
        <ele>357.6</ele>
        <time>2016-12-30T08:56:16.000Z</time>
      </trkpt>
      <trkpt lat="47.47633" lon="6.76199">
        <ele>356.8</ele>
        <time>2016-12-30T08:56:17.000Z</time>
      </trkpt>
      <trkpt lat="47.47631" lon="6.76206">
        <ele>356.4</ele>
        <time>2016-12-30T08:56:18.000Z</time>
      </trkpt>
      <trkpt lat="47.47629" lon="6.76214">
        <ele>356.1</ele>
        <time>2016-12-30T08:56:19.000Z</time>
      </trkpt>
      <trkpt lat="47.47627" lon="6.7622">
        <ele>355.6</ele>
        <time>2016-12-30T08:56:20.000Z</time>
      </trkpt>
      <trkpt lat="47.47624" lon="6.76226">
        <ele>355.1</ele>
        <time>2016-12-30T08:56:21.000Z</time>
      </trkpt>
      <trkpt lat="47.47622" lon="6.76232">
        <ele>354.5</ele>
        <time>2016-12-30T08:56:22.000Z</time>
      </trkpt>
      <trkpt lat="47.47619" lon="6.76237">
        <ele>353.8</ele>
        <time>2016-12-30T08:56:23.000Z</time>
      </trkpt>
      <trkpt lat="47.47618" lon="6.76242">
        <ele>353.6</ele>
        <time>2016-12-30T08:56:24.000Z</time>
      </trkpt>
      <trkpt lat="47.47616" lon="6.76246">
        <ele>353.1</ele>
        <time>2016-12-30T08:56:25.000Z</time>
      </trkpt>
      <trkpt lat="47.47613" lon="6.7625">
        <ele>352.3</ele>
        <time>2016-12-30T08:56:26.000Z</time>
      </trkpt>
      <trkpt lat="47.4761" lon="6.76255">
        <ele>351.9</ele>
        <time>2016-12-30T08:56:27.000Z</time>
      </trkpt>
      <trkpt lat="47.47608" lon="6.7626">
        <ele>352.1</ele>
        <time>2016-12-30T08:56:28.000Z</time>
      </trkpt>
      <trkpt lat="47.47605" lon="6.76267">
        <ele>352.4</ele>
        <time>2016-12-30T08:56:29.000Z</time>
      </trkpt>
      <trkpt lat="47.47602" lon="6.76273">
        <ele>352.4</ele>
        <time>2016-12-30T08:56:30.000Z</time>
      </trkpt>
      <trkpt lat="47.476" lon="6.76278">
        <ele>352.4</ele>
        <time>2016-12-30T08:56:31.000Z</time>
      </trkpt>
      <trkpt lat="47.47597" lon="6.76283">
        <ele>352.4</ele>
        <time>2016-12-30T08:56:32.000Z</time>
      </trkpt>
      <trkpt lat="47.47594" lon="6.76287">
        <ele>352.5</ele>
        <time>2016-12-30T08:56:33.000Z</time>
      </trkpt>
      <trkpt lat="47.4759" lon="6.76292">
        <ele>352.5</ele>
        <time>2016-12-30T08:56:34.000Z</time>
      </trkpt>
      <trkpt lat="47.47587" lon="6.76299">
        <ele>352.7</ele>
        <time>2016-12-30T08:56:35.000Z</time>
      </trkpt>
      <trkpt lat="47.47583" lon="6.76304">
        <ele>353</ele>
        <time>2016-12-30T08:56:36.000Z</time>
      </trkpt>
      <trkpt lat="47.4758" lon="6.76309">
        <ele>353.1</ele>
        <time>2016-12-30T08:56:37.000Z</time>
      </trkpt>
      <trkpt lat="47.47577" lon="6.76316">
        <ele>352.4</ele>
        <time>2016-12-30T08:56:38.000Z</time>
      </trkpt>
      <trkpt lat="47.47574" lon="6.76321">
        <ele>351.8</ele>
        <time>2016-12-30T08:56:39.000Z</time>
      </trkpt>
      <trkpt lat="47.4757" lon="6.76328">
        <ele>351.7</ele>
        <time>2016-12-30T08:56:40.000Z</time>
      </trkpt>
      <trkpt lat="47.47568" lon="6.76332">
        <ele>351.7</ele>
        <time>2016-12-30T08:56:41.000Z</time>
      </trkpt>
      <trkpt lat="47.47566" lon="6.76337">
        <ele>352.7</ele>
        <time>2016-12-30T08:56:42.000Z</time>
      </trkpt>
      <trkpt lat="47.47563" lon="6.76343">
        <ele>352.8</ele>
        <time>2016-12-30T08:56:43.000Z</time>
      </trkpt>
      <trkpt lat="47.4756" lon="6.76349">
        <ele>353</ele>
        <time>2016-12-30T08:56:44.000Z</time>
      </trkpt>
      <trkpt lat="47.47558" lon="6.76353">
        <ele>353.3</ele>
        <time>2016-12-30T08:56:45.000Z</time>
      </trkpt>
      <trkpt lat="47.47554" lon="6.76359">
        <ele>354</ele>
        <time>2016-12-30T08:56:46.000Z</time>
      </trkpt>
      <trkpt lat="47.47552" lon="6.76364">
        <ele>355.4</ele>
        <time>2016-12-30T08:56:47.000Z</time>
      </trkpt>
      <trkpt lat="47.4755" lon="6.76369">
        <ele>356.8</ele>
        <time>2016-12-30T08:56:48.000Z</time>
      </trkpt>
      <trkpt lat="47.47548" lon="6.76376">
        <ele>357.6</ele>
        <time>2016-12-30T08:56:49.000Z</time>
      </trkpt>
      <trkpt lat="47.47547" lon="6.76384">
        <ele>358</ele>
        <time>2016-12-30T08:56:50.000Z</time>
      </trkpt>
      <trkpt lat="47.47546" lon="6.76393">
        <ele>357.7</ele>
        <time>2016-12-30T08:56:51.000Z</time>
      </trkpt>
      <trkpt lat="47.47543" lon="6.76398">
        <ele>357.6</ele>
        <time>2016-12-30T08:56:52.000Z</time>
      </trkpt>
      <trkpt lat="47.4754" lon="6.76402">
        <ele>357.3</ele>
        <time>2016-12-30T08:56:53.000Z</time>
      </trkpt>
      <trkpt lat="47.47537" lon="6.76404">
        <ele>357.3</ele>
        <time>2016-12-30T08:56:54.000Z</time>
      </trkpt>
      <trkpt lat="47.47534" lon="6.76406">
        <ele>357.2</ele>
        <time>2016-12-30T08:56:55.000Z</time>
      </trkpt>
      <trkpt lat="47.47529" lon="6.7641">
        <ele>357.2</ele>
        <time>2016-12-30T08:56:56.000Z</time>
      </trkpt>
      <trkpt lat="47.47525" lon="6.76411">
        <ele>357.3</ele>
        <time>2016-12-30T08:56:57.000Z</time>
      </trkpt>
      <trkpt lat="47.47522" lon="6.76412">
        <ele>357.3</ele>
        <time>2016-12-30T08:56:58.000Z</time>
      </trkpt>
      <trkpt lat="47.47519" lon="6.76411">
        <ele>357.3</ele>
        <time>2016-12-30T08:56:59.000Z</time>
      </trkpt>
      <trkpt lat="47.47516" lon="6.76411">
        <ele>357.3</ele>
        <time>2016-12-30T08:57:00.000Z</time>
      </trkpt>
      <trkpt lat="47.47512" lon="6.7641">
        <ele>357.2</ele>
        <time>2016-12-30T08:57:01.000Z</time>
      </trkpt>
      <trkpt lat="47.47508" lon="6.76409">
        <ele>357.2</ele>
        <time>2016-12-30T08:57:02.000Z</time>
      </trkpt>
      <trkpt lat="47.47505" lon="6.76406">
        <ele>357.2</ele>
        <time>2016-12-30T08:57:03.000Z</time>
      </trkpt>
      <trkpt lat="47.47502" lon="6.76403">
        <ele>357.2</ele>
        <time>2016-12-30T08:57:04.000Z</time>
      </trkpt>
      <trkpt lat="47.47499" lon="6.764">
        <ele>357.2</ele>
        <time>2016-12-30T08:57:05.000Z</time>
      </trkpt>
      <trkpt lat="47.47496" lon="6.764">
        <ele>357.3</ele>
        <time>2016-12-30T08:57:06.000Z</time>
      </trkpt>
      <trkpt lat="47.47494" lon="6.76401">
        <ele>357.4</ele>
        <time>2016-12-30T08:57:07.000Z</time>
      </trkpt>
      <trkpt lat="47.4749" lon="6.76403">
        <ele>357.5</ele>
        <time>2016-12-30T08:57:08.000Z</time>
      </trkpt>
      <trkpt lat="47.47487" lon="6.76405">
        <ele>357.6</ele>
        <time>2016-12-30T08:57:09.000Z</time>
      </trkpt>
      <trkpt lat="47.47485" lon="6.76405">
        <ele>357.7</ele>
        <time>2016-12-30T08:57:10.000Z</time>
      </trkpt>
      <trkpt lat="47.47482" lon="6.76406">
        <ele>357.8</ele>
        <time>2016-12-30T08:57:11.000Z</time>
      </trkpt>
      <trkpt lat="47.4748" lon="6.76408">
        <ele>357.9</ele>
        <time>2016-12-30T08:57:12.000Z</time>
      </trkpt>
      <trkpt lat="47.47477" lon="6.76413">
        <ele>358</ele>
        <time>2016-12-30T08:57:14.000Z</time>
      </trkpt>
      <trkpt lat="47.47476" lon="6.76416">
        <ele>358.1</ele>
        <time>2016-12-30T08:57:15.000Z</time>
      </trkpt>
      <trkpt lat="47.47475" lon="6.76418">
        <ele>358.2</ele>
        <time>2016-12-30T08:57:16.000Z</time>
      </trkpt>
      <trkpt lat="47.47473" lon="6.76422">
        <ele>358.3</ele>
        <time>2016-12-30T08:57:17.000Z</time>
      </trkpt>
      <trkpt lat="47.47471" lon="6.76425">
        <ele>358.3</ele>
        <time>2016-12-30T08:57:18.000Z</time>
      </trkpt>
      <trkpt lat="47.47469" lon="6.76428">
        <ele>358.4</ele>
        <time>2016-12-30T08:57:19.000Z</time>
      </trkpt>
      <trkpt lat="47.47466" lon="6.76432">
        <ele>358.3</ele>
        <time>2016-12-30T08:57:21.000Z</time>
      </trkpt>
      <trkpt lat="47.47463" lon="6.76433">
        <ele>358.3</ele>
        <time>2016-12-30T08:57:22.000Z</time>
      </trkpt>
      <trkpt lat="47.47459" lon="6.76432">
        <ele>358.4</ele>
        <time>2016-12-30T08:57:23.000Z</time>
      </trkpt>
      <trkpt lat="47.47455" lon="6.76432">
        <ele>358.3</ele>
        <time>2016-12-30T08:57:24.000Z</time>
      </trkpt>
      <trkpt lat="47.47452" lon="6.76433">
        <ele>358.3</ele>
        <time>2016-12-30T08:57:25.000Z</time>
      </trkpt>
      <trkpt lat="47.47449" lon="6.76433">
        <ele>358.3</ele>
        <time>2016-12-30T08:57:26.000Z</time>
      </trkpt>
      <trkpt lat="47.47445" lon="6.76431">
        <ele>358.4</ele>
        <time>2016-12-30T08:57:28.000Z</time>
      </trkpt>
      <trkpt lat="47.47443" lon="6.76431">
        <ele>358.4</ele>
        <time>2016-12-30T08:57:29.000Z</time>
      </trkpt>
      <trkpt lat="47.4744" lon="6.76432">
        <ele>358.4</ele>
        <time>2016-12-30T08:57:30.000Z</time>
      </trkpt>
      <trkpt lat="47.47438" lon="6.76436">
        <ele>358.4</ele>
        <time>2016-12-30T08:57:31.000Z</time>
      </trkpt>
      <trkpt lat="47.47436" lon="6.7644">
        <ele>358.4</ele>
        <time>2016-12-30T08:57:32.000Z</time>
      </trkpt>
      <trkpt lat="47.47434" lon="6.76444">
        <ele>358.4</ele>
        <time>2016-12-30T08:57:33.000Z</time>
      </trkpt>
      <trkpt lat="47.4743" lon="6.76447">
        <ele>358.4</ele>
        <time>2016-12-30T08:57:34.000Z</time>
      </trkpt>
      <trkpt lat="47.47428" lon="6.76447">
        <ele>358.4</ele>
        <time>2016-12-30T08:57:35.000Z</time>
      </trkpt>
      <trkpt lat="47.47425" lon="6.76445">
        <ele>358.4</ele>
        <time>2016-12-30T08:57:36.000Z</time>
      </trkpt>
      <trkpt lat="47.47422" lon="6.76441">
        <ele>358.3</ele>
        <time>2016-12-30T08:57:37.000Z</time>
      </trkpt>
      <trkpt lat="47.47419" lon="6.76438">
        <ele>358.3</ele>
        <time>2016-12-30T08:57:38.000Z</time>
      </trkpt>
      <trkpt lat="47.47417" lon="6.76435">
        <ele>358.3</ele>
        <time>2016-12-30T08:57:39.000Z</time>
      </trkpt>
      <trkpt lat="47.47415" lon="6.76432">
        <ele>358.3</ele>
        <time>2016-12-30T08:57:40.000Z</time>
      </trkpt>
      <trkpt lat="47.47412" lon="6.76429">
        <ele>358.3</ele>
        <time>2016-12-30T08:57:41.000Z</time>
      </trkpt>
      <trkpt lat="47.47408" lon="6.76425">
        <ele>358.4</ele>
        <time>2016-12-30T08:57:43.000Z</time>
      </trkpt>
      <trkpt lat="47.47406" lon="6.76423">
        <ele>358.4</ele>
        <time>2016-12-30T08:57:44.000Z</time>
      </trkpt>
      <trkpt lat="47.47404" lon="6.76421">
        <ele>358.5</ele>
        <time>2016-12-30T08:57:45.000Z</time>
      </trkpt>
      <trkpt lat="47.47402" lon="6.76418">
        <ele>358.6</ele>
        <time>2016-12-30T08:57:46.000Z</time>
      </trkpt>
      <trkpt lat="47.474" lon="6.76416">
        <ele>358.6</ele>
        <time>2016-12-30T08:57:47.000Z</time>
      </trkpt>
      <trkpt lat="47.47399" lon="6.76414">
        <ele>358.7</ele>
        <time>2016-12-30T08:57:48.000Z</time>
      </trkpt>
      <trkpt lat="47.47395" lon="6.76411">
        <ele>358.9</ele>
        <time>2016-12-30T08:57:50.000Z</time>
      </trkpt>
      <trkpt lat="47.47393" lon="6.76409">
        <ele>358.9</ele>
        <time>2016-12-30T08:57:51.000Z</time>
      </trkpt>
      <trkpt lat="47.4739" lon="6.76407">
        <ele>358.9</ele>
        <time>2016-12-30T08:57:53.000Z</time>
      </trkpt>
      <trkpt lat="47.47389" lon="6.76405">
        <ele>358.9</ele>
        <time>2016-12-30T08:57:54.000Z</time>
      </trkpt>
      <trkpt lat="47.47386" lon="6.76402">
        <ele>358.8</ele>
        <time>2016-12-30T08:57:56.000Z</time>
      </trkpt>
      <trkpt lat="47.47384" lon="6.764">
        <ele>358.8</ele>
        <time>2016-12-30T08:57:57.000Z</time>
      </trkpt>
      <trkpt lat="47.47381" lon="6.76397">
        <ele>358.8</ele>
        <time>2016-12-30T08:57:58.000Z</time>
      </trkpt>
      <trkpt lat="47.47379" lon="6.76395">
        <ele>358.8</ele>
        <time>2016-12-30T08:57:59.000Z</time>
      </trkpt>
      <trkpt lat="47.47376" lon="6.76393">
        <ele>358.8</ele>
        <time>2016-12-30T08:58:01.000Z</time>
      </trkpt>
      <trkpt lat="47.47374" lon="6.76392">
        <ele>358.8</ele>
        <time>2016-12-30T08:58:02.000Z</time>
      </trkpt>
      <trkpt lat="47.4737" lon="6.76389">
        <ele>358.9</ele>
        <time>2016-12-30T08:58:04.000Z</time>
      </trkpt>
      <trkpt lat="47.47369" lon="6.76388">
        <ele>359</ele>
        <time>2016-12-30T08:58:05.000Z</time>
      </trkpt>
      <trkpt lat="47.47367" lon="6.76384">
        <ele>359.1</ele>
        <time>2016-12-30T08:58:07.000Z</time>
      </trkpt>
      <trkpt lat="47.47366" lon="6.76382">
        <ele>359.2</ele>
        <time>2016-12-30T08:58:08.000Z</time>
      </trkpt>
      <trkpt lat="47.47363" lon="6.76377">
        <ele>359.4</ele>
        <time>2016-12-30T08:58:10.000Z</time>
      </trkpt>
      <trkpt lat="47.47362" lon="6.76374">
        <ele>359.5</ele>
        <time>2016-12-30T08:58:11.000Z</time>
      </trkpt>
      <trkpt lat="47.47359" lon="6.76369">
        <ele>359.7</ele>
        <time>2016-12-30T08:58:13.000Z</time>
      </trkpt>
      <trkpt lat="47.47358" lon="6.76366">
        <ele>359.9</ele>
        <time>2016-12-30T08:58:14.000Z</time>
      </trkpt>
      <trkpt lat="47.47354" lon="6.76362">
        <ele>360.2</ele>
        <time>2016-12-30T08:58:16.000Z</time>
      </trkpt>
      <trkpt lat="47.47352" lon="6.76359">
        <ele>360.3</ele>
        <time>2016-12-30T08:58:17.000Z</time>
      </trkpt>
      <trkpt lat="47.4735" lon="6.76355">
        <ele>360.5</ele>
        <time>2016-12-30T08:58:19.000Z</time>
      </trkpt>
      <trkpt lat="47.47348" lon="6.76354">
        <ele>360.6</ele>
        <time>2016-12-30T08:58:20.000Z</time>
      </trkpt>
      <trkpt lat="47.47347" lon="6.76351">
        <ele>360.7</ele>
        <time>2016-12-30T08:58:21.000Z</time>
      </trkpt>
      <trkpt lat="47.47345" lon="6.76349">
        <ele>361</ele>
        <time>2016-12-30T08:58:22.000Z</time>
      </trkpt>
      <trkpt lat="47.47343" lon="6.76347">
        <ele>361.2</ele>
        <time>2016-12-30T08:58:23.000Z</time>
      </trkpt>
      <trkpt lat="47.4734" lon="6.76345">
        <ele>361.4</ele>
        <time>2016-12-30T08:58:24.000Z</time>
      </trkpt>
      <trkpt lat="47.47337" lon="6.76341">
        <ele>361.9</ele>
        <time>2016-12-30T08:58:26.000Z</time>
      </trkpt>
      <trkpt lat="47.47335" lon="6.7634">
        <ele>362.1</ele>
        <time>2016-12-30T08:58:27.000Z</time>
      </trkpt>
      <trkpt lat="47.47332" lon="6.76337">
        <ele>362.4</ele>
        <time>2016-12-30T08:58:29.000Z</time>
      </trkpt>
      <trkpt lat="47.4733" lon="6.76334">
        <ele>362.6</ele>
        <time>2016-12-30T08:58:30.000Z</time>
      </trkpt>
      <trkpt lat="47.47326" lon="6.76331">
        <ele>363</ele>
        <time>2016-12-30T08:58:32.000Z</time>
      </trkpt>
      <trkpt lat="47.47325" lon="6.76331">
        <ele>363.2</ele>
        <time>2016-12-30T08:58:33.000Z</time>
      </trkpt>
      <trkpt lat="47.47321" lon="6.76328">
        <ele>363.6</ele>
        <time>2016-12-30T08:58:35.000Z</time>
      </trkpt>
      <trkpt lat="47.4732" lon="6.76328">
        <ele>363.8</ele>
        <time>2016-12-30T08:58:36.000Z</time>
      </trkpt>
      <trkpt lat="47.47316" lon="6.76326">
        <ele>364.3</ele>
        <time>2016-12-30T08:58:38.000Z</time>
      </trkpt>
      <trkpt lat="47.47315" lon="6.76324">
        <ele>364.5</ele>
        <time>2016-12-30T08:58:39.000Z</time>
      </trkpt>
      <trkpt lat="47.47311" lon="6.76323">
        <ele>364.8</ele>
        <time>2016-12-30T08:58:41.000Z</time>
      </trkpt>
      <trkpt lat="47.47309" lon="6.76322">
        <ele>365</ele>
        <time>2016-12-30T08:58:42.000Z</time>
      </trkpt>
      <trkpt lat="47.47307" lon="6.7632">
        <ele>365.1</ele>
        <time>2016-12-30T08:58:43.000Z</time>
      </trkpt>
      <trkpt lat="47.47304" lon="6.76319">
        <ele>365.3</ele>
        <time>2016-12-30T08:58:44.000Z</time>
      </trkpt>
      <trkpt lat="47.473" lon="6.76315">
        <ele>365.7</ele>
        <time>2016-12-30T08:58:46.000Z</time>
      </trkpt>
      <trkpt lat="47.47299" lon="6.76315">
        <ele>365.9</ele>
        <time>2016-12-30T08:58:47.000Z</time>
      </trkpt>
      <trkpt lat="47.47296" lon="6.76314">
        <ele>366.1</ele>
        <time>2016-12-30T08:58:48.000Z</time>
      </trkpt>
      <trkpt lat="47.47294" lon="6.76313">
        <ele>366.2</ele>
        <time>2016-12-30T08:58:49.000Z</time>
      </trkpt>
      <trkpt lat="47.4729" lon="6.7631">
        <ele>366.6</ele>
        <time>2016-12-30T08:58:51.000Z</time>
      </trkpt>
      <trkpt lat="47.47288" lon="6.76309">
        <ele>366.7</ele>
        <time>2016-12-30T08:58:52.000Z</time>
      </trkpt>
      <trkpt lat="47.47284" lon="6.76308">
        <ele>367.1</ele>
        <time>2016-12-30T08:58:54.000Z</time>
      </trkpt>
      <trkpt lat="47.47281" lon="6.76307">
        <ele>367.2</ele>
        <time>2016-12-30T08:58:55.000Z</time>
      </trkpt>
      <trkpt lat="47.47279" lon="6.76306">
        <ele>367.4</ele>
        <time>2016-12-30T08:58:56.000Z</time>
      </trkpt>
      <trkpt lat="47.47277" lon="6.76305">
        <ele>367.5</ele>
        <time>2016-12-30T08:58:57.000Z</time>
      </trkpt>
      <trkpt lat="47.47273" lon="6.76302">
        <ele>367.9</ele>
        <time>2016-12-30T08:58:59.000Z</time>
      </trkpt>
      <trkpt lat="47.47271" lon="6.76301">
        <ele>368.1</ele>
        <time>2016-12-30T08:59:00.000Z</time>
      </trkpt>
      <trkpt lat="47.47268" lon="6.763">
        <ele>368.4</ele>
        <time>2016-12-30T08:59:01.000Z</time>
      </trkpt>
      <trkpt lat="47.47266" lon="6.76298">
        <ele>368.6</ele>
        <time>2016-12-30T08:59:02.000Z</time>
      </trkpt>
      <trkpt lat="47.47263" lon="6.76296">
        <ele>368.8</ele>
        <time>2016-12-30T08:59:03.000Z</time>
      </trkpt>
      <trkpt lat="47.47261" lon="6.76294">
        <ele>369</ele>
        <time>2016-12-30T08:59:04.000Z</time>
      </trkpt>
      <trkpt lat="47.47257" lon="6.76292">
        <ele>369.1</ele>
        <time>2016-12-30T08:59:05.000Z</time>
      </trkpt>
      <trkpt lat="47.47255" lon="6.76291">
        <ele>369.4</ele>
        <time>2016-12-30T08:59:06.000Z</time>
      </trkpt>
      <trkpt lat="47.47251" lon="6.76289">
        <ele>369.7</ele>
        <time>2016-12-30T08:59:08.000Z</time>
      </trkpt>
      <trkpt lat="47.47249" lon="6.76288">
        <ele>369.9</ele>
        <time>2016-12-30T08:59:09.000Z</time>
      </trkpt>
      <trkpt lat="47.47246" lon="6.76286">
        <ele>370.1</ele>
        <time>2016-12-30T08:59:10.000Z</time>
      </trkpt>
      <trkpt lat="47.47244" lon="6.76284">
        <ele>370.2</ele>
        <time>2016-12-30T08:59:11.000Z</time>
      </trkpt>
      <trkpt lat="47.47242" lon="6.76283">
        <ele>370.4</ele>
        <time>2016-12-30T08:59:12.000Z</time>
      </trkpt>
      <trkpt lat="47.47239" lon="6.76281">
        <ele>370.5</ele>
        <time>2016-12-30T08:59:13.000Z</time>
      </trkpt>
      <trkpt lat="47.47236" lon="6.7628">
        <ele>370.6</ele>
        <time>2016-12-30T08:59:14.000Z</time>
      </trkpt>
      <trkpt lat="47.47234" lon="6.76278">
        <ele>370.7</ele>
        <time>2016-12-30T08:59:15.000Z</time>
      </trkpt>
      <trkpt lat="47.47231" lon="6.76276">
        <ele>370.8</ele>
        <time>2016-12-30T08:59:16.000Z</time>
      </trkpt>
      <trkpt lat="47.47228" lon="6.76275">
        <ele>370.9</ele>
        <time>2016-12-30T08:59:17.000Z</time>
      </trkpt>
      <trkpt lat="47.47226" lon="6.76274">
        <ele>370.9</ele>
        <time>2016-12-30T08:59:18.000Z</time>
      </trkpt>
      <trkpt lat="47.47223" lon="6.76272">
        <ele>370.9</ele>
        <time>2016-12-30T08:59:19.000Z</time>
      </trkpt>
      <trkpt lat="47.4722" lon="6.7627">
        <ele>371</ele>
        <time>2016-12-30T08:59:20.000Z</time>
      </trkpt>
      <trkpt lat="47.47218" lon="6.76269">
        <ele>371</ele>
        <time>2016-12-30T08:59:21.000Z</time>
      </trkpt>
      <trkpt lat="47.47216" lon="6.76268">
        <ele>370.9</ele>
        <time>2016-12-30T08:59:22.000Z</time>
      </trkpt>
      <trkpt lat="47.47213" lon="6.76266">
        <ele>370.8</ele>
        <time>2016-12-30T08:59:23.000Z</time>
      </trkpt>
      <trkpt lat="47.4721" lon="6.76264">
        <ele>370.7</ele>
        <time>2016-12-30T08:59:24.000Z</time>
      </trkpt>
      <trkpt lat="47.47207" lon="6.76263">
        <ele>370.5</ele>
        <time>2016-12-30T08:59:25.000Z</time>
      </trkpt>
      <trkpt lat="47.47205" lon="6.76261">
        <ele>370.3</ele>
        <time>2016-12-30T08:59:26.000Z</time>
      </trkpt>
      <trkpt lat="47.47202" lon="6.76259">
        <ele>367.9</ele>
        <time>2016-12-30T08:59:27.000Z</time>
      </trkpt>
      <trkpt lat="47.47199" lon="6.76257">
        <ele>367.7</ele>
        <time>2016-12-30T08:59:28.000Z</time>
      </trkpt>
      <trkpt lat="47.47194" lon="6.76253">
        <ele>367.6</ele>
        <time>2016-12-30T08:59:29.000Z</time>
      </trkpt>
      <trkpt lat="47.4719" lon="6.7625">
        <ele>367.5</ele>
        <time>2016-12-30T08:59:30.000Z</time>
      </trkpt>
      <trkpt lat="47.47186" lon="6.76246">
        <ele>366.4</ele>
        <time>2016-12-30T08:59:31.000Z</time>
      </trkpt>
      <trkpt lat="47.47182" lon="6.76243">
        <ele>366.3</ele>
        <time>2016-12-30T08:59:32.000Z</time>
      </trkpt>
      <trkpt lat="47.47178" lon="6.7624">
        <ele>366.4</ele>
        <time>2016-12-30T08:59:33.000Z</time>
      </trkpt>
      <trkpt lat="47.47175" lon="6.76237">
        <ele>366.4</ele>
        <time>2016-12-30T08:59:34.000Z</time>
      </trkpt>
      <trkpt lat="47.47171" lon="6.76234">
        <ele>366.5</ele>
        <time>2016-12-30T08:59:35.000Z</time>
      </trkpt>
      <trkpt lat="47.47168" lon="6.76231">
        <ele>366.7</ele>
        <time>2016-12-30T08:59:36.000Z</time>
      </trkpt>
      <trkpt lat="47.47166" lon="6.76227">
        <ele>366.8</ele>
        <time>2016-12-30T08:59:37.000Z</time>
      </trkpt>
      <trkpt lat="47.47163" lon="6.76224">
        <ele>366.9</ele>
        <time>2016-12-30T08:59:38.000Z</time>
      </trkpt>
      <trkpt lat="47.4716" lon="6.76221">
        <ele>368.6</ele>
        <time>2016-12-30T08:59:39.000Z</time>
      </trkpt>
      <trkpt lat="47.47157" lon="6.76217">
        <ele>368.6</ele>
        <time>2016-12-30T08:59:40.000Z</time>
      </trkpt>
      <trkpt lat="47.47154" lon="6.76214">
        <ele>368.7</ele>
        <time>2016-12-30T08:59:41.000Z</time>
      </trkpt>
      <trkpt lat="47.47152" lon="6.7621">
        <ele>368.8</ele>
        <time>2016-12-30T08:59:42.000Z</time>
      </trkpt>
      <trkpt lat="47.47149" lon="6.76206">
        <ele>369.9</ele>
        <time>2016-12-30T08:59:43.000Z</time>
      </trkpt>
      <trkpt lat="47.47147" lon="6.76202">
        <ele>370.6</ele>
        <time>2016-12-30T08:59:44.000Z</time>
      </trkpt>
      <trkpt lat="47.47146" lon="6.76197">
        <ele>371.5</ele>
        <time>2016-12-30T08:59:45.000Z</time>
      </trkpt>
      <trkpt lat="47.47145" lon="6.76193">
        <ele>372.4</ele>
        <time>2016-12-30T08:59:46.000Z</time>
      </trkpt>
      <trkpt lat="47.47143" lon="6.76186">
        <ele>372.4</ele>
        <time>2016-12-30T08:59:47.000Z</time>
      </trkpt>
      <trkpt lat="47.47141" lon="6.76181">
        <ele>372.8</ele>
        <time>2016-12-30T08:59:48.000Z</time>
      </trkpt>
      <trkpt lat="47.4714" lon="6.76176">
        <ele>372.8</ele>
        <time>2016-12-30T08:59:49.000Z</time>
      </trkpt>
      <trkpt lat="47.47138" lon="6.76171">
        <ele>372.9</ele>
        <time>2016-12-30T08:59:50.000Z</time>
      </trkpt>
      <trkpt lat="47.47138" lon="6.76169">
        <ele>372.9</ele>
        <time>2016-12-30T08:59:51.000Z</time>
      </trkpt>
      <trkpt lat="47.47134" lon="6.76164">
        <ele>375.7</ele>
        <time>2016-12-30T09:00:36.000Z</time>
      </trkpt>
      <trkpt lat="47.47132" lon="6.7616">
        <ele>375.7</ele>
        <time>2016-12-30T09:00:37.000Z</time>
      </trkpt>
      <trkpt lat="47.47129" lon="6.76159">
        <ele>375.7</ele>
        <time>2016-12-30T09:00:38.000Z</time>
      </trkpt>
      <trkpt lat="47.47126" lon="6.76157">
        <ele>376.8</ele>
        <time>2016-12-30T09:00:39.000Z</time>
      </trkpt>
      <trkpt lat="47.47121" lon="6.76154">
        <ele>377</ele>
        <time>2016-12-30T09:00:40.000Z</time>
      </trkpt>
      <trkpt lat="47.47117" lon="6.76151">
        <ele>377.1</ele>
        <time>2016-12-30T09:00:41.000Z</time>
      </trkpt>
      <trkpt lat="47.47112" lon="6.76148">
        <ele>377.6</ele>
        <time>2016-12-30T09:00:42.000Z</time>
      </trkpt>
      <trkpt lat="47.47107" lon="6.76145">
        <ele>377.9</ele>
        <time>2016-12-30T09:00:43.000Z</time>
      </trkpt>
      <trkpt lat="47.47103" lon="6.76142">
        <ele>378.5</ele>
        <time>2016-12-30T09:00:44.000Z</time>
      </trkpt>
      <trkpt lat="47.47099" lon="6.7614">
        <ele>378.5</ele>
        <time>2016-12-30T09:00:45.000Z</time>
      </trkpt>
      <trkpt lat="47.47096" lon="6.76137">
        <ele>378.6</ele>
        <time>2016-12-30T09:00:46.000Z</time>
      </trkpt>
      <trkpt lat="47.47092" lon="6.76134">
        <ele>378.7</ele>
        <time>2016-12-30T09:00:47.000Z</time>
      </trkpt>
      <trkpt lat="47.47089" lon="6.76132">
        <ele>378.7</ele>
        <time>2016-12-30T09:00:48.000Z</time>
      </trkpt>
      <trkpt lat="47.47086" lon="6.76129">
        <ele>378.8</ele>
        <time>2016-12-30T09:00:49.000Z</time>
      </trkpt>
      <trkpt lat="47.47084" lon="6.76128">
        <ele>378.9</ele>
        <time>2016-12-30T09:00:50.000Z</time>
      </trkpt>
      <trkpt lat="47.4708" lon="6.76125">
        <ele>378.9</ele>
        <time>2016-12-30T09:00:51.000Z</time>
      </trkpt>
      <trkpt lat="47.47078" lon="6.76123">
        <ele>379</ele>
        <time>2016-12-30T09:00:52.000Z</time>
      </trkpt>
      <trkpt lat="47.47074" lon="6.76121">
        <ele>379</ele>
        <time>2016-12-30T09:00:53.000Z</time>
      </trkpt>
      <trkpt lat="47.47071" lon="6.76119">
        <ele>379</ele>
        <time>2016-12-30T09:00:54.000Z</time>
      </trkpt>
      <trkpt lat="47.47067" lon="6.76116">
        <ele>379</ele>
        <time>2016-12-30T09:00:55.000Z</time>
      </trkpt>
      <trkpt lat="47.47063" lon="6.76114">
        <ele>379</ele>
        <time>2016-12-30T09:00:56.000Z</time>
      </trkpt>
      <trkpt lat="47.4706" lon="6.76112">
        <ele>379</ele>
        <time>2016-12-30T09:00:57.000Z</time>
      </trkpt>
      <trkpt lat="47.47056" lon="6.7611">
        <ele>379</ele>
        <time>2016-12-30T09:00:58.000Z</time>
      </trkpt>
      <trkpt lat="47.47053" lon="6.76109">
        <ele>378.9</ele>
        <time>2016-12-30T09:00:59.000Z</time>
      </trkpt>
      <trkpt lat="47.47049" lon="6.76107">
        <ele>378.8</ele>
        <time>2016-12-30T09:01:00.000Z</time>
      </trkpt>
      <trkpt lat="47.47046" lon="6.76105">
        <ele>378.7</ele>
        <time>2016-12-30T09:01:01.000Z</time>
      </trkpt>
      <trkpt lat="47.47042" lon="6.76104">
        <ele>378.6</ele>
        <time>2016-12-30T09:01:02.000Z</time>
      </trkpt>
      <trkpt lat="47.4704" lon="6.76103">
        <ele>378.6</ele>
        <time>2016-12-30T09:01:03.000Z</time>
      </trkpt>
      <trkpt lat="47.47037" lon="6.76102">
        <ele>378.5</ele>
        <time>2016-12-30T09:01:04.000Z</time>
      </trkpt>
      <trkpt lat="47.47034" lon="6.761">
        <ele>378.4</ele>
        <time>2016-12-30T09:01:05.000Z</time>
      </trkpt>
      <trkpt lat="47.47031" lon="6.76098">
        <ele>378.3</ele>
        <time>2016-12-30T09:01:06.000Z</time>
      </trkpt>
      <trkpt lat="47.47026" lon="6.76097">
        <ele>378.1</ele>
        <time>2016-12-30T09:01:07.000Z</time>
      </trkpt>
      <trkpt lat="47.47022" lon="6.76095">
        <ele>378</ele>
        <time>2016-12-30T09:01:08.000Z</time>
      </trkpt>
      <trkpt lat="47.47019" lon="6.76093">
        <ele>378</ele>
        <time>2016-12-30T09:01:09.000Z</time>
      </trkpt>
      <trkpt lat="47.47017" lon="6.76093">
        <ele>378</ele>
        <time>2016-12-30T09:01:10.000Z</time>
      </trkpt>
      <trkpt lat="47.47014" lon="6.76092">
        <ele>378.1</ele>
        <time>2016-12-30T09:01:11.000Z</time>
      </trkpt>
      <trkpt lat="47.47012" lon="6.76089">
        <ele>378.1</ele>
        <time>2016-12-30T09:01:12.000Z</time>
      </trkpt>
      <trkpt lat="47.47009" lon="6.76087">
        <ele>378.1</ele>
        <time>2016-12-30T09:01:13.000Z</time>
      </trkpt>
      <trkpt lat="47.47005" lon="6.76085">
        <ele>378.2</ele>
        <time>2016-12-30T09:01:14.000Z</time>
      </trkpt>
      <trkpt lat="47.47002" lon="6.76084">
        <ele>378.3</ele>
        <time>2016-12-30T09:01:15.000Z</time>
      </trkpt>
      <trkpt lat="47.46998" lon="6.76082">
        <ele>378.3</ele>
        <time>2016-12-30T09:01:16.000Z</time>
      </trkpt>
      <trkpt lat="47.46994" lon="6.7608">
        <ele>378.4</ele>
        <time>2016-12-30T09:01:17.000Z</time>
      </trkpt>
      <trkpt lat="47.4699" lon="6.76077">
        <ele>378.4</ele>
        <time>2016-12-30T09:01:18.000Z</time>
      </trkpt>
      <trkpt lat="47.46987" lon="6.76074">
        <ele>378.4</ele>
        <time>2016-12-30T09:01:19.000Z</time>
      </trkpt>
      <trkpt lat="47.46983" lon="6.76071">
        <ele>378.4</ele>
        <time>2016-12-30T09:01:20.000Z</time>
      </trkpt>
      <trkpt lat="47.46978" lon="6.76069">
        <ele>378.4</ele>
        <time>2016-12-30T09:01:21.000Z</time>
      </trkpt>
      <trkpt lat="47.46975" lon="6.76067">
        <ele>378.2</ele>
        <time>2016-12-30T09:01:22.000Z</time>
      </trkpt>
      <trkpt lat="47.46972" lon="6.76065">
        <ele>377.5</ele>
        <time>2016-12-30T09:01:23.000Z</time>
      </trkpt>
      <trkpt lat="47.46968" lon="6.76063">
        <ele>376.3</ele>
        <time>2016-12-30T09:01:24.000Z</time>
      </trkpt>
      <trkpt lat="47.46964" lon="6.7606">
        <ele>375</ele>
        <time>2016-12-30T09:01:25.000Z</time>
      </trkpt>
      <trkpt lat="47.46959" lon="6.76057">
        <ele>373.7</ele>
        <time>2016-12-30T09:01:26.000Z</time>
      </trkpt>
      <trkpt lat="47.46955" lon="6.76055">
        <ele>372.1</ele>
        <time>2016-12-30T09:01:27.000Z</time>
      </trkpt>
      <trkpt lat="47.46951" lon="6.76052">
        <ele>370.8</ele>
        <time>2016-12-30T09:01:28.000Z</time>
      </trkpt>
      <trkpt lat="47.46947" lon="6.76049">
        <ele>370.2</ele>
        <time>2016-12-30T09:01:29.000Z</time>
      </trkpt>
      <trkpt lat="47.46944" lon="6.76047">
        <ele>369.8</ele>
        <time>2016-12-30T09:01:30.000Z</time>
      </trkpt>
      <trkpt lat="47.4694" lon="6.76045">
        <ele>369.8</ele>
        <time>2016-12-30T09:01:31.000Z</time>
      </trkpt>
      <trkpt lat="47.46935" lon="6.76043">
        <ele>369.7</ele>
        <time>2016-12-30T09:01:32.000Z</time>
      </trkpt>
      <trkpt lat="47.46931" lon="6.76041">
        <ele>370.2</ele>
        <time>2016-12-30T09:01:33.000Z</time>
      </trkpt>
      <trkpt lat="47.46927" lon="6.7604">
        <ele>370.6</ele>
        <time>2016-12-30T09:01:34.000Z</time>
      </trkpt>
      <trkpt lat="47.46924" lon="6.76038">
        <ele>370.9</ele>
        <time>2016-12-30T09:01:35.000Z</time>
      </trkpt>
      <trkpt lat="47.4692" lon="6.76036">
        <ele>370.9</ele>
        <time>2016-12-30T09:01:36.000Z</time>
      </trkpt>
      <trkpt lat="47.46916" lon="6.76034">
        <ele>371</ele>
        <time>2016-12-30T09:01:37.000Z</time>
      </trkpt>
      <trkpt lat="47.46913" lon="6.76031">
        <ele>371.2</ele>
        <time>2016-12-30T09:01:38.000Z</time>
      </trkpt>
      <trkpt lat="47.4691" lon="6.7603">
        <ele>371.4</ele>
        <time>2016-12-30T09:01:39.000Z</time>
      </trkpt>
      <trkpt lat="47.46907" lon="6.76029">
        <ele>371.6</ele>
        <time>2016-12-30T09:01:40.000Z</time>
      </trkpt>
      <trkpt lat="47.46903" lon="6.76027">
        <ele>371.7</ele>
        <time>2016-12-30T09:01:41.000Z</time>
      </trkpt>
      <trkpt lat="47.46899" lon="6.76024">
        <ele>371.8</ele>
        <time>2016-12-30T09:01:42.000Z</time>
      </trkpt>
      <trkpt lat="47.46896" lon="6.76022">
        <ele>371.9</ele>
        <time>2016-12-30T09:01:43.000Z</time>
      </trkpt>
      <trkpt lat="47.46892" lon="6.7602">
        <ele>372</ele>
        <time>2016-12-30T09:01:44.000Z</time>
      </trkpt>
      <trkpt lat="47.46889" lon="6.76019">
        <ele>372.1</ele>
        <time>2016-12-30T09:01:45.000Z</time>
      </trkpt>
      <trkpt lat="47.46887" lon="6.76018">
        <ele>372.3</ele>
        <time>2016-12-30T09:01:46.000Z</time>
      </trkpt>
      <trkpt lat="47.46883" lon="6.76016">
        <ele>372.5</ele>
        <time>2016-12-30T09:01:47.000Z</time>
      </trkpt>
      <trkpt lat="47.4688" lon="6.76014">
        <ele>372.6</ele>
        <time>2016-12-30T09:01:48.000Z</time>
      </trkpt>
      <trkpt lat="47.46876" lon="6.76012">
        <ele>372.7</ele>
        <time>2016-12-30T09:01:49.000Z</time>
      </trkpt>
      <trkpt lat="47.46872" lon="6.7601">
        <ele>372.8</ele>
        <time>2016-12-30T09:01:50.000Z</time>
      </trkpt>
      <trkpt lat="47.46869" lon="6.76008">
        <ele>372.8</ele>
        <time>2016-12-30T09:01:51.000Z</time>
      </trkpt>
      <trkpt lat="47.46866" lon="6.76006">
        <ele>372.9</ele>
        <time>2016-12-30T09:01:52.000Z</time>
      </trkpt>
      <trkpt lat="47.46864" lon="6.76004">
        <ele>372.9</ele>
        <time>2016-12-30T09:01:53.000Z</time>
      </trkpt>
      <trkpt lat="47.46861" lon="6.76003">
        <ele>373</ele>
        <time>2016-12-30T09:01:54.000Z</time>
      </trkpt>
      <trkpt lat="47.46858" lon="6.76003">
        <ele>373.1</ele>
        <time>2016-12-30T09:01:55.000Z</time>
      </trkpt>
      <trkpt lat="47.46854" lon="6.76003">
        <ele>373.2</ele>
        <time>2016-12-30T09:01:56.000Z</time>
      </trkpt>
      <trkpt lat="47.4685" lon="6.76003">
        <ele>373.3</ele>
        <time>2016-12-30T09:01:57.000Z</time>
      </trkpt>
      <trkpt lat="47.46846" lon="6.76005">
        <ele>374.4</ele>
        <time>2016-12-30T09:01:58.000Z</time>
      </trkpt>
      <trkpt lat="47.46842" lon="6.76008">
        <ele>375.4</ele>
        <time>2016-12-30T09:01:59.000Z</time>
      </trkpt>
      <trkpt lat="47.46839" lon="6.76011">
        <ele>376</ele>
        <time>2016-12-30T09:02:00.000Z</time>
      </trkpt>
      <trkpt lat="47.46836" lon="6.76014">
        <ele>376.7</ele>
        <time>2016-12-30T09:02:01.000Z</time>
      </trkpt>
      <trkpt lat="47.46831" lon="6.76016">
        <ele>377.5</ele>
        <time>2016-12-30T09:02:02.000Z</time>
      </trkpt>
      <trkpt lat="47.46825" lon="6.76018">
        <ele>378.2</ele>
        <time>2016-12-30T09:02:03.000Z</time>
      </trkpt>
      <trkpt lat="47.46821" lon="6.76019">
        <ele>378.3</ele>
        <time>2016-12-30T09:02:04.000Z</time>
      </trkpt>
      <trkpt lat="47.46817" lon="6.76019">
        <ele>378.5</ele>
        <time>2016-12-30T09:02:05.000Z</time>
      </trkpt>
      <trkpt lat="47.46812" lon="6.76021">
        <ele>378.7</ele>
        <time>2016-12-30T09:02:06.000Z</time>
      </trkpt>
      <trkpt lat="47.46808" lon="6.76023">
        <ele>378.2</ele>
        <time>2016-12-30T09:02:07.000Z</time>
      </trkpt>
      <trkpt lat="47.46804" lon="6.76026">
        <ele>377.8</ele>
        <time>2016-12-30T09:02:08.000Z</time>
      </trkpt>
      <trkpt lat="47.468" lon="6.76029">
        <ele>377.6</ele>
        <time>2016-12-30T09:02:09.000Z</time>
      </trkpt>
      <trkpt lat="47.46795" lon="6.76033">
        <ele>377</ele>
        <time>2016-12-30T09:02:10.000Z</time>
      </trkpt>
      <trkpt lat="47.46791" lon="6.76035">
        <ele>377</ele>
        <time>2016-12-30T09:02:11.000Z</time>
      </trkpt>
      <trkpt lat="47.46786" lon="6.76034">
        <ele>376.6</ele>
        <time>2016-12-30T09:02:12.000Z</time>
      </trkpt>
      <trkpt lat="47.4678" lon="6.76033">
        <ele>376.5</ele>
        <time>2016-12-30T09:02:13.000Z</time>
      </trkpt>
      <trkpt lat="47.46777" lon="6.76031">
        <ele>376.5</ele>
        <time>2016-12-30T09:02:14.000Z</time>
      </trkpt>
      <trkpt lat="47.46773" lon="6.76027">
        <ele>376.3</ele>
        <time>2016-12-30T09:02:15.000Z</time>
      </trkpt>
      <trkpt lat="47.46769" lon="6.76024">
        <ele>376.3</ele>
        <time>2016-12-30T09:02:16.000Z</time>
      </trkpt>
      <trkpt lat="47.46766" lon="6.76022">
        <ele>376.3</ele>
        <time>2016-12-30T09:02:17.000Z</time>
      </trkpt>
      <trkpt lat="47.46764" lon="6.76017">
        <ele>376.3</ele>
        <time>2016-12-30T09:02:18.000Z</time>
      </trkpt>
      <trkpt lat="47.46761" lon="6.76013">
        <ele>376.2</ele>
        <time>2016-12-30T09:02:19.000Z</time>
      </trkpt>
      <trkpt lat="47.46758" lon="6.76009">
        <ele>376.1</ele>
        <time>2016-12-30T09:02:20.000Z</time>
      </trkpt>
      <trkpt lat="47.46753" lon="6.76006">
        <ele>376</ele>
        <time>2016-12-30T09:02:21.000Z</time>
      </trkpt>
      <trkpt lat="47.4675" lon="6.76006">
        <ele>376</ele>
        <time>2016-12-30T09:02:22.000Z</time>
      </trkpt>
      <trkpt lat="47.46747" lon="6.76005">
        <ele>375.9</ele>
        <time>2016-12-30T09:02:23.000Z</time>
      </trkpt>
      <trkpt lat="47.46743" lon="6.76005">
        <ele>375.9</ele>
        <time>2016-12-30T09:02:24.000Z</time>
      </trkpt>
      <trkpt lat="47.46739" lon="6.76005">
        <ele>375.8</ele>
        <time>2016-12-30T09:02:25.000Z</time>
      </trkpt>
      <trkpt lat="47.46736" lon="6.76006">
        <ele>375.8</ele>
        <time>2016-12-30T09:02:26.000Z</time>
      </trkpt>
      <trkpt lat="47.46734" lon="6.76006">
        <ele>375.8</ele>
        <time>2016-12-30T09:02:27.000Z</time>
      </trkpt>
      <trkpt lat="47.46731" lon="6.76007">
        <ele>375.7</ele>
        <time>2016-12-30T09:02:29.000Z</time>
      </trkpt>
      <trkpt lat="47.46728" lon="6.76007">
        <ele>375.7</ele>
        <time>2016-12-30T09:02:30.000Z</time>
      </trkpt>
      <trkpt lat="47.46725" lon="6.76007">
        <ele>375.7</ele>
        <time>2016-12-30T09:02:31.000Z</time>
      </trkpt>
      <trkpt lat="47.46722" lon="6.76009">
        <ele>375.7</ele>
        <time>2016-12-30T09:02:32.000Z</time>
      </trkpt>
      <trkpt lat="47.46718" lon="6.76011">
        <ele>375.7</ele>
        <time>2016-12-30T09:02:33.000Z</time>
      </trkpt>
      <trkpt lat="47.46714" lon="6.76013">
        <ele>375.6</ele>
        <time>2016-12-30T09:02:34.000Z</time>
      </trkpt>
      <trkpt lat="47.4671" lon="6.76015">
        <ele>375.5</ele>
        <time>2016-12-30T09:02:36.000Z</time>
      </trkpt>
      <trkpt lat="47.46708" lon="6.76014">
        <ele>375.3</ele>
        <time>2016-12-30T09:02:37.000Z</time>
      </trkpt>
      <trkpt lat="47.46704" lon="6.76012">
        <ele>375.4</ele>
        <time>2016-12-30T09:02:39.000Z</time>
      </trkpt>
      <trkpt lat="47.46701" lon="6.76012">
        <ele>375.3</ele>
        <time>2016-12-30T09:02:40.000Z</time>
      </trkpt>
      <trkpt lat="47.46699" lon="6.76011">
        <ele>375.3</ele>
        <time>2016-12-30T09:02:41.000Z</time>
      </trkpt>
      <trkpt lat="47.46696" lon="6.76009">
        <ele>375.4</ele>
        <time>2016-12-30T09:02:42.000Z</time>
      </trkpt>
      <trkpt lat="47.46693" lon="6.76007">
        <ele>375.5</ele>
        <time>2016-12-30T09:02:44.000Z</time>
      </trkpt>
      <trkpt lat="47.46692" lon="6.76006">
        <ele>375.5</ele>
        <time>2016-12-30T09:02:45.000Z</time>
      </trkpt>
      <trkpt lat="47.46691" lon="6.76001">
        <ele>376.3</ele>
        <time>2016-12-30T09:02:50.000Z</time>
      </trkpt>
      <trkpt lat="47.46691" lon="6.75999">
        <ele>376.5</ele>
        <time>2016-12-30T09:02:51.000Z</time>
      </trkpt>
      <trkpt lat="47.46692" lon="6.75992">
        <ele>376.5</ele>
        <time>2016-12-30T09:02:52.000Z</time>
      </trkpt>
      <trkpt lat="47.46694" lon="6.75989">
        <ele>376.6</ele>
        <time>2016-12-30T09:02:53.000Z</time>
      </trkpt>
      <trkpt lat="47.46695" lon="6.75985">
        <ele>376.7</ele>
        <time>2016-12-30T09:02:54.000Z</time>
      </trkpt>
      <trkpt lat="47.46697" lon="6.7598">
        <ele>376.8</ele>
        <time>2016-12-30T09:02:55.000Z</time>
      </trkpt>
      <trkpt lat="47.46698" lon="6.75975">
        <ele>376.9</ele>
        <time>2016-12-30T09:02:56.000Z</time>
      </trkpt>
      <trkpt lat="47.46698" lon="6.75971">
        <ele>377</ele>
        <time>2016-12-30T09:02:57.000Z</time>
      </trkpt>
      <trkpt lat="47.46698" lon="6.75968">
        <ele>377.1</ele>
        <time>2016-12-30T09:02:58.000Z</time>
      </trkpt>
      <trkpt lat="47.46698" lon="6.75965">
        <ele>377.2</ele>
        <time>2016-12-30T09:02:59.000Z</time>
      </trkpt>
      <trkpt lat="47.46699" lon="6.7596">
        <ele>377.3</ele>
        <time>2016-12-30T09:03:00.000Z</time>
      </trkpt>
      <trkpt lat="47.467" lon="6.75956">
        <ele>377.4</ele>
        <time>2016-12-30T09:03:01.000Z</time>
      </trkpt>
      <trkpt lat="47.467" lon="6.75953">
        <ele>377.5</ele>
        <time>2016-12-30T09:03:02.000Z</time>
      </trkpt>
      <trkpt lat="47.46701" lon="6.75947">
        <ele>377.9</ele>
        <time>2016-12-30T09:03:04.000Z</time>
      </trkpt>
      <trkpt lat="47.46701" lon="6.75944">
        <ele>378</ele>
        <time>2016-12-30T09:03:05.000Z</time>
      </trkpt>
      <trkpt lat="47.46701" lon="6.75942">
        <ele>378</ele>
        <time>2016-12-30T09:03:06.000Z</time>
      </trkpt>
      <trkpt lat="47.46701" lon="6.75936">
        <ele>378.2</ele>
        <time>2016-12-30T09:03:07.000Z</time>
      </trkpt>
      <trkpt lat="47.46701" lon="6.75931">
        <ele>378.3</ele>
        <time>2016-12-30T09:03:08.000Z</time>
      </trkpt>
      <trkpt lat="47.46701" lon="6.75927">
        <ele>378.4</ele>
        <time>2016-12-30T09:03:09.000Z</time>
      </trkpt>
      <trkpt lat="47.46701" lon="6.75923">
        <ele>378.4</ele>
        <time>2016-12-30T09:03:10.000Z</time>
      </trkpt>
      <trkpt lat="47.46701" lon="6.75917">
        <ele>378.5</ele>
        <time>2016-12-30T09:03:11.000Z</time>
      </trkpt>
      <trkpt lat="47.46701" lon="6.75911">
        <ele>378.4</ele>
        <time>2016-12-30T09:03:12.000Z</time>
      </trkpt>
      <trkpt lat="47.46701" lon="6.75906">
        <ele>378.5</ele>
        <time>2016-12-30T09:03:13.000Z</time>
      </trkpt>
      <trkpt lat="47.46702" lon="6.75901">
        <ele>378.5</ele>
        <time>2016-12-30T09:03:14.000Z</time>
      </trkpt>
      <trkpt lat="47.46703" lon="6.75897">
        <ele>378.5</ele>
        <time>2016-12-30T09:03:15.000Z</time>
      </trkpt>
      <trkpt lat="47.46703" lon="6.75891">
        <ele>378.4</ele>
        <time>2016-12-30T09:03:17.000Z</time>
      </trkpt>
      <trkpt lat="47.46705" lon="6.75887">
        <ele>378.4</ele>
        <time>2016-12-30T09:03:18.000Z</time>
      </trkpt>
      <trkpt lat="47.46705" lon="6.75884">
        <ele>378.4</ele>
        <time>2016-12-30T09:03:19.000Z</time>
      </trkpt>
      <trkpt lat="47.46706" lon="6.7588">
        <ele>378.3</ele>
        <time>2016-12-30T09:03:20.000Z</time>
      </trkpt>
      <trkpt lat="47.46705" lon="6.75874">
        <ele>378.2</ele>
        <time>2016-12-30T09:03:22.000Z</time>
      </trkpt>
      <trkpt lat="47.46705" lon="6.7587">
        <ele>378.2</ele>
        <time>2016-12-30T09:03:23.000Z</time>
      </trkpt>
      <trkpt lat="47.46705" lon="6.75864">
        <ele>378.3</ele>
        <time>2016-12-30T09:03:25.000Z</time>
      </trkpt>
      <trkpt lat="47.46705" lon="6.75859">
        <ele>378.4</ele>
        <time>2016-12-30T09:03:26.000Z</time>
      </trkpt>
      <trkpt lat="47.46705" lon="6.75855">
        <ele>378.6</ele>
        <time>2016-12-30T09:03:27.000Z</time>
      </trkpt>
      <trkpt lat="47.46706" lon="6.75848">
        <ele>378.7</ele>
        <time>2016-12-30T09:03:28.000Z</time>
      </trkpt>
      <trkpt lat="47.46708" lon="6.7584">
        <ele>378.9</ele>
        <time>2016-12-30T09:03:29.000Z</time>
      </trkpt>
      <trkpt lat="47.46708" lon="6.75833">
        <ele>379.1</ele>
        <time>2016-12-30T09:03:30.000Z</time>
      </trkpt>
      <trkpt lat="47.46709" lon="6.75827">
        <ele>379.2</ele>
        <time>2016-12-30T09:03:31.000Z</time>
      </trkpt>
      <trkpt lat="47.46709" lon="6.75824">
        <ele>379.3</ele>
        <time>2016-12-30T09:03:32.000Z</time>
      </trkpt>
      <trkpt lat="47.46709" lon="6.75819">
        <ele>379.6</ele>
        <time>2016-12-30T09:03:34.000Z</time>
      </trkpt>
      <trkpt lat="47.46709" lon="6.75816">
        <ele>379.8</ele>
        <time>2016-12-30T09:03:35.000Z</time>
      </trkpt>
      <trkpt lat="47.46709" lon="6.75812">
        <ele>380</ele>
        <time>2016-12-30T09:03:36.000Z</time>
      </trkpt>
      <trkpt lat="47.46708" lon="6.75808">
        <ele>380.3</ele>
        <time>2016-12-30T09:03:37.000Z</time>
      </trkpt>
      <trkpt lat="47.46708" lon="6.75802">
        <ele>380.9</ele>
        <time>2016-12-30T09:03:39.000Z</time>
      </trkpt>
      <trkpt lat="47.46708" lon="6.75798">
        <ele>381.3</ele>
        <time>2016-12-30T09:03:40.000Z</time>
      </trkpt>
      <trkpt lat="47.46707" lon="6.75794">
        <ele>381.6</ele>
        <time>2016-12-30T09:03:41.000Z</time>
      </trkpt>
      <trkpt lat="47.46707" lon="6.75791">
        <ele>382</ele>
        <time>2016-12-30T09:03:42.000Z</time>
      </trkpt>
      <trkpt lat="47.46706" lon="6.75785">
        <ele>383.2</ele>
        <time>2016-12-30T09:03:45.000Z</time>
      </trkpt>
      <trkpt lat="47.46706" lon="6.75782">
        <ele>383.6</ele>
        <time>2016-12-30T09:03:46.000Z</time>
      </trkpt>
      <trkpt lat="47.46706" lon="6.75777">
        <ele>383.9</ele>
        <time>2016-12-30T09:03:47.000Z</time>
      </trkpt>
      <trkpt lat="47.46705" lon="6.75774">
        <ele>384.3</ele>
        <time>2016-12-30T09:03:48.000Z</time>
      </trkpt>
      <trkpt lat="47.46704" lon="6.75768">
        <ele>385</ele>
        <time>2016-12-30T09:03:50.000Z</time>
      </trkpt>
      <trkpt lat="47.46703" lon="6.75765">
        <ele>385.3</ele>
        <time>2016-12-30T09:03:51.000Z</time>
      </trkpt>
      <trkpt lat="47.46702" lon="6.75761">
        <ele>385.8</ele>
        <time>2016-12-30T09:03:53.000Z</time>
      </trkpt>
      <trkpt lat="47.467" lon="6.75758">
        <ele>385.9</ele>
        <time>2016-12-30T09:03:54.000Z</time>
      </trkpt>
      <trkpt lat="47.46699" lon="6.75754">
        <ele>386.1</ele>
        <time>2016-12-30T09:03:55.000Z</time>
      </trkpt>
      <trkpt lat="47.46699" lon="6.7575">
        <ele>386.2</ele>
        <time>2016-12-30T09:03:56.000Z</time>
      </trkpt>
      <trkpt lat="47.46698" lon="6.75747">
        <ele>386.3</ele>
        <time>2016-12-30T09:03:57.000Z</time>
      </trkpt>
      <trkpt lat="47.46697" lon="6.75743">
        <ele>386.5</ele>
        <time>2016-12-30T09:03:58.000Z</time>
      </trkpt>
      <trkpt lat="47.46696" lon="6.7574">
        <ele>386.8</ele>
        <time>2016-12-30T09:03:59.000Z</time>
      </trkpt>
      <trkpt lat="47.46696" lon="6.75736">
        <ele>387.1</ele>
        <time>2016-12-30T09:04:00.000Z</time>
      </trkpt>
      <trkpt lat="47.46693" lon="6.75731">
        <ele>387.5</ele>
        <time>2016-12-30T09:04:02.000Z</time>
      </trkpt>
      <trkpt lat="47.46693" lon="6.75726">
        <ele>387.6</ele>
        <time>2016-12-30T09:04:03.000Z</time>
      </trkpt>
      <trkpt lat="47.46692" lon="6.75722">
        <ele>387.6</ele>
        <time>2016-12-30T09:04:04.000Z</time>
      </trkpt>
      <trkpt lat="47.46691" lon="6.75719">
        <ele>387.7</ele>
        <time>2016-12-30T09:04:05.000Z</time>
      </trkpt>
      <trkpt lat="47.4669" lon="6.75715">
        <ele>387.9</ele>
        <time>2016-12-30T09:04:06.000Z</time>
      </trkpt>
      <trkpt lat="47.46688" lon="6.75712">
        <ele>388</ele>
        <time>2016-12-30T09:04:07.000Z</time>
      </trkpt>
      <trkpt lat="47.46686" lon="6.75707">
        <ele>388.3</ele>
        <time>2016-12-30T09:04:09.000Z</time>
      </trkpt>
      <trkpt lat="47.46684" lon="6.75705">
        <ele>388.4</ele>
        <time>2016-12-30T09:04:10.000Z</time>
      </trkpt>
      <trkpt lat="47.46681" lon="6.75701">
        <ele>388.7</ele>
        <time>2016-12-30T09:04:12.000Z</time>
      </trkpt>
      <trkpt lat="47.46678" lon="6.75699">
        <ele>388.7</ele>
        <time>2016-12-30T09:04:13.000Z</time>
      </trkpt>
      <trkpt lat="47.46675" lon="6.75697">
        <ele>388.7</ele>
        <time>2016-12-30T09:04:14.000Z</time>
      </trkpt>
      <trkpt lat="47.46673" lon="6.75695">
        <ele>388.8</ele>
        <time>2016-12-30T09:04:15.000Z</time>
      </trkpt>
      <trkpt lat="47.46669" lon="6.75692">
        <ele>389</ele>
        <time>2016-12-30T09:04:17.000Z</time>
      </trkpt>
      <trkpt lat="47.46668" lon="6.7569">
        <ele>389</ele>
        <time>2016-12-30T09:04:18.000Z</time>
      </trkpt>
      <trkpt lat="47.46665" lon="6.75688">
        <ele>389</ele>
        <time>2016-12-30T09:04:19.000Z</time>
      </trkpt>
      <trkpt lat="47.46663" lon="6.75687">
        <ele>389.1</ele>
        <time>2016-12-30T09:04:20.000Z</time>
      </trkpt>
      <trkpt lat="47.46661" lon="6.75683">
        <ele>389.1</ele>
        <time>2016-12-30T09:04:22.000Z</time>
      </trkpt>
      <trkpt lat="47.4666" lon="6.75682">
        <ele>389.1</ele>
        <time>2016-12-30T09:04:23.000Z</time>
      </trkpt>
      <trkpt lat="47.46656" lon="6.75679">
        <ele>389</ele>
        <time>2016-12-30T09:04:25.000Z</time>
      </trkpt>
      <trkpt lat="47.46655" lon="6.75678">
        <ele>389</ele>
        <time>2016-12-30T09:04:26.000Z</time>
      </trkpt>
      <trkpt lat="47.46652" lon="6.75672">
        <ele>388.8</ele>
        <time>2016-12-30T09:04:28.000Z</time>
      </trkpt>
      <trkpt lat="47.46651" lon="6.75669">
        <ele>388.8</ele>
        <time>2016-12-30T09:04:29.000Z</time>
      </trkpt>
      <trkpt lat="47.46649" lon="6.75663">
        <ele>388.6</ele>
        <time>2016-12-30T09:04:31.000Z</time>
      </trkpt>
      <trkpt lat="47.46648" lon="6.75661">
        <ele>388.6</ele>
        <time>2016-12-30T09:04:32.000Z</time>
      </trkpt>
      <trkpt lat="47.46648" lon="6.75656">
        <ele>388.5</ele>
        <time>2016-12-30T09:04:34.000Z</time>
      </trkpt>
      <trkpt lat="47.46648" lon="6.75654">
        <ele>388.3</ele>
        <time>2016-12-30T09:04:35.000Z</time>
      </trkpt>
      <trkpt lat="47.46649" lon="6.75651">
        <ele>388.2</ele>
        <time>2016-12-30T09:04:36.000Z</time>
      </trkpt>
      <trkpt lat="47.4665" lon="6.75647">
        <ele>388.1</ele>
        <time>2016-12-30T09:04:37.000Z</time>
      </trkpt>
      <trkpt lat="47.46652" lon="6.75642">
        <ele>388.1</ele>
        <time>2016-12-30T09:04:38.000Z</time>
      </trkpt>
      <trkpt lat="47.46654" lon="6.75637">
        <ele>388.1</ele>
        <time>2016-12-30T09:04:39.000Z</time>
      </trkpt>
      <trkpt lat="47.46655" lon="6.75632">
        <ele>388.1</ele>
        <time>2016-12-30T09:04:40.000Z</time>
      </trkpt>
      <trkpt lat="47.46655" lon="6.75628">
        <ele>388.2</ele>
        <time>2016-12-30T09:04:41.000Z</time>
      </trkpt>
      <trkpt lat="47.46656" lon="6.75623">
        <ele>388.2</ele>
        <time>2016-12-30T09:04:42.000Z</time>
      </trkpt>
      <trkpt lat="47.46657" lon="6.75618">
        <ele>388.2</ele>
        <time>2016-12-30T09:04:43.000Z</time>
      </trkpt>
      <trkpt lat="47.46658" lon="6.75615">
        <ele>388.1</ele>
        <time>2016-12-30T09:04:44.000Z</time>
      </trkpt>
      <trkpt lat="47.46658" lon="6.75612">
        <ele>388.2</ele>
        <time>2016-12-30T09:04:45.000Z</time>
      </trkpt>
      <trkpt lat="47.46658" lon="6.75608">
        <ele>388.2</ele>
        <time>2016-12-30T09:04:46.000Z</time>
      </trkpt>
      <trkpt lat="47.46658" lon="6.75604">
        <ele>388.3</ele>
        <time>2016-12-30T09:04:47.000Z</time>
      </trkpt>
      <trkpt lat="47.46659" lon="6.75599">
        <ele>388.2</ele>
        <time>2016-12-30T09:04:48.000Z</time>
      </trkpt>
      <trkpt lat="47.46659" lon="6.75593">
        <ele>388.1</ele>
        <time>2016-12-30T09:04:49.000Z</time>
      </trkpt>
      <trkpt lat="47.46659" lon="6.7559">
        <ele>388.2</ele>
        <time>2016-12-30T09:04:50.000Z</time>
      </trkpt>
      <trkpt lat="47.46659" lon="6.75586">
        <ele>388.3</ele>
        <time>2016-12-30T09:04:51.000Z</time>
      </trkpt>
      <trkpt lat="47.4666" lon="6.75582">
        <ele>388.3</ele>
        <time>2016-12-30T09:04:52.000Z</time>
      </trkpt>
      <trkpt lat="47.46661" lon="6.75577">
        <ele>388.4</ele>
        <time>2016-12-30T09:04:53.000Z</time>
      </trkpt>
      <trkpt lat="47.46663" lon="6.75573">
        <ele>388.4</ele>
        <time>2016-12-30T09:04:54.000Z</time>
      </trkpt>
      <trkpt lat="47.46665" lon="6.7557">
        <ele>388.4</ele>
        <time>2016-12-30T09:04:55.000Z</time>
      </trkpt>
      <trkpt lat="47.46666" lon="6.75568">
        <ele>388.5</ele>
        <time>2016-12-30T09:04:56.000Z</time>
      </trkpt>
      <trkpt lat="47.46668" lon="6.75564">
        <ele>388.6</ele>
        <time>2016-12-30T09:04:57.000Z</time>
      </trkpt>
      <trkpt lat="47.4667" lon="6.75559">
        <ele>388.7</ele>
        <time>2016-12-30T09:04:58.000Z</time>
      </trkpt>
      <trkpt lat="47.46673" lon="6.75553">
        <ele>388.9</ele>
        <time>2016-12-30T09:04:59.000Z</time>
      </trkpt>
      <trkpt lat="47.46674" lon="6.75549">
        <ele>389.1</ele>
        <time>2016-12-30T09:05:00.000Z</time>
      </trkpt>
      <trkpt lat="47.46676" lon="6.75545">
        <ele>389.2</ele>
        <time>2016-12-30T09:05:01.000Z</time>
      </trkpt>
      <trkpt lat="47.46676" lon="6.75542">
        <ele>389.4</ele>
        <time>2016-12-30T09:05:02.000Z</time>
      </trkpt>
      <trkpt lat="47.46677" lon="6.75538">
        <ele>389.4</ele>
        <time>2016-12-30T09:05:03.000Z</time>
      </trkpt>
      <trkpt lat="47.46679" lon="6.75534">
        <ele>389.4</ele>
        <time>2016-12-30T09:05:04.000Z</time>
      </trkpt>
      <trkpt lat="47.4668" lon="6.75528">
        <ele>389.3</ele>
        <time>2016-12-30T09:05:05.000Z</time>
      </trkpt>
      <trkpt lat="47.46681" lon="6.75523">
        <ele>389.4</ele>
        <time>2016-12-30T09:05:06.000Z</time>
      </trkpt>
      <trkpt lat="47.46683" lon="6.75518">
        <ele>389.4</ele>
        <time>2016-12-30T09:05:07.000Z</time>
      </trkpt>
      <trkpt lat="47.46686" lon="6.75512">
        <ele>389.4</ele>
        <time>2016-12-30T09:05:08.000Z</time>
      </trkpt>
      <trkpt lat="47.46688" lon="6.75506">
        <ele>389.5</ele>
        <time>2016-12-30T09:05:09.000Z</time>
      </trkpt>
      <trkpt lat="47.46689" lon="6.755">
        <ele>389.7</ele>
        <time>2016-12-30T09:05:11.000Z</time>
      </trkpt>
      <trkpt lat="47.46689" lon="6.75496">
        <ele>389.7</ele>
        <time>2016-12-30T09:05:12.000Z</time>
      </trkpt>
      <trkpt lat="47.4669" lon="6.75492">
        <ele>389.7</ele>
        <time>2016-12-30T09:05:13.000Z</time>
      </trkpt>
      <trkpt lat="47.46692" lon="6.75486">
        <ele>389.7</ele>
        <time>2016-12-30T09:05:14.000Z</time>
      </trkpt>
      <trkpt lat="47.46693" lon="6.7548">
        <ele>389.8</ele>
        <time>2016-12-30T09:05:15.000Z</time>
      </trkpt>
      <trkpt lat="47.46696" lon="6.75475">
        <ele>389.8</ele>
        <time>2016-12-30T09:05:16.000Z</time>
      </trkpt>
      <trkpt lat="47.46698" lon="6.7547">
        <ele>389.9</ele>
        <time>2016-12-30T09:05:17.000Z</time>
      </trkpt>
      <trkpt lat="47.467" lon="6.75466">
        <ele>390</ele>
        <time>2016-12-30T09:05:18.000Z</time>
      </trkpt>
      <trkpt lat="47.46701" lon="6.75461">
        <ele>390</ele>
        <time>2016-12-30T09:05:19.000Z</time>
      </trkpt>
      <trkpt lat="47.46702" lon="6.75456">
        <ele>390.1</ele>
        <time>2016-12-30T09:05:20.000Z</time>
      </trkpt>
      <trkpt lat="47.46702" lon="6.75452">
        <ele>390.2</ele>
        <time>2016-12-30T09:05:21.000Z</time>
      </trkpt>
      <trkpt lat="47.46704" lon="6.75449">
        <ele>390.2</ele>
        <time>2016-12-30T09:05:22.000Z</time>
      </trkpt>
      <trkpt lat="47.46705" lon="6.75446">
        <ele>390.3</ele>
        <time>2016-12-30T09:05:23.000Z</time>
      </trkpt>
      <trkpt lat="47.46707" lon="6.75442">
        <ele>390.2</ele>
        <time>2016-12-30T09:05:24.000Z</time>
      </trkpt>
      <trkpt lat="47.46708" lon="6.75439">
        <ele>390.2</ele>
        <time>2016-12-30T09:05:25.000Z</time>
      </trkpt>
      <trkpt lat="47.4671" lon="6.75437">
        <ele>390.2</ele>
        <time>2016-12-30T09:05:26.000Z</time>
      </trkpt>
      <trkpt lat="47.46712" lon="6.75433">
        <ele>390.1</ele>
        <time>2016-12-30T09:05:27.000Z</time>
      </trkpt>
      <trkpt lat="47.46715" lon="6.75427">
        <ele>390</ele>
        <time>2016-12-30T09:05:28.000Z</time>
      </trkpt>
      <trkpt lat="47.46717" lon="6.75421">
        <ele>390</ele>
        <time>2016-12-30T09:05:29.000Z</time>
      </trkpt>
      <trkpt lat="47.46719" lon="6.75416">
        <ele>389.9</ele>
        <time>2016-12-30T09:05:30.000Z</time>
      </trkpt>
      <trkpt lat="47.46721" lon="6.75409">
        <ele>389.9</ele>
        <time>2016-12-30T09:05:31.000Z</time>
      </trkpt>
      <trkpt lat="47.46722" lon="6.75405">
        <ele>390</ele>
        <time>2016-12-30T09:05:32.000Z</time>
      </trkpt>
      <trkpt lat="47.46723" lon="6.75402">
        <ele>390.1</ele>
        <time>2016-12-30T09:05:33.000Z</time>
      </trkpt>
      <trkpt lat="47.46724" lon="6.75399">
        <ele>390.1</ele>
        <time>2016-12-30T09:05:34.000Z</time>
      </trkpt>
      <trkpt lat="47.46724" lon="6.75396">
        <ele>390.2</ele>
        <time>2016-12-30T09:05:35.000Z</time>
      </trkpt>
      <trkpt lat="47.46724" lon="6.7539">
        <ele>390.3</ele>
        <time>2016-12-30T09:05:36.000Z</time>
      </trkpt>
      <trkpt lat="47.46724" lon="6.75385">
        <ele>390.5</ele>
        <time>2016-12-30T09:05:37.000Z</time>
      </trkpt>
      <trkpt lat="47.46724" lon="6.75379">
        <ele>390.7</ele>
        <time>2016-12-30T09:05:38.000Z</time>
      </trkpt>
      <trkpt lat="47.46723" lon="6.75375">
        <ele>390.9</ele>
        <time>2016-12-30T09:05:39.000Z</time>
      </trkpt>
      <trkpt lat="47.46722" lon="6.7537">
        <ele>391.1</ele>
        <time>2016-12-30T09:05:40.000Z</time>
      </trkpt>
      <trkpt lat="47.46721" lon="6.75367">
        <ele>391.3</ele>
        <time>2016-12-30T09:05:41.000Z</time>
      </trkpt>
      <trkpt lat="47.46721" lon="6.75364">
        <ele>391.5</ele>
        <time>2016-12-30T09:05:42.000Z</time>
      </trkpt>
      <trkpt lat="47.4672" lon="6.7536">
        <ele>391.8</ele>
        <time>2016-12-30T09:05:43.000Z</time>
      </trkpt>
      <trkpt lat="47.4672" lon="6.75354">
        <ele>392.6</ele>
        <time>2016-12-30T09:05:47.000Z</time>
      </trkpt>
      <trkpt lat="47.4672" lon="6.75353">
        <ele>392.8</ele>
        <time>2016-12-30T09:05:48.000Z</time>
      </trkpt>
      <trkpt lat="47.46721" lon="6.75347">
        <ele>393.1</ele>
        <time>2016-12-30T09:05:51.000Z</time>
      </trkpt>
      <trkpt lat="47.46721" lon="6.75344">
        <ele>393.2</ele>
        <time>2016-12-30T09:05:52.000Z</time>
      </trkpt>
      <trkpt lat="47.4672" lon="6.75339">
        <ele>393.6</ele>
        <time>2016-12-30T09:05:55.000Z</time>
      </trkpt>
      <trkpt lat="47.46719" lon="6.75336">
        <ele>393.8</ele>
        <time>2016-12-30T09:05:56.000Z</time>
      </trkpt>
      <trkpt lat="47.46718" lon="6.75331">
        <ele>394.3</ele>
        <time>2016-12-30T09:05:58.000Z</time>
      </trkpt>
      <trkpt lat="47.46717" lon="6.75329">
        <ele>394.6</ele>
        <time>2016-12-30T09:05:59.000Z</time>
      </trkpt>
      <trkpt lat="47.46715" lon="6.75324">
        <ele>395.5</ele>
        <time>2016-12-30T09:06:02.000Z</time>
      </trkpt>
      <trkpt lat="47.46714" lon="6.75323">
        <ele>395.7</ele>
        <time>2016-12-30T09:06:03.000Z</time>
      </trkpt>
      <trkpt lat="47.46711" lon="6.7532">
        <ele>396.2</ele>
        <time>2016-12-30T09:06:05.000Z</time>
      </trkpt>
      <trkpt lat="47.4671" lon="6.75319">
        <ele>396.5</ele>
        <time>2016-12-30T09:06:06.000Z</time>
      </trkpt>
      <trkpt lat="47.46708" lon="6.75314">
        <ele>397</ele>
        <time>2016-12-30T09:06:08.000Z</time>
      </trkpt>
      <trkpt lat="47.46706" lon="6.75312">
        <ele>397.3</ele>
        <time>2016-12-30T09:06:09.000Z</time>
      </trkpt>
      <trkpt lat="47.46704" lon="6.75307">
        <ele>398.1</ele>
        <time>2016-12-30T09:06:12.000Z</time>
      </trkpt>
      <trkpt lat="47.46703" lon="6.75305">
        <ele>398.3</ele>
        <time>2016-12-30T09:06:13.000Z</time>
      </trkpt>
      <trkpt lat="47.46703" lon="6.753">
        <ele>398.8</ele>
        <time>2016-12-30T09:06:16.000Z</time>
      </trkpt>
      <trkpt lat="47.46703" lon="6.75298">
        <ele>399</ele>
        <time>2016-12-30T09:06:17.000Z</time>
      </trkpt>
      <trkpt lat="47.46703" lon="6.75292">
        <ele>399.5</ele>
        <time>2016-12-30T09:06:19.000Z</time>
      </trkpt>
      <trkpt lat="47.46703" lon="6.7529">
        <ele>399.8</ele>
        <time>2016-12-30T09:06:20.000Z</time>
      </trkpt>
      <trkpt lat="47.46702" lon="6.75286">
        <ele>401.4</ele>
        <time>2016-12-30T09:06:26.000Z</time>
      </trkpt>
      <trkpt lat="47.46704" lon="6.75278">
        <ele>401.5</ele>
        <time>2016-12-30T09:06:27.000Z</time>
      </trkpt>
      <trkpt lat="47.46704" lon="6.75273">
        <ele>401.9</ele>
        <time>2016-12-30T09:06:30.000Z</time>
      </trkpt>
      <trkpt lat="47.46704" lon="6.75271">
        <ele>402</ele>
        <time>2016-12-30T09:06:31.000Z</time>
      </trkpt>
      <trkpt lat="47.46705" lon="6.75266">
        <ele>402.1</ele>
        <time>2016-12-30T09:06:33.000Z</time>
      </trkpt>
      <trkpt lat="47.46707" lon="6.75265">
        <ele>402.3</ele>
        <time>2016-12-30T09:06:34.000Z</time>
      </trkpt>
      <trkpt lat="47.46709" lon="6.75262">
        <ele>402.5</ele>
        <time>2016-12-30T09:06:36.000Z</time>
      </trkpt>
      <trkpt lat="47.46711" lon="6.75262">
        <ele>402.6</ele>
        <time>2016-12-30T09:06:37.000Z</time>
      </trkpt>
      <trkpt lat="47.46713" lon="6.75259">
        <ele>402.7</ele>
        <time>2016-12-30T09:06:38.000Z</time>
      </trkpt>
      <trkpt lat="47.46715" lon="6.75256">
        <ele>402.8</ele>
        <time>2016-12-30T09:06:39.000Z</time>
      </trkpt>
      <trkpt lat="47.46714" lon="6.75253">
        <ele>402.9</ele>
        <time>2016-12-30T09:06:42.000Z</time>
      </trkpt>
      <trkpt lat="47.46712" lon="6.75249">
        <ele>403</ele>
        <time>2016-12-30T09:06:43.000Z</time>
      </trkpt>
      <trkpt lat="47.4671" lon="6.75243">
        <ele>403</ele>
        <time>2016-12-30T09:06:45.000Z</time>
      </trkpt>
      <trkpt lat="47.46709" lon="6.75242">
        <ele>403</ele>
        <time>2016-12-30T09:06:46.000Z</time>
      </trkpt>
      <trkpt lat="47.46708" lon="6.75236">
        <ele>403.1</ele>
        <time>2016-12-30T09:06:49.000Z</time>
      </trkpt>
      <trkpt lat="47.46708" lon="6.75234">
        <ele>403.1</ele>
        <time>2016-12-30T09:06:50.000Z</time>
      </trkpt>
      <trkpt lat="47.46708" lon="6.75229">
        <ele>403</ele>
        <time>2016-12-30T09:06:53.000Z</time>
      </trkpt>
      <trkpt lat="47.46708" lon="6.75225">
        <ele>403</ele>
        <time>2016-12-30T09:06:54.000Z</time>
      </trkpt>
      <trkpt lat="47.46709" lon="6.75219">
        <ele>402.9</ele>
        <time>2016-12-30T09:06:59.000Z</time>
      </trkpt>
      <trkpt lat="47.46708" lon="6.75214">
        <ele>402.8</ele>
        <time>2016-12-30T09:07:00.000Z</time>
      </trkpt>
      <trkpt lat="47.46708" lon="6.7521">
        <ele>402.7</ele>
        <time>2016-12-30T09:07:02.000Z</time>
      </trkpt>
      <trkpt lat="47.46707" lon="6.75207">
        <ele>402.6</ele>
        <time>2016-12-30T09:07:03.000Z</time>
      </trkpt>
      <trkpt lat="47.46707" lon="6.75202">
        <ele>402.6</ele>
        <time>2016-12-30T09:07:05.000Z</time>
      </trkpt>
      <trkpt lat="47.46707" lon="6.75195">
        <ele>402.6</ele>
        <time>2016-12-30T09:07:06.000Z</time>
      </trkpt>
      <trkpt lat="47.46707" lon="6.75191">
        <ele>402.7</ele>
        <time>2016-12-30T09:07:07.000Z</time>
      </trkpt>
      <trkpt lat="47.46708" lon="6.75185">
        <ele>402.6</ele>
        <time>2016-12-30T09:07:08.000Z</time>
      </trkpt>
      <trkpt lat="47.46709" lon="6.75182">
        <ele>402.7</ele>
        <time>2016-12-30T09:07:09.000Z</time>
      </trkpt>
      <trkpt lat="47.46709" lon="6.75178">
        <ele>402.7</ele>
        <time>2016-12-30T09:07:10.000Z</time>
      </trkpt>
      <trkpt lat="47.46709" lon="6.75174">
        <ele>402.7</ele>
        <time>2016-12-30T09:07:11.000Z</time>
      </trkpt>
      <trkpt lat="47.46709" lon="6.75171">
        <ele>402.7</ele>
        <time>2016-12-30T09:07:12.000Z</time>
      </trkpt>
      <trkpt lat="47.46708" lon="6.75166">
        <ele>402.8</ele>
        <time>2016-12-30T09:07:14.000Z</time>
      </trkpt>
      <trkpt lat="47.46707" lon="6.75163">
        <ele>402.8</ele>
        <time>2016-12-30T09:07:15.000Z</time>
      </trkpt>
      <trkpt lat="47.46706" lon="6.75158">
        <ele>403.1</ele>
        <time>2016-12-30T09:07:17.000Z</time>
      </trkpt>
      <trkpt lat="47.46707" lon="6.75155">
        <ele>403.3</ele>
        <time>2016-12-30T09:07:18.000Z</time>
      </trkpt>
      <trkpt lat="47.46707" lon="6.75148">
        <ele>403.5</ele>
        <time>2016-12-30T09:07:20.000Z</time>
      </trkpt>
      <trkpt lat="47.46707" lon="6.75147">
        <ele>403.5</ele>
        <time>2016-12-30T09:07:21.000Z</time>
      </trkpt>
      <trkpt lat="47.46708" lon="6.75142">
        <ele>403.6</ele>
        <time>2016-12-30T09:07:22.000Z</time>
      </trkpt>
      <trkpt lat="47.46708" lon="6.75138">
        <ele>403.6</ele>
        <time>2016-12-30T09:07:23.000Z</time>
      </trkpt>
      <trkpt lat="47.46708" lon="6.75132">
        <ele>403.6</ele>
        <time>2016-12-30T09:07:25.000Z</time>
      </trkpt>
      <trkpt lat="47.46708" lon="6.75128">
        <ele>403.5</ele>
        <time>2016-12-30T09:07:26.000Z</time>
      </trkpt>
      <trkpt lat="47.46708" lon="6.75122">
        <ele>403.5</ele>
        <time>2016-12-30T09:07:28.000Z</time>
      </trkpt>
      <trkpt lat="47.46708" lon="6.75121">
        <ele>403.5</ele>
        <time>2016-12-30T09:07:29.000Z</time>
      </trkpt>
      <trkpt lat="47.4671" lon="6.75114">
        <ele>403.4</ele>
        <time>2016-12-30T09:07:31.000Z</time>
      </trkpt>
      <trkpt lat="47.4671" lon="6.7511">
        <ele>403.3</ele>
        <time>2016-12-30T09:07:32.000Z</time>
      </trkpt>
      <trkpt lat="47.4671" lon="6.75104">
        <ele>403.4</ele>
        <time>2016-12-30T09:07:34.000Z</time>
      </trkpt>
      <trkpt lat="47.4671" lon="6.751">
        <ele>403.4</ele>
        <time>2016-12-30T09:07:35.000Z</time>
      </trkpt>
      <trkpt lat="47.4671" lon="6.75094">
        <ele>403.4</ele>
        <time>2016-12-30T09:07:37.000Z</time>
      </trkpt>
      <trkpt lat="47.46709" lon="6.75091">
        <ele>403.4</ele>
        <time>2016-12-30T09:07:38.000Z</time>
      </trkpt>
      <trkpt lat="47.46709" lon="6.75085">
        <ele>403.3</ele>
        <time>2016-12-30T09:07:40.000Z</time>
      </trkpt>
      <trkpt lat="47.46708" lon="6.75083">
        <ele>403.2</ele>
        <time>2016-12-30T09:07:41.000Z</time>
      </trkpt>
      <trkpt lat="47.46707" lon="6.75079">
        <ele>403.1</ele>
        <time>2016-12-30T09:07:42.000Z</time>
      </trkpt>
      <trkpt lat="47.46706" lon="6.75075">
        <ele>403</ele>
        <time>2016-12-30T09:07:43.000Z</time>
      </trkpt>
      <trkpt lat="47.46705" lon="6.75069">
        <ele>402.9</ele>
        <time>2016-12-30T09:07:45.000Z</time>
      </trkpt>
      <trkpt lat="47.46704" lon="6.75068">
        <ele>402.8</ele>
        <time>2016-12-30T09:07:46.000Z</time>
      </trkpt>
      <trkpt lat="47.46705" lon="6.75061">
        <ele>403.7</ele>
        <time>2016-12-30T09:07:52.000Z</time>
      </trkpt>
      <trkpt lat="47.46704" lon="6.7506">
        <ele>403.9</ele>
        <time>2016-12-30T09:07:53.000Z</time>
      </trkpt>
      <trkpt lat="47.46705" lon="6.75056">
        <ele>404.3</ele>
        <time>2016-12-30T09:07:56.000Z</time>
      </trkpt>
      <trkpt lat="47.46705" lon="6.75053">
        <ele>404.4</ele>
        <time>2016-12-30T09:07:57.000Z</time>
      </trkpt>
      <trkpt lat="47.46706" lon="6.75049">
        <ele>404.5</ele>
        <time>2016-12-30T09:07:58.000Z</time>
      </trkpt>
      <trkpt lat="47.46706" lon="6.75046">
        <ele>404.7</ele>
        <time>2016-12-30T09:07:59.000Z</time>
      </trkpt>
      <trkpt lat="47.46705" lon="6.75044">
        <ele>404.9</ele>
        <time>2016-12-30T09:08:00.000Z</time>
      </trkpt>
      <trkpt lat="47.46704" lon="6.75039">
        <ele>405</ele>
        <time>2016-12-30T09:08:01.000Z</time>
      </trkpt>
      <trkpt lat="47.46704" lon="6.75035">
        <ele>405.1</ele>
        <time>2016-12-30T09:08:02.000Z</time>
      </trkpt>
      <trkpt lat="47.46702" lon="6.7503">
        <ele>405.2</ele>
        <time>2016-12-30T09:08:03.000Z</time>
      </trkpt>
      <trkpt lat="47.467" lon="6.75027">
        <ele>405.2</ele>
        <time>2016-12-30T09:08:04.000Z</time>
      </trkpt>
      <trkpt lat="47.46699" lon="6.75023">
        <ele>405.4</ele>
        <time>2016-12-30T09:08:05.000Z</time>
      </trkpt>
      <trkpt lat="47.46697" lon="6.75018">
        <ele>405.7</ele>
        <time>2016-12-30T09:08:08.000Z</time>
      </trkpt>
      <trkpt lat="47.46697" lon="6.75017">
        <ele>405.7</ele>
        <time>2016-12-30T09:08:09.000Z</time>
      </trkpt>
      <trkpt lat="47.46698" lon="6.75015">
        <ele>405.8</ele>
        <time>2016-12-30T09:08:11.000Z</time>
      </trkpt>
      <trkpt lat="47.46699" lon="6.7501">
        <ele>405.8</ele>
        <time>2016-12-30T09:08:12.000Z</time>
      </trkpt>
      <trkpt lat="47.46699" lon="6.75005">
        <ele>405.7</ele>
        <time>2016-12-30T09:08:13.000Z</time>
      </trkpt>
      <trkpt lat="47.46699" lon="6.75">
        <ele>405.7</ele>
        <time>2016-12-30T09:08:14.000Z</time>
      </trkpt>
      <trkpt lat="47.46697" lon="6.74994">
        <ele>405.5</ele>
        <time>2016-12-30T09:08:16.000Z</time>
      </trkpt>
      <trkpt lat="47.46696" lon="6.74992">
        <ele>405.5</ele>
        <time>2016-12-30T09:08:17.000Z</time>
      </trkpt>
      <trkpt lat="47.46693" lon="6.74988">
        <ele>405.4</ele>
        <time>2016-12-30T09:08:18.000Z</time>
      </trkpt>
      <trkpt lat="47.46691" lon="6.74983">
        <ele>405.3</ele>
        <time>2016-12-30T09:08:19.000Z</time>
      </trkpt>
      <trkpt lat="47.4669" lon="6.7498">
        <ele>405.3</ele>
        <time>2016-12-30T09:08:20.000Z</time>
      </trkpt>
      <trkpt lat="47.46689" lon="6.74977">
        <ele>405.4</ele>
        <time>2016-12-30T09:08:21.000Z</time>
      </trkpt>
      <trkpt lat="47.46688" lon="6.7497">
        <ele>405.4</ele>
        <time>2016-12-30T09:08:23.000Z</time>
      </trkpt>
      <trkpt lat="47.46687" lon="6.74966">
        <ele>405.3</ele>
        <time>2016-12-30T09:08:24.000Z</time>
      </trkpt>
      <trkpt lat="47.46686" lon="6.74962">
        <ele>405.3</ele>
        <time>2016-12-30T09:08:25.000Z</time>
      </trkpt>
      <trkpt lat="47.46684" lon="6.74958">
        <ele>405.3</ele>
        <time>2016-12-30T09:08:26.000Z</time>
      </trkpt>
      <trkpt lat="47.46683" lon="6.74953">
        <ele>405.3</ele>
        <time>2016-12-30T09:08:28.000Z</time>
      </trkpt>
      <trkpt lat="47.46682" lon="6.7495">
        <ele>405.2</ele>
        <time>2016-12-30T09:08:29.000Z</time>
      </trkpt>
      <trkpt lat="47.46682" lon="6.74946">
        <ele>405.2</ele>
        <time>2016-12-30T09:08:30.000Z</time>
      </trkpt>
      <trkpt lat="47.46681" lon="6.74943">
        <ele>405.2</ele>
        <time>2016-12-30T09:08:31.000Z</time>
      </trkpt>
      <trkpt lat="47.4668" lon="6.74936">
        <ele>404.9</ele>
        <time>2016-12-30T09:08:33.000Z</time>
      </trkpt>
      <trkpt lat="47.46679" lon="6.74934">
        <ele>404.7</ele>
        <time>2016-12-30T09:08:34.000Z</time>
      </trkpt>
      <trkpt lat="47.46676" lon="6.74929">
        <ele>404.5</ele>
        <time>2016-12-30T09:08:36.000Z</time>
      </trkpt>
      <trkpt lat="47.46674" lon="6.74927">
        <ele>404.3</ele>
        <time>2016-12-30T09:08:37.000Z</time>
      </trkpt>
      <trkpt lat="47.46671" lon="6.74925">
        <ele>404.2</ele>
        <time>2016-12-30T09:08:38.000Z</time>
      </trkpt>
      <trkpt lat="47.46669" lon="6.74921">
        <ele>404.2</ele>
        <time>2016-12-30T09:08:39.000Z</time>
      </trkpt>
      <trkpt lat="47.46667" lon="6.74918">
        <ele>404.2</ele>
        <time>2016-12-30T09:08:40.000Z</time>
      </trkpt>
      <trkpt lat="47.46666" lon="6.74913">
        <ele>404.3</ele>
        <time>2016-12-30T09:08:41.000Z</time>
      </trkpt>
      <trkpt lat="47.46664" lon="6.74908">
        <ele>404.4</ele>
        <time>2016-12-30T09:08:42.000Z</time>
      </trkpt>
      <trkpt lat="47.46662" lon="6.74903">
        <ele>404.5</ele>
        <time>2016-12-30T09:08:43.000Z</time>
      </trkpt>
      <trkpt lat="47.4666" lon="6.74898">
        <ele>404.6</ele>
        <time>2016-12-30T09:08:44.000Z</time>
      </trkpt>
      <trkpt lat="47.46659" lon="6.74894">
        <ele>404.7</ele>
        <time>2016-12-30T09:08:45.000Z</time>
      </trkpt>
      <trkpt lat="47.46657" lon="6.7489">
        <ele>404.8</ele>
        <time>2016-12-30T09:08:46.000Z</time>
      </trkpt>
      <trkpt lat="47.46655" lon="6.74886">
        <ele>404.9</ele>
        <time>2016-12-30T09:08:47.000Z</time>
      </trkpt>
      <trkpt lat="47.46654" lon="6.74883">
        <ele>405</ele>
        <time>2016-12-30T09:08:48.000Z</time>
      </trkpt>
      <trkpt lat="47.46653" lon="6.74879">
        <ele>405.2</ele>
        <time>2016-12-30T09:08:49.000Z</time>
      </trkpt>
      <trkpt lat="47.46651" lon="6.74875">
        <ele>405.3</ele>
        <time>2016-12-30T09:08:50.000Z</time>
      </trkpt>
      <trkpt lat="47.4665" lon="6.74871">
        <ele>405.5</ele>
        <time>2016-12-30T09:08:51.000Z</time>
      </trkpt>
      <trkpt lat="47.46649" lon="6.74868">
        <ele>405.6</ele>
        <time>2016-12-30T09:08:52.000Z</time>
      </trkpt>
      <trkpt lat="47.46647" lon="6.74863">
        <ele>405.7</ele>
        <time>2016-12-30T09:08:53.000Z</time>
      </trkpt>
      <trkpt lat="47.46646" lon="6.7486">
        <ele>405.8</ele>
        <time>2016-12-30T09:08:54.000Z</time>
      </trkpt>
      <trkpt lat="47.46645" lon="6.74857">
        <ele>406</ele>
        <time>2016-12-30T09:08:55.000Z</time>
      </trkpt>
      <trkpt lat="47.46644" lon="6.74853">
        <ele>406.1</ele>
        <time>2016-12-30T09:08:56.000Z</time>
      </trkpt>
      <trkpt lat="47.46642" lon="6.7485">
        <ele>406.1</ele>
        <time>2016-12-30T09:08:57.000Z</time>
      </trkpt>
      <trkpt lat="47.4664" lon="6.74845">
        <ele>406.2</ele>
        <time>2016-12-30T09:08:59.000Z</time>
      </trkpt>
      <trkpt lat="47.46639" lon="6.74841">
        <ele>406.3</ele>
        <time>2016-12-30T09:09:00.000Z</time>
      </trkpt>
      <trkpt lat="47.46637" lon="6.74838">
        <ele>406.3</ele>
        <time>2016-12-30T09:09:01.000Z</time>
      </trkpt>
      <trkpt lat="47.46636" lon="6.74835">
        <ele>406.4</ele>
        <time>2016-12-30T09:09:02.000Z</time>
      </trkpt>
      <trkpt lat="47.46633" lon="6.74832">
        <ele>406.4</ele>
        <time>2016-12-30T09:09:04.000Z</time>
      </trkpt>
      <trkpt lat="47.46632" lon="6.7483">
        <ele>406.4</ele>
        <time>2016-12-30T09:09:05.000Z</time>
      </trkpt>
      <trkpt lat="47.46636" lon="6.74828">
        <ele>408</ele>
        <time>2016-12-30T09:09:20.000Z</time>
      </trkpt>
      <trkpt lat="47.46637" lon="6.74828">
        <ele>408.2</ele>
        <time>2016-12-30T09:09:21.000Z</time>
      </trkpt>
      <trkpt lat="47.46636" lon="6.74822">
        <ele>409.3</ele>
        <time>2016-12-30T09:09:26.000Z</time>
      </trkpt>
      <trkpt lat="47.46633" lon="6.74821">
        <ele>409.5</ele>
        <time>2016-12-30T09:09:27.000Z</time>
      </trkpt>
      <trkpt lat="47.4663" lon="6.7482">
        <ele>409.6</ele>
        <time>2016-12-30T09:09:28.000Z</time>
      </trkpt>
      <trkpt lat="47.46628" lon="6.7482">
        <ele>409.8</ele>
        <time>2016-12-30T09:09:29.000Z</time>
      </trkpt>
      <trkpt lat="47.46624" lon="6.74822">
        <ele>409.9</ele>
        <time>2016-12-30T09:09:31.000Z</time>
      </trkpt>
      <trkpt lat="47.46622" lon="6.74822">
        <ele>410</ele>
        <time>2016-12-30T09:09:32.000Z</time>
      </trkpt>
      <trkpt lat="47.46621" lon="6.74822">
        <ele>410</ele>
        <time>2016-12-30T09:09:33.000Z</time>
      </trkpt>
      <trkpt lat="47.46618" lon="6.74822">
        <ele>410.2</ele>
        <time>2016-12-30T09:09:34.000Z</time>
      </trkpt>
      <trkpt lat="47.46614" lon="6.74822">
        <ele>410.3</ele>
        <time>2016-12-30T09:09:35.000Z</time>
      </trkpt>
      <trkpt lat="47.46613" lon="6.74823">
        <ele>410.5</ele>
        <time>2016-12-30T09:09:36.000Z</time>
      </trkpt>
      <trkpt lat="47.46611" lon="6.74825">
        <ele>410.6</ele>
        <time>2016-12-30T09:09:37.000Z</time>
      </trkpt>
      <trkpt lat="47.46609" lon="6.74826">
        <ele>410.7</ele>
        <time>2016-12-30T09:09:38.000Z</time>
      </trkpt>
      <trkpt lat="47.46606" lon="6.74826">
        <ele>410.8</ele>
        <time>2016-12-30T09:09:39.000Z</time>
      </trkpt>
      <trkpt lat="47.46604" lon="6.74827">
        <ele>410.9</ele>
        <time>2016-12-30T09:09:40.000Z</time>
      </trkpt>
      <trkpt lat="47.46602" lon="6.74828">
        <ele>411.1</ele>
        <time>2016-12-30T09:09:42.000Z</time>
      </trkpt>
      <trkpt lat="47.46599" lon="6.7483">
        <ele>411.2</ele>
        <time>2016-12-30T09:09:43.000Z</time>
      </trkpt>
      <trkpt lat="47.46596" lon="6.74831">
        <ele>411.4</ele>
        <time>2016-12-30T09:09:45.000Z</time>
      </trkpt>
      <trkpt lat="47.46593" lon="6.74832">
        <ele>411.6</ele>
        <time>2016-12-30T09:09:46.000Z</time>
      </trkpt>
      <trkpt lat="47.4659" lon="6.74831">
        <ele>411.8</ele>
        <time>2016-12-30T09:09:48.000Z</time>
      </trkpt>
      <trkpt lat="47.46588" lon="6.74832">
        <ele>411.9</ele>
        <time>2016-12-30T09:09:49.000Z</time>
      </trkpt>
      <trkpt lat="47.46585" lon="6.74832">
        <ele>412.1</ele>
        <time>2016-12-30T09:09:51.000Z</time>
      </trkpt>
      <trkpt lat="47.46583" lon="6.74832">
        <ele>412.2</ele>
        <time>2016-12-30T09:09:52.000Z</time>
      </trkpt>
      <trkpt lat="47.4658" lon="6.7483">
        <ele>412.5</ele>
        <time>2016-12-30T09:09:54.000Z</time>
      </trkpt>
      <trkpt lat="47.46578" lon="6.7483">
        <ele>412.6</ele>
        <time>2016-12-30T09:09:55.000Z</time>
      </trkpt>
      <trkpt lat="47.46575" lon="6.7483">
        <ele>412.6</ele>
        <time>2016-12-30T09:09:56.000Z</time>
      </trkpt>
      <trkpt lat="47.46573" lon="6.74829">
        <ele>412.7</ele>
        <time>2016-12-30T09:09:57.000Z</time>
      </trkpt>
      <trkpt lat="47.46569" lon="6.74829">
        <ele>412.9</ele>
        <time>2016-12-30T09:10:00.000Z</time>
      </trkpt>
      <trkpt lat="47.46566" lon="6.74831">
        <ele>413</ele>
        <time>2016-12-30T09:10:01.000Z</time>
      </trkpt>
      <trkpt lat="47.46562" lon="6.7483">
        <ele>413.4</ele>
        <time>2016-12-30T09:10:04.000Z</time>
      </trkpt>
      <trkpt lat="47.46561" lon="6.74829">
        <ele>413.5</ele>
        <time>2016-12-30T09:10:05.000Z</time>
      </trkpt>
      <trkpt lat="47.46558" lon="6.74828">
        <ele>413.7</ele>
        <time>2016-12-30T09:10:07.000Z</time>
      </trkpt>
      <trkpt lat="47.46556" lon="6.74828">
        <ele>413.8</ele>
        <time>2016-12-30T09:10:08.000Z</time>
      </trkpt>
      <trkpt lat="47.46552" lon="6.74828">
        <ele>414</ele>
        <time>2016-12-30T09:10:10.000Z</time>
      </trkpt>
      <trkpt lat="47.4655" lon="6.74828">
        <ele>414.1</ele>
        <time>2016-12-30T09:10:11.000Z</time>
      </trkpt>
      <trkpt lat="47.46546" lon="6.74828">
        <ele>414.3</ele>
        <time>2016-12-30T09:10:13.000Z</time>
      </trkpt>
      <trkpt lat="47.46544" lon="6.74828">
        <ele>414.5</ele>
        <time>2016-12-30T09:10:14.000Z</time>
      </trkpt>
      <trkpt lat="47.46539" lon="6.74828">
        <ele>415</ele>
        <time>2016-12-30T09:10:17.000Z</time>
      </trkpt>
      <trkpt lat="47.46538" lon="6.74828">
        <ele>415.3</ele>
        <time>2016-12-30T09:10:18.000Z</time>
      </trkpt>
      <trkpt lat="47.46536" lon="6.74828">
        <ele>415.7</ele>
        <time>2016-12-30T09:10:20.000Z</time>
      </trkpt>
      <trkpt lat="47.46534" lon="6.74828">
        <ele>416</ele>
        <time>2016-12-30T09:10:21.000Z</time>
      </trkpt>
      <trkpt lat="47.46531" lon="6.74829">
        <ele>416.6</ele>
        <time>2016-12-30T09:10:23.000Z</time>
      </trkpt>
      <trkpt lat="47.46528" lon="6.74829">
        <ele>416.8</ele>
        <time>2016-12-30T09:10:24.000Z</time>
      </trkpt>
      <trkpt lat="47.46525" lon="6.74828">
        <ele>417.3</ele>
        <time>2016-12-30T09:10:26.000Z</time>
      </trkpt>
      <trkpt lat="47.46523" lon="6.74828">
        <ele>417.6</ele>
        <time>2016-12-30T09:10:27.000Z</time>
      </trkpt>
      <trkpt lat="47.4652" lon="6.74828">
        <ele>418.3</ele>
        <time>2016-12-30T09:10:29.000Z</time>
      </trkpt>
      <trkpt lat="47.46518" lon="6.74829">
        <ele>418.7</ele>
        <time>2016-12-30T09:10:30.000Z</time>
      </trkpt>
      <trkpt lat="47.46514" lon="6.74829">
        <ele>419.3</ele>
        <time>2016-12-30T09:10:32.000Z</time>
      </trkpt>
      <trkpt lat="47.46513" lon="6.74828">
        <ele>419.6</ele>
        <time>2016-12-30T09:10:33.000Z</time>
      </trkpt>
      <trkpt lat="47.4651" lon="6.74829">
        <ele>420.1</ele>
        <time>2016-12-30T09:10:35.000Z</time>
      </trkpt>
      <trkpt lat="47.46507" lon="6.7483">
        <ele>420.3</ele>
        <time>2016-12-30T09:10:36.000Z</time>
      </trkpt>
      <trkpt lat="47.46502" lon="6.7483">
        <ele>420.8</ele>
        <time>2016-12-30T09:10:39.000Z</time>
      </trkpt>
      <trkpt lat="47.465" lon="6.74829">
        <ele>420.9</ele>
        <time>2016-12-30T09:10:40.000Z</time>
      </trkpt>
      <trkpt lat="47.46498" lon="6.74828">
        <ele>421</ele>
        <time>2016-12-30T09:10:41.000Z</time>
      </trkpt>
      <trkpt lat="47.46495" lon="6.74827">
        <ele>421.1</ele>
        <time>2016-12-30T09:10:42.000Z</time>
      </trkpt>
      <trkpt lat="47.46491" lon="6.74825">
        <ele>421.4</ele>
        <time>2016-12-30T09:10:45.000Z</time>
      </trkpt>
      <trkpt lat="47.4649" lon="6.74824">
        <ele>421.5</ele>
        <time>2016-12-30T09:10:46.000Z</time>
      </trkpt>
      <trkpt lat="47.46486" lon="6.74823">
        <ele>421.7</ele>
        <time>2016-12-30T09:10:48.000Z</time>
      </trkpt>
      <trkpt lat="47.46485" lon="6.74822">
        <ele>421.8</ele>
        <time>2016-12-30T09:10:49.000Z</time>
      </trkpt>
      <trkpt lat="47.46483" lon="6.74821">
        <ele>421.9</ele>
        <time>2016-12-30T09:10:50.000Z</time>
      </trkpt>
      <trkpt lat="47.4648" lon="6.74821">
        <ele>422</ele>
        <time>2016-12-30T09:10:51.000Z</time>
      </trkpt>
      <trkpt lat="47.46478" lon="6.7482">
        <ele>422.2</ele>
        <time>2016-12-30T09:10:52.000Z</time>
      </trkpt>
      <trkpt lat="47.46476" lon="6.74819">
        <ele>422.4</ele>
        <time>2016-12-30T09:10:53.000Z</time>
      </trkpt>
      <trkpt lat="47.46472" lon="6.74818">
        <ele>422.8</ele>
        <time>2016-12-30T09:10:56.000Z</time>
      </trkpt>
      <trkpt lat="47.4647" lon="6.74818">
        <ele>422.9</ele>
        <time>2016-12-30T09:10:57.000Z</time>
      </trkpt>
      <trkpt lat="47.46466" lon="6.74819">
        <ele>423</ele>
        <time>2016-12-30T09:10:58.000Z</time>
      </trkpt>
      <trkpt lat="47.46465" lon="6.74818">
        <ele>423.1</ele>
        <time>2016-12-30T09:10:59.000Z</time>
      </trkpt>
      <trkpt lat="47.46461" lon="6.74819">
        <ele>423.6</ele>
        <time>2016-12-30T09:11:02.000Z</time>
      </trkpt>
      <trkpt lat="47.46459" lon="6.7482">
        <ele>423.7</ele>
        <time>2016-12-30T09:11:03.000Z</time>
      </trkpt>
      <trkpt lat="47.46454" lon="6.74821">
        <ele>423.8</ele>
        <time>2016-12-30T09:11:05.000Z</time>
      </trkpt>
      <trkpt lat="47.46454" lon="6.7482">
        <ele>423.9</ele>
        <time>2016-12-30T09:11:06.000Z</time>
      </trkpt>
      <trkpt lat="47.46451" lon="6.7482">
        <ele>424</ele>
        <time>2016-12-30T09:11:07.000Z</time>
      </trkpt>
      <trkpt lat="47.46448" lon="6.7482">
        <ele>424.1</ele>
        <time>2016-12-30T09:11:08.000Z</time>
      </trkpt>
      <trkpt lat="47.46445" lon="6.7482">
        <ele>424.3</ele>
        <time>2016-12-30T09:11:09.000Z</time>
      </trkpt>
      <trkpt lat="47.46442" lon="6.74821">
        <ele>424.5</ele>
        <time>2016-12-30T09:11:10.000Z</time>
      </trkpt>
      <trkpt lat="47.46439" lon="6.74821">
        <ele>424.7</ele>
        <time>2016-12-30T09:11:12.000Z</time>
      </trkpt>
      <trkpt lat="47.46437" lon="6.74822">
        <ele>424.9</ele>
        <time>2016-12-30T09:11:13.000Z</time>
      </trkpt>
      <trkpt lat="47.46433" lon="6.74822">
        <ele>425</ele>
        <time>2016-12-30T09:11:15.000Z</time>
      </trkpt>
      <trkpt lat="47.46432" lon="6.74823">
        <ele>425.1</ele>
        <time>2016-12-30T09:11:16.000Z</time>
      </trkpt>
      <trkpt lat="47.46428" lon="6.74823">
        <ele>425.5</ele>
        <time>2016-12-30T09:11:18.000Z</time>
      </trkpt>
      <trkpt lat="47.46427" lon="6.74822">
        <ele>425.6</ele>
        <time>2016-12-30T09:11:19.000Z</time>
      </trkpt>
      <trkpt lat="47.46423" lon="6.74823">
        <ele>426.1</ele>
        <time>2016-12-30T09:11:21.000Z</time>
      </trkpt>
      <trkpt lat="47.46421" lon="6.74822">
        <ele>426.3</ele>
        <time>2016-12-30T09:11:22.000Z</time>
      </trkpt>
      <trkpt lat="47.46417" lon="6.74821">
        <ele>426.8</ele>
        <time>2016-12-30T09:11:24.000Z</time>
      </trkpt>
      <trkpt lat="47.46415" lon="6.74821">
        <ele>427</ele>
        <time>2016-12-30T09:11:25.000Z</time>
      </trkpt>
      <trkpt lat="47.46411" lon="6.74821">
        <ele>427.7</ele>
        <time>2016-12-30T09:11:27.000Z</time>
      </trkpt>
      <trkpt lat="47.46408" lon="6.74821">
        <ele>428</ele>
        <time>2016-12-30T09:11:28.000Z</time>
      </trkpt>
      <trkpt lat="47.46404" lon="6.7482">
        <ele>428.7</ele>
        <time>2016-12-30T09:11:30.000Z</time>
      </trkpt>
      <trkpt lat="47.46402" lon="6.74819">
        <ele>429</ele>
        <time>2016-12-30T09:11:31.000Z</time>
      </trkpt>
      <trkpt lat="47.46399" lon="6.74818">
        <ele>429.3</ele>
        <time>2016-12-30T09:11:32.000Z</time>
      </trkpt>
      <trkpt lat="47.46395" lon="6.74817">
        <ele>429.6</ele>
        <time>2016-12-30T09:11:33.000Z</time>
      </trkpt>
      <trkpt lat="47.46392" lon="6.74816">
        <ele>429.9</ele>
        <time>2016-12-30T09:11:34.000Z</time>
      </trkpt>
      <trkpt lat="47.46389" lon="6.74815">
        <ele>430.2</ele>
        <time>2016-12-30T09:11:35.000Z</time>
      </trkpt>
      <trkpt lat="47.46386" lon="6.74816">
        <ele>430.7</ele>
        <time>2016-12-30T09:11:37.000Z</time>
      </trkpt>
      <trkpt lat="47.46384" lon="6.74816">
        <ele>431</ele>
        <time>2016-12-30T09:11:38.000Z</time>
      </trkpt>
      <trkpt lat="47.46381" lon="6.74816">
        <ele>431.3</ele>
        <time>2016-12-30T09:11:39.000Z</time>
      </trkpt>
      <trkpt lat="47.46379" lon="6.74816">
        <ele>431.6</ele>
        <time>2016-12-30T09:11:40.000Z</time>
      </trkpt>
      <trkpt lat="47.46375" lon="6.74816">
        <ele>432.6</ele>
        <time>2016-12-30T09:11:43.000Z</time>
      </trkpt>
      <trkpt lat="47.46372" lon="6.74815">
        <ele>432.8</ele>
        <time>2016-12-30T09:11:44.000Z</time>
      </trkpt>
      <trkpt lat="47.46368" lon="6.74814">
        <ele>433.3</ele>
        <time>2016-12-30T09:11:46.000Z</time>
      </trkpt>
      <trkpt lat="47.46367" lon="6.74813">
        <ele>433.5</ele>
        <time>2016-12-30T09:11:47.000Z</time>
      </trkpt>
      <trkpt lat="47.46365" lon="6.74813">
        <ele>433.7</ele>
        <time>2016-12-30T09:11:48.000Z</time>
      </trkpt>
      <trkpt lat="47.46363" lon="6.74814">
        <ele>434</ele>
        <time>2016-12-30T09:11:49.000Z</time>
      </trkpt>
      <trkpt lat="47.46359" lon="6.74812">
        <ele>434.4</ele>
        <time>2016-12-30T09:11:51.000Z</time>
      </trkpt>
      <trkpt lat="47.46358" lon="6.74813">
        <ele>434.7</ele>
        <time>2016-12-30T09:11:52.000Z</time>
      </trkpt>
      <trkpt lat="47.46355" lon="6.74812">
        <ele>435.2</ele>
        <time>2016-12-30T09:11:54.000Z</time>
      </trkpt>
      <trkpt lat="47.46353" lon="6.74812">
        <ele>435.3</ele>
        <time>2016-12-30T09:11:55.000Z</time>
      </trkpt>
      <trkpt lat="47.46348" lon="6.74814">
        <ele>435.5</ele>
        <time>2016-12-30T09:11:57.000Z</time>
      </trkpt>
      <trkpt lat="47.46347" lon="6.74814">
        <ele>435.6</ele>
        <time>2016-12-30T09:11:58.000Z</time>
      </trkpt>
      <trkpt lat="47.46344" lon="6.74816">
        <ele>435.8</ele>
        <time>2016-12-30T09:12:00.000Z</time>
      </trkpt>
      <trkpt lat="47.46342" lon="6.74817">
        <ele>436</ele>
        <time>2016-12-30T09:12:01.000Z</time>
      </trkpt>
      <trkpt lat="47.4634" lon="6.74818">
        <ele>436.1</ele>
        <time>2016-12-30T09:12:02.000Z</time>
      </trkpt>
      <trkpt lat="47.46337" lon="6.7482">
        <ele>436.3</ele>
        <time>2016-12-30T09:12:03.000Z</time>
      </trkpt>
      <trkpt lat="47.46335" lon="6.74822">
        <ele>436.4</ele>
        <time>2016-12-30T09:12:04.000Z</time>
      </trkpt>
      <trkpt lat="47.46332" lon="6.74823">
        <ele>436.6</ele>
        <time>2016-12-30T09:12:05.000Z</time>
      </trkpt>
      <trkpt lat="47.4633" lon="6.74824">
        <ele>436.8</ele>
        <time>2016-12-30T09:12:06.000Z</time>
      </trkpt>
      <trkpt lat="47.46327" lon="6.74824">
        <ele>436.9</ele>
        <time>2016-12-30T09:12:07.000Z</time>
      </trkpt>
      <trkpt lat="47.46324" lon="6.74824">
        <ele>437.1</ele>
        <time>2016-12-30T09:12:09.000Z</time>
      </trkpt>
      <trkpt lat="47.46322" lon="6.74823">
        <ele>437.3</ele>
        <time>2016-12-30T09:12:10.000Z</time>
      </trkpt>
      <trkpt lat="47.46318" lon="6.74822">
        <ele>437.4</ele>
        <time>2016-12-30T09:12:12.000Z</time>
      </trkpt>
      <trkpt lat="47.46315" lon="6.74822">
        <ele>437.5</ele>
        <time>2016-12-30T09:12:13.000Z</time>
      </trkpt>
      <trkpt lat="47.46313" lon="6.74822">
        <ele>437.5</ele>
        <time>2016-12-30T09:12:14.000Z</time>
      </trkpt>
      <trkpt lat="47.4631" lon="6.74821">
        <ele>437.6</ele>
        <time>2016-12-30T09:12:15.000Z</time>
      </trkpt>
      <trkpt lat="47.46306" lon="6.74818">
        <ele>437.7</ele>
        <time>2016-12-30T09:12:17.000Z</time>
      </trkpt>
      <trkpt lat="47.46303" lon="6.74818">
        <ele>437.7</ele>
        <time>2016-12-30T09:12:18.000Z</time>
      </trkpt>
      <trkpt lat="47.46298" lon="6.74817">
        <ele>437.7</ele>
        <time>2016-12-30T09:12:20.000Z</time>
      </trkpt>
      <trkpt lat="47.46296" lon="6.74817">
        <ele>437.7</ele>
        <time>2016-12-30T09:12:21.000Z</time>
      </trkpt>
      <trkpt lat="47.46292" lon="6.74814">
        <ele>437.7</ele>
        <time>2016-12-30T09:12:23.000Z</time>
      </trkpt>
      <trkpt lat="47.46289" lon="6.74813">
        <ele>437.8</ele>
        <time>2016-12-30T09:12:24.000Z</time>
      </trkpt>
      <trkpt lat="47.46285" lon="6.7481">
        <ele>438</ele>
        <time>2016-12-30T09:12:26.000Z</time>
      </trkpt>
      <trkpt lat="47.46282" lon="6.74809">
        <ele>438.3</ele>
        <time>2016-12-30T09:12:27.000Z</time>
      </trkpt>
      <trkpt lat="47.4628" lon="6.74809">
        <ele>438.5</ele>
        <time>2016-12-30T09:12:28.000Z</time>
      </trkpt>
      <trkpt lat="47.46278" lon="6.74809">
        <ele>438.7</ele>
        <time>2016-12-30T09:12:29.000Z</time>
      </trkpt>
      <trkpt lat="47.46273" lon="6.74808">
        <ele>439.1</ele>
        <time>2016-12-30T09:12:31.000Z</time>
      </trkpt>
      <trkpt lat="47.46271" lon="6.74808">
        <ele>439.3</ele>
        <time>2016-12-30T09:12:32.000Z</time>
      </trkpt>
      <trkpt lat="47.46267" lon="6.74809">
        <ele>439.6</ele>
        <time>2016-12-30T09:12:34.000Z</time>
      </trkpt>
      <trkpt lat="47.46265" lon="6.74809">
        <ele>439.7</ele>
        <time>2016-12-30T09:12:35.000Z</time>
      </trkpt>
      <trkpt lat="47.46263" lon="6.74809">
        <ele>439.7</ele>
        <time>2016-12-30T09:12:36.000Z</time>
      </trkpt>
      <trkpt lat="47.4626" lon="6.74809">
        <ele>439.7</ele>
        <time>2016-12-30T09:12:37.000Z</time>
      </trkpt>
      <trkpt lat="47.46257" lon="6.74809">
        <ele>439.6</ele>
        <time>2016-12-30T09:12:38.000Z</time>
      </trkpt>
      <trkpt lat="47.46254" lon="6.7481">
        <ele>439.5</ele>
        <time>2016-12-30T09:12:39.000Z</time>
      </trkpt>
      <trkpt lat="47.46251" lon="6.74809">
        <ele>439.2</ele>
        <time>2016-12-30T09:12:42.000Z</time>
      </trkpt>
      <trkpt lat="47.46249" lon="6.74809">
        <ele>439.2</ele>
        <time>2016-12-30T09:12:43.000Z</time>
      </trkpt>
      <trkpt lat="47.46246" lon="6.74808">
        <ele>439.2</ele>
        <time>2016-12-30T09:12:44.000Z</time>
      </trkpt>
      <trkpt lat="47.46244" lon="6.74808">
        <ele>439.2</ele>
        <time>2016-12-30T09:12:45.000Z</time>
      </trkpt>
      <trkpt lat="47.46241" lon="6.74807">
        <ele>439.1</ele>
        <time>2016-12-30T09:12:46.000Z</time>
      </trkpt>
      <trkpt lat="47.46238" lon="6.74807">
        <ele>439</ele>
        <time>2016-12-30T09:12:47.000Z</time>
      </trkpt>
      <trkpt lat="47.46234" lon="6.74807">
        <ele>438.8</ele>
        <time>2016-12-30T09:12:49.000Z</time>
      </trkpt>
      <trkpt lat="47.46233" lon="6.74806">
        <ele>438.8</ele>
        <time>2016-12-30T09:12:50.000Z</time>
      </trkpt>
      <trkpt lat="47.46231" lon="6.74806">
        <ele>438.7</ele>
        <time>2016-12-30T09:12:51.000Z</time>
      </trkpt>
      <trkpt lat="47.46228" lon="6.74806">
        <ele>438.7</ele>
        <time>2016-12-30T09:12:52.000Z</time>
      </trkpt>
      <trkpt lat="47.46224" lon="6.74806">
        <ele>438.7</ele>
        <time>2016-12-30T09:12:54.000Z</time>
      </trkpt>
      <trkpt lat="47.46222" lon="6.74806">
        <ele>438.7</ele>
        <time>2016-12-30T09:12:55.000Z</time>
      </trkpt>
      <trkpt lat="47.46219" lon="6.74806">
        <ele>438.8</ele>
        <time>2016-12-30T09:12:56.000Z</time>
      </trkpt>
      <trkpt lat="47.46216" lon="6.74806">
        <ele>438.8</ele>
        <time>2016-12-30T09:12:57.000Z</time>
      </trkpt>
      <trkpt lat="47.46213" lon="6.74805">
        <ele>438.9</ele>
        <time>2016-12-30T09:12:58.000Z</time>
      </trkpt>
      <trkpt lat="47.46211" lon="6.74805">
        <ele>438.9</ele>
        <time>2016-12-30T09:12:59.000Z</time>
      </trkpt>
      <trkpt lat="47.46207" lon="6.74805">
        <ele>439.1</ele>
        <time>2016-12-30T09:13:01.000Z</time>
      </trkpt>
      <trkpt lat="47.46205" lon="6.74804">
        <ele>439.2</ele>
        <time>2016-12-30T09:13:02.000Z</time>
      </trkpt>
      <trkpt lat="47.46202" lon="6.74803">
        <ele>439.4</ele>
        <time>2016-12-30T09:13:03.000Z</time>
      </trkpt>
      <trkpt lat="47.46199" lon="6.74802">
        <ele>439.4</ele>
        <time>2016-12-30T09:13:04.000Z</time>
      </trkpt>
      <trkpt lat="47.46197" lon="6.74802">
        <ele>439.6</ele>
        <time>2016-12-30T09:13:05.000Z</time>
      </trkpt>
      <trkpt lat="47.46195" lon="6.74801">
        <ele>439.7</ele>
        <time>2016-12-30T09:13:06.000Z</time>
      </trkpt>
      <trkpt lat="47.46192" lon="6.748">
        <ele>439.8</ele>
        <time>2016-12-30T09:13:07.000Z</time>
      </trkpt>
      <trkpt lat="47.4619" lon="6.74799">
        <ele>439.9</ele>
        <time>2016-12-30T09:13:08.000Z</time>
      </trkpt>
      <trkpt lat="47.46187" lon="6.74798">
        <ele>440.1</ele>
        <time>2016-12-30T09:13:09.000Z</time>
      </trkpt>
      <trkpt lat="47.46185" lon="6.74797">
        <ele>440.2</ele>
        <time>2016-12-30T09:13:10.000Z</time>
      </trkpt>
      <trkpt lat="47.46181" lon="6.74798">
        <ele>440.6</ele>
        <time>2016-12-30T09:13:12.000Z</time>
      </trkpt>
      <trkpt lat="47.46179" lon="6.74798">
        <ele>440.7</ele>
        <time>2016-12-30T09:13:13.000Z</time>
      </trkpt>
      <trkpt lat="47.46175" lon="6.748">
        <ele>441.1</ele>
        <time>2016-12-30T09:13:15.000Z</time>
      </trkpt>
      <trkpt lat="47.46174" lon="6.74801">
        <ele>441.3</ele>
        <time>2016-12-30T09:13:16.000Z</time>
      </trkpt>
      <trkpt lat="47.46171" lon="6.74804">
        <ele>441.5</ele>
        <time>2016-12-30T09:13:18.000Z</time>
      </trkpt>
      <trkpt lat="47.4617" lon="6.74805">
        <ele>441.6</ele>
        <time>2016-12-30T09:13:19.000Z</time>
      </trkpt>
      <trkpt lat="47.46167" lon="6.74808">
        <ele>441.7</ele>
        <time>2016-12-30T09:13:21.000Z</time>
      </trkpt>
      <trkpt lat="47.46165" lon="6.74809">
        <ele>441.7</ele>
        <time>2016-12-30T09:13:22.000Z</time>
      </trkpt>
      <trkpt lat="47.46161" lon="6.74811">
        <ele>441.8</ele>
        <time>2016-12-30T09:13:24.000Z</time>
      </trkpt>
      <trkpt lat="47.46159" lon="6.74812">
        <ele>441.9</ele>
        <time>2016-12-30T09:13:25.000Z</time>
      </trkpt>
      <trkpt lat="47.46155" lon="6.74812">
        <ele>442.1</ele>
        <time>2016-12-30T09:13:27.000Z</time>
      </trkpt>
      <trkpt lat="47.46153" lon="6.74813">
        <ele>442.2</ele>
        <time>2016-12-30T09:13:28.000Z</time>
      </trkpt>
      <trkpt lat="47.46149" lon="6.74814">
        <ele>442.5</ele>
        <time>2016-12-30T09:13:30.000Z</time>
      </trkpt>
      <trkpt lat="47.46147" lon="6.74814">
        <ele>442.5</ele>
        <time>2016-12-30T09:13:31.000Z</time>
      </trkpt>
      <trkpt lat="47.46143" lon="6.74813">
        <ele>442.7</ele>
        <time>2016-12-30T09:13:33.000Z</time>
      </trkpt>
      <trkpt lat="47.46141" lon="6.74812">
        <ele>442.7</ele>
        <time>2016-12-30T09:13:34.000Z</time>
      </trkpt>
      <trkpt lat="47.46139" lon="6.74812">
        <ele>442.7</ele>
        <time>2016-12-30T09:13:35.000Z</time>
      </trkpt>
      <trkpt lat="47.46136" lon="6.74812">
        <ele>442.8</ele>
        <time>2016-12-30T09:13:36.000Z</time>
      </trkpt>
      <trkpt lat="47.46132" lon="6.74812">
        <ele>443</ele>
        <time>2016-12-30T09:13:38.000Z</time>
      </trkpt>
      <trkpt lat="47.46131" lon="6.74812">
        <ele>443.1</ele>
        <time>2016-12-30T09:13:39.000Z</time>
      </trkpt>
      <trkpt lat="47.46127" lon="6.74811">
        <ele>443.2</ele>
        <time>2016-12-30T09:13:41.000Z</time>
      </trkpt>
      <trkpt lat="47.46125" lon="6.7481">
        <ele>443.3</ele>
        <time>2016-12-30T09:13:42.000Z</time>
      </trkpt>
      <trkpt lat="47.46121" lon="6.74809">
        <ele>443.5</ele>
        <time>2016-12-30T09:13:44.000Z</time>
      </trkpt>
      <trkpt lat="47.46119" lon="6.74809">
        <ele>443.6</ele>
        <time>2016-12-30T09:13:45.000Z</time>
      </trkpt>
      <trkpt lat="47.46116" lon="6.74807">
        <ele>443.8</ele>
        <time>2016-12-30T09:13:47.000Z</time>
      </trkpt>
      <trkpt lat="47.46114" lon="6.74806">
        <ele>443.9</ele>
        <time>2016-12-30T09:13:48.000Z</time>
      </trkpt>
      <trkpt lat="47.46112" lon="6.74804">
        <ele>443.9</ele>
        <time>2016-12-30T09:13:49.000Z</time>
      </trkpt>
      <trkpt lat="47.4611" lon="6.74802">
        <ele>444</ele>
        <time>2016-12-30T09:13:50.000Z</time>
      </trkpt>
      <trkpt lat="47.46108" lon="6.74801">
        <ele>444.1</ele>
        <time>2016-12-30T09:13:51.000Z</time>
      </trkpt>
      <trkpt lat="47.46106" lon="6.74799">
        <ele>444.2</ele>
        <time>2016-12-30T09:13:52.000Z</time>
      </trkpt>
      <trkpt lat="47.46102" lon="6.74796">
        <ele>444.4</ele>
        <time>2016-12-30T09:13:54.000Z</time>
      </trkpt>
      <trkpt lat="47.461" lon="6.74795">
        <ele>444.6</ele>
        <time>2016-12-30T09:13:55.000Z</time>
      </trkpt>
      <trkpt lat="47.46099" lon="6.74794">
        <ele>444.7</ele>
        <time>2016-12-30T09:13:56.000Z</time>
      </trkpt>
      <trkpt lat="47.46096" lon="6.74792">
        <ele>444.8</ele>
        <time>2016-12-30T09:13:57.000Z</time>
      </trkpt>
      <trkpt lat="47.46094" lon="6.7479">
        <ele>444.9</ele>
        <time>2016-12-30T09:13:58.000Z</time>
      </trkpt>
      <trkpt lat="47.46091" lon="6.74786">
        <ele>445.1</ele>
        <time>2016-12-30T09:14:00.000Z</time>
      </trkpt>
      <trkpt lat="47.46088" lon="6.74783">
        <ele>445.3</ele>
        <time>2016-12-30T09:14:02.000Z</time>
      </trkpt>
      <trkpt lat="47.46086" lon="6.74782">
        <ele>445.5</ele>
        <time>2016-12-30T09:14:03.000Z</time>
      </trkpt>
      <trkpt lat="47.46083" lon="6.7478">
        <ele>445.7</ele>
        <time>2016-12-30T09:14:05.000Z</time>
      </trkpt>
      <trkpt lat="47.46081" lon="6.74779">
        <ele>445.8</ele>
        <time>2016-12-30T09:14:06.000Z</time>
      </trkpt>
      <trkpt lat="47.46077" lon="6.74777">
        <ele>446</ele>
        <time>2016-12-30T09:14:08.000Z</time>
      </trkpt>
      <trkpt lat="47.46075" lon="6.74777">
        <ele>446.1</ele>
        <time>2016-12-30T09:14:09.000Z</time>
      </trkpt>
      <trkpt lat="47.46072" lon="6.74776">
        <ele>446.2</ele>
        <time>2016-12-30T09:14:11.000Z</time>
      </trkpt>
      <trkpt lat="47.4607" lon="6.74776">
        <ele>446.3</ele>
        <time>2016-12-30T09:14:12.000Z</time>
      </trkpt>
      <trkpt lat="47.46067" lon="6.74776">
        <ele>446.4</ele>
        <time>2016-12-30T09:14:14.000Z</time>
      </trkpt>
      <trkpt lat="47.46065" lon="6.74776">
        <ele>446.5</ele>
        <time>2016-12-30T09:14:15.000Z</time>
      </trkpt>
      <trkpt lat="47.46062" lon="6.74776">
        <ele>446.6</ele>
        <time>2016-12-30T09:14:16.000Z</time>
      </trkpt>
      <trkpt lat="47.4606" lon="6.74777">
        <ele>446.7</ele>
        <time>2016-12-30T09:14:17.000Z</time>
      </trkpt>
      <trkpt lat="47.46056" lon="6.74777">
        <ele>446.8</ele>
        <time>2016-12-30T09:14:19.000Z</time>
      </trkpt>
      <trkpt lat="47.46054" lon="6.74777">
        <ele>446.8</ele>
        <time>2016-12-30T09:14:20.000Z</time>
      </trkpt>
      <trkpt lat="47.46049" lon="6.74777">
        <ele>446.9</ele>
        <time>2016-12-30T09:14:22.000Z</time>
      </trkpt>
      <trkpt lat="47.46047" lon="6.74776">
        <ele>446.8</ele>
        <time>2016-12-30T09:14:23.000Z</time>
      </trkpt>
      <trkpt lat="47.46044" lon="6.74776">
        <ele>446.8</ele>
        <time>2016-12-30T09:14:24.000Z</time>
      </trkpt>
      <trkpt lat="47.46042" lon="6.74776">
        <ele>446.8</ele>
        <time>2016-12-30T09:14:25.000Z</time>
      </trkpt>
      <trkpt lat="47.46038" lon="6.74775">
        <ele>446.8</ele>
        <time>2016-12-30T09:14:27.000Z</time>
      </trkpt>
      <trkpt lat="47.46036" lon="6.74775">
        <ele>446.9</ele>
        <time>2016-12-30T09:14:28.000Z</time>
      </trkpt>
      <trkpt lat="47.46031" lon="6.74775">
        <ele>446.8</ele>
        <time>2016-12-30T09:14:30.000Z</time>
      </trkpt>
      <trkpt lat="47.46029" lon="6.74776">
        <ele>446.9</ele>
        <time>2016-12-30T09:14:31.000Z</time>
      </trkpt>
      <trkpt lat="47.46026" lon="6.74777">
        <ele>446.9</ele>
        <time>2016-12-30T09:14:32.000Z</time>
      </trkpt>
      <trkpt lat="47.46024" lon="6.74777">
        <ele>446.9</ele>
        <time>2016-12-30T09:14:33.000Z</time>
      </trkpt>
      <trkpt lat="47.46022" lon="6.74777">
        <ele>446.9</ele>
        <time>2016-12-30T09:14:34.000Z</time>
      </trkpt>
      <trkpt lat="47.46019" lon="6.74777">
        <ele>446.9</ele>
        <time>2016-12-30T09:14:35.000Z</time>
      </trkpt>
      <trkpt lat="47.46017" lon="6.74777">
        <ele>447</ele>
        <time>2016-12-30T09:14:36.000Z</time>
      </trkpt>
      <trkpt lat="47.46014" lon="6.74778">
        <ele>447</ele>
        <time>2016-12-30T09:14:37.000Z</time>
      </trkpt>
      <trkpt lat="47.46011" lon="6.74778">
        <ele>447.1</ele>
        <time>2016-12-30T09:14:38.000Z</time>
      </trkpt>
      <trkpt lat="47.46009" lon="6.74778">
        <ele>447.1</ele>
        <time>2016-12-30T09:14:39.000Z</time>
      </trkpt>
      <trkpt lat="47.46004" lon="6.74778">
        <ele>447.2</ele>
        <time>2016-12-30T09:14:41.000Z</time>
      </trkpt>
      <trkpt lat="47.46002" lon="6.74777">
        <ele>447.2</ele>
        <time>2016-12-30T09:14:42.000Z</time>
      </trkpt>
      <trkpt lat="47.45999" lon="6.74776">
        <ele>447.3</ele>
        <time>2016-12-30T09:14:43.000Z</time>
      </trkpt>
      <trkpt lat="47.45997" lon="6.74775">
        <ele>447.3</ele>
        <time>2016-12-30T09:14:44.000Z</time>
      </trkpt>
      <trkpt lat="47.45993" lon="6.74772">
        <ele>447.4</ele>
        <time>2016-12-30T09:14:46.000Z</time>
      </trkpt>
      <trkpt lat="47.45992" lon="6.74771">
        <ele>447.4</ele>
        <time>2016-12-30T09:14:47.000Z</time>
      </trkpt>
      <trkpt lat="47.45989" lon="6.74768">
        <ele>447.6</ele>
        <time>2016-12-30T09:14:49.000Z</time>
      </trkpt>
      <trkpt lat="47.45987" lon="6.74767">
        <ele>447.8</ele>
        <time>2016-12-30T09:14:50.000Z</time>
      </trkpt>
      <trkpt lat="47.45983" lon="6.74765">
        <ele>448.9</ele>
        <time>2016-12-30T09:14:57.000Z</time>
      </trkpt>
      <trkpt lat="47.45983" lon="6.74765">
        <ele>448.9</ele>
        <time>2016-12-30T09:14:58.000Z</time>
      </trkpt>
      <trkpt lat="47.45985" lon="6.74771">
        <ele>449.6</ele>
        <time>2016-12-30T09:15:09.000Z</time>
      </trkpt>
      <trkpt lat="47.45985" lon="6.74771">
        <ele>449.6</ele>
        <time>2016-12-30T09:15:10.000Z</time>
      </trkpt>
      <trkpt lat="47.45986" lon="6.74765">
        <ele>450.9</ele>
        <time>2016-12-30T09:15:29.000Z</time>
      </trkpt>
      <trkpt lat="47.45986" lon="6.74764">
        <ele>451</ele>
        <time>2016-12-30T09:15:30.000Z</time>
      </trkpt>
      <trkpt lat="47.45984" lon="6.74764">
        <ele>454</ele>
        <time>2016-12-30T09:15:55.000Z</time>
      </trkpt>
      <trkpt lat="47.45981" lon="6.74761">
        <ele>454</ele>
        <time>2016-12-30T09:15:56.000Z</time>
      </trkpt>
      <trkpt lat="47.45979" lon="6.74758">
        <ele>454.1</ele>
        <time>2016-12-30T09:15:57.000Z</time>
      </trkpt>
      <trkpt lat="47.45977" lon="6.74754">
        <ele>454.2</ele>
        <time>2016-12-30T09:15:58.000Z</time>
      </trkpt>
      <trkpt lat="47.45975" lon="6.74751">
        <ele>454.2</ele>
        <time>2016-12-30T09:15:59.000Z</time>
      </trkpt>
      <trkpt lat="47.45974" lon="6.74748">
        <ele>454.3</ele>
        <time>2016-12-30T09:16:00.000Z</time>
      </trkpt>
      <trkpt lat="47.45973" lon="6.74746">
        <ele>454.3</ele>
        <time>2016-12-30T09:16:01.000Z</time>
      </trkpt>
      <trkpt lat="47.45971" lon="6.74743">
        <ele>454.3</ele>
        <time>2016-12-30T09:16:02.000Z</time>
      </trkpt>
      <trkpt lat="47.45969" lon="6.74739">
        <ele>454.2</ele>
        <time>2016-12-30T09:16:03.000Z</time>
      </trkpt>
      <trkpt lat="47.45968" lon="6.74736">
        <ele>454.2</ele>
        <time>2016-12-30T09:16:04.000Z</time>
      </trkpt>
      <trkpt lat="47.45966" lon="6.74732">
        <ele>454.2</ele>
        <time>2016-12-30T09:16:05.000Z</time>
      </trkpt>
      <trkpt lat="47.45964" lon="6.74728">
        <ele>454.2</ele>
        <time>2016-12-30T09:16:06.000Z</time>
      </trkpt>
      <trkpt lat="47.45962" lon="6.74725">
        <ele>454.2</ele>
        <time>2016-12-30T09:16:07.000Z</time>
      </trkpt>
      <trkpt lat="47.4596" lon="6.74722">
        <ele>454.2</ele>
        <time>2016-12-30T09:16:08.000Z</time>
      </trkpt>
      <trkpt lat="47.45957" lon="6.74718">
        <ele>454.2</ele>
        <time>2016-12-30T09:16:09.000Z</time>
      </trkpt>
      <trkpt lat="47.45955" lon="6.74715">
        <ele>454.2</ele>
        <time>2016-12-30T09:16:10.000Z</time>
      </trkpt>
      <trkpt lat="47.45952" lon="6.74712">
        <ele>454.1</ele>
        <time>2016-12-30T09:16:11.000Z</time>
      </trkpt>
      <trkpt lat="47.45949" lon="6.74709">
        <ele>454.1</ele>
        <time>2016-12-30T09:16:12.000Z</time>
      </trkpt>
      <trkpt lat="47.45945" lon="6.74706">
        <ele>454.1</ele>
        <time>2016-12-30T09:16:13.000Z</time>
      </trkpt>
      <trkpt lat="47.45941" lon="6.74703">
        <ele>454</ele>
        <time>2016-12-30T09:16:14.000Z</time>
      </trkpt>
      <trkpt lat="47.45938" lon="6.74701">
        <ele>454</ele>
        <time>2016-12-30T09:16:15.000Z</time>
      </trkpt>
      <trkpt lat="47.45934" lon="6.747">
        <ele>454</ele>
        <time>2016-12-30T09:16:16.000Z</time>
      </trkpt>
      <trkpt lat="47.4593" lon="6.74698">
        <ele>454</ele>
        <time>2016-12-30T09:16:17.000Z</time>
      </trkpt>
      <trkpt lat="47.45925" lon="6.74697">
        <ele>454</ele>
        <time>2016-12-30T09:16:18.000Z</time>
      </trkpt>
      <trkpt lat="47.45921" lon="6.74696">
        <ele>454</ele>
        <time>2016-12-30T09:16:19.000Z</time>
      </trkpt>
      <trkpt lat="47.45917" lon="6.74694">
        <ele>454</ele>
        <time>2016-12-30T09:16:20.000Z</time>
      </trkpt>
      <trkpt lat="47.45915" lon="6.74693">
        <ele>454.1</ele>
        <time>2016-12-30T09:16:21.000Z</time>
      </trkpt>
      <trkpt lat="47.45911" lon="6.74692">
        <ele>454.1</ele>
        <time>2016-12-30T09:16:22.000Z</time>
      </trkpt>
      <trkpt lat="47.45908" lon="6.7469">
        <ele>454.1</ele>
        <time>2016-12-30T09:16:23.000Z</time>
      </trkpt>
      <trkpt lat="47.45904" lon="6.74688">
        <ele>454.2</ele>
        <time>2016-12-30T09:16:24.000Z</time>
      </trkpt>
      <trkpt lat="47.45901" lon="6.74687">
        <ele>454.2</ele>
        <time>2016-12-30T09:16:25.000Z</time>
      </trkpt>
      <trkpt lat="47.45898" lon="6.74686">
        <ele>454.2</ele>
        <time>2016-12-30T09:16:26.000Z</time>
      </trkpt>
      <trkpt lat="47.45893" lon="6.74685">
        <ele>454.2</ele>
        <time>2016-12-30T09:16:27.000Z</time>
      </trkpt>
      <trkpt lat="47.4589" lon="6.74684">
        <ele>454.2</ele>
        <time>2016-12-30T09:16:28.000Z</time>
      </trkpt>
      <trkpt lat="47.45886" lon="6.74682">
        <ele>454.2</ele>
        <time>2016-12-30T09:16:29.000Z</time>
      </trkpt>
      <trkpt lat="47.45883" lon="6.74681">
        <ele>454.2</ele>
        <time>2016-12-30T09:16:30.000Z</time>
      </trkpt>
      <trkpt lat="47.45879" lon="6.74678">
        <ele>454.2</ele>
        <time>2016-12-30T09:16:31.000Z</time>
      </trkpt>
      <trkpt lat="47.45877" lon="6.74676">
        <ele>454.2</ele>
        <time>2016-12-30T09:16:32.000Z</time>
      </trkpt>
      <trkpt lat="47.45873" lon="6.74673">
        <ele>454.3</ele>
        <time>2016-12-30T09:16:33.000Z</time>
      </trkpt>
      <trkpt lat="47.45869" lon="6.74672">
        <ele>454.2</ele>
        <time>2016-12-30T09:16:34.000Z</time>
      </trkpt>
      <trkpt lat="47.45867" lon="6.7467">
        <ele>454.2</ele>
        <time>2016-12-30T09:16:35.000Z</time>
      </trkpt>
      <trkpt lat="47.45863" lon="6.74668">
        <ele>454.2</ele>
        <time>2016-12-30T09:16:36.000Z</time>
      </trkpt>
      <trkpt lat="47.45861" lon="6.74666">
        <ele>454.3</ele>
        <time>2016-12-30T09:16:37.000Z</time>
      </trkpt>
      <trkpt lat="47.45858" lon="6.74665">
        <ele>454.3</ele>
        <time>2016-12-30T09:16:38.000Z</time>
      </trkpt>
      <trkpt lat="47.45854" lon="6.74665">
        <ele>454.3</ele>
        <time>2016-12-30T09:16:39.000Z</time>
      </trkpt>
      <trkpt lat="47.45852" lon="6.74665">
        <ele>454.4</ele>
        <time>2016-12-30T09:16:40.000Z</time>
      </trkpt>
      <trkpt lat="47.45849" lon="6.74666">
        <ele>454.5</ele>
        <time>2016-12-30T09:16:41.000Z</time>
      </trkpt>
      <trkpt lat="47.45846" lon="6.74667">
        <ele>454.5</ele>
        <time>2016-12-30T09:16:42.000Z</time>
      </trkpt>
      <trkpt lat="47.45842" lon="6.7467">
        <ele>454.6</ele>
        <time>2016-12-30T09:16:43.000Z</time>
      </trkpt>
      <trkpt lat="47.4584" lon="6.74673">
        <ele>454.7</ele>
        <time>2016-12-30T09:16:44.000Z</time>
      </trkpt>
      <trkpt lat="47.45838" lon="6.74677">
        <ele>454.8</ele>
        <time>2016-12-30T09:16:45.000Z</time>
      </trkpt>
      <trkpt lat="47.45836" lon="6.7468">
        <ele>454.9</ele>
        <time>2016-12-30T09:16:46.000Z</time>
      </trkpt>
      <trkpt lat="47.45835" lon="6.74686">
        <ele>454.9</ele>
        <time>2016-12-30T09:16:47.000Z</time>
      </trkpt>
      <trkpt lat="47.45834" lon="6.74691">
        <ele>455</ele>
        <time>2016-12-30T09:16:48.000Z</time>
      </trkpt>
      <trkpt lat="47.45834" lon="6.74696">
        <ele>455</ele>
        <time>2016-12-30T09:16:49.000Z</time>
      </trkpt>
      <trkpt lat="47.45832" lon="6.747">
        <ele>455.1</ele>
        <time>2016-12-30T09:16:50.000Z</time>
      </trkpt>
      <trkpt lat="47.4583" lon="6.74702">
        <ele>455.1</ele>
        <time>2016-12-30T09:16:51.000Z</time>
      </trkpt>
      <trkpt lat="47.45827" lon="6.74705">
        <ele>455.1</ele>
        <time>2016-12-30T09:16:52.000Z</time>
      </trkpt>
      <trkpt lat="47.45823" lon="6.74705">
        <ele>455</ele>
        <time>2016-12-30T09:16:53.000Z</time>
      </trkpt>
      <trkpt lat="47.45819" lon="6.74706">
        <ele>454.9</ele>
        <time>2016-12-30T09:16:54.000Z</time>
      </trkpt>
      <trkpt lat="47.45815" lon="6.74707">
        <ele>454.9</ele>
        <time>2016-12-30T09:16:55.000Z</time>
      </trkpt>
      <trkpt lat="47.45812" lon="6.74707">
        <ele>454.8</ele>
        <time>2016-12-30T09:16:56.000Z</time>
      </trkpt>
      <trkpt lat="47.45809" lon="6.74708">
        <ele>454.7</ele>
        <time>2016-12-30T09:16:57.000Z</time>
      </trkpt>
      <trkpt lat="47.45806" lon="6.74708">
        <ele>454.6</ele>
        <time>2016-12-30T09:16:58.000Z</time>
      </trkpt>
      <trkpt lat="47.45804" lon="6.74709">
        <ele>454.5</ele>
        <time>2016-12-30T09:16:59.000Z</time>
      </trkpt>
      <trkpt lat="47.45801" lon="6.74709">
        <ele>454.4</ele>
        <time>2016-12-30T09:17:00.000Z</time>
      </trkpt>
      <trkpt lat="47.45798" lon="6.74709">
        <ele>454.3</ele>
        <time>2016-12-30T09:17:01.000Z</time>
      </trkpt>
      <trkpt lat="47.45796" lon="6.74708">
        <ele>454.1</ele>
        <time>2016-12-30T09:17:02.000Z</time>
      </trkpt>
      <trkpt lat="47.45792" lon="6.74708">
        <ele>454</ele>
        <time>2016-12-30T09:17:03.000Z</time>
      </trkpt>
      <trkpt lat="47.45786" lon="6.74707">
        <ele>453.9</ele>
        <time>2016-12-30T09:17:04.000Z</time>
      </trkpt>
      <trkpt lat="47.45782" lon="6.74706">
        <ele>453.8</ele>
        <time>2016-12-30T09:17:05.000Z</time>
      </trkpt>
      <trkpt lat="47.45778" lon="6.74706">
        <ele>453.8</ele>
        <time>2016-12-30T09:17:06.000Z</time>
      </trkpt>
      <trkpt lat="47.45774" lon="6.74707">
        <ele>453.8</ele>
        <time>2016-12-30T09:17:07.000Z</time>
      </trkpt>
      <trkpt lat="47.45771" lon="6.74706">
        <ele>453.7</ele>
        <time>2016-12-30T09:17:08.000Z</time>
      </trkpt>
      <trkpt lat="47.45767" lon="6.74705">
        <ele>453.7</ele>
        <time>2016-12-30T09:17:09.000Z</time>
      </trkpt>
      <trkpt lat="47.45763" lon="6.74704">
        <ele>453.8</ele>
        <time>2016-12-30T09:17:10.000Z</time>
      </trkpt>
      <trkpt lat="47.45759" lon="6.74704">
        <ele>453.8</ele>
        <time>2016-12-30T09:17:11.000Z</time>
      </trkpt>
      <trkpt lat="47.45756" lon="6.74703">
        <ele>453.9</ele>
        <time>2016-12-30T09:17:12.000Z</time>
      </trkpt>
      <trkpt lat="47.45754" lon="6.74703">
        <ele>453.9</ele>
        <time>2016-12-30T09:17:13.000Z</time>
      </trkpt>
      <trkpt lat="47.45751" lon="6.74703">
        <ele>453.9</ele>
        <time>2016-12-30T09:17:14.000Z</time>
      </trkpt>
      <trkpt lat="47.45748" lon="6.74703">
        <ele>454</ele>
        <time>2016-12-30T09:17:15.000Z</time>
      </trkpt>
      <trkpt lat="47.45746" lon="6.74702">
        <ele>454</ele>
        <time>2016-12-30T09:17:16.000Z</time>
      </trkpt>
      <trkpt lat="47.45742" lon="6.74701">
        <ele>454</ele>
        <time>2016-12-30T09:17:17.000Z</time>
      </trkpt>
      <trkpt lat="47.4574" lon="6.747">
        <ele>454.1</ele>
        <time>2016-12-30T09:17:18.000Z</time>
      </trkpt>
      <trkpt lat="47.45736" lon="6.74698">
        <ele>454.4</ele>
        <time>2016-12-30T09:17:20.000Z</time>
      </trkpt>
      <trkpt lat="47.45734" lon="6.74696">
        <ele>454.6</ele>
        <time>2016-12-30T09:17:21.000Z</time>
      </trkpt>
      <trkpt lat="47.45732" lon="6.74695">
        <ele>454.7</ele>
        <time>2016-12-30T09:17:22.000Z</time>
      </trkpt>
      <trkpt lat="47.4573" lon="6.74693">
        <ele>454.8</ele>
        <time>2016-12-30T09:17:23.000Z</time>
      </trkpt>
      <trkpt lat="47.45727" lon="6.74691">
        <ele>455</ele>
        <time>2016-12-30T09:17:25.000Z</time>
      </trkpt>
      <trkpt lat="47.45725" lon="6.74687">
        <ele>455.1</ele>
        <time>2016-12-30T09:17:26.000Z</time>
      </trkpt>
      <trkpt lat="47.45723" lon="6.74684">
        <ele>455.4</ele>
        <time>2016-12-30T09:17:28.000Z</time>
      </trkpt>
      <trkpt lat="47.45721" lon="6.74683">
        <ele>455.5</ele>
        <time>2016-12-30T09:17:29.000Z</time>
      </trkpt>
      <trkpt lat="47.45717" lon="6.7468">
        <ele>455.5</ele>
        <time>2016-12-30T09:17:30.000Z</time>
      </trkpt>
      <trkpt lat="47.45715" lon="6.74678">
        <ele>455.6</ele>
        <time>2016-12-30T09:17:31.000Z</time>
      </trkpt>
      <trkpt lat="47.45712" lon="6.74674">
        <ele>456.1</ele>
        <time>2016-12-30T09:17:33.000Z</time>
      </trkpt>
      <trkpt lat="47.4571" lon="6.74671">
        <ele>456.2</ele>
        <time>2016-12-30T09:17:34.000Z</time>
      </trkpt>
      <trkpt lat="47.45708" lon="6.74669">
        <ele>456.3</ele>
        <time>2016-12-30T09:17:35.000Z</time>
      </trkpt>
      <trkpt lat="47.45706" lon="6.74667">
        <ele>456.5</ele>
        <time>2016-12-30T09:17:36.000Z</time>
      </trkpt>
      <trkpt lat="47.45703" lon="6.74662">
        <ele>456.7</ele>
        <time>2016-12-30T09:17:38.000Z</time>
      </trkpt>
      <trkpt lat="47.45703" lon="6.74662">
        <ele>456.8</ele>
        <time>2016-12-30T09:17:39.000Z</time>
      </trkpt>
      <trkpt lat="47.45701" lon="6.74657">
        <ele>456.9</ele>
        <time>2016-12-30T09:17:41.000Z</time>
      </trkpt>
      <trkpt lat="47.457" lon="6.74654">
        <ele>457</ele>
        <time>2016-12-30T09:17:42.000Z</time>
      </trkpt>
      <trkpt lat="47.45698" lon="6.7465">
        <ele>457</ele>
        <time>2016-12-30T09:17:43.000Z</time>
      </trkpt>
      <trkpt lat="47.45697" lon="6.74647">
        <ele>457.1</ele>
        <time>2016-12-30T09:17:44.000Z</time>
      </trkpt>
      <trkpt lat="47.45695" lon="6.74644">
        <ele>457.1</ele>
        <time>2016-12-30T09:17:45.000Z</time>
      </trkpt>
      <trkpt lat="47.45693" lon="6.7464">
        <ele>457.3</ele>
        <time>2016-12-30T09:17:46.000Z</time>
      </trkpt>
      <trkpt lat="47.4569" lon="6.74635">
        <ele>457.5</ele>
        <time>2016-12-30T09:17:48.000Z</time>
      </trkpt>
      <trkpt lat="47.45689" lon="6.74631">
        <ele>457.6</ele>
        <time>2016-12-30T09:17:49.000Z</time>
      </trkpt>
      <trkpt lat="47.45686" lon="6.74628">
        <ele>457.7</ele>
        <time>2016-12-30T09:17:51.000Z</time>
      </trkpt>
      <trkpt lat="47.45685" lon="6.74625">
        <ele>457.8</ele>
        <time>2016-12-30T09:17:52.000Z</time>
      </trkpt>
      <trkpt lat="47.45682" lon="6.74624">
        <ele>458</ele>
        <time>2016-12-30T09:17:58.000Z</time>
      </trkpt>
      <trkpt lat="47.45681" lon="6.74623">
        <ele>457.8</ele>
        <time>2016-12-30T09:17:59.000Z</time>
      </trkpt>
      <trkpt lat="47.45678" lon="6.7462">
        <ele>457.6</ele>
        <time>2016-12-30T09:18:02.000Z</time>
      </trkpt>
      <trkpt lat="47.45677" lon="6.74619">
        <ele>457.7</ele>
        <time>2016-12-30T09:18:03.000Z</time>
      </trkpt>
      <trkpt lat="47.45672" lon="6.74619">
        <ele>457.6</ele>
        <time>2016-12-30T09:18:06.000Z</time>
      </trkpt>
      <trkpt lat="47.4567" lon="6.7462">
        <ele>457.6</ele>
        <time>2016-12-30T09:18:07.000Z</time>
      </trkpt>
      <trkpt lat="47.45667" lon="6.74623">
        <ele>457.6</ele>
        <time>2016-12-30T09:18:09.000Z</time>
      </trkpt>
      <trkpt lat="47.45665" lon="6.74625">
        <ele>457.8</ele>
        <time>2016-12-30T09:18:10.000Z</time>
      </trkpt>
      <trkpt lat="47.45662" lon="6.74626">
        <ele>457.9</ele>
        <time>2016-12-30T09:18:11.000Z</time>
      </trkpt>
      <trkpt lat="47.4566" lon="6.74627">
        <ele>458</ele>
        <time>2016-12-30T09:18:12.000Z</time>
      </trkpt>
      <trkpt lat="47.45658" lon="6.74627">
        <ele>458.1</ele>
        <time>2016-12-30T09:18:16.000Z</time>
      </trkpt>
      <trkpt lat="47.45656" lon="6.74631">
        <ele>458.1</ele>
        <time>2016-12-30T09:18:17.000Z</time>
      </trkpt>
      <trkpt lat="47.45654" lon="6.74635">
        <ele>458.2</ele>
        <time>2016-12-30T09:18:18.000Z</time>
      </trkpt>
      <trkpt lat="47.45652" lon="6.74638">
        <ele>458.2</ele>
        <time>2016-12-30T09:18:19.000Z</time>
      </trkpt>
      <trkpt lat="47.45651" lon="6.7464">
        <ele>458.3</ele>
        <time>2016-12-30T09:18:20.000Z</time>
      </trkpt>
      <trkpt lat="47.45649" lon="6.74643">
        <ele>458.3</ele>
        <time>2016-12-30T09:18:21.000Z</time>
      </trkpt>
      <trkpt lat="47.45646" lon="6.74647">
        <ele>458.2</ele>
        <time>2016-12-30T09:18:22.000Z</time>
      </trkpt>
      <trkpt lat="47.45644" lon="6.74651">
        <ele>458.3</ele>
        <time>2016-12-30T09:18:23.000Z</time>
      </trkpt>
      <trkpt lat="47.45643" lon="6.74653">
        <ele>458.3</ele>
        <time>2016-12-30T09:18:24.000Z</time>
      </trkpt>
      <trkpt lat="47.4564" lon="6.74656">
        <ele>458.4</ele>
        <time>2016-12-30T09:18:25.000Z</time>
      </trkpt>
      <trkpt lat="47.45637" lon="6.74659">
        <ele>458.5</ele>
        <time>2016-12-30T09:18:27.000Z</time>
      </trkpt>
      <trkpt lat="47.45635" lon="6.74662">
        <ele>458.6</ele>
        <time>2016-12-30T09:18:28.000Z</time>
      </trkpt>
      <trkpt lat="47.45632" lon="6.74664">
        <ele>458.7</ele>
        <time>2016-12-30T09:18:30.000Z</time>
      </trkpt>
      <trkpt lat="47.45629" lon="6.74666">
        <ele>458.8</ele>
        <time>2016-12-30T09:18:31.000Z</time>
      </trkpt>
      <trkpt lat="47.45625" lon="6.74668">
        <ele>458.9</ele>
        <time>2016-12-30T09:18:33.000Z</time>
      </trkpt>
      <trkpt lat="47.45624" lon="6.74669">
        <ele>458.9</ele>
        <time>2016-12-30T09:18:34.000Z</time>
      </trkpt>
      <trkpt lat="47.4562" lon="6.74672">
        <ele>458.9</ele>
        <time>2016-12-30T09:18:35.000Z</time>
      </trkpt>
      <trkpt lat="47.45617" lon="6.74675">
        <ele>458.9</ele>
        <time>2016-12-30T09:18:36.000Z</time>
      </trkpt>
      <trkpt lat="47.45614" lon="6.74678">
        <ele>458.9</ele>
        <time>2016-12-30T09:18:37.000Z</time>
      </trkpt>
      <trkpt lat="47.45611" lon="6.74681">
        <ele>458.9</ele>
        <time>2016-12-30T09:18:38.000Z</time>
      </trkpt>
      <trkpt lat="47.45609" lon="6.74683">
        <ele>458.9</ele>
        <time>2016-12-30T09:18:39.000Z</time>
      </trkpt>
      <trkpt lat="47.45606" lon="6.74685">
        <ele>458.9</ele>
        <time>2016-12-30T09:18:40.000Z</time>
      </trkpt>
      <trkpt lat="47.45602" lon="6.74687">
        <ele>458.8</ele>
        <time>2016-12-30T09:18:41.000Z</time>
      </trkpt>
      <trkpt lat="47.45598" lon="6.7469">
        <ele>458.8</ele>
        <time>2016-12-30T09:18:42.000Z</time>
      </trkpt>
      <trkpt lat="47.45594" lon="6.74694">
        <ele>458.9</ele>
        <time>2016-12-30T09:18:43.000Z</time>
      </trkpt>
      <trkpt lat="47.45591" lon="6.74696">
        <ele>458.8</ele>
        <time>2016-12-30T09:18:44.000Z</time>
      </trkpt>
      <trkpt lat="47.45587" lon="6.74699">
        <ele>458.6</ele>
        <time>2016-12-30T09:18:45.000Z</time>
      </trkpt>
      <trkpt lat="47.45581" lon="6.74703">
        <ele>457.1</ele>
        <time>2016-12-30T09:18:46.000Z</time>
      </trkpt>
      <trkpt lat="47.45576" lon="6.74708">
        <ele>455.4</ele>
        <time>2016-12-30T09:18:47.000Z</time>
      </trkpt>
      <trkpt lat="47.45572" lon="6.7471">
        <ele>454</ele>
        <time>2016-12-30T09:18:48.000Z</time>
      </trkpt>
      <trkpt lat="47.45566" lon="6.74714">
        <ele>453.4</ele>
        <time>2016-12-30T09:18:49.000Z</time>
      </trkpt>
      <trkpt lat="47.4556" lon="6.7472">
        <ele>453.2</ele>
        <time>2016-12-30T09:18:50.000Z</time>
      </trkpt>
      <trkpt lat="47.45553" lon="6.74725">
        <ele>452.5</ele>
        <time>2016-12-30T09:18:51.000Z</time>
      </trkpt>
      <trkpt lat="47.45547" lon="6.74729">
        <ele>451.8</ele>
        <time>2016-12-30T09:18:52.000Z</time>
      </trkpt>
      <trkpt lat="47.4554" lon="6.74736">
        <ele>451</ele>
        <time>2016-12-30T09:18:53.000Z</time>
      </trkpt>
      <trkpt lat="47.45533" lon="6.74741">
        <ele>450.8</ele>
        <time>2016-12-30T09:18:54.000Z</time>
      </trkpt>
      <trkpt lat="47.45527" lon="6.74744">
        <ele>450.9</ele>
        <time>2016-12-30T09:18:55.000Z</time>
      </trkpt>
      <trkpt lat="47.45521" lon="6.74749">
        <ele>451.1</ele>
        <time>2016-12-30T09:18:56.000Z</time>
      </trkpt>
      <trkpt lat="47.45516" lon="6.74753">
        <ele>451.2</ele>
        <time>2016-12-30T09:18:57.000Z</time>
      </trkpt>
      <trkpt lat="47.45511" lon="6.74758">
        <ele>451</ele>
        <time>2016-12-30T09:18:58.000Z</time>
      </trkpt>
      <trkpt lat="47.45506" lon="6.74763">
        <ele>450.5</ele>
        <time>2016-12-30T09:18:59.000Z</time>
      </trkpt>
      <trkpt lat="47.455" lon="6.74769">
        <ele>449.2</ele>
        <time>2016-12-30T09:19:00.000Z</time>
      </trkpt>
      <trkpt lat="47.45494" lon="6.74773">
        <ele>447.8</ele>
        <time>2016-12-30T09:19:01.000Z</time>
      </trkpt>
      <trkpt lat="47.45487" lon="6.74777">
        <ele>447.1</ele>
        <time>2016-12-30T09:19:02.000Z</time>
      </trkpt>
      <trkpt lat="47.4548" lon="6.74783">
        <ele>446.2</ele>
        <time>2016-12-30T09:19:03.000Z</time>
      </trkpt>
      <trkpt lat="47.45472" lon="6.74788">
        <ele>445.7</ele>
        <time>2016-12-30T09:19:04.000Z</time>
      </trkpt>
      <trkpt lat="47.45465" lon="6.74793">
        <ele>445</ele>
        <time>2016-12-30T09:19:05.000Z</time>
      </trkpt>
      <trkpt lat="47.45459" lon="6.74799">
        <ele>444.2</ele>
        <time>2016-12-30T09:19:06.000Z</time>
      </trkpt>
      <trkpt lat="47.45453" lon="6.74803">
        <ele>443.6</ele>
        <time>2016-12-30T09:19:07.000Z</time>
      </trkpt>
      <trkpt lat="47.45448" lon="6.74806">
        <ele>443.3</ele>
        <time>2016-12-30T09:19:08.000Z</time>
      </trkpt>
      <trkpt lat="47.45443" lon="6.7481">
        <ele>443</ele>
        <time>2016-12-30T09:19:09.000Z</time>
      </trkpt>
      <trkpt lat="47.45438" lon="6.74813">
        <ele>442.4</ele>
        <time>2016-12-30T09:19:10.000Z</time>
      </trkpt>
      <trkpt lat="47.45432" lon="6.74817">
        <ele>442.5</ele>
        <time>2016-12-30T09:19:11.000Z</time>
      </trkpt>
      <trkpt lat="47.45427" lon="6.74823">
        <ele>443.2</ele>
        <time>2016-12-30T09:19:12.000Z</time>
      </trkpt>
      <trkpt lat="47.45421" lon="6.74828">
        <ele>443.3</ele>
        <time>2016-12-30T09:19:13.000Z</time>
      </trkpt>
      <trkpt lat="47.45418" lon="6.74831">
        <ele>443.2</ele>
        <time>2016-12-30T09:19:14.000Z</time>
      </trkpt>
      <trkpt lat="47.45413" lon="6.74834">
        <ele>443.1</ele>
        <time>2016-12-30T09:19:15.000Z</time>
      </trkpt>
      <trkpt lat="47.45409" lon="6.74838">
        <ele>441.9</ele>
        <time>2016-12-30T09:19:16.000Z</time>
      </trkpt>
      <trkpt lat="47.45404" lon="6.74843">
        <ele>441.8</ele>
        <time>2016-12-30T09:19:17.000Z</time>
      </trkpt>
      <trkpt lat="47.454" lon="6.74846">
        <ele>441.7</ele>
        <time>2016-12-30T09:19:18.000Z</time>
      </trkpt>
      <trkpt lat="47.45396" lon="6.7485">
        <ele>441.7</ele>
        <time>2016-12-30T09:19:19.000Z</time>
      </trkpt>
      <trkpt lat="47.45392" lon="6.74855">
        <ele>441.5</ele>
        <time>2016-12-30T09:19:20.000Z</time>
      </trkpt>
      <trkpt lat="47.45389" lon="6.74858">
        <ele>441.3</ele>
        <time>2016-12-30T09:19:21.000Z</time>
      </trkpt>
      <trkpt lat="47.45386" lon="6.7486">
        <ele>441.2</ele>
        <time>2016-12-30T09:19:22.000Z</time>
      </trkpt>
      <trkpt lat="47.45384" lon="6.74861">
        <ele>441</ele>
        <time>2016-12-30T09:19:23.000Z</time>
      </trkpt>
      <trkpt lat="47.45381" lon="6.74864">
        <ele>440.9</ele>
        <time>2016-12-30T09:19:24.000Z</time>
      </trkpt>
      <trkpt lat="47.45377" lon="6.74868">
        <ele>440.7</ele>
        <time>2016-12-30T09:19:25.000Z</time>
      </trkpt>
      <trkpt lat="47.45375" lon="6.7487">
        <ele>440.6</ele>
        <time>2016-12-30T09:19:26.000Z</time>
      </trkpt>
      <trkpt lat="47.45372" lon="6.74875">
        <ele>440.1</ele>
        <time>2016-12-30T09:19:28.000Z</time>
      </trkpt>
      <trkpt lat="47.4537" lon="6.74877">
        <ele>439.9</ele>
        <time>2016-12-30T09:19:29.000Z</time>
      </trkpt>
      <trkpt lat="47.45367" lon="6.74879">
        <ele>439.7</ele>
        <time>2016-12-30T09:19:30.000Z</time>
      </trkpt>
      <trkpt lat="47.45364" lon="6.74882">
        <ele>439.4</ele>
        <time>2016-12-30T09:19:31.000Z</time>
      </trkpt>
      <trkpt lat="47.45362" lon="6.74885">
        <ele>439.1</ele>
        <time>2016-12-30T09:19:32.000Z</time>
      </trkpt>
      <trkpt lat="47.45359" lon="6.74888">
        <ele>438.8</ele>
        <time>2016-12-30T09:19:33.000Z</time>
      </trkpt>
      <trkpt lat="47.45355" lon="6.74891">
        <ele>435.5</ele>
        <time>2016-12-30T09:19:34.000Z</time>
      </trkpt>
      <trkpt lat="47.4535" lon="6.74893">
        <ele>432.3</ele>
        <time>2016-12-30T09:19:35.000Z</time>
      </trkpt>
      <trkpt lat="47.45346" lon="6.74896">
        <ele>432.1</ele>
        <time>2016-12-30T09:19:36.000Z</time>
      </trkpt>
      <trkpt lat="47.45344" lon="6.749">
        <ele>431.8</ele>
        <time>2016-12-30T09:19:45.000Z</time>
      </trkpt>
      <trkpt lat="47.45341" lon="6.74905">
        <ele>430.9</ele>
        <time>2016-12-30T09:19:46.000Z</time>
      </trkpt>
      <trkpt lat="47.45338" lon="6.74907">
        <ele>430.8</ele>
        <time>2016-12-30T09:19:47.000Z</time>
      </trkpt>
      <trkpt lat="47.45334" lon="6.74909">
        <ele>428.4</ele>
        <time>2016-12-30T09:19:48.000Z</time>
      </trkpt>
      <trkpt lat="47.45329" lon="6.74913">
        <ele>425.8</ele>
        <time>2016-12-30T09:19:49.000Z</time>
      </trkpt>
      <trkpt lat="47.45322" lon="6.74917">
        <ele>423.5</ele>
        <time>2016-12-30T09:19:50.000Z</time>
      </trkpt>
      <trkpt lat="47.45315" lon="6.74921">
        <ele>420.4</ele>
        <time>2016-12-30T09:19:51.000Z</time>
      </trkpt>
      <trkpt lat="47.45308" lon="6.74926">
        <ele>418.1</ele>
        <time>2016-12-30T09:19:52.000Z</time>
      </trkpt>
      <trkpt lat="47.45301" lon="6.74933">
        <ele>416.6</ele>
        <time>2016-12-30T09:19:53.000Z</time>
      </trkpt>
      <trkpt lat="47.45293" lon="6.74938">
        <ele>414.4</ele>
        <time>2016-12-30T09:19:54.000Z</time>
      </trkpt>
      <trkpt lat="47.45289" lon="6.74943">
        <ele>411.6</ele>
        <time>2016-12-30T09:19:55.000Z</time>
      </trkpt>
      <trkpt lat="47.45286" lon="6.74946">
        <ele>411.3</ele>
        <time>2016-12-30T09:19:56.000Z</time>
      </trkpt>
      <trkpt lat="47.45284" lon="6.74951">
        <ele>411</ele>
        <time>2016-12-30T09:19:57.000Z</time>
      </trkpt>
      <trkpt lat="47.45282" lon="6.74955">
        <ele>410.6</ele>
        <time>2016-12-30T09:19:58.000Z</time>
      </trkpt>
      <trkpt lat="47.45278" lon="6.74958">
        <ele>410.4</ele>
        <time>2016-12-30T09:19:59.000Z</time>
      </trkpt>
      <trkpt lat="47.45274" lon="6.74962">
        <ele>410.1</ele>
        <time>2016-12-30T09:20:00.000Z</time>
      </trkpt>
      <trkpt lat="47.45271" lon="6.74965">
        <ele>409.9</ele>
        <time>2016-12-30T09:20:01.000Z</time>
      </trkpt>
      <trkpt lat="47.45267" lon="6.74968">
        <ele>409.6</ele>
        <time>2016-12-30T09:20:02.000Z</time>
      </trkpt>
      <trkpt lat="47.45263" lon="6.74971">
        <ele>409.3</ele>
        <time>2016-12-30T09:20:03.000Z</time>
      </trkpt>
      <trkpt lat="47.45261" lon="6.74971">
        <ele>409.1</ele>
        <time>2016-12-30T09:20:04.000Z</time>
      </trkpt>
      <trkpt lat="47.45258" lon="6.7497">
        <ele>408.8</ele>
        <time>2016-12-30T09:20:05.000Z</time>
      </trkpt>
      <trkpt lat="47.45256" lon="6.74969">
        <ele>408.5</ele>
        <time>2016-12-30T09:20:06.000Z</time>
      </trkpt>
      <trkpt lat="47.45254" lon="6.7497">
        <ele>408.1</ele>
        <time>2016-12-30T09:20:07.000Z</time>
      </trkpt>
      <trkpt lat="47.4525" lon="6.74971">
        <ele>407.7</ele>
        <time>2016-12-30T09:20:08.000Z</time>
      </trkpt>
      <trkpt lat="47.45247" lon="6.74971">
        <ele>407.4</ele>
        <time>2016-12-30T09:20:09.000Z</time>
      </trkpt>
      <trkpt lat="47.45246" lon="6.74967">
        <ele>406.6</ele>
        <time>2016-12-30T09:20:11.000Z</time>
      </trkpt>
      <trkpt lat="47.45245" lon="6.74965">
        <ele>406.3</ele>
        <time>2016-12-30T09:20:12.000Z</time>
      </trkpt>
      <trkpt lat="47.45244" lon="6.74962">
        <ele>405.9</ele>
        <time>2016-12-30T09:20:13.000Z</time>
      </trkpt>
      <trkpt lat="47.45244" lon="6.74958">
        <ele>405.5</ele>
        <time>2016-12-30T09:20:14.000Z</time>
      </trkpt>
      <trkpt lat="47.45244" lon="6.74954">
        <ele>405.3</ele>
        <time>2016-12-30T09:20:15.000Z</time>
      </trkpt>
      <trkpt lat="47.45244" lon="6.7495">
        <ele>405</ele>
        <time>2016-12-30T09:20:16.000Z</time>
      </trkpt>
      <trkpt lat="47.45243" lon="6.74947">
        <ele>404.9</ele>
        <time>2016-12-30T09:20:17.000Z</time>
      </trkpt>
      <trkpt lat="47.45243" lon="6.74941">
        <ele>404.7</ele>
        <time>2016-12-30T09:20:18.000Z</time>
      </trkpt>
      <trkpt lat="47.45243" lon="6.74937">
        <ele>404.5</ele>
        <time>2016-12-30T09:20:19.000Z</time>
      </trkpt>
      <trkpt lat="47.45243" lon="6.74932">
        <ele>404.3</ele>
        <time>2016-12-30T09:20:20.000Z</time>
      </trkpt>
      <trkpt lat="47.45242" lon="6.74928">
        <ele>404.1</ele>
        <time>2016-12-30T09:20:21.000Z</time>
      </trkpt>
      <trkpt lat="47.45242" lon="6.74925">
        <ele>403.9</ele>
        <time>2016-12-30T09:20:22.000Z</time>
      </trkpt>
      <trkpt lat="47.45242" lon="6.74921">
        <ele>403.7</ele>
        <time>2016-12-30T09:20:23.000Z</time>
      </trkpt>
      <trkpt lat="47.45242" lon="6.74917">
        <ele>403.6</ele>
        <time>2016-12-30T09:20:24.000Z</time>
      </trkpt>
      <trkpt lat="47.45242" lon="6.74914">
        <ele>403.4</ele>
        <time>2016-12-30T09:20:25.000Z</time>
      </trkpt>
      <trkpt lat="47.45241" lon="6.74909">
        <ele>403.2</ele>
        <time>2016-12-30T09:20:26.000Z</time>
      </trkpt>
      <trkpt lat="47.4524" lon="6.74905">
        <ele>402.9</ele>
        <time>2016-12-30T09:20:27.000Z</time>
      </trkpt>
      <trkpt lat="47.4524" lon="6.74901">
        <ele>402.7</ele>
        <time>2016-12-30T09:20:28.000Z</time>
      </trkpt>
      <trkpt lat="47.45241" lon="6.74896">
        <ele>402.5</ele>
        <time>2016-12-30T09:20:29.000Z</time>
      </trkpt>
      <trkpt lat="47.4524" lon="6.74891">
        <ele>402.4</ele>
        <time>2016-12-30T09:20:30.000Z</time>
      </trkpt>
      <trkpt lat="47.4524" lon="6.74887">
        <ele>402.4</ele>
        <time>2016-12-30T09:20:31.000Z</time>
      </trkpt>
      <trkpt lat="47.45241" lon="6.74884">
        <ele>402.3</ele>
        <time>2016-12-30T09:20:32.000Z</time>
      </trkpt>
      <trkpt lat="47.45241" lon="6.7488">
        <ele>402.3</ele>
        <time>2016-12-30T09:20:33.000Z</time>
      </trkpt>
      <trkpt lat="47.4524" lon="6.74877">
        <ele>402.4</ele>
        <time>2016-12-30T09:20:34.000Z</time>
      </trkpt>
      <trkpt lat="47.4524" lon="6.74872">
        <ele>402.7</ele>
        <time>2016-12-30T09:20:36.000Z</time>
      </trkpt>
      <trkpt lat="47.45239" lon="6.74869">
        <ele>402.8</ele>
        <time>2016-12-30T09:20:37.000Z</time>
      </trkpt>
      <trkpt lat="47.45238" lon="6.74866">
        <ele>403</ele>
        <time>2016-12-30T09:20:38.000Z</time>
      </trkpt>
      <trkpt lat="47.45236" lon="6.74864">
        <ele>403.1</ele>
        <time>2016-12-30T09:20:39.000Z</time>
      </trkpt>
      <trkpt lat="47.45235" lon="6.74861">
        <ele>403.3</ele>
        <time>2016-12-30T09:20:40.000Z</time>
      </trkpt>
      <trkpt lat="47.45233" lon="6.74859">
        <ele>403.5</ele>
        <time>2016-12-30T09:20:41.000Z</time>
      </trkpt>
      <trkpt lat="47.4523" lon="6.74855">
        <ele>403.9</ele>
        <time>2016-12-30T09:20:42.000Z</time>
      </trkpt>
      <trkpt lat="47.45229" lon="6.74854">
        <ele>404.3</ele>
        <time>2016-12-30T09:20:43.000Z</time>
      </trkpt>
      <trkpt lat="47.45226" lon="6.74853">
        <ele>404.7</ele>
        <time>2016-12-30T09:20:45.000Z</time>
      </trkpt>
      <trkpt lat="47.45224" lon="6.74851">
        <ele>405.1</ele>
        <time>2016-12-30T09:20:46.000Z</time>
      </trkpt>
      <trkpt lat="47.45221" lon="6.74844">
        <ele>405.4</ele>
        <time>2016-12-30T09:20:47.000Z</time>
      </trkpt>
      <trkpt lat="47.45218" lon="6.7484">
        <ele>405.7</ele>
        <time>2016-12-30T09:20:48.000Z</time>
      </trkpt>
      <trkpt lat="47.45216" lon="6.74837">
        <ele>405.9</ele>
        <time>2016-12-30T09:20:49.000Z</time>
      </trkpt>
      <trkpt lat="47.45214" lon="6.74834">
        <ele>406.3</ele>
        <time>2016-12-30T09:20:51.000Z</time>
      </trkpt>
      <trkpt lat="47.45213" lon="6.74831">
        <ele>406.4</ele>
        <time>2016-12-30T09:20:52.000Z</time>
      </trkpt>
      <trkpt lat="47.45211" lon="6.74825">
        <ele>407</ele>
        <time>2016-12-30T09:20:55.000Z</time>
      </trkpt>
      <trkpt lat="47.4521" lon="6.74823">
        <ele>407.3</ele>
        <time>2016-12-30T09:20:56.000Z</time>
      </trkpt>
      <trkpt lat="47.45207" lon="6.74819">
        <ele>407.6</ele>
        <time>2016-12-30T09:20:58.000Z</time>
      </trkpt>
      <trkpt lat="47.45206" lon="6.74817">
        <ele>407.8</ele>
        <time>2016-12-30T09:20:59.000Z</time>
      </trkpt>
      <trkpt lat="47.45204" lon="6.74814">
        <ele>408.2</ele>
        <time>2016-12-30T09:21:01.000Z</time>
      </trkpt>
      <trkpt lat="47.45203" lon="6.74812">
        <ele>408.4</ele>
        <time>2016-12-30T09:21:02.000Z</time>
      </trkpt>
      <trkpt lat="47.45202" lon="6.74807">
        <ele>408.6</ele>
        <time>2016-12-30T09:21:03.000Z</time>
      </trkpt>
      <trkpt lat="47.45202" lon="6.74804">
        <ele>408.7</ele>
        <time>2016-12-30T09:21:04.000Z</time>
      </trkpt>
      <trkpt lat="47.45201" lon="6.74799">
        <ele>409</ele>
        <time>2016-12-30T09:21:06.000Z</time>
      </trkpt>
      <trkpt lat="47.452" lon="6.74797">
        <ele>409.1</ele>
        <time>2016-12-30T09:21:07.000Z</time>
      </trkpt>
      <trkpt lat="47.45199" lon="6.74793">
        <ele>409.2</ele>
        <time>2016-12-30T09:21:08.000Z</time>
      </trkpt>
      <trkpt lat="47.45197" lon="6.7479">
        <ele>409.3</ele>
        <time>2016-12-30T09:21:09.000Z</time>
      </trkpt>
      <trkpt lat="47.45196" lon="6.74786">
        <ele>409.4</ele>
        <time>2016-12-30T09:21:10.000Z</time>
      </trkpt>
      <trkpt lat="47.45194" lon="6.74784">
        <ele>409.5</ele>
        <time>2016-12-30T09:21:11.000Z</time>
      </trkpt>
      <trkpt lat="47.45191" lon="6.7478">
        <ele>409.7</ele>
        <time>2016-12-30T09:21:13.000Z</time>
      </trkpt>
      <trkpt lat="47.4519" lon="6.74777">
        <ele>409.8</ele>
        <time>2016-12-30T09:21:14.000Z</time>
      </trkpt>
      <trkpt lat="47.45188" lon="6.74774">
        <ele>409.8</ele>
        <time>2016-12-30T09:21:15.000Z</time>
      </trkpt>
      <trkpt lat="47.45185" lon="6.7477">
        <ele>409.9</ele>
        <time>2016-12-30T09:21:16.000Z</time>
      </trkpt>
      <trkpt lat="47.45183" lon="6.74767">
        <ele>409.9</ele>
        <time>2016-12-30T09:21:17.000Z</time>
      </trkpt>
      <trkpt lat="47.45181" lon="6.74763">
        <ele>409.8</ele>
        <time>2016-12-30T09:21:18.000Z</time>
      </trkpt>
      <trkpt lat="47.4518" lon="6.74759">
        <ele>409.8</ele>
        <time>2016-12-30T09:21:20.000Z</time>
      </trkpt>
      <trkpt lat="47.45178" lon="6.74756">
        <ele>409.8</ele>
        <time>2016-12-30T09:21:21.000Z</time>
      </trkpt>
      <trkpt lat="47.45176" lon="6.74752">
        <ele>409.8</ele>
        <time>2016-12-30T09:21:22.000Z</time>
      </trkpt>
      <trkpt lat="47.45173" lon="6.74747">
        <ele>409.6</ele>
        <time>2016-12-30T09:21:23.000Z</time>
      </trkpt>
      <trkpt lat="47.45171" lon="6.74743">
        <ele>409.6</ele>
        <time>2016-12-30T09:21:24.000Z</time>
      </trkpt>
      <trkpt lat="47.45169" lon="6.7474">
        <ele>409.6</ele>
        <time>2016-12-30T09:21:25.000Z</time>
      </trkpt>
      <trkpt lat="47.45166" lon="6.74735">
        <ele>409.5</ele>
        <time>2016-12-30T09:21:27.000Z</time>
      </trkpt>
      <trkpt lat="47.45165" lon="6.74733">
        <ele>409.5</ele>
        <time>2016-12-30T09:21:28.000Z</time>
      </trkpt>
      <trkpt lat="47.45163" lon="6.7473">
        <ele>409.5</ele>
        <time>2016-12-30T09:21:29.000Z</time>
      </trkpt>
      <trkpt lat="47.45162" lon="6.74727">
        <ele>409.6</ele>
        <time>2016-12-30T09:21:30.000Z</time>
      </trkpt>
      <trkpt lat="47.4516" lon="6.74724">
        <ele>409.6</ele>
        <time>2016-12-30T09:21:31.000Z</time>
      </trkpt>
      <trkpt lat="47.45159" lon="6.74721">
        <ele>409.6</ele>
        <time>2016-12-30T09:21:32.000Z</time>
      </trkpt>
      <trkpt lat="47.45157" lon="6.74717">
        <ele>409.5</ele>
        <time>2016-12-30T09:21:34.000Z</time>
      </trkpt>
      <trkpt lat="47.45156" lon="6.74715">
        <ele>409.5</ele>
        <time>2016-12-30T09:21:35.000Z</time>
      </trkpt>
      <trkpt lat="47.45152" lon="6.74712">
        <ele>409.4</ele>
        <time>2016-12-30T09:21:39.000Z</time>
      </trkpt>
      <trkpt lat="47.45151" lon="6.74711">
        <ele>409.3</ele>
        <time>2016-12-30T09:21:40.000Z</time>
      </trkpt>
      <trkpt lat="47.4515" lon="6.74709">
        <ele>409.3</ele>
        <time>2016-12-30T09:21:41.000Z</time>
      </trkpt>
      <trkpt lat="47.45147" lon="6.74707">
        <ele>409.4</ele>
        <time>2016-12-30T09:21:42.000Z</time>
      </trkpt>
      <trkpt lat="47.45144" lon="6.74704">
        <ele>409.4</ele>
        <time>2016-12-30T09:21:43.000Z</time>
      </trkpt>
      <trkpt lat="47.45141" lon="6.74701">
        <ele>409.4</ele>
        <time>2016-12-30T09:21:44.000Z</time>
      </trkpt>
      <trkpt lat="47.45139" lon="6.74699">
        <ele>409.4</ele>
        <time>2016-12-30T09:21:45.000Z</time>
      </trkpt>
      <trkpt lat="47.45137" lon="6.74695">
        <ele>409.4</ele>
        <time>2016-12-30T09:21:46.000Z</time>
      </trkpt>
      <trkpt lat="47.45136" lon="6.74693">
        <ele>409.3</ele>
        <time>2016-12-30T09:21:47.000Z</time>
      </trkpt>
      <trkpt lat="47.45134" lon="6.7469">
        <ele>409.3</ele>
        <time>2016-12-30T09:21:48.000Z</time>
      </trkpt>
      <trkpt lat="47.45132" lon="6.74688">
        <ele>409.4</ele>
        <time>2016-12-30T09:21:49.000Z</time>
      </trkpt>
      <trkpt lat="47.4513" lon="6.74684">
        <ele>409.5</ele>
        <time>2016-12-30T09:21:50.000Z</time>
      </trkpt>
      <trkpt lat="47.45129" lon="6.74681">
        <ele>409.6</ele>
        <time>2016-12-30T09:21:51.000Z</time>
      </trkpt>
      <trkpt lat="47.45127" lon="6.74678">
        <ele>409.7</ele>
        <time>2016-12-30T09:21:52.000Z</time>
      </trkpt>
      <trkpt lat="47.45125" lon="6.74675">
        <ele>409.8</ele>
        <time>2016-12-30T09:21:53.000Z</time>
      </trkpt>
      <trkpt lat="47.45124" lon="6.74673">
        <ele>409.9</ele>
        <time>2016-12-30T09:21:54.000Z</time>
      </trkpt>
      <trkpt lat="47.45121" lon="6.74668">
        <ele>410</ele>
        <time>2016-12-30T09:21:56.000Z</time>
      </trkpt>
      <trkpt lat="47.4512" lon="6.74666">
        <ele>410.1</ele>
        <time>2016-12-30T09:21:57.000Z</time>
      </trkpt>
      <trkpt lat="47.45118" lon="6.74662">
        <ele>410.2</ele>
        <time>2016-12-30T09:21:58.000Z</time>
      </trkpt>
      <trkpt lat="47.45115" lon="6.74659">
        <ele>410.3</ele>
        <time>2016-12-30T09:21:59.000Z</time>
      </trkpt>
      <trkpt lat="47.45113" lon="6.74656">
        <ele>410.3</ele>
        <time>2016-12-30T09:22:00.000Z</time>
      </trkpt>
      <trkpt lat="47.45112" lon="6.74654">
        <ele>410.4</ele>
        <time>2016-12-30T09:22:01.000Z</time>
      </trkpt>
      <trkpt lat="47.4511" lon="6.74651">
        <ele>410.5</ele>
        <time>2016-12-30T09:22:02.000Z</time>
      </trkpt>
      <trkpt lat="47.45107" lon="6.74648">
        <ele>410.6</ele>
        <time>2016-12-30T09:22:03.000Z</time>
      </trkpt>
      <trkpt lat="47.45105" lon="6.74646">
        <ele>410.9</ele>
        <time>2016-12-30T09:22:04.000Z</time>
      </trkpt>
      <trkpt lat="47.45102" lon="6.74644">
        <ele>411.1</ele>
        <time>2016-12-30T09:22:05.000Z</time>
      </trkpt>
      <trkpt lat="47.451" lon="6.74641">
        <ele>411.3</ele>
        <time>2016-12-30T09:22:06.000Z</time>
      </trkpt>
      <trkpt lat="47.45099" lon="6.74639">
        <ele>411.6</ele>
        <time>2016-12-30T09:22:07.000Z</time>
      </trkpt>
      <trkpt lat="47.45096" lon="6.74636">
        <ele>411.9</ele>
        <time>2016-12-30T09:22:09.000Z</time>
      </trkpt>
      <trkpt lat="47.45094" lon="6.74633">
        <ele>412.1</ele>
        <time>2016-12-30T09:22:10.000Z</time>
      </trkpt>
      <trkpt lat="47.45092" lon="6.7463">
        <ele>412.3</ele>
        <time>2016-12-30T09:22:11.000Z</time>
      </trkpt>
      <trkpt lat="47.4509" lon="6.74625">
        <ele>412.6</ele>
        <time>2016-12-30T09:22:12.000Z</time>
      </trkpt>
      <trkpt lat="47.45087" lon="6.74618">
        <ele>412.9</ele>
        <time>2016-12-30T09:22:13.000Z</time>
      </trkpt>
      <trkpt lat="47.45084" lon="6.74613">
        <ele>413.2</ele>
        <time>2016-12-30T09:22:14.000Z</time>
      </trkpt>
      <trkpt lat="47.45083" lon="6.7461">
        <ele>413.5</ele>
        <time>2016-12-30T09:22:15.000Z</time>
      </trkpt>
      <trkpt lat="47.45081" lon="6.74606">
        <ele>413.8</ele>
        <time>2016-12-30T09:22:16.000Z</time>
      </trkpt>
      <trkpt lat="47.4508" lon="6.74604">
        <ele>414</ele>
        <time>2016-12-30T09:22:17.000Z</time>
      </trkpt>
      <trkpt lat="47.45078" lon="6.746">
        <ele>414.2</ele>
        <time>2016-12-30T09:22:18.000Z</time>
      </trkpt>
      <trkpt lat="47.45077" lon="6.74596">
        <ele>414.5</ele>
        <time>2016-12-30T09:22:19.000Z</time>
      </trkpt>
      <trkpt lat="47.45075" lon="6.74593">
        <ele>414.7</ele>
        <time>2016-12-30T09:22:20.000Z</time>
      </trkpt>
      <trkpt lat="47.45074" lon="6.7459">
        <ele>414.9</ele>
        <time>2016-12-30T09:22:21.000Z</time>
      </trkpt>
      <trkpt lat="47.45071" lon="6.74586">
        <ele>415.3</ele>
        <time>2016-12-30T09:22:23.000Z</time>
      </trkpt>
      <trkpt lat="47.4507" lon="6.74583">
        <ele>415.4</ele>
        <time>2016-12-30T09:22:24.000Z</time>
      </trkpt>
      <trkpt lat="47.45067" lon="6.74579">
        <ele>415.6</ele>
        <time>2016-12-30T09:22:26.000Z</time>
      </trkpt>
      <trkpt lat="47.45066" lon="6.74577">
        <ele>415.7</ele>
        <time>2016-12-30T09:22:27.000Z</time>
      </trkpt>
      <trkpt lat="47.45063" lon="6.74572">
        <ele>415.9</ele>
        <time>2016-12-30T09:22:29.000Z</time>
      </trkpt>
      <trkpt lat="47.45062" lon="6.7457">
        <ele>415.9</ele>
        <time>2016-12-30T09:22:30.000Z</time>
      </trkpt>
      <trkpt lat="47.45058" lon="6.74566">
        <ele>416</ele>
        <time>2016-12-30T09:22:32.000Z</time>
      </trkpt>
      <trkpt lat="47.45057" lon="6.74563">
        <ele>416</ele>
        <time>2016-12-30T09:22:33.000Z</time>
      </trkpt>
      <trkpt lat="47.45055" lon="6.74558">
        <ele>416.1</ele>
        <time>2016-12-30T09:22:35.000Z</time>
      </trkpt>
      <trkpt lat="47.45054" lon="6.74555">
        <ele>416</ele>
        <time>2016-12-30T09:22:36.000Z</time>
      </trkpt>
      <trkpt lat="47.45052" lon="6.7455">
        <ele>415.9</ele>
        <time>2016-12-30T09:22:38.000Z</time>
      </trkpt>
      <trkpt lat="47.4505" lon="6.74548">
        <ele>415.9</ele>
        <time>2016-12-30T09:22:39.000Z</time>
      </trkpt>
      <trkpt lat="47.45047" lon="6.74545">
        <ele>415.9</ele>
        <time>2016-12-30T09:22:40.000Z</time>
      </trkpt>
      <trkpt lat="47.45045" lon="6.74543">
        <ele>415.9</ele>
        <time>2016-12-30T09:22:41.000Z</time>
      </trkpt>
      <trkpt lat="47.45042" lon="6.74538">
        <ele>415.7</ele>
        <time>2016-12-30T09:22:43.000Z</time>
      </trkpt>
      <trkpt lat="47.4504" lon="6.74537">
        <ele>415.7</ele>
        <time>2016-12-30T09:22:44.000Z</time>
      </trkpt>
      <trkpt lat="47.45039" lon="6.74535">
        <ele>415.6</ele>
        <time>2016-12-30T09:22:45.000Z</time>
      </trkpt>
      <trkpt lat="47.45037" lon="6.7453">
        <ele>415.5</ele>
        <time>2016-12-30T09:22:46.000Z</time>
      </trkpt>
      <trkpt lat="47.45035" lon="6.74526">
        <ele>415.5</ele>
        <time>2016-12-30T09:22:47.000Z</time>
      </trkpt>
      <trkpt lat="47.45033" lon="6.74523">
        <ele>415.5</ele>
        <time>2016-12-30T09:22:48.000Z</time>
      </trkpt>
      <trkpt lat="47.45031" lon="6.7452">
        <ele>415.5</ele>
        <time>2016-12-30T09:22:49.000Z</time>
      </trkpt>
      <trkpt lat="47.45029" lon="6.74517">
        <ele>415.5</ele>
        <time>2016-12-30T09:22:50.000Z</time>
      </trkpt>
      <trkpt lat="47.45026" lon="6.74513">
        <ele>415.4</ele>
        <time>2016-12-30T09:22:52.000Z</time>
      </trkpt>
      <trkpt lat="47.45024" lon="6.74511">
        <ele>415.3</ele>
        <time>2016-12-30T09:22:53.000Z</time>
      </trkpt>
      <trkpt lat="47.45022" lon="6.74508">
        <ele>415.2</ele>
        <time>2016-12-30T09:22:54.000Z</time>
      </trkpt>
      <trkpt lat="47.45019" lon="6.74506">
        <ele>415.1</ele>
        <time>2016-12-30T09:22:55.000Z</time>
      </trkpt>
      <trkpt lat="47.45016" lon="6.74503">
        <ele>414.9</ele>
        <time>2016-12-30T09:22:56.000Z</time>
      </trkpt>
      <trkpt lat="47.45014" lon="6.745">
        <ele>414.7</ele>
        <time>2016-12-30T09:22:57.000Z</time>
      </trkpt>
      <trkpt lat="47.45011" lon="6.74498">
        <ele>414.6</ele>
        <time>2016-12-30T09:22:58.000Z</time>
      </trkpt>
      <trkpt lat="47.45009" lon="6.74496">
        <ele>414.5</ele>
        <time>2016-12-30T09:22:59.000Z</time>
      </trkpt>
      <trkpt lat="47.45007" lon="6.74496">
        <ele>414.5</ele>
        <time>2016-12-30T09:23:00.000Z</time>
      </trkpt>
      <trkpt lat="47.45004" lon="6.74495">
        <ele>414.4</ele>
        <time>2016-12-30T09:23:01.000Z</time>
      </trkpt>
      <trkpt lat="47.45001" lon="6.74495">
        <ele>414.3</ele>
        <time>2016-12-30T09:23:04.000Z</time>
      </trkpt>
      <trkpt lat="47.44998" lon="6.74494">
        <ele>414.2</ele>
        <time>2016-12-30T09:23:05.000Z</time>
      </trkpt>
      <trkpt lat="47.44995" lon="6.74492">
        <ele>414.1</ele>
        <time>2016-12-30T09:23:08.000Z</time>
      </trkpt>
      <trkpt lat="47.44993" lon="6.74492">
        <ele>414.1</ele>
        <time>2016-12-30T09:23:09.000Z</time>
      </trkpt>
      <trkpt lat="47.44992" lon="6.74488">
        <ele>414</ele>
        <time>2016-12-30T09:23:10.000Z</time>
      </trkpt>
      <trkpt lat="47.44992" lon="6.74485">
        <ele>414</ele>
        <time>2016-12-30T09:23:11.000Z</time>
      </trkpt>
      <trkpt lat="47.44992" lon="6.74481">
        <ele>413.9</ele>
        <time>2016-12-30T09:23:12.000Z</time>
      </trkpt>
      <trkpt lat="47.44992" lon="6.74478">
        <ele>413.7</ele>
        <time>2016-12-30T09:23:13.000Z</time>
      </trkpt>
      <trkpt lat="47.44992" lon="6.74472">
        <ele>413.4</ele>
        <time>2016-12-30T09:23:15.000Z</time>
      </trkpt>
      <trkpt lat="47.44992" lon="6.7447">
        <ele>413.2</ele>
        <time>2016-12-30T09:23:16.000Z</time>
      </trkpt>
      <trkpt lat="47.44991" lon="6.74466">
        <ele>413</ele>
        <time>2016-12-30T09:23:18.000Z</time>
      </trkpt>
      <trkpt lat="47.44991" lon="6.74461">
        <ele>412.8</ele>
        <time>2016-12-30T09:23:19.000Z</time>
      </trkpt>
      <trkpt lat="47.4499" lon="6.74458">
        <ele>412.7</ele>
        <time>2016-12-30T09:23:20.000Z</time>
      </trkpt>
      <trkpt lat="47.44989" lon="6.74454">
        <ele>412.6</ele>
        <time>2016-12-30T09:23:21.000Z</time>
      </trkpt>
      <trkpt lat="47.44988" lon="6.74448">
        <ele>412.1</ele>
        <time>2016-12-30T09:23:23.000Z</time>
      </trkpt>
      <trkpt lat="47.44988" lon="6.74446">
        <ele>412</ele>
        <time>2016-12-30T09:23:24.000Z</time>
      </trkpt>
      <trkpt lat="47.44987" lon="6.74442">
        <ele>411.7</ele>
        <time>2016-12-30T09:23:27.000Z</time>
      </trkpt>
      <trkpt lat="47.44986" lon="6.74439">
        <ele>411.6</ele>
        <time>2016-12-30T09:23:28.000Z</time>
      </trkpt>
      <trkpt lat="47.44987" lon="6.74433">
        <ele>411.6</ele>
        <time>2016-12-30T09:23:31.000Z</time>
      </trkpt>
      <trkpt lat="47.44986" lon="6.74431">
        <ele>411.6</ele>
        <time>2016-12-30T09:23:32.000Z</time>
      </trkpt>
      <trkpt lat="47.44983" lon="6.74427">
        <ele>411.7</ele>
        <time>2016-12-30T09:23:34.000Z</time>
      </trkpt>
      <trkpt lat="47.44981" lon="6.74426">
        <ele>411.7</ele>
        <time>2016-12-30T09:23:35.000Z</time>
      </trkpt>
      <trkpt lat="47.44979" lon="6.74423">
        <ele>411.8</ele>
        <time>2016-12-30T09:23:39.000Z</time>
      </trkpt>
      <trkpt lat="47.44978" lon="6.74421">
        <ele>412</ele>
        <time>2016-12-30T09:23:40.000Z</time>
      </trkpt>
      <trkpt lat="47.44976" lon="6.74415">
        <ele>412.2</ele>
        <time>2016-12-30T09:23:44.000Z</time>
      </trkpt>
      <trkpt lat="47.44976" lon="6.74415">
        <ele>412.5</ele>
        <time>2016-12-30T09:23:45.000Z</time>
      </trkpt>
      <trkpt lat="47.44973" lon="6.74411">
        <ele>414.4</ele>
        <time>2016-12-30T09:23:58.000Z</time>
      </trkpt>
      <trkpt lat="47.44973" lon="6.7441">
        <ele>414.7</ele>
        <time>2016-12-30T09:23:59.000Z</time>
      </trkpt>
      <trkpt lat="47.44969" lon="6.74409">
        <ele>415.4</ele>
        <time>2016-12-30T09:24:04.000Z</time>
      </trkpt>
      <trkpt lat="47.44968" lon="6.74409">
        <ele>415.5</ele>
        <time>2016-12-30T09:24:05.000Z</time>
      </trkpt>
      <trkpt lat="47.44964" lon="6.74406">
        <ele>415.7</ele>
        <time>2016-12-30T09:24:08.000Z</time>
      </trkpt>
      <trkpt lat="47.44963" lon="6.74406">
        <ele>415.9</ele>
        <time>2016-12-30T09:24:09.000Z</time>
      </trkpt>
      <trkpt lat="47.44959" lon="6.74403">
        <ele>416.4</ele>
        <time>2016-12-30T09:24:13.000Z</time>
      </trkpt>
      <trkpt lat="47.44958" lon="6.74403">
        <ele>416.6</ele>
        <time>2016-12-30T09:24:14.000Z</time>
      </trkpt>
      <trkpt lat="47.44954" lon="6.74401">
        <ele>417</ele>
        <time>2016-12-30T09:24:17.000Z</time>
      </trkpt>
      <trkpt lat="47.44953" lon="6.74401">
        <ele>417.1</ele>
        <time>2016-12-30T09:24:18.000Z</time>
      </trkpt>
      <trkpt lat="47.44949" lon="6.744">
        <ele>417.6</ele>
        <time>2016-12-30T09:24:21.000Z</time>
      </trkpt>
      <trkpt lat="47.44946" lon="6.74398">
        <ele>417.7</ele>
        <time>2016-12-30T09:24:22.000Z</time>
      </trkpt>
      <trkpt lat="47.44942" lon="6.74397">
        <ele>418.6</ele>
        <time>2016-12-30T09:24:25.000Z</time>
      </trkpt>
      <trkpt lat="47.4494" lon="6.74396">
        <ele>418.8</ele>
        <time>2016-12-30T09:24:26.000Z</time>
      </trkpt>
      <trkpt lat="47.44936" lon="6.74395">
        <ele>419.5</ele>
        <time>2016-12-30T09:24:29.000Z</time>
      </trkpt>
      <trkpt lat="47.44935" lon="6.74395">
        <ele>419.8</ele>
        <time>2016-12-30T09:24:30.000Z</time>
      </trkpt>
      <trkpt lat="47.4493" lon="6.74394">
        <ele>421.2</ele>
        <time>2016-12-30T09:24:38.000Z</time>
      </trkpt>
      <trkpt lat="47.4493" lon="6.74394">
        <ele>421.3</ele>
        <time>2016-12-30T09:24:39.000Z</time>
      </trkpt>
      <trkpt lat="47.44926" lon="6.74392">
        <ele>421.7</ele>
        <time>2016-12-30T09:24:46.000Z</time>
      </trkpt>
      <trkpt lat="47.44925" lon="6.74391">
        <ele>421.7</ele>
        <time>2016-12-30T09:24:47.000Z</time>
      </trkpt>
      <trkpt lat="47.44921" lon="6.74387">
        <ele>421.7</ele>
        <time>2016-12-30T09:24:51.000Z</time>
      </trkpt>
      <trkpt lat="47.4492" lon="6.74387">
        <ele>421.8</ele>
        <time>2016-12-30T09:24:52.000Z</time>
      </trkpt>
      <trkpt lat="47.44917" lon="6.74384">
        <ele>421.9</ele>
        <time>2016-12-30T09:24:57.000Z</time>
      </trkpt>
      <trkpt lat="47.44917" lon="6.74383">
        <ele>422</ele>
        <time>2016-12-30T09:24:58.000Z</time>
      </trkpt>
      <trkpt lat="47.44914" lon="6.74379">
        <ele>422.1</ele>
        <time>2016-12-30T09:25:01.000Z</time>
      </trkpt>
      <trkpt lat="47.44914" lon="6.74377">
        <ele>422.2</ele>
        <time>2016-12-30T09:25:02.000Z</time>
      </trkpt>
      <trkpt lat="47.44911" lon="6.74372">
        <ele>422.4</ele>
        <time>2016-12-30T09:25:05.000Z</time>
      </trkpt>
      <trkpt lat="47.4491" lon="6.74371">
        <ele>422.5</ele>
        <time>2016-12-30T09:25:06.000Z</time>
      </trkpt>
      <trkpt lat="47.44907" lon="6.74367">
        <ele>422.7</ele>
        <time>2016-12-30T09:25:10.000Z</time>
      </trkpt>
      <trkpt lat="47.44906" lon="6.74366">
        <ele>422.7</ele>
        <time>2016-12-30T09:25:11.000Z</time>
      </trkpt>
      <trkpt lat="47.44904" lon="6.74362">
        <ele>422.6</ele>
        <time>2016-12-30T09:25:14.000Z</time>
      </trkpt>
      <trkpt lat="47.44903" lon="6.7436">
        <ele>422.7</ele>
        <time>2016-12-30T09:25:15.000Z</time>
      </trkpt>
      <trkpt lat="47.44899" lon="6.74356">
        <ele>422.8</ele>
        <time>2016-12-30T09:25:17.000Z</time>
      </trkpt>
      <trkpt lat="47.44898" lon="6.74354">
        <ele>422.9</ele>
        <time>2016-12-30T09:25:18.000Z</time>
      </trkpt>
      <trkpt lat="47.44896" lon="6.7435">
        <ele>423.1</ele>
        <time>2016-12-30T09:25:20.000Z</time>
      </trkpt>
      <trkpt lat="47.44895" lon="6.74348">
        <ele>423.3</ele>
        <time>2016-12-30T09:25:21.000Z</time>
      </trkpt>
      <trkpt lat="47.44893" lon="6.74344">
        <ele>423.8</ele>
        <time>2016-12-30T09:25:23.000Z</time>
      </trkpt>
      <trkpt lat="47.44892" lon="6.74342">
        <ele>424.1</ele>
        <time>2016-12-30T09:25:24.000Z</time>
      </trkpt>
      <trkpt lat="47.4489" lon="6.74337">
        <ele>424.7</ele>
        <time>2016-12-30T09:25:27.000Z</time>
      </trkpt>
      <trkpt lat="47.44889" lon="6.74336">
        <ele>425</ele>
        <time>2016-12-30T09:25:28.000Z</time>
      </trkpt>
      <trkpt lat="47.44886" lon="6.74332">
        <ele>425.9</ele>
        <time>2016-12-30T09:25:32.000Z</time>
      </trkpt>
      <trkpt lat="47.44886" lon="6.74331">
        <ele>426</ele>
        <time>2016-12-30T09:25:33.000Z</time>
      </trkpt>
      <trkpt lat="47.44885" lon="6.74327">
        <ele>426.3</ele>
        <time>2016-12-30T09:25:35.000Z</time>
      </trkpt>
      <trkpt lat="47.44883" lon="6.74324">
        <ele>426.5</ele>
        <time>2016-12-30T09:25:36.000Z</time>
      </trkpt>
      <trkpt lat="47.44882" lon="6.74322">
        <ele>427</ele>
        <time>2016-12-30T09:25:38.000Z</time>
      </trkpt>
      <trkpt lat="47.44879" lon="6.74318">
        <ele>427.3</ele>
        <time>2016-12-30T09:25:39.000Z</time>
      </trkpt>
      <trkpt lat="47.44877" lon="6.74313">
        <ele>428.6</ele>
        <time>2016-12-30T09:25:43.000Z</time>
      </trkpt>
      <trkpt lat="47.44877" lon="6.74312">
        <ele>428.9</ele>
        <time>2016-12-30T09:25:44.000Z</time>
      </trkpt>
      <trkpt lat="47.44873" lon="6.74307">
        <ele>429.6</ele>
        <time>2016-12-30T09:25:48.000Z</time>
      </trkpt>
      <trkpt lat="47.44871" lon="6.74305">
        <ele>429.7</ele>
        <time>2016-12-30T09:25:49.000Z</time>
      </trkpt>
      <trkpt lat="47.44868" lon="6.74302">
        <ele>429.9</ele>
        <time>2016-12-30T09:25:51.000Z</time>
      </trkpt>
      <trkpt lat="47.44867" lon="6.74301">
        <ele>430</ele>
        <time>2016-12-30T09:25:52.000Z</time>
      </trkpt>
      <trkpt lat="47.44864" lon="6.74298">
        <ele>430.5</ele>
        <time>2016-12-30T09:25:55.000Z</time>
      </trkpt>
      <trkpt lat="47.44863" lon="6.74296">
        <ele>430.6</ele>
        <time>2016-12-30T09:25:56.000Z</time>
      </trkpt>
      <trkpt lat="47.44862" lon="6.74291">
        <ele>430.5</ele>
        <time>2016-12-30T09:25:59.000Z</time>
      </trkpt>
      <trkpt lat="47.44862" lon="6.74289">
        <ele>430.6</ele>
        <time>2016-12-30T09:26:00.000Z</time>
      </trkpt>
      <trkpt lat="47.4486" lon="6.74283">
        <ele>430.8</ele>
        <time>2016-12-30T09:26:02.000Z</time>
      </trkpt>
      <trkpt lat="47.44859" lon="6.74281">
        <ele>430.9</ele>
        <time>2016-12-30T09:26:03.000Z</time>
      </trkpt>
      <trkpt lat="47.44859" lon="6.74275">
        <ele>430.9</ele>
        <time>2016-12-30T09:26:07.000Z</time>
      </trkpt>
      <trkpt lat="47.44859" lon="6.74274">
        <ele>431</ele>
        <time>2016-12-30T09:26:08.000Z</time>
      </trkpt>
      <trkpt lat="47.44858" lon="6.74268">
        <ele>431.4</ele>
        <time>2016-12-30T09:26:11.000Z</time>
      </trkpt>
      <trkpt lat="47.44857" lon="6.74265">
        <ele>431.5</ele>
        <time>2016-12-30T09:26:12.000Z</time>
      </trkpt>
      <trkpt lat="47.44855" lon="6.74261">
        <ele>431.6</ele>
        <time>2016-12-30T09:26:14.000Z</time>
      </trkpt>
      <trkpt lat="47.44854" lon="6.74259">
        <ele>431.7</ele>
        <time>2016-12-30T09:26:15.000Z</time>
      </trkpt>
      <trkpt lat="47.44852" lon="6.74256">
        <ele>432</ele>
        <time>2016-12-30T09:26:17.000Z</time>
      </trkpt>
      <trkpt lat="47.4485" lon="6.74254">
        <ele>432.2</ele>
        <time>2016-12-30T09:26:18.000Z</time>
      </trkpt>
      <trkpt lat="47.44848" lon="6.7425">
        <ele>432.6</ele>
        <time>2016-12-30T09:26:20.000Z</time>
      </trkpt>
      <trkpt lat="47.44847" lon="6.74248">
        <ele>432.8</ele>
        <time>2016-12-30T09:26:21.000Z</time>
      </trkpt>
      <trkpt lat="47.44845" lon="6.74243">
        <ele>433.6</ele>
        <time>2016-12-30T09:26:26.000Z</time>
      </trkpt>
      <trkpt lat="47.44846" lon="6.74241">
        <ele>433.8</ele>
        <time>2016-12-30T09:26:27.000Z</time>
      </trkpt>
      <trkpt lat="47.44847" lon="6.74236">
        <ele>434.1</ele>
        <time>2016-12-30T09:26:32.000Z</time>
      </trkpt>
      <trkpt lat="47.44848" lon="6.74234">
        <ele>434.1</ele>
        <time>2016-12-30T09:26:33.000Z</time>
      </trkpt>
      <trkpt lat="47.44847" lon="6.74229">
        <ele>434</ele>
        <time>2016-12-30T09:26:35.000Z</time>
      </trkpt>
      <trkpt lat="47.44847" lon="6.74226">
        <ele>434</ele>
        <time>2016-12-30T09:26:36.000Z</time>
      </trkpt>
      <trkpt lat="47.44847" lon="6.7422">
        <ele>433.8</ele>
        <time>2016-12-30T09:26:38.000Z</time>
      </trkpt>
      <trkpt lat="47.44846" lon="6.74217">
        <ele>433.7</ele>
        <time>2016-12-30T09:26:39.000Z</time>
      </trkpt>
      <trkpt lat="47.44845" lon="6.74212">
        <ele>433.4</ele>
        <time>2016-12-30T09:26:41.000Z</time>
      </trkpt>
      <trkpt lat="47.44844" lon="6.74209">
        <ele>433.3</ele>
        <time>2016-12-30T09:26:42.000Z</time>
      </trkpt>
      <trkpt lat="47.44842" lon="6.74204">
        <ele>433.2</ele>
        <time>2016-12-30T09:26:44.000Z</time>
      </trkpt>
      <trkpt lat="47.44838" lon="6.74199">
        <ele>433.1</ele>
        <time>2016-12-30T09:26:45.000Z</time>
      </trkpt>
      <trkpt lat="47.44835" lon="6.74194">
        <ele>433</ele>
        <time>2016-12-30T09:26:46.000Z</time>
      </trkpt>
      <trkpt lat="47.44834" lon="6.74192">
        <ele>433</ele>
        <time>2016-12-30T09:26:47.000Z</time>
      </trkpt>
      <trkpt lat="47.44832" lon="6.74188">
        <ele>433.1</ele>
        <time>2016-12-30T09:26:51.000Z</time>
      </trkpt>
      <trkpt lat="47.44831" lon="6.74186">
        <ele>433.2</ele>
        <time>2016-12-30T09:26:52.000Z</time>
      </trkpt>
      <trkpt lat="47.4483" lon="6.74186">
        <ele>433.3</ele>
        <time>2016-12-30T09:26:53.000Z</time>
      </trkpt>
      <trkpt lat="47.44827" lon="6.74182">
        <ele>433.5</ele>
        <time>2016-12-30T09:26:54.000Z</time>
      </trkpt>
      <trkpt lat="47.44824" lon="6.7418">
        <ele>433.5</ele>
        <time>2016-12-30T09:26:55.000Z</time>
      </trkpt>
      <trkpt lat="47.44822" lon="6.74178">
        <ele>433.5</ele>
        <time>2016-12-30T09:26:56.000Z</time>
      </trkpt>
      <trkpt lat="47.44819" lon="6.74174">
        <ele>433.7</ele>
        <time>2016-12-30T09:26:58.000Z</time>
      </trkpt>
      <trkpt lat="47.44819" lon="6.74171">
        <ele>433.8</ele>
        <time>2016-12-30T09:26:59.000Z</time>
      </trkpt>
      <trkpt lat="47.44817" lon="6.74166">
        <ele>434</ele>
        <time>2016-12-30T09:27:02.000Z</time>
      </trkpt>
      <trkpt lat="47.44815" lon="6.74163">
        <ele>434</ele>
        <time>2016-12-30T09:27:03.000Z</time>
      </trkpt>
      <trkpt lat="47.44813" lon="6.74158">
        <ele>434</ele>
        <time>2016-12-30T09:27:05.000Z</time>
      </trkpt>
      <trkpt lat="47.44812" lon="6.74156">
        <ele>434</ele>
        <time>2016-12-30T09:27:06.000Z</time>
      </trkpt>
      <trkpt lat="47.44809" lon="6.74151">
        <ele>434</ele>
        <time>2016-12-30T09:27:08.000Z</time>
      </trkpt>
      <trkpt lat="47.44808" lon="6.7415">
        <ele>434.1</ele>
        <time>2016-12-30T09:27:09.000Z</time>
      </trkpt>
      <trkpt lat="47.44806" lon="6.74145">
        <ele>434.5</ele>
        <time>2016-12-30T09:27:12.000Z</time>
      </trkpt>
      <trkpt lat="47.44805" lon="6.74143">
        <ele>434.6</ele>
        <time>2016-12-30T09:27:13.000Z</time>
      </trkpt>
      <trkpt lat="47.44803" lon="6.74137">
        <ele>434.8</ele>
        <time>2016-12-30T09:27:16.000Z</time>
      </trkpt>
      <trkpt lat="47.44803" lon="6.74135">
        <ele>434.9</ele>
        <time>2016-12-30T09:27:17.000Z</time>
      </trkpt>
      <trkpt lat="47.44801" lon="6.74131">
        <ele>435.3</ele>
        <time>2016-12-30T09:27:19.000Z</time>
      </trkpt>
      <trkpt lat="47.448" lon="6.74129">
        <ele>435.5</ele>
        <time>2016-12-30T09:27:20.000Z</time>
      </trkpt>
      <trkpt lat="47.44797" lon="6.74125">
        <ele>436</ele>
        <time>2016-12-30T09:27:23.000Z</time>
      </trkpt>
      <trkpt lat="47.44797" lon="6.74124">
        <ele>436.1</ele>
        <time>2016-12-30T09:27:24.000Z</time>
      </trkpt>
      <trkpt lat="47.44796" lon="6.7412">
        <ele>436.4</ele>
        <time>2016-12-30T09:27:26.000Z</time>
      </trkpt>
      <trkpt lat="47.44796" lon="6.74114">
        <ele>436.6</ele>
        <time>2016-12-30T09:27:27.000Z</time>
      </trkpt>
      <trkpt lat="47.44795" lon="6.74109">
        <ele>437.5</ele>
        <time>2016-12-30T09:27:30.000Z</time>
      </trkpt>
      <trkpt lat="47.44794" lon="6.74108">
        <ele>437.8</ele>
        <time>2016-12-30T09:27:31.000Z</time>
      </trkpt>
      <trkpt lat="47.44791" lon="6.74103">
        <ele>441</ele>
        <time>2016-12-30T09:27:39.000Z</time>
      </trkpt>
      <trkpt lat="47.44791" lon="6.74102">
        <ele>441.6</ele>
        <time>2016-12-30T09:27:40.000Z</time>
      </trkpt>
      <trkpt lat="47.44791" lon="6.74096">
        <ele>443.1</ele>
        <time>2016-12-30T09:27:44.000Z</time>
      </trkpt>
      <trkpt lat="47.44791" lon="6.74094">
        <ele>443.4</ele>
        <time>2016-12-30T09:27:45.000Z</time>
      </trkpt>
      <trkpt lat="47.44793" lon="6.74088">
        <ele>445.3</ele>
        <time>2016-12-30T09:27:52.000Z</time>
      </trkpt>
      <trkpt lat="47.44793" lon="6.74087">
        <ele>445.6</ele>
        <time>2016-12-30T09:27:53.000Z</time>
      </trkpt>
      <trkpt lat="47.44791" lon="6.74083">
        <ele>448.5</ele>
        <time>2016-12-30T09:28:02.000Z</time>
      </trkpt>
      <trkpt lat="47.4479" lon="6.74081">
        <ele>449</ele>
        <time>2016-12-30T09:28:03.000Z</time>
      </trkpt>
      <trkpt lat="47.44789" lon="6.74075">
        <ele>450.4</ele>
        <time>2016-12-30T09:28:07.000Z</time>
      </trkpt>
      <trkpt lat="47.44788" lon="6.74071">
        <ele>450.7</ele>
        <time>2016-12-30T09:28:08.000Z</time>
      </trkpt>
      <trkpt lat="47.44786" lon="6.74065">
        <ele>451</ele>
        <time>2016-12-30T09:28:11.000Z</time>
      </trkpt>
      <trkpt lat="47.44786" lon="6.74064">
        <ele>451.2</ele>
        <time>2016-12-30T09:28:12.000Z</time>
      </trkpt>
      <trkpt lat="47.44787" lon="6.74057">
        <ele>451.4</ele>
        <time>2016-12-30T09:28:16.000Z</time>
      </trkpt>
      <trkpt lat="47.44787" lon="6.74056">
        <ele>451.5</ele>
        <time>2016-12-30T09:28:17.000Z</time>
      </trkpt>
      <trkpt lat="47.44789" lon="6.7405">
        <ele>451.9</ele>
        <time>2016-12-30T09:28:22.000Z</time>
      </trkpt>
      <trkpt lat="47.44789" lon="6.74048">
        <ele>452.2</ele>
        <time>2016-12-30T09:28:23.000Z</time>
      </trkpt>
      <trkpt lat="47.44788" lon="6.74043">
        <ele>452.6</ele>
        <time>2016-12-30T09:28:25.000Z</time>
      </trkpt>
      <trkpt lat="47.44788" lon="6.74041">
        <ele>452.8</ele>
        <time>2016-12-30T09:28:26.000Z</time>
      </trkpt>
      <trkpt lat="47.44789" lon="6.74037">
        <ele>453.1</ele>
        <time>2016-12-30T09:28:28.000Z</time>
      </trkpt>
      <trkpt lat="47.44789" lon="6.74033">
        <ele>453.2</ele>
        <time>2016-12-30T09:28:29.000Z</time>
      </trkpt>
      <trkpt lat="47.44787" lon="6.74027">
        <ele>453.8</ele>
        <time>2016-12-30T09:28:32.000Z</time>
      </trkpt>
      <trkpt lat="47.44788" lon="6.74025">
        <ele>454</ele>
        <time>2016-12-30T09:28:33.000Z</time>
      </trkpt>
      <trkpt lat="47.44788" lon="6.74021">
        <ele>454.3</ele>
        <time>2016-12-30T09:28:35.000Z</time>
      </trkpt>
      <trkpt lat="47.44788" lon="6.74018">
        <ele>454.4</ele>
        <time>2016-12-30T09:28:36.000Z</time>
      </trkpt>
      <trkpt lat="47.44789" lon="6.74012">
        <ele>454.9</ele>
        <time>2016-12-30T09:28:39.000Z</time>
      </trkpt>
      <trkpt lat="47.44789" lon="6.74009">
        <ele>455.2</ele>
        <time>2016-12-30T09:28:40.000Z</time>
      </trkpt>
      <trkpt lat="47.4479" lon="6.74004">
        <ele>455.6</ele>
        <time>2016-12-30T09:28:44.000Z</time>
      </trkpt>
      <trkpt lat="47.44791" lon="6.74">
        <ele>455.6</ele>
        <time>2016-12-30T09:28:45.000Z</time>
      </trkpt>
      <trkpt lat="47.44792" lon="6.73996">
        <ele>456</ele>
        <time>2016-12-30T09:28:47.000Z</time>
      </trkpt>
      <trkpt lat="47.44792" lon="6.73993">
        <ele>456.1</ele>
        <time>2016-12-30T09:28:48.000Z</time>
      </trkpt>
      <trkpt lat="47.44793" lon="6.73988">
        <ele>456.9</ele>
        <time>2016-12-30T09:28:51.000Z</time>
      </trkpt>
      <trkpt lat="47.44791" lon="6.73986">
        <ele>457.2</ele>
        <time>2016-12-30T09:28:52.000Z</time>
      </trkpt>
      <trkpt lat="47.44789" lon="6.7398">
        <ele>458.4</ele>
        <time>2016-12-30T09:28:56.000Z</time>
      </trkpt>
      <trkpt lat="47.44788" lon="6.73978">
        <ele>458.6</ele>
        <time>2016-12-30T09:28:57.000Z</time>
      </trkpt>
      <trkpt lat="47.44787" lon="6.73973">
        <ele>459.2</ele>
        <time>2016-12-30T09:29:01.000Z</time>
      </trkpt>
      <trkpt lat="47.44786" lon="6.73972">
        <ele>459.4</ele>
        <time>2016-12-30T09:29:02.000Z</time>
      </trkpt>
      <trkpt lat="47.44786" lon="6.73969">
        <ele>459.6</ele>
        <time>2016-12-30T09:29:04.000Z</time>
      </trkpt>
      <trkpt lat="47.44786" lon="6.73965">
        <ele>459.6</ele>
        <time>2016-12-30T09:29:05.000Z</time>
      </trkpt>
      <trkpt lat="47.44785" lon="6.73959">
        <ele>459.6</ele>
        <time>2016-12-30T09:29:07.000Z</time>
      </trkpt>
      <trkpt lat="47.44785" lon="6.73957">
        <ele>459.6</ele>
        <time>2016-12-30T09:29:08.000Z</time>
      </trkpt>
      <trkpt lat="47.44787" lon="6.73952">
        <ele>460.4</ele>
        <time>2016-12-30T09:29:14.000Z</time>
      </trkpt>
      <trkpt lat="47.44787" lon="6.7395">
        <ele>460.6</ele>
        <time>2016-12-30T09:29:15.000Z</time>
      </trkpt>
      <trkpt lat="47.44787" lon="6.73946">
        <ele>460.8</ele>
        <time>2016-12-30T09:29:17.000Z</time>
      </trkpt>
      <trkpt lat="47.44787" lon="6.73943">
        <ele>460.9</ele>
        <time>2016-12-30T09:29:18.000Z</time>
      </trkpt>
      <trkpt lat="47.44789" lon="6.73937">
        <ele>460.8</ele>
        <time>2016-12-30T09:29:20.000Z</time>
      </trkpt>
      <trkpt lat="47.4479" lon="6.73934">
        <ele>460.8</ele>
        <time>2016-12-30T09:29:21.000Z</time>
      </trkpt>
      <trkpt lat="47.4479" lon="6.7393">
        <ele>460.7</ele>
        <time>2016-12-30T09:29:23.000Z</time>
      </trkpt>
      <trkpt lat="47.44791" lon="6.73924">
        <ele>460.7</ele>
        <time>2016-12-30T09:29:24.000Z</time>
      </trkpt>
      <trkpt lat="47.4479" lon="6.73918">
        <ele>460.6</ele>
        <time>2016-12-30T09:29:26.000Z</time>
      </trkpt>
      <trkpt lat="47.44791" lon="6.73916">
        <ele>460.6</ele>
        <time>2016-12-30T09:29:27.000Z</time>
      </trkpt>
      <trkpt lat="47.44791" lon="6.7391">
        <ele>460.6</ele>
        <time>2016-12-30T09:29:29.000Z</time>
      </trkpt>
      <trkpt lat="47.44791" lon="6.73908">
        <ele>460.7</ele>
        <time>2016-12-30T09:29:30.000Z</time>
      </trkpt>
      <trkpt lat="47.44792" lon="6.73905">
        <ele>460.8</ele>
        <time>2016-12-30T09:29:32.000Z</time>
      </trkpt>
      <trkpt lat="47.44793" lon="6.73902">
        <ele>460.9</ele>
        <time>2016-12-30T09:29:33.000Z</time>
      </trkpt>
      <trkpt lat="47.44794" lon="6.73897">
        <ele>461.2</ele>
        <time>2016-12-30T09:29:35.000Z</time>
      </trkpt>
      <trkpt lat="47.44795" lon="6.73896">
        <ele>461.3</ele>
        <time>2016-12-30T09:29:36.000Z</time>
      </trkpt>
      <trkpt lat="47.44797" lon="6.73891">
        <ele>461.7</ele>
        <time>2016-12-30T09:29:39.000Z</time>
      </trkpt>
      <trkpt lat="47.44798" lon="6.73889">
        <ele>461.8</ele>
        <time>2016-12-30T09:29:40.000Z</time>
      </trkpt>
      <trkpt lat="47.448" lon="6.73884">
        <ele>462.4</ele>
        <time>2016-12-30T09:29:42.000Z</time>
      </trkpt>
      <trkpt lat="47.44801" lon="6.73882">
        <ele>462.6</ele>
        <time>2016-12-30T09:29:43.000Z</time>
      </trkpt>
      <trkpt lat="47.44801" lon="6.73877">
        <ele>463.1</ele>
        <time>2016-12-30T09:29:46.000Z</time>
      </trkpt>
      <trkpt lat="47.44802" lon="6.73875">
        <ele>463.3</ele>
        <time>2016-12-30T09:29:47.000Z</time>
      </trkpt>
      <trkpt lat="47.44803" lon="6.73869">
        <ele>463.9</ele>
        <time>2016-12-30T09:29:50.000Z</time>
      </trkpt>
      <trkpt lat="47.44805" lon="6.73867">
        <ele>463.9</ele>
        <time>2016-12-30T09:29:51.000Z</time>
      </trkpt>
      <trkpt lat="47.44809" lon="6.73864">
        <ele>463.9</ele>
        <time>2016-12-30T09:29:53.000Z</time>
      </trkpt>
      <trkpt lat="47.44811" lon="6.73861">
        <ele>463.8</ele>
        <time>2016-12-30T09:29:54.000Z</time>
      </trkpt>
      <trkpt lat="47.44813" lon="6.73856">
        <ele>463.6</ele>
        <time>2016-12-30T09:29:58.000Z</time>
      </trkpt>
      <trkpt lat="47.44814" lon="6.73854">
        <ele>463.5</ele>
        <time>2016-12-30T09:29:59.000Z</time>
      </trkpt>
      <trkpt lat="47.44816" lon="6.73848">
        <ele>463.4</ele>
        <time>2016-12-30T09:30:01.000Z</time>
      </trkpt>
      <trkpt lat="47.44817" lon="6.73846">
        <ele>463.4</ele>
        <time>2016-12-30T09:30:02.000Z</time>
      </trkpt>
      <trkpt lat="47.44818" lon="6.73841">
        <ele>463.4</ele>
        <time>2016-12-30T09:30:04.000Z</time>
      </trkpt>
      <trkpt lat="47.44818" lon="6.73838">
        <ele>463.4</ele>
        <time>2016-12-30T09:30:05.000Z</time>
      </trkpt>
      <trkpt lat="47.44818" lon="6.73832">
        <ele>463.4</ele>
        <time>2016-12-30T09:30:08.000Z</time>
      </trkpt>
      <trkpt lat="47.44818" lon="6.7383">
        <ele>463.3</ele>
        <time>2016-12-30T09:30:09.000Z</time>
      </trkpt>
      <trkpt lat="47.44816" lon="6.73825">
        <ele>463.5</ele>
        <time>2016-12-30T09:30:11.000Z</time>
      </trkpt>
      <trkpt lat="47.44815" lon="6.73824">
        <ele>463.7</ele>
        <time>2016-12-30T09:30:12.000Z</time>
      </trkpt>
      <trkpt lat="47.44815" lon="6.73819">
        <ele>464</ele>
        <time>2016-12-30T09:30:13.000Z</time>
      </trkpt>
      <trkpt lat="47.44815" lon="6.73817">
        <ele>464.3</ele>
        <time>2016-12-30T09:30:14.000Z</time>
      </trkpt>
      <trkpt lat="47.44815" lon="6.73813">
        <ele>464.7</ele>
        <time>2016-12-30T09:30:16.000Z</time>
      </trkpt>
      <trkpt lat="47.44816" lon="6.7381">
        <ele>464.9</ele>
        <time>2016-12-30T09:30:17.000Z</time>
      </trkpt>
      <trkpt lat="47.44818" lon="6.73805">
        <ele>465.1</ele>
        <time>2016-12-30T09:30:19.000Z</time>
      </trkpt>
      <trkpt lat="47.44818" lon="6.73804">
        <ele>465.3</ele>
        <time>2016-12-30T09:30:20.000Z</time>
      </trkpt>
      <trkpt lat="47.44819" lon="6.738">
        <ele>465.5</ele>
        <time>2016-12-30T09:30:22.000Z</time>
      </trkpt>
      <trkpt lat="47.4482" lon="6.73796">
        <ele>465.5</ele>
        <time>2016-12-30T09:30:23.000Z</time>
      </trkpt>
      <trkpt lat="47.4482" lon="6.7379">
        <ele>465.5</ele>
        <time>2016-12-30T09:30:24.000Z</time>
      </trkpt>
      <trkpt lat="47.4482" lon="6.73785">
        <ele>465.4</ele>
        <time>2016-12-30T09:30:25.000Z</time>
      </trkpt>
      <trkpt lat="47.44822" lon="6.73781">
        <ele>465.3</ele>
        <time>2016-12-30T09:30:27.000Z</time>
      </trkpt>
      <trkpt lat="47.44822" lon="6.73779">
        <ele>465.2</ele>
        <time>2016-12-30T09:30:28.000Z</time>
      </trkpt>
      <trkpt lat="47.44824" lon="6.73772">
        <ele>465</ele>
        <time>2016-12-30T09:30:31.000Z</time>
      </trkpt>
      <trkpt lat="47.44824" lon="6.73769">
        <ele>465</ele>
        <time>2016-12-30T09:30:32.000Z</time>
      </trkpt>
      <trkpt lat="47.44825" lon="6.73763">
        <ele>464.9</ele>
        <time>2016-12-30T09:30:34.000Z</time>
      </trkpt>
      <trkpt lat="47.44825" lon="6.73759">
        <ele>464.8</ele>
        <time>2016-12-30T09:30:35.000Z</time>
      </trkpt>
      <trkpt lat="47.44827" lon="6.73754">
        <ele>464.8</ele>
        <time>2016-12-30T09:30:38.000Z</time>
      </trkpt>
      <trkpt lat="47.44827" lon="6.73753">
        <ele>464.7</ele>
        <time>2016-12-30T09:30:39.000Z</time>
      </trkpt>
      <trkpt lat="47.44828" lon="6.73746">
        <ele>464.7</ele>
        <time>2016-12-30T09:30:41.000Z</time>
      </trkpt>
      <trkpt lat="47.44828" lon="6.73742">
        <ele>464.7</ele>
        <time>2016-12-30T09:30:42.000Z</time>
      </trkpt>
      <trkpt lat="47.44828" lon="6.73736">
        <ele>464.8</ele>
        <time>2016-12-30T09:30:45.000Z</time>
      </trkpt>
      <trkpt lat="47.44828" lon="6.73734">
        <ele>464.9</ele>
        <time>2016-12-30T09:30:46.000Z</time>
      </trkpt>
      <trkpt lat="47.44828" lon="6.73728">
        <ele>465.1</ele>
        <time>2016-12-30T09:30:48.000Z</time>
      </trkpt>
      <trkpt lat="47.44829" lon="6.73724">
        <ele>465.1</ele>
        <time>2016-12-30T09:30:49.000Z</time>
      </trkpt>
      <trkpt lat="47.44829" lon="6.73721">
        <ele>465.2</ele>
        <time>2016-12-30T09:30:50.000Z</time>
      </trkpt>
      <trkpt lat="47.4483" lon="6.73717">
        <ele>465.2</ele>
        <time>2016-12-30T09:30:51.000Z</time>
      </trkpt>
      <trkpt lat="47.44831" lon="6.73712">
        <ele>465.3</ele>
        <time>2016-12-30T09:30:53.000Z</time>
      </trkpt>
      <trkpt lat="47.44831" lon="6.73709">
        <ele>465.3</ele>
        <time>2016-12-30T09:30:54.000Z</time>
      </trkpt>
      <trkpt lat="47.44832" lon="6.73703">
        <ele>465.5</ele>
        <time>2016-12-30T09:30:56.000Z</time>
      </trkpt>
      <trkpt lat="47.44832" lon="6.73701">
        <ele>465.6</ele>
        <time>2016-12-30T09:30:57.000Z</time>
      </trkpt>
      <trkpt lat="47.44834" lon="6.73696">
        <ele>466</ele>
        <time>2016-12-30T09:31:00.000Z</time>
      </trkpt>
      <trkpt lat="47.44835" lon="6.73695">
        <ele>466.2</ele>
        <time>2016-12-30T09:31:01.000Z</time>
      </trkpt>
      <trkpt lat="47.44837" lon="6.73689">
        <ele>466.6</ele>
        <time>2016-12-30T09:31:04.000Z</time>
      </trkpt>
      <trkpt lat="47.44837" lon="6.73688">
        <ele>466.7</ele>
        <time>2016-12-30T09:31:05.000Z</time>
      </trkpt>
      <trkpt lat="47.44836" lon="6.73683">
        <ele>467</ele>
        <time>2016-12-30T09:31:09.000Z</time>
      </trkpt>
      <trkpt lat="47.44835" lon="6.7368">
        <ele>467.2</ele>
        <time>2016-12-30T09:31:10.000Z</time>
      </trkpt>
      <trkpt lat="47.44834" lon="6.73675">
        <ele>467.4</ele>
        <time>2016-12-30T09:31:12.000Z</time>
      </trkpt>
      <trkpt lat="47.44834" lon="6.73673">
        <ele>467.4</ele>
        <time>2016-12-30T09:31:13.000Z</time>
      </trkpt>
      <trkpt lat="47.44833" lon="6.73667">
        <ele>467.3</ele>
        <time>2016-12-30T09:31:15.000Z</time>
      </trkpt>
      <trkpt lat="47.44832" lon="6.73664">
        <ele>467.4</ele>
        <time>2016-12-30T09:31:16.000Z</time>
      </trkpt>
      <trkpt lat="47.44832" lon="6.73658">
        <ele>467.8</ele>
        <time>2016-12-30T09:31:21.000Z</time>
      </trkpt>
      <trkpt lat="47.44832" lon="6.73656">
        <ele>467.9</ele>
        <time>2016-12-30T09:31:22.000Z</time>
      </trkpt>
      <trkpt lat="47.44831" lon="6.7365">
        <ele>468</ele>
        <time>2016-12-30T09:31:24.000Z</time>
      </trkpt>
      <trkpt lat="47.44831" lon="6.73649">
        <ele>468.1</ele>
        <time>2016-12-30T09:31:25.000Z</time>
      </trkpt>
      <trkpt lat="47.44831" lon="6.73645">
        <ele>468.3</ele>
        <time>2016-12-30T09:31:28.000Z</time>
      </trkpt>
      <trkpt lat="47.44831" lon="6.73642">
        <ele>468.2</ele>
        <time>2016-12-30T09:31:29.000Z</time>
      </trkpt>
      <trkpt lat="47.44831" lon="6.73636">
        <ele>468.4</ele>
        <time>2016-12-30T09:31:31.000Z</time>
      </trkpt>
      <trkpt lat="47.44831" lon="6.73635">
        <ele>468.5</ele>
        <time>2016-12-30T09:31:32.000Z</time>
      </trkpt>
      <trkpt lat="47.44831" lon="6.73633">
        <ele>468.5</ele>
        <time>2016-12-30T09:31:33.000Z</time>
      </trkpt>
      <trkpt lat="47.44831" lon="6.73626">
        <ele>468.3</ele>
        <time>2016-12-30T09:31:34.000Z</time>
      </trkpt>
      <trkpt lat="47.44831" lon="6.7362">
        <ele>468.2</ele>
        <time>2016-12-30T09:31:36.000Z</time>
      </trkpt>
      <trkpt lat="47.44831" lon="6.73617">
        <ele>468.2</ele>
        <time>2016-12-30T09:31:37.000Z</time>
      </trkpt>
      <trkpt lat="47.44831" lon="6.73612">
        <ele>468.1</ele>
        <time>2016-12-30T09:31:42.000Z</time>
      </trkpt>
      <trkpt lat="47.44831" lon="6.7361">
        <ele>468.2</ele>
        <time>2016-12-30T09:31:43.000Z</time>
      </trkpt>
      <trkpt lat="47.44829" lon="6.73604">
        <ele>468.5</ele>
        <time>2016-12-30T09:31:45.000Z</time>
      </trkpt>
      <trkpt lat="47.44829" lon="6.736">
        <ele>468.7</ele>
        <time>2016-12-30T09:31:46.000Z</time>
      </trkpt>
      <trkpt lat="47.44829" lon="6.73596">
        <ele>469</ele>
        <time>2016-12-30T09:31:47.000Z</time>
      </trkpt>
      <trkpt lat="47.44829" lon="6.73592">
        <ele>469.2</ele>
        <time>2016-12-30T09:31:48.000Z</time>
      </trkpt>
      <trkpt lat="47.44829" lon="6.73588">
        <ele>469.4</ele>
        <time>2016-12-30T09:31:49.000Z</time>
      </trkpt>
      <trkpt lat="47.44829" lon="6.73584">
        <ele>469.6</ele>
        <time>2016-12-30T09:31:50.000Z</time>
      </trkpt>
      <trkpt lat="47.44829" lon="6.73579">
        <ele>470.1</ele>
        <time>2016-12-30T09:31:55.000Z</time>
      </trkpt>
      <trkpt lat="47.44829" lon="6.73574">
        <ele>470.5</ele>
        <time>2016-12-30T09:31:56.000Z</time>
      </trkpt>
      <trkpt lat="47.44829" lon="6.73569">
        <ele>473</ele>
        <time>2016-12-30T09:32:02.000Z</time>
      </trkpt>
      <trkpt lat="47.44829" lon="6.73564">
        <ele>473.4</ele>
        <time>2016-12-30T09:32:03.000Z</time>
      </trkpt>
      <trkpt lat="47.44828" lon="6.7356">
        <ele>473.9</ele>
        <time>2016-12-30T09:32:04.000Z</time>
      </trkpt>
      <trkpt lat="47.44829" lon="6.73557">
        <ele>474.3</ele>
        <time>2016-12-30T09:32:05.000Z</time>
      </trkpt>
      <trkpt lat="47.44829" lon="6.73552">
        <ele>474.7</ele>
        <time>2016-12-30T09:32:06.000Z</time>
      </trkpt>
      <trkpt lat="47.4483" lon="6.73549">
        <ele>475.1</ele>
        <time>2016-12-30T09:32:07.000Z</time>
      </trkpt>
      <trkpt lat="47.44831" lon="6.73545">
        <ele>476</ele>
        <time>2016-12-30T09:32:09.000Z</time>
      </trkpt>
      <trkpt lat="47.44832" lon="6.73542">
        <ele>476.3</ele>
        <time>2016-12-30T09:32:10.000Z</time>
      </trkpt>
      <trkpt lat="47.44833" lon="6.73536">
        <ele>477</ele>
        <time>2016-12-30T09:32:12.000Z</time>
      </trkpt>
      <trkpt lat="47.44833" lon="6.73533">
        <ele>477.4</ele>
        <time>2016-12-30T09:32:13.000Z</time>
      </trkpt>
      <trkpt lat="47.44834" lon="6.73527">
        <ele>478.1</ele>
        <time>2016-12-30T09:32:15.000Z</time>
      </trkpt>
      <trkpt lat="47.44834" lon="6.73524">
        <ele>478.4</ele>
        <time>2016-12-30T09:32:16.000Z</time>
      </trkpt>
      <trkpt lat="47.44836" lon="6.7352">
        <ele>478.9</ele>
        <time>2016-12-30T09:32:17.000Z</time>
      </trkpt>
      <trkpt lat="47.44837" lon="6.73517">
        <ele>479.4</ele>
        <time>2016-12-30T09:32:18.000Z</time>
      </trkpt>
      <trkpt lat="47.44838" lon="6.73512">
        <ele>480</ele>
        <time>2016-12-30T09:32:20.000Z</time>
      </trkpt>
      <trkpt lat="47.44837" lon="6.7351">
        <ele>480.1</ele>
        <time>2016-12-30T09:32:21.000Z</time>
      </trkpt>
      <trkpt lat="47.44837" lon="6.73503">
        <ele>480.2</ele>
        <time>2016-12-30T09:32:23.000Z</time>
      </trkpt>
      <trkpt lat="47.44837" lon="6.73501">
        <ele>480.2</ele>
        <time>2016-12-30T09:32:24.000Z</time>
      </trkpt>
      <trkpt lat="47.44835" lon="6.73496">
        <ele>480.7</ele>
        <time>2016-12-30T09:32:26.000Z</time>
      </trkpt>
      <trkpt lat="47.44834" lon="6.73495">
        <ele>481</ele>
        <time>2016-12-30T09:32:27.000Z</time>
      </trkpt>
      <trkpt lat="47.44832" lon="6.7349">
        <ele>481.5</ele>
        <time>2016-12-30T09:32:30.000Z</time>
      </trkpt>
      <trkpt lat="47.44831" lon="6.73487">
        <ele>481.6</ele>
        <time>2016-12-30T09:32:31.000Z</time>
      </trkpt>
      <trkpt lat="47.44831" lon="6.73482">
        <ele>481.9</ele>
        <time>2016-12-30T09:32:34.000Z</time>
      </trkpt>
      <trkpt lat="47.44831" lon="6.73479">
        <ele>482</ele>
        <time>2016-12-30T09:32:35.000Z</time>
      </trkpt>
      <trkpt lat="47.44829" lon="6.73473">
        <ele>482.1</ele>
        <time>2016-12-30T09:32:38.000Z</time>
      </trkpt>
      <trkpt lat="47.44827" lon="6.7347">
        <ele>482.1</ele>
        <time>2016-12-30T09:32:39.000Z</time>
      </trkpt>
      <trkpt lat="47.44826" lon="6.73464">
        <ele>482.1</ele>
        <time>2016-12-30T09:32:43.000Z</time>
      </trkpt>
      <trkpt lat="47.44826" lon="6.73462">
        <ele>482</ele>
        <time>2016-12-30T09:32:44.000Z</time>
      </trkpt>
      <trkpt lat="47.44827" lon="6.73458">
        <ele>481.8</ele>
        <time>2016-12-30T09:32:46.000Z</time>
      </trkpt>
      <trkpt lat="47.44827" lon="6.73455">
        <ele>481.7</ele>
        <time>2016-12-30T09:32:47.000Z</time>
      </trkpt>
      <trkpt lat="47.44827" lon="6.7345">
        <ele>481.7</ele>
        <time>2016-12-30T09:32:49.000Z</time>
      </trkpt>
      <trkpt lat="47.44827" lon="6.73447">
        <ele>481.7</ele>
        <time>2016-12-30T09:32:50.000Z</time>
      </trkpt>
      <trkpt lat="47.4483" lon="6.73443">
        <ele>482</ele>
        <time>2016-12-30T09:32:54.000Z</time>
      </trkpt>
      <trkpt lat="47.44832" lon="6.73443">
        <ele>482</ele>
        <time>2016-12-30T09:32:55.000Z</time>
      </trkpt>
      <trkpt lat="47.44835" lon="6.73441">
        <ele>482.3</ele>
        <time>2016-12-30T09:32:58.000Z</time>
      </trkpt>
      <trkpt lat="47.44836" lon="6.73439">
        <ele>482.3</ele>
        <time>2016-12-30T09:32:59.000Z</time>
      </trkpt>
      <trkpt lat="47.44838" lon="6.73434">
        <ele>482.7</ele>
        <time>2016-12-30T09:33:03.000Z</time>
      </trkpt>
      <trkpt lat="47.44838" lon="6.73433">
        <ele>482.8</ele>
        <time>2016-12-30T09:33:04.000Z</time>
      </trkpt>
      <trkpt lat="47.44839" lon="6.73427">
        <ele>482.9</ele>
        <time>2016-12-30T09:33:07.000Z</time>
      </trkpt>
      <trkpt lat="47.44839" lon="6.73424">
        <ele>483</ele>
        <time>2016-12-30T09:33:08.000Z</time>
      </trkpt>
      <trkpt lat="47.4484" lon="6.73418">
        <ele>483.2</ele>
        <time>2016-12-30T09:33:12.000Z</time>
      </trkpt>
      <trkpt lat="47.4484" lon="6.73417">
        <ele>483.3</ele>
        <time>2016-12-30T09:33:13.000Z</time>
      </trkpt>
      <trkpt lat="47.44843" lon="6.73415">
        <ele>510.5</ele>
        <time>2016-12-30T09:41:07.999Z</time>
      </trkpt>
      <trkpt lat="47.44843" lon="6.73413">
        <ele>511</ele>
        <time>2016-12-30T09:41:08.999Z</time>
      </trkpt>
      <trkpt lat="47.44843" lon="6.73409">
        <ele>510.8</ele>
        <time>2016-12-30T09:41:12.999Z</time>
      </trkpt>
      <trkpt lat="47.44843" lon="6.73406">
        <ele>510.6</ele>
        <time>2016-12-30T09:41:13.999Z</time>
      </trkpt>
      <trkpt lat="47.44842" lon="6.73401">
        <ele>510.3</ele>
        <time>2016-12-30T09:41:14.999Z</time>
      </trkpt>
      <trkpt lat="47.4484" lon="6.73395">
        <ele>510</ele>
        <time>2016-12-30T09:41:15.999Z</time>
      </trkpt>
      <trkpt lat="47.44839" lon="6.73389">
        <ele>509.7</ele>
        <time>2016-12-30T09:41:16.999Z</time>
      </trkpt>
      <trkpt lat="47.44837" lon="6.73384">
        <ele>509.4</ele>
        <time>2016-12-30T09:41:17.999Z</time>
      </trkpt>
      <trkpt lat="47.44836" lon="6.7338">
        <ele>509.1</ele>
        <time>2016-12-30T09:41:18.999Z</time>
      </trkpt>
      <trkpt lat="47.44835" lon="6.73376">
        <ele>508.7</ele>
        <time>2016-12-30T09:41:19.999Z</time>
      </trkpt>
      <trkpt lat="47.44834" lon="6.73373">
        <ele>508.3</ele>
        <time>2016-12-30T09:41:20.999Z</time>
      </trkpt>
      <trkpt lat="47.44833" lon="6.7337">
        <ele>507.9</ele>
        <time>2016-12-30T09:41:21.999Z</time>
      </trkpt>
      <trkpt lat="47.44833" lon="6.73365">
        <ele>507</ele>
        <time>2016-12-30T09:41:23.999Z</time>
      </trkpt>
      <trkpt lat="47.44832" lon="6.73363">
        <ele>506.8</ele>
        <time>2016-12-30T09:41:24.999Z</time>
      </trkpt>
      <trkpt lat="47.44831" lon="6.73357">
        <ele>506.4</ele>
        <time>2016-12-30T09:41:26.999Z</time>
      </trkpt>
      <trkpt lat="47.44831" lon="6.73355">
        <ele>506.1</ele>
        <time>2016-12-30T09:41:27.999Z</time>
      </trkpt>
      <trkpt lat="47.44829" lon="6.73351">
        <ele>505.6</ele>
        <time>2016-12-30T09:41:29.999Z</time>
      </trkpt>
      <trkpt lat="47.44829" lon="6.73348">
        <ele>505.3</ele>
        <time>2016-12-30T09:41:30.999Z</time>
      </trkpt>
      <trkpt lat="47.44828" lon="6.73343">
        <ele>504.5</ele>
        <time>2016-12-30T09:41:32.999Z</time>
      </trkpt>
      <trkpt lat="47.44828" lon="6.7334">
        <ele>504.3</ele>
        <time>2016-12-30T09:41:33.999Z</time>
      </trkpt>
      <trkpt lat="47.44827" lon="6.73335">
        <ele>503.9</ele>
        <time>2016-12-30T09:41:35.999Z</time>
      </trkpt>
      <trkpt lat="47.44826" lon="6.73333">
        <ele>503.7</ele>
        <time>2016-12-30T09:41:36.999Z</time>
      </trkpt>
      <trkpt lat="47.44825" lon="6.73327">
        <ele>503</ele>
        <time>2016-12-30T09:41:38.999Z</time>
      </trkpt>
      <trkpt lat="47.44825" lon="6.73323">
        <ele>502.6</ele>
        <time>2016-12-30T09:41:39.999Z</time>
      </trkpt>
      <trkpt lat="47.44824" lon="6.73319">
        <ele>502.2</ele>
        <time>2016-12-30T09:41:41.999Z</time>
      </trkpt>
      <trkpt lat="47.44823" lon="6.73317">
        <ele>502.1</ele>
        <time>2016-12-30T09:41:42.999Z</time>
      </trkpt>
      <trkpt lat="47.4482" lon="6.73313">
        <ele>501.9</ele>
        <time>2016-12-30T09:41:44.999Z</time>
      </trkpt>
      <trkpt lat="47.44819" lon="6.73311">
        <ele>501.8</ele>
        <time>2016-12-30T09:41:45.999Z</time>
      </trkpt>
      <trkpt lat="47.44818" lon="6.73305">
        <ele>501.5</ele>
        <time>2016-12-30T09:41:47.999Z</time>
      </trkpt>
      <trkpt lat="47.44817" lon="6.73302">
        <ele>501.4</ele>
        <time>2016-12-30T09:41:48.999Z</time>
      </trkpt>
      <trkpt lat="47.44816" lon="6.73298">
        <ele>501.3</ele>
        <time>2016-12-30T09:41:49.999Z</time>
      </trkpt>
      <trkpt lat="47.44814" lon="6.73296">
        <ele>501.3</ele>
        <time>2016-12-30T09:41:50.999Z</time>
      </trkpt>
      <trkpt lat="47.44813" lon="6.73291">
        <ele>501.3</ele>
        <time>2016-12-30T09:41:52.999Z</time>
      </trkpt>
      <trkpt lat="47.44812" lon="6.73288">
        <ele>501.4</ele>
        <time>2016-12-30T09:41:53.999Z</time>
      </trkpt>
      <trkpt lat="47.44811" lon="6.73284">
        <ele>501.4</ele>
        <time>2016-12-30T09:41:55.999Z</time>
      </trkpt>
      <trkpt lat="47.4481" lon="6.73281">
        <ele>501.2</ele>
        <time>2016-12-30T09:41:56.999Z</time>
      </trkpt>
      <trkpt lat="47.44807" lon="6.73276">
        <ele>501.1</ele>
        <time>2016-12-30T09:41:58.999Z</time>
      </trkpt>
      <trkpt lat="47.44807" lon="6.73275">
        <ele>501.1</ele>
        <time>2016-12-30T09:41:59.999Z</time>
      </trkpt>
      <trkpt lat="47.44804" lon="6.7327">
        <ele>501.1</ele>
        <time>2016-12-30T09:42:02.999Z</time>
      </trkpt>
      <trkpt lat="47.44804" lon="6.73269">
        <ele>501.2</ele>
        <time>2016-12-30T09:42:03.999Z</time>
      </trkpt>
      <trkpt lat="47.44802" lon="6.73264">
        <ele>501.2</ele>
        <time>2016-12-30T09:42:05.999Z</time>
      </trkpt>
      <trkpt lat="47.448" lon="6.7326">
        <ele>501.2</ele>
        <time>2016-12-30T09:42:06.999Z</time>
      </trkpt>
      <trkpt lat="47.44799" lon="6.73255">
        <ele>501.2</ele>
        <time>2016-12-30T09:42:07.999Z</time>
      </trkpt>
      <trkpt lat="47.44797" lon="6.73251">
        <ele>501.3</ele>
        <time>2016-12-30T09:42:08.999Z</time>
      </trkpt>
      <trkpt lat="47.44796" lon="6.73247">
        <ele>501.3</ele>
        <time>2016-12-30T09:42:09.999Z</time>
      </trkpt>
      <trkpt lat="47.44795" lon="6.73244">
        <ele>501.4</ele>
        <time>2016-12-30T09:42:10.999Z</time>
      </trkpt>
      <trkpt lat="47.44793" lon="6.73239">
        <ele>501.2</ele>
        <time>2016-12-30T09:42:12.999Z</time>
      </trkpt>
      <trkpt lat="47.44793" lon="6.73236">
        <ele>501.2</ele>
        <time>2016-12-30T09:42:13.999Z</time>
      </trkpt>
      <trkpt lat="47.44792" lon="6.7323">
        <ele>501</ele>
        <time>2016-12-30T09:42:15.999Z</time>
      </trkpt>
      <trkpt lat="47.44791" lon="6.73228">
        <ele>501</ele>
        <time>2016-12-30T09:42:16.999Z</time>
      </trkpt>
      <trkpt lat="47.4479" lon="6.73224">
        <ele>500.9</ele>
        <time>2016-12-30T09:42:18.999Z</time>
      </trkpt>
      <trkpt lat="47.44788" lon="6.73221">
        <ele>501</ele>
        <time>2016-12-30T09:42:19.999Z</time>
      </trkpt>
      <trkpt lat="47.44786" lon="6.73217">
        <ele>501</ele>
        <time>2016-12-30T09:42:20.999Z</time>
      </trkpt>
      <trkpt lat="47.44785" lon="6.73215">
        <ele>501.2</ele>
        <time>2016-12-30T09:42:21.999Z</time>
      </trkpt>
      <trkpt lat="47.44783" lon="6.73211">
        <ele>501.6</ele>
        <time>2016-12-30T09:42:23.999Z</time>
      </trkpt>
      <trkpt lat="47.44781" lon="6.73209">
        <ele>501.8</ele>
        <time>2016-12-30T09:42:24.999Z</time>
      </trkpt>
      <trkpt lat="47.4478" lon="6.73208">
        <ele>502</ele>
        <time>2016-12-30T09:42:25.999Z</time>
      </trkpt>
      <trkpt lat="47.44778" lon="6.73204">
        <ele>502.1</ele>
        <time>2016-12-30T09:42:26.999Z</time>
      </trkpt>
      <trkpt lat="47.44777" lon="6.732">
        <ele>502.4</ele>
        <time>2016-12-30T09:42:27.999Z</time>
      </trkpt>
      <trkpt lat="47.44776" lon="6.73198">
        <ele>502.6</ele>
        <time>2016-12-30T09:42:28.999Z</time>
      </trkpt>
      <trkpt lat="47.44775" lon="6.73195">
        <ele>503</ele>
        <time>2016-12-30T09:42:30.999Z</time>
      </trkpt>
      <trkpt lat="47.44773" lon="6.73191">
        <ele>503.2</ele>
        <time>2016-12-30T09:42:31.999Z</time>
      </trkpt>
      <trkpt lat="47.44772" lon="6.73187">
        <ele>503.5</ele>
        <time>2016-12-30T09:42:32.999Z</time>
      </trkpt>
      <trkpt lat="47.4477" lon="6.73183">
        <ele>503.7</ele>
        <time>2016-12-30T09:42:33.999Z</time>
      </trkpt>
      <trkpt lat="47.44769" lon="6.73179">
        <ele>504</ele>
        <time>2016-12-30T09:42:34.999Z</time>
      </trkpt>
      <trkpt lat="47.44768" lon="6.73174">
        <ele>504.3</ele>
        <time>2016-12-30T09:42:35.999Z</time>
      </trkpt>
      <trkpt lat="47.44766" lon="6.73171">
        <ele>504.5</ele>
        <time>2016-12-30T09:42:36.999Z</time>
      </trkpt>
      <trkpt lat="47.44765" lon="6.73169">
        <ele>504.7</ele>
        <time>2016-12-30T09:42:37.999Z</time>
      </trkpt>
      <trkpt lat="47.44763" lon="6.73165">
        <ele>504.9</ele>
        <time>2016-12-30T09:42:38.999Z</time>
      </trkpt>
      <trkpt lat="47.44761" lon="6.73163">
        <ele>505.1</ele>
        <time>2016-12-30T09:42:39.999Z</time>
      </trkpt>
      <trkpt lat="47.44758" lon="6.73158">
        <ele>505.4</ele>
        <time>2016-12-30T09:42:41.999Z</time>
      </trkpt>
      <trkpt lat="47.44757" lon="6.73156">
        <ele>505.6</ele>
        <time>2016-12-30T09:42:42.999Z</time>
      </trkpt>
      <trkpt lat="47.44756" lon="6.73151">
        <ele>505.8</ele>
        <time>2016-12-30T09:42:44.999Z</time>
      </trkpt>
      <trkpt lat="47.44755" lon="6.73147">
        <ele>505.9</ele>
        <time>2016-12-30T09:42:45.999Z</time>
      </trkpt>
      <trkpt lat="47.44754" lon="6.73143">
        <ele>506.1</ele>
        <time>2016-12-30T09:42:46.999Z</time>
      </trkpt>
      <trkpt lat="47.44753" lon="6.73139">
        <ele>506.4</ele>
        <time>2016-12-30T09:42:47.999Z</time>
      </trkpt>
      <trkpt lat="47.44751" lon="6.73134">
        <ele>506.9</ele>
        <time>2016-12-30T09:42:49.999Z</time>
      </trkpt>
      <trkpt lat="47.44751" lon="6.73132">
        <ele>507.1</ele>
        <time>2016-12-30T09:42:50.999Z</time>
      </trkpt>
      <trkpt lat="47.4475" lon="6.73128">
        <ele>507.4</ele>
        <time>2016-12-30T09:42:51.999Z</time>
      </trkpt>
      <trkpt lat="47.44748" lon="6.73125">
        <ele>507.6</ele>
        <time>2016-12-30T09:42:52.999Z</time>
      </trkpt>
      <trkpt lat="47.44747" lon="6.73121">
        <ele>507.9</ele>
        <time>2016-12-30T09:42:53.999Z</time>
      </trkpt>
      <trkpt lat="47.44746" lon="6.73118">
        <ele>508.2</ele>
        <time>2016-12-30T09:42:54.999Z</time>
      </trkpt>
      <trkpt lat="47.44744" lon="6.73114">
        <ele>508.5</ele>
        <time>2016-12-30T09:42:55.999Z</time>
      </trkpt>
      <trkpt lat="47.44742" lon="6.7311">
        <ele>508.8</ele>
        <time>2016-12-30T09:42:56.999Z</time>
      </trkpt>
      <trkpt lat="47.4474" lon="6.73105">
        <ele>509.2</ele>
        <time>2016-12-30T09:42:57.999Z</time>
      </trkpt>
      <trkpt lat="47.4474" lon="6.73102">
        <ele>509.5</ele>
        <time>2016-12-30T09:42:58.999Z</time>
      </trkpt>
      <trkpt lat="47.44739" lon="6.73097">
        <ele>510.2</ele>
        <time>2016-12-30T09:43:00.999Z</time>
      </trkpt>
      <trkpt lat="47.44738" lon="6.73095">
        <ele>510.6</ele>
        <time>2016-12-30T09:43:01.999Z</time>
      </trkpt>
      <trkpt lat="47.44736" lon="6.7309">
        <ele>511.2</ele>
        <time>2016-12-30T09:43:03.999Z</time>
      </trkpt>
      <trkpt lat="47.44736" lon="6.73088">
        <ele>511.5</ele>
        <time>2016-12-30T09:43:04.999Z</time>
      </trkpt>
      <trkpt lat="47.44735" lon="6.73084">
        <ele>511.7</ele>
        <time>2016-12-30T09:43:05.999Z</time>
      </trkpt>
      <trkpt lat="47.44735" lon="6.73081">
        <ele>512</ele>
        <time>2016-12-30T09:43:06.999Z</time>
      </trkpt>
      <trkpt lat="47.44733" lon="6.73075">
        <ele>512.2</ele>
        <time>2016-12-30T09:43:08.999Z</time>
      </trkpt>
      <trkpt lat="47.44732" lon="6.73072">
        <ele>512.3</ele>
        <time>2016-12-30T09:43:09.999Z</time>
      </trkpt>
      <trkpt lat="47.44731" lon="6.73067">
        <ele>512.3</ele>
        <time>2016-12-30T09:43:11.999Z</time>
      </trkpt>
      <trkpt lat="47.4473" lon="6.73063">
        <ele>512.1</ele>
        <time>2016-12-30T09:43:12.999Z</time>
      </trkpt>
      <trkpt lat="47.44729" lon="6.7306">
        <ele>511.9</ele>
        <time>2016-12-30T09:43:13.999Z</time>
      </trkpt>
      <trkpt lat="47.44727" lon="6.73057">
        <ele>511.5</ele>
        <time>2016-12-30T09:43:14.999Z</time>
      </trkpt>
      <trkpt lat="47.44725" lon="6.73054">
        <ele>511.1</ele>
        <time>2016-12-30T09:43:15.999Z</time>
      </trkpt>
      <trkpt lat="47.44723" lon="6.7305">
        <ele>510.7</ele>
        <time>2016-12-30T09:43:16.999Z</time>
      </trkpt>
      <trkpt lat="47.44722" lon="6.73045">
        <ele>510.4</ele>
        <time>2016-12-30T09:43:17.999Z</time>
      </trkpt>
      <trkpt lat="47.4472" lon="6.7304">
        <ele>510.2</ele>
        <time>2016-12-30T09:43:18.999Z</time>
      </trkpt>
      <trkpt lat="47.44717" lon="6.73036">
        <ele>510</ele>
        <time>2016-12-30T09:43:19.999Z</time>
      </trkpt>
      <trkpt lat="47.44714" lon="6.73032">
        <ele>510</ele>
        <time>2016-12-30T09:43:20.999Z</time>
      </trkpt>
      <trkpt lat="47.44711" lon="6.73028">
        <ele>509.8</ele>
        <time>2016-12-30T09:43:21.999Z</time>
      </trkpt>
      <trkpt lat="47.44709" lon="6.73025">
        <ele>509.6</ele>
        <time>2016-12-30T09:43:22.999Z</time>
      </trkpt>
      <trkpt lat="47.44707" lon="6.73022">
        <ele>509.4</ele>
        <time>2016-12-30T09:43:23.999Z</time>
      </trkpt>
      <trkpt lat="47.44705" lon="6.73021">
        <ele>509.1</ele>
        <time>2016-12-30T09:43:24.999Z</time>
      </trkpt>
      <trkpt lat="47.44703" lon="6.73018">
        <ele>508.8</ele>
        <time>2016-12-30T09:43:25.999Z</time>
      </trkpt>
      <trkpt lat="47.44701" lon="6.73015">
        <ele>508.5</ele>
        <time>2016-12-30T09:43:26.999Z</time>
      </trkpt>
      <trkpt lat="47.44699" lon="6.73011">
        <ele>508.3</ele>
        <time>2016-12-30T09:43:27.999Z</time>
      </trkpt>
      <trkpt lat="47.44697" lon="6.73007">
        <ele>508.1</ele>
        <time>2016-12-30T09:43:28.999Z</time>
      </trkpt>
      <trkpt lat="47.44696" lon="6.73003">
        <ele>507.8</ele>
        <time>2016-12-30T09:43:29.999Z</time>
      </trkpt>
      <trkpt lat="47.44695" lon="6.72999">
        <ele>507.7</ele>
        <time>2016-12-30T09:43:30.999Z</time>
      </trkpt>
      <trkpt lat="47.44694" lon="6.72995">
        <ele>507.6</ele>
        <time>2016-12-30T09:43:31.999Z</time>
      </trkpt>
      <trkpt lat="47.44693" lon="6.72992">
        <ele>507.6</ele>
        <time>2016-12-30T09:43:32.999Z</time>
      </trkpt>
      <trkpt lat="47.44693" lon="6.72988">
        <ele>507.7</ele>
        <time>2016-12-30T09:43:33.999Z</time>
      </trkpt>
      <trkpt lat="47.44692" lon="6.72984">
        <ele>507.7</ele>
        <time>2016-12-30T09:43:34.999Z</time>
      </trkpt>
      <trkpt lat="47.4469" lon="6.7298">
        <ele>507.5</ele>
        <time>2016-12-30T09:43:35.999Z</time>
      </trkpt>
      <trkpt lat="47.44689" lon="6.72976">
        <ele>507.1</ele>
        <time>2016-12-30T09:43:36.999Z</time>
      </trkpt>
      <trkpt lat="47.44687" lon="6.72972">
        <ele>506.8</ele>
        <time>2016-12-30T09:43:37.999Z</time>
      </trkpt>
      <trkpt lat="47.44685" lon="6.7297">
        <ele>506.4</ele>
        <time>2016-12-30T09:43:38.999Z</time>
      </trkpt>
      <trkpt lat="47.44683" lon="6.72967">
        <ele>506.3</ele>
        <time>2016-12-30T09:43:39.999Z</time>
      </trkpt>
      <trkpt lat="47.44682" lon="6.72964">
        <ele>506.2</ele>
        <time>2016-12-30T09:43:40.999Z</time>
      </trkpt>
      <trkpt lat="47.44679" lon="6.7296">
        <ele>506</ele>
        <time>2016-12-30T09:43:42.999Z</time>
      </trkpt>
      <trkpt lat="47.44678" lon="6.72957">
        <ele>506</ele>
        <time>2016-12-30T09:43:43.999Z</time>
      </trkpt>
      <trkpt lat="47.44676" lon="6.72954">
        <ele>506</ele>
        <time>2016-12-30T09:43:44.999Z</time>
      </trkpt>
      <trkpt lat="47.44672" lon="6.72949">
        <ele>505.7</ele>
        <time>2016-12-30T09:43:45.999Z</time>
      </trkpt>
      <trkpt lat="47.44669" lon="6.72945">
        <ele>505.7</ele>
        <time>2016-12-30T09:43:47.999Z</time>
      </trkpt>
      <trkpt lat="47.44669" lon="6.72944">
        <ele>505.6</ele>
        <time>2016-12-30T09:43:48.999Z</time>
      </trkpt>
      <trkpt lat="47.44667" lon="6.72941">
        <ele>505.4</ele>
        <time>2016-12-30T09:43:50.999Z</time>
      </trkpt>
      <trkpt lat="47.44665" lon="6.72938">
        <ele>505.3</ele>
        <time>2016-12-30T09:43:51.999Z</time>
      </trkpt>
      <trkpt lat="47.44661" lon="6.72931">
        <ele>505.3</ele>
        <time>2016-12-30T09:43:52.999Z</time>
      </trkpt>
      <trkpt lat="47.4466" lon="6.72929">
        <ele>505.3</ele>
        <time>2016-12-30T09:43:53.999Z</time>
      </trkpt>
      <trkpt lat="47.44658" lon="6.72925">
        <ele>505.2</ele>
        <time>2016-12-30T09:43:54.999Z</time>
      </trkpt>
      <trkpt lat="47.44656" lon="6.7292">
        <ele>504.7</ele>
        <time>2016-12-30T09:43:58.999Z</time>
      </trkpt>
      <trkpt lat="47.44654" lon="6.72919">
        <ele>504.7</ele>
        <time>2016-12-30T09:43:59.999Z</time>
      </trkpt>
      <trkpt lat="47.44652" lon="6.72915">
        <ele>504.7</ele>
        <time>2016-12-30T09:44:02.999Z</time>
      </trkpt>
      <trkpt lat="47.4465" lon="6.72911">
        <ele>504.6</ele>
        <time>2016-12-30T09:44:03.999Z</time>
      </trkpt>
      <trkpt lat="47.44647" lon="6.72907">
        <ele>504.6</ele>
        <time>2016-12-30T09:44:05.999Z</time>
      </trkpt>
      <trkpt lat="47.44646" lon="6.72906">
        <ele>504.7</ele>
        <time>2016-12-30T09:44:06.999Z</time>
      </trkpt>
      <trkpt lat="47.44644" lon="6.72901">
        <ele>504.8</ele>
        <time>2016-12-30T09:44:08.999Z</time>
      </trkpt>
      <trkpt lat="47.44644" lon="6.729">
        <ele>505</ele>
        <time>2016-12-30T09:44:09.999Z</time>
      </trkpt>
      <trkpt lat="47.44644" lon="6.72898">
        <ele>505</ele>
        <time>2016-12-30T09:44:10.999Z</time>
      </trkpt>
      <trkpt lat="47.44642" lon="6.72889">
        <ele>505</ele>
        <time>2016-12-30T09:44:11.999Z</time>
      </trkpt>
      <trkpt lat="47.44639" lon="6.72882">
        <ele>504.9</ele>
        <time>2016-12-30T09:44:12.999Z</time>
      </trkpt>
      <trkpt lat="47.44637" lon="6.72875">
        <ele>504.9</ele>
        <time>2016-12-30T09:44:13.999Z</time>
      </trkpt>
      <trkpt lat="47.44636" lon="6.72871">
        <ele>504.8</ele>
        <time>2016-12-30T09:44:14.999Z</time>
      </trkpt>
      <trkpt lat="47.44635" lon="6.72869">
        <ele>504.7</ele>
        <time>2016-12-30T09:44:15.999Z</time>
      </trkpt>
      <trkpt lat="47.44634" lon="6.72865">
        <ele>504.5</ele>
        <time>2016-12-30T09:44:17.999Z</time>
      </trkpt>
      <trkpt lat="47.44633" lon="6.72863">
        <ele>504.5</ele>
        <time>2016-12-30T09:44:18.999Z</time>
      </trkpt>
      <trkpt lat="47.44631" lon="6.72858">
        <ele>504.5</ele>
        <time>2016-12-30T09:44:20.999Z</time>
      </trkpt>
      <trkpt lat="47.4463" lon="6.72855">
        <ele>504.5</ele>
        <time>2016-12-30T09:44:21.999Z</time>
      </trkpt>
      <trkpt lat="47.4463" lon="6.72848">
        <ele>504.3</ele>
        <time>2016-12-30T09:44:24.999Z</time>
      </trkpt>
      <trkpt lat="47.44629" lon="6.72845">
        <ele>504.4</ele>
        <time>2016-12-30T09:44:25.999Z</time>
      </trkpt>
      <trkpt lat="47.44628" lon="6.72839">
        <ele>504.4</ele>
        <time>2016-12-30T09:44:29.999Z</time>
      </trkpt>
      <trkpt lat="47.44628" lon="6.72837">
        <ele>504.5</ele>
        <time>2016-12-30T09:44:30.999Z</time>
      </trkpt>
      <trkpt lat="47.44628" lon="6.72833">
        <ele>504.5</ele>
        <time>2016-12-30T09:44:31.999Z</time>
      </trkpt>
      <trkpt lat="47.44627" lon="6.72828">
        <ele>504.5</ele>
        <time>2016-12-30T09:44:32.999Z</time>
      </trkpt>
      <trkpt lat="47.44627" lon="6.72824">
        <ele>504.5</ele>
        <time>2016-12-30T09:44:33.999Z</time>
      </trkpt>
      <trkpt lat="47.44626" lon="6.72819">
        <ele>504.5</ele>
        <time>2016-12-30T09:44:34.999Z</time>
      </trkpt>
      <trkpt lat="47.44626" lon="6.72815">
        <ele>504.5</ele>
        <time>2016-12-30T09:44:35.999Z</time>
      </trkpt>
      <trkpt lat="47.44625" lon="6.72811">
        <ele>504.5</ele>
        <time>2016-12-30T09:44:36.999Z</time>
      </trkpt>
      <trkpt lat="47.44624" lon="6.72808">
        <ele>504.5</ele>
        <time>2016-12-30T09:44:37.999Z</time>
      </trkpt>
      <trkpt lat="47.44624" lon="6.72804">
        <ele>504.5</ele>
        <time>2016-12-30T09:44:38.999Z</time>
      </trkpt>
      <trkpt lat="47.44623" lon="6.72801">
        <ele>504.7</ele>
        <time>2016-12-30T09:44:39.999Z</time>
      </trkpt>
      <trkpt lat="47.44624" lon="6.72796">
        <ele>504.8</ele>
        <time>2016-12-30T09:44:40.999Z</time>
      </trkpt>
      <trkpt lat="47.44623" lon="6.72791">
        <ele>504.8</ele>
        <time>2016-12-30T09:44:41.999Z</time>
      </trkpt>
      <trkpt lat="47.44622" lon="6.72786">
        <ele>504.8</ele>
        <time>2016-12-30T09:44:42.999Z</time>
      </trkpt>
      <trkpt lat="47.44622" lon="6.7278">
        <ele>505.1</ele>
        <time>2016-12-30T09:44:44.999Z</time>
      </trkpt>
      <trkpt lat="47.44622" lon="6.72775">
        <ele>505.2</ele>
        <time>2016-12-30T09:44:45.999Z</time>
      </trkpt>
      <trkpt lat="47.44621" lon="6.72772">
        <ele>505.3</ele>
        <time>2016-12-30T09:44:46.999Z</time>
      </trkpt>
      <trkpt lat="47.44621" lon="6.72769">
        <ele>505.4</ele>
        <time>2016-12-30T09:44:47.999Z</time>
      </trkpt>
      <trkpt lat="47.44619" lon="6.72765">
        <ele>505.3</ele>
        <time>2016-12-30T09:44:48.999Z</time>
      </trkpt>
      <trkpt lat="47.44618" lon="6.72761">
        <ele>505.3</ele>
        <time>2016-12-30T09:44:49.999Z</time>
      </trkpt>
      <trkpt lat="47.44615" lon="6.72757">
        <ele>505.4</ele>
        <time>2016-12-30T09:44:50.999Z</time>
      </trkpt>
      <trkpt lat="47.44614" lon="6.72754">
        <ele>505.3</ele>
        <time>2016-12-30T09:44:51.999Z</time>
      </trkpt>
      <trkpt lat="47.44612" lon="6.72749">
        <ele>505</ele>
        <time>2016-12-30T09:44:53.999Z</time>
      </trkpt>
      <trkpt lat="47.4461" lon="6.72748">
        <ele>504.9</ele>
        <time>2016-12-30T09:44:54.999Z</time>
      </trkpt>
      <trkpt lat="47.44608" lon="6.72742">
        <ele>505.2</ele>
        <time>2016-12-30T09:45:01.999Z</time>
      </trkpt>
      <trkpt lat="47.44605" lon="6.7274">
        <ele>505.4</ele>
        <time>2016-12-30T09:45:02.999Z</time>
      </trkpt>
      <trkpt lat="47.44602" lon="6.72738">
        <ele>505.6</ele>
        <time>2016-12-30T09:45:03.999Z</time>
      </trkpt>
      <trkpt lat="47.446" lon="6.72734">
        <ele>505.8</ele>
        <time>2016-12-30T09:45:04.999Z</time>
      </trkpt>
      <trkpt lat="47.44597" lon="6.72731">
        <ele>506.1</ele>
        <time>2016-12-30T09:45:07.999Z</time>
      </trkpt>
      <trkpt lat="47.44595" lon="6.72728">
        <ele>506.2</ele>
        <time>2016-12-30T09:45:08.999Z</time>
      </trkpt>
      <trkpt lat="47.44593" lon="6.72724">
        <ele>506.4</ele>
        <time>2016-12-30T09:45:10.999Z</time>
      </trkpt>
      <trkpt lat="47.44592" lon="6.7272">
        <ele>506.5</ele>
        <time>2016-12-30T09:45:11.999Z</time>
      </trkpt>
      <trkpt lat="47.4459" lon="6.72716">
        <ele>506.8</ele>
        <time>2016-12-30T09:45:13.999Z</time>
      </trkpt>
      <trkpt lat="47.44589" lon="6.72714">
        <ele>507.1</ele>
        <time>2016-12-30T09:45:14.999Z</time>
      </trkpt>
      <trkpt lat="47.44588" lon="6.72709">
        <ele>507.8</ele>
        <time>2016-12-30T09:45:17.999Z</time>
      </trkpt>
      <trkpt lat="47.44586" lon="6.72706">
        <ele>508</ele>
        <time>2016-12-30T09:45:18.999Z</time>
      </trkpt>
      <trkpt lat="47.44583" lon="6.72701">
        <ele>508.8</ele>
        <time>2016-12-30T09:45:21.999Z</time>
      </trkpt>
      <trkpt lat="47.44582" lon="6.72698">
        <ele>508.9</ele>
        <time>2016-12-30T09:45:22.999Z</time>
      </trkpt>
      <trkpt lat="47.4458" lon="6.72695">
        <ele>509.1</ele>
        <time>2016-12-30T09:45:23.999Z</time>
      </trkpt>
      <trkpt lat="47.44578" lon="6.72691">
        <ele>509.1</ele>
        <time>2016-12-30T09:45:24.999Z</time>
      </trkpt>
      <trkpt lat="47.44575" lon="6.72687">
        <ele>509</ele>
        <time>2016-12-30T09:45:25.999Z</time>
      </trkpt>
      <trkpt lat="47.44573" lon="6.72684">
        <ele>508.9</ele>
        <time>2016-12-30T09:45:26.999Z</time>
      </trkpt>
      <trkpt lat="47.44572" lon="6.72678">
        <ele>508.9</ele>
        <time>2016-12-30T09:45:28.999Z</time>
      </trkpt>
      <trkpt lat="47.44571" lon="6.72675">
        <ele>509</ele>
        <time>2016-12-30T09:45:29.999Z</time>
      </trkpt>
      <trkpt lat="47.44569" lon="6.72671">
        <ele>509</ele>
        <time>2016-12-30T09:45:31.999Z</time>
      </trkpt>
      <trkpt lat="47.44568" lon="6.72669">
        <ele>509</ele>
        <time>2016-12-30T09:45:32.999Z</time>
      </trkpt>
      <trkpt lat="47.44566" lon="6.72664">
        <ele>509</ele>
        <time>2016-12-30T09:45:34.999Z</time>
      </trkpt>
      <trkpt lat="47.44564" lon="6.7266">
        <ele>509</ele>
        <time>2016-12-30T09:45:35.999Z</time>
      </trkpt>
      <trkpt lat="47.44562" lon="6.72656">
        <ele>509</ele>
        <time>2016-12-30T09:45:36.999Z</time>
      </trkpt>
      <trkpt lat="47.44561" lon="6.72652">
        <ele>509.1</ele>
        <time>2016-12-30T09:45:37.999Z</time>
      </trkpt>
      <trkpt lat="47.44559" lon="6.72647">
        <ele>509.2</ele>
        <time>2016-12-30T09:45:39.999Z</time>
      </trkpt>
      <trkpt lat="47.44559" lon="6.72643">
        <ele>509.2</ele>
        <time>2016-12-30T09:45:40.999Z</time>
      </trkpt>
      <trkpt lat="47.44558" lon="6.72636">
        <ele>509.2</ele>
        <time>2016-12-30T09:45:42.999Z</time>
      </trkpt>
      <trkpt lat="47.44559" lon="6.72635">
        <ele>509.3</ele>
        <time>2016-12-30T09:45:43.999Z</time>
      </trkpt>
      <trkpt lat="47.44559" lon="6.72631">
        <ele>509.3</ele>
        <time>2016-12-30T09:45:45.999Z</time>
      </trkpt>
      <trkpt lat="47.44557" lon="6.72625">
        <ele>509.2</ele>
        <time>2016-12-30T09:45:46.999Z</time>
      </trkpt>
      <trkpt lat="47.44557" lon="6.72619">
        <ele>509.2</ele>
        <time>2016-12-30T09:45:47.999Z</time>
      </trkpt>
      <trkpt lat="47.44556" lon="6.72616">
        <ele>509.2</ele>
        <time>2016-12-30T09:45:48.999Z</time>
      </trkpt>
      <trkpt lat="47.44556" lon="6.72612">
        <ele>509.2</ele>
        <time>2016-12-30T09:45:49.999Z</time>
      </trkpt>
      <trkpt lat="47.44555" lon="6.72608">
        <ele>509.2</ele>
        <time>2016-12-30T09:45:50.999Z</time>
      </trkpt>
      <trkpt lat="47.44555" lon="6.72603">
        <ele>509.4</ele>
        <time>2016-12-30T09:45:51.999Z</time>
      </trkpt>
      <trkpt lat="47.44555" lon="6.72598">
        <ele>509.6</ele>
        <time>2016-12-30T09:45:52.999Z</time>
      </trkpt>
      <trkpt lat="47.44554" lon="6.72593">
        <ele>509.7</ele>
        <time>2016-12-30T09:45:53.999Z</time>
      </trkpt>
      <trkpt lat="47.44553" lon="6.72587">
        <ele>509.9</ele>
        <time>2016-12-30T09:45:54.999Z</time>
      </trkpt>
      <trkpt lat="47.44553" lon="6.72584">
        <ele>510</ele>
        <time>2016-12-30T09:45:55.999Z</time>
      </trkpt>
      <trkpt lat="47.44553" lon="6.72581">
        <ele>510.1</ele>
        <time>2016-12-30T09:45:56.999Z</time>
      </trkpt>
      <trkpt lat="47.44553" lon="6.72575">
        <ele>510.3</ele>
        <time>2016-12-30T09:45:58.999Z</time>
      </trkpt>
      <trkpt lat="47.44552" lon="6.72572">
        <ele>510.3</ele>
        <time>2016-12-30T09:45:59.999Z</time>
      </trkpt>
      <trkpt lat="47.44551" lon="6.72566">
        <ele>510.5</ele>
        <time>2016-12-30T09:46:01.999Z</time>
      </trkpt>
      <trkpt lat="47.44551" lon="6.72563">
        <ele>510.6</ele>
        <time>2016-12-30T09:46:02.999Z</time>
      </trkpt>
      <trkpt lat="47.4455" lon="6.72557">
        <ele>510.7</ele>
        <time>2016-12-30T09:46:04.999Z</time>
      </trkpt>
      <trkpt lat="47.44549" lon="6.72554">
        <ele>510.6</ele>
        <time>2016-12-30T09:46:05.999Z</time>
      </trkpt>
      <trkpt lat="47.44548" lon="6.7255">
        <ele>510.7</ele>
        <time>2016-12-30T09:46:06.999Z</time>
      </trkpt>
      <trkpt lat="47.44547" lon="6.72547">
        <ele>510.7</ele>
        <time>2016-12-30T09:46:07.999Z</time>
      </trkpt>
      <trkpt lat="47.44545" lon="6.72542">
        <ele>511.1</ele>
        <time>2016-12-30T09:46:09.999Z</time>
      </trkpt>
      <trkpt lat="47.44544" lon="6.72538">
        <ele>511.2</ele>
        <time>2016-12-30T09:46:10.999Z</time>
      </trkpt>
      <trkpt lat="47.44543" lon="6.72534">
        <ele>511.4</ele>
        <time>2016-12-30T09:46:11.999Z</time>
      </trkpt>
      <trkpt lat="47.44542" lon="6.7253">
        <ele>511.7</ele>
        <time>2016-12-30T09:46:12.999Z</time>
      </trkpt>
      <trkpt lat="47.4454" lon="6.72525">
        <ele>511.8</ele>
        <time>2016-12-30T09:46:13.999Z</time>
      </trkpt>
      <trkpt lat="47.44539" lon="6.7252">
        <ele>511.9</ele>
        <time>2016-12-30T09:46:14.999Z</time>
      </trkpt>
      <trkpt lat="47.44537" lon="6.72515">
        <ele>511.9</ele>
        <time>2016-12-30T09:46:15.999Z</time>
      </trkpt>
      <trkpt lat="47.44535" lon="6.7251">
        <ele>512</ele>
        <time>2016-12-30T09:46:16.999Z</time>
      </trkpt>
      <trkpt lat="47.44533" lon="6.72505">
        <ele>512.1</ele>
        <time>2016-12-30T09:46:17.999Z</time>
      </trkpt>
      <trkpt lat="47.44531" lon="6.725">
        <ele>512.2</ele>
        <time>2016-12-30T09:46:18.999Z</time>
      </trkpt>
      <trkpt lat="47.4453" lon="6.72494">
        <ele>512.3</ele>
        <time>2016-12-30T09:46:19.999Z</time>
      </trkpt>
      <trkpt lat="47.44528" lon="6.72489">
        <ele>512.4</ele>
        <time>2016-12-30T09:46:20.999Z</time>
      </trkpt>
      <trkpt lat="47.44528" lon="6.72484">
        <ele>512.4</ele>
        <time>2016-12-30T09:46:21.999Z</time>
      </trkpt>
      <trkpt lat="47.44527" lon="6.7248">
        <ele>512.5</ele>
        <time>2016-12-30T09:46:22.999Z</time>
      </trkpt>
      <trkpt lat="47.44526" lon="6.72475">
        <ele>512.5</ele>
        <time>2016-12-30T09:46:23.999Z</time>
      </trkpt>
      <trkpt lat="47.44524" lon="6.7247">
        <ele>512.4</ele>
        <time>2016-12-30T09:46:24.999Z</time>
      </trkpt>
      <trkpt lat="47.44523" lon="6.72465">
        <ele>512.4</ele>
        <time>2016-12-30T09:46:25.999Z</time>
      </trkpt>
      <trkpt lat="47.44522" lon="6.7246">
        <ele>512.4</ele>
        <time>2016-12-30T09:46:26.999Z</time>
      </trkpt>
      <trkpt lat="47.4452" lon="6.72456">
        <ele>512.5</ele>
        <time>2016-12-30T09:46:27.999Z</time>
      </trkpt>
      <trkpt lat="47.44519" lon="6.72451">
        <ele>512.6</ele>
        <time>2016-12-30T09:46:28.999Z</time>
      </trkpt>
      <trkpt lat="47.44518" lon="6.72447">
        <ele>512.7</ele>
        <time>2016-12-30T09:46:29.999Z</time>
      </trkpt>
      <trkpt lat="47.44516" lon="6.72444">
        <ele>512.9</ele>
        <time>2016-12-30T09:46:30.999Z</time>
      </trkpt>
      <trkpt lat="47.44515" lon="6.72439">
        <ele>513.1</ele>
        <time>2016-12-30T09:46:31.999Z</time>
      </trkpt>
      <trkpt lat="47.44514" lon="6.72434">
        <ele>513.1</ele>
        <time>2016-12-30T09:46:32.999Z</time>
      </trkpt>
      <trkpt lat="47.44513" lon="6.72428">
        <ele>513.2</ele>
        <time>2016-12-30T09:46:33.999Z</time>
      </trkpt>
      <trkpt lat="47.44513" lon="6.72423">
        <ele>513.3</ele>
        <time>2016-12-30T09:46:34.999Z</time>
      </trkpt>
      <trkpt lat="47.44512" lon="6.72416">
        <ele>513.3</ele>
        <time>2016-12-30T09:46:35.999Z</time>
      </trkpt>
      <trkpt lat="47.4451" lon="6.7241">
        <ele>513.3</ele>
        <time>2016-12-30T09:46:36.999Z</time>
      </trkpt>
      <trkpt lat="47.44508" lon="6.72403">
        <ele>513.4</ele>
        <time>2016-12-30T09:46:37.999Z</time>
      </trkpt>
      <trkpt lat="47.44507" lon="6.72396">
        <ele>513.6</ele>
        <time>2016-12-30T09:46:38.999Z</time>
      </trkpt>
      <trkpt lat="47.44506" lon="6.72391">
        <ele>513.8</ele>
        <time>2016-12-30T09:46:39.999Z</time>
      </trkpt>
      <trkpt lat="47.44505" lon="6.72387">
        <ele>514</ele>
        <time>2016-12-30T09:46:40.999Z</time>
      </trkpt>
      <trkpt lat="47.44504" lon="6.72383">
        <ele>514.2</ele>
        <time>2016-12-30T09:46:41.999Z</time>
      </trkpt>
      <trkpt lat="47.44503" lon="6.72378">
        <ele>514.4</ele>
        <time>2016-12-30T09:46:42.999Z</time>
      </trkpt>
      <trkpt lat="47.44502" lon="6.72372">
        <ele>514.6</ele>
        <time>2016-12-30T09:46:43.999Z</time>
      </trkpt>
      <trkpt lat="47.445" lon="6.72367">
        <ele>516.2</ele>
        <time>2016-12-30T09:46:44.999Z</time>
      </trkpt>
      <trkpt lat="47.44498" lon="6.72362">
        <ele>516.9</ele>
        <time>2016-12-30T09:46:45.999Z</time>
      </trkpt>
      <trkpt lat="47.44495" lon="6.72358">
        <ele>516.9</ele>
        <time>2016-12-30T09:46:46.999Z</time>
      </trkpt>
      <trkpt lat="47.44492" lon="6.72354">
        <ele>517</ele>
        <time>2016-12-30T09:46:47.999Z</time>
      </trkpt>
      <trkpt lat="47.4449" lon="6.7235">
        <ele>517</ele>
        <time>2016-12-30T09:46:48.999Z</time>
      </trkpt>
      <trkpt lat="47.44486" lon="6.72347">
        <ele>517</ele>
        <time>2016-12-30T09:46:49.999Z</time>
      </trkpt>
      <trkpt lat="47.44483" lon="6.72346">
        <ele>517.1</ele>
        <time>2016-12-30T09:46:50.999Z</time>
      </trkpt>
      <trkpt lat="47.44478" lon="6.72346">
        <ele>517.2</ele>
        <time>2016-12-30T09:46:51.999Z</time>
      </trkpt>
      <trkpt lat="47.44474" lon="6.72344">
        <ele>517.2</ele>
        <time>2016-12-30T09:46:52.999Z</time>
      </trkpt>
      <trkpt lat="47.44471" lon="6.7234">
        <ele>517.1</ele>
        <time>2016-12-30T09:46:53.999Z</time>
      </trkpt>
      <trkpt lat="47.44469" lon="6.72334">
        <ele>517.1</ele>
        <time>2016-12-30T09:46:54.999Z</time>
      </trkpt>
      <trkpt lat="47.44468" lon="6.7233">
        <ele>517</ele>
        <time>2016-12-30T09:46:55.999Z</time>
      </trkpt>
      <trkpt lat="47.44466" lon="6.72325">
        <ele>517</ele>
        <time>2016-12-30T09:46:56.999Z</time>
      </trkpt>
      <trkpt lat="47.44465" lon="6.72321">
        <ele>517.1</ele>
        <time>2016-12-30T09:46:57.999Z</time>
      </trkpt>
      <trkpt lat="47.44464" lon="6.72316">
        <ele>517.7</ele>
        <time>2016-12-30T09:46:58.999Z</time>
      </trkpt>
      <trkpt lat="47.44463" lon="6.7231">
        <ele>518.1</ele>
        <time>2016-12-30T09:46:59.999Z</time>
      </trkpt>
      <trkpt lat="47.44462" lon="6.72303">
        <ele>517.8</ele>
        <time>2016-12-30T09:47:00.999Z</time>
      </trkpt>
      <trkpt lat="47.44462" lon="6.72299">
        <ele>518</ele>
        <time>2016-12-30T09:47:01.999Z</time>
      </trkpt>
      <trkpt lat="47.44461" lon="6.72293">
        <ele>517.7</ele>
        <time>2016-12-30T09:47:02.999Z</time>
      </trkpt>
      <trkpt lat="47.44461" lon="6.72289">
        <ele>517.7</ele>
        <time>2016-12-30T09:47:03.999Z</time>
      </trkpt>
      <trkpt lat="47.4446" lon="6.72281">
        <ele>517.3</ele>
        <time>2016-12-30T09:47:04.999Z</time>
      </trkpt>
      <trkpt lat="47.44458" lon="6.72275">
        <ele>517.3</ele>
        <time>2016-12-30T09:47:05.999Z</time>
      </trkpt>
      <trkpt lat="47.44457" lon="6.72267">
        <ele>517</ele>
        <time>2016-12-30T09:47:06.999Z</time>
      </trkpt>
      <trkpt lat="47.44455" lon="6.7226">
        <ele>516.4</ele>
        <time>2016-12-30T09:47:07.999Z</time>
      </trkpt>
      <trkpt lat="47.44453" lon="6.72254">
        <ele>515.9</ele>
        <time>2016-12-30T09:47:08.999Z</time>
      </trkpt>
      <trkpt lat="47.44452" lon="6.72248">
        <ele>516.3</ele>
        <time>2016-12-30T09:47:09.999Z</time>
      </trkpt>
      <trkpt lat="47.44451" lon="6.72242">
        <ele>516.4</ele>
        <time>2016-12-30T09:47:10.999Z</time>
      </trkpt>
      <trkpt lat="47.4445" lon="6.72236">
        <ele>516.9</ele>
        <time>2016-12-30T09:47:11.999Z</time>
      </trkpt>
      <trkpt lat="47.44448" lon="6.7223">
        <ele>516.7</ele>
        <time>2016-12-30T09:47:12.999Z</time>
      </trkpt>
      <trkpt lat="47.44447" lon="6.72224">
        <ele>516.6</ele>
        <time>2016-12-30T09:47:13.999Z</time>
      </trkpt>
      <trkpt lat="47.44445" lon="6.72218">
        <ele>516.5</ele>
        <time>2016-12-30T09:47:14.999Z</time>
      </trkpt>
      <trkpt lat="47.44444" lon="6.72213">
        <ele>515.6</ele>
        <time>2016-12-30T09:47:15.999Z</time>
      </trkpt>
      <trkpt lat="47.44442" lon="6.72206">
        <ele>515</ele>
        <time>2016-12-30T09:47:16.999Z</time>
      </trkpt>
      <trkpt lat="47.44441" lon="6.72199">
        <ele>514.5</ele>
        <time>2016-12-30T09:47:17.999Z</time>
      </trkpt>
      <trkpt lat="47.44439" lon="6.72192">
        <ele>514.1</ele>
        <time>2016-12-30T09:47:18.999Z</time>
      </trkpt>
      <trkpt lat="47.44438" lon="6.72185">
        <ele>513.9</ele>
        <time>2016-12-30T09:47:19.999Z</time>
      </trkpt>
      <trkpt lat="47.44437" lon="6.7218">
        <ele>513.4</ele>
        <time>2016-12-30T09:47:20.999Z</time>
      </trkpt>
      <trkpt lat="47.44436" lon="6.72173">
        <ele>513</ele>
        <time>2016-12-30T09:47:21.999Z</time>
      </trkpt>
      <trkpt lat="47.44434" lon="6.72166">
        <ele>512.6</ele>
        <time>2016-12-30T09:47:22.999Z</time>
      </trkpt>
      <trkpt lat="47.44433" lon="6.72159">
        <ele>512.4</ele>
        <time>2016-12-30T09:47:23.999Z</time>
      </trkpt>
      <trkpt lat="47.44431" lon="6.72152">
        <ele>511.9</ele>
        <time>2016-12-30T09:47:24.999Z</time>
      </trkpt>
      <trkpt lat="47.44429" lon="6.72145">
        <ele>511.3</ele>
        <time>2016-12-30T09:47:25.999Z</time>
      </trkpt>
      <trkpt lat="47.44428" lon="6.72137">
        <ele>511.3</ele>
        <time>2016-12-30T09:47:26.999Z</time>
      </trkpt>
      <trkpt lat="47.44426" lon="6.72129">
        <ele>511.4</ele>
        <time>2016-12-30T09:47:27.999Z</time>
      </trkpt>
      <trkpt lat="47.44425" lon="6.72122">
        <ele>511.4</ele>
        <time>2016-12-30T09:47:28.999Z</time>
      </trkpt>
      <trkpt lat="47.44423" lon="6.72113">
        <ele>511.5</ele>
        <time>2016-12-30T09:47:29.999Z</time>
      </trkpt>
      <trkpt lat="47.44421" lon="6.72104">
        <ele>511.2</ele>
        <time>2016-12-30T09:47:30.999Z</time>
      </trkpt>
      <trkpt lat="47.44419" lon="6.72095">
        <ele>510.3</ele>
        <time>2016-12-30T09:47:31.999Z</time>
      </trkpt>
      <trkpt lat="47.44417" lon="6.72085">
        <ele>509.3</ele>
        <time>2016-12-30T09:47:32.999Z</time>
      </trkpt>
      <trkpt lat="47.44414" lon="6.72076">
        <ele>508.1</ele>
        <time>2016-12-30T09:47:33.999Z</time>
      </trkpt>
      <trkpt lat="47.44412" lon="6.72067">
        <ele>507.1</ele>
        <time>2016-12-30T09:47:34.999Z</time>
      </trkpt>
      <trkpt lat="47.44411" lon="6.72058">
        <ele>505.8</ele>
        <time>2016-12-30T09:47:35.999Z</time>
      </trkpt>
      <trkpt lat="47.44409" lon="6.72049">
        <ele>504.5</ele>
        <time>2016-12-30T09:47:36.999Z</time>
      </trkpt>
      <trkpt lat="47.44408" lon="6.72042">
        <ele>503.7</ele>
        <time>2016-12-30T09:47:37.999Z</time>
      </trkpt>
      <trkpt lat="47.44404" lon="6.72032">
        <ele>502.4</ele>
        <time>2016-12-30T09:47:38.999Z</time>
      </trkpt>
      <trkpt lat="47.44401" lon="6.72029">
        <ele>501.9</ele>
        <time>2016-12-30T09:47:39.999Z</time>
      </trkpt>
      <trkpt lat="47.44397" lon="6.72026">
        <ele>501.9</ele>
        <time>2016-12-30T09:47:40.999Z</time>
      </trkpt>
      <trkpt lat="47.44394" lon="6.72024">
        <ele>501.9</ele>
        <time>2016-12-30T09:47:41.999Z</time>
      </trkpt>
      <trkpt lat="47.4439" lon="6.72022">
        <ele>501.9</ele>
        <time>2016-12-30T09:47:42.999Z</time>
      </trkpt>
      <trkpt lat="47.44385" lon="6.7202">
        <ele>501.9</ele>
        <time>2016-12-30T09:47:43.999Z</time>
      </trkpt>
      <trkpt lat="47.44381" lon="6.72019">
        <ele>502</ele>
        <time>2016-12-30T09:47:44.999Z</time>
      </trkpt>
      <trkpt lat="47.44378" lon="6.72018">
        <ele>502.1</ele>
        <time>2016-12-30T09:47:45.999Z</time>
      </trkpt>
      <trkpt lat="47.44375" lon="6.72017">
        <ele>502.2</ele>
        <time>2016-12-30T09:47:46.999Z</time>
      </trkpt>
      <trkpt lat="47.44372" lon="6.72016">
        <ele>502.2</ele>
        <time>2016-12-30T09:47:47.999Z</time>
      </trkpt>
      <trkpt lat="47.44369" lon="6.72016">
        <ele>502.3</ele>
        <time>2016-12-30T09:47:48.999Z</time>
      </trkpt>
      <trkpt lat="47.44365" lon="6.72015">
        <ele>502.3</ele>
        <time>2016-12-30T09:47:49.999Z</time>
      </trkpt>
      <trkpt lat="47.44362" lon="6.72014">
        <ele>502.4</ele>
        <time>2016-12-30T09:47:50.999Z</time>
      </trkpt>
      <trkpt lat="47.44358" lon="6.72013">
        <ele>502.6</ele>
        <time>2016-12-30T09:47:51.999Z</time>
      </trkpt>
      <trkpt lat="47.44356" lon="6.72013">
        <ele>502.7</ele>
        <time>2016-12-30T09:47:52.999Z</time>
      </trkpt>
      <trkpt lat="47.44353" lon="6.72012">
        <ele>502.8</ele>
        <time>2016-12-30T09:47:53.999Z</time>
      </trkpt>
      <trkpt lat="47.4435" lon="6.72011">
        <ele>502.9</ele>
        <time>2016-12-30T09:47:54.999Z</time>
      </trkpt>
      <trkpt lat="47.44347" lon="6.7201">
        <ele>503</ele>
        <time>2016-12-30T09:47:55.999Z</time>
      </trkpt>
      <trkpt lat="47.44345" lon="6.72009">
        <ele>503</ele>
        <time>2016-12-30T09:47:56.999Z</time>
      </trkpt>
      <trkpt lat="47.44342" lon="6.72008">
        <ele>502.9</ele>
        <time>2016-12-30T09:47:57.999Z</time>
      </trkpt>
      <trkpt lat="47.44339" lon="6.72007">
        <ele>502.9</ele>
        <time>2016-12-30T09:47:58.999Z</time>
      </trkpt>
      <trkpt lat="47.44336" lon="6.72005">
        <ele>502.9</ele>
        <time>2016-12-30T09:47:59.999Z</time>
      </trkpt>
      <trkpt lat="47.44332" lon="6.72002">
        <ele>502.9</ele>
        <time>2016-12-30T09:48:00.999Z</time>
      </trkpt>
      <trkpt lat="47.44329" lon="6.72001">
        <ele>503</ele>
        <time>2016-12-30T09:48:01.999Z</time>
      </trkpt>
      <trkpt lat="47.44325" lon="6.71999">
        <ele>503</ele>
        <time>2016-12-30T09:48:02.999Z</time>
      </trkpt>
      <trkpt lat="47.4432" lon="6.71996">
        <ele>503</ele>
        <time>2016-12-30T09:48:03.999Z</time>
      </trkpt>
      <trkpt lat="47.44317" lon="6.71994">
        <ele>503.1</ele>
        <time>2016-12-30T09:48:04.999Z</time>
      </trkpt>
      <trkpt lat="47.44313" lon="6.71993">
        <ele>503.2</ele>
        <time>2016-12-30T09:48:05.999Z</time>
      </trkpt>
      <trkpt lat="47.4431" lon="6.71992">
        <ele>503.2</ele>
        <time>2016-12-30T09:48:06.999Z</time>
      </trkpt>
      <trkpt lat="47.44306" lon="6.7199">
        <ele>503.2</ele>
        <time>2016-12-30T09:48:07.999Z</time>
      </trkpt>
      <trkpt lat="47.44303" lon="6.71989">
        <ele>503.2</ele>
        <time>2016-12-30T09:48:08.999Z</time>
      </trkpt>
      <trkpt lat="47.44301" lon="6.71988">
        <ele>503.1</ele>
        <time>2016-12-30T09:48:09.999Z</time>
      </trkpt>
      <trkpt lat="47.44298" lon="6.71987">
        <ele>503.1</ele>
        <time>2016-12-30T09:48:10.999Z</time>
      </trkpt>
      <trkpt lat="47.44295" lon="6.71986">
        <ele>503.1</ele>
        <time>2016-12-30T09:48:11.999Z</time>
      </trkpt>
      <trkpt lat="47.44292" lon="6.71984">
        <ele>503.1</ele>
        <time>2016-12-30T09:48:12.999Z</time>
      </trkpt>
      <trkpt lat="47.44288" lon="6.71983">
        <ele>503.2</ele>
        <time>2016-12-30T09:48:13.999Z</time>
      </trkpt>
      <trkpt lat="47.44285" lon="6.71982">
        <ele>503.3</ele>
        <time>2016-12-30T09:48:14.999Z</time>
      </trkpt>
      <trkpt lat="47.44282" lon="6.7198">
        <ele>503.6</ele>
        <time>2016-12-30T09:48:15.999Z</time>
      </trkpt>
      <trkpt lat="47.44279" lon="6.71978">
        <ele>503.7</ele>
        <time>2016-12-30T09:48:16.999Z</time>
      </trkpt>
      <trkpt lat="47.44276" lon="6.71976">
        <ele>503.9</ele>
        <time>2016-12-30T09:48:17.999Z</time>
      </trkpt>
      <trkpt lat="47.44272" lon="6.71975">
        <ele>504</ele>
        <time>2016-12-30T09:48:18.999Z</time>
      </trkpt>
      <trkpt lat="47.44269" lon="6.71972">
        <ele>504</ele>
        <time>2016-12-30T09:48:19.999Z</time>
      </trkpt>
      <trkpt lat="47.44265" lon="6.71969">
        <ele>504.1</ele>
        <time>2016-12-30T09:48:20.999Z</time>
      </trkpt>
      <trkpt lat="47.44263" lon="6.71967">
        <ele>504</ele>
        <time>2016-12-30T09:48:21.999Z</time>
      </trkpt>
      <trkpt lat="47.4426" lon="6.71964">
        <ele>504.2</ele>
        <time>2016-12-30T09:48:22.999Z</time>
      </trkpt>
      <trkpt lat="47.44257" lon="6.71962">
        <ele>504.2</ele>
        <time>2016-12-30T09:48:23.999Z</time>
      </trkpt>
      <trkpt lat="47.44255" lon="6.71959">
        <ele>504.3</ele>
        <time>2016-12-30T09:48:24.999Z</time>
      </trkpt>
      <trkpt lat="47.44251" lon="6.71957">
        <ele>504.4</ele>
        <time>2016-12-30T09:48:25.999Z</time>
      </trkpt>
      <trkpt lat="47.44248" lon="6.71955">
        <ele>504.5</ele>
        <time>2016-12-30T09:48:26.999Z</time>
      </trkpt>
      <trkpt lat="47.44246" lon="6.71953">
        <ele>504.6</ele>
        <time>2016-12-30T09:48:27.999Z</time>
      </trkpt>
      <trkpt lat="47.44244" lon="6.7195">
        <ele>504.6</ele>
        <time>2016-12-30T09:48:28.999Z</time>
      </trkpt>
      <trkpt lat="47.44242" lon="6.71947">
        <ele>504.7</ele>
        <time>2016-12-30T09:48:29.999Z</time>
      </trkpt>
      <trkpt lat="47.4424" lon="6.71943">
        <ele>504.7</ele>
        <time>2016-12-30T09:48:30.999Z</time>
      </trkpt>
      <trkpt lat="47.44239" lon="6.7194">
        <ele>504.7</ele>
        <time>2016-12-30T09:48:31.999Z</time>
      </trkpt>
      <trkpt lat="47.44238" lon="6.71937">
        <ele>504.7</ele>
        <time>2016-12-30T09:48:32.999Z</time>
      </trkpt>
      <trkpt lat="47.44238" lon="6.71934">
        <ele>504.7</ele>
        <time>2016-12-30T09:48:33.999Z</time>
      </trkpt>
      <trkpt lat="47.44236" lon="6.71928">
        <ele>504.7</ele>
        <time>2016-12-30T09:48:34.999Z</time>
      </trkpt>
      <trkpt lat="47.44234" lon="6.71924">
        <ele>504.6</ele>
        <time>2016-12-30T09:48:35.999Z</time>
      </trkpt>
      <trkpt lat="47.44232" lon="6.71919">
        <ele>504.5</ele>
        <time>2016-12-30T09:48:36.999Z</time>
      </trkpt>
      <trkpt lat="47.44233" lon="6.71914">
        <ele>504.4</ele>
        <time>2016-12-30T09:48:37.999Z</time>
      </trkpt>
      <trkpt lat="47.44234" lon="6.71909">
        <ele>504.2</ele>
        <time>2016-12-30T09:48:38.999Z</time>
      </trkpt>
      <trkpt lat="47.44233" lon="6.71901">
        <ele>502</ele>
        <time>2016-12-30T09:48:39.999Z</time>
      </trkpt>
      <trkpt lat="47.44233" lon="6.71891">
        <ele>501.9</ele>
        <time>2016-12-30T09:48:40.999Z</time>
      </trkpt>
      <trkpt lat="47.44233" lon="6.71885">
        <ele>501.8</ele>
        <time>2016-12-30T09:48:41.999Z</time>
      </trkpt>
      <trkpt lat="47.44233" lon="6.71879">
        <ele>501.7</ele>
        <time>2016-12-30T09:48:42.999Z</time>
      </trkpt>
      <trkpt lat="47.44233" lon="6.71873">
        <ele>501.5</ele>
        <time>2016-12-30T09:48:43.999Z</time>
      </trkpt>
      <trkpt lat="47.44234" lon="6.71865">
        <ele>501.3</ele>
        <time>2016-12-30T09:48:44.999Z</time>
      </trkpt>
      <trkpt lat="47.44234" lon="6.71857">
        <ele>501.1</ele>
        <time>2016-12-30T09:48:45.999Z</time>
      </trkpt>
      <trkpt lat="47.44234" lon="6.71851">
        <ele>501</ele>
        <time>2016-12-30T09:48:46.999Z</time>
      </trkpt>
      <trkpt lat="47.44235" lon="6.71846">
        <ele>500.8</ele>
        <time>2016-12-30T09:48:47.999Z</time>
      </trkpt>
      <trkpt lat="47.44235" lon="6.71843">
        <ele>500.6</ele>
        <time>2016-12-30T09:48:48.999Z</time>
      </trkpt>
      <trkpt lat="47.44234" lon="6.71838">
        <ele>500.3</ele>
        <time>2016-12-30T09:48:49.999Z</time>
      </trkpt>
      <trkpt lat="47.44233" lon="6.71834">
        <ele>500</ele>
        <time>2016-12-30T09:48:50.999Z</time>
      </trkpt>
      <trkpt lat="47.44232" lon="6.71828">
        <ele>499.7</ele>
        <time>2016-12-30T09:48:51.999Z</time>
      </trkpt>
      <trkpt lat="47.4423" lon="6.71822">
        <ele>499.3</ele>
        <time>2016-12-30T09:48:52.999Z</time>
      </trkpt>
      <trkpt lat="47.44228" lon="6.71819">
        <ele>499</ele>
        <time>2016-12-30T09:48:53.999Z</time>
      </trkpt>
      <trkpt lat="47.44227" lon="6.71814">
        <ele>498.8</ele>
        <time>2016-12-30T09:48:54.999Z</time>
      </trkpt>
      <trkpt lat="47.44226" lon="6.7181">
        <ele>498.5</ele>
        <time>2016-12-30T09:48:55.999Z</time>
      </trkpt>
      <trkpt lat="47.44225" lon="6.71806">
        <ele>498.3</ele>
        <time>2016-12-30T09:48:56.999Z</time>
      </trkpt>
      <trkpt lat="47.44223" lon="6.71802">
        <ele>497.9</ele>
        <time>2016-12-30T09:48:57.999Z</time>
      </trkpt>
      <trkpt lat="47.44223" lon="6.71797">
        <ele>497.5</ele>
        <time>2016-12-30T09:48:58.999Z</time>
      </trkpt>
      <trkpt lat="47.44222" lon="6.71793">
        <ele>497.2</ele>
        <time>2016-12-30T09:48:59.999Z</time>
      </trkpt>
      <trkpt lat="47.44222" lon="6.71787">
        <ele>497</ele>
        <time>2016-12-30T09:49:00.999Z</time>
      </trkpt>
      <trkpt lat="47.44221" lon="6.7178">
        <ele>495.1</ele>
        <time>2016-12-30T09:49:01.999Z</time>
      </trkpt>
      <trkpt lat="47.44223" lon="6.71772">
        <ele>493.5</ele>
        <time>2016-12-30T09:49:02.999Z</time>
      </trkpt>
      <trkpt lat="47.44224" lon="6.71763">
        <ele>491.5</ele>
        <time>2016-12-30T09:49:03.999Z</time>
      </trkpt>
      <trkpt lat="47.44226" lon="6.71753">
        <ele>490.1</ele>
        <time>2016-12-30T09:49:04.999Z</time>
      </trkpt>
      <trkpt lat="47.44228" lon="6.71743">
        <ele>489</ele>
        <time>2016-12-30T09:49:05.999Z</time>
      </trkpt>
      <trkpt lat="47.44229" lon="6.71729">
        <ele>487.9</ele>
        <time>2016-12-30T09:49:06.999Z</time>
      </trkpt>
      <trkpt lat="47.44229" lon="6.71717">
        <ele>486.5</ele>
        <time>2016-12-30T09:49:07.999Z</time>
      </trkpt>
      <trkpt lat="47.44229" lon="6.71708">
        <ele>485.2</ele>
        <time>2016-12-30T09:49:08.999Z</time>
      </trkpt>
      <trkpt lat="47.44229" lon="6.717">
        <ele>484.3</ele>
        <time>2016-12-30T09:49:09.999Z</time>
      </trkpt>
      <trkpt lat="47.4423" lon="6.71692">
        <ele>484</ele>
        <time>2016-12-30T09:49:10.999Z</time>
      </trkpt>
      <trkpt lat="47.4423" lon="6.71682">
        <ele>483.8</ele>
        <time>2016-12-30T09:49:11.999Z</time>
      </trkpt>
      <trkpt lat="47.44229" lon="6.71673">
        <ele>481.3</ele>
        <time>2016-12-30T09:49:12.999Z</time>
      </trkpt>
      <trkpt lat="47.4423" lon="6.71664">
        <ele>479</ele>
        <time>2016-12-30T09:49:13.999Z</time>
      </trkpt>
      <trkpt lat="47.44232" lon="6.71657">
        <ele>478.7</ele>
        <time>2016-12-30T09:49:14.999Z</time>
      </trkpt>
      <trkpt lat="47.44233" lon="6.71649">
        <ele>478.6</ele>
        <time>2016-12-30T09:49:15.999Z</time>
      </trkpt>
      <trkpt lat="47.44234" lon="6.71638">
        <ele>478.6</ele>
        <time>2016-12-30T09:49:16.999Z</time>
      </trkpt>
      <trkpt lat="47.44235" lon="6.71628">
        <ele>478.1</ele>
        <time>2016-12-30T09:49:17.999Z</time>
      </trkpt>
      <trkpt lat="47.44236" lon="6.71617">
        <ele>478.1</ele>
        <time>2016-12-30T09:49:18.999Z</time>
      </trkpt>
      <trkpt lat="47.44237" lon="6.71609">
        <ele>478.1</ele>
        <time>2016-12-30T09:49:19.999Z</time>
      </trkpt>
      <trkpt lat="47.4424" lon="6.71602">
        <ele>478.2</ele>
        <time>2016-12-30T09:49:20.999Z</time>
      </trkpt>
      <trkpt lat="47.44242" lon="6.71594">
        <ele>478.3</ele>
        <time>2016-12-30T09:49:21.999Z</time>
      </trkpt>
      <trkpt lat="47.44244" lon="6.71586">
        <ele>478.7</ele>
        <time>2016-12-30T09:49:22.999Z</time>
      </trkpt>
      <trkpt lat="47.44246" lon="6.71577">
        <ele>478.6</ele>
        <time>2016-12-30T09:49:23.999Z</time>
      </trkpt>
      <trkpt lat="47.44248" lon="6.71568">
        <ele>478.5</ele>
        <time>2016-12-30T09:49:24.999Z</time>
      </trkpt>
      <trkpt lat="47.4425" lon="6.71559">
        <ele>478.5</ele>
        <time>2016-12-30T09:49:25.999Z</time>
      </trkpt>
      <trkpt lat="47.4425" lon="6.71551">
        <ele>478</ele>
        <time>2016-12-30T09:49:26.999Z</time>
      </trkpt>
      <trkpt lat="47.44251" lon="6.71541">
        <ele>476.6</ele>
        <time>2016-12-30T09:49:27.999Z</time>
      </trkpt>
      <trkpt lat="47.44253" lon="6.71531">
        <ele>476.6</ele>
        <time>2016-12-30T09:49:28.999Z</time>
      </trkpt>
      <trkpt lat="47.44255" lon="6.71523">
        <ele>476.4</ele>
        <time>2016-12-30T09:49:29.999Z</time>
      </trkpt>
      <trkpt lat="47.44256" lon="6.71512">
        <ele>474.8</ele>
        <time>2016-12-30T09:49:30.999Z</time>
      </trkpt>
      <trkpt lat="47.44257" lon="6.715">
        <ele>473.5</ele>
        <time>2016-12-30T09:49:31.999Z</time>
      </trkpt>
      <trkpt lat="47.44258" lon="6.71485">
        <ele>472.6</ele>
        <time>2016-12-30T09:49:32.999Z</time>
      </trkpt>
      <trkpt lat="47.44263" lon="6.71475">
        <ele>471.1</ele>
        <time>2016-12-30T09:49:33.999Z</time>
      </trkpt>
      <trkpt lat="47.44267" lon="6.71465">
        <ele>471</ele>
        <time>2016-12-30T09:49:34.999Z</time>
      </trkpt>
      <trkpt lat="47.44271" lon="6.71455">
        <ele>471.7</ele>
        <time>2016-12-30T09:49:35.999Z</time>
      </trkpt>
      <trkpt lat="47.44276" lon="6.71437">
        <ele>471.7</ele>
        <time>2016-12-30T09:49:36.999Z</time>
      </trkpt>
      <trkpt lat="47.44283" lon="6.7143">
        <ele>470.9</ele>
        <time>2016-12-30T09:49:37.999Z</time>
      </trkpt>
      <trkpt lat="47.44289" lon="6.71424">
        <ele>470.5</ele>
        <time>2016-12-30T09:49:38.999Z</time>
      </trkpt>
      <trkpt lat="47.44296" lon="6.71419">
        <ele>470.1</ele>
        <time>2016-12-30T09:49:39.999Z</time>
      </trkpt>
      <trkpt lat="47.44302" lon="6.71414">
        <ele>469.6</ele>
        <time>2016-12-30T09:49:40.999Z</time>
      </trkpt>
      <trkpt lat="47.44306" lon="6.71407">
        <ele>468.7</ele>
        <time>2016-12-30T09:49:41.999Z</time>
      </trkpt>
      <trkpt lat="47.44311" lon="6.714">
        <ele>469.4</ele>
        <time>2016-12-30T09:49:42.999Z</time>
      </trkpt>
      <trkpt lat="47.44317" lon="6.71394">
        <ele>470.5</ele>
        <time>2016-12-30T09:49:43.999Z</time>
      </trkpt>
      <trkpt lat="47.44323" lon="6.71386">
        <ele>472.5</ele>
        <time>2016-12-30T09:49:44.999Z</time>
      </trkpt>
      <trkpt lat="47.44327" lon="6.71376">
        <ele>474.7</ele>
        <time>2016-12-30T09:49:45.999Z</time>
      </trkpt>
      <trkpt lat="47.44332" lon="6.71366">
        <ele>476.8</ele>
        <time>2016-12-30T09:49:46.999Z</time>
      </trkpt>
      <trkpt lat="47.44339" lon="6.71358">
        <ele>478.8</ele>
        <time>2016-12-30T09:49:47.999Z</time>
      </trkpt>
      <trkpt lat="47.44345" lon="6.71352">
        <ele>480.3</ele>
        <time>2016-12-30T09:49:48.999Z</time>
      </trkpt>
      <trkpt lat="47.44351" lon="6.71346">
        <ele>480.9</ele>
        <time>2016-12-30T09:49:49.999Z</time>
      </trkpt>
      <trkpt lat="47.44357" lon="6.71339">
        <ele>481.1</ele>
        <time>2016-12-30T09:49:50.999Z</time>
      </trkpt>
      <trkpt lat="47.44362" lon="6.71332">
        <ele>480.5</ele>
        <time>2016-12-30T09:49:51.999Z</time>
      </trkpt>
      <trkpt lat="47.44366" lon="6.71327">
        <ele>480.2</ele>
        <time>2016-12-30T09:49:52.999Z</time>
      </trkpt>
      <trkpt lat="47.44374" lon="6.71318">
        <ele>479.1</ele>
        <time>2016-12-30T09:49:53.999Z</time>
      </trkpt>
      <trkpt lat="47.44382" lon="6.7131">
        <ele>477.4</ele>
        <time>2016-12-30T09:49:54.999Z</time>
      </trkpt>
      <trkpt lat="47.44388" lon="6.71303">
        <ele>477.1</ele>
        <time>2016-12-30T09:49:55.999Z</time>
      </trkpt>
      <trkpt lat="47.44391" lon="6.71299">
        <ele>477</ele>
        <time>2016-12-30T09:49:56.999Z</time>
      </trkpt>
      <trkpt lat="47.44397" lon="6.71291">
        <ele>477.4</ele>
        <time>2016-12-30T09:49:57.999Z</time>
      </trkpt>
      <trkpt lat="47.44401" lon="6.71284">
        <ele>477.5</ele>
        <time>2016-12-30T09:49:58.999Z</time>
      </trkpt>
      <trkpt lat="47.44404" lon="6.7128">
        <ele>478.1</ele>
        <time>2016-12-30T09:49:59.999Z</time>
      </trkpt>
      <trkpt lat="47.44408" lon="6.71275">
        <ele>477.8</ele>
        <time>2016-12-30T09:50:00.999Z</time>
      </trkpt>
      <trkpt lat="47.44413" lon="6.7127">
        <ele>475.9</ele>
        <time>2016-12-30T09:50:01.999Z</time>
      </trkpt>
      <trkpt lat="47.44417" lon="6.71264">
        <ele>474.8</ele>
        <time>2016-12-30T09:50:02.999Z</time>
      </trkpt>
      <trkpt lat="47.44421" lon="6.71258">
        <ele>473.5</ele>
        <time>2016-12-30T09:50:03.999Z</time>
      </trkpt>
      <trkpt lat="47.44425" lon="6.71252">
        <ele>472.1</ele>
        <time>2016-12-30T09:50:04.999Z</time>
      </trkpt>
      <trkpt lat="47.4443" lon="6.71246">
        <ele>469.7</ele>
        <time>2016-12-30T09:50:05.999Z</time>
      </trkpt>
      <trkpt lat="47.44435" lon="6.7124">
        <ele>467.5</ele>
        <time>2016-12-30T09:50:06.999Z</time>
      </trkpt>
      <trkpt lat="47.44442" lon="6.71234">
        <ele>466</ele>
        <time>2016-12-30T09:50:07.999Z</time>
      </trkpt>
      <trkpt lat="47.44447" lon="6.71228">
        <ele>465.1</ele>
        <time>2016-12-30T09:50:08.999Z</time>
      </trkpt>
      <trkpt lat="47.44451" lon="6.71223">
        <ele>464</ele>
        <time>2016-12-30T09:50:09.999Z</time>
      </trkpt>
      <trkpt lat="47.44455" lon="6.71216">
        <ele>463.3</ele>
        <time>2016-12-30T09:50:10.999Z</time>
      </trkpt>
      <trkpt lat="47.44458" lon="6.71208">
        <ele>462.9</ele>
        <time>2016-12-30T09:50:11.999Z</time>
      </trkpt>
      <trkpt lat="47.44462" lon="6.71203">
        <ele>462.3</ele>
        <time>2016-12-30T09:50:12.999Z</time>
      </trkpt>
      <trkpt lat="47.44469" lon="6.71197">
        <ele>461.4</ele>
        <time>2016-12-30T09:50:13.999Z</time>
      </trkpt>
      <trkpt lat="47.44474" lon="6.71193">
        <ele>459.6</ele>
        <time>2016-12-30T09:50:14.999Z</time>
      </trkpt>
      <trkpt lat="47.4448" lon="6.71187">
        <ele>458.4</ele>
        <time>2016-12-30T09:50:15.999Z</time>
      </trkpt>
      <trkpt lat="47.44485" lon="6.71181">
        <ele>456.4</ele>
        <time>2016-12-30T09:50:16.999Z</time>
      </trkpt>
      <trkpt lat="47.44491" lon="6.71175">
        <ele>455</ele>
        <time>2016-12-30T09:50:17.999Z</time>
      </trkpt>
      <trkpt lat="47.44497" lon="6.71171">
        <ele>455</ele>
        <time>2016-12-30T09:50:18.999Z</time>
      </trkpt>
      <trkpt lat="47.445" lon="6.71169">
        <ele>455.1</ele>
        <time>2016-12-30T09:50:20.999Z</time>
      </trkpt>
      <trkpt lat="47.44502" lon="6.71166">
        <ele>455.1</ele>
        <time>2016-12-30T09:50:21.999Z</time>
      </trkpt>
      <trkpt lat="47.44504" lon="6.7116">
        <ele>455.2</ele>
        <time>2016-12-30T09:50:22.999Z</time>
      </trkpt>
      <trkpt lat="47.44507" lon="6.71154">
        <ele>455.3</ele>
        <time>2016-12-30T09:50:23.999Z</time>
      </trkpt>
      <trkpt lat="47.4451" lon="6.71147">
        <ele>455.4</ele>
        <time>2016-12-30T09:50:24.999Z</time>
      </trkpt>
      <trkpt lat="47.44515" lon="6.71141">
        <ele>455.5</ele>
        <time>2016-12-30T09:50:25.999Z</time>
      </trkpt>
      <trkpt lat="47.44519" lon="6.71134">
        <ele>457.1</ele>
        <time>2016-12-30T09:50:26.999Z</time>
      </trkpt>
      <trkpt lat="47.44525" lon="6.71125">
        <ele>458.5</ele>
        <time>2016-12-30T09:50:27.999Z</time>
      </trkpt>
      <trkpt lat="47.44532" lon="6.71117">
        <ele>458.6</ele>
        <time>2016-12-30T09:50:28.999Z</time>
      </trkpt>
      <trkpt lat="47.44539" lon="6.71109">
        <ele>458.3</ele>
        <time>2016-12-30T09:50:29.999Z</time>
      </trkpt>
      <trkpt lat="47.44544" lon="6.71103">
        <ele>457.8</ele>
        <time>2016-12-30T09:50:30.999Z</time>
      </trkpt>
      <trkpt lat="47.4455" lon="6.71098">
        <ele>457.2</ele>
        <time>2016-12-30T09:50:31.999Z</time>
      </trkpt>
      <trkpt lat="47.44556" lon="6.71094">
        <ele>456.3</ele>
        <time>2016-12-30T09:50:32.999Z</time>
      </trkpt>
      <trkpt lat="47.44562" lon="6.71089">
        <ele>456.3</ele>
        <time>2016-12-30T09:50:33.999Z</time>
      </trkpt>
      <trkpt lat="47.44569" lon="6.71085">
        <ele>456.9</ele>
        <time>2016-12-30T09:50:34.999Z</time>
      </trkpt>
      <trkpt lat="47.44577" lon="6.71081">
        <ele>457</ele>
        <time>2016-12-30T09:50:35.999Z</time>
      </trkpt>
      <trkpt lat="47.44585" lon="6.71074">
        <ele>456.9</ele>
        <time>2016-12-30T09:50:36.999Z</time>
      </trkpt>
      <trkpt lat="47.44592" lon="6.71068">
        <ele>456.5</ele>
        <time>2016-12-30T09:50:37.999Z</time>
      </trkpt>
      <trkpt lat="47.44598" lon="6.71062">
        <ele>456.9</ele>
        <time>2016-12-30T09:50:38.999Z</time>
      </trkpt>
      <trkpt lat="47.44604" lon="6.71055">
        <ele>456.9</ele>
        <time>2016-12-30T09:50:39.999Z</time>
      </trkpt>
      <trkpt lat="47.44609" lon="6.71048">
        <ele>457.4</ele>
        <time>2016-12-30T09:50:40.999Z</time>
      </trkpt>
      <trkpt lat="47.44614" lon="6.71043">
        <ele>458.1</ele>
        <time>2016-12-30T09:50:41.999Z</time>
      </trkpt>
      <trkpt lat="47.44619" lon="6.71041">
        <ele>458.1</ele>
        <time>2016-12-30T09:50:42.999Z</time>
      </trkpt>
      <trkpt lat="47.44628" lon="6.71036">
        <ele>458.1</ele>
        <time>2016-12-30T09:50:43.999Z</time>
      </trkpt>
      <trkpt lat="47.44635" lon="6.71031">
        <ele>456.7</ele>
        <time>2016-12-30T09:50:44.999Z</time>
      </trkpt>
      <trkpt lat="47.4464" lon="6.71028">
        <ele>456.3</ele>
        <time>2016-12-30T09:50:45.999Z</time>
      </trkpt>
      <trkpt lat="47.44646" lon="6.71025">
        <ele>455.7</ele>
        <time>2016-12-30T09:50:46.999Z</time>
      </trkpt>
      <trkpt lat="47.44652" lon="6.71022">
        <ele>454.8</ele>
        <time>2016-12-30T09:50:47.999Z</time>
      </trkpt>
      <trkpt lat="47.44659" lon="6.71018">
        <ele>455.1</ele>
        <time>2016-12-30T09:50:48.999Z</time>
      </trkpt>
      <trkpt lat="47.44666" lon="6.71013">
        <ele>456</ele>
        <time>2016-12-30T09:50:49.999Z</time>
      </trkpt>
      <trkpt lat="47.44673" lon="6.71007">
        <ele>456.9</ele>
        <time>2016-12-30T09:50:50.999Z</time>
      </trkpt>
      <trkpt lat="47.44678" lon="6.70999">
        <ele>458.6</ele>
        <time>2016-12-30T09:50:51.999Z</time>
      </trkpt>
      <trkpt lat="47.44684" lon="6.70994">
        <ele>460.1</ele>
        <time>2016-12-30T09:50:52.999Z</time>
      </trkpt>
      <trkpt lat="47.44689" lon="6.70988">
        <ele>461.5</ele>
        <time>2016-12-30T09:50:53.999Z</time>
      </trkpt>
      <trkpt lat="47.44694" lon="6.70983">
        <ele>463.2</ele>
        <time>2016-12-30T09:50:54.999Z</time>
      </trkpt>
      <trkpt lat="47.44701" lon="6.70979">
        <ele>465.8</ele>
        <time>2016-12-30T09:50:55.999Z</time>
      </trkpt>
      <trkpt lat="47.44707" lon="6.70973">
        <ele>467.4</ele>
        <time>2016-12-30T09:50:56.999Z</time>
      </trkpt>
      <trkpt lat="47.44713" lon="6.70969">
        <ele>469</ele>
        <time>2016-12-30T09:50:57.999Z</time>
      </trkpt>
      <trkpt lat="47.44719" lon="6.70965">
        <ele>470.3</ele>
        <time>2016-12-30T09:50:58.999Z</time>
      </trkpt>
      <trkpt lat="47.44724" lon="6.70961">
        <ele>470.7</ele>
        <time>2016-12-30T09:50:59.999Z</time>
      </trkpt>
      <trkpt lat="47.4473" lon="6.70957">
        <ele>471.3</ele>
        <time>2016-12-30T09:51:00.999Z</time>
      </trkpt>
      <trkpt lat="47.44736" lon="6.70951">
        <ele>472.6</ele>
        <time>2016-12-30T09:51:01.999Z</time>
      </trkpt>
      <trkpt lat="47.44742" lon="6.70946">
        <ele>472.7</ele>
        <time>2016-12-30T09:51:02.999Z</time>
      </trkpt>
      <trkpt lat="47.44745" lon="6.70942">
        <ele>472.9</ele>
        <time>2016-12-30T09:51:03.999Z</time>
      </trkpt>
      <trkpt lat="47.44749" lon="6.70937">
        <ele>473</ele>
        <time>2016-12-30T09:51:04.999Z</time>
      </trkpt>
      <trkpt lat="47.44754" lon="6.70936">
        <ele>473.1</ele>
        <time>2016-12-30T09:51:05.999Z</time>
      </trkpt>
      <trkpt lat="47.44757" lon="6.70932">
        <ele>473.5</ele>
        <time>2016-12-30T09:51:08.999Z</time>
      </trkpt>
      <trkpt lat="47.44759" lon="6.7093">
        <ele>473.6</ele>
        <time>2016-12-30T09:51:09.999Z</time>
      </trkpt>
      <trkpt lat="47.44762" lon="6.70927">
        <ele>473.7</ele>
        <time>2016-12-30T09:51:10.999Z</time>
      </trkpt>
      <trkpt lat="47.44766" lon="6.70923">
        <ele>473.7</ele>
        <time>2016-12-30T09:51:11.999Z</time>
      </trkpt>
      <trkpt lat="47.44769" lon="6.70921">
        <ele>473.8</ele>
        <time>2016-12-30T09:51:12.999Z</time>
      </trkpt>
      <trkpt lat="47.44774" lon="6.70919">
        <ele>474</ele>
        <time>2016-12-30T09:51:13.999Z</time>
      </trkpt>
      <trkpt lat="47.44779" lon="6.70916">
        <ele>474.1</ele>
        <time>2016-12-30T09:51:14.999Z</time>
      </trkpt>
      <trkpt lat="47.44783" lon="6.70912">
        <ele>474.7</ele>
        <time>2016-12-30T09:51:15.999Z</time>
      </trkpt>
      <trkpt lat="47.44788" lon="6.70908">
        <ele>475.3</ele>
        <time>2016-12-30T09:51:16.999Z</time>
      </trkpt>
      <trkpt lat="47.44792" lon="6.70903">
        <ele>475.2</ele>
        <time>2016-12-30T09:51:17.999Z</time>
      </trkpt>
      <trkpt lat="47.44798" lon="6.70899">
        <ele>475</ele>
        <time>2016-12-30T09:51:18.999Z</time>
      </trkpt>
      <trkpt lat="47.44803" lon="6.70893">
        <ele>475</ele>
        <time>2016-12-30T09:51:19.999Z</time>
      </trkpt>
      <trkpt lat="47.44813" lon="6.70885">
        <ele>475.3</ele>
        <time>2016-12-30T09:51:20.999Z</time>
      </trkpt>
      <trkpt lat="47.44819" lon="6.70879">
        <ele>475.1</ele>
        <time>2016-12-30T09:51:21.999Z</time>
      </trkpt>
      <trkpt lat="47.44825" lon="6.70873">
        <ele>474.9</ele>
        <time>2016-12-30T09:51:22.999Z</time>
      </trkpt>
      <trkpt lat="47.44828" lon="6.70867">
        <ele>474.5</ele>
        <time>2016-12-30T09:51:23.999Z</time>
      </trkpt>
      <trkpt lat="47.44832" lon="6.70862">
        <ele>474.2</ele>
        <time>2016-12-30T09:51:24.999Z</time>
      </trkpt>
      <trkpt lat="47.44838" lon="6.70857">
        <ele>474.2</ele>
        <time>2016-12-30T09:51:25.999Z</time>
      </trkpt>
      <trkpt lat="47.44842" lon="6.70851">
        <ele>473.9</ele>
        <time>2016-12-30T09:51:26.999Z</time>
      </trkpt>
      <trkpt lat="47.44845" lon="6.70844">
        <ele>473.1</ele>
        <time>2016-12-30T09:51:27.999Z</time>
      </trkpt>
      <trkpt lat="47.44849" lon="6.70838">
        <ele>472.9</ele>
        <time>2016-12-30T09:51:28.999Z</time>
      </trkpt>
      <trkpt lat="47.44854" lon="6.70832">
        <ele>471.7</ele>
        <time>2016-12-30T09:51:29.999Z</time>
      </trkpt>
      <trkpt lat="47.44858" lon="6.70828">
        <ele>470.8</ele>
        <time>2016-12-30T09:51:30.999Z</time>
      </trkpt>
      <trkpt lat="47.44863" lon="6.70823">
        <ele>469.7</ele>
        <time>2016-12-30T09:51:31.999Z</time>
      </trkpt>
      <trkpt lat="47.44869" lon="6.70817">
        <ele>468.4</ele>
        <time>2016-12-30T09:51:32.999Z</time>
      </trkpt>
      <trkpt lat="47.44874" lon="6.70811">
        <ele>466.8</ele>
        <time>2016-12-30T09:51:33.999Z</time>
      </trkpt>
      <trkpt lat="47.44878" lon="6.70804">
        <ele>466.5</ele>
        <time>2016-12-30T09:51:34.999Z</time>
      </trkpt>
      <trkpt lat="47.44882" lon="6.70797">
        <ele>465.8</ele>
        <time>2016-12-30T09:51:35.999Z</time>
      </trkpt>
      <trkpt lat="47.44885" lon="6.7079">
        <ele>464.3</ele>
        <time>2016-12-30T09:51:36.999Z</time>
      </trkpt>
      <trkpt lat="47.44889" lon="6.70783">
        <ele>462.6</ele>
        <time>2016-12-30T09:51:37.999Z</time>
      </trkpt>
      <trkpt lat="47.44894" lon="6.70778">
        <ele>461.7</ele>
        <time>2016-12-30T09:51:38.999Z</time>
      </trkpt>
      <trkpt lat="47.44898" lon="6.70771">
        <ele>460.6</ele>
        <time>2016-12-30T09:51:39.999Z</time>
      </trkpt>
      <trkpt lat="47.44902" lon="6.70764">
        <ele>459.9</ele>
        <time>2016-12-30T09:51:40.999Z</time>
      </trkpt>
      <trkpt lat="47.44907" lon="6.70755">
        <ele>459.5</ele>
        <time>2016-12-30T09:51:41.999Z</time>
      </trkpt>
      <trkpt lat="47.4491" lon="6.70747">
        <ele>459.2</ele>
        <time>2016-12-30T09:51:42.999Z</time>
      </trkpt>
      <trkpt lat="47.44911" lon="6.70737">
        <ele>457.8</ele>
        <time>2016-12-30T09:51:43.999Z</time>
      </trkpt>
      <trkpt lat="47.44913" lon="6.70729">
        <ele>456.8</ele>
        <time>2016-12-30T09:51:44.999Z</time>
      </trkpt>
      <trkpt lat="47.44916" lon="6.70722">
        <ele>455.9</ele>
        <time>2016-12-30T09:51:45.999Z</time>
      </trkpt>
      <trkpt lat="47.4492" lon="6.70717">
        <ele>455.3</ele>
        <time>2016-12-30T09:51:46.999Z</time>
      </trkpt>
      <trkpt lat="47.44923" lon="6.7071">
        <ele>455.1</ele>
        <time>2016-12-30T09:51:47.999Z</time>
      </trkpt>
      <trkpt lat="47.44926" lon="6.70703">
        <ele>454</ele>
        <time>2016-12-30T09:51:48.999Z</time>
      </trkpt>
      <trkpt lat="47.44928" lon="6.70697">
        <ele>453.2</ele>
        <time>2016-12-30T09:51:49.999Z</time>
      </trkpt>
      <trkpt lat="47.44931" lon="6.70689">
        <ele>451.8</ele>
        <time>2016-12-30T09:51:50.999Z</time>
      </trkpt>
      <trkpt lat="47.44933" lon="6.70681">
        <ele>450.9</ele>
        <time>2016-12-30T09:51:51.999Z</time>
      </trkpt>
      <trkpt lat="47.44935" lon="6.70673">
        <ele>450.1</ele>
        <time>2016-12-30T09:51:52.999Z</time>
      </trkpt>
      <trkpt lat="47.44936" lon="6.70663">
        <ele>450</ele>
        <time>2016-12-30T09:51:53.999Z</time>
      </trkpt>
      <trkpt lat="47.44937" lon="6.70653">
        <ele>449.8</ele>
        <time>2016-12-30T09:51:54.999Z</time>
      </trkpt>
      <trkpt lat="47.44941" lon="6.70652">
        <ele>449.5</ele>
        <time>2016-12-30T09:52:05.999Z</time>
      </trkpt>
      <trkpt lat="47.44943" lon="6.70652">
        <ele>449.5</ele>
        <time>2016-12-30T09:52:06.999Z</time>
      </trkpt>
      <trkpt lat="47.44946" lon="6.70652">
        <ele>449.6</ele>
        <time>2016-12-30T09:52:09.999Z</time>
      </trkpt>
      <trkpt lat="47.44947" lon="6.70653">
        <ele>449.6</ele>
        <time>2016-12-30T09:52:10.999Z</time>
      </trkpt>
      <trkpt lat="47.44944" lon="6.70648">
        <ele>451.1</ele>
        <time>2016-12-30T09:53:11.999Z</time>
      </trkpt>
      <trkpt lat="47.44943" lon="6.70648">
        <ele>450.9</ele>
        <time>2016-12-30T09:53:12.999Z</time>
      </trkpt>
      <trkpt lat="47.44947" lon="6.7065">
        <ele>454.8</ele>
        <time>2016-12-30T09:53:49.999Z</time>
      </trkpt>
      <trkpt lat="47.44947" lon="6.70651">
        <ele>455.1</ele>
        <time>2016-12-30T09:53:50.999Z</time>
      </trkpt>
      <trkpt lat="47.4495" lon="6.70648">
        <ele>455.7</ele>
        <time>2016-12-30T09:53:59.999Z</time>
      </trkpt>
      <trkpt lat="47.44952" lon="6.70642">
        <ele>455.8</ele>
        <time>2016-12-30T09:54:00.999Z</time>
      </trkpt>
      <trkpt lat="47.44953" lon="6.70637">
        <ele>455.8</ele>
        <time>2016-12-30T09:54:01.999Z</time>
      </trkpt>
      <trkpt lat="47.44956" lon="6.70634">
        <ele>455.9</ele>
        <time>2016-12-30T09:54:02.999Z</time>
      </trkpt>
      <trkpt lat="47.44959" lon="6.7063">
        <ele>456.1</ele>
        <time>2016-12-30T09:54:03.999Z</time>
      </trkpt>
      <trkpt lat="47.44962" lon="6.70624">
        <ele>456.1</ele>
        <time>2016-12-30T09:54:04.999Z</time>
      </trkpt>
      <trkpt lat="47.44965" lon="6.70619">
        <ele>456.1</ele>
        <time>2016-12-30T09:54:05.999Z</time>
      </trkpt>
      <trkpt lat="47.44968" lon="6.70614">
        <ele>456.1</ele>
        <time>2016-12-30T09:54:06.999Z</time>
      </trkpt>
      <trkpt lat="47.44969" lon="6.70609">
        <ele>456.1</ele>
        <time>2016-12-30T09:54:07.999Z</time>
      </trkpt>
      <trkpt lat="47.44971" lon="6.70603">
        <ele>455.9</ele>
        <time>2016-12-30T09:54:09.999Z</time>
      </trkpt>
      <trkpt lat="47.44974" lon="6.706">
        <ele>455.8</ele>
        <time>2016-12-30T09:54:10.999Z</time>
      </trkpt>
      <trkpt lat="47.44976" lon="6.70599">
        <ele>455.7</ele>
        <time>2016-12-30T09:54:11.999Z</time>
      </trkpt>
      <trkpt lat="47.44979" lon="6.70598">
        <ele>455.7</ele>
        <time>2016-12-30T09:54:12.999Z</time>
      </trkpt>
      <trkpt lat="47.44981" lon="6.70599">
        <ele>455.7</ele>
        <time>2016-12-30T09:54:13.999Z</time>
      </trkpt>
      <trkpt lat="47.44985" lon="6.70603">
        <ele>455.6</ele>
        <time>2016-12-30T09:54:14.999Z</time>
      </trkpt>
      <trkpt lat="47.44989" lon="6.70606">
        <ele>454.6</ele>
        <time>2016-12-30T09:54:15.999Z</time>
      </trkpt>
      <trkpt lat="47.44995" lon="6.70609">
        <ele>454.5</ele>
        <time>2016-12-30T09:54:16.999Z</time>
      </trkpt>
      <trkpt lat="47.44997" lon="6.70611">
        <ele>454.5</ele>
        <time>2016-12-30T09:54:17.999Z</time>
      </trkpt>
      <trkpt lat="47.45" lon="6.70613">
        <ele>454.5</ele>
        <time>2016-12-30T09:54:18.999Z</time>
      </trkpt>
      <trkpt lat="47.45004" lon="6.70615">
        <ele>454.5</ele>
        <time>2016-12-30T09:54:19.999Z</time>
      </trkpt>
      <trkpt lat="47.45008" lon="6.70618">
        <ele>454.5</ele>
        <time>2016-12-30T09:54:20.999Z</time>
      </trkpt>
      <trkpt lat="47.45013" lon="6.70622">
        <ele>454.5</ele>
        <time>2016-12-30T09:54:21.999Z</time>
      </trkpt>
      <trkpt lat="47.45017" lon="6.70625">
        <ele>454.5</ele>
        <time>2016-12-30T09:54:22.999Z</time>
      </trkpt>
      <trkpt lat="47.4502" lon="6.70625">
        <ele>454.5</ele>
        <time>2016-12-30T09:54:23.999Z</time>
      </trkpt>
      <trkpt lat="47.45024" lon="6.70627">
        <ele>454.5</ele>
        <time>2016-12-30T09:54:24.999Z</time>
      </trkpt>
      <trkpt lat="47.45028" lon="6.70629">
        <ele>454.5</ele>
        <time>2016-12-30T09:54:25.999Z</time>
      </trkpt>
      <trkpt lat="47.45031" lon="6.7063">
        <ele>454.4</ele>
        <time>2016-12-30T09:54:26.999Z</time>
      </trkpt>
      <trkpt lat="47.45035" lon="6.70631">
        <ele>454.4</ele>
        <time>2016-12-30T09:54:27.999Z</time>
      </trkpt>
      <trkpt lat="47.45039" lon="6.70633">
        <ele>454.4</ele>
        <time>2016-12-30T09:54:28.999Z</time>
      </trkpt>
      <trkpt lat="47.45042" lon="6.70636">
        <ele>454.3</ele>
        <time>2016-12-30T09:54:29.999Z</time>
      </trkpt>
      <trkpt lat="47.45046" lon="6.70641">
        <ele>454.3</ele>
        <time>2016-12-30T09:54:30.999Z</time>
      </trkpt>
      <trkpt lat="47.45049" lon="6.70645">
        <ele>454.3</ele>
        <time>2016-12-30T09:54:31.999Z</time>
      </trkpt>
      <trkpt lat="47.45051" lon="6.70648">
        <ele>454.4</ele>
        <time>2016-12-30T09:54:32.999Z</time>
      </trkpt>
      <trkpt lat="47.45054" lon="6.7065">
        <ele>454.5</ele>
        <time>2016-12-30T09:54:33.999Z</time>
      </trkpt>
      <trkpt lat="47.45056" lon="6.70653">
        <ele>454.6</ele>
        <time>2016-12-30T09:54:34.999Z</time>
      </trkpt>
      <trkpt lat="47.45059" lon="6.70655">
        <ele>454.6</ele>
        <time>2016-12-30T09:54:35.999Z</time>
      </trkpt>
      <trkpt lat="47.45061" lon="6.70659">
        <ele>454.7</ele>
        <time>2016-12-30T09:54:36.999Z</time>
      </trkpt>
      <trkpt lat="47.45063" lon="6.70663">
        <ele>454.7</ele>
        <time>2016-12-30T09:54:37.999Z</time>
      </trkpt>
      <trkpt lat="47.45065" lon="6.70667">
        <ele>454.8</ele>
        <time>2016-12-30T09:54:38.999Z</time>
      </trkpt>
      <trkpt lat="47.45067" lon="6.70671">
        <ele>454.9</ele>
        <time>2016-12-30T09:54:39.999Z</time>
      </trkpt>
      <trkpt lat="47.45069" lon="6.70676">
        <ele>455</ele>
        <time>2016-12-30T09:54:40.999Z</time>
      </trkpt>
      <trkpt lat="47.45072" lon="6.70681">
        <ele>455.2</ele>
        <time>2016-12-30T09:54:42.999Z</time>
      </trkpt>
      <trkpt lat="47.45072" lon="6.70683">
        <ele>455.3</ele>
        <time>2016-12-30T09:54:43.999Z</time>
      </trkpt>
      <trkpt lat="47.45072" lon="6.70687">
        <ele>455.3</ele>
        <time>2016-12-30T09:54:47.999Z</time>
      </trkpt>
      <trkpt lat="47.45073" lon="6.7069">
        <ele>455.4</ele>
        <time>2016-12-30T09:54:48.999Z</time>
      </trkpt>
      <trkpt lat="47.45073" lon="6.70695">
        <ele>455.6</ele>
        <time>2016-12-30T09:54:51.999Z</time>
      </trkpt>
      <trkpt lat="47.45073" lon="6.70696">
        <ele>455.7</ele>
        <time>2016-12-30T09:54:52.999Z</time>
      </trkpt>
      <trkpt lat="47.45075" lon="6.70701">
        <ele>455.7</ele>
        <time>2016-12-30T09:54:54.999Z</time>
      </trkpt>
      <trkpt lat="47.45077" lon="6.70704">
        <ele>455.7</ele>
        <time>2016-12-30T09:54:55.999Z</time>
      </trkpt>
      <trkpt lat="47.4508" lon="6.70707">
        <ele>455.6</ele>
        <time>2016-12-30T09:55:00.999Z</time>
      </trkpt>
      <trkpt lat="47.45082" lon="6.7071">
        <ele>455.6</ele>
        <time>2016-12-30T09:55:01.999Z</time>
      </trkpt>
      <trkpt lat="47.45084" lon="6.70712">
        <ele>455.6</ele>
        <time>2016-12-30T09:55:02.999Z</time>
      </trkpt>
      <trkpt lat="47.45086" lon="6.70715">
        <ele>455.7</ele>
        <time>2016-12-30T09:55:03.999Z</time>
      </trkpt>
      <trkpt lat="47.45088" lon="6.70719">
        <ele>456</ele>
        <time>2016-12-30T09:55:07.999Z</time>
      </trkpt>
      <trkpt lat="47.45089" lon="6.7072">
        <ele>456.1</ele>
        <time>2016-12-30T09:55:08.999Z</time>
      </trkpt>
      <trkpt lat="47.45089" lon="6.70724">
        <ele>456.1</ele>
        <time>2016-12-30T09:55:09.999Z</time>
      </trkpt>
      <trkpt lat="47.45089" lon="6.70728">
        <ele>456.2</ele>
        <time>2016-12-30T09:55:10.999Z</time>
      </trkpt>
      <trkpt lat="47.45089" lon="6.70734">
        <ele>456.4</ele>
        <time>2016-12-30T09:55:12.999Z</time>
      </trkpt>
      <trkpt lat="47.45089" lon="6.70737">
        <ele>456.6</ele>
        <time>2016-12-30T09:55:13.999Z</time>
      </trkpt>
      <trkpt lat="47.4509" lon="6.70741">
        <ele>456.7</ele>
        <time>2016-12-30T09:55:14.999Z</time>
      </trkpt>
      <trkpt lat="47.45091" lon="6.70744">
        <ele>456.9</ele>
        <time>2016-12-30T09:55:15.999Z</time>
      </trkpt>
      <trkpt lat="47.45091" lon="6.70749">
        <ele>457.2</ele>
        <time>2016-12-30T09:55:17.999Z</time>
      </trkpt>
      <trkpt lat="47.45093" lon="6.70751">
        <ele>457.3</ele>
        <time>2016-12-30T09:55:18.999Z</time>
      </trkpt>
      <trkpt lat="47.45095" lon="6.70754">
        <ele>457.6</ele>
        <time>2016-12-30T09:55:20.999Z</time>
      </trkpt>
      <trkpt lat="47.45096" lon="6.70755">
        <ele>457.7</ele>
        <time>2016-12-30T09:55:21.999Z</time>
      </trkpt>
      <trkpt lat="47.45098" lon="6.70759">
        <ele>458</ele>
        <time>2016-12-30T09:55:23.999Z</time>
      </trkpt>
      <trkpt lat="47.45099" lon="6.70761">
        <ele>458.1</ele>
        <time>2016-12-30T09:55:24.999Z</time>
      </trkpt>
      <trkpt lat="47.45102" lon="6.70765">
        <ele>458.7</ele>
        <time>2016-12-30T09:55:27.999Z</time>
      </trkpt>
      <trkpt lat="47.45103" lon="6.70768">
        <ele>458.9</ele>
        <time>2016-12-30T09:55:28.999Z</time>
      </trkpt>
      <trkpt lat="47.45106" lon="6.70773">
        <ele>459.5</ele>
        <time>2016-12-30T09:55:31.999Z</time>
      </trkpt>
      <trkpt lat="47.45106" lon="6.70776">
        <ele>459.7</ele>
        <time>2016-12-30T09:55:32.999Z</time>
      </trkpt>
      <trkpt lat="47.45108" lon="6.70781">
        <ele>460.2</ele>
        <time>2016-12-30T09:55:36.999Z</time>
      </trkpt>
      <trkpt lat="47.45108" lon="6.70783">
        <ele>460.4</ele>
        <time>2016-12-30T09:55:37.999Z</time>
      </trkpt>
      <trkpt lat="47.45111" lon="6.70788">
        <ele>460.5</ele>
        <time>2016-12-30T09:55:39.999Z</time>
      </trkpt>
      <trkpt lat="47.45112" lon="6.70791">
        <ele>460.6</ele>
        <time>2016-12-30T09:55:40.999Z</time>
      </trkpt>
      <trkpt lat="47.45115" lon="6.70795">
        <ele>460.8</ele>
        <time>2016-12-30T09:55:42.999Z</time>
      </trkpt>
      <trkpt lat="47.45116" lon="6.70797">
        <ele>461</ele>
        <time>2016-12-30T09:55:43.999Z</time>
      </trkpt>
      <trkpt lat="47.45117" lon="6.70801">
        <ele>461.4</ele>
        <time>2016-12-30T09:55:45.999Z</time>
      </trkpt>
      <trkpt lat="47.45118" lon="6.70803">
        <ele>461.6</ele>
        <time>2016-12-30T09:55:46.999Z</time>
      </trkpt>
      <trkpt lat="47.4512" lon="6.70808">
        <ele>462.5</ele>
        <time>2016-12-30T09:55:50.999Z</time>
      </trkpt>
      <trkpt lat="47.45121" lon="6.7081">
        <ele>462.7</ele>
        <time>2016-12-30T09:55:51.999Z</time>
      </trkpt>
      <trkpt lat="47.45124" lon="6.70814">
        <ele>463</ele>
        <time>2016-12-30T09:55:53.999Z</time>
      </trkpt>
      <trkpt lat="47.45125" lon="6.70817">
        <ele>463.1</ele>
        <time>2016-12-30T09:55:54.999Z</time>
      </trkpt>
      <trkpt lat="47.45126" lon="6.70821">
        <ele>463.3</ele>
        <time>2016-12-30T09:55:56.999Z</time>
      </trkpt>
      <trkpt lat="47.45127" lon="6.70823">
        <ele>463.4</ele>
        <time>2016-12-30T09:55:57.999Z</time>
      </trkpt>
      <trkpt lat="47.45128" lon="6.70829">
        <ele>463.8</ele>
        <time>2016-12-30T09:56:00.999Z</time>
      </trkpt>
      <trkpt lat="47.45128" lon="6.70833">
        <ele>463.9</ele>
        <time>2016-12-30T09:56:01.999Z</time>
      </trkpt>
      <trkpt lat="47.45129" lon="6.70836">
        <ele>464</ele>
        <time>2016-12-30T09:56:02.999Z</time>
      </trkpt>
      <trkpt lat="47.45129" lon="6.7084">
        <ele>464.2</ele>
        <time>2016-12-30T09:56:03.999Z</time>
      </trkpt>
      <trkpt lat="47.45131" lon="6.70845">
        <ele>464.4</ele>
        <time>2016-12-30T09:56:05.999Z</time>
      </trkpt>
      <trkpt lat="47.45132" lon="6.70847">
        <ele>464.6</ele>
        <time>2016-12-30T09:56:06.999Z</time>
      </trkpt>
      <trkpt lat="47.45134" lon="6.70851">
        <ele>464.8</ele>
        <time>2016-12-30T09:56:08.999Z</time>
      </trkpt>
      <trkpt lat="47.45135" lon="6.70853">
        <ele>465</ele>
        <time>2016-12-30T09:56:09.999Z</time>
      </trkpt>
      <trkpt lat="47.45138" lon="6.70858">
        <ele>465.3</ele>
        <time>2016-12-30T09:56:11.999Z</time>
      </trkpt>
      <trkpt lat="47.45139" lon="6.70861">
        <ele>465.4</ele>
        <time>2016-12-30T09:56:12.999Z</time>
      </trkpt>
      <trkpt lat="47.45142" lon="6.70866">
        <ele>466</ele>
        <time>2016-12-30T09:56:16.999Z</time>
      </trkpt>
      <trkpt lat="47.45142" lon="6.70866">
        <ele>466.3</ele>
        <time>2016-12-30T09:56:17.999Z</time>
      </trkpt>
      <trkpt lat="47.45145" lon="6.70869">
        <ele>466.4</ele>
        <time>2016-12-30T09:56:19.999Z</time>
      </trkpt>
      <trkpt lat="47.45146" lon="6.7087">
        <ele>466.5</ele>
        <time>2016-12-30T09:56:20.999Z</time>
      </trkpt>
      <trkpt lat="47.45148" lon="6.70873">
        <ele>466.7</ele>
        <time>2016-12-30T09:56:22.999Z</time>
      </trkpt>
      <trkpt lat="47.45149" lon="6.70876">
        <ele>466.8</ele>
        <time>2016-12-30T09:56:23.999Z</time>
      </trkpt>
      <trkpt lat="47.45151" lon="6.70879">
        <ele>466.8</ele>
        <time>2016-12-30T09:56:24.999Z</time>
      </trkpt>
      <trkpt lat="47.45152" lon="6.70881">
        <ele>466.8</ele>
        <time>2016-12-30T09:56:25.999Z</time>
      </trkpt>
      <trkpt lat="47.45154" lon="6.70884">
        <ele>466.8</ele>
        <time>2016-12-30T09:56:26.999Z</time>
      </trkpt>
      <trkpt lat="47.45156" lon="6.70887">
        <ele>466.8</ele>
        <time>2016-12-30T09:56:27.999Z</time>
      </trkpt>
      <trkpt lat="47.45157" lon="6.70889">
        <ele>466.7</ele>
        <time>2016-12-30T09:56:28.999Z</time>
      </trkpt>
      <trkpt lat="47.45159" lon="6.70891">
        <ele>466.7</ele>
        <time>2016-12-30T09:56:29.999Z</time>
      </trkpt>
      <trkpt lat="47.45161" lon="6.70895">
        <ele>466.6</ele>
        <time>2016-12-30T09:56:30.999Z</time>
      </trkpt>
      <trkpt lat="47.45162" lon="6.70899">
        <ele>466.6</ele>
        <time>2016-12-30T09:56:31.999Z</time>
      </trkpt>
      <trkpt lat="47.45163" lon="6.70904">
        <ele>466.6</ele>
        <time>2016-12-30T09:56:32.999Z</time>
      </trkpt>
      <trkpt lat="47.45163" lon="6.70908">
        <ele>466.7</ele>
        <time>2016-12-30T09:56:33.999Z</time>
      </trkpt>
      <trkpt lat="47.45164" lon="6.70912">
        <ele>466.8</ele>
        <time>2016-12-30T09:56:34.999Z</time>
      </trkpt>
      <trkpt lat="47.45164" lon="6.70915">
        <ele>466.9</ele>
        <time>2016-12-30T09:56:35.999Z</time>
      </trkpt>
      <trkpt lat="47.45166" lon="6.70919">
        <ele>467</ele>
        <time>2016-12-30T09:56:37.999Z</time>
      </trkpt>
      <trkpt lat="47.45168" lon="6.70923">
        <ele>467</ele>
        <time>2016-12-30T09:56:38.999Z</time>
      </trkpt>
      <trkpt lat="47.45169" lon="6.70927">
        <ele>467</ele>
        <time>2016-12-30T09:56:39.999Z</time>
      </trkpt>
      <trkpt lat="47.4517" lon="6.7093">
        <ele>467.1</ele>
        <time>2016-12-30T09:56:40.999Z</time>
      </trkpt>
      <trkpt lat="47.45173" lon="6.70936">
        <ele>467.1</ele>
        <time>2016-12-30T09:56:41.999Z</time>
      </trkpt>
      <trkpt lat="47.45175" lon="6.7094">
        <ele>467.2</ele>
        <time>2016-12-30T09:56:42.999Z</time>
      </trkpt>
      <trkpt lat="47.45176" lon="6.70943">
        <ele>467.2</ele>
        <time>2016-12-30T09:56:43.999Z</time>
      </trkpt>
      <trkpt lat="47.45178" lon="6.70947">
        <ele>467.3</ele>
        <time>2016-12-30T09:56:44.999Z</time>
      </trkpt>
      <trkpt lat="47.45179" lon="6.70951">
        <ele>467.6</ele>
        <time>2016-12-30T09:56:46.999Z</time>
      </trkpt>
      <trkpt lat="47.45181" lon="6.70955">
        <ele>467.7</ele>
        <time>2016-12-30T09:56:47.999Z</time>
      </trkpt>
      <trkpt lat="47.45182" lon="6.70959">
        <ele>467.9</ele>
        <time>2016-12-30T09:56:48.999Z</time>
      </trkpt>
      <trkpt lat="47.45183" lon="6.70963">
        <ele>468</ele>
        <time>2016-12-30T09:56:49.999Z</time>
      </trkpt>
      <trkpt lat="47.45185" lon="6.70965">
        <ele>468.1</ele>
        <time>2016-12-30T09:56:50.999Z</time>
      </trkpt>
      <trkpt lat="47.45186" lon="6.70969">
        <ele>468.3</ele>
        <time>2016-12-30T09:56:51.999Z</time>
      </trkpt>
      <trkpt lat="47.45188" lon="6.70974">
        <ele>468.6</ele>
        <time>2016-12-30T09:56:53.999Z</time>
      </trkpt>
      <trkpt lat="47.45189" lon="6.70977">
        <ele>468.8</ele>
        <time>2016-12-30T09:56:54.999Z</time>
      </trkpt>
      <trkpt lat="47.45191" lon="6.70982">
        <ele>468.9</ele>
        <time>2016-12-30T09:56:56.999Z</time>
      </trkpt>
      <trkpt lat="47.45192" lon="6.70986">
        <ele>469</ele>
        <time>2016-12-30T09:56:57.999Z</time>
      </trkpt>
      <trkpt lat="47.45193" lon="6.7099">
        <ele>469.1</ele>
        <time>2016-12-30T09:56:58.999Z</time>
      </trkpt>
      <trkpt lat="47.45194" lon="6.70993">
        <ele>469.2</ele>
        <time>2016-12-30T09:56:59.999Z</time>
      </trkpt>
      <trkpt lat="47.45196" lon="6.70996">
        <ele>469.3</ele>
        <time>2016-12-30T09:57:00.999Z</time>
      </trkpt>
      <trkpt lat="47.45197" lon="6.71">
        <ele>469.4</ele>
        <time>2016-12-30T09:57:01.999Z</time>
      </trkpt>
      <trkpt lat="47.45199" lon="6.71006">
        <ele>469.6</ele>
        <time>2016-12-30T09:57:03.999Z</time>
      </trkpt>
      <trkpt lat="47.45199" lon="6.7101">
        <ele>469.7</ele>
        <time>2016-12-30T09:57:04.999Z</time>
      </trkpt>
      <trkpt lat="47.452" lon="6.71012">
        <ele>469.8</ele>
        <time>2016-12-30T09:57:05.999Z</time>
      </trkpt>
      <trkpt lat="47.45202" lon="6.71016">
        <ele>469.9</ele>
        <time>2016-12-30T09:57:06.999Z</time>
      </trkpt>
      <trkpt lat="47.45204" lon="6.71021">
        <ele>470.1</ele>
        <time>2016-12-30T09:57:08.999Z</time>
      </trkpt>
      <trkpt lat="47.45205" lon="6.71025">
        <ele>470.2</ele>
        <time>2016-12-30T09:57:09.999Z</time>
      </trkpt>
      <trkpt lat="47.45206" lon="6.71029">
        <ele>470.2</ele>
        <time>2016-12-30T09:57:10.999Z</time>
      </trkpt>
      <trkpt lat="47.45207" lon="6.71032">
        <ele>470.3</ele>
        <time>2016-12-30T09:57:11.999Z</time>
      </trkpt>
      <trkpt lat="47.45208" lon="6.71037">
        <ele>470.5</ele>
        <time>2016-12-30T09:57:14.999Z</time>
      </trkpt>
      <trkpt lat="47.45208" lon="6.71039">
        <ele>470.6</ele>
        <time>2016-12-30T09:57:15.999Z</time>
      </trkpt>
      <trkpt lat="47.45209" lon="6.71044">
        <ele>470.7</ele>
        <time>2016-12-30T09:57:17.999Z</time>
      </trkpt>
      <trkpt lat="47.45209" lon="6.71046">
        <ele>470.8</ele>
        <time>2016-12-30T09:57:18.999Z</time>
      </trkpt>
      <trkpt lat="47.45208" lon="6.71048">
        <ele>471</ele>
        <time>2016-12-30T09:57:19.999Z</time>
      </trkpt>
      <trkpt lat="47.45207" lon="6.71052">
        <ele>471.2</ele>
        <time>2016-12-30T09:57:20.999Z</time>
      </trkpt>
      <trkpt lat="47.45205" lon="6.71056">
        <ele>471.4</ele>
        <time>2016-12-30T09:57:21.999Z</time>
      </trkpt>
      <trkpt lat="47.45204" lon="6.71058">
        <ele>471.7</ele>
        <time>2016-12-30T09:57:22.999Z</time>
      </trkpt>
      <trkpt lat="47.45202" lon="6.71063">
        <ele>472.4</ele>
        <time>2016-12-30T09:57:25.999Z</time>
      </trkpt>
      <trkpt lat="47.45201" lon="6.71064">
        <ele>472.7</ele>
        <time>2016-12-30T09:57:26.999Z</time>
      </trkpt>
      <trkpt lat="47.45202" lon="6.71069">
        <ele>473.2</ele>
        <time>2016-12-30T09:57:29.999Z</time>
      </trkpt>
      <trkpt lat="47.45201" lon="6.71074">
        <ele>473.5</ele>
        <time>2016-12-30T09:57:30.999Z</time>
      </trkpt>
      <trkpt lat="47.452" lon="6.7108">
        <ele>473.7</ele>
        <time>2016-12-30T09:57:32.999Z</time>
      </trkpt>
      <trkpt lat="47.45199" lon="6.71084">
        <ele>473.8</ele>
        <time>2016-12-30T09:57:33.999Z</time>
      </trkpt>
      <trkpt lat="47.45198" lon="6.7109">
        <ele>474</ele>
        <time>2016-12-30T09:57:35.999Z</time>
      </trkpt>
      <trkpt lat="47.45198" lon="6.71092">
        <ele>474.1</ele>
        <time>2016-12-30T09:57:36.999Z</time>
      </trkpt>
      <trkpt lat="47.45196" lon="6.71098">
        <ele>474.5</ele>
        <time>2016-12-30T09:57:39.999Z</time>
      </trkpt>
      <trkpt lat="47.45196" lon="6.711">
        <ele>474.7</ele>
        <time>2016-12-30T09:57:40.999Z</time>
      </trkpt>
      <trkpt lat="47.45195" lon="6.71106">
        <ele>475.2</ele>
        <time>2016-12-30T09:57:43.999Z</time>
      </trkpt>
      <trkpt lat="47.45194" lon="6.71109">
        <ele>475.4</ele>
        <time>2016-12-30T09:57:44.999Z</time>
      </trkpt>
      <trkpt lat="47.45195" lon="6.71115">
        <ele>476.2</ele>
        <time>2016-12-30T09:57:48.999Z</time>
      </trkpt>
      <trkpt lat="47.45195" lon="6.71116">
        <ele>476.4</ele>
        <time>2016-12-30T09:57:49.999Z</time>
      </trkpt>
      <trkpt lat="47.45194" lon="6.7112">
        <ele>477</ele>
        <time>2016-12-30T09:57:52.999Z</time>
      </trkpt>
      <trkpt lat="47.45193" lon="6.71123">
        <ele>477.1</ele>
        <time>2016-12-30T09:57:53.999Z</time>
      </trkpt>
      <trkpt lat="47.45192" lon="6.71129">
        <ele>477.6</ele>
        <time>2016-12-30T09:57:56.999Z</time>
      </trkpt>
      <trkpt lat="47.45191" lon="6.71131">
        <ele>477.7</ele>
        <time>2016-12-30T09:57:57.999Z</time>
      </trkpt>
      <trkpt lat="47.4519" lon="6.71137">
        <ele>478.1</ele>
        <time>2016-12-30T09:58:01.999Z</time>
      </trkpt>
      <trkpt lat="47.4519" lon="6.71139">
        <ele>478.2</ele>
        <time>2016-12-30T09:58:02.999Z</time>
      </trkpt>
      <trkpt lat="47.45188" lon="6.71144">
        <ele>478.6</ele>
        <time>2016-12-30T09:58:04.999Z</time>
      </trkpt>
      <trkpt lat="47.45187" lon="6.71147">
        <ele>478.7</ele>
        <time>2016-12-30T09:58:05.999Z</time>
      </trkpt>
      <trkpt lat="47.45187" lon="6.71154">
        <ele>478.8</ele>
        <time>2016-12-30T09:58:06.999Z</time>
      </trkpt>
      <trkpt lat="47.45185" lon="6.7116">
        <ele>479.2</ele>
        <time>2016-12-30T09:58:10.999Z</time>
      </trkpt>
      <trkpt lat="47.45185" lon="6.71162">
        <ele>479.3</ele>
        <time>2016-12-30T09:58:11.999Z</time>
      </trkpt>
      <trkpt lat="47.45183" lon="6.71167">
        <ele>479.7</ele>
        <time>2016-12-30T09:58:13.999Z</time>
      </trkpt>
      <trkpt lat="47.45183" lon="6.7117">
        <ele>479.8</ele>
        <time>2016-12-30T09:58:14.999Z</time>
      </trkpt>
      <trkpt lat="47.45183" lon="6.71174">
        <ele>479.9</ele>
        <time>2016-12-30T09:58:15.999Z</time>
      </trkpt>
      <trkpt lat="47.45182" lon="6.71177">
        <ele>479.9</ele>
        <time>2016-12-30T09:58:16.999Z</time>
      </trkpt>
      <trkpt lat="47.45181" lon="6.71183">
        <ele>480.1</ele>
        <time>2016-12-30T09:58:19.999Z</time>
      </trkpt>
      <trkpt lat="47.4518" lon="6.71185">
        <ele>480.1</ele>
        <time>2016-12-30T09:58:20.999Z</time>
      </trkpt>
      <trkpt lat="47.45179" lon="6.7119">
        <ele>480.2</ele>
        <time>2016-12-30T09:58:22.999Z</time>
      </trkpt>
      <trkpt lat="47.45178" lon="6.71192">
        <ele>480.2</ele>
        <time>2016-12-30T09:58:23.999Z</time>
      </trkpt>
      <trkpt lat="47.4518" lon="6.71197">
        <ele>480.2</ele>
        <time>2016-12-30T09:58:26.999Z</time>
      </trkpt>
      <trkpt lat="47.45181" lon="6.71199">
        <ele>480.2</ele>
        <time>2016-12-30T09:58:27.999Z</time>
      </trkpt>
      <trkpt lat="47.45183" lon="6.71201">
        <ele>480.1</ele>
        <time>2016-12-30T09:58:28.999Z</time>
      </trkpt>
      <trkpt lat="47.45185" lon="6.71203">
        <ele>480.1</ele>
        <time>2016-12-30T09:58:29.999Z</time>
      </trkpt>
      <trkpt lat="47.45187" lon="6.71206">
        <ele>480</ele>
        <time>2016-12-30T09:58:30.999Z</time>
      </trkpt>
      <trkpt lat="47.45189" lon="6.71208">
        <ele>479.9</ele>
        <time>2016-12-30T09:58:31.999Z</time>
      </trkpt>
      <trkpt lat="47.45192" lon="6.71212">
        <ele>479.7</ele>
        <time>2016-12-30T09:58:33.999Z</time>
      </trkpt>
      <trkpt lat="47.45193" lon="6.71214">
        <ele>479.8</ele>
        <time>2016-12-30T09:58:34.999Z</time>
      </trkpt>
      <trkpt lat="47.45197" lon="6.71216">
        <ele>479.8</ele>
        <time>2016-12-30T09:58:36.999Z</time>
      </trkpt>
      <trkpt lat="47.45199" lon="6.71218">
        <ele>479.8</ele>
        <time>2016-12-30T09:58:37.999Z</time>
      </trkpt>
      <trkpt lat="47.45202" lon="6.7122">
        <ele>479.9</ele>
        <time>2016-12-30T09:58:38.999Z</time>
      </trkpt>
      <trkpt lat="47.45205" lon="6.71222">
        <ele>480</ele>
        <time>2016-12-30T09:58:39.999Z</time>
      </trkpt>
      <trkpt lat="47.45208" lon="6.71224">
        <ele>480.2</ele>
        <time>2016-12-30T09:58:40.999Z</time>
      </trkpt>
      <trkpt lat="47.4521" lon="6.71225">
        <ele>480.4</ele>
        <time>2016-12-30T09:58:41.999Z</time>
      </trkpt>
      <trkpt lat="47.45213" lon="6.71227">
        <ele>480.6</ele>
        <time>2016-12-30T09:58:42.999Z</time>
      </trkpt>
      <trkpt lat="47.45215" lon="6.7123">
        <ele>480.7</ele>
        <time>2016-12-30T09:58:43.999Z</time>
      </trkpt>
      <trkpt lat="47.45219" lon="6.71235">
        <ele>480.7</ele>
        <time>2016-12-30T09:58:44.999Z</time>
      </trkpt>
      <trkpt lat="47.45223" lon="6.71239">
        <ele>480.9</ele>
        <time>2016-12-30T09:58:45.999Z</time>
      </trkpt>
      <trkpt lat="47.45226" lon="6.71243">
        <ele>481</ele>
        <time>2016-12-30T09:58:46.999Z</time>
      </trkpt>
      <trkpt lat="47.45229" lon="6.71246">
        <ele>481</ele>
        <time>2016-12-30T09:58:47.999Z</time>
      </trkpt>
      <trkpt lat="47.45231" lon="6.71249">
        <ele>481.2</ele>
        <time>2016-12-30T09:58:48.999Z</time>
      </trkpt>
      <trkpt lat="47.45234" lon="6.71253">
        <ele>481.2</ele>
        <time>2016-12-30T09:58:49.999Z</time>
      </trkpt>
      <trkpt lat="47.45236" lon="6.71256">
        <ele>481.3</ele>
        <time>2016-12-30T09:58:50.999Z</time>
      </trkpt>
      <trkpt lat="47.45238" lon="6.71259">
        <ele>481.4</ele>
        <time>2016-12-30T09:58:51.999Z</time>
      </trkpt>
      <trkpt lat="47.4524" lon="6.71262">
        <ele>481.5</ele>
        <time>2016-12-30T09:58:52.999Z</time>
      </trkpt>
      <trkpt lat="47.45242" lon="6.71265">
        <ele>481.7</ele>
        <time>2016-12-30T09:58:53.999Z</time>
      </trkpt>
      <trkpt lat="47.45245" lon="6.71267">
        <ele>481.8</ele>
        <time>2016-12-30T09:58:54.999Z</time>
      </trkpt>
      <trkpt lat="47.45246" lon="6.71269">
        <ele>481.9</ele>
        <time>2016-12-30T09:58:55.999Z</time>
      </trkpt>
      <trkpt lat="47.45248" lon="6.71272">
        <ele>482</ele>
        <time>2016-12-30T09:58:57.999Z</time>
      </trkpt>
      <trkpt lat="47.4525" lon="6.71275">
        <ele>482.1</ele>
        <time>2016-12-30T09:58:58.999Z</time>
      </trkpt>
      <trkpt lat="47.45253" lon="6.71278">
        <ele>482.2</ele>
        <time>2016-12-30T09:58:59.999Z</time>
      </trkpt>
      <trkpt lat="47.45256" lon="6.71282">
        <ele>482.2</ele>
        <time>2016-12-30T09:59:00.999Z</time>
      </trkpt>
      <trkpt lat="47.45258" lon="6.71285">
        <ele>482.2</ele>
        <time>2016-12-30T09:59:01.999Z</time>
      </trkpt>
      <trkpt lat="47.4526" lon="6.71289">
        <ele>482.3</ele>
        <time>2016-12-30T09:59:02.999Z</time>
      </trkpt>
      <trkpt lat="47.45261" lon="6.71293">
        <ele>482.4</ele>
        <time>2016-12-30T09:59:03.999Z</time>
      </trkpt>
      <trkpt lat="47.45262" lon="6.71296">
        <ele>482.5</ele>
        <time>2016-12-30T09:59:04.999Z</time>
      </trkpt>
      <trkpt lat="47.45263" lon="6.71301">
        <ele>482.6</ele>
        <time>2016-12-30T09:59:05.999Z</time>
      </trkpt>
      <trkpt lat="47.45263" lon="6.71305">
        <ele>482.7</ele>
        <time>2016-12-30T09:59:06.999Z</time>
      </trkpt>
      <trkpt lat="47.45263" lon="6.71309">
        <ele>482.8</ele>
        <time>2016-12-30T09:59:07.999Z</time>
      </trkpt>
      <trkpt lat="47.45264" lon="6.71312">
        <ele>482.9</ele>
        <time>2016-12-30T09:59:08.999Z</time>
      </trkpt>
      <trkpt lat="47.45264" lon="6.71316">
        <ele>483</ele>
        <time>2016-12-30T09:59:09.999Z</time>
      </trkpt>
      <trkpt lat="47.45265" lon="6.7132">
        <ele>483.2</ele>
        <time>2016-12-30T09:59:10.999Z</time>
      </trkpt>
      <trkpt lat="47.45267" lon="6.71325">
        <ele>483.5</ele>
        <time>2016-12-30T09:59:12.999Z</time>
      </trkpt>
      <trkpt lat="47.45268" lon="6.71328">
        <ele>483.7</ele>
        <time>2016-12-30T09:59:13.999Z</time>
      </trkpt>
      <trkpt lat="47.45268" lon="6.71332">
        <ele>484</ele>
        <time>2016-12-30T09:59:15.999Z</time>
      </trkpt>
      <trkpt lat="47.45269" lon="6.71335">
        <ele>484.1</ele>
        <time>2016-12-30T09:59:16.999Z</time>
      </trkpt>
      <trkpt lat="47.4527" lon="6.7134">
        <ele>484.4</ele>
        <time>2016-12-30T09:59:18.999Z</time>
      </trkpt>
      <trkpt lat="47.45271" lon="6.71343">
        <ele>484.6</ele>
        <time>2016-12-30T09:59:19.999Z</time>
      </trkpt>
      <trkpt lat="47.45272" lon="6.71347">
        <ele>485.3</ele>
        <time>2016-12-30T09:59:26.999Z</time>
      </trkpt>
      <trkpt lat="47.45273" lon="6.7135">
        <ele>485.5</ele>
        <time>2016-12-30T09:59:27.999Z</time>
      </trkpt>
      <trkpt lat="47.45273" lon="6.71353">
        <ele>485.6</ele>
        <time>2016-12-30T09:59:28.999Z</time>
      </trkpt>
      <trkpt lat="47.45275" lon="6.71358">
        <ele>485.7</ele>
        <time>2016-12-30T09:59:29.999Z</time>
      </trkpt>
      <trkpt lat="47.45276" lon="6.71363">
        <ele>485.7</ele>
        <time>2016-12-30T09:59:30.999Z</time>
      </trkpt>
      <trkpt lat="47.45277" lon="6.71367">
        <ele>485.8</ele>
        <time>2016-12-30T09:59:31.999Z</time>
      </trkpt>
      <trkpt lat="47.45278" lon="6.71372">
        <ele>485.8</ele>
        <time>2016-12-30T09:59:32.999Z</time>
      </trkpt>
      <trkpt lat="47.45279" lon="6.71376">
        <ele>485.9</ele>
        <time>2016-12-30T09:59:33.999Z</time>
      </trkpt>
      <trkpt lat="47.4528" lon="6.71379">
        <ele>486.1</ele>
        <time>2016-12-30T09:59:34.999Z</time>
      </trkpt>
      <trkpt lat="47.45281" lon="6.71383">
        <ele>486.2</ele>
        <time>2016-12-30T09:59:35.999Z</time>
      </trkpt>
      <trkpt lat="47.45283" lon="6.71386">
        <ele>486.2</ele>
        <time>2016-12-30T09:59:36.999Z</time>
      </trkpt>
      <trkpt lat="47.45284" lon="6.71389">
        <ele>486.4</ele>
        <time>2016-12-30T09:59:37.999Z</time>
      </trkpt>
      <trkpt lat="47.45285" lon="6.71392">
        <ele>486.5</ele>
        <time>2016-12-30T09:59:38.999Z</time>
      </trkpt>
      <trkpt lat="47.45286" lon="6.71395">
        <ele>486.6</ele>
        <time>2016-12-30T09:59:39.999Z</time>
      </trkpt>
      <trkpt lat="47.45288" lon="6.71399">
        <ele>486.7</ele>
        <time>2016-12-30T09:59:41.999Z</time>
      </trkpt>
      <trkpt lat="47.45288" lon="6.71401">
        <ele>486.8</ele>
        <time>2016-12-30T09:59:42.999Z</time>
      </trkpt>
      <trkpt lat="47.45289" lon="6.71408">
        <ele>486.7</ele>
        <time>2016-12-30T09:59:44.999Z</time>
      </trkpt>
      <trkpt lat="47.45289" lon="6.71412">
        <ele>486.6</ele>
        <time>2016-12-30T09:59:45.999Z</time>
      </trkpt>
      <trkpt lat="47.4529" lon="6.71416">
        <ele>486.6</ele>
        <time>2016-12-30T09:59:46.999Z</time>
      </trkpt>
      <trkpt lat="47.4529" lon="6.71419">
        <ele>486.6</ele>
        <time>2016-12-30T09:59:47.999Z</time>
      </trkpt>
      <trkpt lat="47.4529" lon="6.71423">
        <ele>486.7</ele>
        <time>2016-12-30T09:59:48.999Z</time>
      </trkpt>
      <trkpt lat="47.45291" lon="6.71427">
        <ele>486.7</ele>
        <time>2016-12-30T09:59:49.999Z</time>
      </trkpt>
      <trkpt lat="47.45293" lon="6.71433">
        <ele>486.7</ele>
        <time>2016-12-30T09:59:51.999Z</time>
      </trkpt>
      <trkpt lat="47.45293" lon="6.71437">
        <ele>486.7</ele>
        <time>2016-12-30T09:59:52.999Z</time>
      </trkpt>
      <trkpt lat="47.45294" lon="6.71441">
        <ele>486.7</ele>
        <time>2016-12-30T09:59:53.999Z</time>
      </trkpt>
      <trkpt lat="47.45295" lon="6.71443">
        <ele>486.6</ele>
        <time>2016-12-30T09:59:54.999Z</time>
      </trkpt>
      <trkpt lat="47.45297" lon="6.71448">
        <ele>486.4</ele>
        <time>2016-12-30T09:59:56.999Z</time>
      </trkpt>
      <trkpt lat="47.45298" lon="6.71451">
        <ele>486.4</ele>
        <time>2016-12-30T09:59:57.999Z</time>
      </trkpt>
      <trkpt lat="47.45298" lon="6.71456">
        <ele>486.4</ele>
        <time>2016-12-30T09:59:59.999Z</time>
      </trkpt>
      <trkpt lat="47.45298" lon="6.71459">
        <ele>486.4</ele>
        <time>2016-12-30T10:00:00.999Z</time>
      </trkpt>
      <trkpt lat="47.45299" lon="6.71463">
        <ele>486.3</ele>
        <time>2016-12-30T10:00:02.999Z</time>
      </trkpt>
      <trkpt lat="47.453" lon="6.71466">
        <ele>486.3</ele>
        <time>2016-12-30T10:00:03.999Z</time>
      </trkpt>
      <trkpt lat="47.45301" lon="6.71468">
        <ele>486.4</ele>
        <time>2016-12-30T10:00:04.999Z</time>
      </trkpt>
      <trkpt lat="47.45303" lon="6.71471">
        <ele>486.4</ele>
        <time>2016-12-30T10:00:05.999Z</time>
      </trkpt>
      <trkpt lat="47.45306" lon="6.71476">
        <ele>486.4</ele>
        <time>2016-12-30T10:00:06.999Z</time>
      </trkpt>
      <trkpt lat="47.45309" lon="6.71482">
        <ele>486.5</ele>
        <time>2016-12-30T10:00:07.999Z</time>
      </trkpt>
      <trkpt lat="47.45311" lon="6.71487">
        <ele>486.6</ele>
        <time>2016-12-30T10:00:08.999Z</time>
      </trkpt>
      <trkpt lat="47.45313" lon="6.71492">
        <ele>486.8</ele>
        <time>2016-12-30T10:00:09.999Z</time>
      </trkpt>
      <trkpt lat="47.45314" lon="6.71495">
        <ele>487</ele>
        <time>2016-12-30T10:00:10.999Z</time>
      </trkpt>
      <trkpt lat="47.45315" lon="6.71498">
        <ele>487.2</ele>
        <time>2016-12-30T10:00:11.999Z</time>
      </trkpt>
      <trkpt lat="47.45316" lon="6.71503">
        <ele>487.5</ele>
        <time>2016-12-30T10:00:13.999Z</time>
      </trkpt>
      <trkpt lat="47.45317" lon="6.71506">
        <ele>487.8</ele>
        <time>2016-12-30T10:00:14.999Z</time>
      </trkpt>
      <trkpt lat="47.45318" lon="6.71511">
        <ele>488.2</ele>
        <time>2016-12-30T10:00:16.999Z</time>
      </trkpt>
      <trkpt lat="47.45319" lon="6.71515">
        <ele>488.4</ele>
        <time>2016-12-30T10:00:17.999Z</time>
      </trkpt>
      <trkpt lat="47.45319" lon="6.71519">
        <ele>488.6</ele>
        <time>2016-12-30T10:00:18.999Z</time>
      </trkpt>
      <trkpt lat="47.4532" lon="6.71523">
        <ele>488.8</ele>
        <time>2016-12-30T10:00:19.999Z</time>
      </trkpt>
      <trkpt lat="47.45321" lon="6.71527">
        <ele>489</ele>
        <time>2016-12-30T10:00:20.999Z</time>
      </trkpt>
      <trkpt lat="47.45322" lon="6.7153">
        <ele>489.2</ele>
        <time>2016-12-30T10:00:21.999Z</time>
      </trkpt>
      <trkpt lat="47.45323" lon="6.71535">
        <ele>489.6</ele>
        <time>2016-12-30T10:00:23.999Z</time>
      </trkpt>
      <trkpt lat="47.45324" lon="6.71537">
        <ele>489.7</ele>
        <time>2016-12-30T10:00:24.999Z</time>
      </trkpt>
      <trkpt lat="47.45324" lon="6.71543">
        <ele>489.8</ele>
        <time>2016-12-30T10:00:26.999Z</time>
      </trkpt>
      <trkpt lat="47.45324" lon="6.71547">
        <ele>489.9</ele>
        <time>2016-12-30T10:00:27.999Z</time>
      </trkpt>
      <trkpt lat="47.45324" lon="6.71553">
        <ele>490</ele>
        <time>2016-12-30T10:00:29.999Z</time>
      </trkpt>
      <trkpt lat="47.45324" lon="6.71555">
        <ele>490.1</ele>
        <time>2016-12-30T10:00:30.999Z</time>
      </trkpt>
      <trkpt lat="47.45324" lon="6.71561">
        <ele>490.4</ele>
        <time>2016-12-30T10:00:32.999Z</time>
      </trkpt>
      <trkpt lat="47.45325" lon="6.71564">
        <ele>490.5</ele>
        <time>2016-12-30T10:00:33.999Z</time>
      </trkpt>
      <trkpt lat="47.45325" lon="6.71568">
        <ele>490.7</ele>
        <time>2016-12-30T10:00:34.999Z</time>
      </trkpt>
      <trkpt lat="47.45326" lon="6.71571">
        <ele>490.8</ele>
        <time>2016-12-30T10:00:35.999Z</time>
      </trkpt>
      <trkpt lat="47.45326" lon="6.71576">
        <ele>490.9</ele>
        <time>2016-12-30T10:00:37.999Z</time>
      </trkpt>
      <trkpt lat="47.45326" lon="6.7158">
        <ele>490.9</ele>
        <time>2016-12-30T10:00:38.999Z</time>
      </trkpt>
      <trkpt lat="47.45329" lon="6.71583">
        <ele>490.9</ele>
        <time>2016-12-30T10:00:40.999Z</time>
      </trkpt>
      <trkpt lat="47.45331" lon="6.71585">
        <ele>490.9</ele>
        <time>2016-12-30T10:00:41.999Z</time>
      </trkpt>
      <trkpt lat="47.45333" lon="6.71586">
        <ele>491</ele>
        <time>2016-12-30T10:00:42.999Z</time>
      </trkpt>
      <trkpt lat="47.45336" lon="6.71588">
        <ele>491</ele>
        <time>2016-12-30T10:00:43.999Z</time>
      </trkpt>
      <trkpt lat="47.4534" lon="6.7159">
        <ele>491.2</ele>
        <time>2016-12-30T10:00:45.999Z</time>
      </trkpt>
      <trkpt lat="47.45342" lon="6.71592">
        <ele>491.3</ele>
        <time>2016-12-30T10:00:46.999Z</time>
      </trkpt>
      <trkpt lat="47.45345" lon="6.71594">
        <ele>491.3</ele>
        <time>2016-12-30T10:00:47.999Z</time>
      </trkpt>
      <trkpt lat="47.45348" lon="6.71595">
        <ele>491.3</ele>
        <time>2016-12-30T10:00:48.999Z</time>
      </trkpt>
      <trkpt lat="47.45352" lon="6.71598">
        <ele>491.3</ele>
        <time>2016-12-30T10:00:49.999Z</time>
      </trkpt>
      <trkpt lat="47.45355" lon="6.71602">
        <ele>491.3</ele>
        <time>2016-12-30T10:00:50.999Z</time>
      </trkpt>
      <trkpt lat="47.45357" lon="6.71607">
        <ele>491.4</ele>
        <time>2016-12-30T10:00:51.999Z</time>
      </trkpt>
      <trkpt lat="47.45358" lon="6.71611">
        <ele>491.4</ele>
        <time>2016-12-30T10:00:52.999Z</time>
      </trkpt>
      <trkpt lat="47.4536" lon="6.71617">
        <ele>491.4</ele>
        <time>2016-12-30T10:00:53.999Z</time>
      </trkpt>
      <trkpt lat="47.45361" lon="6.71625">
        <ele>491.6</ele>
        <time>2016-12-30T10:00:54.999Z</time>
      </trkpt>
      <trkpt lat="47.45362" lon="6.71634">
        <ele>491.8</ele>
        <time>2016-12-30T10:00:55.999Z</time>
      </trkpt>
      <trkpt lat="47.45363" lon="6.71644">
        <ele>491.5</ele>
        <time>2016-12-30T10:00:56.999Z</time>
      </trkpt>
      <trkpt lat="47.45365" lon="6.71655">
        <ele>490.7</ele>
        <time>2016-12-30T10:00:57.999Z</time>
      </trkpt>
      <trkpt lat="47.45366" lon="6.71663">
        <ele>490.3</ele>
        <time>2016-12-30T10:00:58.999Z</time>
      </trkpt>
      <trkpt lat="47.45368" lon="6.7167">
        <ele>489.7</ele>
        <time>2016-12-30T10:00:59.999Z</time>
      </trkpt>
      <trkpt lat="47.4537" lon="6.71674">
        <ele>489.4</ele>
        <time>2016-12-30T10:01:00.999Z</time>
      </trkpt>
      <trkpt lat="47.45372" lon="6.7168">
        <ele>489.2</ele>
        <time>2016-12-30T10:01:01.999Z</time>
      </trkpt>
      <trkpt lat="47.45374" lon="6.71687">
        <ele>488.9</ele>
        <time>2016-12-30T10:01:02.999Z</time>
      </trkpt>
      <trkpt lat="47.45376" lon="6.71697">
        <ele>488.6</ele>
        <time>2016-12-30T10:01:03.999Z</time>
      </trkpt>
      <trkpt lat="47.4538" lon="6.71702">
        <ele>488.1</ele>
        <time>2016-12-30T10:01:04.999Z</time>
      </trkpt>
      <trkpt lat="47.45385" lon="6.71709">
        <ele>487.6</ele>
        <time>2016-12-30T10:01:05.999Z</time>
      </trkpt>
      <trkpt lat="47.45389" lon="6.71717">
        <ele>487.6</ele>
        <time>2016-12-30T10:01:06.999Z</time>
      </trkpt>
      <trkpt lat="47.45393" lon="6.71727">
        <ele>487.5</ele>
        <time>2016-12-30T10:01:07.999Z</time>
      </trkpt>
      <trkpt lat="47.45395" lon="6.71738">
        <ele>487.2</ele>
        <time>2016-12-30T10:01:08.999Z</time>
      </trkpt>
      <trkpt lat="47.45396" lon="6.71745">
        <ele>487.2</ele>
        <time>2016-12-30T10:01:09.999Z</time>
      </trkpt>
      <trkpt lat="47.45399" lon="6.71754">
        <ele>486.7</ele>
        <time>2016-12-30T10:01:10.999Z</time>
      </trkpt>
      <trkpt lat="47.45401" lon="6.71764">
        <ele>485.9</ele>
        <time>2016-12-30T10:01:11.999Z</time>
      </trkpt>
      <trkpt lat="47.45405" lon="6.71772">
        <ele>484.8</ele>
        <time>2016-12-30T10:01:12.999Z</time>
      </trkpt>
      <trkpt lat="47.45408" lon="6.7178">
        <ele>483.8</ele>
        <time>2016-12-30T10:01:13.999Z</time>
      </trkpt>
      <trkpt lat="47.45412" lon="6.71787">
        <ele>483.2</ele>
        <time>2016-12-30T10:01:14.999Z</time>
      </trkpt>
      <trkpt lat="47.45418" lon="6.71795">
        <ele>482.2</ele>
        <time>2016-12-30T10:01:15.999Z</time>
      </trkpt>
      <trkpt lat="47.45424" lon="6.718">
        <ele>481</ele>
        <time>2016-12-30T10:01:16.999Z</time>
      </trkpt>
      <trkpt lat="47.45432" lon="6.71803">
        <ele>481</ele>
        <time>2016-12-30T10:01:17.999Z</time>
      </trkpt>
      <trkpt lat="47.45438" lon="6.71806">
        <ele>480.9</ele>
        <time>2016-12-30T10:01:18.999Z</time>
      </trkpt>
      <trkpt lat="47.45444" lon="6.71806">
        <ele>480.6</ele>
        <time>2016-12-30T10:01:19.999Z</time>
      </trkpt>
      <trkpt lat="47.4545" lon="6.71804">
        <ele>480.4</ele>
        <time>2016-12-30T10:01:20.999Z</time>
      </trkpt>
      <trkpt lat="47.45456" lon="6.71803">
        <ele>479.8</ele>
        <time>2016-12-30T10:01:21.999Z</time>
      </trkpt>
      <trkpt lat="47.45461" lon="6.71801">
        <ele>479.7</ele>
        <time>2016-12-30T10:01:22.999Z</time>
      </trkpt>
      <trkpt lat="47.45467" lon="6.71799">
        <ele>479.5</ele>
        <time>2016-12-30T10:01:23.999Z</time>
      </trkpt>
      <trkpt lat="47.45473" lon="6.71798">
        <ele>478.9</ele>
        <time>2016-12-30T10:01:24.999Z</time>
      </trkpt>
      <trkpt lat="47.45478" lon="6.71797">
        <ele>478.1</ele>
        <time>2016-12-30T10:01:25.999Z</time>
      </trkpt>
      <trkpt lat="47.45484" lon="6.71796">
        <ele>476.6</ele>
        <time>2016-12-30T10:01:26.999Z</time>
      </trkpt>
      <trkpt lat="47.4549" lon="6.71795">
        <ele>475.8</ele>
        <time>2016-12-30T10:01:27.999Z</time>
      </trkpt>
      <trkpt lat="47.45496" lon="6.71795">
        <ele>475</ele>
        <time>2016-12-30T10:01:28.999Z</time>
      </trkpt>
      <trkpt lat="47.45502" lon="6.71794">
        <ele>474.2</ele>
        <time>2016-12-30T10:01:29.999Z</time>
      </trkpt>
      <trkpt lat="47.45508" lon="6.71794">
        <ele>473.1</ele>
        <time>2016-12-30T10:01:30.999Z</time>
      </trkpt>
      <trkpt lat="47.45514" lon="6.71794">
        <ele>473.1</ele>
        <time>2016-12-30T10:01:31.999Z</time>
      </trkpt>
      <trkpt lat="47.45522" lon="6.71793">
        <ele>472.9</ele>
        <time>2016-12-30T10:01:32.999Z</time>
      </trkpt>
      <trkpt lat="47.45528" lon="6.71793">
        <ele>472.3</ele>
        <time>2016-12-30T10:01:33.999Z</time>
      </trkpt>
      <trkpt lat="47.45536" lon="6.71792">
        <ele>471.6</ele>
        <time>2016-12-30T10:01:34.999Z</time>
      </trkpt>
      <trkpt lat="47.45543" lon="6.71791">
        <ele>470.6</ele>
        <time>2016-12-30T10:01:35.999Z</time>
      </trkpt>
      <trkpt lat="47.45551" lon="6.7179">
        <ele>470.1</ele>
        <time>2016-12-30T10:01:36.999Z</time>
      </trkpt>
      <trkpt lat="47.45557" lon="6.71788">
        <ele>469.5</ele>
        <time>2016-12-30T10:01:37.999Z</time>
      </trkpt>
      <trkpt lat="47.45562" lon="6.71786">
        <ele>468.2</ele>
        <time>2016-12-30T10:01:38.999Z</time>
      </trkpt>
      <trkpt lat="47.45566" lon="6.71783">
        <ele>467.1</ele>
        <time>2016-12-30T10:01:39.999Z</time>
      </trkpt>
      <trkpt lat="47.45571" lon="6.7178">
        <ele>467</ele>
        <time>2016-12-30T10:01:40.999Z</time>
      </trkpt>
      <trkpt lat="47.45576" lon="6.71777">
        <ele>466.2</ele>
        <time>2016-12-30T10:01:41.999Z</time>
      </trkpt>
      <trkpt lat="47.4558" lon="6.71773">
        <ele>465.8</ele>
        <time>2016-12-30T10:01:42.999Z</time>
      </trkpt>
      <trkpt lat="47.45585" lon="6.71768">
        <ele>465.8</ele>
        <time>2016-12-30T10:01:43.999Z</time>
      </trkpt>
      <trkpt lat="47.45589" lon="6.71764">
        <ele>464.5</ele>
        <time>2016-12-30T10:01:44.999Z</time>
      </trkpt>
      <trkpt lat="47.45593" lon="6.71761">
        <ele>464.4</ele>
        <time>2016-12-30T10:01:45.999Z</time>
      </trkpt>
      <trkpt lat="47.45597" lon="6.71759">
        <ele>464.2</ele>
        <time>2016-12-30T10:01:46.999Z</time>
      </trkpt>
      <trkpt lat="47.45602" lon="6.71756">
        <ele>464.1</ele>
        <time>2016-12-30T10:01:47.999Z</time>
      </trkpt>
      <trkpt lat="47.45607" lon="6.71752">
        <ele>463.1</ele>
        <time>2016-12-30T10:01:48.999Z</time>
      </trkpt>
      <trkpt lat="47.45611" lon="6.71749">
        <ele>463</ele>
        <time>2016-12-30T10:01:49.999Z</time>
      </trkpt>
      <trkpt lat="47.45615" lon="6.71747">
        <ele>462.9</ele>
        <time>2016-12-30T10:01:50.999Z</time>
      </trkpt>
      <trkpt lat="47.4562" lon="6.71743">
        <ele>462.1</ele>
        <time>2016-12-30T10:01:51.999Z</time>
      </trkpt>
      <trkpt lat="47.45625" lon="6.71739">
        <ele>461.5</ele>
        <time>2016-12-30T10:01:52.999Z</time>
      </trkpt>
      <trkpt lat="47.45629" lon="6.71736">
        <ele>461.4</ele>
        <time>2016-12-30T10:01:53.999Z</time>
      </trkpt>
      <trkpt lat="47.45633" lon="6.71732">
        <ele>461.3</ele>
        <time>2016-12-30T10:01:54.999Z</time>
      </trkpt>
      <trkpt lat="47.45638" lon="6.71729">
        <ele>461.3</ele>
        <time>2016-12-30T10:01:55.999Z</time>
      </trkpt>
      <trkpt lat="47.45642" lon="6.71726">
        <ele>460.7</ele>
        <time>2016-12-30T10:01:56.999Z</time>
      </trkpt>
      <trkpt lat="47.45645" lon="6.71724">
        <ele>460.6</ele>
        <time>2016-12-30T10:01:57.999Z</time>
      </trkpt>
      <trkpt lat="47.45649" lon="6.7172">
        <ele>460.4</ele>
        <time>2016-12-30T10:01:58.999Z</time>
      </trkpt>
      <trkpt lat="47.45652" lon="6.71716">
        <ele>460.4</ele>
        <time>2016-12-30T10:01:59.999Z</time>
      </trkpt>
      <trkpt lat="47.45655" lon="6.71713">
        <ele>460.5</ele>
        <time>2016-12-30T10:02:00.999Z</time>
      </trkpt>
      <trkpt lat="47.45658" lon="6.71711">
        <ele>460.5</ele>
        <time>2016-12-30T10:02:01.999Z</time>
      </trkpt>
      <trkpt lat="47.45662" lon="6.71708">
        <ele>460.5</ele>
        <time>2016-12-30T10:02:02.999Z</time>
      </trkpt>
      <trkpt lat="47.45665" lon="6.71705">
        <ele>460.5</ele>
        <time>2016-12-30T10:02:03.999Z</time>
      </trkpt>
      <trkpt lat="47.45668" lon="6.71702">
        <ele>460.6</ele>
        <time>2016-12-30T10:02:04.999Z</time>
      </trkpt>
      <trkpt lat="47.45672" lon="6.717">
        <ele>460.7</ele>
        <time>2016-12-30T10:02:05.999Z</time>
      </trkpt>
      <trkpt lat="47.45676" lon="6.71698">
        <ele>460.7</ele>
        <time>2016-12-30T10:02:06.999Z</time>
      </trkpt>
      <trkpt lat="47.4568" lon="6.71697">
        <ele>460.8</ele>
        <time>2016-12-30T10:02:07.999Z</time>
      </trkpt>
      <trkpt lat="47.45684" lon="6.71694">
        <ele>460.9</ele>
        <time>2016-12-30T10:02:08.999Z</time>
      </trkpt>
      <trkpt lat="47.45689" lon="6.71692">
        <ele>461.1</ele>
        <time>2016-12-30T10:02:09.999Z</time>
      </trkpt>
      <trkpt lat="47.45692" lon="6.71689">
        <ele>461.2</ele>
        <time>2016-12-30T10:02:10.999Z</time>
      </trkpt>
      <trkpt lat="47.45696" lon="6.71687">
        <ele>462.9</ele>
        <time>2016-12-30T10:02:11.999Z</time>
      </trkpt>
      <trkpt lat="47.45701" lon="6.71684">
        <ele>463</ele>
        <time>2016-12-30T10:02:12.999Z</time>
      </trkpt>
      <trkpt lat="47.45705" lon="6.71682">
        <ele>463.1</ele>
        <time>2016-12-30T10:02:13.999Z</time>
      </trkpt>
      <trkpt lat="47.45709" lon="6.71679">
        <ele>463.9</ele>
        <time>2016-12-30T10:02:14.999Z</time>
      </trkpt>
      <trkpt lat="47.45713" lon="6.71677">
        <ele>465</ele>
        <time>2016-12-30T10:02:15.999Z</time>
      </trkpt>
      <trkpt lat="47.45716" lon="6.71674">
        <ele>465.1</ele>
        <time>2016-12-30T10:02:16.999Z</time>
      </trkpt>
      <trkpt lat="47.45721" lon="6.71671">
        <ele>466.3</ele>
        <time>2016-12-30T10:02:17.999Z</time>
      </trkpt>
      <trkpt lat="47.45726" lon="6.71667">
        <ele>467.4</ele>
        <time>2016-12-30T10:02:18.999Z</time>
      </trkpt>
      <trkpt lat="47.45731" lon="6.71663">
        <ele>468</ele>
        <time>2016-12-30T10:02:19.999Z</time>
      </trkpt>
      <trkpt lat="47.45735" lon="6.71661">
        <ele>468.1</ele>
        <time>2016-12-30T10:02:20.999Z</time>
      </trkpt>
      <trkpt lat="47.45738" lon="6.71658">
        <ele>468.3</ele>
        <time>2016-12-30T10:02:21.999Z</time>
      </trkpt>
      <trkpt lat="47.45741" lon="6.71656">
        <ele>468.4</ele>
        <time>2016-12-30T10:02:22.999Z</time>
      </trkpt>
      <trkpt lat="47.45744" lon="6.71653">
        <ele>468.5</ele>
        <time>2016-12-30T10:02:23.999Z</time>
      </trkpt>
      <trkpt lat="47.45748" lon="6.7165">
        <ele>468.5</ele>
        <time>2016-12-30T10:02:24.999Z</time>
      </trkpt>
      <trkpt lat="47.45751" lon="6.71648">
        <ele>468.6</ele>
        <time>2016-12-30T10:02:25.999Z</time>
      </trkpt>
      <trkpt lat="47.45755" lon="6.71646">
        <ele>468.7</ele>
        <time>2016-12-30T10:02:26.999Z</time>
      </trkpt>
      <trkpt lat="47.45758" lon="6.71646">
        <ele>468.7</ele>
        <time>2016-12-30T10:02:27.999Z</time>
      </trkpt>
      <trkpt lat="47.45761" lon="6.71645">
        <ele>468.7</ele>
        <time>2016-12-30T10:02:28.999Z</time>
      </trkpt>
      <trkpt lat="47.45765" lon="6.71643">
        <ele>468.7</ele>
        <time>2016-12-30T10:02:29.999Z</time>
      </trkpt>
      <trkpt lat="47.45769" lon="6.7164">
        <ele>468.7</ele>
        <time>2016-12-30T10:02:30.999Z</time>
      </trkpt>
      <trkpt lat="47.45773" lon="6.71636">
        <ele>468.7</ele>
        <time>2016-12-30T10:02:31.999Z</time>
      </trkpt>
      <trkpt lat="47.45777" lon="6.71633">
        <ele>468.7</ele>
        <time>2016-12-30T10:02:32.999Z</time>
      </trkpt>
      <trkpt lat="47.4578" lon="6.7163">
        <ele>468.7</ele>
        <time>2016-12-30T10:02:33.999Z</time>
      </trkpt>
      <trkpt lat="47.45784" lon="6.71627">
        <ele>469.4</ele>
        <time>2016-12-30T10:02:34.999Z</time>
      </trkpt>
      <trkpt lat="47.45788" lon="6.71624">
        <ele>469.4</ele>
        <time>2016-12-30T10:02:35.999Z</time>
      </trkpt>
      <trkpt lat="47.45792" lon="6.71622">
        <ele>469.2</ele>
        <time>2016-12-30T10:02:36.999Z</time>
      </trkpt>
      <trkpt lat="47.45796" lon="6.71619">
        <ele>468.4</ele>
        <time>2016-12-30T10:02:37.999Z</time>
      </trkpt>
      <trkpt lat="47.458" lon="6.71616">
        <ele>468.3</ele>
        <time>2016-12-30T10:02:38.999Z</time>
      </trkpt>
      <trkpt lat="47.45804" lon="6.71613">
        <ele>468.2</ele>
        <time>2016-12-30T10:02:39.999Z</time>
      </trkpt>
      <trkpt lat="47.45808" lon="6.7161">
        <ele>468.1</ele>
        <time>2016-12-30T10:02:40.999Z</time>
      </trkpt>
      <trkpt lat="47.45812" lon="6.71608">
        <ele>468.1</ele>
        <time>2016-12-30T10:02:41.999Z</time>
      </trkpt>
      <trkpt lat="47.45815" lon="6.71606">
        <ele>468</ele>
        <time>2016-12-30T10:02:42.999Z</time>
      </trkpt>
      <trkpt lat="47.4582" lon="6.71604">
        <ele>467.2</ele>
        <time>2016-12-30T10:02:43.999Z</time>
      </trkpt>
      <trkpt lat="47.45825" lon="6.716">
        <ele>466.8</ele>
        <time>2016-12-30T10:02:44.999Z</time>
      </trkpt>
      <trkpt lat="47.45831" lon="6.71597">
        <ele>466.4</ele>
        <time>2016-12-30T10:02:45.999Z</time>
      </trkpt>
      <trkpt lat="47.45835" lon="6.71595">
        <ele>466.3</ele>
        <time>2016-12-30T10:02:46.999Z</time>
      </trkpt>
      <trkpt lat="47.4584" lon="6.71593">
        <ele>466</ele>
        <time>2016-12-30T10:02:47.999Z</time>
      </trkpt>
      <trkpt lat="47.45845" lon="6.71592">
        <ele>465.6</ele>
        <time>2016-12-30T10:02:48.999Z</time>
      </trkpt>
      <trkpt lat="47.45851" lon="6.7159">
        <ele>464.8</ele>
        <time>2016-12-30T10:02:49.999Z</time>
      </trkpt>
      <trkpt lat="47.45858" lon="6.71589">
        <ele>464.8</ele>
        <time>2016-12-30T10:02:50.999Z</time>
      </trkpt>
      <trkpt lat="47.45864" lon="6.71588">
        <ele>464.7</ele>
        <time>2016-12-30T10:02:51.999Z</time>
      </trkpt>
      <trkpt lat="47.45871" lon="6.71587">
        <ele>464.5</ele>
        <time>2016-12-30T10:02:52.999Z</time>
      </trkpt>
      <trkpt lat="47.45878" lon="6.71585">
        <ele>464.2</ele>
        <time>2016-12-30T10:02:53.999Z</time>
      </trkpt>
      <trkpt lat="47.45883" lon="6.71583">
        <ele>464</ele>
        <time>2016-12-30T10:02:54.999Z</time>
      </trkpt>
      <trkpt lat="47.45888" lon="6.71581">
        <ele>463.3</ele>
        <time>2016-12-30T10:02:55.999Z</time>
      </trkpt>
      <trkpt lat="47.45894" lon="6.71579">
        <ele>462.8</ele>
        <time>2016-12-30T10:02:56.999Z</time>
      </trkpt>
      <trkpt lat="47.459" lon="6.71577">
        <ele>462</ele>
        <time>2016-12-30T10:02:57.999Z</time>
      </trkpt>
      <trkpt lat="47.45904" lon="6.71575">
        <ele>461.4</ele>
        <time>2016-12-30T10:02:58.999Z</time>
      </trkpt>
      <trkpt lat="47.45908" lon="6.71574">
        <ele>461.3</ele>
        <time>2016-12-30T10:02:59.999Z</time>
      </trkpt>
      <trkpt lat="47.45913" lon="6.71573">
        <ele>461.3</ele>
        <time>2016-12-30T10:03:00.999Z</time>
      </trkpt>
      <trkpt lat="47.45916" lon="6.71578">
        <ele>461.5</ele>
        <time>2016-12-30T10:03:03.999Z</time>
      </trkpt>
      <trkpt lat="47.45917" lon="6.7158">
        <ele>461.5</ele>
        <time>2016-12-30T10:03:04.999Z</time>
      </trkpt>
      <trkpt lat="47.45917" lon="6.71583">
        <ele>461.6</ele>
        <time>2016-12-30T10:03:05.999Z</time>
      </trkpt>
      <trkpt lat="47.45919" lon="6.71588">
        <ele>461.7</ele>
        <time>2016-12-30T10:03:06.999Z</time>
      </trkpt>
      <trkpt lat="47.45919" lon="6.71594">
        <ele>461.9</ele>
        <time>2016-12-30T10:03:08.999Z</time>
      </trkpt>
      <trkpt lat="47.45919" lon="6.71598">
        <ele>462</ele>
        <time>2016-12-30T10:03:09.999Z</time>
      </trkpt>
      <trkpt lat="47.4592" lon="6.71602">
        <ele>462.1</ele>
        <time>2016-12-30T10:03:10.999Z</time>
      </trkpt>
      <trkpt lat="47.4592" lon="6.71605">
        <ele>462.1</ele>
        <time>2016-12-30T10:03:11.999Z</time>
      </trkpt>
      <trkpt lat="47.45921" lon="6.7161">
        <ele>462.2</ele>
        <time>2016-12-30T10:03:12.999Z</time>
      </trkpt>
      <trkpt lat="47.45922" lon="6.71613">
        <ele>462.3</ele>
        <time>2016-12-30T10:03:13.999Z</time>
      </trkpt>
      <trkpt lat="47.45922" lon="6.71619">
        <ele>462.7</ele>
        <time>2016-12-30T10:03:18.999Z</time>
      </trkpt>
      <trkpt lat="47.45926" lon="6.7163">
        <ele>462.8</ele>
        <time>2016-12-30T10:03:19.999Z</time>
      </trkpt>
      <trkpt lat="47.45926" lon="6.7163">
        <ele>463.2</ele>
        <time>2016-12-30T10:03:23.999Z</time>
      </trkpt>
      <trkpt lat="47.45929" lon="6.71642">
        <ele>463.3</ele>
        <time>2016-12-30T10:03:24.999Z</time>
      </trkpt>
      <trkpt lat="47.45929" lon="6.71642">
        <ele>463.6</ele>
        <time>2016-12-30T10:03:26.999Z</time>
      </trkpt>
      <trkpt lat="47.45928" lon="6.71655">
        <ele>463.6</ele>
        <time>2016-12-30T10:03:27.999Z</time>
      </trkpt>
      <trkpt lat="47.45928" lon="6.71655">
        <ele>463.7</ele>
        <time>2016-12-30T10:03:28.999Z</time>
      </trkpt>
      <trkpt lat="47.45927" lon="6.71663">
        <ele>463.7</ele>
        <time>2016-12-30T10:03:29.999Z</time>
      </trkpt>
      <trkpt lat="47.45927" lon="6.71663">
        <ele>463.7</ele>
        <time>2016-12-30T10:03:30.999Z</time>
      </trkpt>
      <trkpt lat="47.45925" lon="6.7167">
        <ele>463.8</ele>
        <time>2016-12-30T10:03:31.999Z</time>
      </trkpt>
      <trkpt lat="47.45925" lon="6.71672">
        <ele>464.3</ele>
        <time>2016-12-30T10:03:36.999Z</time>
      </trkpt>
      <trkpt lat="47.45922" lon="6.71685">
        <ele>464.4</ele>
        <time>2016-12-30T10:03:37.999Z</time>
      </trkpt>
      <trkpt lat="47.45921" lon="6.71691">
        <ele>464.7</ele>
        <time>2016-12-30T10:03:39.999Z</time>
      </trkpt>
      <trkpt lat="47.4592" lon="6.71694">
        <ele>464.9</ele>
        <time>2016-12-30T10:03:40.999Z</time>
      </trkpt>
      <trkpt lat="47.4592" lon="6.71698">
        <ele>465.7</ele>
        <time>2016-12-30T10:03:45.999Z</time>
      </trkpt>
      <trkpt lat="47.45919" lon="6.71708">
        <ele>465.9</ele>
        <time>2016-12-30T10:03:46.999Z</time>
      </trkpt>
      <trkpt lat="47.4592" lon="6.71712">
        <ele>467.4</ele>
        <time>2016-12-30T10:03:53.999Z</time>
      </trkpt>
      <trkpt lat="47.45926" lon="6.71726">
        <ele>467.5</ele>
        <time>2016-12-30T10:03:54.999Z</time>
      </trkpt>
      <trkpt lat="47.45929" lon="6.7173">
        <ele>467.8</ele>
        <time>2016-12-30T10:03:56.999Z</time>
      </trkpt>
      <trkpt lat="47.45931" lon="6.71732">
        <ele>467.9</ele>
        <time>2016-12-30T10:03:57.999Z</time>
      </trkpt>
      <trkpt lat="47.45933" lon="6.71736">
        <ele>468.3</ele>
        <time>2016-12-30T10:04:03.999Z</time>
      </trkpt>
      <trkpt lat="47.45939" lon="6.71746">
        <ele>468.4</ele>
        <time>2016-12-30T10:04:04.999Z</time>
      </trkpt>
      <trkpt lat="47.4594" lon="6.71751">
        <ele>468.5</ele>
        <time>2016-12-30T10:04:05.999Z</time>
      </trkpt>
      <trkpt lat="47.4594" lon="6.71755">
        <ele>468.6</ele>
        <time>2016-12-30T10:04:06.999Z</time>
      </trkpt>
      <trkpt lat="47.4594" lon="6.71759">
        <ele>468.7</ele>
        <time>2016-12-30T10:04:07.999Z</time>
      </trkpt>
      <trkpt lat="47.4594" lon="6.71763">
        <ele>468.8</ele>
        <time>2016-12-30T10:04:08.999Z</time>
      </trkpt>
      <trkpt lat="47.4594" lon="6.7177">
        <ele>468.9</ele>
        <time>2016-12-30T10:04:10.999Z</time>
      </trkpt>
      <trkpt lat="47.45941" lon="6.71774">
        <ele>468.9</ele>
        <time>2016-12-30T10:04:11.999Z</time>
      </trkpt>
      <trkpt lat="47.45941" lon="6.71777">
        <ele>468.9</ele>
        <time>2016-12-30T10:04:12.999Z</time>
      </trkpt>
      <trkpt lat="47.45942" lon="6.71782">
        <ele>468.9</ele>
        <time>2016-12-30T10:04:13.999Z</time>
      </trkpt>
      <trkpt lat="47.45942" lon="6.71786">
        <ele>468.9</ele>
        <time>2016-12-30T10:04:14.999Z</time>
      </trkpt>
      <trkpt lat="47.45943" lon="6.71791">
        <ele>468.9</ele>
        <time>2016-12-30T10:04:15.999Z</time>
      </trkpt>
      <trkpt lat="47.45944" lon="6.71795">
        <ele>468.7</ele>
        <time>2016-12-30T10:04:16.999Z</time>
      </trkpt>
      <trkpt lat="47.45945" lon="6.718">
        <ele>468.5</ele>
        <time>2016-12-30T10:04:17.999Z</time>
      </trkpt>
      <trkpt lat="47.45945" lon="6.71806">
        <ele>468.3</ele>
        <time>2016-12-30T10:04:18.999Z</time>
      </trkpt>
      <trkpt lat="47.45946" lon="6.71811">
        <ele>468.1</ele>
        <time>2016-12-30T10:04:19.999Z</time>
      </trkpt>
      <trkpt lat="47.45946" lon="6.71818">
        <ele>467.8</ele>
        <time>2016-12-30T10:04:20.999Z</time>
      </trkpt>
      <trkpt lat="47.45946" lon="6.71824">
        <ele>467.6</ele>
        <time>2016-12-30T10:04:21.999Z</time>
      </trkpt>
      <trkpt lat="47.45946" lon="6.71829">
        <ele>467.4</ele>
        <time>2016-12-30T10:04:22.999Z</time>
      </trkpt>
      <trkpt lat="47.45946" lon="6.71832">
        <ele>466.8</ele>
        <time>2016-12-30T10:04:27.999Z</time>
      </trkpt>
      <trkpt lat="47.45944" lon="6.71847">
        <ele>466.8</ele>
        <time>2016-12-30T10:04:28.999Z</time>
      </trkpt>
      <trkpt lat="47.45944" lon="6.71847">
        <ele>467</ele>
        <time>2016-12-30T10:04:34.999Z</time>
      </trkpt>
      <trkpt lat="47.45944" lon="6.71866">
        <ele>467.1</ele>
        <time>2016-12-30T10:04:35.999Z</time>
      </trkpt>
      <trkpt lat="47.45947" lon="6.71892">
        <ele>467.2</ele>
        <time>2016-12-30T10:04:36.999Z</time>
      </trkpt>
      <trkpt lat="47.45947" lon="6.71892">
        <ele>467.3</ele>
        <time>2016-12-30T10:04:37.999Z</time>
      </trkpt>
      <trkpt lat="47.45948" lon="6.71915">
        <ele>467.5</ele>
        <time>2016-12-30T10:04:38.999Z</time>
      </trkpt>
      <trkpt lat="47.45948" lon="6.71915">
        <ele>467.8</ele>
        <time>2016-12-30T10:04:39.999Z</time>
      </trkpt>
      <trkpt lat="47.45947" lon="6.71929">
        <ele>468</ele>
        <time>2016-12-30T10:04:40.999Z</time>
      </trkpt>
      <trkpt lat="47.45947" lon="6.71929">
        <ele>468.4</ele>
        <time>2016-12-30T10:04:42.999Z</time>
      </trkpt>
      <trkpt lat="47.45943" lon="6.71944">
        <ele>468.6</ele>
        <time>2016-12-30T10:04:43.999Z</time>
      </trkpt>
      <trkpt lat="47.45943" lon="6.71944">
        <ele>469.2</ele>
        <time>2016-12-30T10:04:46.999Z</time>
      </trkpt>
      <trkpt lat="47.45942" lon="6.71959">
        <ele>469.4</ele>
        <time>2016-12-30T10:04:47.999Z</time>
      </trkpt>
      <trkpt lat="47.45942" lon="6.71959">
        <ele>470</ele>
        <time>2016-12-30T10:04:49.999Z</time>
      </trkpt>
      <trkpt lat="47.45942" lon="6.7197">
        <ele>470.4</ele>
        <time>2016-12-30T10:04:50.999Z</time>
      </trkpt>
      <trkpt lat="47.45943" lon="6.71976">
        <ele>471.5</ele>
        <time>2016-12-30T10:04:54.999Z</time>
      </trkpt>
      <trkpt lat="47.45944" lon="6.71977">
        <ele>471.8</ele>
        <time>2016-12-30T10:04:55.999Z</time>
      </trkpt>
      <trkpt lat="47.45945" lon="6.71983">
        <ele>472.5</ele>
        <time>2016-12-30T10:04:58.999Z</time>
      </trkpt>
      <trkpt lat="47.45945" lon="6.71987">
        <ele>472.6</ele>
        <time>2016-12-30T10:04:59.999Z</time>
      </trkpt>
      <trkpt lat="47.45945" lon="6.71991">
        <ele>473.4</ele>
        <time>2016-12-30T10:05:07.999Z</time>
      </trkpt>
      <trkpt lat="47.45947" lon="6.72012">
        <ele>473.4</ele>
        <time>2016-12-30T10:05:08.999Z</time>
      </trkpt>
      <trkpt lat="47.45948" lon="6.72017">
        <ele>472.6</ele>
        <time>2016-12-30T10:05:15.999Z</time>
      </trkpt>
      <trkpt lat="47.45953" lon="6.72034">
        <ele>472.6</ele>
        <time>2016-12-30T10:05:16.999Z</time>
      </trkpt>
      <trkpt lat="47.45953" lon="6.72034">
        <ele>472</ele>
        <time>2016-12-30T10:05:25.999Z</time>
      </trkpt>
      <trkpt lat="47.4597" lon="6.72052">
        <ele>471.9</ele>
        <time>2016-12-30T10:05:26.999Z</time>
      </trkpt>
      <trkpt lat="47.4597" lon="6.72052">
        <ele>471.6</ele>
        <time>2016-12-30T10:05:33.999Z</time>
      </trkpt>
      <trkpt lat="47.45978" lon="6.72078">
        <ele>471.5</ele>
        <time>2016-12-30T10:05:34.999Z</time>
      </trkpt>
      <trkpt lat="47.45978" lon="6.72078">
        <ele>471.2</ele>
        <time>2016-12-30T10:05:37.999Z</time>
      </trkpt>
      <trkpt lat="47.45983" lon="6.72098">
        <ele>471.1</ele>
        <time>2016-12-30T10:05:38.999Z</time>
      </trkpt>
      <trkpt lat="47.45983" lon="6.72098">
        <ele>471</ele>
        <time>2016-12-30T10:05:42.999Z</time>
      </trkpt>
      <trkpt lat="47.45985" lon="6.72118">
        <ele>471</ele>
        <time>2016-12-30T10:05:43.999Z</time>
      </trkpt>
      <trkpt lat="47.45985" lon="6.72118">
        <ele>471</ele>
        <time>2016-12-30T10:05:46.999Z</time>
      </trkpt>
      <trkpt lat="47.45987" lon="6.72141">
        <ele>471.1</ele>
        <time>2016-12-30T10:05:47.999Z</time>
      </trkpt>
      <trkpt lat="47.45987" lon="6.72141">
        <ele>471.5</ele>
        <time>2016-12-30T10:05:50.999Z</time>
      </trkpt>
      <trkpt lat="47.45987" lon="6.72156">
        <ele>471.7</ele>
        <time>2016-12-30T10:05:51.999Z</time>
      </trkpt>
      <trkpt lat="47.45987" lon="6.72156">
        <ele>471.8</ele>
        <time>2016-12-30T10:05:53.999Z</time>
      </trkpt>
      <trkpt lat="47.45988" lon="6.72165">
        <ele>471.9</ele>
        <time>2016-12-30T10:05:54.999Z</time>
      </trkpt>
      <trkpt lat="47.45988" lon="6.72165">
        <ele>472.1</ele>
        <time>2016-12-30T10:05:55.999Z</time>
      </trkpt>
      <trkpt lat="47.4599" lon="6.72175">
        <ele>472.3</ele>
        <time>2016-12-30T10:05:56.999Z</time>
      </trkpt>
      <trkpt lat="47.45991" lon="6.7218">
        <ele>473.5</ele>
        <time>2016-12-30T10:06:07.999Z</time>
      </trkpt>
      <trkpt lat="47.45992" lon="6.72196">
        <ele>473.5</ele>
        <time>2016-12-30T10:06:08.999Z</time>
      </trkpt>
      <trkpt lat="47.45993" lon="6.72201">
        <ele>473.4</ele>
        <time>2016-12-30T10:06:10.999Z</time>
      </trkpt>
      <trkpt lat="47.45993" lon="6.72204">
        <ele>473.2</ele>
        <time>2016-12-30T10:06:11.999Z</time>
      </trkpt>
      <trkpt lat="47.45993" lon="6.72209">
        <ele>472.2</ele>
        <time>2016-12-30T10:06:19.999Z</time>
      </trkpt>
      <trkpt lat="47.45995" lon="6.72224">
        <ele>472.1</ele>
        <time>2016-12-30T10:06:20.999Z</time>
      </trkpt>
      <trkpt lat="47.45995" lon="6.72224">
        <ele>473.2</ele>
        <time>2016-12-30T10:06:39.999Z</time>
      </trkpt>
      <trkpt lat="47.45993" lon="6.72233">
        <ele>473.2</ele>
        <time>2016-12-30T10:06:40.999Z</time>
      </trkpt>
      <trkpt lat="47.45993" lon="6.72233">
        <ele>474.5</ele>
        <time>2016-12-30T10:06:48.999Z</time>
      </trkpt>
      <trkpt lat="47.4599" lon="6.72248">
        <ele>474.7</ele>
        <time>2016-12-30T10:06:49.999Z</time>
      </trkpt>
      <trkpt lat="47.4599" lon="6.72248">
        <ele>475.2</ele>
        <time>2016-12-30T10:06:52.999Z</time>
      </trkpt>
      <trkpt lat="47.45987" lon="6.72256">
        <ele>475.2</ele>
        <time>2016-12-30T10:06:53.999Z</time>
      </trkpt>
      <trkpt lat="47.45987" lon="6.72256">
        <ele>476.3</ele>
        <time>2016-12-30T10:07:03.999Z</time>
      </trkpt>
      <trkpt lat="47.45981" lon="6.72257">
        <ele>476.5</ele>
        <time>2016-12-30T10:07:04.999Z</time>
      </trkpt>
      <trkpt lat="47.45981" lon="6.72257">
        <ele>477.8</ele>
        <time>2016-12-30T10:07:16.999Z</time>
      </trkpt>
      <trkpt lat="47.4597" lon="6.72258">
        <ele>477.9</ele>
        <time>2016-12-30T10:07:17.999Z</time>
      </trkpt>
      <trkpt lat="47.4597" lon="6.72258">
        <ele>478.4</ele>
        <time>2016-12-30T10:07:27.999Z</time>
      </trkpt>
      <trkpt lat="47.45962" lon="6.72255">
        <ele>478.4</ele>
        <time>2016-12-30T10:07:28.999Z</time>
      </trkpt>
      <trkpt lat="47.45962" lon="6.72255">
        <ele>478.2</ele>
        <time>2016-12-30T10:07:38.999Z</time>
      </trkpt>
      <trkpt lat="47.45954" lon="6.72259">
        <ele>478.1</ele>
        <time>2016-12-30T10:07:39.999Z</time>
      </trkpt>
      <trkpt lat="47.45954" lon="6.72262">
        <ele>476.1</ele>
        <time>2016-12-30T10:08:00.999Z</time>
      </trkpt>
      <trkpt lat="47.45953" lon="6.72266">
        <ele>476</ele>
        <time>2016-12-30T10:08:01.999Z</time>
      </trkpt>
      <trkpt lat="47.45953" lon="6.72271">
        <ele>475.9</ele>
        <time>2016-12-30T10:08:02.999Z</time>
      </trkpt>
      <trkpt lat="47.45951" lon="6.72279">
        <ele>476</ele>
        <time>2016-12-30T10:08:03.999Z</time>
      </trkpt>
      <trkpt lat="47.45948" lon="6.72282">
        <ele>475.9</ele>
        <time>2016-12-30T10:08:05.999Z</time>
      </trkpt>
      <trkpt lat="47.45947" lon="6.72282">
        <ele>475.9</ele>
        <time>2016-12-30T10:08:06.999Z</time>
      </trkpt>
      <trkpt lat="47.45943" lon="6.72281">
        <ele>475.6</ele>
        <time>2016-12-30T10:08:08.999Z</time>
      </trkpt>
      <trkpt lat="47.45936" lon="6.72282">
        <ele>475.7</ele>
        <time>2016-12-30T10:08:09.999Z</time>
      </trkpt>
      <trkpt lat="47.4593" lon="6.72283">
        <ele>475.8</ele>
        <time>2016-12-30T10:08:10.999Z</time>
      </trkpt>
      <trkpt lat="47.45926" lon="6.72285">
        <ele>476.4</ele>
        <time>2016-12-30T10:08:14.999Z</time>
      </trkpt>
      <trkpt lat="47.45926" lon="6.72287">
        <ele>476.5</ele>
        <time>2016-12-30T10:08:15.999Z</time>
      </trkpt>
      <trkpt lat="47.45925" lon="6.72293">
        <ele>476.8</ele>
        <time>2016-12-30T10:08:19.999Z</time>
      </trkpt>
      <trkpt lat="47.45924" lon="6.72293">
        <ele>476.9</ele>
        <time>2016-12-30T10:08:20.999Z</time>
      </trkpt>
      <trkpt lat="47.45923" lon="6.72299">
        <ele>477</ele>
        <time>2016-12-30T10:08:23.999Z</time>
      </trkpt>
      <trkpt lat="47.45922" lon="6.72301">
        <ele>476.9</ele>
        <time>2016-12-30T10:08:24.999Z</time>
      </trkpt>
      <trkpt lat="47.4592" lon="6.72307">
        <ele>477.2</ele>
        <time>2016-12-30T10:08:27.999Z</time>
      </trkpt>
      <trkpt lat="47.4592" lon="6.72309">
        <ele>477.2</ele>
        <time>2016-12-30T10:08:28.999Z</time>
      </trkpt>
      <trkpt lat="47.4592" lon="6.72314">
        <ele>477.6</ele>
        <time>2016-12-30T10:08:31.999Z</time>
      </trkpt>
      <trkpt lat="47.4592" lon="6.72316">
        <ele>477.7</ele>
        <time>2016-12-30T10:08:32.999Z</time>
      </trkpt>
      <trkpt lat="47.4592" lon="6.72323">
        <ele>477.9</ele>
        <time>2016-12-30T10:08:35.999Z</time>
      </trkpt>
      <trkpt lat="47.4592" lon="6.72324">
        <ele>477.9</ele>
        <time>2016-12-30T10:08:36.999Z</time>
      </trkpt>
      <trkpt lat="47.45922" lon="6.7233">
        <ele>478.3</ele>
        <time>2016-12-30T10:08:42.999Z</time>
      </trkpt>
      <trkpt lat="47.45921" lon="6.72331">
        <ele>478.3</ele>
        <time>2016-12-30T10:08:43.999Z</time>
      </trkpt>
      <trkpt lat="47.45921" lon="6.72337">
        <ele>477.6</ele>
        <time>2016-12-30T10:08:54.999Z</time>
      </trkpt>
      <trkpt lat="47.45921" lon="6.72338">
        <ele>477.7</ele>
        <time>2016-12-30T10:08:55.999Z</time>
      </trkpt>
      <trkpt lat="47.45924" lon="6.72343">
        <ele>478.1</ele>
        <time>2016-12-30T10:09:03.999Z</time>
      </trkpt>
      <trkpt lat="47.45924" lon="6.72344">
        <ele>478.2</ele>
        <time>2016-12-30T10:09:04.999Z</time>
      </trkpt>
      <trkpt lat="47.45924" lon="6.72349">
        <ele>478.3</ele>
        <time>2016-12-30T10:09:06.999Z</time>
      </trkpt>
      <trkpt lat="47.45925" lon="6.72351">
        <ele>478.4</ele>
        <time>2016-12-30T10:09:07.999Z</time>
      </trkpt>
      <trkpt lat="47.45926" lon="6.72357">
        <ele>478.4</ele>
        <time>2016-12-30T10:09:09.999Z</time>
      </trkpt>
      <trkpt lat="47.45927" lon="6.72359">
        <ele>478.5</ele>
        <time>2016-12-30T10:09:10.999Z</time>
      </trkpt>
      <trkpt lat="47.45929" lon="6.72363">
        <ele>478.5</ele>
        <time>2016-12-30T10:09:12.999Z</time>
      </trkpt>
      <trkpt lat="47.4593" lon="6.72367">
        <ele>478.6</ele>
        <time>2016-12-30T10:09:13.999Z</time>
      </trkpt>
      <trkpt lat="47.45931" lon="6.7237">
        <ele>478.8</ele>
        <time>2016-12-30T10:09:14.999Z</time>
      </trkpt>
      <trkpt lat="47.45932" lon="6.72373">
        <ele>478.9</ele>
        <time>2016-12-30T10:09:15.999Z</time>
      </trkpt>
      <trkpt lat="47.45933" lon="6.72379">
        <ele>479.5</ele>
        <time>2016-12-30T10:09:19.999Z</time>
      </trkpt>
      <trkpt lat="47.45933" lon="6.72381">
        <ele>479.5</ele>
        <time>2016-12-30T10:09:20.999Z</time>
      </trkpt>
      <trkpt lat="47.45936" lon="6.72386">
        <ele>479.6</ele>
        <time>2016-12-30T10:09:25.999Z</time>
      </trkpt>
      <trkpt lat="47.45937" lon="6.72387">
        <ele>479.6</ele>
        <time>2016-12-30T10:09:26.999Z</time>
      </trkpt>
      <trkpt lat="47.45939" lon="6.7239">
        <ele>479.5</ele>
        <time>2016-12-30T10:09:29.999Z</time>
      </trkpt>
      <trkpt lat="47.45941" lon="6.72392">
        <ele>479.4</ele>
        <time>2016-12-30T10:09:30.999Z</time>
      </trkpt>
      <trkpt lat="47.45942" lon="6.72394">
        <ele>479.3</ele>
        <time>2016-12-30T10:09:31.999Z</time>
      </trkpt>
      <trkpt lat="47.45945" lon="6.72396">
        <ele>479.2</ele>
        <time>2016-12-30T10:09:32.999Z</time>
      </trkpt>
      <trkpt lat="47.45948" lon="6.72398">
        <ele>479.1</ele>
        <time>2016-12-30T10:09:33.999Z</time>
      </trkpt>
      <trkpt lat="47.45951" lon="6.72399">
        <ele>479.1</ele>
        <time>2016-12-30T10:09:34.999Z</time>
      </trkpt>
      <trkpt lat="47.45952" lon="6.72401">
        <ele>479</ele>
        <time>2016-12-30T10:09:35.999Z</time>
      </trkpt>
      <trkpt lat="47.45954" lon="6.72403">
        <ele>479</ele>
        <time>2016-12-30T10:09:36.999Z</time>
      </trkpt>
      <trkpt lat="47.45956" lon="6.72405">
        <ele>479</ele>
        <time>2016-12-30T10:09:37.999Z</time>
      </trkpt>
      <trkpt lat="47.45958" lon="6.72406">
        <ele>478.9</ele>
        <time>2016-12-30T10:09:38.999Z</time>
      </trkpt>
      <trkpt lat="47.45961" lon="6.72409">
        <ele>478.9</ele>
        <time>2016-12-30T10:09:39.999Z</time>
      </trkpt>
      <trkpt lat="47.45963" lon="6.72413">
        <ele>478.8</ele>
        <time>2016-12-30T10:09:40.999Z</time>
      </trkpt>
      <trkpt lat="47.45966" lon="6.72417">
        <ele>478.8</ele>
        <time>2016-12-30T10:09:42.999Z</time>
      </trkpt>
      <trkpt lat="47.45967" lon="6.72419">
        <ele>478.9</ele>
        <time>2016-12-30T10:09:43.999Z</time>
      </trkpt>
      <trkpt lat="47.45967" lon="6.72422">
        <ele>479.1</ele>
        <time>2016-12-30T10:09:44.999Z</time>
      </trkpt>
      <trkpt lat="47.45966" lon="6.72428">
        <ele>479.2</ele>
        <time>2016-12-30T10:09:45.999Z</time>
      </trkpt>
      <trkpt lat="47.45964" lon="6.72432">
        <ele>479.5</ele>
        <time>2016-12-30T10:09:47.999Z</time>
      </trkpt>
      <trkpt lat="47.45963" lon="6.72435">
        <ele>479.6</ele>
        <time>2016-12-30T10:09:48.999Z</time>
      </trkpt>
      <trkpt lat="47.45961" lon="6.72438">
        <ele>479.7</ele>
        <time>2016-12-30T10:09:50.999Z</time>
      </trkpt>
      <trkpt lat="47.4596" lon="6.72441">
        <ele>479.8</ele>
        <time>2016-12-30T10:09:51.999Z</time>
      </trkpt>
      <trkpt lat="47.45959" lon="6.72444">
        <ele>479.8</ele>
        <time>2016-12-30T10:09:52.999Z</time>
      </trkpt>
      <trkpt lat="47.45958" lon="6.72448">
        <ele>479.8</ele>
        <time>2016-12-30T10:09:53.999Z</time>
      </trkpt>
      <trkpt lat="47.45957" lon="6.72453">
        <ele>479.9</ele>
        <time>2016-12-30T10:09:55.999Z</time>
      </trkpt>
      <trkpt lat="47.45957" lon="6.72455">
        <ele>480</ele>
        <time>2016-12-30T10:09:56.999Z</time>
      </trkpt>
      <trkpt lat="47.45957" lon="6.72459">
        <ele>480.1</ele>
        <time>2016-12-30T10:09:58.999Z</time>
      </trkpt>
      <trkpt lat="47.45957" lon="6.72461">
        <ele>480.1</ele>
        <time>2016-12-30T10:09:59.999Z</time>
      </trkpt>
      <trkpt lat="47.45957" lon="6.72466">
        <ele>480</ele>
        <time>2016-12-30T10:10:01.999Z</time>
      </trkpt>
      <trkpt lat="47.45956" lon="6.72469">
        <ele>480</ele>
        <time>2016-12-30T10:10:02.999Z</time>
      </trkpt>
      <trkpt lat="47.45954" lon="6.72473">
        <ele>480</ele>
        <time>2016-12-30T10:10:04.999Z</time>
      </trkpt>
      <trkpt lat="47.45953" lon="6.72475">
        <ele>480</ele>
        <time>2016-12-30T10:10:05.999Z</time>
      </trkpt>
      <trkpt lat="47.45953" lon="6.72479">
        <ele>480.7</ele>
        <time>2016-12-30T10:10:12.999Z</time>
      </trkpt>
      <trkpt lat="47.45955" lon="6.72482">
        <ele>480.7</ele>
        <time>2016-12-30T10:10:13.999Z</time>
      </trkpt>
      <trkpt lat="47.45957" lon="6.72486">
        <ele>480.8</ele>
        <time>2016-12-30T10:10:14.999Z</time>
      </trkpt>
      <trkpt lat="47.45957" lon="6.7249">
        <ele>480.8</ele>
        <time>2016-12-30T10:10:15.999Z</time>
      </trkpt>
      <trkpt lat="47.45959" lon="6.72496">
        <ele>481.4</ele>
        <time>2016-12-30T10:10:20.999Z</time>
      </trkpt>
      <trkpt lat="47.45959" lon="6.72498">
        <ele>481.4</ele>
        <time>2016-12-30T10:10:21.999Z</time>
      </trkpt>
      <trkpt lat="47.45958" lon="6.72504">
        <ele>481.3</ele>
        <time>2016-12-30T10:10:24.999Z</time>
      </trkpt>
      <trkpt lat="47.45957" lon="6.72508">
        <ele>481.4</ele>
        <time>2016-12-30T10:10:25.999Z</time>
      </trkpt>
      <trkpt lat="47.45958" lon="6.72512">
        <ele>481.6</ele>
        <time>2016-12-30T10:10:27.999Z</time>
      </trkpt>
      <trkpt lat="47.45959" lon="6.72514">
        <ele>481.7</ele>
        <time>2016-12-30T10:10:28.999Z</time>
      </trkpt>
      <trkpt lat="47.45961" lon="6.72517">
        <ele>481.7</ele>
        <time>2016-12-30T10:10:30.999Z</time>
      </trkpt>
      <trkpt lat="47.45962" lon="6.7252">
        <ele>481.7</ele>
        <time>2016-12-30T10:10:31.999Z</time>
      </trkpt>
      <trkpt lat="47.45965" lon="6.72524">
        <ele>481.7</ele>
        <time>2016-12-30T10:10:33.999Z</time>
      </trkpt>
      <trkpt lat="47.45966" lon="6.72526">
        <ele>481.6</ele>
        <time>2016-12-30T10:10:34.999Z</time>
      </trkpt>
      <trkpt lat="47.45969" lon="6.72528">
        <ele>481.7</ele>
        <time>2016-12-30T10:10:36.999Z</time>
      </trkpt>
      <trkpt lat="47.4597" lon="6.72529">
        <ele>481.7</ele>
        <time>2016-12-30T10:10:37.999Z</time>
      </trkpt>
      <trkpt lat="47.45974" lon="6.72527">
        <ele>481.6</ele>
        <time>2016-12-30T10:10:39.999Z</time>
      </trkpt>
      <trkpt lat="47.45977" lon="6.72525">
        <ele>481.6</ele>
        <time>2016-12-30T10:10:40.999Z</time>
      </trkpt>
      <trkpt lat="47.4598" lon="6.72525">
        <ele>481.6</ele>
        <time>2016-12-30T10:10:41.999Z</time>
      </trkpt>
      <trkpt lat="47.45983" lon="6.72525">
        <ele>481.5</ele>
        <time>2016-12-30T10:10:42.999Z</time>
      </trkpt>
      <trkpt lat="47.45986" lon="6.72525">
        <ele>481.5</ele>
        <time>2016-12-30T10:10:43.999Z</time>
      </trkpt>
      <trkpt lat="47.4599" lon="6.72526">
        <ele>481.5</ele>
        <time>2016-12-30T10:10:44.999Z</time>
      </trkpt>
      <trkpt lat="47.45993" lon="6.72526">
        <ele>481.4</ele>
        <time>2016-12-30T10:10:45.999Z</time>
      </trkpt>
      <trkpt lat="47.45994" lon="6.72526">
        <ele>481.4</ele>
        <time>2016-12-30T10:10:46.999Z</time>
      </trkpt>
      <trkpt lat="47.45997" lon="6.72526">
        <ele>481.4</ele>
        <time>2016-12-30T10:10:47.999Z</time>
      </trkpt>
      <trkpt lat="47.45999" lon="6.72527">
        <ele>481.4</ele>
        <time>2016-12-30T10:10:48.999Z</time>
      </trkpt>
      <trkpt lat="47.46001" lon="6.72528">
        <ele>481.4</ele>
        <time>2016-12-30T10:10:49.999Z</time>
      </trkpt>
      <trkpt lat="47.46003" lon="6.72529">
        <ele>481.4</ele>
        <time>2016-12-30T10:10:50.999Z</time>
      </trkpt>
      <trkpt lat="47.46005" lon="6.72532">
        <ele>481.5</ele>
        <time>2016-12-30T10:10:52.999Z</time>
      </trkpt>
      <trkpt lat="47.46007" lon="6.72534">
        <ele>481.5</ele>
        <time>2016-12-30T10:10:53.999Z</time>
      </trkpt>
      <trkpt lat="47.46009" lon="6.72538">
        <ele>481.7</ele>
        <time>2016-12-30T10:10:55.999Z</time>
      </trkpt>
      <trkpt lat="47.46011" lon="6.7254">
        <ele>481.7</ele>
        <time>2016-12-30T10:10:56.999Z</time>
      </trkpt>
      <trkpt lat="47.46014" lon="6.72543">
        <ele>481.9</ele>
        <time>2016-12-30T10:10:58.999Z</time>
      </trkpt>
      <trkpt lat="47.46015" lon="6.72545">
        <ele>481.9</ele>
        <time>2016-12-30T10:10:59.999Z</time>
      </trkpt>
      <trkpt lat="47.46018" lon="6.72549">
        <ele>482</ele>
        <time>2016-12-30T10:11:03.999Z</time>
      </trkpt>
      <trkpt lat="47.46019" lon="6.7255">
        <ele>482.1</ele>
        <time>2016-12-30T10:11:04.999Z</time>
      </trkpt>
      <trkpt lat="47.46021" lon="6.72555">
        <ele>482.5</ele>
        <time>2016-12-30T10:11:08.999Z</time>
      </trkpt>
      <trkpt lat="47.46022" lon="6.72556">
        <ele>482.6</ele>
        <time>2016-12-30T10:11:09.999Z</time>
      </trkpt>
      <trkpt lat="47.46025" lon="6.72559">
        <ele>483.1</ele>
        <time>2016-12-30T10:11:12.999Z</time>
      </trkpt>
      <trkpt lat="47.46026" lon="6.72561">
        <ele>483.2</ele>
        <time>2016-12-30T10:11:13.999Z</time>
      </trkpt>
      <trkpt lat="47.46028" lon="6.72563">
        <ele>483.4</ele>
        <time>2016-12-30T10:11:15.999Z</time>
      </trkpt>
      <trkpt lat="47.46029" lon="6.72565">
        <ele>483.5</ele>
        <time>2016-12-30T10:11:16.999Z</time>
      </trkpt>
      <trkpt lat="47.46032" lon="6.72569">
        <ele>483.5</ele>
        <time>2016-12-30T10:11:19.999Z</time>
      </trkpt>
      <trkpt lat="47.46033" lon="6.72572">
        <ele>483.6</ele>
        <time>2016-12-30T10:11:20.999Z</time>
      </trkpt>
      <trkpt lat="47.46035" lon="6.72575">
        <ele>483.7</ele>
        <time>2016-12-30T10:11:22.999Z</time>
      </trkpt>
      <trkpt lat="47.46036" lon="6.72577">
        <ele>483.8</ele>
        <time>2016-12-30T10:11:23.999Z</time>
      </trkpt>
      <trkpt lat="47.46039" lon="6.72581">
        <ele>484.1</ele>
        <time>2016-12-30T10:11:25.999Z</time>
      </trkpt>
      <trkpt lat="47.46041" lon="6.72583">
        <ele>484.2</ele>
        <time>2016-12-30T10:11:26.999Z</time>
      </trkpt>
      <trkpt lat="47.46043" lon="6.72586">
        <ele>484.3</ele>
        <time>2016-12-30T10:11:27.999Z</time>
      </trkpt>
      <trkpt lat="47.46045" lon="6.72588">
        <ele>484.4</ele>
        <time>2016-12-30T10:11:28.999Z</time>
      </trkpt>
      <trkpt lat="47.46047" lon="6.7259">
        <ele>484.5</ele>
        <time>2016-12-30T10:11:29.999Z</time>
      </trkpt>
      <trkpt lat="47.4605" lon="6.72593">
        <ele>484.6</ele>
        <time>2016-12-30T10:11:30.999Z</time>
      </trkpt>
      <trkpt lat="47.46052" lon="6.72595">
        <ele>484.8</ele>
        <time>2016-12-30T10:11:31.999Z</time>
      </trkpt>
      <trkpt lat="47.46053" lon="6.72597">
        <ele>484.9</ele>
        <time>2016-12-30T10:11:32.999Z</time>
      </trkpt>
      <trkpt lat="47.46055" lon="6.726">
        <ele>485</ele>
        <time>2016-12-30T10:11:33.999Z</time>
      </trkpt>
      <trkpt lat="47.46057" lon="6.72602">
        <ele>485.1</ele>
        <time>2016-12-30T10:11:34.999Z</time>
      </trkpt>
      <trkpt lat="47.46059" lon="6.72604">
        <ele>485.2</ele>
        <time>2016-12-30T10:11:35.999Z</time>
      </trkpt>
      <trkpt lat="47.46061" lon="6.72606">
        <ele>485.2</ele>
        <time>2016-12-30T10:11:36.999Z</time>
      </trkpt>
      <trkpt lat="47.46063" lon="6.72608">
        <ele>485.3</ele>
        <time>2016-12-30T10:11:37.999Z</time>
      </trkpt>
      <trkpt lat="47.46065" lon="6.72611">
        <ele>485.3</ele>
        <time>2016-12-30T10:11:38.999Z</time>
      </trkpt>
      <trkpt lat="47.46068" lon="6.72615">
        <ele>485.5</ele>
        <time>2016-12-30T10:11:40.999Z</time>
      </trkpt>
      <trkpt lat="47.46069" lon="6.72617">
        <ele>485.6</ele>
        <time>2016-12-30T10:11:41.999Z</time>
      </trkpt>
      <trkpt lat="47.46072" lon="6.7262">
        <ele>485.7</ele>
        <time>2016-12-30T10:11:43.999Z</time>
      </trkpt>
      <trkpt lat="47.46073" lon="6.72623">
        <ele>485.8</ele>
        <time>2016-12-30T10:11:44.999Z</time>
      </trkpt>
      <trkpt lat="47.46076" lon="6.72625">
        <ele>485.8</ele>
        <time>2016-12-30T10:11:45.999Z</time>
      </trkpt>
      <trkpt lat="47.46077" lon="6.72627">
        <ele>485.8</ele>
        <time>2016-12-30T10:11:46.999Z</time>
      </trkpt>
      <trkpt lat="47.46079" lon="6.72631">
        <ele>485.8</ele>
        <time>2016-12-30T10:11:48.999Z</time>
      </trkpt>
      <trkpt lat="47.46082" lon="6.72634">
        <ele>485.8</ele>
        <time>2016-12-30T10:11:49.999Z</time>
      </trkpt>
      <trkpt lat="47.46083" lon="6.72638">
        <ele>485.7</ele>
        <time>2016-12-30T10:11:50.999Z</time>
      </trkpt>
      <trkpt lat="47.46085" lon="6.72642">
        <ele>485.8</ele>
        <time>2016-12-30T10:11:51.999Z</time>
      </trkpt>
      <trkpt lat="47.46087" lon="6.72646">
        <ele>485.9</ele>
        <time>2016-12-30T10:11:52.999Z</time>
      </trkpt>
      <trkpt lat="47.46089" lon="6.72649">
        <ele>485.9</ele>
        <time>2016-12-30T10:11:53.999Z</time>
      </trkpt>
      <trkpt lat="47.46092" lon="6.72652">
        <ele>486</ele>
        <time>2016-12-30T10:11:54.999Z</time>
      </trkpt>
      <trkpt lat="47.46095" lon="6.72654">
        <ele>486.1</ele>
        <time>2016-12-30T10:11:55.999Z</time>
      </trkpt>
      <trkpt lat="47.46098" lon="6.72656">
        <ele>486.1</ele>
        <time>2016-12-30T10:11:56.999Z</time>
      </trkpt>
      <trkpt lat="47.461" lon="6.7266">
        <ele>486.2</ele>
        <time>2016-12-30T10:11:57.999Z</time>
      </trkpt>
      <trkpt lat="47.46102" lon="6.72663">
        <ele>486.3</ele>
        <time>2016-12-30T10:11:58.999Z</time>
      </trkpt>
      <trkpt lat="47.46104" lon="6.72665">
        <ele>486.4</ele>
        <time>2016-12-30T10:11:59.999Z</time>
      </trkpt>
      <trkpt lat="47.46107" lon="6.72668">
        <ele>486.4</ele>
        <time>2016-12-30T10:12:00.999Z</time>
      </trkpt>
      <trkpt lat="47.4611" lon="6.7267">
        <ele>486.5</ele>
        <time>2016-12-30T10:12:01.999Z</time>
      </trkpt>
      <trkpt lat="47.46113" lon="6.72674">
        <ele>486.5</ele>
        <time>2016-12-30T10:12:02.999Z</time>
      </trkpt>
      <trkpt lat="47.46115" lon="6.72678">
        <ele>486.5</ele>
        <time>2016-12-30T10:12:03.999Z</time>
      </trkpt>
      <trkpt lat="47.46118" lon="6.72682">
        <ele>486.6</ele>
        <time>2016-12-30T10:12:04.999Z</time>
      </trkpt>
      <trkpt lat="47.46121" lon="6.72686">
        <ele>486.6</ele>
        <time>2016-12-30T10:12:05.999Z</time>
      </trkpt>
      <trkpt lat="47.46123" lon="6.7269">
        <ele>486.7</ele>
        <time>2016-12-30T10:12:06.999Z</time>
      </trkpt>
      <trkpt lat="47.46125" lon="6.72693">
        <ele>486.8</ele>
        <time>2016-12-30T10:12:07.999Z</time>
      </trkpt>
      <trkpt lat="47.46128" lon="6.72696">
        <ele>486.8</ele>
        <time>2016-12-30T10:12:08.999Z</time>
      </trkpt>
      <trkpt lat="47.4613" lon="6.72698">
        <ele>486.9</ele>
        <time>2016-12-30T10:12:09.999Z</time>
      </trkpt>
      <trkpt lat="47.46132" lon="6.72701">
        <ele>486.9</ele>
        <time>2016-12-30T10:12:10.999Z</time>
      </trkpt>
      <trkpt lat="47.46133" lon="6.72703">
        <ele>486.9</ele>
        <time>2016-12-30T10:12:11.999Z</time>
      </trkpt>
      <trkpt lat="47.46136" lon="6.72706">
        <ele>486.9</ele>
        <time>2016-12-30T10:12:12.999Z</time>
      </trkpt>
      <trkpt lat="47.46138" lon="6.72709">
        <ele>486.9</ele>
        <time>2016-12-30T10:12:13.999Z</time>
      </trkpt>
      <trkpt lat="47.46141" lon="6.72712">
        <ele>486.9</ele>
        <time>2016-12-30T10:12:14.999Z</time>
      </trkpt>
      <trkpt lat="47.46144" lon="6.72716">
        <ele>486.9</ele>
        <time>2016-12-30T10:12:15.999Z</time>
      </trkpt>
      <trkpt lat="47.46146" lon="6.72719">
        <ele>486.9</ele>
        <time>2016-12-30T10:12:16.999Z</time>
      </trkpt>
      <trkpt lat="47.46148" lon="6.72722">
        <ele>486.9</ele>
        <time>2016-12-30T10:12:17.999Z</time>
      </trkpt>
      <trkpt lat="47.46151" lon="6.72725">
        <ele>487</ele>
        <time>2016-12-30T10:12:18.999Z</time>
      </trkpt>
      <trkpt lat="47.46154" lon="6.72728">
        <ele>487</ele>
        <time>2016-12-30T10:12:19.999Z</time>
      </trkpt>
      <trkpt lat="47.46157" lon="6.72732">
        <ele>487</ele>
        <time>2016-12-30T10:12:20.999Z</time>
      </trkpt>
      <trkpt lat="47.4616" lon="6.72735">
        <ele>487</ele>
        <time>2016-12-30T10:12:21.999Z</time>
      </trkpt>
      <trkpt lat="47.46163" lon="6.72739">
        <ele>486.9</ele>
        <time>2016-12-30T10:12:22.999Z</time>
      </trkpt>
      <trkpt lat="47.46165" lon="6.72742">
        <ele>486.9</ele>
        <time>2016-12-30T10:12:23.999Z</time>
      </trkpt>
      <trkpt lat="47.46168" lon="6.72744">
        <ele>486.8</ele>
        <time>2016-12-30T10:12:24.999Z</time>
      </trkpt>
      <trkpt lat="47.46171" lon="6.72746">
        <ele>486.8</ele>
        <time>2016-12-30T10:12:25.999Z</time>
      </trkpt>
      <trkpt lat="47.46173" lon="6.72748">
        <ele>486.7</ele>
        <time>2016-12-30T10:12:26.999Z</time>
      </trkpt>
      <trkpt lat="47.46175" lon="6.7275">
        <ele>486.7</ele>
        <time>2016-12-30T10:12:27.999Z</time>
      </trkpt>
      <trkpt lat="47.46178" lon="6.72754">
        <ele>486.7</ele>
        <time>2016-12-30T10:12:28.999Z</time>
      </trkpt>
      <trkpt lat="47.46181" lon="6.72757">
        <ele>486.7</ele>
        <time>2016-12-30T10:12:29.999Z</time>
      </trkpt>
      <trkpt lat="47.46184" lon="6.72761">
        <ele>486.7</ele>
        <time>2016-12-30T10:12:30.999Z</time>
      </trkpt>
      <trkpt lat="47.46187" lon="6.72766">
        <ele>486.7</ele>
        <time>2016-12-30T10:12:31.999Z</time>
      </trkpt>
      <trkpt lat="47.46191" lon="6.7277">
        <ele>486.8</ele>
        <time>2016-12-30T10:12:32.999Z</time>
      </trkpt>
      <trkpt lat="47.46193" lon="6.72774">
        <ele>486.8</ele>
        <time>2016-12-30T10:12:33.999Z</time>
      </trkpt>
      <trkpt lat="47.46195" lon="6.72779">
        <ele>486.8</ele>
        <time>2016-12-30T10:12:34.999Z</time>
      </trkpt>
      <trkpt lat="47.46197" lon="6.72784">
        <ele>486.8</ele>
        <time>2016-12-30T10:12:35.999Z</time>
      </trkpt>
      <trkpt lat="47.46199" lon="6.7279">
        <ele>486.8</ele>
        <time>2016-12-30T10:12:36.999Z</time>
      </trkpt>
      <trkpt lat="47.462" lon="6.72795">
        <ele>486.9</ele>
        <time>2016-12-30T10:12:37.999Z</time>
      </trkpt>
      <trkpt lat="47.46201" lon="6.728">
        <ele>486.9</ele>
        <time>2016-12-30T10:12:38.999Z</time>
      </trkpt>
      <trkpt lat="47.46202" lon="6.72805">
        <ele>487</ele>
        <time>2016-12-30T10:12:39.999Z</time>
      </trkpt>
      <trkpt lat="47.46204" lon="6.72809">
        <ele>487</ele>
        <time>2016-12-30T10:12:40.999Z</time>
      </trkpt>
      <trkpt lat="47.46205" lon="6.72814">
        <ele>487</ele>
        <time>2016-12-30T10:12:41.999Z</time>
      </trkpt>
      <trkpt lat="47.46207" lon="6.72819">
        <ele>487</ele>
        <time>2016-12-30T10:12:42.999Z</time>
      </trkpt>
      <trkpt lat="47.46208" lon="6.72825">
        <ele>487</ele>
        <time>2016-12-30T10:12:43.999Z</time>
      </trkpt>
      <trkpt lat="47.46209" lon="6.72829">
        <ele>486.9</ele>
        <time>2016-12-30T10:12:44.999Z</time>
      </trkpt>
      <trkpt lat="47.4621" lon="6.72834">
        <ele>486.9</ele>
        <time>2016-12-30T10:12:45.999Z</time>
      </trkpt>
      <trkpt lat="47.46211" lon="6.72839">
        <ele>486.8</ele>
        <time>2016-12-30T10:12:46.999Z</time>
      </trkpt>
      <trkpt lat="47.46213" lon="6.72844">
        <ele>486.8</ele>
        <time>2016-12-30T10:12:47.999Z</time>
      </trkpt>
      <trkpt lat="47.46214" lon="6.72849">
        <ele>486.8</ele>
        <time>2016-12-30T10:12:48.999Z</time>
      </trkpt>
      <trkpt lat="47.46214" lon="6.72853">
        <ele>486.8</ele>
        <time>2016-12-30T10:12:49.999Z</time>
      </trkpt>
      <trkpt lat="47.46215" lon="6.72859">
        <ele>486.8</ele>
        <time>2016-12-30T10:12:50.999Z</time>
      </trkpt>
      <trkpt lat="47.46216" lon="6.72865">
        <ele>486.8</ele>
        <time>2016-12-30T10:12:51.999Z</time>
      </trkpt>
      <trkpt lat="47.46216" lon="6.7287">
        <ele>486.7</ele>
        <time>2016-12-30T10:12:52.999Z</time>
      </trkpt>
      <trkpt lat="47.46217" lon="6.72874">
        <ele>486.6</ele>
        <time>2016-12-30T10:12:53.999Z</time>
      </trkpt>
      <trkpt lat="47.46217" lon="6.7288">
        <ele>486.6</ele>
        <time>2016-12-30T10:12:54.999Z</time>
      </trkpt>
      <trkpt lat="47.46218" lon="6.72885">
        <ele>486.6</ele>
        <time>2016-12-30T10:12:55.999Z</time>
      </trkpt>
      <trkpt lat="47.46218" lon="6.7289">
        <ele>486.5</ele>
        <time>2016-12-30T10:12:56.999Z</time>
      </trkpt>
      <trkpt lat="47.46219" lon="6.72893">
        <ele>486.5</ele>
        <time>2016-12-30T10:12:57.999Z</time>
      </trkpt>
      <trkpt lat="47.46219" lon="6.72897">
        <ele>486.5</ele>
        <time>2016-12-30T10:12:58.999Z</time>
      </trkpt>
      <trkpt lat="47.4622" lon="6.72901">
        <ele>486.5</ele>
        <time>2016-12-30T10:12:59.999Z</time>
      </trkpt>
      <trkpt lat="47.46221" lon="6.72904">
        <ele>486.5</ele>
        <time>2016-12-30T10:13:00.999Z</time>
      </trkpt>
      <trkpt lat="47.46222" lon="6.72908">
        <ele>486.5</ele>
        <time>2016-12-30T10:13:01.999Z</time>
      </trkpt>
      <trkpt lat="47.46224" lon="6.72913">
        <ele>486.6</ele>
        <time>2016-12-30T10:13:02.999Z</time>
      </trkpt>
      <trkpt lat="47.46227" lon="6.72916">
        <ele>486.6</ele>
        <time>2016-12-30T10:13:03.999Z</time>
      </trkpt>
      <trkpt lat="47.46229" lon="6.72916">
        <ele>487</ele>
        <time>2016-12-30T10:13:04.999Z</time>
      </trkpt>
      <trkpt lat="47.46234" lon="6.72914">
        <ele>487.5</ele>
        <time>2016-12-30T10:13:05.999Z</time>
      </trkpt>
      <trkpt lat="47.46239" lon="6.72911">
        <ele>486.7</ele>
        <time>2016-12-30T10:13:06.999Z</time>
      </trkpt>
      <trkpt lat="47.46243" lon="6.72908">
        <ele>486.1</ele>
        <time>2016-12-30T10:13:07.999Z</time>
      </trkpt>
      <trkpt lat="47.46246" lon="6.72905">
        <ele>485.1</ele>
        <time>2016-12-30T10:13:08.999Z</time>
      </trkpt>
      <trkpt lat="47.46245" lon="6.72898">
        <ele>485.5</ele>
        <time>2016-12-30T10:13:21.999Z</time>
      </trkpt>
      <trkpt lat="47.46245" lon="6.72897">
        <ele>485.5</ele>
        <time>2016-12-30T10:13:22.999Z</time>
      </trkpt>
      <trkpt lat="47.46249" lon="6.72895">
        <ele>485.7</ele>
        <time>2016-12-30T10:14:13.999Z</time>
      </trkpt>
      <trkpt lat="47.46249" lon="6.72894">
        <ele>485.7</ele>
        <time>2016-12-30T10:14:14.999Z</time>
      </trkpt>
      <trkpt lat="47.46246" lon="6.72898">
        <ele>486.5</ele>
        <time>2016-12-30T10:14:23.999Z</time>
      </trkpt>
      <trkpt lat="47.46246" lon="6.72899">
        <ele>486.5</ele>
        <time>2016-12-30T10:14:24.999Z</time>
      </trkpt>
      <trkpt lat="47.46243" lon="6.72903">
        <ele>488</ele>
        <time>2016-12-30T10:14:28.999Z</time>
      </trkpt>
      <trkpt lat="47.46242" lon="6.72904">
        <ele>488.1</ele>
        <time>2016-12-30T10:14:29.999Z</time>
      </trkpt>
      <trkpt lat="47.46239" lon="6.72904">
        <ele>488.1</ele>
        <time>2016-12-30T10:14:31.999Z</time>
      </trkpt>
      <trkpt lat="47.46237" lon="6.72904">
        <ele>488.3</ele>
        <time>2016-12-30T10:14:32.999Z</time>
      </trkpt>
      <trkpt lat="47.46235" lon="6.72899">
        <ele>489.3</ele>
        <time>2016-12-30T10:14:39.999Z</time>
      </trkpt>
      <trkpt lat="47.46235" lon="6.72898">
        <ele>489.3</ele>
        <time>2016-12-30T10:14:40.999Z</time>
      </trkpt>
      <trkpt lat="47.46239" lon="6.72895">
        <ele>489.5</ele>
        <time>2016-12-30T10:14:44.999Z</time>
      </trkpt>
      <trkpt lat="47.4624" lon="6.72894">
        <ele>489.8</ele>
        <time>2016-12-30T10:14:45.999Z</time>
      </trkpt>
      <trkpt lat="47.46244" lon="6.72894">
        <ele>489.8</ele>
        <time>2016-12-30T10:14:52.999Z</time>
      </trkpt>
      <trkpt lat="47.46244" lon="6.72893">
        <ele>489.8</ele>
        <time>2016-12-30T10:14:53.999Z</time>
      </trkpt>
      <trkpt lat="47.46248" lon="6.72897">
        <ele>490</ele>
        <time>2016-12-30T10:15:05.999Z</time>
      </trkpt>
      <trkpt lat="47.46248" lon="6.72897">
        <ele>490</ele>
        <time>2016-12-30T10:15:06.999Z</time>
      </trkpt>
      <trkpt lat="47.46247" lon="6.72903">
        <ele>489.9</ele>
        <time>2016-12-30T10:15:16.999Z</time>
      </trkpt>
      <trkpt lat="47.46247" lon="6.72904">
        <ele>489.9</ele>
        <time>2016-12-30T10:15:17.999Z</time>
      </trkpt>
      <trkpt lat="47.46243" lon="6.72907">
        <ele>488.2</ele>
        <time>2016-12-30T10:15:53.999Z</time>
      </trkpt>
      <trkpt lat="47.46243" lon="6.72907">
        <ele>488.2</ele>
        <time>2016-12-30T10:15:54.999Z</time>
      </trkpt>
      <trkpt lat="47.46245" lon="6.72904">
        <ele>486.9</ele>
        <time>2016-12-30T10:16:18.999Z</time>
      </trkpt>
      <trkpt lat="47.46247" lon="6.72903">
        <ele>487</ele>
        <time>2016-12-30T10:16:19.999Z</time>
      </trkpt>
      <trkpt lat="47.46251" lon="6.72901">
        <ele>487.4</ele>
        <time>2016-12-30T10:16:36.999Z</time>
      </trkpt>
      <trkpt lat="47.46251" lon="6.72901">
        <ele>487.5</ele>
        <time>2016-12-30T10:16:37.999Z</time>
      </trkpt>
      <trkpt lat="47.46247" lon="6.72898">
        <ele>488.7</ele>
        <time>2016-12-30T10:17:31.999Z</time>
      </trkpt>
      <trkpt lat="47.46246" lon="6.72898">
        <ele>488.7</ele>
        <time>2016-12-30T10:17:32.999Z</time>
      </trkpt>
      <trkpt lat="47.4625" lon="6.72895">
        <ele>489.4</ele>
        <time>2016-12-30T10:17:54.999Z</time>
      </trkpt>
      <trkpt lat="47.46251" lon="6.72894">
        <ele>489.4</ele>
        <time>2016-12-30T10:17:55.999Z</time>
      </trkpt>
      <trkpt lat="47.46254" lon="6.72892">
        <ele>489.7</ele>
        <time>2016-12-30T10:18:01.999Z</time>
      </trkpt>
      <trkpt lat="47.46255" lon="6.72892">
        <ele>489.8</ele>
        <time>2016-12-30T10:18:02.999Z</time>
      </trkpt>
      <trkpt lat="47.46252" lon="6.72897">
        <ele>491.3</ele>
        <time>2016-12-30T10:18:38.999Z</time>
      </trkpt>
      <trkpt lat="47.46252" lon="6.72897">
        <ele>491.3</ele>
        <time>2016-12-30T10:18:39.999Z</time>
      </trkpt>
      <trkpt lat="47.46248" lon="6.72898">
        <ele>491.6</ele>
        <time>2016-12-30T10:18:49.999Z</time>
      </trkpt>
      <trkpt lat="47.46247" lon="6.72899">
        <ele>491.6</ele>
        <time>2016-12-30T10:18:50.999Z</time>
      </trkpt>
      <trkpt lat="47.4625" lon="6.72897">
        <ele>492.3</ele>
        <time>2016-12-30T10:19:15.999Z</time>
      </trkpt>
      <trkpt lat="47.46251" lon="6.72897">
        <ele>492.4</ele>
        <time>2016-12-30T10:19:16.999Z</time>
      </trkpt>
      <trkpt lat="47.46255" lon="6.72894">
        <ele>492.5</ele>
        <time>2016-12-30T10:19:18.999Z</time>
      </trkpt>
      <trkpt lat="47.46258" lon="6.7289">
        <ele>492.4</ele>
        <time>2016-12-30T10:19:19.999Z</time>
      </trkpt>
      <trkpt lat="47.46261" lon="6.72886">
        <ele>492.4</ele>
        <time>2016-12-30T10:19:20.999Z</time>
      </trkpt>
      <trkpt lat="47.46264" lon="6.72882">
        <ele>492.3</ele>
        <time>2016-12-30T10:19:21.999Z</time>
      </trkpt>
      <trkpt lat="47.46267" lon="6.72879">
        <ele>492.2</ele>
        <time>2016-12-30T10:19:22.999Z</time>
      </trkpt>
      <trkpt lat="47.46271" lon="6.72875">
        <ele>491.4</ele>
        <time>2016-12-30T10:19:23.999Z</time>
      </trkpt>
      <trkpt lat="47.46274" lon="6.72871">
        <ele>490.7</ele>
        <time>2016-12-30T10:19:24.999Z</time>
      </trkpt>
      <trkpt lat="47.46278" lon="6.72866">
        <ele>489.5</ele>
        <time>2016-12-30T10:19:25.999Z</time>
      </trkpt>
      <trkpt lat="47.46281" lon="6.72862">
        <ele>488.4</ele>
        <time>2016-12-30T10:19:26.999Z</time>
      </trkpt>
      <trkpt lat="47.46285" lon="6.72859">
        <ele>486.9</ele>
        <time>2016-12-30T10:19:27.999Z</time>
      </trkpt>
      <trkpt lat="47.46288" lon="6.72855">
        <ele>485.1</ele>
        <time>2016-12-30T10:19:28.999Z</time>
      </trkpt>
      <trkpt lat="47.46291" lon="6.7285">
        <ele>484.9</ele>
        <time>2016-12-30T10:19:29.999Z</time>
      </trkpt>
      <trkpt lat="47.46294" lon="6.72846">
        <ele>484.6</ele>
        <time>2016-12-30T10:19:30.999Z</time>
      </trkpt>
      <trkpt lat="47.46298" lon="6.72845">
        <ele>484.3</ele>
        <time>2016-12-30T10:19:31.999Z</time>
      </trkpt>
      <trkpt lat="47.46301" lon="6.72847">
        <ele>484.1</ele>
        <time>2016-12-30T10:19:32.999Z</time>
      </trkpt>
      <trkpt lat="47.46303" lon="6.72851">
        <ele>483.9</ele>
        <time>2016-12-30T10:19:33.999Z</time>
      </trkpt>
      <trkpt lat="47.46305" lon="6.72855">
        <ele>483.8</ele>
        <time>2016-12-30T10:19:34.999Z</time>
      </trkpt>
      <trkpt lat="47.46307" lon="6.72859">
        <ele>483.7</ele>
        <time>2016-12-30T10:19:35.999Z</time>
      </trkpt>
      <trkpt lat="47.46309" lon="6.72865">
        <ele>483.6</ele>
        <time>2016-12-30T10:19:37.999Z</time>
      </trkpt>
      <trkpt lat="47.4631" lon="6.72868">
        <ele>483.7</ele>
        <time>2016-12-30T10:19:38.999Z</time>
      </trkpt>
      <trkpt lat="47.46311" lon="6.72873">
        <ele>483.6</ele>
        <time>2016-12-30T10:19:40.999Z</time>
      </trkpt>
      <trkpt lat="47.46312" lon="6.72876">
        <ele>483.6</ele>
        <time>2016-12-30T10:19:41.999Z</time>
      </trkpt>
      <trkpt lat="47.46313" lon="6.72879">
        <ele>483.5</ele>
        <time>2016-12-30T10:19:42.999Z</time>
      </trkpt>
      <trkpt lat="47.46314" lon="6.72884">
        <ele>483.3</ele>
        <time>2016-12-30T10:19:43.999Z</time>
      </trkpt>
      <trkpt lat="47.46316" lon="6.72888">
        <ele>483.3</ele>
        <time>2016-12-30T10:19:44.999Z</time>
      </trkpt>
      <trkpt lat="47.46316" lon="6.72892">
        <ele>483.3</ele>
        <time>2016-12-30T10:19:45.999Z</time>
      </trkpt>
      <trkpt lat="47.46317" lon="6.72896">
        <ele>483.2</ele>
        <time>2016-12-30T10:19:46.999Z</time>
      </trkpt>
      <trkpt lat="47.46318" lon="6.729">
        <ele>483.2</ele>
        <time>2016-12-30T10:19:47.999Z</time>
      </trkpt>
      <trkpt lat="47.46319" lon="6.72903">
        <ele>483.1</ele>
        <time>2016-12-30T10:19:48.999Z</time>
      </trkpt>
      <trkpt lat="47.4632" lon="6.72908">
        <ele>483</ele>
        <time>2016-12-30T10:19:49.999Z</time>
      </trkpt>
      <trkpt lat="47.46321" lon="6.72913">
        <ele>482.9</ele>
        <time>2016-12-30T10:19:50.999Z</time>
      </trkpt>
      <trkpt lat="47.46322" lon="6.72918">
        <ele>482.8</ele>
        <time>2016-12-30T10:19:51.999Z</time>
      </trkpt>
      <trkpt lat="47.46323" lon="6.72923">
        <ele>482.8</ele>
        <time>2016-12-30T10:19:52.999Z</time>
      </trkpt>
      <trkpt lat="47.46324" lon="6.72928">
        <ele>482.7</ele>
        <time>2016-12-30T10:19:53.999Z</time>
      </trkpt>
      <trkpt lat="47.46325" lon="6.72932">
        <ele>482.7</ele>
        <time>2016-12-30T10:19:54.999Z</time>
      </trkpt>
      <trkpt lat="47.46325" lon="6.72937">
        <ele>482.6</ele>
        <time>2016-12-30T10:19:55.999Z</time>
      </trkpt>
      <trkpt lat="47.46325" lon="6.7294">
        <ele>482.6</ele>
        <time>2016-12-30T10:19:56.999Z</time>
      </trkpt>
      <trkpt lat="47.46325" lon="6.72945">
        <ele>482.6</ele>
        <time>2016-12-30T10:19:57.999Z</time>
      </trkpt>
      <trkpt lat="47.46325" lon="6.72951">
        <ele>482.5</ele>
        <time>2016-12-30T10:19:58.999Z</time>
      </trkpt>
      <trkpt lat="47.46325" lon="6.72957">
        <ele>482.5</ele>
        <time>2016-12-30T10:19:59.999Z</time>
      </trkpt>
      <trkpt lat="47.46326" lon="6.72962">
        <ele>482.5</ele>
        <time>2016-12-30T10:20:00.999Z</time>
      </trkpt>
      <trkpt lat="47.46326" lon="6.72966">
        <ele>482.5</ele>
        <time>2016-12-30T10:20:01.999Z</time>
      </trkpt>
      <trkpt lat="47.46326" lon="6.72972">
        <ele>482.5</ele>
        <time>2016-12-30T10:20:02.999Z</time>
      </trkpt>
      <trkpt lat="47.46326" lon="6.72977">
        <ele>482.6</ele>
        <time>2016-12-30T10:20:03.999Z</time>
      </trkpt>
      <trkpt lat="47.46326" lon="6.72981">
        <ele>482.6</ele>
        <time>2016-12-30T10:20:04.999Z</time>
      </trkpt>
      <trkpt lat="47.46325" lon="6.72987">
        <ele>482.6</ele>
        <time>2016-12-30T10:20:05.999Z</time>
      </trkpt>
      <trkpt lat="47.46325" lon="6.72992">
        <ele>482.6</ele>
        <time>2016-12-30T10:20:06.999Z</time>
      </trkpt>
      <trkpt lat="47.46325" lon="6.72997">
        <ele>482.6</ele>
        <time>2016-12-30T10:20:07.999Z</time>
      </trkpt>
      <trkpt lat="47.46325" lon="6.73002">
        <ele>482.6</ele>
        <time>2016-12-30T10:20:08.999Z</time>
      </trkpt>
      <trkpt lat="47.46325" lon="6.73005">
        <ele>482.7</ele>
        <time>2016-12-30T10:20:09.999Z</time>
      </trkpt>
      <trkpt lat="47.46325" lon="6.73009">
        <ele>482.7</ele>
        <time>2016-12-30T10:20:10.999Z</time>
      </trkpt>
      <trkpt lat="47.46325" lon="6.73014">
        <ele>482.7</ele>
        <time>2016-12-30T10:20:11.999Z</time>
      </trkpt>
      <trkpt lat="47.46325" lon="6.73019">
        <ele>482.7</ele>
        <time>2016-12-30T10:20:12.999Z</time>
      </trkpt>
      <trkpt lat="47.46325" lon="6.73025">
        <ele>482.7</ele>
        <time>2016-12-30T10:20:13.999Z</time>
      </trkpt>
      <trkpt lat="47.46325" lon="6.73029">
        <ele>482.8</ele>
        <time>2016-12-30T10:20:14.999Z</time>
      </trkpt>
      <trkpt lat="47.46325" lon="6.73035">
        <ele>482.8</ele>
        <time>2016-12-30T10:20:15.999Z</time>
      </trkpt>
      <trkpt lat="47.46324" lon="6.73041">
        <ele>482.9</ele>
        <time>2016-12-30T10:20:16.999Z</time>
      </trkpt>
      <trkpt lat="47.46324" lon="6.73045">
        <ele>482.9</ele>
        <time>2016-12-30T10:20:17.999Z</time>
      </trkpt>
      <trkpt lat="47.46324" lon="6.7305">
        <ele>483</ele>
        <time>2016-12-30T10:20:18.999Z</time>
      </trkpt>
      <trkpt lat="47.46325" lon="6.73056">
        <ele>483</ele>
        <time>2016-12-30T10:20:19.999Z</time>
      </trkpt>
      <trkpt lat="47.46325" lon="6.73061">
        <ele>483.1</ele>
        <time>2016-12-30T10:20:20.999Z</time>
      </trkpt>
      <trkpt lat="47.46325" lon="6.73066">
        <ele>483.2</ele>
        <time>2016-12-30T10:20:21.999Z</time>
      </trkpt>
      <trkpt lat="47.46325" lon="6.73072">
        <ele>483.2</ele>
        <time>2016-12-30T10:20:22.999Z</time>
      </trkpt>
      <trkpt lat="47.46324" lon="6.73077">
        <ele>483.3</ele>
        <time>2016-12-30T10:20:23.999Z</time>
      </trkpt>
      <trkpt lat="47.46324" lon="6.73083">
        <ele>483.4</ele>
        <time>2016-12-30T10:20:24.999Z</time>
      </trkpt>
      <trkpt lat="47.46324" lon="6.73087">
        <ele>483.4</ele>
        <time>2016-12-30T10:20:25.999Z</time>
      </trkpt>
      <trkpt lat="47.46324" lon="6.73092">
        <ele>483.5</ele>
        <time>2016-12-30T10:20:26.999Z</time>
      </trkpt>
      <trkpt lat="47.46324" lon="6.73097">
        <ele>483.6</ele>
        <time>2016-12-30T10:20:27.999Z</time>
      </trkpt>
      <trkpt lat="47.46324" lon="6.73101">
        <ele>483.7</ele>
        <time>2016-12-30T10:20:28.999Z</time>
      </trkpt>
      <trkpt lat="47.46323" lon="6.73106">
        <ele>483.7</ele>
        <time>2016-12-30T10:20:29.999Z</time>
      </trkpt>
      <trkpt lat="47.46323" lon="6.73111">
        <ele>484.5</ele>
        <time>2016-12-30T10:20:30.999Z</time>
      </trkpt>
      <trkpt lat="47.46323" lon="6.73118">
        <ele>484.7</ele>
        <time>2016-12-30T10:20:31.999Z</time>
      </trkpt>
      <trkpt lat="47.46323" lon="6.73123">
        <ele>485</ele>
        <time>2016-12-30T10:20:32.999Z</time>
      </trkpt>
      <trkpt lat="47.46323" lon="6.73129">
        <ele>485.1</ele>
        <time>2016-12-30T10:20:33.999Z</time>
      </trkpt>
      <trkpt lat="47.46324" lon="6.73136">
        <ele>484.8</ele>
        <time>2016-12-30T10:20:34.999Z</time>
      </trkpt>
      <trkpt lat="47.46323" lon="6.73143">
        <ele>484.5</ele>
        <time>2016-12-30T10:20:35.999Z</time>
      </trkpt>
      <trkpt lat="47.46323" lon="6.73151">
        <ele>484.8</ele>
        <time>2016-12-30T10:20:36.999Z</time>
      </trkpt>
      <trkpt lat="47.46323" lon="6.73159">
        <ele>484.6</ele>
        <time>2016-12-30T10:20:37.999Z</time>
      </trkpt>
      <trkpt lat="47.46323" lon="6.73166">
        <ele>484.3</ele>
        <time>2016-12-30T10:20:38.999Z</time>
      </trkpt>
      <trkpt lat="47.46323" lon="6.73174">
        <ele>483.6</ele>
        <time>2016-12-30T10:20:39.999Z</time>
      </trkpt>
      <trkpt lat="47.46323" lon="6.73182">
        <ele>483.3</ele>
        <time>2016-12-30T10:20:40.999Z</time>
      </trkpt>
      <trkpt lat="47.46323" lon="6.73189">
        <ele>482.9</ele>
        <time>2016-12-30T10:20:41.999Z</time>
      </trkpt>
      <trkpt lat="47.46323" lon="6.73196">
        <ele>482.1</ele>
        <time>2016-12-30T10:20:42.999Z</time>
      </trkpt>
      <trkpt lat="47.46323" lon="6.73204">
        <ele>481.6</ele>
        <time>2016-12-30T10:20:43.999Z</time>
      </trkpt>
      <trkpt lat="47.46324" lon="6.73212">
        <ele>481.5</ele>
        <time>2016-12-30T10:20:44.999Z</time>
      </trkpt>
      <trkpt lat="47.46324" lon="6.73221">
        <ele>481.4</ele>
        <time>2016-12-30T10:20:45.999Z</time>
      </trkpt>
      <trkpt lat="47.46324" lon="6.73231">
        <ele>481.4</ele>
        <time>2016-12-30T10:20:46.999Z</time>
      </trkpt>
      <trkpt lat="47.46324" lon="6.7324">
        <ele>481.4</ele>
        <time>2016-12-30T10:20:47.999Z</time>
      </trkpt>
      <trkpt lat="47.46324" lon="6.73248">
        <ele>481.3</ele>
        <time>2016-12-30T10:20:48.999Z</time>
      </trkpt>
      <trkpt lat="47.46324" lon="6.73258">
        <ele>480.5</ele>
        <time>2016-12-30T10:20:49.999Z</time>
      </trkpt>
      <trkpt lat="47.46323" lon="6.73268">
        <ele>480.2</ele>
        <time>2016-12-30T10:20:50.999Z</time>
      </trkpt>
      <trkpt lat="47.46323" lon="6.73277">
        <ele>479.9</ele>
        <time>2016-12-30T10:20:51.999Z</time>
      </trkpt>
      <trkpt lat="47.46322" lon="6.73285">
        <ele>479.7</ele>
        <time>2016-12-30T10:20:52.999Z</time>
      </trkpt>
      <trkpt lat="47.46322" lon="6.73295">
        <ele>479.5</ele>
        <time>2016-12-30T10:20:53.999Z</time>
      </trkpt>
      <trkpt lat="47.46322" lon="6.73304">
        <ele>479.3</ele>
        <time>2016-12-30T10:20:54.999Z</time>
      </trkpt>
      <trkpt lat="47.46321" lon="6.73314">
        <ele>479</ele>
        <time>2016-12-30T10:20:55.999Z</time>
      </trkpt>
      <trkpt lat="47.46321" lon="6.73322">
        <ele>479.2</ele>
        <time>2016-12-30T10:20:56.999Z</time>
      </trkpt>
      <trkpt lat="47.46321" lon="6.73331">
        <ele>478.9</ele>
        <time>2016-12-30T10:20:57.999Z</time>
      </trkpt>
      <trkpt lat="47.46321" lon="6.73341">
        <ele>478.5</ele>
        <time>2016-12-30T10:20:58.999Z</time>
      </trkpt>
      <trkpt lat="47.4632" lon="6.73349">
        <ele>478.2</ele>
        <time>2016-12-30T10:20:59.999Z</time>
      </trkpt>
      <trkpt lat="47.4632" lon="6.73359">
        <ele>478.2</ele>
        <time>2016-12-30T10:21:00.999Z</time>
      </trkpt>
      <trkpt lat="47.4632" lon="6.73367">
        <ele>477.8</ele>
        <time>2016-12-30T10:21:01.999Z</time>
      </trkpt>
      <trkpt lat="47.4632" lon="6.73375">
        <ele>477.7</ele>
        <time>2016-12-30T10:21:02.999Z</time>
      </trkpt>
      <trkpt lat="47.4632" lon="6.73384">
        <ele>477.4</ele>
        <time>2016-12-30T10:21:03.999Z</time>
      </trkpt>
      <trkpt lat="47.46321" lon="6.73391">
        <ele>476.9</ele>
        <time>2016-12-30T10:21:04.999Z</time>
      </trkpt>
      <trkpt lat="47.46321" lon="6.73399">
        <ele>476.3</ele>
        <time>2016-12-30T10:21:05.999Z</time>
      </trkpt>
      <trkpt lat="47.46321" lon="6.73408">
        <ele>476.6</ele>
        <time>2016-12-30T10:21:06.999Z</time>
      </trkpt>
      <trkpt lat="47.46321" lon="6.73417">
        <ele>476.8</ele>
        <time>2016-12-30T10:21:07.999Z</time>
      </trkpt>
      <trkpt lat="47.46321" lon="6.73427">
        <ele>477.1</ele>
        <time>2016-12-30T10:21:08.999Z</time>
      </trkpt>
      <trkpt lat="47.46322" lon="6.73437">
        <ele>477.4</ele>
        <time>2016-12-30T10:21:09.999Z</time>
      </trkpt>
      <trkpt lat="47.46322" lon="6.73446">
        <ele>477.5</ele>
        <time>2016-12-30T10:21:10.999Z</time>
      </trkpt>
      <trkpt lat="47.46321" lon="6.73454">
        <ele>477.2</ele>
        <time>2016-12-30T10:21:11.999Z</time>
      </trkpt>
      <trkpt lat="47.46321" lon="6.73462">
        <ele>476.9</ele>
        <time>2016-12-30T10:21:12.999Z</time>
      </trkpt>
      <trkpt lat="47.46322" lon="6.7347">
        <ele>476.5</ele>
        <time>2016-12-30T10:21:13.999Z</time>
      </trkpt>
      <trkpt lat="47.46322" lon="6.73477">
        <ele>476.1</ele>
        <time>2016-12-30T10:21:14.999Z</time>
      </trkpt>
      <trkpt lat="47.46322" lon="6.73485">
        <ele>475.6</ele>
        <time>2016-12-30T10:21:15.999Z</time>
      </trkpt>
      <trkpt lat="47.46323" lon="6.73492">
        <ele>475.5</ele>
        <time>2016-12-30T10:21:16.999Z</time>
      </trkpt>
      <trkpt lat="47.46323" lon="6.735">
        <ele>474.9</ele>
        <time>2016-12-30T10:21:17.999Z</time>
      </trkpt>
      <trkpt lat="47.46323" lon="6.73507">
        <ele>474.5</ele>
        <time>2016-12-30T10:21:18.999Z</time>
      </trkpt>
      <trkpt lat="47.46323" lon="6.73516">
        <ele>473.9</ele>
        <time>2016-12-30T10:21:19.999Z</time>
      </trkpt>
      <trkpt lat="47.46324" lon="6.73524">
        <ele>473.5</ele>
        <time>2016-12-30T10:21:20.999Z</time>
      </trkpt>
      <trkpt lat="47.46325" lon="6.73533">
        <ele>473.5</ele>
        <time>2016-12-30T10:21:21.999Z</time>
      </trkpt>
      <trkpt lat="47.46325" lon="6.73542">
        <ele>473.7</ele>
        <time>2016-12-30T10:21:22.999Z</time>
      </trkpt>
      <trkpt lat="47.46326" lon="6.73552">
        <ele>473.7</ele>
        <time>2016-12-30T10:21:23.999Z</time>
      </trkpt>
      <trkpt lat="47.46326" lon="6.7356">
        <ele>473.4</ele>
        <time>2016-12-30T10:21:24.999Z</time>
      </trkpt>
      <trkpt lat="47.46326" lon="6.73567">
        <ele>473.4</ele>
        <time>2016-12-30T10:21:25.999Z</time>
      </trkpt>
      <trkpt lat="47.46326" lon="6.73576">
        <ele>473</ele>
        <time>2016-12-30T10:21:26.999Z</time>
      </trkpt>
      <trkpt lat="47.46325" lon="6.73587">
        <ele>472.7</ele>
        <time>2016-12-30T10:21:27.999Z</time>
      </trkpt>
      <trkpt lat="47.46323" lon="6.73598">
        <ele>472.4</ele>
        <time>2016-12-30T10:21:28.999Z</time>
      </trkpt>
      <trkpt lat="47.46321" lon="6.73607">
        <ele>472.2</ele>
        <time>2016-12-30T10:21:29.999Z</time>
      </trkpt>
      <trkpt lat="47.4632" lon="6.73616">
        <ele>472</ele>
        <time>2016-12-30T10:21:30.999Z</time>
      </trkpt>
      <trkpt lat="47.4632" lon="6.73625">
        <ele>471.5</ele>
        <time>2016-12-30T10:21:31.999Z</time>
      </trkpt>
      <trkpt lat="47.46318" lon="6.73637">
        <ele>470.5</ele>
        <time>2016-12-30T10:21:32.999Z</time>
      </trkpt>
      <trkpt lat="47.46318" lon="6.73648">
        <ele>468.6</ele>
        <time>2016-12-30T10:21:33.999Z</time>
      </trkpt>
      <trkpt lat="47.46319" lon="6.73658">
        <ele>467.8</ele>
        <time>2016-12-30T10:21:34.999Z</time>
      </trkpt>
      <trkpt lat="47.4632" lon="6.73667">
        <ele>467.8</ele>
        <time>2016-12-30T10:21:35.999Z</time>
      </trkpt>
      <trkpt lat="47.46321" lon="6.73675">
        <ele>468</ele>
        <time>2016-12-30T10:21:36.999Z</time>
      </trkpt>
      <trkpt lat="47.46322" lon="6.73685">
        <ele>468</ele>
        <time>2016-12-30T10:21:37.999Z</time>
      </trkpt>
      <trkpt lat="47.46324" lon="6.73694">
        <ele>468.1</ele>
        <time>2016-12-30T10:21:38.999Z</time>
      </trkpt>
      <trkpt lat="47.46324" lon="6.73701">
        <ele>468.1</ele>
        <time>2016-12-30T10:21:39.999Z</time>
      </trkpt>
      <trkpt lat="47.46322" lon="6.73707">
        <ele>467.8</ele>
        <time>2016-12-30T10:21:40.999Z</time>
      </trkpt>
      <trkpt lat="47.46319" lon="6.73711">
        <ele>467.7</ele>
        <time>2016-12-30T10:21:41.999Z</time>
      </trkpt>
      <trkpt lat="47.46315" lon="6.73716">
        <ele>467.5</ele>
        <time>2016-12-30T10:21:42.999Z</time>
      </trkpt>
      <trkpt lat="47.4631" lon="6.73717">
        <ele>467.4</ele>
        <time>2016-12-30T10:21:43.999Z</time>
      </trkpt>
      <trkpt lat="47.46306" lon="6.73717">
        <ele>466.9</ele>
        <time>2016-12-30T10:21:44.999Z</time>
      </trkpt>
      <trkpt lat="47.46301" lon="6.73716">
        <ele>466.6</ele>
        <time>2016-12-30T10:21:45.999Z</time>
      </trkpt>
      <trkpt lat="47.46296" lon="6.73716">
        <ele>467.1</ele>
        <time>2016-12-30T10:21:46.999Z</time>
      </trkpt>
      <trkpt lat="47.46292" lon="6.73715">
        <ele>467.6</ele>
        <time>2016-12-30T10:21:47.999Z</time>
      </trkpt>
      <trkpt lat="47.46287" lon="6.73715">
        <ele>467.3</ele>
        <time>2016-12-30T10:21:48.999Z</time>
      </trkpt>
      <trkpt lat="47.46282" lon="6.73715">
        <ele>467.4</ele>
        <time>2016-12-30T10:21:49.999Z</time>
      </trkpt>
      <trkpt lat="47.46277" lon="6.73714">
        <ele>466.7</ele>
        <time>2016-12-30T10:21:50.999Z</time>
      </trkpt>
      <trkpt lat="47.46272" lon="6.73714">
        <ele>465.9</ele>
        <time>2016-12-30T10:21:51.999Z</time>
      </trkpt>
      <trkpt lat="47.46268" lon="6.73713">
        <ele>465.7</ele>
        <time>2016-12-30T10:21:52.999Z</time>
      </trkpt>
      <trkpt lat="47.46263" lon="6.73713">
        <ele>465.5</ele>
        <time>2016-12-30T10:21:53.999Z</time>
      </trkpt>
      <trkpt lat="47.46259" lon="6.73713">
        <ele>465.4</ele>
        <time>2016-12-30T10:21:54.999Z</time>
      </trkpt>
      <trkpt lat="47.46254" lon="6.73713">
        <ele>465.3</ele>
        <time>2016-12-30T10:21:55.999Z</time>
      </trkpt>
      <trkpt lat="47.46249" lon="6.73713">
        <ele>465.2</ele>
        <time>2016-12-30T10:21:56.999Z</time>
      </trkpt>
      <trkpt lat="47.46243" lon="6.73713">
        <ele>465.4</ele>
        <time>2016-12-30T10:21:57.999Z</time>
      </trkpt>
      <trkpt lat="47.46239" lon="6.73712">
        <ele>466.1</ele>
        <time>2016-12-30T10:21:58.999Z</time>
      </trkpt>
      <trkpt lat="47.46235" lon="6.73712">
        <ele>466.5</ele>
        <time>2016-12-30T10:21:59.999Z</time>
      </trkpt>
      <trkpt lat="47.4623" lon="6.73712">
        <ele>467</ele>
        <time>2016-12-30T10:22:00.999Z</time>
      </trkpt>
      <trkpt lat="47.46226" lon="6.73712">
        <ele>467.4</ele>
        <time>2016-12-30T10:22:01.999Z</time>
      </trkpt>
      <trkpt lat="47.46222" lon="6.73711">
        <ele>467.7</ele>
        <time>2016-12-30T10:22:02.999Z</time>
      </trkpt>
      <trkpt lat="47.46217" lon="6.73711">
        <ele>467.9</ele>
        <time>2016-12-30T10:22:03.999Z</time>
      </trkpt>
      <trkpt lat="47.46213" lon="6.73711">
        <ele>467.9</ele>
        <time>2016-12-30T10:22:04.999Z</time>
      </trkpt>
      <trkpt lat="47.4621" lon="6.73711">
        <ele>469.2</ele>
        <time>2016-12-30T10:22:05.999Z</time>
      </trkpt>
      <trkpt lat="47.46207" lon="6.73711">
        <ele>469.3</ele>
        <time>2016-12-30T10:22:06.999Z</time>
      </trkpt>
      <trkpt lat="47.46202" lon="6.7371">
        <ele>470.1</ele>
        <time>2016-12-30T10:22:07.999Z</time>
      </trkpt>
      <trkpt lat="47.46197" lon="6.7371">
        <ele>470.2</ele>
        <time>2016-12-30T10:22:08.999Z</time>
      </trkpt>
      <trkpt lat="47.46193" lon="6.7371">
        <ele>470.3</ele>
        <time>2016-12-30T10:22:09.999Z</time>
      </trkpt>
      <trkpt lat="47.46188" lon="6.7371">
        <ele>470.3</ele>
        <time>2016-12-30T10:22:10.999Z</time>
      </trkpt>
      <trkpt lat="47.46184" lon="6.7371">
        <ele>470.4</ele>
        <time>2016-12-30T10:22:11.999Z</time>
      </trkpt>
      <trkpt lat="47.4618" lon="6.73709">
        <ele>470.9</ele>
        <time>2016-12-30T10:22:12.999Z</time>
      </trkpt>
      <trkpt lat="47.46175" lon="6.73708">
        <ele>471.6</ele>
        <time>2016-12-30T10:22:13.999Z</time>
      </trkpt>
      <trkpt lat="47.4617" lon="6.73708">
        <ele>472.7</ele>
        <time>2016-12-30T10:22:14.999Z</time>
      </trkpt>
      <trkpt lat="47.46167" lon="6.73706">
        <ele>472.7</ele>
        <time>2016-12-30T10:22:15.999Z</time>
      </trkpt>
      <trkpt lat="47.46163" lon="6.73704">
        <ele>472.6</ele>
        <time>2016-12-30T10:22:16.999Z</time>
      </trkpt>
      <trkpt lat="47.4616" lon="6.73702">
        <ele>472.6</ele>
        <time>2016-12-30T10:22:17.999Z</time>
      </trkpt>
      <trkpt lat="47.46155" lon="6.73698">
        <ele>472.1</ele>
        <time>2016-12-30T10:22:18.999Z</time>
      </trkpt>
      <trkpt lat="47.46151" lon="6.73696">
        <ele>471.9</ele>
        <time>2016-12-30T10:22:19.999Z</time>
      </trkpt>
      <trkpt lat="47.46148" lon="6.73694">
        <ele>471.9</ele>
        <time>2016-12-30T10:22:20.999Z</time>
      </trkpt>
      <trkpt lat="47.46143" lon="6.7369">
        <ele>471.8</ele>
        <time>2016-12-30T10:22:21.999Z</time>
      </trkpt>
      <trkpt lat="47.4614" lon="6.73687">
        <ele>471.6</ele>
        <time>2016-12-30T10:22:22.999Z</time>
      </trkpt>
      <trkpt lat="47.46137" lon="6.73685">
        <ele>471.6</ele>
        <time>2016-12-30T10:22:23.999Z</time>
      </trkpt>
      <trkpt lat="47.46133" lon="6.73683">
        <ele>471.5</ele>
        <time>2016-12-30T10:22:24.999Z</time>
      </trkpt>
      <trkpt lat="47.4613" lon="6.7368">
        <ele>471.5</ele>
        <time>2016-12-30T10:22:25.999Z</time>
      </trkpt>
      <trkpt lat="47.46127" lon="6.73678">
        <ele>471.5</ele>
        <time>2016-12-30T10:22:26.999Z</time>
      </trkpt>
      <trkpt lat="47.46124" lon="6.73676">
        <ele>471.5</ele>
        <time>2016-12-30T10:22:27.999Z</time>
      </trkpt>
      <trkpt lat="47.46121" lon="6.73673">
        <ele>471.5</ele>
        <time>2016-12-30T10:22:28.999Z</time>
      </trkpt>
      <trkpt lat="47.46118" lon="6.73671">
        <ele>471.5</ele>
        <time>2016-12-30T10:22:29.999Z</time>
      </trkpt>
      <trkpt lat="47.46116" lon="6.73669">
        <ele>471.6</ele>
        <time>2016-12-30T10:22:30.999Z</time>
      </trkpt>
      <trkpt lat="47.46113" lon="6.73667">
        <ele>471.6</ele>
        <time>2016-12-30T10:22:31.999Z</time>
      </trkpt>
      <trkpt lat="47.46111" lon="6.73665">
        <ele>471.7</ele>
        <time>2016-12-30T10:22:32.999Z</time>
      </trkpt>
      <trkpt lat="47.46108" lon="6.73663">
        <ele>471.9</ele>
        <time>2016-12-30T10:22:33.999Z</time>
      </trkpt>
      <trkpt lat="47.46105" lon="6.73661">
        <ele>472.1</ele>
        <time>2016-12-30T10:22:34.999Z</time>
      </trkpt>
      <trkpt lat="47.46102" lon="6.73658">
        <ele>472.3</ele>
        <time>2016-12-30T10:22:35.999Z</time>
      </trkpt>
      <trkpt lat="47.46098" lon="6.73655">
        <ele>472.5</ele>
        <time>2016-12-30T10:22:36.999Z</time>
      </trkpt>
      <trkpt lat="47.46095" lon="6.73652">
        <ele>472.7</ele>
        <time>2016-12-30T10:22:37.999Z</time>
      </trkpt>
      <trkpt lat="47.46091" lon="6.73649">
        <ele>472.9</ele>
        <time>2016-12-30T10:22:39.000Z</time>
      </trkpt>
      <trkpt lat="47.46089" lon="6.73647">
        <ele>473.2</ele>
        <time>2016-12-30T10:22:39.999Z</time>
      </trkpt>
      <trkpt lat="47.46086" lon="6.73644">
        <ele>473.5</ele>
        <time>2016-12-30T10:22:40.999Z</time>
      </trkpt>
      <trkpt lat="47.46084" lon="6.73641">
        <ele>473.7</ele>
        <time>2016-12-30T10:22:42.000Z</time>
      </trkpt>
      <trkpt lat="47.46081" lon="6.73638">
        <ele>473.9</ele>
        <time>2016-12-30T10:22:43.000Z</time>
      </trkpt>
      <trkpt lat="47.46079" lon="6.73636">
        <ele>474.1</ele>
        <time>2016-12-30T10:22:44.000Z</time>
      </trkpt>
      <trkpt lat="47.46077" lon="6.73633">
        <ele>474.4</ele>
        <time>2016-12-30T10:22:45.000Z</time>
      </trkpt>
      <trkpt lat="47.46074" lon="6.73631">
        <ele>474.6</ele>
        <time>2016-12-30T10:22:46.000Z</time>
      </trkpt>
      <trkpt lat="47.46072" lon="6.73628">
        <ele>474.7</ele>
        <time>2016-12-30T10:22:47.000Z</time>
      </trkpt>
      <trkpt lat="47.46069" lon="6.73626">
        <ele>474.9</ele>
        <time>2016-12-30T10:22:48.000Z</time>
      </trkpt>
      <trkpt lat="47.46065" lon="6.73622">
        <ele>475.3</ele>
        <time>2016-12-30T10:22:50.000Z</time>
      </trkpt>
      <trkpt lat="47.46064" lon="6.73621">
        <ele>475.4</ele>
        <time>2016-12-30T10:22:51.000Z</time>
      </trkpt>
      <trkpt lat="47.46061" lon="6.73619">
        <ele>475.6</ele>
        <time>2016-12-30T10:22:52.000Z</time>
      </trkpt>
      <trkpt lat="47.46059" lon="6.73616">
        <ele>475.9</ele>
        <time>2016-12-30T10:22:53.000Z</time>
      </trkpt>
      <trkpt lat="47.46056" lon="6.73614">
        <ele>476.3</ele>
        <time>2016-12-30T10:22:55.000Z</time>
      </trkpt>
      <trkpt lat="47.46053" lon="6.73613">
        <ele>476.4</ele>
        <time>2016-12-30T10:22:56.000Z</time>
      </trkpt>
      <trkpt lat="47.46051" lon="6.73612">
        <ele>476.7</ele>
        <time>2016-12-30T10:22:57.000Z</time>
      </trkpt>
      <trkpt lat="47.46049" lon="6.73611">
        <ele>476.8</ele>
        <time>2016-12-30T10:22:58.000Z</time>
      </trkpt>
      <trkpt lat="47.46046" lon="6.73611">
        <ele>477</ele>
        <time>2016-12-30T10:22:59.000Z</time>
      </trkpt>
      <trkpt lat="47.46044" lon="6.7361">
        <ele>477.2</ele>
        <time>2016-12-30T10:23:00.000Z</time>
      </trkpt>
      <trkpt lat="47.46041" lon="6.73609">
        <ele>477.3</ele>
        <time>2016-12-30T10:23:01.000Z</time>
      </trkpt>
      <trkpt lat="47.46038" lon="6.73608">
        <ele>477.4</ele>
        <time>2016-12-30T10:23:02.000Z</time>
      </trkpt>
      <trkpt lat="47.46036" lon="6.73608">
        <ele>477.5</ele>
        <time>2016-12-30T10:23:03.000Z</time>
      </trkpt>
      <trkpt lat="47.46033" lon="6.73608">
        <ele>477.7</ele>
        <time>2016-12-30T10:23:04.000Z</time>
      </trkpt>
      <trkpt lat="47.4603" lon="6.73608">
        <ele>477.8</ele>
        <time>2016-12-30T10:23:05.000Z</time>
      </trkpt>
      <trkpt lat="47.46027" lon="6.73608">
        <ele>477.9</ele>
        <time>2016-12-30T10:23:06.000Z</time>
      </trkpt>
      <trkpt lat="47.46023" lon="6.73607">
        <ele>478.2</ele>
        <time>2016-12-30T10:23:08.000Z</time>
      </trkpt>
      <trkpt lat="47.4602" lon="6.73607">
        <ele>478.2</ele>
        <time>2016-12-30T10:23:09.000Z</time>
      </trkpt>
      <trkpt lat="47.46016" lon="6.73607">
        <ele>478.5</ele>
        <time>2016-12-30T10:23:11.000Z</time>
      </trkpt>
      <trkpt lat="47.46014" lon="6.73606">
        <ele>478.7</ele>
        <time>2016-12-30T10:23:12.000Z</time>
      </trkpt>
      <trkpt lat="47.46012" lon="6.73606">
        <ele>478.9</ele>
        <time>2016-12-30T10:23:13.000Z</time>
      </trkpt>
      <trkpt lat="47.46009" lon="6.73607">
        <ele>479</ele>
        <time>2016-12-30T10:23:14.000Z</time>
      </trkpt>
      <trkpt lat="47.46005" lon="6.73609">
        <ele>479.4</ele>
        <time>2016-12-30T10:23:16.000Z</time>
      </trkpt>
      <trkpt lat="47.46003" lon="6.7361">
        <ele>479.6</ele>
        <time>2016-12-30T10:23:17.000Z</time>
      </trkpt>
      <trkpt lat="47.45999" lon="6.73611">
        <ele>479.8</ele>
        <time>2016-12-30T10:23:19.000Z</time>
      </trkpt>
      <trkpt lat="47.45996" lon="6.73612">
        <ele>479.9</ele>
        <time>2016-12-30T10:23:20.000Z</time>
      </trkpt>
      <trkpt lat="47.45994" lon="6.73612">
        <ele>480</ele>
        <time>2016-12-30T10:23:21.000Z</time>
      </trkpt>
      <trkpt lat="47.45991" lon="6.73612">
        <ele>480.1</ele>
        <time>2016-12-30T10:23:22.000Z</time>
      </trkpt>
      <trkpt lat="47.45987" lon="6.73612">
        <ele>480.2</ele>
        <time>2016-12-30T10:23:24.000Z</time>
      </trkpt>
      <trkpt lat="47.45985" lon="6.73612">
        <ele>480.3</ele>
        <time>2016-12-30T10:23:25.000Z</time>
      </trkpt>
      <trkpt lat="47.45981" lon="6.73613">
        <ele>480.5</ele>
        <time>2016-12-30T10:23:26.000Z</time>
      </trkpt>
      <trkpt lat="47.45978" lon="6.73614">
        <ele>480.6</ele>
        <time>2016-12-30T10:23:27.000Z</time>
      </trkpt>
      <trkpt lat="47.45975" lon="6.73614">
        <ele>480.7</ele>
        <time>2016-12-30T10:23:28.000Z</time>
      </trkpt>
      <trkpt lat="47.45972" lon="6.73614">
        <ele>480.9</ele>
        <time>2016-12-30T10:23:29.000Z</time>
      </trkpt>
      <trkpt lat="47.4597" lon="6.73615">
        <ele>481.1</ele>
        <time>2016-12-30T10:23:30.000Z</time>
      </trkpt>
      <trkpt lat="47.45967" lon="6.73615">
        <ele>481.2</ele>
        <time>2016-12-30T10:23:31.000Z</time>
      </trkpt>
      <trkpt lat="47.45964" lon="6.73616">
        <ele>481.4</ele>
        <time>2016-12-30T10:23:32.000Z</time>
      </trkpt>
      <trkpt lat="47.45961" lon="6.73616">
        <ele>481.6</ele>
        <time>2016-12-30T10:23:33.000Z</time>
      </trkpt>
      <trkpt lat="47.45958" lon="6.73617">
        <ele>481.8</ele>
        <time>2016-12-30T10:23:34.000Z</time>
      </trkpt>
      <trkpt lat="47.45956" lon="6.73618">
        <ele>481.9</ele>
        <time>2016-12-30T10:23:35.000Z</time>
      </trkpt>
      <trkpt lat="47.45951" lon="6.73619">
        <ele>482.2</ele>
        <time>2016-12-30T10:23:37.000Z</time>
      </trkpt>
      <trkpt lat="47.45949" lon="6.73621">
        <ele>482.2</ele>
        <time>2016-12-30T10:23:38.000Z</time>
      </trkpt>
      <trkpt lat="47.45947" lon="6.73621">
        <ele>482.3</ele>
        <time>2016-12-30T10:23:39.000Z</time>
      </trkpt>
      <trkpt lat="47.45945" lon="6.73623">
        <ele>482.4</ele>
        <time>2016-12-30T10:23:40.000Z</time>
      </trkpt>
      <trkpt lat="47.45942" lon="6.73625">
        <ele>482.5</ele>
        <time>2016-12-30T10:23:41.000Z</time>
      </trkpt>
      <trkpt lat="47.45939" lon="6.73627">
        <ele>482.7</ele>
        <time>2016-12-30T10:23:42.000Z</time>
      </trkpt>
      <trkpt lat="47.45937" lon="6.7363">
        <ele>482.8</ele>
        <time>2016-12-30T10:23:43.000Z</time>
      </trkpt>
      <trkpt lat="47.45935" lon="6.73632">
        <ele>483</ele>
        <time>2016-12-30T10:23:44.000Z</time>
      </trkpt>
      <trkpt lat="47.45933" lon="6.73634">
        <ele>483.2</ele>
        <time>2016-12-30T10:23:45.000Z</time>
      </trkpt>
      <trkpt lat="47.45931" lon="6.73636">
        <ele>483.3</ele>
        <time>2016-12-30T10:23:46.000Z</time>
      </trkpt>
      <trkpt lat="47.45929" lon="6.73638">
        <ele>483.5</ele>
        <time>2016-12-30T10:23:47.000Z</time>
      </trkpt>
      <trkpt lat="47.45927" lon="6.7364">
        <ele>483.7</ele>
        <time>2016-12-30T10:23:48.000Z</time>
      </trkpt>
      <trkpt lat="47.45925" lon="6.73642">
        <ele>483.9</ele>
        <time>2016-12-30T10:23:49.000Z</time>
      </trkpt>
      <trkpt lat="47.45923" lon="6.73645">
        <ele>484</ele>
        <time>2016-12-30T10:23:50.000Z</time>
      </trkpt>
      <trkpt lat="47.45921" lon="6.73647">
        <ele>484.1</ele>
        <time>2016-12-30T10:23:51.000Z</time>
      </trkpt>
      <trkpt lat="47.45919" lon="6.73649">
        <ele>484.3</ele>
        <time>2016-12-30T10:23:52.000Z</time>
      </trkpt>
      <trkpt lat="47.45916" lon="6.7365">
        <ele>484.7</ele>
        <time>2016-12-30T10:23:54.000Z</time>
      </trkpt>
      <trkpt lat="47.45914" lon="6.7365">
        <ele>484.9</ele>
        <time>2016-12-30T10:23:55.000Z</time>
      </trkpt>
      <trkpt lat="47.45911" lon="6.73651">
        <ele>485.1</ele>
        <time>2016-12-30T10:23:56.000Z</time>
      </trkpt>
      <trkpt lat="47.45909" lon="6.73651">
        <ele>485.3</ele>
        <time>2016-12-30T10:23:57.000Z</time>
      </trkpt>
      <trkpt lat="47.45906" lon="6.7365">
        <ele>485.6</ele>
        <time>2016-12-30T10:23:58.000Z</time>
      </trkpt>
      <trkpt lat="47.45903" lon="6.7365">
        <ele>485.9</ele>
        <time>2016-12-30T10:23:59.000Z</time>
      </trkpt>
      <trkpt lat="47.45901" lon="6.73651">
        <ele>486.2</ele>
        <time>2016-12-30T10:24:00.000Z</time>
      </trkpt>
      <trkpt lat="47.45898" lon="6.7365">
        <ele>486.4</ele>
        <time>2016-12-30T10:24:01.000Z</time>
      </trkpt>
      <trkpt lat="47.45896" lon="6.73649">
        <ele>486.7</ele>
        <time>2016-12-30T10:24:02.000Z</time>
      </trkpt>
      <trkpt lat="47.45894" lon="6.73649">
        <ele>486.9</ele>
        <time>2016-12-30T10:24:03.000Z</time>
      </trkpt>
      <trkpt lat="47.45891" lon="6.7365">
        <ele>487.2</ele>
        <time>2016-12-30T10:24:04.000Z</time>
      </trkpt>
      <trkpt lat="47.45889" lon="6.7365">
        <ele>487.4</ele>
        <time>2016-12-30T10:24:05.000Z</time>
      </trkpt>
      <trkpt lat="47.45884" lon="6.73649">
        <ele>487.7</ele>
        <time>2016-12-30T10:24:06.000Z</time>
      </trkpt>
      <trkpt lat="47.45881" lon="6.73649">
        <ele>487.8</ele>
        <time>2016-12-30T10:24:07.000Z</time>
      </trkpt>
      <trkpt lat="47.45879" lon="6.7365">
        <ele>488</ele>
        <time>2016-12-30T10:24:08.000Z</time>
      </trkpt>
      <trkpt lat="47.45876" lon="6.73649">
        <ele>488.2</ele>
        <time>2016-12-30T10:24:09.000Z</time>
      </trkpt>
      <trkpt lat="47.45872" lon="6.7365">
        <ele>488.7</ele>
        <time>2016-12-30T10:24:11.000Z</time>
      </trkpt>
      <trkpt lat="47.45869" lon="6.7365">
        <ele>489</ele>
        <time>2016-12-30T10:24:12.000Z</time>
      </trkpt>
      <trkpt lat="47.45867" lon="6.7365">
        <ele>489.2</ele>
        <time>2016-12-30T10:24:13.000Z</time>
      </trkpt>
      <trkpt lat="47.45864" lon="6.7365">
        <ele>489.5</ele>
        <time>2016-12-30T10:24:14.000Z</time>
      </trkpt>
      <trkpt lat="47.45861" lon="6.7365">
        <ele>489.7</ele>
        <time>2016-12-30T10:24:15.000Z</time>
      </trkpt>
      <trkpt lat="47.45859" lon="6.73651">
        <ele>490</ele>
        <time>2016-12-30T10:24:16.000Z</time>
      </trkpt>
      <trkpt lat="47.45856" lon="6.73651">
        <ele>490.2</ele>
        <time>2016-12-30T10:24:17.000Z</time>
      </trkpt>
      <trkpt lat="47.45853" lon="6.73652">
        <ele>490.3</ele>
        <time>2016-12-30T10:24:18.000Z</time>
      </trkpt>
      <trkpt lat="47.4585" lon="6.73652">
        <ele>490.5</ele>
        <time>2016-12-30T10:24:19.000Z</time>
      </trkpt>
      <trkpt lat="47.45847" lon="6.73652">
        <ele>490.8</ele>
        <time>2016-12-30T10:24:20.000Z</time>
      </trkpt>
      <trkpt lat="47.45844" lon="6.73652">
        <ele>490.9</ele>
        <time>2016-12-30T10:24:21.000Z</time>
      </trkpt>
      <trkpt lat="47.45842" lon="6.73652">
        <ele>491.1</ele>
        <time>2016-12-30T10:24:22.000Z</time>
      </trkpt>
      <trkpt lat="47.45838" lon="6.73652">
        <ele>491.3</ele>
        <time>2016-12-30T10:24:23.000Z</time>
      </trkpt>
      <trkpt lat="47.45834" lon="6.73653">
        <ele>491.5</ele>
        <time>2016-12-30T10:24:24.000Z</time>
      </trkpt>
      <trkpt lat="47.4583" lon="6.73653">
        <ele>491.7</ele>
        <time>2016-12-30T10:24:25.000Z</time>
      </trkpt>
      <trkpt lat="47.45828" lon="6.73654">
        <ele>491.9</ele>
        <time>2016-12-30T10:24:26.000Z</time>
      </trkpt>
      <trkpt lat="47.45824" lon="6.73655">
        <ele>492.1</ele>
        <time>2016-12-30T10:24:27.000Z</time>
      </trkpt>
      <trkpt lat="47.45821" lon="6.73655">
        <ele>492.2</ele>
        <time>2016-12-30T10:24:28.000Z</time>
      </trkpt>
      <trkpt lat="47.45818" lon="6.73656">
        <ele>492.4</ele>
        <time>2016-12-30T10:24:29.000Z</time>
      </trkpt>
      <trkpt lat="47.45815" lon="6.73655">
        <ele>492.5</ele>
        <time>2016-12-30T10:24:30.000Z</time>
      </trkpt>
      <trkpt lat="47.45812" lon="6.73654">
        <ele>492.7</ele>
        <time>2016-12-30T10:24:31.000Z</time>
      </trkpt>
      <trkpt lat="47.45809" lon="6.73655">
        <ele>492.8</ele>
        <time>2016-12-30T10:24:32.000Z</time>
      </trkpt>
      <trkpt lat="47.45806" lon="6.73655">
        <ele>493</ele>
        <time>2016-12-30T10:24:33.000Z</time>
      </trkpt>
      <trkpt lat="47.45804" lon="6.73655">
        <ele>493.2</ele>
        <time>2016-12-30T10:24:34.000Z</time>
      </trkpt>
      <trkpt lat="47.45801" lon="6.73656">
        <ele>493.4</ele>
        <time>2016-12-30T10:24:35.000Z</time>
      </trkpt>
      <trkpt lat="47.45798" lon="6.73656">
        <ele>493.6</ele>
        <time>2016-12-30T10:24:36.000Z</time>
      </trkpt>
      <trkpt lat="47.45795" lon="6.73657">
        <ele>493.7</ele>
        <time>2016-12-30T10:24:37.000Z</time>
      </trkpt>
      <trkpt lat="47.45792" lon="6.73657">
        <ele>493.9</ele>
        <time>2016-12-30T10:24:38.000Z</time>
      </trkpt>
      <trkpt lat="47.4579" lon="6.73658">
        <ele>494.1</ele>
        <time>2016-12-30T10:24:39.000Z</time>
      </trkpt>
      <trkpt lat="47.45788" lon="6.73658">
        <ele>494.3</ele>
        <time>2016-12-30T10:24:40.000Z</time>
      </trkpt>
      <trkpt lat="47.45784" lon="6.7366">
        <ele>494.7</ele>
        <time>2016-12-30T10:24:42.000Z</time>
      </trkpt>
      <trkpt lat="47.45782" lon="6.73661">
        <ele>494.9</ele>
        <time>2016-12-30T10:24:43.000Z</time>
      </trkpt>
      <trkpt lat="47.4578" lon="6.73662">
        <ele>495.1</ele>
        <time>2016-12-30T10:24:44.000Z</time>
      </trkpt>
      <trkpt lat="47.45777" lon="6.73662">
        <ele>495.3</ele>
        <time>2016-12-30T10:24:45.000Z</time>
      </trkpt>
      <trkpt lat="47.45774" lon="6.73662">
        <ele>495.4</ele>
        <time>2016-12-30T10:24:46.000Z</time>
      </trkpt>
      <trkpt lat="47.45771" lon="6.73662">
        <ele>495.6</ele>
        <time>2016-12-30T10:24:47.000Z</time>
      </trkpt>
      <trkpt lat="47.45768" lon="6.73662">
        <ele>495.8</ele>
        <time>2016-12-30T10:24:48.000Z</time>
      </trkpt>
      <trkpt lat="47.45766" lon="6.73663">
        <ele>496</ele>
        <time>2016-12-30T10:24:49.000Z</time>
      </trkpt>
      <trkpt lat="47.45762" lon="6.73664">
        <ele>496.5</ele>
        <time>2016-12-30T10:24:51.000Z</time>
      </trkpt>
      <trkpt lat="47.45759" lon="6.73664">
        <ele>496.7</ele>
        <time>2016-12-30T10:24:52.000Z</time>
      </trkpt>
      <trkpt lat="47.45756" lon="6.73665">
        <ele>497</ele>
        <time>2016-12-30T10:24:53.000Z</time>
      </trkpt>
      <trkpt lat="47.45755" lon="6.73665">
        <ele>497.4</ele>
        <time>2016-12-30T10:24:54.000Z</time>
      </trkpt>
      <trkpt lat="47.45753" lon="6.73666">
        <ele>497.7</ele>
        <time>2016-12-30T10:24:55.000Z</time>
      </trkpt>
      <trkpt lat="47.4575" lon="6.73665">
        <ele>498</ele>
        <time>2016-12-30T10:24:56.000Z</time>
      </trkpt>
      <trkpt lat="47.45746" lon="6.73664">
        <ele>498.3</ele>
        <time>2016-12-30T10:24:57.000Z</time>
      </trkpt>
      <trkpt lat="47.45743" lon="6.73662">
        <ele>498.5</ele>
        <time>2016-12-30T10:24:58.000Z</time>
      </trkpt>
      <trkpt lat="47.45741" lon="6.73661">
        <ele>498.7</ele>
        <time>2016-12-30T10:24:59.000Z</time>
      </trkpt>
      <trkpt lat="47.45737" lon="6.73661">
        <ele>498.8</ele>
        <time>2016-12-30T10:25:00.000Z</time>
      </trkpt>
      <trkpt lat="47.45733" lon="6.73661">
        <ele>498.9</ele>
        <time>2016-12-30T10:25:01.000Z</time>
      </trkpt>
      <trkpt lat="47.4573" lon="6.73662">
        <ele>498.9</ele>
        <time>2016-12-30T10:25:02.000Z</time>
      </trkpt>
      <trkpt lat="47.45727" lon="6.73661">
        <ele>499.1</ele>
        <time>2016-12-30T10:25:03.000Z</time>
      </trkpt>
      <trkpt lat="47.45723" lon="6.73661">
        <ele>499.2</ele>
        <time>2016-12-30T10:25:04.000Z</time>
      </trkpt>
      <trkpt lat="47.4572" lon="6.73661">
        <ele>499.3</ele>
        <time>2016-12-30T10:25:05.000Z</time>
      </trkpt>
      <trkpt lat="47.45716" lon="6.73661">
        <ele>499.5</ele>
        <time>2016-12-30T10:25:06.000Z</time>
      </trkpt>
      <trkpt lat="47.45713" lon="6.73661">
        <ele>499.6</ele>
        <time>2016-12-30T10:25:07.000Z</time>
      </trkpt>
      <trkpt lat="47.4571" lon="6.73661">
        <ele>499.7</ele>
        <time>2016-12-30T10:25:08.000Z</time>
      </trkpt>
      <trkpt lat="47.45707" lon="6.73661">
        <ele>499.8</ele>
        <time>2016-12-30T10:25:09.000Z</time>
      </trkpt>
      <trkpt lat="47.45705" lon="6.73662">
        <ele>500</ele>
        <time>2016-12-30T10:25:10.000Z</time>
      </trkpt>
      <trkpt lat="47.45702" lon="6.73661">
        <ele>500</ele>
        <time>2016-12-30T10:25:11.000Z</time>
      </trkpt>
      <trkpt lat="47.45699" lon="6.73661">
        <ele>500.2</ele>
        <time>2016-12-30T10:25:12.000Z</time>
      </trkpt>
      <trkpt lat="47.45696" lon="6.73661">
        <ele>500.3</ele>
        <time>2016-12-30T10:25:13.000Z</time>
      </trkpt>
      <trkpt lat="47.45693" lon="6.73662">
        <ele>500.4</ele>
        <time>2016-12-30T10:25:14.000Z</time>
      </trkpt>
      <trkpt lat="47.4569" lon="6.73662">
        <ele>500.5</ele>
        <time>2016-12-30T10:25:15.000Z</time>
      </trkpt>
      <trkpt lat="47.45687" lon="6.73663">
        <ele>500.7</ele>
        <time>2016-12-30T10:25:16.000Z</time>
      </trkpt>
      <trkpt lat="47.45684" lon="6.73663">
        <ele>500.9</ele>
        <time>2016-12-30T10:25:17.000Z</time>
      </trkpt>
      <trkpt lat="47.4568" lon="6.73663">
        <ele>501.1</ele>
        <time>2016-12-30T10:25:18.000Z</time>
      </trkpt>
      <trkpt lat="47.45676" lon="6.73663">
        <ele>501.3</ele>
        <time>2016-12-30T10:25:19.000Z</time>
      </trkpt>
      <trkpt lat="47.45672" lon="6.73663">
        <ele>501.6</ele>
        <time>2016-12-30T10:25:20.000Z</time>
      </trkpt>
      <trkpt lat="47.45669" lon="6.73663">
        <ele>501.8</ele>
        <time>2016-12-30T10:25:21.000Z</time>
      </trkpt>
      <trkpt lat="47.45665" lon="6.73663">
        <ele>502.1</ele>
        <time>2016-12-30T10:25:22.000Z</time>
      </trkpt>
      <trkpt lat="47.45662" lon="6.73663">
        <ele>502.3</ele>
        <time>2016-12-30T10:25:23.000Z</time>
      </trkpt>
      <trkpt lat="47.4566" lon="6.73663">
        <ele>502.6</ele>
        <time>2016-12-30T10:25:24.000Z</time>
      </trkpt>
      <trkpt lat="47.45658" lon="6.73664">
        <ele>502.7</ele>
        <time>2016-12-30T10:25:25.000Z</time>
      </trkpt>
      <trkpt lat="47.45655" lon="6.73665">
        <ele>502.9</ele>
        <time>2016-12-30T10:25:26.000Z</time>
      </trkpt>
      <trkpt lat="47.45652" lon="6.73667">
        <ele>503.2</ele>
        <time>2016-12-30T10:25:28.000Z</time>
      </trkpt>
      <trkpt lat="47.4565" lon="6.7367">
        <ele>503.3</ele>
        <time>2016-12-30T10:25:29.000Z</time>
      </trkpt>
      <trkpt lat="47.45648" lon="6.73676">
        <ele>503.5</ele>
        <time>2016-12-30T10:25:30.000Z</time>
      </trkpt>
      <trkpt lat="47.45647" lon="6.73679">
        <ele>503.6</ele>
        <time>2016-12-30T10:25:31.000Z</time>
      </trkpt>
      <trkpt lat="47.45645" lon="6.73684">
        <ele>503.6</ele>
        <time>2016-12-30T10:25:32.000Z</time>
      </trkpt>
      <trkpt lat="47.45645" lon="6.73687">
        <ele>503.7</ele>
        <time>2016-12-30T10:25:33.000Z</time>
      </trkpt>
      <trkpt lat="47.45646" lon="6.73692">
        <ele>503.6</ele>
        <time>2016-12-30T10:25:34.000Z</time>
      </trkpt>
      <trkpt lat="47.45645" lon="6.73696">
        <ele>503.6</ele>
        <time>2016-12-30T10:25:35.000Z</time>
      </trkpt>
      <trkpt lat="47.45644" lon="6.73701">
        <ele>503.5</ele>
        <time>2016-12-30T10:25:36.000Z</time>
      </trkpt>
      <trkpt lat="47.45643" lon="6.73707">
        <ele>503.6</ele>
        <time>2016-12-30T10:25:37.000Z</time>
      </trkpt>
      <trkpt lat="47.45642" lon="6.73712">
        <ele>503.5</ele>
        <time>2016-12-30T10:25:38.000Z</time>
      </trkpt>
      <trkpt lat="47.4564" lon="6.73716">
        <ele>503.5</ele>
        <time>2016-12-30T10:25:39.000Z</time>
      </trkpt>
      <trkpt lat="47.45637" lon="6.73718">
        <ele>503.1</ele>
        <time>2016-12-30T10:25:40.000Z</time>
      </trkpt>
      <trkpt lat="47.45636" lon="6.73722">
        <ele>503.1</ele>
        <time>2016-12-30T10:25:41.000Z</time>
      </trkpt>
      <trkpt lat="47.45634" lon="6.73726">
        <ele>503</ele>
        <time>2016-12-30T10:25:42.000Z</time>
      </trkpt>
      <trkpt lat="47.45632" lon="6.7373">
        <ele>502.8</ele>
        <time>2016-12-30T10:25:43.000Z</time>
      </trkpt>
      <trkpt lat="47.45631" lon="6.73733">
        <ele>502.8</ele>
        <time>2016-12-30T10:25:44.000Z</time>
      </trkpt>
      <trkpt lat="47.45629" lon="6.73738">
        <ele>502.7</ele>
        <time>2016-12-30T10:25:45.000Z</time>
      </trkpt>
      <trkpt lat="47.45628" lon="6.73742">
        <ele>502.8</ele>
        <time>2016-12-30T10:25:46.000Z</time>
      </trkpt>
      <trkpt lat="47.45627" lon="6.73746">
        <ele>502.8</ele>
        <time>2016-12-30T10:25:47.000Z</time>
      </trkpt>
      <trkpt lat="47.45625" lon="6.73751">
        <ele>502.8</ele>
        <time>2016-12-30T10:25:48.000Z</time>
      </trkpt>
      <trkpt lat="47.45623" lon="6.73757">
        <ele>502.6</ele>
        <time>2016-12-30T10:25:49.000Z</time>
      </trkpt>
      <trkpt lat="47.45622" lon="6.73765">
        <ele>500.7</ele>
        <time>2016-12-30T10:25:50.000Z</time>
      </trkpt>
      <trkpt lat="47.45621" lon="6.73775">
        <ele>498.9</ele>
        <time>2016-12-30T10:25:51.000Z</time>
      </trkpt>
      <trkpt lat="47.4562" lon="6.73781">
        <ele>498.8</ele>
        <time>2016-12-30T10:25:52.000Z</time>
      </trkpt>
      <trkpt lat="47.45619" lon="6.73787">
        <ele>498.6</ele>
        <time>2016-12-30T10:25:53.000Z</time>
      </trkpt>
      <trkpt lat="47.45617" lon="6.73795">
        <ele>497.5</ele>
        <time>2016-12-30T10:25:54.000Z</time>
      </trkpt>
      <trkpt lat="47.45616" lon="6.73805">
        <ele>497.3</ele>
        <time>2016-12-30T10:25:55.000Z</time>
      </trkpt>
      <trkpt lat="47.45617" lon="6.73816">
        <ele>496.8</ele>
        <time>2016-12-30T10:25:56.000Z</time>
      </trkpt>
      <trkpt lat="47.45616" lon="6.73826">
        <ele>496.4</ele>
        <time>2016-12-30T10:25:57.000Z</time>
      </trkpt>
      <trkpt lat="47.45615" lon="6.73837">
        <ele>496.2</ele>
        <time>2016-12-30T10:25:58.000Z</time>
      </trkpt>
      <trkpt lat="47.45615" lon="6.73846">
        <ele>496.5</ele>
        <time>2016-12-30T10:25:59.000Z</time>
      </trkpt>
      <trkpt lat="47.45615" lon="6.73856">
        <ele>496.4</ele>
        <time>2016-12-30T10:26:00.000Z</time>
      </trkpt>
      <trkpt lat="47.45616" lon="6.73864">
        <ele>494.9</ele>
        <time>2016-12-30T10:26:01.000Z</time>
      </trkpt>
      <trkpt lat="47.45617" lon="6.73873">
        <ele>494</ele>
        <time>2016-12-30T10:26:02.000Z</time>
      </trkpt>
      <trkpt lat="47.45619" lon="6.7388">
        <ele>493.8</ele>
        <time>2016-12-30T10:26:03.000Z</time>
      </trkpt>
      <trkpt lat="47.45622" lon="6.73885">
        <ele>493.1</ele>
        <time>2016-12-30T10:26:04.000Z</time>
      </trkpt>
      <trkpt lat="47.45627" lon="6.73892">
        <ele>492.8</ele>
        <time>2016-12-30T10:26:05.000Z</time>
      </trkpt>
      <trkpt lat="47.45633" lon="6.73901">
        <ele>491.4</ele>
        <time>2016-12-30T10:26:06.000Z</time>
      </trkpt>
      <trkpt lat="47.45638" lon="6.73911">
        <ele>489.9</ele>
        <time>2016-12-30T10:26:07.000Z</time>
      </trkpt>
      <trkpt lat="47.45643" lon="6.7392">
        <ele>487.8</ele>
        <time>2016-12-30T10:26:08.000Z</time>
      </trkpt>
      <trkpt lat="47.45646" lon="6.73929">
        <ele>486.4</ele>
        <time>2016-12-30T10:26:09.000Z</time>
      </trkpt>
      <trkpt lat="47.45649" lon="6.73937">
        <ele>485.6</ele>
        <time>2016-12-30T10:26:10.000Z</time>
      </trkpt>
      <trkpt lat="47.45652" lon="6.73944">
        <ele>484.4</ele>
        <time>2016-12-30T10:26:11.000Z</time>
      </trkpt>
      <trkpt lat="47.45656" lon="6.7395">
        <ele>482.8</ele>
        <time>2016-12-30T10:26:12.000Z</time>
      </trkpt>
      <trkpt lat="47.45661" lon="6.73957">
        <ele>480.8</ele>
        <time>2016-12-30T10:26:13.000Z</time>
      </trkpt>
      <trkpt lat="47.45665" lon="6.73963">
        <ele>479.2</ele>
        <time>2016-12-30T10:26:14.000Z</time>
      </trkpt>
      <trkpt lat="47.4567" lon="6.7397">
        <ele>478.3</ele>
        <time>2016-12-30T10:26:15.000Z</time>
      </trkpt>
      <trkpt lat="47.45673" lon="6.73976">
        <ele>476.3</ele>
        <time>2016-12-30T10:26:16.000Z</time>
      </trkpt>
      <trkpt lat="47.45677" lon="6.73983">
        <ele>474.6</ele>
        <time>2016-12-30T10:26:17.000Z</time>
      </trkpt>
      <trkpt lat="47.45682" lon="6.73989">
        <ele>473.4</ele>
        <time>2016-12-30T10:26:18.000Z</time>
      </trkpt>
      <trkpt lat="47.45686" lon="6.73993">
        <ele>473.2</ele>
        <time>2016-12-30T10:26:19.000Z</time>
      </trkpt>
      <trkpt lat="47.45692" lon="6.73998">
        <ele>471.4</ele>
        <time>2016-12-30T10:26:20.000Z</time>
      </trkpt>
      <trkpt lat="47.45699" lon="6.74003">
        <ele>469.9</ele>
        <time>2016-12-30T10:26:21.000Z</time>
      </trkpt>
      <trkpt lat="47.45707" lon="6.74009">
        <ele>467.9</ele>
        <time>2016-12-30T10:26:22.000Z</time>
      </trkpt>
      <trkpt lat="47.45712" lon="6.74013">
        <ele>466.5</ele>
        <time>2016-12-30T10:26:23.000Z</time>
      </trkpt>
      <trkpt lat="47.45717" lon="6.74016">
        <ele>465.9</ele>
        <time>2016-12-30T10:26:24.000Z</time>
      </trkpt>
      <trkpt lat="47.45723" lon="6.7402">
        <ele>465.2</ele>
        <time>2016-12-30T10:26:25.000Z</time>
      </trkpt>
      <trkpt lat="47.45727" lon="6.74024">
        <ele>464.2</ele>
        <time>2016-12-30T10:26:26.000Z</time>
      </trkpt>
      <trkpt lat="47.4573" lon="6.74031">
        <ele>462.4</ele>
        <time>2016-12-30T10:26:27.000Z</time>
      </trkpt>
      <trkpt lat="47.45733" lon="6.74037">
        <ele>460.6</ele>
        <time>2016-12-30T10:26:28.000Z</time>
      </trkpt>
      <trkpt lat="47.45737" lon="6.74044">
        <ele>458.6</ele>
        <time>2016-12-30T10:26:29.000Z</time>
      </trkpt>
      <trkpt lat="47.45741" lon="6.7405">
        <ele>456.4</ele>
        <time>2016-12-30T10:26:30.000Z</time>
      </trkpt>
      <trkpt lat="47.45744" lon="6.74056">
        <ele>455</ele>
        <time>2016-12-30T10:26:31.000Z</time>
      </trkpt>
      <trkpt lat="47.45749" lon="6.74064">
        <ele>453.9</ele>
        <time>2016-12-30T10:26:32.000Z</time>
      </trkpt>
      <trkpt lat="47.45753" lon="6.7407">
        <ele>453.2</ele>
        <time>2016-12-30T10:26:33.000Z</time>
      </trkpt>
      <trkpt lat="47.45756" lon="6.74075">
        <ele>452.1</ele>
        <time>2016-12-30T10:26:34.000Z</time>
      </trkpt>
      <trkpt lat="47.45759" lon="6.74079">
        <ele>452.1</ele>
        <time>2016-12-30T10:26:35.000Z</time>
      </trkpt>
      <trkpt lat="47.45762" lon="6.74083">
        <ele>451.4</ele>
        <time>2016-12-30T10:26:36.000Z</time>
      </trkpt>
      <trkpt lat="47.45765" lon="6.74088">
        <ele>450.7</ele>
        <time>2016-12-30T10:26:37.000Z</time>
      </trkpt>
      <trkpt lat="47.45768" lon="6.74092">
        <ele>450.5</ele>
        <time>2016-12-30T10:26:38.000Z</time>
      </trkpt>
      <trkpt lat="47.45775" lon="6.74105">
        <ele>450.3</ele>
        <time>2016-12-30T10:26:39.000Z</time>
      </trkpt>
      <trkpt lat="47.45783" lon="6.74121">
        <ele>450.3</ele>
        <time>2016-12-30T10:26:40.000Z</time>
      </trkpt>
      <trkpt lat="47.45792" lon="6.74138">
        <ele>450.3</ele>
        <time>2016-12-30T10:26:41.000Z</time>
      </trkpt>
      <trkpt lat="47.45798" lon="6.74148">
        <ele>450.4</ele>
        <time>2016-12-30T10:26:42.000Z</time>
      </trkpt>
      <trkpt lat="47.45803" lon="6.74155">
        <ele>450.5</ele>
        <time>2016-12-30T10:26:43.000Z</time>
      </trkpt>
      <trkpt lat="47.45811" lon="6.74161">
        <ele>450.5</ele>
        <time>2016-12-30T10:26:44.000Z</time>
      </trkpt>
      <trkpt lat="47.45815" lon="6.74166">
        <ele>450.6</ele>
        <time>2016-12-30T10:26:45.000Z</time>
      </trkpt>
      <trkpt lat="47.45822" lon="6.74172">
        <ele>450.7</ele>
        <time>2016-12-30T10:26:46.000Z</time>
      </trkpt>
      <trkpt lat="47.45828" lon="6.74174">
        <ele>450.9</ele>
        <time>2016-12-30T10:26:47.000Z</time>
      </trkpt>
      <trkpt lat="47.45833" lon="6.74176">
        <ele>451.1</ele>
        <time>2016-12-30T10:26:48.000Z</time>
      </trkpt>
      <trkpt lat="47.45836" lon="6.74178">
        <ele>451.3</ele>
        <time>2016-12-30T10:26:49.000Z</time>
      </trkpt>
      <trkpt lat="47.45841" lon="6.74179">
        <ele>451.4</ele>
        <time>2016-12-30T10:26:50.000Z</time>
      </trkpt>
      <trkpt lat="47.45848" lon="6.74182">
        <ele>451.6</ele>
        <time>2016-12-30T10:26:51.000Z</time>
      </trkpt>
      <trkpt lat="47.45853" lon="6.74183">
        <ele>451.9</ele>
        <time>2016-12-30T10:26:52.000Z</time>
      </trkpt>
      <trkpt lat="47.45858" lon="6.74184">
        <ele>452</ele>
        <time>2016-12-30T10:26:53.000Z</time>
      </trkpt>
      <trkpt lat="47.45862" lon="6.74183">
        <ele>452.2</ele>
        <time>2016-12-30T10:26:54.000Z</time>
      </trkpt>
      <trkpt lat="47.45864" lon="6.74183">
        <ele>452.3</ele>
        <time>2016-12-30T10:26:55.000Z</time>
      </trkpt>
      <trkpt lat="47.45866" lon="6.74183">
        <ele>452.8</ele>
        <time>2016-12-30T10:26:59.000Z</time>
      </trkpt>
      <trkpt lat="47.45882" lon="6.74188">
        <ele>453</ele>
        <time>2016-12-30T10:27:00.000Z</time>
      </trkpt>
      <trkpt lat="47.45889" lon="6.74191">
        <ele>454.4</ele>
        <time>2016-12-30T10:27:01.000Z</time>
      </trkpt>
      <trkpt lat="47.45893" lon="6.7419">
        <ele>454.6</ele>
        <time>2016-12-30T10:27:02.000Z</time>
      </trkpt>
      <trkpt lat="47.45897" lon="6.7419">
        <ele>454.7</ele>
        <time>2016-12-30T10:27:03.000Z</time>
      </trkpt>
      <trkpt lat="47.45902" lon="6.74191">
        <ele>454.8</ele>
        <time>2016-12-30T10:27:04.000Z</time>
      </trkpt>
      <trkpt lat="47.45906" lon="6.74193">
        <ele>454.9</ele>
        <time>2016-12-30T10:27:05.000Z</time>
      </trkpt>
      <trkpt lat="47.45911" lon="6.74194">
        <ele>455</ele>
        <time>2016-12-30T10:27:06.000Z</time>
      </trkpt>
      <trkpt lat="47.45916" lon="6.74194">
        <ele>455.1</ele>
        <time>2016-12-30T10:27:07.000Z</time>
      </trkpt>
      <trkpt lat="47.4592" lon="6.74194">
        <ele>455.1</ele>
        <time>2016-12-30T10:27:08.000Z</time>
      </trkpt>
      <trkpt lat="47.45924" lon="6.74193">
        <ele>455.2</ele>
        <time>2016-12-30T10:27:09.000Z</time>
      </trkpt>
      <trkpt lat="47.45928" lon="6.74195">
        <ele>455.1</ele>
        <time>2016-12-30T10:27:10.000Z</time>
      </trkpt>
      <trkpt lat="47.45934" lon="6.74197">
        <ele>455.3</ele>
        <time>2016-12-30T10:27:11.000Z</time>
      </trkpt>
      <trkpt lat="47.45939" lon="6.74196">
        <ele>455.3</ele>
        <time>2016-12-30T10:27:12.000Z</time>
      </trkpt>
      <trkpt lat="47.45944" lon="6.74195">
        <ele>455.3</ele>
        <time>2016-12-30T10:27:13.000Z</time>
      </trkpt>
      <trkpt lat="47.45949" lon="6.74195">
        <ele>455.3</ele>
        <time>2016-12-30T10:27:14.000Z</time>
      </trkpt>
      <trkpt lat="47.45952" lon="6.74194">
        <ele>455.2</ele>
        <time>2016-12-30T10:27:15.000Z</time>
      </trkpt>
      <trkpt lat="47.45955" lon="6.74193">
        <ele>455.1</ele>
        <time>2016-12-30T10:27:16.000Z</time>
      </trkpt>
      <trkpt lat="47.45958" lon="6.74191">
        <ele>455</ele>
        <time>2016-12-30T10:27:17.000Z</time>
      </trkpt>
      <trkpt lat="47.45961" lon="6.74191">
        <ele>454.9</ele>
        <time>2016-12-30T10:27:18.000Z</time>
      </trkpt>
      <trkpt lat="47.45961" lon="6.74191">
        <ele>454.5</ele>
        <time>2016-12-30T10:27:21.000Z</time>
      </trkpt>
      <trkpt lat="47.45971" lon="6.74193">
        <ele>454.4</ele>
        <time>2016-12-30T10:27:22.000Z</time>
      </trkpt>
      <trkpt lat="47.45973" lon="6.74194">
        <ele>454.2</ele>
        <time>2016-12-30T10:27:23.000Z</time>
      </trkpt>
      <trkpt lat="47.45976" lon="6.74195">
        <ele>454</ele>
        <time>2016-12-30T10:27:24.000Z</time>
      </trkpt>
      <trkpt lat="47.4598" lon="6.74197">
        <ele>453.4</ele>
        <time>2016-12-30T10:27:26.000Z</time>
      </trkpt>
      <trkpt lat="47.45981" lon="6.742">
        <ele>453</ele>
        <time>2016-12-30T10:27:27.000Z</time>
      </trkpt>
      <trkpt lat="47.45981" lon="6.742">
        <ele>450.6</ele>
        <time>2016-12-30T10:27:34.000Z</time>
      </trkpt>
      <trkpt lat="47.45995" lon="6.74206">
        <ele>450.2</ele>
        <time>2016-12-30T10:27:35.000Z</time>
      </trkpt>
      <trkpt lat="47.45995" lon="6.74206">
        <ele>449.9</ele>
        <time>2016-12-30T10:27:38.000Z</time>
      </trkpt>
      <trkpt lat="47.4601" lon="6.7421">
        <ele>449.9</ele>
        <time>2016-12-30T10:27:39.000Z</time>
      </trkpt>
      <trkpt lat="47.4601" lon="6.7421">
        <ele>449.9</ele>
        <time>2016-12-30T10:27:40.000Z</time>
      </trkpt>
      <trkpt lat="47.46018" lon="6.74212">
        <ele>449.8</ele>
        <time>2016-12-30T10:27:41.000Z</time>
      </trkpt>
      <trkpt lat="47.46018" lon="6.74212">
        <ele>449.4</ele>
        <time>2016-12-30T10:27:45.000Z</time>
      </trkpt>
      <trkpt lat="47.4603" lon="6.7421">
        <ele>449.3</ele>
        <time>2016-12-30T10:27:46.000Z</time>
      </trkpt>
      <trkpt lat="47.4603" lon="6.7421">
        <ele>448.9</ele>
        <time>2016-12-30T10:27:48.000Z</time>
      </trkpt>
      <trkpt lat="47.4604" lon="6.7421">
        <ele>448.8</ele>
        <time>2016-12-30T10:27:49.000Z</time>
      </trkpt>
      <trkpt lat="47.46044" lon="6.7421">
        <ele>448.7</ele>
        <time>2016-12-30T10:27:50.000Z</time>
      </trkpt>
      <trkpt lat="47.46048" lon="6.7421">
        <ele>448.6</ele>
        <time>2016-12-30T10:27:51.000Z</time>
      </trkpt>
      <trkpt lat="47.4605" lon="6.7421">
        <ele>448.6</ele>
        <time>2016-12-30T10:27:52.000Z</time>
      </trkpt>
      <trkpt lat="47.46054" lon="6.7421">
        <ele>448.6</ele>
        <time>2016-12-30T10:27:53.000Z</time>
      </trkpt>
      <trkpt lat="47.46055" lon="6.74209">
        <ele>448.6</ele>
        <time>2016-12-30T10:27:54.000Z</time>
      </trkpt>
      <trkpt lat="47.46058" lon="6.74207">
        <ele>448.6</ele>
        <time>2016-12-30T10:27:55.000Z</time>
      </trkpt>
      <trkpt lat="47.46063" lon="6.74206">
        <ele>448.5</ele>
        <time>2016-12-30T10:27:57.000Z</time>
      </trkpt>
      <trkpt lat="47.46065" lon="6.74207">
        <ele>448.4</ele>
        <time>2016-12-30T10:27:58.000Z</time>
      </trkpt>
      <trkpt lat="47.46068" lon="6.74207">
        <ele>448.3</ele>
        <time>2016-12-30T10:27:59.000Z</time>
      </trkpt>
      <trkpt lat="47.46071" lon="6.74207">
        <ele>448.2</ele>
        <time>2016-12-30T10:28:00.000Z</time>
      </trkpt>
      <trkpt lat="47.46077" lon="6.74208">
        <ele>448.2</ele>
        <time>2016-12-30T10:28:01.000Z</time>
      </trkpt>
      <trkpt lat="47.46079" lon="6.74209">
        <ele>448.2</ele>
        <time>2016-12-30T10:28:02.000Z</time>
      </trkpt>
      <trkpt lat="47.46082" lon="6.74213">
        <ele>448.1</ele>
        <time>2016-12-30T10:28:03.000Z</time>
      </trkpt>
      <trkpt lat="47.46085" lon="6.74219">
        <ele>448</ele>
        <time>2016-12-30T10:28:04.000Z</time>
      </trkpt>
      <trkpt lat="47.46089" lon="6.74223">
        <ele>447.9</ele>
        <time>2016-12-30T10:28:05.000Z</time>
      </trkpt>
      <trkpt lat="47.46093" lon="6.74224">
        <ele>447.9</ele>
        <time>2016-12-30T10:28:06.000Z</time>
      </trkpt>
      <trkpt lat="47.46097" lon="6.74225">
        <ele>447.8</ele>
        <time>2016-12-30T10:28:07.000Z</time>
      </trkpt>
      <trkpt lat="47.46101" lon="6.74226">
        <ele>447.8</ele>
        <time>2016-12-30T10:28:08.000Z</time>
      </trkpt>
      <trkpt lat="47.46104" lon="6.74224">
        <ele>447.8</ele>
        <time>2016-12-30T10:28:09.000Z</time>
      </trkpt>
      <trkpt lat="47.46108" lon="6.74224">
        <ele>447.8</ele>
        <time>2016-12-30T10:28:10.000Z</time>
      </trkpt>
      <trkpt lat="47.46113" lon="6.74225">
        <ele>447.8</ele>
        <time>2016-12-30T10:28:11.000Z</time>
      </trkpt>
      <trkpt lat="47.46119" lon="6.74229">
        <ele>447.9</ele>
        <time>2016-12-30T10:28:12.000Z</time>
      </trkpt>
      <trkpt lat="47.46124" lon="6.74231">
        <ele>448</ele>
        <time>2016-12-30T10:28:13.000Z</time>
      </trkpt>
      <trkpt lat="47.46128" lon="6.74232">
        <ele>448.1</ele>
        <time>2016-12-30T10:28:14.000Z</time>
      </trkpt>
      <trkpt lat="47.46132" lon="6.74233">
        <ele>448.2</ele>
        <time>2016-12-30T10:28:15.000Z</time>
      </trkpt>
      <trkpt lat="47.46136" lon="6.74233">
        <ele>448.3</ele>
        <time>2016-12-30T10:28:16.000Z</time>
      </trkpt>
      <trkpt lat="47.46139" lon="6.74232">
        <ele>448.4</ele>
        <time>2016-12-30T10:28:17.000Z</time>
      </trkpt>
      <trkpt lat="47.46143" lon="6.74231">
        <ele>448.5</ele>
        <time>2016-12-30T10:28:18.000Z</time>
      </trkpt>
      <trkpt lat="47.46145" lon="6.74231">
        <ele>448.6</ele>
        <time>2016-12-30T10:28:19.000Z</time>
      </trkpt>
      <trkpt lat="47.46149" lon="6.74234">
        <ele>448.7</ele>
        <time>2016-12-30T10:28:21.000Z</time>
      </trkpt>
      <trkpt lat="47.46153" lon="6.74236">
        <ele>448.9</ele>
        <time>2016-12-30T10:28:22.000Z</time>
      </trkpt>
      <trkpt lat="47.46156" lon="6.74237">
        <ele>449.1</ele>
        <time>2016-12-30T10:28:23.000Z</time>
      </trkpt>
      <trkpt lat="47.46161" lon="6.74238">
        <ele>449.3</ele>
        <time>2016-12-30T10:28:24.000Z</time>
      </trkpt>
      <trkpt lat="47.46165" lon="6.74238">
        <ele>449.4</ele>
        <time>2016-12-30T10:28:25.000Z</time>
      </trkpt>
      <trkpt lat="47.46169" lon="6.74239">
        <ele>449.6</ele>
        <time>2016-12-30T10:28:26.000Z</time>
      </trkpt>
      <trkpt lat="47.46173" lon="6.74239">
        <ele>449.7</ele>
        <time>2016-12-30T10:28:27.000Z</time>
      </trkpt>
      <trkpt lat="47.46177" lon="6.7424">
        <ele>449.9</ele>
        <time>2016-12-30T10:28:28.000Z</time>
      </trkpt>
      <trkpt lat="47.46181" lon="6.74242">
        <ele>449.9</ele>
        <time>2016-12-30T10:28:29.000Z</time>
      </trkpt>
      <trkpt lat="47.46185" lon="6.74243">
        <ele>450</ele>
        <time>2016-12-30T10:28:30.000Z</time>
      </trkpt>
      <trkpt lat="47.46189" lon="6.74243">
        <ele>450.1</ele>
        <time>2016-12-30T10:28:31.000Z</time>
      </trkpt>
      <trkpt lat="47.46193" lon="6.74244">
        <ele>450.2</ele>
        <time>2016-12-30T10:28:32.000Z</time>
      </trkpt>
      <trkpt lat="47.46197" lon="6.74245">
        <ele>450.2</ele>
        <time>2016-12-30T10:28:33.000Z</time>
      </trkpt>
      <trkpt lat="47.462" lon="6.74246">
        <ele>450.3</ele>
        <time>2016-12-30T10:28:34.000Z</time>
      </trkpt>
      <trkpt lat="47.46204" lon="6.74247">
        <ele>450.3</ele>
        <time>2016-12-30T10:28:35.000Z</time>
      </trkpt>
      <trkpt lat="47.46207" lon="6.74248">
        <ele>450.3</ele>
        <time>2016-12-30T10:28:36.000Z</time>
      </trkpt>
      <trkpt lat="47.4621" lon="6.7425">
        <ele>450.2</ele>
        <time>2016-12-30T10:28:37.000Z</time>
      </trkpt>
      <trkpt lat="47.46214" lon="6.74252">
        <ele>450.1</ele>
        <time>2016-12-30T10:28:38.000Z</time>
      </trkpt>
      <trkpt lat="47.46219" lon="6.74255">
        <ele>450</ele>
        <time>2016-12-30T10:28:39.000Z</time>
      </trkpt>
      <trkpt lat="47.46223" lon="6.74258">
        <ele>449.9</ele>
        <time>2016-12-30T10:28:40.000Z</time>
      </trkpt>
      <trkpt lat="47.46226" lon="6.74261">
        <ele>449.8</ele>
        <time>2016-12-30T10:28:41.000Z</time>
      </trkpt>
      <trkpt lat="47.46229" lon="6.74263">
        <ele>449.8</ele>
        <time>2016-12-30T10:28:42.000Z</time>
      </trkpt>
      <trkpt lat="47.46233" lon="6.74263">
        <ele>449.7</ele>
        <time>2016-12-30T10:28:43.000Z</time>
      </trkpt>
      <trkpt lat="47.46236" lon="6.74264">
        <ele>449.7</ele>
        <time>2016-12-30T10:28:44.000Z</time>
      </trkpt>
      <trkpt lat="47.4624" lon="6.74265">
        <ele>449.6</ele>
        <time>2016-12-30T10:28:45.000Z</time>
      </trkpt>
      <trkpt lat="47.46242" lon="6.74263">
        <ele>449.6</ele>
        <time>2016-12-30T10:28:46.000Z</time>
      </trkpt>
      <trkpt lat="47.46245" lon="6.74264">
        <ele>449.2</ele>
        <time>2016-12-30T10:28:48.000Z</time>
      </trkpt>
      <trkpt lat="47.46247" lon="6.74265">
        <ele>449.1</ele>
        <time>2016-12-30T10:28:49.000Z</time>
      </trkpt>
      <trkpt lat="47.46249" lon="6.74267">
        <ele>448.9</ele>
        <time>2016-12-30T10:28:50.000Z</time>
      </trkpt>
      <trkpt lat="47.46252" lon="6.74268">
        <ele>448.7</ele>
        <time>2016-12-30T10:28:51.000Z</time>
      </trkpt>
      <trkpt lat="47.46255" lon="6.74269">
        <ele>448.6</ele>
        <time>2016-12-30T10:28:52.000Z</time>
      </trkpt>
      <trkpt lat="47.46259" lon="6.7427">
        <ele>448.4</ele>
        <time>2016-12-30T10:28:53.000Z</time>
      </trkpt>
      <trkpt lat="47.46262" lon="6.74269">
        <ele>448.1</ele>
        <time>2016-12-30T10:28:54.000Z</time>
      </trkpt>
      <trkpt lat="47.46265" lon="6.74267">
        <ele>447.9</ele>
        <time>2016-12-30T10:28:55.000Z</time>
      </trkpt>
      <trkpt lat="47.46269" lon="6.74267">
        <ele>447.4</ele>
        <time>2016-12-30T10:28:57.000Z</time>
      </trkpt>
      <trkpt lat="47.46271" lon="6.74269">
        <ele>447.2</ele>
        <time>2016-12-30T10:28:58.000Z</time>
      </trkpt>
      <trkpt lat="47.46273" lon="6.74272">
        <ele>447</ele>
        <time>2016-12-30T10:28:59.000Z</time>
      </trkpt>
      <trkpt lat="47.46275" lon="6.74274">
        <ele>446.7</ele>
        <time>2016-12-30T10:29:00.000Z</time>
      </trkpt>
      <trkpt lat="47.46277" lon="6.74276">
        <ele>446.4</ele>
        <time>2016-12-30T10:29:01.000Z</time>
      </trkpt>
      <trkpt lat="47.4628" lon="6.74276">
        <ele>446.1</ele>
        <time>2016-12-30T10:29:02.000Z</time>
      </trkpt>
      <trkpt lat="47.46283" lon="6.74277">
        <ele>445.8</ele>
        <time>2016-12-30T10:29:03.000Z</time>
      </trkpt>
      <trkpt lat="47.46286" lon="6.74278">
        <ele>445.5</ele>
        <time>2016-12-30T10:29:04.000Z</time>
      </trkpt>
      <trkpt lat="47.46289" lon="6.74278">
        <ele>445.2</ele>
        <time>2016-12-30T10:29:05.000Z</time>
      </trkpt>
      <trkpt lat="47.46292" lon="6.74279">
        <ele>445</ele>
        <time>2016-12-30T10:29:06.000Z</time>
      </trkpt>
      <trkpt lat="47.46296" lon="6.74283">
        <ele>444.8</ele>
        <time>2016-12-30T10:29:07.000Z</time>
      </trkpt>
      <trkpt lat="47.463" lon="6.74285">
        <ele>444.7</ele>
        <time>2016-12-30T10:29:08.000Z</time>
      </trkpt>
      <trkpt lat="47.46301" lon="6.74285">
        <ele>444.5</ele>
        <time>2016-12-30T10:29:09.000Z</time>
      </trkpt>
      <trkpt lat="47.46305" lon="6.74288">
        <ele>444.4</ele>
        <time>2016-12-30T10:29:10.000Z</time>
      </trkpt>
      <trkpt lat="47.46309" lon="6.7429">
        <ele>444.2</ele>
        <time>2016-12-30T10:29:11.000Z</time>
      </trkpt>
      <trkpt lat="47.46312" lon="6.74291">
        <ele>444</ele>
        <time>2016-12-30T10:29:12.000Z</time>
      </trkpt>
      <trkpt lat="47.46315" lon="6.74291">
        <ele>443.8</ele>
        <time>2016-12-30T10:29:13.000Z</time>
      </trkpt>
      <trkpt lat="47.46317" lon="6.74292">
        <ele>443.6</ele>
        <time>2016-12-30T10:29:14.000Z</time>
      </trkpt>
      <trkpt lat="47.46317" lon="6.74292">
        <ele>442.9</ele>
        <time>2016-12-30T10:29:18.000Z</time>
      </trkpt>
      <trkpt lat="47.46332" lon="6.74298">
        <ele>442.8</ele>
        <time>2016-12-30T10:29:19.000Z</time>
      </trkpt>
      <trkpt lat="47.46332" lon="6.74298">
        <ele>442.3</ele>
        <time>2016-12-30T10:29:23.000Z</time>
      </trkpt>
      <trkpt lat="47.46347" lon="6.74303">
        <ele>442.1</ele>
        <time>2016-12-30T10:29:24.000Z</time>
      </trkpt>
      <trkpt lat="47.46351" lon="6.74305">
        <ele>441.7</ele>
        <time>2016-12-30T10:29:25.000Z</time>
      </trkpt>
      <trkpt lat="47.46355" lon="6.74307">
        <ele>441.4</ele>
        <time>2016-12-30T10:29:26.000Z</time>
      </trkpt>
      <trkpt lat="47.46357" lon="6.74307">
        <ele>441.2</ele>
        <time>2016-12-30T10:29:27.000Z</time>
      </trkpt>
      <trkpt lat="47.46361" lon="6.74307">
        <ele>440.9</ele>
        <time>2016-12-30T10:29:28.000Z</time>
      </trkpt>
      <trkpt lat="47.46363" lon="6.74308">
        <ele>440.5</ele>
        <time>2016-12-30T10:29:29.000Z</time>
      </trkpt>
      <trkpt lat="47.46366" lon="6.7431">
        <ele>440.1</ele>
        <time>2016-12-30T10:29:30.000Z</time>
      </trkpt>
      <trkpt lat="47.4637" lon="6.74311">
        <ele>439.7</ele>
        <time>2016-12-30T10:29:31.000Z</time>
      </trkpt>
      <trkpt lat="47.46374" lon="6.74311">
        <ele>439.3</ele>
        <time>2016-12-30T10:29:32.000Z</time>
      </trkpt>
      <trkpt lat="47.46377" lon="6.74312">
        <ele>439</ele>
        <time>2016-12-30T10:29:33.000Z</time>
      </trkpt>
      <trkpt lat="47.46381" lon="6.74314">
        <ele>438.6</ele>
        <time>2016-12-30T10:29:34.000Z</time>
      </trkpt>
      <trkpt lat="47.46384" lon="6.74315">
        <ele>438.2</ele>
        <time>2016-12-30T10:29:35.000Z</time>
      </trkpt>
      <trkpt lat="47.46386" lon="6.74318">
        <ele>437.9</ele>
        <time>2016-12-30T10:29:36.000Z</time>
      </trkpt>
      <trkpt lat="47.46392" lon="6.7432">
        <ele>434.1</ele>
        <time>2016-12-30T10:29:37.000Z</time>
      </trkpt>
      <trkpt lat="47.46396" lon="6.74321">
        <ele>433.8</ele>
        <time>2016-12-30T10:29:38.000Z</time>
      </trkpt>
      <trkpt lat="47.46399" lon="6.74323">
        <ele>433.4</ele>
        <time>2016-12-30T10:29:39.000Z</time>
      </trkpt>
      <trkpt lat="47.46402" lon="6.74324">
        <ele>433.1</ele>
        <time>2016-12-30T10:29:40.000Z</time>
      </trkpt>
      <trkpt lat="47.46405" lon="6.74325">
        <ele>432.8</ele>
        <time>2016-12-30T10:29:41.000Z</time>
      </trkpt>
      <trkpt lat="47.46409" lon="6.74328">
        <ele>432.6</ele>
        <time>2016-12-30T10:29:42.000Z</time>
      </trkpt>
      <trkpt lat="47.46411" lon="6.74331">
        <ele>432.3</ele>
        <time>2016-12-30T10:29:43.000Z</time>
      </trkpt>
      <trkpt lat="47.46415" lon="6.74336">
        <ele>432</ele>
        <time>2016-12-30T10:29:44.000Z</time>
      </trkpt>
      <trkpt lat="47.46419" lon="6.7434">
        <ele>431.8</ele>
        <time>2016-12-30T10:29:45.000Z</time>
      </trkpt>
      <trkpt lat="47.46421" lon="6.74342">
        <ele>431</ele>
        <time>2016-12-30T10:29:50.000Z</time>
      </trkpt>
      <trkpt lat="47.46437" lon="6.74366">
        <ele>431</ele>
        <time>2016-12-30T10:29:51.000Z</time>
      </trkpt>
      <trkpt lat="47.46442" lon="6.74371">
        <ele>430.9</ele>
        <time>2016-12-30T10:29:52.000Z</time>
      </trkpt>
      <trkpt lat="47.4645" lon="6.74377">
        <ele>430.8</ele>
        <time>2016-12-30T10:29:53.000Z</time>
      </trkpt>
      <trkpt lat="47.46457" lon="6.74381">
        <ele>430.7</ele>
        <time>2016-12-30T10:29:54.000Z</time>
      </trkpt>
      <trkpt lat="47.46464" lon="6.74383">
        <ele>430.6</ele>
        <time>2016-12-30T10:29:55.000Z</time>
      </trkpt>
      <trkpt lat="47.46471" lon="6.74387">
        <ele>429.1</ele>
        <time>2016-12-30T10:29:56.000Z</time>
      </trkpt>
      <trkpt lat="47.46475" lon="6.74391">
        <ele>429</ele>
        <time>2016-12-30T10:29:57.000Z</time>
      </trkpt>
      <trkpt lat="47.4648" lon="6.74394">
        <ele>428.9</ele>
        <time>2016-12-30T10:29:58.000Z</time>
      </trkpt>
      <trkpt lat="47.46484" lon="6.74396">
        <ele>428.7</ele>
        <time>2016-12-30T10:29:59.000Z</time>
      </trkpt>
      <trkpt lat="47.46488" lon="6.74399">
        <ele>428.4</ele>
        <time>2016-12-30T10:30:00.000Z</time>
      </trkpt>
      <trkpt lat="47.46493" lon="6.74402">
        <ele>424.8</ele>
        <time>2016-12-30T10:30:01.000Z</time>
      </trkpt>
      <trkpt lat="47.46498" lon="6.74406">
        <ele>424.5</ele>
        <time>2016-12-30T10:30:02.000Z</time>
      </trkpt>
      <trkpt lat="47.46503" lon="6.74411">
        <ele>421.4</ele>
        <time>2016-12-30T10:30:03.000Z</time>
      </trkpt>
      <trkpt lat="47.46507" lon="6.74416">
        <ele>421.1</ele>
        <time>2016-12-30T10:30:04.000Z</time>
      </trkpt>
      <trkpt lat="47.46511" lon="6.74421">
        <ele>420.7</ele>
        <time>2016-12-30T10:30:05.000Z</time>
      </trkpt>
      <trkpt lat="47.46514" lon="6.74425">
        <ele>420.3</ele>
        <time>2016-12-30T10:30:06.000Z</time>
      </trkpt>
      <trkpt lat="47.46517" lon="6.74435">
        <ele>420</ele>
        <time>2016-12-30T10:30:07.000Z</time>
      </trkpt>
      <trkpt lat="47.46523" lon="6.74444">
        <ele>419.8</ele>
        <time>2016-12-30T10:30:08.000Z</time>
      </trkpt>
      <trkpt lat="47.46529" lon="6.74453">
        <ele>419.5</ele>
        <time>2016-12-30T10:30:09.000Z</time>
      </trkpt>
      <trkpt lat="47.46534" lon="6.74457">
        <ele>419.2</ele>
        <time>2016-12-30T10:30:10.000Z</time>
      </trkpt>
      <trkpt lat="47.46536" lon="6.74461">
        <ele>415</ele>
        <time>2016-12-30T10:30:11.000Z</time>
      </trkpt>
      <trkpt lat="47.46539" lon="6.74467">
        <ele>414.7</ele>
        <time>2016-12-30T10:30:12.000Z</time>
      </trkpt>
      <trkpt lat="47.46542" lon="6.74472">
        <ele>414.3</ele>
        <time>2016-12-30T10:30:13.000Z</time>
      </trkpt>
      <trkpt lat="47.46547" lon="6.74478">
        <ele>414</ele>
        <time>2016-12-30T10:30:14.000Z</time>
      </trkpt>
      <trkpt lat="47.46552" lon="6.74483">
        <ele>410.1</ele>
        <time>2016-12-30T10:30:15.000Z</time>
      </trkpt>
      <trkpt lat="47.46558" lon="6.74489">
        <ele>407</ele>
        <time>2016-12-30T10:30:16.000Z</time>
      </trkpt>
      <trkpt lat="47.46564" lon="6.74496">
        <ele>406.7</ele>
        <time>2016-12-30T10:30:17.000Z</time>
      </trkpt>
      <trkpt lat="47.4657" lon="6.74504">
        <ele>403.2</ele>
        <time>2016-12-30T10:30:18.000Z</time>
      </trkpt>
      <trkpt lat="47.46576" lon="6.74514">
        <ele>400.4</ele>
        <time>2016-12-30T10:30:19.000Z</time>
      </trkpt>
      <trkpt lat="47.46582" lon="6.74524">
        <ele>398.4</ele>
        <time>2016-12-30T10:30:20.000Z</time>
      </trkpt>
      <trkpt lat="47.46588" lon="6.74534">
        <ele>397.5</ele>
        <time>2016-12-30T10:30:21.000Z</time>
      </trkpt>
      <trkpt lat="47.46594" lon="6.74545">
        <ele>397.8</ele>
        <time>2016-12-30T10:30:22.000Z</time>
      </trkpt>
      <trkpt lat="47.466" lon="6.74554">
        <ele>397.9</ele>
        <time>2016-12-30T10:30:23.000Z</time>
      </trkpt>
      <trkpt lat="47.46605" lon="6.74559">
        <ele>398</ele>
        <time>2016-12-30T10:30:24.000Z</time>
      </trkpt>
      <trkpt lat="47.46614" lon="6.74565">
        <ele>398.2</ele>
        <time>2016-12-30T10:30:25.000Z</time>
      </trkpt>
      <trkpt lat="47.46621" lon="6.74574">
        <ele>398.7</ele>
        <time>2016-12-30T10:30:26.000Z</time>
      </trkpt>
      <trkpt lat="47.46629" lon="6.7459">
        <ele>398.7</ele>
        <time>2016-12-30T10:30:27.000Z</time>
      </trkpt>
      <trkpt lat="47.46635" lon="6.746">
        <ele>399.1</ele>
        <time>2016-12-30T10:30:28.000Z</time>
      </trkpt>
      <trkpt lat="47.4664" lon="6.74612">
        <ele>398.7</ele>
        <time>2016-12-30T10:30:29.000Z</time>
      </trkpt>
      <trkpt lat="47.46647" lon="6.74623">
        <ele>396.3</ele>
        <time>2016-12-30T10:30:30.000Z</time>
      </trkpt>
      <trkpt lat="47.46653" lon="6.74631">
        <ele>394</ele>
        <time>2016-12-30T10:30:31.000Z</time>
      </trkpt>
      <trkpt lat="47.46658" lon="6.74637">
        <ele>392.2</ele>
        <time>2016-12-30T10:30:32.000Z</time>
      </trkpt>
      <trkpt lat="47.46663" lon="6.74642">
        <ele>391.4</ele>
        <time>2016-12-30T10:30:33.000Z</time>
      </trkpt>
      <trkpt lat="47.46668" lon="6.74646">
        <ele>390.8</ele>
        <time>2016-12-30T10:30:34.000Z</time>
      </trkpt>
      <trkpt lat="47.46675" lon="6.74653">
        <ele>389.5</ele>
        <time>2016-12-30T10:30:35.000Z</time>
      </trkpt>
      <trkpt lat="47.4668" lon="6.74664">
        <ele>388.5</ele>
        <time>2016-12-30T10:30:36.000Z</time>
      </trkpt>
      <trkpt lat="47.46685" lon="6.7467">
        <ele>388.3</ele>
        <time>2016-12-30T10:30:37.000Z</time>
      </trkpt>
      <trkpt lat="47.4669" lon="6.74676">
        <ele>388.1</ele>
        <time>2016-12-30T10:30:38.000Z</time>
      </trkpt>
      <trkpt lat="47.46694" lon="6.74681">
        <ele>388.4</ele>
        <time>2016-12-30T10:30:39.000Z</time>
      </trkpt>
      <trkpt lat="47.46698" lon="6.74684">
        <ele>388.4</ele>
        <time>2016-12-30T10:30:40.000Z</time>
      </trkpt>
      <trkpt lat="47.46703" lon="6.74687">
        <ele>388.6</ele>
        <time>2016-12-30T10:30:41.000Z</time>
      </trkpt>
      <trkpt lat="47.46707" lon="6.7469">
        <ele>388.8</ele>
        <time>2016-12-30T10:30:42.000Z</time>
      </trkpt>
      <trkpt lat="47.46712" lon="6.74694">
        <ele>389</ele>
        <time>2016-12-30T10:30:43.000Z</time>
      </trkpt>
      <trkpt lat="47.4672" lon="6.74698">
        <ele>389.3</ele>
        <time>2016-12-30T10:30:44.000Z</time>
      </trkpt>
      <trkpt lat="47.46725" lon="6.747">
        <ele>389.6</ele>
        <time>2016-12-30T10:30:45.000Z</time>
      </trkpt>
      <trkpt lat="47.46729" lon="6.74702">
        <ele>389.9</ele>
        <time>2016-12-30T10:30:46.000Z</time>
      </trkpt>
      <trkpt lat="47.46732" lon="6.74703">
        <ele>390.1</ele>
        <time>2016-12-30T10:30:47.000Z</time>
      </trkpt>
      <trkpt lat="47.46736" lon="6.74704">
        <ele>390.3</ele>
        <time>2016-12-30T10:30:48.000Z</time>
      </trkpt>
      <trkpt lat="47.4674" lon="6.74704">
        <ele>390.5</ele>
        <time>2016-12-30T10:30:49.000Z</time>
      </trkpt>
      <trkpt lat="47.46743" lon="6.74706">
        <ele>390.7</ele>
        <time>2016-12-30T10:30:50.000Z</time>
      </trkpt>
      <trkpt lat="47.46746" lon="6.74709">
        <ele>391</ele>
        <time>2016-12-30T10:30:51.000Z</time>
      </trkpt>
      <trkpt lat="47.46747" lon="6.74713">
        <ele>391.3</ele>
        <time>2016-12-30T10:30:52.000Z</time>
      </trkpt>
      <trkpt lat="47.46746" lon="6.74716">
        <ele>391.5</ele>
        <time>2016-12-30T10:30:53.000Z</time>
      </trkpt>
      <trkpt lat="47.46744" lon="6.7472">
        <ele>391.8</ele>
        <time>2016-12-30T10:30:54.000Z</time>
      </trkpt>
      <trkpt lat="47.4674" lon="6.74723">
        <ele>392</ele>
        <time>2016-12-30T10:30:55.000Z</time>
      </trkpt>
      <trkpt lat="47.46738" lon="6.74725">
        <ele>392.3</ele>
        <time>2016-12-30T10:30:56.000Z</time>
      </trkpt>
      <trkpt lat="47.46735" lon="6.74729">
        <ele>393</ele>
        <time>2016-12-30T10:30:58.000Z</time>
      </trkpt>
      <trkpt lat="47.46733" lon="6.74731">
        <ele>393.4</ele>
        <time>2016-12-30T10:30:59.000Z</time>
      </trkpt>
      <trkpt lat="47.46736" lon="6.74726">
        <ele>396.1</ele>
        <time>2016-12-30T10:31:35.000Z</time>
      </trkpt>
      <trkpt lat="47.46736" lon="6.74725">
        <ele>396.5</ele>
        <time>2016-12-30T10:31:36.000Z</time>
      </trkpt>
      <trkpt lat="47.46736" lon="6.7473">
        <ele>397.2</ele>
        <time>2016-12-30T10:32:15.000Z</time>
      </trkpt>
      <trkpt lat="47.46734" lon="6.74734">
        <ele>397.2</ele>
        <time>2016-12-30T10:32:16.000Z</time>
      </trkpt>
      <trkpt lat="47.46732" lon="6.74737">
        <ele>397.2</ele>
        <time>2016-12-30T10:32:17.000Z</time>
      </trkpt>
      <trkpt lat="47.46731" lon="6.7474">
        <ele>397.2</ele>
        <time>2016-12-30T10:32:18.000Z</time>
      </trkpt>
      <trkpt lat="47.46729" lon="6.74744">
        <ele>397.2</ele>
        <time>2016-12-30T10:32:19.000Z</time>
      </trkpt>
      <trkpt lat="47.46728" lon="6.74747">
        <ele>397.1</ele>
        <time>2016-12-30T10:32:20.000Z</time>
      </trkpt>
      <trkpt lat="47.46726" lon="6.7475">
        <ele>397</ele>
        <time>2016-12-30T10:32:21.000Z</time>
      </trkpt>
      <trkpt lat="47.46725" lon="6.74752">
        <ele>396.9</ele>
        <time>2016-12-30T10:32:22.000Z</time>
      </trkpt>
      <trkpt lat="47.46723" lon="6.74755">
        <ele>396.6</ele>
        <time>2016-12-30T10:32:23.000Z</time>
      </trkpt>
      <trkpt lat="47.46722" lon="6.74758">
        <ele>396.4</ele>
        <time>2016-12-30T10:32:24.000Z</time>
      </trkpt>
      <trkpt lat="47.46719" lon="6.74761">
        <ele>396.1</ele>
        <time>2016-12-30T10:32:25.000Z</time>
      </trkpt>
      <trkpt lat="47.46717" lon="6.74764">
        <ele>395.9</ele>
        <time>2016-12-30T10:32:26.000Z</time>
      </trkpt>
      <trkpt lat="47.46715" lon="6.74767">
        <ele>395.7</ele>
        <time>2016-12-30T10:32:27.000Z</time>
      </trkpt>
      <trkpt lat="47.46713" lon="6.74769">
        <ele>395.5</ele>
        <time>2016-12-30T10:32:28.000Z</time>
      </trkpt>
      <trkpt lat="47.4671" lon="6.74773">
        <ele>395.1</ele>
        <time>2016-12-30T10:32:30.000Z</time>
      </trkpt>
      <trkpt lat="47.46709" lon="6.74776">
        <ele>395</ele>
        <time>2016-12-30T10:32:31.000Z</time>
      </trkpt>
      <trkpt lat="47.46707" lon="6.74781">
        <ele>395</ele>
        <time>2016-12-30T10:32:33.000Z</time>
      </trkpt>
      <trkpt lat="47.46706" lon="6.74783">
        <ele>395</ele>
        <time>2016-12-30T10:32:34.000Z</time>
      </trkpt>
      <trkpt lat="47.46705" lon="6.74787">
        <ele>395</ele>
        <time>2016-12-30T10:32:35.000Z</time>
      </trkpt>
      <trkpt lat="47.46704" lon="6.7479">
        <ele>395</ele>
        <time>2016-12-30T10:32:36.000Z</time>
      </trkpt>
      <trkpt lat="47.46704" lon="6.74796">
        <ele>395.2</ele>
        <time>2016-12-30T10:32:38.000Z</time>
      </trkpt>
      <trkpt lat="47.46704" lon="6.74799">
        <ele>395.3</ele>
        <time>2016-12-30T10:32:39.000Z</time>
      </trkpt>
      <trkpt lat="47.46704" lon="6.74805">
        <ele>395.8</ele>
        <time>2016-12-30T10:32:41.000Z</time>
      </trkpt>
      <trkpt lat="47.46704" lon="6.74808">
        <ele>395.9</ele>
        <time>2016-12-30T10:32:42.000Z</time>
      </trkpt>
      <trkpt lat="47.46704" lon="6.74812">
        <ele>396.1</ele>
        <time>2016-12-30T10:32:43.000Z</time>
      </trkpt>
      <trkpt lat="47.46704" lon="6.74814">
        <ele>396.2</ele>
        <time>2016-12-30T10:32:44.000Z</time>
      </trkpt>
      <trkpt lat="47.46704" lon="6.74819">
        <ele>396.7</ele>
        <time>2016-12-30T10:32:47.000Z</time>
      </trkpt>
      <trkpt lat="47.46703" lon="6.74821">
        <ele>396.8</ele>
        <time>2016-12-30T10:32:48.000Z</time>
      </trkpt>
      <trkpt lat="47.46701" lon="6.74826">
        <ele>397.4</ele>
        <time>2016-12-30T10:32:51.000Z</time>
      </trkpt>
      <trkpt lat="47.467" lon="6.74827">
        <ele>397.6</ele>
        <time>2016-12-30T10:32:52.000Z</time>
      </trkpt>
      <trkpt lat="47.46697" lon="6.74828">
        <ele>398</ele>
        <time>2016-12-30T10:32:54.000Z</time>
      </trkpt>
      <trkpt lat="47.46695" lon="6.74829">
        <ele>398.2</ele>
        <time>2016-12-30T10:32:55.000Z</time>
      </trkpt>
      <trkpt lat="47.46692" lon="6.74829">
        <ele>398.7</ele>
        <time>2016-12-30T10:32:58.000Z</time>
      </trkpt>
      <trkpt lat="47.4669" lon="6.74828">
        <ele>398.9</ele>
        <time>2016-12-30T10:32:59.000Z</time>
      </trkpt>
      <trkpt lat="47.46686" lon="6.74828">
        <ele>399.3</ele>
        <time>2016-12-30T10:33:01.000Z</time>
      </trkpt>
      <trkpt lat="47.46685" lon="6.74827">
        <ele>399.4</ele>
        <time>2016-12-30T10:33:02.000Z</time>
      </trkpt>
      <trkpt lat="47.46681" lon="6.74826">
        <ele>399.6</ele>
        <time>2016-12-30T10:33:04.000Z</time>
      </trkpt>
      <trkpt lat="47.46679" lon="6.74826">
        <ele>399.8</ele>
        <time>2016-12-30T10:33:05.000Z</time>
      </trkpt>
      <trkpt lat="47.46676" lon="6.74826">
        <ele>400.3</ele>
        <time>2016-12-30T10:33:08.000Z</time>
      </trkpt>
      <trkpt lat="47.46674" lon="6.74827">
        <ele>400.6</ele>
        <time>2016-12-30T10:33:09.000Z</time>
      </trkpt>
      <trkpt lat="47.46671" lon="6.74826">
        <ele>401.5</ele>
        <time>2016-12-30T10:33:12.000Z</time>
      </trkpt>
      <trkpt lat="47.46669" lon="6.74825">
        <ele>401.7</ele>
        <time>2016-12-30T10:33:13.000Z</time>
      </trkpt>
      <trkpt lat="47.46666" lon="6.74824">
        <ele>402.2</ele>
        <time>2016-12-30T10:33:15.000Z</time>
      </trkpt>
      <trkpt lat="47.46664" lon="6.74825">
        <ele>402.4</ele>
        <time>2016-12-30T10:33:16.000Z</time>
      </trkpt>
      <trkpt lat="47.46661" lon="6.74824">
        <ele>403</ele>
        <time>2016-12-30T10:33:18.000Z</time>
      </trkpt>
      <trkpt lat="47.46659" lon="6.74823">
        <ele>403.3</ele>
        <time>2016-12-30T10:33:19.000Z</time>
      </trkpt>
      <trkpt lat="47.46655" lon="6.74824">
        <ele>403.8</ele>
        <time>2016-12-30T10:33:21.000Z</time>
      </trkpt>
      <trkpt lat="47.46653" lon="6.74825">
        <ele>404</ele>
        <time>2016-12-30T10:33:22.000Z</time>
      </trkpt>
      <trkpt lat="47.46651" lon="6.74825">
        <ele>404.2</ele>
        <time>2016-12-30T10:33:23.000Z</time>
      </trkpt>
      <trkpt lat="47.46648" lon="6.74824">
        <ele>404.4</ele>
        <time>2016-12-30T10:33:24.000Z</time>
      </trkpt>
      <trkpt lat="47.46644" lon="6.74824">
        <ele>404.7</ele>
        <time>2016-12-30T10:33:26.000Z</time>
      </trkpt>
      <trkpt lat="47.46642" lon="6.74824">
        <ele>404.9</ele>
        <time>2016-12-30T10:33:27.000Z</time>
      </trkpt>
      <trkpt lat="47.46638" lon="6.74824">
        <ele>405.2</ele>
        <time>2016-12-30T10:33:29.000Z</time>
      </trkpt>
      <trkpt lat="47.46636" lon="6.74824">
        <ele>405.4</ele>
        <time>2016-12-30T10:33:30.000Z</time>
      </trkpt>
      <trkpt lat="47.46632" lon="6.74825">
        <ele>405.8</ele>
        <time>2016-12-30T10:33:33.000Z</time>
      </trkpt>
      <trkpt lat="47.46631" lon="6.74828">
        <ele>405.9</ele>
        <time>2016-12-30T10:33:34.000Z</time>
      </trkpt>
      <trkpt lat="47.46631" lon="6.74834">
        <ele>406.1</ele>
        <time>2016-12-30T10:33:37.000Z</time>
      </trkpt>
      <trkpt lat="47.46633" lon="6.74835">
        <ele>406.2</ele>
        <time>2016-12-30T10:33:38.000Z</time>
      </trkpt>
      <trkpt lat="47.46634" lon="6.74837">
        <ele>406.1</ele>
        <time>2016-12-30T10:33:39.000Z</time>
      </trkpt>
      <trkpt lat="47.46636" lon="6.7484">
        <ele>406.1</ele>
        <time>2016-12-30T10:33:40.000Z</time>
      </trkpt>
      <trkpt lat="47.46639" lon="6.74838">
        <ele>408.5</ele>
        <time>2016-12-30T10:33:58.000Z</time>
      </trkpt>
      <trkpt lat="47.4664" lon="6.74836">
        <ele>408.5</ele>
        <time>2016-12-30T10:33:59.000Z</time>
      </trkpt>
      <trkpt lat="47.46636" lon="6.74831">
        <ele>407.4</ele>
        <time>2016-12-30T10:34:28.000Z</time>
      </trkpt>
      <trkpt lat="47.46636" lon="6.74831">
        <ele>407.4</ele>
        <time>2016-12-30T10:34:29.000Z</time>
      </trkpt>
      <trkpt lat="47.46637" lon="6.74835">
        <ele>407</ele>
        <time>2016-12-30T10:34:42.000Z</time>
      </trkpt>
      <trkpt lat="47.46639" lon="6.74836">
        <ele>407</ele>
        <time>2016-12-30T10:34:43.000Z</time>
      </trkpt>
      <trkpt lat="47.4664" lon="6.7484">
        <ele>406.9</ele>
        <time>2016-12-30T10:34:44.000Z</time>
      </trkpt>
      <trkpt lat="47.46642" lon="6.74844">
        <ele>407</ele>
        <time>2016-12-30T10:34:45.000Z</time>
      </trkpt>
      <trkpt lat="47.46644" lon="6.74848">
        <ele>407</ele>
        <time>2016-12-30T10:34:46.000Z</time>
      </trkpt>
      <trkpt lat="47.46645" lon="6.74852">
        <ele>407</ele>
        <time>2016-12-30T10:34:47.000Z</time>
      </trkpt>
      <trkpt lat="47.46646" lon="6.74857">
        <ele>407.1</ele>
        <time>2016-12-30T10:34:48.000Z</time>
      </trkpt>
      <trkpt lat="47.46648" lon="6.74862">
        <ele>407.1</ele>
        <time>2016-12-30T10:34:49.000Z</time>
      </trkpt>
      <trkpt lat="47.4665" lon="6.74867">
        <ele>407.1</ele>
        <time>2016-12-30T10:34:50.000Z</time>
      </trkpt>
      <trkpt lat="47.46651" lon="6.74871">
        <ele>407.2</ele>
        <time>2016-12-30T10:34:51.000Z</time>
      </trkpt>
      <trkpt lat="47.46653" lon="6.74874">
        <ele>407.2</ele>
        <time>2016-12-30T10:34:52.000Z</time>
      </trkpt>
      <trkpt lat="47.46655" lon="6.74878">
        <ele>407.2</ele>
        <time>2016-12-30T10:34:53.000Z</time>
      </trkpt>
      <trkpt lat="47.46656" lon="6.74881">
        <ele>407.3</ele>
        <time>2016-12-30T10:34:54.000Z</time>
      </trkpt>
      <trkpt lat="47.46658" lon="6.74884">
        <ele>407.4</ele>
        <time>2016-12-30T10:34:55.000Z</time>
      </trkpt>
      <trkpt lat="47.4666" lon="6.74888">
        <ele>407.5</ele>
        <time>2016-12-30T10:34:56.000Z</time>
      </trkpt>
      <trkpt lat="47.46661" lon="6.74891">
        <ele>407.5</ele>
        <time>2016-12-30T10:34:57.000Z</time>
      </trkpt>
      <trkpt lat="47.46663" lon="6.74895">
        <ele>407.7</ele>
        <time>2016-12-30T10:34:58.000Z</time>
      </trkpt>
      <trkpt lat="47.46664" lon="6.74897">
        <ele>407.9</ele>
        <time>2016-12-30T10:34:59.000Z</time>
      </trkpt>
      <trkpt lat="47.46666" lon="6.749">
        <ele>408</ele>
        <time>2016-12-30T10:35:00.000Z</time>
      </trkpt>
      <trkpt lat="47.46667" lon="6.74905">
        <ele>408</ele>
        <time>2016-12-30T10:35:01.000Z</time>
      </trkpt>
      <trkpt lat="47.46668" lon="6.74908">
        <ele>408.1</ele>
        <time>2016-12-30T10:35:02.000Z</time>
      </trkpt>
      <trkpt lat="47.4667" lon="6.74911">
        <ele>408.2</ele>
        <time>2016-12-30T10:35:03.000Z</time>
      </trkpt>
      <trkpt lat="47.46671" lon="6.74915">
        <ele>408.2</ele>
        <time>2016-12-30T10:35:04.000Z</time>
      </trkpt>
      <trkpt lat="47.46673" lon="6.74917">
        <ele>408.3</ele>
        <time>2016-12-30T10:35:05.000Z</time>
      </trkpt>
      <trkpt lat="47.46675" lon="6.74922">
        <ele>408.3</ele>
        <time>2016-12-30T10:35:07.000Z</time>
      </trkpt>
      <trkpt lat="47.46676" lon="6.74925">
        <ele>408.2</ele>
        <time>2016-12-30T10:35:08.000Z</time>
      </trkpt>
      <trkpt lat="47.46677" lon="6.74929">
        <ele>408.3</ele>
        <time>2016-12-30T10:35:09.000Z</time>
      </trkpt>
      <trkpt lat="47.46679" lon="6.74933">
        <ele>408.2</ele>
        <time>2016-12-30T10:35:10.000Z</time>
      </trkpt>
      <trkpt lat="47.46681" lon="6.74936">
        <ele>408.2</ele>
        <time>2016-12-30T10:35:11.000Z</time>
      </trkpt>
      <trkpt lat="47.46683" lon="6.7494">
        <ele>408</ele>
        <time>2016-12-30T10:35:12.000Z</time>
      </trkpt>
      <trkpt lat="47.46684" lon="6.74946">
        <ele>408</ele>
        <time>2016-12-30T10:35:13.000Z</time>
      </trkpt>
      <trkpt lat="47.46686" lon="6.7495">
        <ele>407.8</ele>
        <time>2016-12-30T10:35:14.000Z</time>
      </trkpt>
      <trkpt lat="47.46687" lon="6.74954">
        <ele>407.7</ele>
        <time>2016-12-30T10:35:15.000Z</time>
      </trkpt>
      <trkpt lat="47.46688" lon="6.74959">
        <ele>407.6</ele>
        <time>2016-12-30T10:35:16.000Z</time>
      </trkpt>
      <trkpt lat="47.46688" lon="6.74964">
        <ele>407.5</ele>
        <time>2016-12-30T10:35:17.000Z</time>
      </trkpt>
      <trkpt lat="47.46689" lon="6.74968">
        <ele>407.3</ele>
        <time>2016-12-30T10:35:18.000Z</time>
      </trkpt>
      <trkpt lat="47.4669" lon="6.74971">
        <ele>407.2</ele>
        <time>2016-12-30T10:35:19.000Z</time>
      </trkpt>
      <trkpt lat="47.46692" lon="6.74974">
        <ele>407.1</ele>
        <time>2016-12-30T10:35:20.000Z</time>
      </trkpt>
      <trkpt lat="47.46694" lon="6.74977">
        <ele>406.9</ele>
        <time>2016-12-30T10:35:21.000Z</time>
      </trkpt>
      <trkpt lat="47.46696" lon="6.7498">
        <ele>406.8</ele>
        <time>2016-12-30T10:35:22.000Z</time>
      </trkpt>
      <trkpt lat="47.46696" lon="6.74984">
        <ele>406.6</ele>
        <time>2016-12-30T10:35:23.000Z</time>
      </trkpt>
      <trkpt lat="47.46695" lon="6.74988">
        <ele>406.4</ele>
        <time>2016-12-30T10:35:24.000Z</time>
      </trkpt>
      <trkpt lat="47.46695" lon="6.74992">
        <ele>406.2</ele>
        <time>2016-12-30T10:35:25.000Z</time>
      </trkpt>
      <trkpt lat="47.46695" lon="6.74997">
        <ele>406</ele>
        <time>2016-12-30T10:35:26.000Z</time>
      </trkpt>
      <trkpt lat="47.46696" lon="6.75">
        <ele>405.8</ele>
        <time>2016-12-30T10:35:27.000Z</time>
      </trkpt>
      <trkpt lat="47.46698" lon="6.75005">
        <ele>405.6</ele>
        <time>2016-12-30T10:35:28.000Z</time>
      </trkpt>
      <trkpt lat="47.467" lon="6.7501">
        <ele>405.4</ele>
        <time>2016-12-30T10:35:29.000Z</time>
      </trkpt>
      <trkpt lat="47.467" lon="6.75015">
        <ele>405.1</ele>
        <time>2016-12-30T10:35:30.000Z</time>
      </trkpt>
      <trkpt lat="47.46702" lon="6.75019">
        <ele>405</ele>
        <time>2016-12-30T10:35:31.000Z</time>
      </trkpt>
      <trkpt lat="47.46702" lon="6.75022">
        <ele>404.8</ele>
        <time>2016-12-30T10:35:32.000Z</time>
      </trkpt>
      <trkpt lat="47.46703" lon="6.75027">
        <ele>404.7</ele>
        <time>2016-12-30T10:35:33.000Z</time>
      </trkpt>
      <trkpt lat="47.46706" lon="6.75031">
        <ele>404.6</ele>
        <time>2016-12-30T10:35:34.000Z</time>
      </trkpt>
      <trkpt lat="47.46707" lon="6.75035">
        <ele>404.4</ele>
        <time>2016-12-30T10:35:35.000Z</time>
      </trkpt>
      <trkpt lat="47.46709" lon="6.75038">
        <ele>404.3</ele>
        <time>2016-12-30T10:35:36.000Z</time>
      </trkpt>
      <trkpt lat="47.46712" lon="6.75041">
        <ele>404</ele>
        <time>2016-12-30T10:35:38.000Z</time>
      </trkpt>
      <trkpt lat="47.46713" lon="6.75043">
        <ele>404.1</ele>
        <time>2016-12-30T10:35:39.000Z</time>
      </trkpt>
      <trkpt lat="47.46714" lon="6.75049">
        <ele>404.1</ele>
        <time>2016-12-30T10:35:42.000Z</time>
      </trkpt>
      <trkpt lat="47.46715" lon="6.75052">
        <ele>404.2</ele>
        <time>2016-12-30T10:35:43.000Z</time>
      </trkpt>
      <trkpt lat="47.46717" lon="6.75055">
        <ele>404.2</ele>
        <time>2016-12-30T10:35:44.000Z</time>
      </trkpt>
      <trkpt lat="47.46719" lon="6.75059">
        <ele>404.2</ele>
        <time>2016-12-30T10:35:45.000Z</time>
      </trkpt>
      <trkpt lat="47.4672" lon="6.75063">
        <ele>404.2</ele>
        <time>2016-12-30T10:35:46.000Z</time>
      </trkpt>
      <trkpt lat="47.46721" lon="6.75068">
        <ele>404.2</ele>
        <time>2016-12-30T10:35:47.000Z</time>
      </trkpt>
      <trkpt lat="47.46722" lon="6.75073">
        <ele>404.2</ele>
        <time>2016-12-30T10:35:48.000Z</time>
      </trkpt>
      <trkpt lat="47.46723" lon="6.75077">
        <ele>404.2</ele>
        <time>2016-12-30T10:35:49.000Z</time>
      </trkpt>
      <trkpt lat="47.46723" lon="6.75081">
        <ele>404.1</ele>
        <time>2016-12-30T10:35:50.000Z</time>
      </trkpt>
      <trkpt lat="47.46722" lon="6.75085">
        <ele>404.1</ele>
        <time>2016-12-30T10:35:51.000Z</time>
      </trkpt>
      <trkpt lat="47.46722" lon="6.7509">
        <ele>404</ele>
        <time>2016-12-30T10:35:52.000Z</time>
      </trkpt>
      <trkpt lat="47.46723" lon="6.75096">
        <ele>403.8</ele>
        <time>2016-12-30T10:35:53.000Z</time>
      </trkpt>
      <trkpt lat="47.46725" lon="6.751">
        <ele>403.6</ele>
        <time>2016-12-30T10:35:54.000Z</time>
      </trkpt>
      <trkpt lat="47.46726" lon="6.75105">
        <ele>403.6</ele>
        <time>2016-12-30T10:35:55.000Z</time>
      </trkpt>
      <trkpt lat="47.46727" lon="6.75109">
        <ele>403.5</ele>
        <time>2016-12-30T10:35:56.000Z</time>
      </trkpt>
      <trkpt lat="47.46728" lon="6.75113">
        <ele>403.4</ele>
        <time>2016-12-30T10:35:57.000Z</time>
      </trkpt>
      <trkpt lat="47.46729" lon="6.75117">
        <ele>403.3</ele>
        <time>2016-12-30T10:35:58.000Z</time>
      </trkpt>
      <trkpt lat="47.46728" lon="6.75121">
        <ele>403.1</ele>
        <time>2016-12-30T10:35:59.000Z</time>
      </trkpt>
      <trkpt lat="47.46728" lon="6.75125">
        <ele>403</ele>
        <time>2016-12-30T10:36:00.000Z</time>
      </trkpt>
      <trkpt lat="47.46729" lon="6.75129">
        <ele>402.8</ele>
        <time>2016-12-30T10:36:01.000Z</time>
      </trkpt>
      <trkpt lat="47.46728" lon="6.75135">
        <ele>402.7</ele>
        <time>2016-12-30T10:36:02.000Z</time>
      </trkpt>
      <trkpt lat="47.46726" lon="6.75142">
        <ele>402.7</ele>
        <time>2016-12-30T10:36:03.000Z</time>
      </trkpt>
      <trkpt lat="47.46722" lon="6.7515">
        <ele>402.8</ele>
        <time>2016-12-30T10:36:04.000Z</time>
      </trkpt>
      <trkpt lat="47.46719" lon="6.75156">
        <ele>403.1</ele>
        <time>2016-12-30T10:36:05.000Z</time>
      </trkpt>
      <trkpt lat="47.46717" lon="6.75162">
        <ele>403.2</ele>
        <time>2016-12-30T10:36:06.000Z</time>
      </trkpt>
      <trkpt lat="47.46716" lon="6.75167">
        <ele>403.3</ele>
        <time>2016-12-30T10:36:07.000Z</time>
      </trkpt>
      <trkpt lat="47.46715" lon="6.7517">
        <ele>403.4</ele>
        <time>2016-12-30T10:36:08.000Z</time>
      </trkpt>
      <trkpt lat="47.46714" lon="6.75175">
        <ele>403.5</ele>
        <time>2016-12-30T10:36:09.000Z</time>
      </trkpt>
      <trkpt lat="47.46713" lon="6.7518">
        <ele>403.6</ele>
        <time>2016-12-30T10:36:10.000Z</time>
      </trkpt>
      <trkpt lat="47.46711" lon="6.75184">
        <ele>403.7</ele>
        <time>2016-12-30T10:36:11.000Z</time>
      </trkpt>
      <trkpt lat="47.46711" lon="6.75189">
        <ele>403.8</ele>
        <time>2016-12-30T10:36:12.000Z</time>
      </trkpt>
      <trkpt lat="47.4671" lon="6.75193">
        <ele>403.9</ele>
        <time>2016-12-30T10:36:13.000Z</time>
      </trkpt>
      <trkpt lat="47.46708" lon="6.75198">
        <ele>404.1</ele>
        <time>2016-12-30T10:36:14.000Z</time>
      </trkpt>
      <trkpt lat="47.46707" lon="6.75202">
        <ele>404.2</ele>
        <time>2016-12-30T10:36:15.000Z</time>
      </trkpt>
      <trkpt lat="47.46706" lon="6.75206">
        <ele>404.2</ele>
        <time>2016-12-30T10:36:16.000Z</time>
      </trkpt>
      <trkpt lat="47.46706" lon="6.75209">
        <ele>404.1</ele>
        <time>2016-12-30T10:36:17.000Z</time>
      </trkpt>
      <trkpt lat="47.46706" lon="6.75213">
        <ele>404</ele>
        <time>2016-12-30T10:36:18.000Z</time>
      </trkpt>
      <trkpt lat="47.46707" lon="6.75218">
        <ele>404</ele>
        <time>2016-12-30T10:36:19.000Z</time>
      </trkpt>
      <trkpt lat="47.46707" lon="6.75223">
        <ele>404</ele>
        <time>2016-12-30T10:36:20.000Z</time>
      </trkpt>
      <trkpt lat="47.46708" lon="6.75227">
        <ele>403.9</ele>
        <time>2016-12-30T10:36:21.000Z</time>
      </trkpt>
      <trkpt lat="47.46708" lon="6.7523">
        <ele>404</ele>
        <time>2016-12-30T10:36:22.000Z</time>
      </trkpt>
      <trkpt lat="47.46707" lon="6.75234">
        <ele>404.1</ele>
        <time>2016-12-30T10:36:23.000Z</time>
      </trkpt>
      <trkpt lat="47.46708" lon="6.75238">
        <ele>404.2</ele>
        <time>2016-12-30T10:36:24.000Z</time>
      </trkpt>
      <trkpt lat="47.46709" lon="6.75242">
        <ele>404.3</ele>
        <time>2016-12-30T10:36:25.000Z</time>
      </trkpt>
      <trkpt lat="47.46707" lon="6.75245">
        <ele>404.3</ele>
        <time>2016-12-30T10:36:26.000Z</time>
      </trkpt>
      <trkpt lat="47.46708" lon="6.75251">
        <ele>404.5</ele>
        <time>2016-12-30T10:36:28.000Z</time>
      </trkpt>
      <trkpt lat="47.4671" lon="6.75254">
        <ele>404.5</ele>
        <time>2016-12-30T10:36:29.000Z</time>
      </trkpt>
      <trkpt lat="47.46711" lon="6.7526">
        <ele>404.4</ele>
        <time>2016-12-30T10:36:30.000Z</time>
      </trkpt>
      <trkpt lat="47.46712" lon="6.75265">
        <ele>404.6</ele>
        <time>2016-12-30T10:36:31.000Z</time>
      </trkpt>
      <trkpt lat="47.46709" lon="6.75269">
        <ele>405.4</ele>
        <time>2016-12-30T10:36:36.000Z</time>
      </trkpt>
      <trkpt lat="47.46707" lon="6.75271">
        <ele>405.6</ele>
        <time>2016-12-30T10:36:37.000Z</time>
      </trkpt>
      <trkpt lat="47.46707" lon="6.75276">
        <ele>406.2</ele>
        <time>2016-12-30T10:36:40.000Z</time>
      </trkpt>
      <trkpt lat="47.46706" lon="6.7528">
        <ele>406.4</ele>
        <time>2016-12-30T10:36:41.000Z</time>
      </trkpt>
      <trkpt lat="47.46705" lon="6.75283">
        <ele>406.6</ele>
        <time>2016-12-30T10:36:42.000Z</time>
      </trkpt>
      <trkpt lat="47.46704" lon="6.75288">
        <ele>406.8</ele>
        <time>2016-12-30T10:36:43.000Z</time>
      </trkpt>
      <trkpt lat="47.46705" lon="6.75292">
        <ele>406.9</ele>
        <time>2016-12-30T10:36:44.000Z</time>
      </trkpt>
      <trkpt lat="47.46705" lon="6.75297">
        <ele>406.9</ele>
        <time>2016-12-30T10:36:45.000Z</time>
      </trkpt>
      <trkpt lat="47.46706" lon="6.75302">
        <ele>407</ele>
        <time>2016-12-30T10:36:46.000Z</time>
      </trkpt>
      <trkpt lat="47.46707" lon="6.75306">
        <ele>407</ele>
        <time>2016-12-30T10:36:47.000Z</time>
      </trkpt>
      <trkpt lat="47.46708" lon="6.7531">
        <ele>407.1</ele>
        <time>2016-12-30T10:36:48.000Z</time>
      </trkpt>
      <trkpt lat="47.46711" lon="6.75316">
        <ele>407.5</ele>
        <time>2016-12-30T10:36:49.000Z</time>
      </trkpt>
      <trkpt lat="47.46714" lon="6.75322">
        <ele>407.4</ele>
        <time>2016-12-30T10:36:50.000Z</time>
      </trkpt>
      <trkpt lat="47.46716" lon="6.75329">
        <ele>407.1</ele>
        <time>2016-12-30T10:36:51.000Z</time>
      </trkpt>
      <trkpt lat="47.46718" lon="6.75337">
        <ele>406.1</ele>
        <time>2016-12-30T10:36:52.000Z</time>
      </trkpt>
      <trkpt lat="47.46719" lon="6.75347">
        <ele>404.8</ele>
        <time>2016-12-30T10:36:53.000Z</time>
      </trkpt>
      <trkpt lat="47.46719" lon="6.75355">
        <ele>404.1</ele>
        <time>2016-12-30T10:36:54.000Z</time>
      </trkpt>
      <trkpt lat="47.4672" lon="6.75364">
        <ele>402.6</ele>
        <time>2016-12-30T10:36:55.000Z</time>
      </trkpt>
      <trkpt lat="47.4672" lon="6.75374">
        <ele>401.4</ele>
        <time>2016-12-30T10:36:56.000Z</time>
      </trkpt>
      <trkpt lat="47.46719" lon="6.75384">
        <ele>400.1</ele>
        <time>2016-12-30T10:36:57.000Z</time>
      </trkpt>
      <trkpt lat="47.46716" lon="6.75394">
        <ele>399.2</ele>
        <time>2016-12-30T10:36:58.000Z</time>
      </trkpt>
      <trkpt lat="47.46713" lon="6.75402">
        <ele>398.7</ele>
        <time>2016-12-30T10:36:59.000Z</time>
      </trkpt>
      <trkpt lat="47.4671" lon="6.7541">
        <ele>397.9</ele>
        <time>2016-12-30T10:37:00.000Z</time>
      </trkpt>
      <trkpt lat="47.46706" lon="6.75419">
        <ele>397.9</ele>
        <time>2016-12-30T10:37:01.000Z</time>
      </trkpt>
      <trkpt lat="47.46704" lon="6.75425">
        <ele>397.9</ele>
        <time>2016-12-30T10:37:02.000Z</time>
      </trkpt>
      <trkpt lat="47.46701" lon="6.7543">
        <ele>397.8</ele>
        <time>2016-12-30T10:37:03.000Z</time>
      </trkpt>
      <trkpt lat="47.46699" lon="6.75434">
        <ele>397.7</ele>
        <time>2016-12-30T10:37:04.000Z</time>
      </trkpt>
      <trkpt lat="47.46696" lon="6.75439">
        <ele>397.7</ele>
        <time>2016-12-30T10:37:05.000Z</time>
      </trkpt>
      <trkpt lat="47.46695" lon="6.75443">
        <ele>397.6</ele>
        <time>2016-12-30T10:37:06.000Z</time>
      </trkpt>
      <trkpt lat="47.46694" lon="6.75448">
        <ele>397.5</ele>
        <time>2016-12-30T10:37:07.000Z</time>
      </trkpt>
      <trkpt lat="47.46693" lon="6.75453">
        <ele>397.5</ele>
        <time>2016-12-30T10:37:08.000Z</time>
      </trkpt>
      <trkpt lat="47.4669" lon="6.75458">
        <ele>397.5</ele>
        <time>2016-12-30T10:37:09.000Z</time>
      </trkpt>
      <trkpt lat="47.46688" lon="6.75462">
        <ele>397.6</ele>
        <time>2016-12-30T10:37:10.000Z</time>
      </trkpt>
      <trkpt lat="47.46687" lon="6.75466">
        <ele>397.6</ele>
        <time>2016-12-30T10:37:11.000Z</time>
      </trkpt>
      <trkpt lat="47.46685" lon="6.75469">
        <ele>397.5</ele>
        <time>2016-12-30T10:37:12.000Z</time>
      </trkpt>
      <trkpt lat="47.46684" lon="6.75473">
        <ele>397.4</ele>
        <time>2016-12-30T10:37:13.000Z</time>
      </trkpt>
      <trkpt lat="47.46682" lon="6.75478">
        <ele>397.4</ele>
        <time>2016-12-30T10:37:14.000Z</time>
      </trkpt>
      <trkpt lat="47.46681" lon="6.75483">
        <ele>397.4</ele>
        <time>2016-12-30T10:37:15.000Z</time>
      </trkpt>
      <trkpt lat="47.4668" lon="6.75489">
        <ele>397.3</ele>
        <time>2016-12-30T10:37:16.000Z</time>
      </trkpt>
      <trkpt lat="47.46679" lon="6.75494">
        <ele>397.2</ele>
        <time>2016-12-30T10:37:17.000Z</time>
      </trkpt>
      <trkpt lat="47.46678" lon="6.75499">
        <ele>397.1</ele>
        <time>2016-12-30T10:37:18.000Z</time>
      </trkpt>
      <trkpt lat="47.46677" lon="6.75504">
        <ele>396.9</ele>
        <time>2016-12-30T10:37:19.000Z</time>
      </trkpt>
      <trkpt lat="47.46676" lon="6.75508">
        <ele>396.8</ele>
        <time>2016-12-30T10:37:20.000Z</time>
      </trkpt>
      <trkpt lat="47.46674" lon="6.75512">
        <ele>396.6</ele>
        <time>2016-12-30T10:37:21.000Z</time>
      </trkpt>
      <trkpt lat="47.46673" lon="6.75517">
        <ele>396.5</ele>
        <time>2016-12-30T10:37:22.000Z</time>
      </trkpt>
      <trkpt lat="47.46672" lon="6.75522">
        <ele>396.4</ele>
        <time>2016-12-30T10:37:23.000Z</time>
      </trkpt>
      <trkpt lat="47.46671" lon="6.75525">
        <ele>396.3</ele>
        <time>2016-12-30T10:37:24.000Z</time>
      </trkpt>
      <trkpt lat="47.4667" lon="6.75528">
        <ele>396.3</ele>
        <time>2016-12-30T10:37:25.000Z</time>
      </trkpt>
      <trkpt lat="47.46669" lon="6.75532">
        <ele>396.1</ele>
        <time>2016-12-30T10:37:26.000Z</time>
      </trkpt>
      <trkpt lat="47.46667" lon="6.75536">
        <ele>396</ele>
        <time>2016-12-30T10:37:27.000Z</time>
      </trkpt>
      <trkpt lat="47.46665" lon="6.75541">
        <ele>396</ele>
        <time>2016-12-30T10:37:28.000Z</time>
      </trkpt>
      <trkpt lat="47.46663" lon="6.75546">
        <ele>395.9</ele>
        <time>2016-12-30T10:37:29.000Z</time>
      </trkpt>
      <trkpt lat="47.46661" lon="6.7555">
        <ele>395.9</ele>
        <time>2016-12-30T10:37:30.000Z</time>
      </trkpt>
      <trkpt lat="47.46659" lon="6.75554">
        <ele>395.8</ele>
        <time>2016-12-30T10:37:31.000Z</time>
      </trkpt>
      <trkpt lat="47.46657" lon="6.75558">
        <ele>395.8</ele>
        <time>2016-12-30T10:37:32.000Z</time>
      </trkpt>
      <trkpt lat="47.46656" lon="6.75561">
        <ele>395.9</ele>
        <time>2016-12-30T10:37:33.000Z</time>
      </trkpt>
      <trkpt lat="47.46655" lon="6.75565">
        <ele>396</ele>
        <time>2016-12-30T10:37:34.000Z</time>
      </trkpt>
      <trkpt lat="47.46654" lon="6.75569">
        <ele>396</ele>
        <time>2016-12-30T10:37:35.000Z</time>
      </trkpt>
      <trkpt lat="47.46653" lon="6.75574">
        <ele>396</ele>
        <time>2016-12-30T10:37:36.000Z</time>
      </trkpt>
      <trkpt lat="47.46652" lon="6.7558">
        <ele>396</ele>
        <time>2016-12-30T10:37:37.000Z</time>
      </trkpt>
      <trkpt lat="47.46651" lon="6.75586">
        <ele>395.9</ele>
        <time>2016-12-30T10:37:38.000Z</time>
      </trkpt>
      <trkpt lat="47.46651" lon="6.75592">
        <ele>395.8</ele>
        <time>2016-12-30T10:37:39.000Z</time>
      </trkpt>
      <trkpt lat="47.4665" lon="6.75598">
        <ele>395.8</ele>
        <time>2016-12-30T10:37:40.000Z</time>
      </trkpt>
      <trkpt lat="47.4665" lon="6.75604">
        <ele>395.7</ele>
        <time>2016-12-30T10:37:41.000Z</time>
      </trkpt>
      <trkpt lat="47.46649" lon="6.75607">
        <ele>395.8</ele>
        <time>2016-12-30T10:37:42.000Z</time>
      </trkpt>
      <trkpt lat="47.46649" lon="6.75612">
        <ele>395.9</ele>
        <time>2016-12-30T10:37:43.000Z</time>
      </trkpt>
      <trkpt lat="47.46649" lon="6.75615">
        <ele>395.9</ele>
        <time>2016-12-30T10:37:44.000Z</time>
      </trkpt>
      <trkpt lat="47.46649" lon="6.7562">
        <ele>395.9</ele>
        <time>2016-12-30T10:37:45.000Z</time>
      </trkpt>
      <trkpt lat="47.4665" lon="6.75624">
        <ele>396</ele>
        <time>2016-12-30T10:37:46.000Z</time>
      </trkpt>
      <trkpt lat="47.46649" lon="6.75629">
        <ele>396.1</ele>
        <time>2016-12-30T10:37:47.000Z</time>
      </trkpt>
      <trkpt lat="47.46648" lon="6.75635">
        <ele>396.1</ele>
        <time>2016-12-30T10:37:48.000Z</time>
      </trkpt>
      <trkpt lat="47.46648" lon="6.75641">
        <ele>396.2</ele>
        <time>2016-12-30T10:37:49.000Z</time>
      </trkpt>
      <trkpt lat="47.46649" lon="6.75647">
        <ele>396.1</ele>
        <time>2016-12-30T10:37:50.000Z</time>
      </trkpt>
      <trkpt lat="47.4665" lon="6.75653">
        <ele>396</ele>
        <time>2016-12-30T10:37:51.000Z</time>
      </trkpt>
      <trkpt lat="47.46652" lon="6.7566">
        <ele>394.7</ele>
        <time>2016-12-30T10:37:52.000Z</time>
      </trkpt>
      <trkpt lat="47.46655" lon="6.75666">
        <ele>394.5</ele>
        <time>2016-12-30T10:37:53.000Z</time>
      </trkpt>
      <trkpt lat="47.46657" lon="6.75671">
        <ele>394.4</ele>
        <time>2016-12-30T10:37:54.000Z</time>
      </trkpt>
      <trkpt lat="47.46659" lon="6.75676">
        <ele>394.2</ele>
        <time>2016-12-30T10:37:55.000Z</time>
      </trkpt>
      <trkpt lat="47.46662" lon="6.7568">
        <ele>392.7</ele>
        <time>2016-12-30T10:37:56.000Z</time>
      </trkpt>
      <trkpt lat="47.46666" lon="6.75684">
        <ele>392.2</ele>
        <time>2016-12-30T10:37:57.000Z</time>
      </trkpt>
      <trkpt lat="47.4667" lon="6.75688">
        <ele>392.2</ele>
        <time>2016-12-30T10:37:58.000Z</time>
      </trkpt>
      <trkpt lat="47.46673" lon="6.75692">
        <ele>392.1</ele>
        <time>2016-12-30T10:37:59.000Z</time>
      </trkpt>
      <trkpt lat="47.46677" lon="6.75695">
        <ele>392.5</ele>
        <time>2016-12-30T10:38:00.000Z</time>
      </trkpt>
      <trkpt lat="47.46681" lon="6.75698">
        <ele>392.8</ele>
        <time>2016-12-30T10:38:01.000Z</time>
      </trkpt>
      <trkpt lat="47.46685" lon="6.75703">
        <ele>392.6</ele>
        <time>2016-12-30T10:38:02.000Z</time>
      </trkpt>
      <trkpt lat="47.46689" lon="6.75708">
        <ele>392.5</ele>
        <time>2016-12-30T10:38:03.000Z</time>
      </trkpt>
      <trkpt lat="47.46693" lon="6.75716">
        <ele>391.9</ele>
        <time>2016-12-30T10:38:04.000Z</time>
      </trkpt>
      <trkpt lat="47.46694" lon="6.75724">
        <ele>391.6</ele>
        <time>2016-12-30T10:38:05.000Z</time>
      </trkpt>
      <trkpt lat="47.46695" lon="6.75732">
        <ele>391</ele>
        <time>2016-12-30T10:38:06.000Z</time>
      </trkpt>
      <trkpt lat="47.46697" lon="6.75741">
        <ele>391.1</ele>
        <time>2016-12-30T10:38:07.000Z</time>
      </trkpt>
      <trkpt lat="47.46699" lon="6.75751">
        <ele>391.6</ele>
        <time>2016-12-30T10:38:08.000Z</time>
      </trkpt>
      <trkpt lat="47.46701" lon="6.75759">
        <ele>392.4</ele>
        <time>2016-12-30T10:38:09.000Z</time>
      </trkpt>
      <trkpt lat="47.46702" lon="6.75766">
        <ele>392.4</ele>
        <time>2016-12-30T10:38:10.000Z</time>
      </trkpt>
      <trkpt lat="47.46703" lon="6.75774">
        <ele>393.2</ele>
        <time>2016-12-30T10:38:11.000Z</time>
      </trkpt>
      <trkpt lat="47.46704" lon="6.75784">
        <ele>393.5</ele>
        <time>2016-12-30T10:38:12.000Z</time>
      </trkpt>
      <trkpt lat="47.46706" lon="6.75792">
        <ele>393.6</ele>
        <time>2016-12-30T10:38:13.000Z</time>
      </trkpt>
      <trkpt lat="47.46707" lon="6.75802">
        <ele>393.7</ele>
        <time>2016-12-30T10:38:14.000Z</time>
      </trkpt>
      <trkpt lat="47.46708" lon="6.75809">
        <ele>394.5</ele>
        <time>2016-12-30T10:38:15.000Z</time>
      </trkpt>
      <trkpt lat="47.46708" lon="6.75817">
        <ele>395.1</ele>
        <time>2016-12-30T10:38:16.000Z</time>
      </trkpt>
      <trkpt lat="47.46707" lon="6.75827">
        <ele>394.6</ele>
        <time>2016-12-30T10:38:17.000Z</time>
      </trkpt>
      <trkpt lat="47.46706" lon="6.75834">
        <ele>393.9</ele>
        <time>2016-12-30T10:38:18.000Z</time>
      </trkpt>
      <trkpt lat="47.46704" lon="6.75842">
        <ele>393</ele>
        <time>2016-12-30T10:38:19.000Z</time>
      </trkpt>
      <trkpt lat="47.46703" lon="6.75852">
        <ele>391.7</ele>
        <time>2016-12-30T10:38:20.000Z</time>
      </trkpt>
      <trkpt lat="47.46705" lon="6.75861">
        <ele>391</ele>
        <time>2016-12-30T10:38:21.000Z</time>
      </trkpt>
      <trkpt lat="47.46704" lon="6.75871">
        <ele>389.9</ele>
        <time>2016-12-30T10:38:22.000Z</time>
      </trkpt>
      <trkpt lat="47.46703" lon="6.75882">
        <ele>389</ele>
        <time>2016-12-30T10:38:23.000Z</time>
      </trkpt>
      <trkpt lat="47.46702" lon="6.75891">
        <ele>387.9</ele>
        <time>2016-12-30T10:38:24.000Z</time>
      </trkpt>
      <trkpt lat="47.46701" lon="6.75902">
        <ele>386.5</ele>
        <time>2016-12-30T10:38:25.000Z</time>
      </trkpt>
      <trkpt lat="47.46702" lon="6.75912">
        <ele>385.7</ele>
        <time>2016-12-30T10:38:26.000Z</time>
      </trkpt>
      <trkpt lat="47.46703" lon="6.75922">
        <ele>384.5</ele>
        <time>2016-12-30T10:38:27.000Z</time>
      </trkpt>
      <trkpt lat="47.46703" lon="6.75931">
        <ele>384.2</ele>
        <time>2016-12-30T10:38:28.000Z</time>
      </trkpt>
      <trkpt lat="47.46705" lon="6.75938">
        <ele>383.2</ele>
        <time>2016-12-30T10:38:29.000Z</time>
      </trkpt>
      <trkpt lat="47.46705" lon="6.75946">
        <ele>382.9</ele>
        <time>2016-12-30T10:38:30.000Z</time>
      </trkpt>
      <trkpt lat="47.46704" lon="6.75954">
        <ele>382.5</ele>
        <time>2016-12-30T10:38:31.000Z</time>
      </trkpt>
      <trkpt lat="47.46704" lon="6.75961">
        <ele>382.1</ele>
        <time>2016-12-30T10:38:32.000Z</time>
      </trkpt>
      <trkpt lat="47.46704" lon="6.75967">
        <ele>382</ele>
        <time>2016-12-30T10:38:33.000Z</time>
      </trkpt>
      <trkpt lat="47.46703" lon="6.75973">
        <ele>381.9</ele>
        <time>2016-12-30T10:38:34.000Z</time>
      </trkpt>
      <trkpt lat="47.46703" lon="6.75984">
        <ele>381.6</ele>
        <time>2016-12-30T10:38:35.000Z</time>
      </trkpt>
      <trkpt lat="47.46703" lon="6.75992">
        <ele>381.4</ele>
        <time>2016-12-30T10:38:36.000Z</time>
      </trkpt>
      <trkpt lat="47.46706" lon="6.75998">
        <ele>381.2</ele>
        <time>2016-12-30T10:38:37.000Z</time>
      </trkpt>
      <trkpt lat="47.4671" lon="6.76002">
        <ele>381</ele>
        <time>2016-12-30T10:38:38.000Z</time>
      </trkpt>
      <trkpt lat="47.46712" lon="6.76005">
        <ele>380.7</ele>
        <time>2016-12-30T10:38:39.000Z</time>
      </trkpt>
      <trkpt lat="47.46715" lon="6.76006">
        <ele>380.4</ele>
        <time>2016-12-30T10:38:40.000Z</time>
      </trkpt>
      <trkpt lat="47.46717" lon="6.76007">
        <ele>380.4</ele>
        <time>2016-12-30T10:38:41.000Z</time>
      </trkpt>
      <trkpt lat="47.4672" lon="6.76007">
        <ele>380.2</ele>
        <time>2016-12-30T10:38:42.000Z</time>
      </trkpt>
      <trkpt lat="47.46724" lon="6.76006">
        <ele>379.2</ele>
        <time>2016-12-30T10:38:43.000Z</time>
      </trkpt>
      <trkpt lat="47.46729" lon="6.76005">
        <ele>378.2</ele>
        <time>2016-12-30T10:38:44.000Z</time>
      </trkpt>
      <trkpt lat="47.46734" lon="6.76003">
        <ele>377.3</ele>
        <time>2016-12-30T10:38:45.000Z</time>
      </trkpt>
      <trkpt lat="47.46739" lon="6.76002">
        <ele>376.4</ele>
        <time>2016-12-30T10:38:46.000Z</time>
      </trkpt>
      <trkpt lat="47.46744" lon="6.76002">
        <ele>375.5</ele>
        <time>2016-12-30T10:38:47.000Z</time>
      </trkpt>
      <trkpt lat="47.46749" lon="6.76003">
        <ele>375.4</ele>
        <time>2016-12-30T10:38:48.000Z</time>
      </trkpt>
      <trkpt lat="47.46752" lon="6.76004">
        <ele>375.3</ele>
        <time>2016-12-30T10:38:51.000Z</time>
      </trkpt>
      <trkpt lat="47.46754" lon="6.76006">
        <ele>375.3</ele>
        <time>2016-12-30T10:38:52.000Z</time>
      </trkpt>
      <trkpt lat="47.46757" lon="6.76011">
        <ele>375.7</ele>
        <time>2016-12-30T10:39:01.000Z</time>
      </trkpt>
      <trkpt lat="47.46757" lon="6.76011">
        <ele>375.7</ele>
        <time>2016-12-30T10:39:02.000Z</time>
      </trkpt>
      <trkpt lat="47.46754" lon="6.76012">
        <ele>375.3</ele>
        <time>2016-12-30T10:39:11.000Z</time>
      </trkpt>
      <trkpt lat="47.46755" lon="6.76018">
        <ele>375.1</ele>
        <time>2016-12-30T10:39:12.000Z</time>
      </trkpt>
      <trkpt lat="47.46757" lon="6.76025">
        <ele>373.6</ele>
        <time>2016-12-30T10:39:13.000Z</time>
      </trkpt>
      <trkpt lat="47.46759" lon="6.76032">
        <ele>372.9</ele>
        <time>2016-12-30T10:39:14.000Z</time>
      </trkpt>
      <trkpt lat="47.4676" lon="6.7604">
        <ele>372.6</ele>
        <time>2016-12-30T10:39:15.000Z</time>
      </trkpt>
      <trkpt lat="47.46759" lon="6.76049">
        <ele>371.1</ele>
        <time>2016-12-30T10:39:16.000Z</time>
      </trkpt>
      <trkpt lat="47.46755" lon="6.76059">
        <ele>369.4</ele>
        <time>2016-12-30T10:39:17.000Z</time>
      </trkpt>
      <trkpt lat="47.4675" lon="6.76068">
        <ele>367.6</ele>
        <time>2016-12-30T10:39:18.000Z</time>
      </trkpt>
      <trkpt lat="47.4675" lon="6.76077">
        <ele>366.4</ele>
        <time>2016-12-30T10:39:19.000Z</time>
      </trkpt>
      <trkpt lat="47.46751" lon="6.76083">
        <ele>366.1</ele>
        <time>2016-12-30T10:39:20.000Z</time>
      </trkpt>
      <trkpt lat="47.46749" lon="6.76093">
        <ele>365.6</ele>
        <time>2016-12-30T10:39:21.000Z</time>
      </trkpt>
      <trkpt lat="47.46748" lon="6.76103">
        <ele>366.5</ele>
        <time>2016-12-30T10:39:22.000Z</time>
      </trkpt>
      <trkpt lat="47.46747" lon="6.76109">
        <ele>367.4</ele>
        <time>2016-12-30T10:39:23.000Z</time>
      </trkpt>
      <trkpt lat="47.46746" lon="6.76118">
        <ele>368.5</ele>
        <time>2016-12-30T10:39:24.000Z</time>
      </trkpt>
      <trkpt lat="47.46744" lon="6.76127">
        <ele>369.4</ele>
        <time>2016-12-30T10:39:25.000Z</time>
      </trkpt>
      <trkpt lat="47.46743" lon="6.76133">
        <ele>369.6</ele>
        <time>2016-12-30T10:39:26.000Z</time>
      </trkpt>
      <trkpt lat="47.46742" lon="6.7614">
        <ele>369.2</ele>
        <time>2016-12-30T10:39:27.000Z</time>
      </trkpt>
      <trkpt lat="47.46741" lon="6.76148">
        <ele>369.1</ele>
        <time>2016-12-30T10:39:28.000Z</time>
      </trkpt>
      <trkpt lat="47.46739" lon="6.76154">
        <ele>368.9</ele>
        <time>2016-12-30T10:39:29.000Z</time>
      </trkpt>
      <trkpt lat="47.46738" lon="6.7616">
        <ele>369.9</ele>
        <time>2016-12-30T10:39:30.000Z</time>
      </trkpt>
      <trkpt lat="47.46737" lon="6.76167">
        <ele>369.6</ele>
        <time>2016-12-30T10:39:31.000Z</time>
      </trkpt>
      <trkpt lat="47.46736" lon="6.76173">
        <ele>369.6</ele>
        <time>2016-12-30T10:39:32.000Z</time>
      </trkpt>
      <trkpt lat="47.46736" lon="6.7618">
        <ele>369.5</ele>
        <time>2016-12-30T10:39:33.000Z</time>
      </trkpt>
      <trkpt lat="47.46735" lon="6.76185">
        <ele>369.5</ele>
        <time>2016-12-30T10:39:34.000Z</time>
      </trkpt>
      <trkpt lat="47.46735" lon="6.76191">
        <ele>369.4</ele>
        <time>2016-12-30T10:39:35.000Z</time>
      </trkpt>
      <trkpt lat="47.46734" lon="6.76196">
        <ele>369.3</ele>
        <time>2016-12-30T10:39:36.000Z</time>
      </trkpt>
      <trkpt lat="47.46734" lon="6.762">
        <ele>369.2</ele>
        <time>2016-12-30T10:39:37.000Z</time>
      </trkpt>
      <trkpt lat="47.46733" lon="6.76207">
        <ele>369.1</ele>
        <time>2016-12-30T10:39:38.000Z</time>
      </trkpt>
      <trkpt lat="47.46732" lon="6.76211">
        <ele>369.1</ele>
        <time>2016-12-30T10:39:39.000Z</time>
      </trkpt>
      <trkpt lat="47.46731" lon="6.76218">
        <ele>369</ele>
        <time>2016-12-30T10:39:40.000Z</time>
      </trkpt>
      <trkpt lat="47.4673" lon="6.76224">
        <ele>368.9</ele>
        <time>2016-12-30T10:39:41.000Z</time>
      </trkpt>
      <trkpt lat="47.4673" lon="6.76228">
        <ele>368.6</ele>
        <time>2016-12-30T10:39:42.000Z</time>
      </trkpt>
      <trkpt lat="47.4673" lon="6.76236">
        <ele>368.4</ele>
        <time>2016-12-30T10:39:43.000Z</time>
      </trkpt>
      <trkpt lat="47.4673" lon="6.76243">
        <ele>368.1</ele>
        <time>2016-12-30T10:39:44.000Z</time>
      </trkpt>
      <trkpt lat="47.4673" lon="6.7625">
        <ele>365.2</ele>
        <time>2016-12-30T10:39:45.000Z</time>
      </trkpt>
      <trkpt lat="47.46729" lon="6.76256">
        <ele>363.4</ele>
        <time>2016-12-30T10:39:46.000Z</time>
      </trkpt>
      <trkpt lat="47.46729" lon="6.76264">
        <ele>362.7</ele>
        <time>2016-12-30T10:39:47.000Z</time>
      </trkpt>
      <trkpt lat="47.46729" lon="6.76271">
        <ele>361.6</ele>
        <time>2016-12-30T10:39:48.000Z</time>
      </trkpt>
      <trkpt lat="47.46728" lon="6.76281">
        <ele>360.9</ele>
        <time>2016-12-30T10:39:49.000Z</time>
      </trkpt>
      <trkpt lat="47.4673" lon="6.76288">
        <ele>359.5</ele>
        <time>2016-12-30T10:39:50.000Z</time>
      </trkpt>
      <trkpt lat="47.46731" lon="6.76293">
        <ele>359.2</ele>
        <time>2016-12-30T10:39:51.000Z</time>
      </trkpt>
      <trkpt lat="47.46734" lon="6.76299">
        <ele>359.1</ele>
        <time>2016-12-30T10:39:52.000Z</time>
      </trkpt>
      <trkpt lat="47.46738" lon="6.76299">
        <ele>358.7</ele>
        <time>2016-12-30T10:39:53.000Z</time>
      </trkpt>
      <trkpt lat="47.46742" lon="6.76298">
        <ele>357.9</ele>
        <time>2016-12-30T10:39:54.000Z</time>
      </trkpt>
      <trkpt lat="47.46745" lon="6.76297">
        <ele>357.9</ele>
        <time>2016-12-30T10:39:55.000Z</time>
      </trkpt>
      <trkpt lat="47.46747" lon="6.76297">
        <ele>357.9</ele>
        <time>2016-12-30T10:39:56.000Z</time>
      </trkpt>
      <trkpt lat="47.46768" lon="6.763">
        <ele>358.9</ele>
        <time>2016-12-30T10:40:01.000Z</time>
      </trkpt>
      <trkpt lat="47.46773" lon="6.76298">
        <ele>358.8</ele>
        <time>2016-12-30T10:40:02.000Z</time>
      </trkpt>
      <trkpt lat="47.46776" lon="6.76299">
        <ele>358.8</ele>
        <time>2016-12-30T10:40:03.000Z</time>
      </trkpt>
      <trkpt lat="47.4678" lon="6.763">
        <ele>358.8</ele>
        <time>2016-12-30T10:40:04.000Z</time>
      </trkpt>
      <trkpt lat="47.46784" lon="6.76301">
        <ele>359.2</ele>
        <time>2016-12-30T10:40:05.000Z</time>
      </trkpt>
      <trkpt lat="47.46789" lon="6.76302">
        <ele>359</ele>
        <time>2016-12-30T10:40:06.000Z</time>
      </trkpt>
      <trkpt lat="47.46794" lon="6.76304">
        <ele>358.9</ele>
        <time>2016-12-30T10:40:07.000Z</time>
      </trkpt>
      <trkpt lat="47.46799" lon="6.76305">
        <ele>359</ele>
        <time>2016-12-30T10:40:08.000Z</time>
      </trkpt>
      <trkpt lat="47.46804" lon="6.76306">
        <ele>360</ele>
        <time>2016-12-30T10:40:09.000Z</time>
      </trkpt>
      <trkpt lat="47.46809" lon="6.76307">
        <ele>361.1</ele>
        <time>2016-12-30T10:40:10.000Z</time>
      </trkpt>
      <trkpt lat="47.46814" lon="6.76309">
        <ele>361.4</ele>
        <time>2016-12-30T10:40:11.000Z</time>
      </trkpt>
      <trkpt lat="47.46818" lon="6.7631">
        <ele>361.4</ele>
        <time>2016-12-30T10:40:12.000Z</time>
      </trkpt>
      <trkpt lat="47.46823" lon="6.76309">
        <ele>361.3</ele>
        <time>2016-12-30T10:40:13.000Z</time>
      </trkpt>
      <trkpt lat="47.46827" lon="6.76306">
        <ele>361.3</ele>
        <time>2016-12-30T10:40:14.000Z</time>
      </trkpt>
      <trkpt lat="47.4683" lon="6.76303">
        <ele>361.4</ele>
        <time>2016-12-30T10:40:15.000Z</time>
      </trkpt>
      <trkpt lat="47.46834" lon="6.76302">
        <ele>361.4</ele>
        <time>2016-12-30T10:40:16.000Z</time>
      </trkpt>
      <trkpt lat="47.46838" lon="6.76302">
        <ele>361.4</ele>
        <time>2016-12-30T10:40:17.000Z</time>
      </trkpt>
      <trkpt lat="47.46842" lon="6.76302">
        <ele>361.4</ele>
        <time>2016-12-30T10:40:18.000Z</time>
      </trkpt>
      <trkpt lat="47.46847" lon="6.76302">
        <ele>362.2</ele>
        <time>2016-12-30T10:40:19.000Z</time>
      </trkpt>
      <trkpt lat="47.4685" lon="6.76303">
        <ele>362.3</ele>
        <time>2016-12-30T10:40:20.000Z</time>
      </trkpt>
      <trkpt lat="47.46854" lon="6.76306">
        <ele>363.6</ele>
        <time>2016-12-30T10:40:21.000Z</time>
      </trkpt>
      <trkpt lat="47.46858" lon="6.76309">
        <ele>364.7</ele>
        <time>2016-12-30T10:40:22.000Z</time>
      </trkpt>
      <trkpt lat="47.46861" lon="6.76312">
        <ele>365.9</ele>
        <time>2016-12-30T10:40:23.000Z</time>
      </trkpt>
      <trkpt lat="47.46865" lon="6.76316">
        <ele>367.1</ele>
        <time>2016-12-30T10:40:24.000Z</time>
      </trkpt>
      <trkpt lat="47.46869" lon="6.7632">
        <ele>367.6</ele>
        <time>2016-12-30T10:40:25.000Z</time>
      </trkpt>
      <trkpt lat="47.46872" lon="6.76324">
        <ele>368.7</ele>
        <time>2016-12-30T10:40:26.000Z</time>
      </trkpt>
      <trkpt lat="47.46875" lon="6.76329">
        <ele>369.3</ele>
        <time>2016-12-30T10:40:27.000Z</time>
      </trkpt>
      <trkpt lat="47.46879" lon="6.76332">
        <ele>370</ele>
        <time>2016-12-30T10:40:28.000Z</time>
      </trkpt>
      <trkpt lat="47.46883" lon="6.76334">
        <ele>370.7</ele>
        <time>2016-12-30T10:40:29.000Z</time>
      </trkpt>
      <trkpt lat="47.46887" lon="6.76334">
        <ele>370.8</ele>
        <time>2016-12-30T10:40:30.000Z</time>
      </trkpt>
      <trkpt lat="47.46891" lon="6.76334">
        <ele>370.8</ele>
        <time>2016-12-30T10:40:31.000Z</time>
      </trkpt>
      <trkpt lat="47.46895" lon="6.76333">
        <ele>370.6</ele>
        <time>2016-12-30T10:40:32.000Z</time>
      </trkpt>
      <trkpt lat="47.46899" lon="6.76333">
        <ele>370.6</ele>
        <time>2016-12-30T10:40:33.000Z</time>
      </trkpt>
      <trkpt lat="47.46902" lon="6.76332">
        <ele>370.5</ele>
        <time>2016-12-30T10:40:34.000Z</time>
      </trkpt>
      <trkpt lat="47.46906" lon="6.76332">
        <ele>370.5</ele>
        <time>2016-12-30T10:40:35.000Z</time>
      </trkpt>
      <trkpt lat="47.46909" lon="6.76332">
        <ele>370.5</ele>
        <time>2016-12-30T10:40:36.000Z</time>
      </trkpt>
      <trkpt lat="47.46913" lon="6.76331">
        <ele>370.4</ele>
        <time>2016-12-30T10:40:37.000Z</time>
      </trkpt>
      <trkpt lat="47.46917" lon="6.7633">
        <ele>370.7</ele>
        <time>2016-12-30T10:40:38.000Z</time>
      </trkpt>
      <trkpt lat="47.46921" lon="6.7633">
        <ele>370.4</ele>
        <time>2016-12-30T10:40:39.000Z</time>
      </trkpt>
      <trkpt lat="47.46926" lon="6.7633">
        <ele>369.5</ele>
        <time>2016-12-30T10:40:40.000Z</time>
      </trkpt>
      <trkpt lat="47.46931" lon="6.7633">
        <ele>368.3</ele>
        <time>2016-12-30T10:40:41.000Z</time>
      </trkpt>
      <trkpt lat="47.46935" lon="6.7633">
        <ele>367.7</ele>
        <time>2016-12-30T10:40:42.000Z</time>
      </trkpt>
      <trkpt lat="47.4694" lon="6.76331">
        <ele>367.4</ele>
        <time>2016-12-30T10:40:43.000Z</time>
      </trkpt>
      <trkpt lat="47.46944" lon="6.76331">
        <ele>367.7</ele>
        <time>2016-12-30T10:40:44.000Z</time>
      </trkpt>
      <trkpt lat="47.46947" lon="6.76332">
        <ele>367.8</ele>
        <time>2016-12-30T10:40:45.000Z</time>
      </trkpt>
      <trkpt lat="47.4695" lon="6.76332">
        <ele>368.3</ele>
        <time>2016-12-30T10:40:46.000Z</time>
      </trkpt>
      <trkpt lat="47.46953" lon="6.76333">
        <ele>368.3</ele>
        <time>2016-12-30T10:40:47.000Z</time>
      </trkpt>
      <trkpt lat="47.46958" lon="6.76333">
        <ele>368</ele>
        <time>2016-12-30T10:40:48.000Z</time>
      </trkpt>
      <trkpt lat="47.46962" lon="6.76334">
        <ele>367.8</ele>
        <time>2016-12-30T10:40:49.000Z</time>
      </trkpt>
      <trkpt lat="47.46968" lon="6.76334">
        <ele>367.6</ele>
        <time>2016-12-30T10:40:50.000Z</time>
      </trkpt>
      <trkpt lat="47.46973" lon="6.76335">
        <ele>367.2</ele>
        <time>2016-12-30T10:40:51.000Z</time>
      </trkpt>
      <trkpt lat="47.46978" lon="6.76336">
        <ele>366.7</ele>
        <time>2016-12-30T10:40:52.000Z</time>
      </trkpt>
      <trkpt lat="47.46983" lon="6.76337">
        <ele>366.1</ele>
        <time>2016-12-30T10:40:53.000Z</time>
      </trkpt>
      <trkpt lat="47.4699" lon="6.76339">
        <ele>366.7</ele>
        <time>2016-12-30T10:40:54.000Z</time>
      </trkpt>
      <trkpt lat="47.46996" lon="6.7634">
        <ele>367.1</ele>
        <time>2016-12-30T10:40:55.000Z</time>
      </trkpt>
      <trkpt lat="47.47001" lon="6.76342">
        <ele>367.4</ele>
        <time>2016-12-30T10:40:56.000Z</time>
      </trkpt>
      <trkpt lat="47.47005" lon="6.76343">
        <ele>366.9</ele>
        <time>2016-12-30T10:40:57.000Z</time>
      </trkpt>
      <trkpt lat="47.47009" lon="6.76344">
        <ele>366.7</ele>
        <time>2016-12-30T10:40:58.000Z</time>
      </trkpt>
      <trkpt lat="47.47013" lon="6.76344">
        <ele>366.6</ele>
        <time>2016-12-30T10:40:59.000Z</time>
      </trkpt>
      <trkpt lat="47.47016" lon="6.76345">
        <ele>366.6</ele>
        <time>2016-12-30T10:41:00.000Z</time>
      </trkpt>
      <trkpt lat="47.47021" lon="6.76346">
        <ele>366.2</ele>
        <time>2016-12-30T10:41:01.000Z</time>
      </trkpt>
      <trkpt lat="47.47026" lon="6.76347">
        <ele>365.6</ele>
        <time>2016-12-30T10:41:02.000Z</time>
      </trkpt>
      <trkpt lat="47.47031" lon="6.76349">
        <ele>365.1</ele>
        <time>2016-12-30T10:41:03.000Z</time>
      </trkpt>
      <trkpt lat="47.47035" lon="6.76351">
        <ele>364.1</ele>
        <time>2016-12-30T10:41:04.000Z</time>
      </trkpt>
      <trkpt lat="47.4704" lon="6.76353">
        <ele>362.7</ele>
        <time>2016-12-30T10:41:05.000Z</time>
      </trkpt>
      <trkpt lat="47.47046" lon="6.76355">
        <ele>361.8</ele>
        <time>2016-12-30T10:41:06.000Z</time>
      </trkpt>
      <trkpt lat="47.47051" lon="6.76356">
        <ele>361.2</ele>
        <time>2016-12-30T10:41:07.000Z</time>
      </trkpt>
      <trkpt lat="47.47057" lon="6.76358">
        <ele>361.2</ele>
        <time>2016-12-30T10:41:08.000Z</time>
      </trkpt>
      <trkpt lat="47.47062" lon="6.76359">
        <ele>361.7</ele>
        <time>2016-12-30T10:41:09.000Z</time>
      </trkpt>
      <trkpt lat="47.47066" lon="6.7636">
        <ele>362.1</ele>
        <time>2016-12-30T10:41:10.000Z</time>
      </trkpt>
      <trkpt lat="47.47071" lon="6.7636">
        <ele>362.7</ele>
        <time>2016-12-30T10:41:11.000Z</time>
      </trkpt>
      <trkpt lat="47.47076" lon="6.7636">
        <ele>363.1</ele>
        <time>2016-12-30T10:41:12.000Z</time>
      </trkpt>
      <trkpt lat="47.47081" lon="6.76361">
        <ele>363.4</ele>
        <time>2016-12-30T10:41:13.000Z</time>
      </trkpt>
      <trkpt lat="47.47086" lon="6.76361">
        <ele>364.2</ele>
        <time>2016-12-30T10:41:14.000Z</time>
      </trkpt>
      <trkpt lat="47.47091" lon="6.76362">
        <ele>364.6</ele>
        <time>2016-12-30T10:41:15.000Z</time>
      </trkpt>
      <trkpt lat="47.47096" lon="6.76364">
        <ele>364.9</ele>
        <time>2016-12-30T10:41:16.000Z</time>
      </trkpt>
      <trkpt lat="47.47101" lon="6.76365">
        <ele>365</ele>
        <time>2016-12-30T10:41:17.000Z</time>
      </trkpt>
      <trkpt lat="47.47106" lon="6.76367">
        <ele>364.6</ele>
        <time>2016-12-30T10:41:18.000Z</time>
      </trkpt>
      <trkpt lat="47.47112" lon="6.76369">
        <ele>364.1</ele>
        <time>2016-12-30T10:41:19.000Z</time>
      </trkpt>
      <trkpt lat="47.47118" lon="6.7637">
        <ele>364.2</ele>
        <time>2016-12-30T10:41:20.000Z</time>
      </trkpt>
      <trkpt lat="47.47124" lon="6.76372">
        <ele>364.3</ele>
        <time>2016-12-30T10:41:21.000Z</time>
      </trkpt>
      <trkpt lat="47.47129" lon="6.76372">
        <ele>364</ele>
        <time>2016-12-30T10:41:22.000Z</time>
      </trkpt>
      <trkpt lat="47.47134" lon="6.76373">
        <ele>363.9</ele>
        <time>2016-12-30T10:41:23.000Z</time>
      </trkpt>
      <trkpt lat="47.4714" lon="6.76374">
        <ele>363.7</ele>
        <time>2016-12-30T10:41:24.000Z</time>
      </trkpt>
      <trkpt lat="47.47145" lon="6.76376">
        <ele>363.8</ele>
        <time>2016-12-30T10:41:25.000Z</time>
      </trkpt>
      <trkpt lat="47.4715" lon="6.76377">
        <ele>363.7</ele>
        <time>2016-12-30T10:41:26.000Z</time>
      </trkpt>
      <trkpt lat="47.47155" lon="6.76379">
        <ele>363.5</ele>
        <time>2016-12-30T10:41:27.000Z</time>
      </trkpt>
      <trkpt lat="47.4716" lon="6.7638">
        <ele>363.4</ele>
        <time>2016-12-30T10:41:28.000Z</time>
      </trkpt>
      <trkpt lat="47.47165" lon="6.76382">
        <ele>363.6</ele>
        <time>2016-12-30T10:41:29.000Z</time>
      </trkpt>
      <trkpt lat="47.4717" lon="6.76383">
        <ele>363.1</ele>
        <time>2016-12-30T10:41:30.000Z</time>
      </trkpt>
      <trkpt lat="47.47175" lon="6.76385">
        <ele>362.9</ele>
        <time>2016-12-30T10:41:31.000Z</time>
      </trkpt>
      <trkpt lat="47.4718" lon="6.76386">
        <ele>362.6</ele>
        <time>2016-12-30T10:41:32.000Z</time>
      </trkpt>
      <trkpt lat="47.47185" lon="6.76388">
        <ele>362.3</ele>
        <time>2016-12-30T10:41:33.000Z</time>
      </trkpt>
      <trkpt lat="47.4719" lon="6.76389">
        <ele>362.2</ele>
        <time>2016-12-30T10:41:34.000Z</time>
      </trkpt>
      <trkpt lat="47.47195" lon="6.76389">
        <ele>361.6</ele>
        <time>2016-12-30T10:41:35.000Z</time>
      </trkpt>
      <trkpt lat="47.47201" lon="6.76391">
        <ele>361.5</ele>
        <time>2016-12-30T10:41:36.000Z</time>
      </trkpt>
      <trkpt lat="47.47206" lon="6.76393">
        <ele>360.6</ele>
        <time>2016-12-30T10:41:37.000Z</time>
      </trkpt>
      <trkpt lat="47.47211" lon="6.76394">
        <ele>360.4</ele>
        <time>2016-12-30T10:41:38.000Z</time>
      </trkpt>
      <trkpt lat="47.47217" lon="6.76396">
        <ele>360.8</ele>
        <time>2016-12-30T10:41:39.000Z</time>
      </trkpt>
      <trkpt lat="47.47222" lon="6.76397">
        <ele>360.8</ele>
        <time>2016-12-30T10:41:40.000Z</time>
      </trkpt>
      <trkpt lat="47.47228" lon="6.76397">
        <ele>360.6</ele>
        <time>2016-12-30T10:41:41.000Z</time>
      </trkpt>
      <trkpt lat="47.47232" lon="6.76397">
        <ele>360.5</ele>
        <time>2016-12-30T10:41:42.000Z</time>
      </trkpt>
      <trkpt lat="47.47238" lon="6.76397">
        <ele>360.4</ele>
        <time>2016-12-30T10:41:43.000Z</time>
      </trkpt>
      <trkpt lat="47.47243" lon="6.76397">
        <ele>360.2</ele>
        <time>2016-12-30T10:41:44.000Z</time>
      </trkpt>
      <trkpt lat="47.47248" lon="6.76396">
        <ele>359.7</ele>
        <time>2016-12-30T10:41:45.000Z</time>
      </trkpt>
      <trkpt lat="47.47253" lon="6.76394">
        <ele>359.2</ele>
        <time>2016-12-30T10:41:46.000Z</time>
      </trkpt>
      <trkpt lat="47.47258" lon="6.76394">
        <ele>357.8</ele>
        <time>2016-12-30T10:41:47.000Z</time>
      </trkpt>
      <trkpt lat="47.47263" lon="6.76392">
        <ele>356.9</ele>
        <time>2016-12-30T10:41:48.000Z</time>
      </trkpt>
      <trkpt lat="47.47268" lon="6.7639">
        <ele>356.1</ele>
        <time>2016-12-30T10:41:49.000Z</time>
      </trkpt>
      <trkpt lat="47.47274" lon="6.76388">
        <ele>355.3</ele>
        <time>2016-12-30T10:41:50.000Z</time>
      </trkpt>
      <trkpt lat="47.47279" lon="6.76386">
        <ele>354.9</ele>
        <time>2016-12-30T10:41:51.000Z</time>
      </trkpt>
      <trkpt lat="47.47284" lon="6.76385">
        <ele>354.7</ele>
        <time>2016-12-30T10:41:52.000Z</time>
      </trkpt>
      <trkpt lat="47.47288" lon="6.76384">
        <ele>355.3</ele>
        <time>2016-12-30T10:41:53.000Z</time>
      </trkpt>
      <trkpt lat="47.47292" lon="6.76382">
        <ele>355.6</ele>
        <time>2016-12-30T10:41:54.000Z</time>
      </trkpt>
      <trkpt lat="47.47297" lon="6.76381">
        <ele>355.5</ele>
        <time>2016-12-30T10:41:55.000Z</time>
      </trkpt>
      <trkpt lat="47.47302" lon="6.76381">
        <ele>355.8</ele>
        <time>2016-12-30T10:41:56.000Z</time>
      </trkpt>
      <trkpt lat="47.47307" lon="6.76381">
        <ele>356.3</ele>
        <time>2016-12-30T10:41:57.000Z</time>
      </trkpt>
      <trkpt lat="47.47312" lon="6.76383">
        <ele>357.5</ele>
        <time>2016-12-30T10:41:58.000Z</time>
      </trkpt>
      <trkpt lat="47.47317" lon="6.76386">
        <ele>358.4</ele>
        <time>2016-12-30T10:41:59.000Z</time>
      </trkpt>
      <trkpt lat="47.47322" lon="6.76388">
        <ele>359.3</ele>
        <time>2016-12-30T10:42:00.000Z</time>
      </trkpt>
      <trkpt lat="47.47327" lon="6.7639">
        <ele>360.3</ele>
        <time>2016-12-30T10:42:01.000Z</time>
      </trkpt>
      <trkpt lat="47.47333" lon="6.76392">
        <ele>361.5</ele>
        <time>2016-12-30T10:42:02.000Z</time>
      </trkpt>
      <trkpt lat="47.47337" lon="6.76394">
        <ele>362</ele>
        <time>2016-12-30T10:42:03.000Z</time>
      </trkpt>
      <trkpt lat="47.47342" lon="6.76396">
        <ele>362.3</ele>
        <time>2016-12-30T10:42:04.000Z</time>
      </trkpt>
      <trkpt lat="47.47347" lon="6.76399">
        <ele>362.3</ele>
        <time>2016-12-30T10:42:05.000Z</time>
      </trkpt>
      <trkpt lat="47.47352" lon="6.76402">
        <ele>362.3</ele>
        <time>2016-12-30T10:42:06.000Z</time>
      </trkpt>
      <trkpt lat="47.47357" lon="6.76405">
        <ele>362.9</ele>
        <time>2016-12-30T10:42:07.000Z</time>
      </trkpt>
      <trkpt lat="47.47361" lon="6.76408">
        <ele>363.5</ele>
        <time>2016-12-30T10:42:08.000Z</time>
      </trkpt>
      <trkpt lat="47.47365" lon="6.76411">
        <ele>364.1</ele>
        <time>2016-12-30T10:42:09.000Z</time>
      </trkpt>
      <trkpt lat="47.47369" lon="6.76414">
        <ele>364.6</ele>
        <time>2016-12-30T10:42:10.000Z</time>
      </trkpt>
      <trkpt lat="47.47374" lon="6.76416">
        <ele>365.3</ele>
        <time>2016-12-30T10:42:11.000Z</time>
      </trkpt>
      <trkpt lat="47.47378" lon="6.76419">
        <ele>365.8</ele>
        <time>2016-12-30T10:42:12.000Z</time>
      </trkpt>
      <trkpt lat="47.47383" lon="6.76422">
        <ele>366.1</ele>
        <time>2016-12-30T10:42:13.000Z</time>
      </trkpt>
      <trkpt lat="47.47387" lon="6.76425">
        <ele>366.3</ele>
        <time>2016-12-30T10:42:14.000Z</time>
      </trkpt>
      <trkpt lat="47.47391" lon="6.76429">
        <ele>366.8</ele>
        <time>2016-12-30T10:42:15.000Z</time>
      </trkpt>
      <trkpt lat="47.47394" lon="6.76432">
        <ele>366.3</ele>
        <time>2016-12-30T10:42:16.000Z</time>
      </trkpt>
      <trkpt lat="47.47398" lon="6.76436">
        <ele>365.9</ele>
        <time>2016-12-30T10:42:17.000Z</time>
      </trkpt>
      <trkpt lat="47.47402" lon="6.7644">
        <ele>365.2</ele>
        <time>2016-12-30T10:42:18.000Z</time>
      </trkpt>
      <trkpt lat="47.47406" lon="6.76444">
        <ele>364.1</ele>
        <time>2016-12-30T10:42:19.000Z</time>
      </trkpt>
      <trkpt lat="47.4741" lon="6.76448">
        <ele>363.3</ele>
        <time>2016-12-30T10:42:20.000Z</time>
      </trkpt>
      <trkpt lat="47.47414" lon="6.76451">
        <ele>363</ele>
        <time>2016-12-30T10:42:21.000Z</time>
      </trkpt>
      <trkpt lat="47.47417" lon="6.76456">
        <ele>362.5</ele>
        <time>2016-12-30T10:42:22.000Z</time>
      </trkpt>
      <trkpt lat="47.47421" lon="6.76458">
        <ele>361.9</ele>
        <time>2016-12-30T10:42:23.000Z</time>
      </trkpt>
      <trkpt lat="47.47424" lon="6.76461">
        <ele>361.9</ele>
        <time>2016-12-30T10:42:24.000Z</time>
      </trkpt>
      <trkpt lat="47.47427" lon="6.76464">
        <ele>361.8</ele>
        <time>2016-12-30T10:42:25.000Z</time>
      </trkpt>
      <trkpt lat="47.4743" lon="6.76466">
        <ele>361.7</ele>
        <time>2016-12-30T10:42:26.000Z</time>
      </trkpt>
      <trkpt lat="47.47432" lon="6.76467">
        <ele>361.7</ele>
        <time>2016-12-30T10:42:27.000Z</time>
      </trkpt>
      <trkpt lat="47.47436" lon="6.76469">
        <ele>361.5</ele>
        <time>2016-12-30T10:42:30.000Z</time>
      </trkpt>
      <trkpt lat="47.47436" lon="6.76469">
        <ele>361.3</ele>
        <time>2016-12-30T10:42:31.000Z</time>
      </trkpt>
      <trkpt lat="47.47439" lon="6.76473">
        <ele>361.2</ele>
        <time>2016-12-30T10:42:37.000Z</time>
      </trkpt>
      <trkpt lat="47.47441" lon="6.76471">
        <ele>361.2</ele>
        <time>2016-12-30T10:42:38.000Z</time>
      </trkpt>
      <trkpt lat="47.47446" lon="6.76466">
        <ele>361.3</ele>
        <time>2016-12-30T10:42:39.000Z</time>
      </trkpt>
      <trkpt lat="47.47448" lon="6.76461">
        <ele>361.2</ele>
        <time>2016-12-30T10:42:40.000Z</time>
      </trkpt>
      <trkpt lat="47.47449" lon="6.76455">
        <ele>360.5</ele>
        <time>2016-12-30T10:42:41.000Z</time>
      </trkpt>
      <trkpt lat="47.47451" lon="6.76449">
        <ele>359.4</ele>
        <time>2016-12-30T10:42:42.000Z</time>
      </trkpt>
      <trkpt lat="47.47454" lon="6.76443">
        <ele>359.4</ele>
        <time>2016-12-30T10:42:43.000Z</time>
      </trkpt>
      <trkpt lat="47.47456" lon="6.7644">
        <ele>359.4</ele>
        <time>2016-12-30T10:42:44.000Z</time>
      </trkpt>
      <trkpt lat="47.47459" lon="6.76441">
        <ele>359.7</ele>
        <time>2016-12-30T10:42:45.000Z</time>
      </trkpt>
      <trkpt lat="47.47462" lon="6.7644">
        <ele>360.2</ele>
        <time>2016-12-30T10:42:46.000Z</time>
      </trkpt>
      <trkpt lat="47.47467" lon="6.76437">
        <ele>360.3</ele>
        <time>2016-12-30T10:42:47.000Z</time>
      </trkpt>
      <trkpt lat="47.47471" lon="6.76433">
        <ele>360.3</ele>
        <time>2016-12-30T10:42:48.000Z</time>
      </trkpt>
      <trkpt lat="47.47475" lon="6.76429">
        <ele>360.3</ele>
        <time>2016-12-30T10:42:49.000Z</time>
      </trkpt>
      <trkpt lat="47.47478" lon="6.76426">
        <ele>360.6</ele>
        <time>2016-12-30T10:42:50.000Z</time>
      </trkpt>
      <trkpt lat="47.47481" lon="6.76421">
        <ele>360.6</ele>
        <time>2016-12-30T10:42:51.000Z</time>
      </trkpt>
      <trkpt lat="47.47483" lon="6.76418">
        <ele>360.6</ele>
        <time>2016-12-30T10:42:52.000Z</time>
      </trkpt>
      <trkpt lat="47.47486" lon="6.76413">
        <ele>360.5</ele>
        <time>2016-12-30T10:42:53.000Z</time>
      </trkpt>
      <trkpt lat="47.47489" lon="6.76411">
        <ele>360.5</ele>
        <time>2016-12-30T10:42:54.000Z</time>
      </trkpt>
      <trkpt lat="47.47492" lon="6.76408">
        <ele>360.3</ele>
        <time>2016-12-30T10:42:55.000Z</time>
      </trkpt>
      <trkpt lat="47.47495" lon="6.76405">
        <ele>360.2</ele>
        <time>2016-12-30T10:42:56.000Z</time>
      </trkpt>
      <trkpt lat="47.47499" lon="6.76404">
        <ele>360.1</ele>
        <time>2016-12-30T10:42:57.000Z</time>
      </trkpt>
      <trkpt lat="47.47503" lon="6.76404">
        <ele>359.4</ele>
        <time>2016-12-30T10:42:58.000Z</time>
      </trkpt>
      <trkpt lat="47.47506" lon="6.76405">
        <ele>359.4</ele>
        <time>2016-12-30T10:42:59.000Z</time>
      </trkpt>
      <trkpt lat="47.47509" lon="6.7641">
        <ele>359.4</ele>
        <time>2016-12-30T10:43:00.000Z</time>
      </trkpt>
      <trkpt lat="47.47512" lon="6.76414">
        <ele>359.6</ele>
        <time>2016-12-30T10:43:01.000Z</time>
      </trkpt>
      <trkpt lat="47.47517" lon="6.76417">
        <ele>360.4</ele>
        <time>2016-12-30T10:43:02.000Z</time>
      </trkpt>
      <trkpt lat="47.4752" lon="6.76418">
        <ele>360.4</ele>
        <time>2016-12-30T10:43:03.000Z</time>
      </trkpt>
      <trkpt lat="47.47523" lon="6.76418">
        <ele>360.5</ele>
        <time>2016-12-30T10:43:04.000Z</time>
      </trkpt>
      <trkpt lat="47.47526" lon="6.76417">
        <ele>360.5</ele>
        <time>2016-12-30T10:43:05.000Z</time>
      </trkpt>
      <trkpt lat="47.4753" lon="6.76413">
        <ele>360.6</ele>
        <time>2016-12-30T10:43:06.000Z</time>
      </trkpt>
      <trkpt lat="47.47534" lon="6.76409">
        <ele>360.6</ele>
        <time>2016-12-30T10:43:07.000Z</time>
      </trkpt>
      <trkpt lat="47.47536" lon="6.76406">
        <ele>360.6</ele>
        <time>2016-12-30T10:43:08.000Z</time>
      </trkpt>
      <trkpt lat="47.47537" lon="6.76401">
        <ele>360.5</ele>
        <time>2016-12-30T10:43:09.000Z</time>
      </trkpt>
      <trkpt lat="47.4754" lon="6.76394">
        <ele>359.1</ele>
        <time>2016-12-30T10:43:10.000Z</time>
      </trkpt>
      <trkpt lat="47.47542" lon="6.76386">
        <ele>358.3</ele>
        <time>2016-12-30T10:43:11.000Z</time>
      </trkpt>
      <trkpt lat="47.47544" lon="6.76379">
        <ele>358</ele>
        <time>2016-12-30T10:43:12.000Z</time>
      </trkpt>
      <trkpt lat="47.47546" lon="6.76372">
        <ele>356.8</ele>
        <time>2016-12-30T10:43:13.000Z</time>
      </trkpt>
      <trkpt lat="47.4755" lon="6.76365">
        <ele>356</ele>
        <time>2016-12-30T10:43:14.000Z</time>
      </trkpt>
      <trkpt lat="47.47553" lon="6.76359">
        <ele>355.5</ele>
        <time>2016-12-30T10:43:15.000Z</time>
      </trkpt>
      <trkpt lat="47.47557" lon="6.76352">
        <ele>354.7</ele>
        <time>2016-12-30T10:43:16.000Z</time>
      </trkpt>
      <trkpt lat="47.4756" lon="6.76345">
        <ele>354.3</ele>
        <time>2016-12-30T10:43:17.000Z</time>
      </trkpt>
      <trkpt lat="47.47563" lon="6.7634">
        <ele>353.6</ele>
        <time>2016-12-30T10:43:18.000Z</time>
      </trkpt>
      <trkpt lat="47.47566" lon="6.76334">
        <ele>352.4</ele>
        <time>2016-12-30T10:43:19.000Z</time>
      </trkpt>
      <trkpt lat="47.47569" lon="6.76328">
        <ele>351.5</ele>
        <time>2016-12-30T10:43:20.000Z</time>
      </trkpt>
      <trkpt lat="47.47572" lon="6.76324">
        <ele>350.2</ele>
        <time>2016-12-30T10:43:21.000Z</time>
      </trkpt>
      <trkpt lat="47.47576" lon="6.76319">
        <ele>348.6</ele>
        <time>2016-12-30T10:43:22.000Z</time>
      </trkpt>
      <trkpt lat="47.4758" lon="6.76313">
        <ele>347.6</ele>
        <time>2016-12-30T10:43:23.000Z</time>
      </trkpt>
      <trkpt lat="47.47583" lon="6.76308">
        <ele>347.5</ele>
        <time>2016-12-30T10:43:24.000Z</time>
      </trkpt>
      <trkpt lat="47.47586" lon="6.76304">
        <ele>348</ele>
        <time>2016-12-30T10:43:25.000Z</time>
      </trkpt>
      <trkpt lat="47.47589" lon="6.76299">
        <ele>348.1</ele>
        <time>2016-12-30T10:43:26.000Z</time>
      </trkpt>
      <trkpt lat="47.47593" lon="6.76293">
        <ele>348.1</ele>
        <time>2016-12-30T10:43:27.000Z</time>
      </trkpt>
      <trkpt lat="47.47595" lon="6.76287">
        <ele>348.1</ele>
        <time>2016-12-30T10:43:28.000Z</time>
      </trkpt>
      <trkpt lat="47.47598" lon="6.76282">
        <ele>348.1</ele>
        <time>2016-12-30T10:43:29.000Z</time>
      </trkpt>
      <trkpt lat="47.47601" lon="6.76275">
        <ele>348.2</ele>
        <time>2016-12-30T10:43:30.000Z</time>
      </trkpt>
      <trkpt lat="47.47604" lon="6.76269">
        <ele>349</ele>
        <time>2016-12-30T10:43:31.000Z</time>
      </trkpt>
      <trkpt lat="47.47606" lon="6.76263">
        <ele>349</ele>
        <time>2016-12-30T10:43:32.000Z</time>
      </trkpt>
      <trkpt lat="47.47609" lon="6.76258">
        <ele>349</ele>
        <time>2016-12-30T10:43:33.000Z</time>
      </trkpt>
      <trkpt lat="47.47611" lon="6.76252">
        <ele>349</ele>
        <time>2016-12-30T10:43:34.000Z</time>
      </trkpt>
      <trkpt lat="47.47614" lon="6.76246">
        <ele>348.1</ele>
        <time>2016-12-30T10:43:35.000Z</time>
      </trkpt>
      <trkpt lat="47.47618" lon="6.76239">
        <ele>348.1</ele>
        <time>2016-12-30T10:43:36.000Z</time>
      </trkpt>
      <trkpt lat="47.47621" lon="6.76232">
        <ele>348.7</ele>
        <time>2016-12-30T10:43:37.000Z</time>
      </trkpt>
      <trkpt lat="47.47623" lon="6.76227">
        <ele>349.4</ele>
        <time>2016-12-30T10:43:38.000Z</time>
      </trkpt>
      <trkpt lat="47.47626" lon="6.76223">
        <ele>349.7</ele>
        <time>2016-12-30T10:43:39.000Z</time>
      </trkpt>
      <trkpt lat="47.47628" lon="6.76219">
        <ele>349.9</ele>
        <time>2016-12-30T10:43:40.000Z</time>
      </trkpt>
      <trkpt lat="47.4763" lon="6.76216">
        <ele>349.9</ele>
        <time>2016-12-30T10:43:41.000Z</time>
      </trkpt>
      <trkpt lat="47.47633" lon="6.76211">
        <ele>350</ele>
        <time>2016-12-30T10:43:42.000Z</time>
      </trkpt>
      <trkpt lat="47.47637" lon="6.76205">
        <ele>349.9</ele>
        <time>2016-12-30T10:43:43.000Z</time>
      </trkpt>
      <trkpt lat="47.4764" lon="6.762">
        <ele>349.7</ele>
        <time>2016-12-30T10:43:44.000Z</time>
      </trkpt>
      <trkpt lat="47.47643" lon="6.76194">
        <ele>349.3</ele>
        <time>2016-12-30T10:43:45.000Z</time>
      </trkpt>
      <trkpt lat="47.47645" lon="6.76189">
        <ele>349.2</ele>
        <time>2016-12-30T10:43:46.000Z</time>
      </trkpt>
      <trkpt lat="47.47648" lon="6.76183">
        <ele>349.1</ele>
        <time>2016-12-30T10:43:47.000Z</time>
      </trkpt>
      <trkpt lat="47.4765" lon="6.76177">
        <ele>349</ele>
        <time>2016-12-30T10:43:48.000Z</time>
      </trkpt>
      <trkpt lat="47.47652" lon="6.76171">
        <ele>349</ele>
        <time>2016-12-30T10:43:49.000Z</time>
      </trkpt>
      <trkpt lat="47.47654" lon="6.76165">
        <ele>348.7</ele>
        <time>2016-12-30T10:43:50.000Z</time>
      </trkpt>
      <trkpt lat="47.47656" lon="6.76159">
        <ele>348.5</ele>
        <time>2016-12-30T10:43:51.000Z</time>
      </trkpt>
      <trkpt lat="47.47657" lon="6.76153">
        <ele>348.2</ele>
        <time>2016-12-30T10:43:52.000Z</time>
      </trkpt>
      <trkpt lat="47.47659" lon="6.76148">
        <ele>348.4</ele>
        <time>2016-12-30T10:43:53.000Z</time>
      </trkpt>
      <trkpt lat="47.47662" lon="6.76143">
        <ele>348.2</ele>
        <time>2016-12-30T10:43:54.000Z</time>
      </trkpt>
      <trkpt lat="47.47664" lon="6.76137">
        <ele>348.7</ele>
        <time>2016-12-30T10:43:55.000Z</time>
      </trkpt>
      <trkpt lat="47.47666" lon="6.76131">
        <ele>348.9</ele>
        <time>2016-12-30T10:43:56.000Z</time>
      </trkpt>
      <trkpt lat="47.47668" lon="6.76125">
        <ele>349.4</ele>
        <time>2016-12-30T10:43:57.000Z</time>
      </trkpt>
      <trkpt lat="47.47671" lon="6.76118">
        <ele>349</ele>
        <time>2016-12-30T10:43:58.000Z</time>
      </trkpt>
      <trkpt lat="47.47672" lon="6.7611">
        <ele>348.7</ele>
        <time>2016-12-30T10:43:59.000Z</time>
      </trkpt>
      <trkpt lat="47.47674" lon="6.76102">
        <ele>348.5</ele>
        <time>2016-12-30T10:44:00.000Z</time>
      </trkpt>
      <trkpt lat="47.47676" lon="6.76095">
        <ele>348.5</ele>
        <time>2016-12-30T10:44:01.000Z</time>
      </trkpt>
      <trkpt lat="47.47679" lon="6.7609">
        <ele>348.7</ele>
        <time>2016-12-30T10:44:03.000Z</time>
      </trkpt>
      <trkpt lat="47.47681" lon="6.76093">
        <ele>348.6</ele>
        <time>2016-12-30T10:44:04.000Z</time>
      </trkpt>
      <trkpt lat="47.47682" lon="6.76096">
        <ele>348.7</ele>
        <time>2016-12-30T10:44:05.000Z</time>
      </trkpt>
      <trkpt lat="47.47684" lon="6.761">
        <ele>348.8</ele>
        <time>2016-12-30T10:44:06.000Z</time>
      </trkpt>
      <trkpt lat="47.47685" lon="6.76104">
        <ele>349</ele>
        <time>2016-12-30T10:44:07.000Z</time>
      </trkpt>
      <trkpt lat="47.47687" lon="6.76106">
        <ele>349.1</ele>
        <time>2016-12-30T10:44:08.000Z</time>
      </trkpt>
      <trkpt lat="47.47689" lon="6.76109">
        <ele>349.2</ele>
        <time>2016-12-30T10:44:09.000Z</time>
      </trkpt>
      <trkpt lat="47.47692" lon="6.76113">
        <ele>349.4</ele>
        <time>2016-12-30T10:44:10.000Z</time>
      </trkpt>
      <trkpt lat="47.47695" lon="6.76116">
        <ele>351.4</ele>
        <time>2016-12-30T10:44:11.000Z</time>
      </trkpt>
      <trkpt lat="47.47698" lon="6.7612">
        <ele>353</ele>
        <time>2016-12-30T10:44:12.000Z</time>
      </trkpt>
      <trkpt lat="47.47701" lon="6.76125">
        <ele>354.3</ele>
        <time>2016-12-30T10:44:13.000Z</time>
      </trkpt>
      <trkpt lat="47.47705" lon="6.7613">
        <ele>356.2</ele>
        <time>2016-12-30T10:44:14.000Z</time>
      </trkpt>
      <trkpt lat="47.47708" lon="6.76135">
        <ele>357.7</ele>
        <time>2016-12-30T10:44:15.000Z</time>
      </trkpt>
      <trkpt lat="47.47712" lon="6.76138">
        <ele>359.2</ele>
        <time>2016-12-30T10:44:16.000Z</time>
      </trkpt>
      <trkpt lat="47.47715" lon="6.76142">
        <ele>360.1</ele>
        <time>2016-12-30T10:44:17.000Z</time>
      </trkpt>
      <trkpt lat="47.47718" lon="6.76146">
        <ele>361.2</ele>
        <time>2016-12-30T10:44:18.000Z</time>
      </trkpt>
      <trkpt lat="47.47722" lon="6.7615">
        <ele>362.2</ele>
        <time>2016-12-30T10:44:19.000Z</time>
      </trkpt>
      <trkpt lat="47.47725" lon="6.76155">
        <ele>362.5</ele>
        <time>2016-12-30T10:44:20.000Z</time>
      </trkpt>
      <trkpt lat="47.47728" lon="6.7616">
        <ele>362.9</ele>
        <time>2016-12-30T10:44:21.000Z</time>
      </trkpt>
      <trkpt lat="47.47732" lon="6.76165">
        <ele>363</ele>
        <time>2016-12-30T10:44:22.000Z</time>
      </trkpt>
      <trkpt lat="47.47734" lon="6.76169">
        <ele>363.3</ele>
        <time>2016-12-30T10:44:23.000Z</time>
      </trkpt>
      <trkpt lat="47.47737" lon="6.76174">
        <ele>363.7</ele>
        <time>2016-12-30T10:44:24.000Z</time>
      </trkpt>
      <trkpt lat="47.47741" lon="6.7618">
        <ele>364</ele>
        <time>2016-12-30T10:44:25.000Z</time>
      </trkpt>
      <trkpt lat="47.47745" lon="6.76185">
        <ele>364.5</ele>
        <time>2016-12-30T10:44:26.000Z</time>
      </trkpt>
      <trkpt lat="47.47748" lon="6.7619">
        <ele>365.2</ele>
        <time>2016-12-30T10:44:27.000Z</time>
      </trkpt>
      <trkpt lat="47.4775" lon="6.76194">
        <ele>365.3</ele>
        <time>2016-12-30T10:44:28.000Z</time>
      </trkpt>
      <trkpt lat="47.47753" lon="6.76197">
        <ele>365.7</ele>
        <time>2016-12-30T10:44:29.000Z</time>
      </trkpt>
      <trkpt lat="47.47756" lon="6.76202">
        <ele>366.2</ele>
        <time>2016-12-30T10:44:30.000Z</time>
      </trkpt>
      <trkpt lat="47.47759" lon="6.76206">
        <ele>366.8</ele>
        <time>2016-12-30T10:44:31.000Z</time>
      </trkpt>
      <trkpt lat="47.47762" lon="6.7621">
        <ele>366.6</ele>
        <time>2016-12-30T10:44:32.000Z</time>
      </trkpt>
      <trkpt lat="47.47765" lon="6.76215">
        <ele>366</ele>
        <time>2016-12-30T10:44:33.000Z</time>
      </trkpt>
      <trkpt lat="47.47768" lon="6.76219">
        <ele>365.3</ele>
        <time>2016-12-30T10:44:34.000Z</time>
      </trkpt>
      <trkpt lat="47.4777" lon="6.76224">
        <ele>364.8</ele>
        <time>2016-12-30T10:44:35.000Z</time>
      </trkpt>
      <trkpt lat="47.47773" lon="6.76229">
        <ele>364.1</ele>
        <time>2016-12-30T10:44:36.000Z</time>
      </trkpt>
      <trkpt lat="47.47777" lon="6.76235">
        <ele>363.8</ele>
        <time>2016-12-30T10:44:37.000Z</time>
      </trkpt>
      <trkpt lat="47.47781" lon="6.76241">
        <ele>363</ele>
        <time>2016-12-30T10:44:38.000Z</time>
      </trkpt>
      <trkpt lat="47.47784" lon="6.76245">
        <ele>362.3</ele>
        <time>2016-12-30T10:44:39.000Z</time>
      </trkpt>
      <trkpt lat="47.47788" lon="6.76249">
        <ele>361.7</ele>
        <time>2016-12-30T10:44:40.000Z</time>
      </trkpt>
      <trkpt lat="47.47792" lon="6.76252">
        <ele>360.7</ele>
        <time>2016-12-30T10:44:41.000Z</time>
      </trkpt>
      <trkpt lat="47.47795" lon="6.76255">
        <ele>359.6</ele>
        <time>2016-12-30T10:44:42.000Z</time>
      </trkpt>
      <trkpt lat="47.47799" lon="6.76258">
        <ele>359.6</ele>
        <time>2016-12-30T10:44:43.000Z</time>
      </trkpt>
      <trkpt lat="47.47802" lon="6.7626">
        <ele>359.5</ele>
        <time>2016-12-30T10:44:44.000Z</time>
      </trkpt>
      <trkpt lat="47.47806" lon="6.76263">
        <ele>360.3</ele>
        <time>2016-12-30T10:44:45.000Z</time>
      </trkpt>
      <trkpt lat="47.4781" lon="6.76265">
        <ele>359.5</ele>
        <time>2016-12-30T10:44:46.000Z</time>
      </trkpt>
      <trkpt lat="47.47814" lon="6.76268">
        <ele>358.3</ele>
        <time>2016-12-30T10:44:47.000Z</time>
      </trkpt>
      <trkpt lat="47.47819" lon="6.7627">
        <ele>357.1</ele>
        <time>2016-12-30T10:44:48.000Z</time>
      </trkpt>
      <trkpt lat="47.47823" lon="6.76273">
        <ele>356.9</ele>
        <time>2016-12-30T10:44:49.000Z</time>
      </trkpt>
      <trkpt lat="47.47828" lon="6.76276">
        <ele>356.9</ele>
        <time>2016-12-30T10:44:50.000Z</time>
      </trkpt>
      <trkpt lat="47.47833" lon="6.76279">
        <ele>356.7</ele>
        <time>2016-12-30T10:44:51.000Z</time>
      </trkpt>
      <trkpt lat="47.47837" lon="6.76282">
        <ele>356.9</ele>
        <time>2016-12-30T10:44:52.000Z</time>
      </trkpt>
      <trkpt lat="47.47841" lon="6.76286">
        <ele>357.1</ele>
        <time>2016-12-30T10:44:53.000Z</time>
      </trkpt>
      <trkpt lat="47.47845" lon="6.76291">
        <ele>357.3</ele>
        <time>2016-12-30T10:44:54.000Z</time>
      </trkpt>
      <trkpt lat="47.47849" lon="6.76295">
        <ele>357.3</ele>
        <time>2016-12-30T10:44:55.000Z</time>
      </trkpt>
      <trkpt lat="47.47853" lon="6.76301">
        <ele>357</ele>
        <time>2016-12-30T10:44:56.000Z</time>
      </trkpt>
      <trkpt lat="47.47856" lon="6.76306">
        <ele>357.3</ele>
        <time>2016-12-30T10:44:57.000Z</time>
      </trkpt>
      <trkpt lat="47.47859" lon="6.76311">
        <ele>357.4</ele>
        <time>2016-12-30T10:44:58.000Z</time>
      </trkpt>
      <trkpt lat="47.47862" lon="6.76317">
        <ele>357.3</ele>
        <time>2016-12-30T10:44:59.000Z</time>
      </trkpt>
      <trkpt lat="47.47864" lon="6.76322">
        <ele>356.8</ele>
        <time>2016-12-30T10:45:00.000Z</time>
      </trkpt>
      <trkpt lat="47.47866" lon="6.76327">
        <ele>356.5</ele>
        <time>2016-12-30T10:45:01.000Z</time>
      </trkpt>
      <trkpt lat="47.47869" lon="6.76333">
        <ele>356.5</ele>
        <time>2016-12-30T10:45:02.000Z</time>
      </trkpt>
      <trkpt lat="47.47871" lon="6.76338">
        <ele>357.2</ele>
        <time>2016-12-30T10:45:03.000Z</time>
      </trkpt>
      <trkpt lat="47.47873" lon="6.76342">
        <ele>357.8</ele>
        <time>2016-12-30T10:45:04.000Z</time>
      </trkpt>
      <trkpt lat="47.47876" lon="6.76347">
        <ele>358.3</ele>
        <time>2016-12-30T10:45:05.000Z</time>
      </trkpt>
      <trkpt lat="47.47879" lon="6.76354">
        <ele>359</ele>
        <time>2016-12-30T10:45:06.000Z</time>
      </trkpt>
      <trkpt lat="47.47881" lon="6.76359">
        <ele>359.4</ele>
        <time>2016-12-30T10:45:07.000Z</time>
      </trkpt>
      <trkpt lat="47.47883" lon="6.76363">
        <ele>359.7</ele>
        <time>2016-12-30T10:45:08.000Z</time>
      </trkpt>
      <trkpt lat="47.47886" lon="6.76369">
        <ele>360.4</ele>
        <time>2016-12-30T10:45:09.000Z</time>
      </trkpt>
      <trkpt lat="47.47889" lon="6.76375">
        <ele>361</ele>
        <time>2016-12-30T10:45:10.000Z</time>
      </trkpt>
      <trkpt lat="47.47891" lon="6.7638">
        <ele>361</ele>
        <time>2016-12-30T10:45:11.000Z</time>
      </trkpt>
      <trkpt lat="47.47894" lon="6.76385">
        <ele>361</ele>
        <time>2016-12-30T10:45:12.000Z</time>
      </trkpt>
      <trkpt lat="47.47896" lon="6.7639">
        <ele>361</ele>
        <time>2016-12-30T10:45:13.000Z</time>
      </trkpt>
      <trkpt lat="47.47898" lon="6.76395">
        <ele>361.6</ele>
        <time>2016-12-30T10:45:14.000Z</time>
      </trkpt>
      <trkpt lat="47.479" lon="6.764">
        <ele>362.3</ele>
        <time>2016-12-30T10:45:15.000Z</time>
      </trkpt>
      <trkpt lat="47.47902" lon="6.76405">
        <ele>362.6</ele>
        <time>2016-12-30T10:45:16.000Z</time>
      </trkpt>
      <trkpt lat="47.47904" lon="6.7641">
        <ele>362.6</ele>
        <time>2016-12-30T10:45:17.000Z</time>
      </trkpt>
      <trkpt lat="47.47906" lon="6.76415">
        <ele>362.6</ele>
        <time>2016-12-30T10:45:18.000Z</time>
      </trkpt>
      <trkpt lat="47.47908" lon="6.7642">
        <ele>362.6</ele>
        <time>2016-12-30T10:45:19.000Z</time>
      </trkpt>
      <trkpt lat="47.47909" lon="6.76424">
        <ele>362.6</ele>
        <time>2016-12-30T10:45:20.000Z</time>
      </trkpt>
      <trkpt lat="47.47912" lon="6.76429">
        <ele>362.5</ele>
        <time>2016-12-30T10:45:21.000Z</time>
      </trkpt>
      <trkpt lat="47.47913" lon="6.76435">
        <ele>362.5</ele>
        <time>2016-12-30T10:45:22.000Z</time>
      </trkpt>
      <trkpt lat="47.47914" lon="6.76441">
        <ele>362.5</ele>
        <time>2016-12-30T10:45:23.000Z</time>
      </trkpt>
      <trkpt lat="47.47915" lon="6.76446">
        <ele>362.5</ele>
        <time>2016-12-30T10:45:24.000Z</time>
      </trkpt>
      <trkpt lat="47.47916" lon="6.7645">
        <ele>362.6</ele>
        <time>2016-12-30T10:45:25.000Z</time>
      </trkpt>
      <trkpt lat="47.47918" lon="6.76456">
        <ele>362.9</ele>
        <time>2016-12-30T10:45:26.000Z</time>
      </trkpt>
      <trkpt lat="47.47919" lon="6.76463">
        <ele>362.9</ele>
        <time>2016-12-30T10:45:27.000Z</time>
      </trkpt>
      <trkpt lat="47.47921" lon="6.76468">
        <ele>363.1</ele>
        <time>2016-12-30T10:45:28.000Z</time>
      </trkpt>
      <trkpt lat="47.47923" lon="6.76474">
        <ele>363</ele>
        <time>2016-12-30T10:45:29.000Z</time>
      </trkpt>
      <trkpt lat="47.47924" lon="6.76477">
        <ele>363</ele>
        <time>2016-12-30T10:45:30.000Z</time>
      </trkpt>
      <trkpt lat="47.47925" lon="6.76483">
        <ele>363</ele>
        <time>2016-12-30T10:45:31.000Z</time>
      </trkpt>
      <trkpt lat="47.47926" lon="6.76489">
        <ele>363.4</ele>
        <time>2016-12-30T10:45:32.000Z</time>
      </trkpt>
      <trkpt lat="47.47927" lon="6.76496">
        <ele>363.6</ele>
        <time>2016-12-30T10:45:33.000Z</time>
      </trkpt>
      <trkpt lat="47.47928" lon="6.76502">
        <ele>362.5</ele>
        <time>2016-12-30T10:45:34.000Z</time>
      </trkpt>
      <trkpt lat="47.47929" lon="6.76509">
        <ele>362.3</ele>
        <time>2016-12-30T10:45:35.000Z</time>
      </trkpt>
      <trkpt lat="47.4793" lon="6.76515">
        <ele>362.4</ele>
        <time>2016-12-30T10:45:36.000Z</time>
      </trkpt>
      <trkpt lat="47.47932" lon="6.76521">
        <ele>362</ele>
        <time>2016-12-30T10:45:37.000Z</time>
      </trkpt>
      <trkpt lat="47.47933" lon="6.76527">
        <ele>362.1</ele>
        <time>2016-12-30T10:45:38.000Z</time>
      </trkpt>
      <trkpt lat="47.47934" lon="6.76533">
        <ele>361.9</ele>
        <time>2016-12-30T10:45:39.000Z</time>
      </trkpt>
      <trkpt lat="47.47935" lon="6.76538">
        <ele>361.8</ele>
        <time>2016-12-30T10:45:40.000Z</time>
      </trkpt>
      <trkpt lat="47.47937" lon="6.76544">
        <ele>361.8</ele>
        <time>2016-12-30T10:45:41.000Z</time>
      </trkpt>
      <trkpt lat="47.47938" lon="6.7655">
        <ele>361.9</ele>
        <time>2016-12-30T10:45:42.000Z</time>
      </trkpt>
      <trkpt lat="47.47939" lon="6.76556">
        <ele>362</ele>
        <time>2016-12-30T10:45:43.000Z</time>
      </trkpt>
      <trkpt lat="47.4794" lon="6.76562">
        <ele>362.1</ele>
        <time>2016-12-30T10:45:44.000Z</time>
      </trkpt>
      <trkpt lat="47.47941" lon="6.76569">
        <ele>362.4</ele>
        <time>2016-12-30T10:45:45.000Z</time>
      </trkpt>
      <trkpt lat="47.47943" lon="6.76577">
        <ele>362.7</ele>
        <time>2016-12-30T10:45:46.000Z</time>
      </trkpt>
      <trkpt lat="47.47944" lon="6.76583">
        <ele>362.4</ele>
        <time>2016-12-30T10:45:47.000Z</time>
      </trkpt>
      <trkpt lat="47.47945" lon="6.76589">
        <ele>362.3</ele>
        <time>2016-12-30T10:45:48.000Z</time>
      </trkpt>
      <trkpt lat="47.47946" lon="6.76594">
        <ele>362.3</ele>
        <time>2016-12-30T10:45:49.000Z</time>
      </trkpt>
      <trkpt lat="47.47947" lon="6.76599">
        <ele>362.3</ele>
        <time>2016-12-30T10:45:50.000Z</time>
      </trkpt>
      <trkpt lat="47.47948" lon="6.76602">
        <ele>362.4</ele>
        <time>2016-12-30T10:45:51.000Z</time>
      </trkpt>
      <trkpt lat="47.4795" lon="6.76607">
        <ele>362.4</ele>
        <time>2016-12-30T10:45:53.000Z</time>
      </trkpt>
      <trkpt lat="47.47951" lon="6.76608">
        <ele>362.5</ele>
        <time>2016-12-30T10:45:54.000Z</time>
      </trkpt>
      <trkpt lat="47.47953" lon="6.76612">
        <ele>362.8</ele>
        <time>2016-12-30T10:45:56.000Z</time>
      </trkpt>
      <trkpt lat="47.47954" lon="6.76613">
        <ele>362.8</ele>
        <time>2016-12-30T10:45:57.000Z</time>
      </trkpt>
      <trkpt lat="47.47956" lon="6.76616">
        <ele>362.9</ele>
        <time>2016-12-30T10:45:58.000Z</time>
      </trkpt>
      <trkpt lat="47.47959" lon="6.76618">
        <ele>362.9</ele>
        <time>2016-12-30T10:45:59.000Z</time>
      </trkpt>
      <trkpt lat="47.47962" lon="6.76621">
        <ele>362.4</ele>
        <time>2016-12-30T10:46:06.000Z</time>
      </trkpt>
      <trkpt lat="47.47965" lon="6.76623">
        <ele>362.3</ele>
        <time>2016-12-30T10:46:07.000Z</time>
      </trkpt>
      <trkpt lat="47.47968" lon="6.76623">
        <ele>362.3</ele>
        <time>2016-12-30T10:46:09.000Z</time>
      </trkpt>
      <trkpt lat="47.47971" lon="6.76621">
        <ele>362.3</ele>
        <time>2016-12-30T10:46:10.000Z</time>
      </trkpt>
      <trkpt lat="47.47973" lon="6.76619">
        <ele>362.3</ele>
        <time>2016-12-30T10:46:11.000Z</time>
      </trkpt>
      <trkpt lat="47.47975" lon="6.76618">
        <ele>362.4</ele>
        <time>2016-12-30T10:46:12.000Z</time>
      </trkpt>
      <trkpt lat="47.47979" lon="6.76615">
        <ele>362.4</ele>
        <time>2016-12-30T10:46:13.000Z</time>
      </trkpt>
      <trkpt lat="47.47982" lon="6.76613">
        <ele>362.3</ele>
        <time>2016-12-30T10:46:14.000Z</time>
      </trkpt>
      <trkpt lat="47.47986" lon="6.76609">
        <ele>362</ele>
        <time>2016-12-30T10:46:15.000Z</time>
      </trkpt>
      <trkpt lat="47.47991" lon="6.76606">
        <ele>362</ele>
        <time>2016-12-30T10:46:16.000Z</time>
      </trkpt>
      <trkpt lat="47.47996" lon="6.76603">
        <ele>362</ele>
        <time>2016-12-30T10:46:17.000Z</time>
      </trkpt>
      <trkpt lat="47.48001" lon="6.766">
        <ele>361.8</ele>
        <time>2016-12-30T10:46:18.000Z</time>
      </trkpt>
      <trkpt lat="47.48006" lon="6.76597">
        <ele>361</ele>
        <time>2016-12-30T10:46:19.000Z</time>
      </trkpt>
      <trkpt lat="47.4801" lon="6.76595">
        <ele>360.9</ele>
        <time>2016-12-30T10:46:20.000Z</time>
      </trkpt>
      <trkpt lat="47.48014" lon="6.76593">
        <ele>360.2</ele>
        <time>2016-12-30T10:46:21.000Z</time>
      </trkpt>
      <trkpt lat="47.48019" lon="6.7659">
        <ele>358.7</ele>
        <time>2016-12-30T10:46:22.000Z</time>
      </trkpt>
      <trkpt lat="47.48025" lon="6.76585">
        <ele>356.8</ele>
        <time>2016-12-30T10:46:23.000Z</time>
      </trkpt>
      <trkpt lat="47.48029" lon="6.76582">
        <ele>354.8</ele>
        <time>2016-12-30T10:46:24.000Z</time>
      </trkpt>
      <trkpt lat="47.48033" lon="6.76579">
        <ele>352.6</ele>
        <time>2016-12-30T10:46:25.000Z</time>
      </trkpt>
      <trkpt lat="47.48037" lon="6.76576">
        <ele>351</ele>
        <time>2016-12-30T10:46:26.000Z</time>
      </trkpt>
      <trkpt lat="47.48041" lon="6.76573">
        <ele>349.5</ele>
        <time>2016-12-30T10:46:27.000Z</time>
      </trkpt>
      <trkpt lat="47.48045" lon="6.76569">
        <ele>349.4</ele>
        <time>2016-12-30T10:46:28.000Z</time>
      </trkpt>
      <trkpt lat="47.48049" lon="6.76566">
        <ele>349</ele>
        <time>2016-12-30T10:46:29.000Z</time>
      </trkpt>
      <trkpt lat="47.48053" lon="6.76562">
        <ele>347.9</ele>
        <time>2016-12-30T10:46:30.000Z</time>
      </trkpt>
      <trkpt lat="47.48058" lon="6.76558">
        <ele>346.4</ele>
        <time>2016-12-30T10:46:31.000Z</time>
      </trkpt>
      <trkpt lat="47.48062" lon="6.76554">
        <ele>345.4</ele>
        <time>2016-12-30T10:46:32.000Z</time>
      </trkpt>
      <trkpt lat="47.48065" lon="6.7655">
        <ele>344.2</ele>
        <time>2016-12-30T10:46:33.000Z</time>
      </trkpt>
      <trkpt lat="47.48069" lon="6.76546">
        <ele>343.5</ele>
        <time>2016-12-30T10:46:34.000Z</time>
      </trkpt>
      <trkpt lat="47.48074" lon="6.76542">
        <ele>343.6</ele>
        <time>2016-12-30T10:46:35.000Z</time>
      </trkpt>
      <trkpt lat="47.48078" lon="6.76537">
        <ele>343.6</ele>
        <time>2016-12-30T10:46:36.000Z</time>
      </trkpt>
      <trkpt lat="47.48081" lon="6.76533">
        <ele>343.7</ele>
        <time>2016-12-30T10:46:37.000Z</time>
      </trkpt>
      <trkpt lat="47.48086" lon="6.76529">
        <ele>344.7</ele>
        <time>2016-12-30T10:46:38.000Z</time>
      </trkpt>
      <trkpt lat="47.4809" lon="6.76524">
        <ele>345.7</ele>
        <time>2016-12-30T10:46:39.000Z</time>
      </trkpt>
      <trkpt lat="47.48095" lon="6.7652">
        <ele>346.7</ele>
        <time>2016-12-30T10:46:40.000Z</time>
      </trkpt>
      <trkpt lat="47.48099" lon="6.76516">
        <ele>348.3</ele>
        <time>2016-12-30T10:46:41.000Z</time>
      </trkpt>
      <trkpt lat="47.48104" lon="6.76513">
        <ele>348.5</ele>
        <time>2016-12-30T10:46:42.000Z</time>
      </trkpt>
      <trkpt lat="47.48107" lon="6.7651">
        <ele>348.6</ele>
        <time>2016-12-30T10:46:43.000Z</time>
      </trkpt>
      <trkpt lat="47.48111" lon="6.76508">
        <ele>348.7</ele>
        <time>2016-12-30T10:46:44.000Z</time>
      </trkpt>
      <trkpt lat="47.48114" lon="6.76514">
        <ele>348.8</ele>
        <time>2016-12-30T10:46:45.000Z</time>
      </trkpt>
      <trkpt lat="47.48117" lon="6.76519">
        <ele>348.8</ele>
        <time>2016-12-30T10:46:46.000Z</time>
      </trkpt>
      <trkpt lat="47.4812" lon="6.76524">
        <ele>348.9</ele>
        <time>2016-12-30T10:46:47.000Z</time>
      </trkpt>
      <trkpt lat="47.48122" lon="6.76528">
        <ele>349</ele>
        <time>2016-12-30T10:46:48.000Z</time>
      </trkpt>
      <trkpt lat="47.48124" lon="6.76532">
        <ele>349.1</ele>
        <time>2016-12-30T10:46:49.000Z</time>
      </trkpt>
      <trkpt lat="47.48127" lon="6.76537">
        <ele>349.7</ele>
        <time>2016-12-30T10:46:50.000Z</time>
      </trkpt>
      <trkpt lat="47.48127" lon="6.76541">
        <ele>349.7</ele>
        <time>2016-12-30T10:46:51.000Z</time>
      </trkpt>
      <trkpt lat="47.48126" lon="6.76546">
        <ele>350.1</ele>
        <time>2016-12-30T10:46:52.000Z</time>
      </trkpt>
      <trkpt lat="47.48124" lon="6.7655">
        <ele>350.8</ele>
        <time>2016-12-30T10:46:53.000Z</time>
      </trkpt>
      <trkpt lat="47.48121" lon="6.76557">
        <ele>351.6</ele>
        <time>2016-12-30T10:46:54.000Z</time>
      </trkpt>
      <trkpt lat="47.48118" lon="6.76563">
        <ele>351.7</ele>
        <time>2016-12-30T10:46:55.000Z</time>
      </trkpt>
      <trkpt lat="47.48115" lon="6.7657">
        <ele>352</ele>
        <time>2016-12-30T10:46:56.000Z</time>
      </trkpt>
      <trkpt lat="47.48111" lon="6.76577">
        <ele>352.4</ele>
        <time>2016-12-30T10:46:57.000Z</time>
      </trkpt>
      <trkpt lat="47.48108" lon="6.76585">
        <ele>352.3</ele>
        <time>2016-12-30T10:46:58.000Z</time>
      </trkpt>
      <trkpt lat="47.48105" lon="6.76591">
        <ele>352.4</ele>
        <time>2016-12-30T10:46:59.000Z</time>
      </trkpt>
      <trkpt lat="47.48103" lon="6.76598">
        <ele>351.9</ele>
        <time>2016-12-30T10:47:00.000Z</time>
      </trkpt>
      <trkpt lat="47.48102" lon="6.76607">
        <ele>351.9</ele>
        <time>2016-12-30T10:47:01.000Z</time>
      </trkpt>
      <trkpt lat="47.48101" lon="6.76616">
        <ele>352.4</ele>
        <time>2016-12-30T10:47:02.000Z</time>
      </trkpt>
      <trkpt lat="47.48102" lon="6.76623">
        <ele>352.5</ele>
        <time>2016-12-30T10:47:03.000Z</time>
      </trkpt>
      <trkpt lat="47.48104" lon="6.76629">
        <ele>352.6</ele>
        <time>2016-12-30T10:47:04.000Z</time>
      </trkpt>
      <trkpt lat="47.48106" lon="6.76633">
        <ele>353.4</ele>
        <time>2016-12-30T10:47:05.000Z</time>
      </trkpt>
      <trkpt lat="47.48109" lon="6.76638">
        <ele>354</ele>
        <time>2016-12-30T10:47:06.000Z</time>
      </trkpt>
      <trkpt lat="47.4811" lon="6.76642">
        <ele>354.1</ele>
        <time>2016-12-30T10:47:07.000Z</time>
      </trkpt>
      <trkpt lat="47.48113" lon="6.76647">
        <ele>354.5</ele>
        <time>2016-12-30T10:47:08.000Z</time>
      </trkpt>
      <trkpt lat="47.48115" lon="6.76652">
        <ele>355</ele>
        <time>2016-12-30T10:47:09.000Z</time>
      </trkpt>
      <trkpt lat="47.48119" lon="6.76657">
        <ele>354.6</ele>
        <time>2016-12-30T10:47:10.000Z</time>
      </trkpt>
      <trkpt lat="47.48122" lon="6.76661">
        <ele>354.5</ele>
        <time>2016-12-30T10:47:11.000Z</time>
      </trkpt>
      <trkpt lat="47.48125" lon="6.76666">
        <ele>354.8</ele>
        <time>2016-12-30T10:47:12.000Z</time>
      </trkpt>
      <trkpt lat="47.48128" lon="6.76672">
        <ele>355.4</ele>
        <time>2016-12-30T10:47:13.000Z</time>
      </trkpt>
      <trkpt lat="47.48132" lon="6.7668">
        <ele>355.8</ele>
        <time>2016-12-30T10:47:14.000Z</time>
      </trkpt>
      <trkpt lat="47.48136" lon="6.76687">
        <ele>356.2</ele>
        <time>2016-12-30T10:47:15.000Z</time>
      </trkpt>
      <trkpt lat="47.48139" lon="6.76694">
        <ele>356.5</ele>
        <time>2016-12-30T10:47:16.000Z</time>
      </trkpt>
      <trkpt lat="47.48143" lon="6.76702">
        <ele>357</ele>
        <time>2016-12-30T10:47:17.000Z</time>
      </trkpt>
      <trkpt lat="47.48146" lon="6.76709">
        <ele>357</ele>
        <time>2016-12-30T10:47:18.000Z</time>
      </trkpt>
      <trkpt lat="47.48149" lon="6.76715">
        <ele>357.4</ele>
        <time>2016-12-30T10:47:19.000Z</time>
      </trkpt>
      <trkpt lat="47.48152" lon="6.76722">
        <ele>357.4</ele>
        <time>2016-12-30T10:47:20.000Z</time>
      </trkpt>
      <trkpt lat="47.48155" lon="6.76728">
        <ele>357.6</ele>
        <time>2016-12-30T10:47:21.000Z</time>
      </trkpt>
      <trkpt lat="47.48158" lon="6.76734">
        <ele>357.8</ele>
        <time>2016-12-30T10:47:22.000Z</time>
      </trkpt>
      <trkpt lat="47.48162" lon="6.76741">
        <ele>357.9</ele>
        <time>2016-12-30T10:47:23.000Z</time>
      </trkpt>
      <trkpt lat="47.48165" lon="6.76747">
        <ele>357.9</ele>
        <time>2016-12-30T10:47:24.000Z</time>
      </trkpt>
      <trkpt lat="47.48169" lon="6.76753">
        <ele>357.9</ele>
        <time>2016-12-30T10:47:25.000Z</time>
      </trkpt>
      <trkpt lat="47.48172" lon="6.76757">
        <ele>357.9</ele>
        <time>2016-12-30T10:47:26.000Z</time>
      </trkpt>
      <trkpt lat="47.48175" lon="6.76762">
        <ele>358</ele>
        <time>2016-12-30T10:47:27.000Z</time>
      </trkpt>
      <trkpt lat="47.48179" lon="6.76767">
        <ele>357.9</ele>
        <time>2016-12-30T10:47:28.000Z</time>
      </trkpt>
      <trkpt lat="47.48182" lon="6.76771">
        <ele>357.4</ele>
        <time>2016-12-30T10:47:29.000Z</time>
      </trkpt>
      <trkpt lat="47.48187" lon="6.76774">
        <ele>357.3</ele>
        <time>2016-12-30T10:47:30.000Z</time>
      </trkpt>
      <trkpt lat="47.48191" lon="6.76778">
        <ele>357.3</ele>
        <time>2016-12-30T10:47:31.000Z</time>
      </trkpt>
      <trkpt lat="47.48196" lon="6.76781">
        <ele>357.2</ele>
        <time>2016-12-30T10:47:32.000Z</time>
      </trkpt>
      <trkpt lat="47.48201" lon="6.76784">
        <ele>357</ele>
        <time>2016-12-30T10:47:33.000Z</time>
      </trkpt>
      <trkpt lat="47.48205" lon="6.76787">
        <ele>357.1</ele>
        <time>2016-12-30T10:47:34.000Z</time>
      </trkpt>
      <trkpt lat="47.48209" lon="6.7679">
        <ele>356.9</ele>
        <time>2016-12-30T10:47:35.000Z</time>
      </trkpt>
      <trkpt lat="47.48213" lon="6.76792">
        <ele>357</ele>
        <time>2016-12-30T10:47:36.000Z</time>
      </trkpt>
      <trkpt lat="47.48217" lon="6.76794">
        <ele>357.1</ele>
        <time>2016-12-30T10:47:37.000Z</time>
      </trkpt>
      <trkpt lat="47.48221" lon="6.76796">
        <ele>356.3</ele>
        <time>2016-12-30T10:47:38.000Z</time>
      </trkpt>
      <trkpt lat="47.48227" lon="6.76798">
        <ele>355.6</ele>
        <time>2016-12-30T10:47:39.000Z</time>
      </trkpt>
      <trkpt lat="47.48232" lon="6.768">
        <ele>354.8</ele>
        <time>2016-12-30T10:47:40.000Z</time>
      </trkpt>
      <trkpt lat="47.48237" lon="6.76802">
        <ele>354.4</ele>
        <time>2016-12-30T10:47:41.000Z</time>
      </trkpt>
      <trkpt lat="47.48242" lon="6.76806">
        <ele>354.1</ele>
        <time>2016-12-30T10:47:42.000Z</time>
      </trkpt>
      <trkpt lat="47.48247" lon="6.76811">
        <ele>354</ele>
        <time>2016-12-30T10:47:43.000Z</time>
      </trkpt>
      <trkpt lat="47.48252" lon="6.76816">
        <ele>354</ele>
        <time>2016-12-30T10:47:44.000Z</time>
      </trkpt>
      <trkpt lat="47.48256" lon="6.76821">
        <ele>354.3</ele>
        <time>2016-12-30T10:47:45.000Z</time>
      </trkpt>
      <trkpt lat="47.48261" lon="6.76826">
        <ele>354.4</ele>
        <time>2016-12-30T10:47:46.000Z</time>
      </trkpt>
      <trkpt lat="47.48265" lon="6.76832">
        <ele>354</ele>
        <time>2016-12-30T10:47:47.000Z</time>
      </trkpt>
      <trkpt lat="47.48269" lon="6.76837">
        <ele>354.2</ele>
        <time>2016-12-30T10:47:48.000Z</time>
      </trkpt>
      <trkpt lat="47.48274" lon="6.76842">
        <ele>354.1</ele>
        <time>2016-12-30T10:47:49.000Z</time>
      </trkpt>
      <trkpt lat="47.48277" lon="6.76846">
        <ele>354.1</ele>
        <time>2016-12-30T10:47:50.000Z</time>
      </trkpt>
      <trkpt lat="47.48281" lon="6.76852">
        <ele>353.6</ele>
        <time>2016-12-30T10:47:51.000Z</time>
      </trkpt>
      <trkpt lat="47.48288" lon="6.76862">
        <ele>354.2</ele>
        <time>2016-12-30T10:47:53.000Z</time>
      </trkpt>
      <trkpt lat="47.48296" lon="6.76872">
        <ele>353.8</ele>
        <time>2016-12-30T10:47:55.000Z</time>
      </trkpt>
      <trkpt lat="47.48301" lon="6.76878">
        <ele>353</ele>
        <time>2016-12-30T10:47:56.000Z</time>
      </trkpt>
      <trkpt lat="47.48306" lon="6.76883">
        <ele>352.9</ele>
        <time>2016-12-30T10:47:57.000Z</time>
      </trkpt>
      <trkpt lat="47.48311" lon="6.76888">
        <ele>352.9</ele>
        <time>2016-12-30T10:47:58.000Z</time>
      </trkpt>
      <trkpt lat="47.48317" lon="6.76893">
        <ele>353.1</ele>
        <time>2016-12-30T10:47:59.000Z</time>
      </trkpt>
      <trkpt lat="47.48322" lon="6.76897">
        <ele>352.3</ele>
        <time>2016-12-30T10:48:00.000Z</time>
      </trkpt>
      <trkpt lat="47.48327" lon="6.769">
        <ele>352.4</ele>
        <time>2016-12-30T10:48:01.000Z</time>
      </trkpt>
      <trkpt lat="47.48332" lon="6.76903">
        <ele>352.3</ele>
        <time>2016-12-30T10:48:02.000Z</time>
      </trkpt>
      <trkpt lat="47.48337" lon="6.76906">
        <ele>352.7</ele>
        <time>2016-12-30T10:48:03.000Z</time>
      </trkpt>
      <trkpt lat="47.48342" lon="6.76909">
        <ele>353.3</ele>
        <time>2016-12-30T10:48:04.000Z</time>
      </trkpt>
      <trkpt lat="47.48348" lon="6.76913">
        <ele>353</ele>
        <time>2016-12-30T10:48:05.000Z</time>
      </trkpt>
      <trkpt lat="47.48353" lon="6.76916">
        <ele>352.8</ele>
        <time>2016-12-30T10:48:06.000Z</time>
      </trkpt>
      <trkpt lat="47.48359" lon="6.7692">
        <ele>352.4</ele>
        <time>2016-12-30T10:48:07.000Z</time>
      </trkpt>
      <trkpt lat="47.48365" lon="6.76924">
        <ele>352.2</ele>
        <time>2016-12-30T10:48:08.000Z</time>
      </trkpt>
      <trkpt lat="47.4837" lon="6.76928">
        <ele>351.9</ele>
        <time>2016-12-30T10:48:09.000Z</time>
      </trkpt>
      <trkpt lat="47.48376" lon="6.76932">
        <ele>351.9</ele>
        <time>2016-12-30T10:48:10.000Z</time>
      </trkpt>
      <trkpt lat="47.48383" lon="6.76936">
        <ele>352.1</ele>
        <time>2016-12-30T10:48:11.000Z</time>
      </trkpt>
      <trkpt lat="47.4839" lon="6.76941">
        <ele>352.4</ele>
        <time>2016-12-30T10:48:12.000Z</time>
      </trkpt>
      <trkpt lat="47.48397" lon="6.76945">
        <ele>352.4</ele>
        <time>2016-12-30T10:48:13.000Z</time>
      </trkpt>
      <trkpt lat="47.48404" lon="6.76948">
        <ele>352.1</ele>
        <time>2016-12-30T10:48:14.000Z</time>
      </trkpt>
      <trkpt lat="47.48411" lon="6.76952">
        <ele>351.8</ele>
        <time>2016-12-30T10:48:15.000Z</time>
      </trkpt>
      <trkpt lat="47.48417" lon="6.76956">
        <ele>352.1</ele>
        <time>2016-12-30T10:48:16.000Z</time>
      </trkpt>
      <trkpt lat="47.48423" lon="6.76959">
        <ele>353</ele>
        <time>2016-12-30T10:48:17.000Z</time>
      </trkpt>
      <trkpt lat="47.48429" lon="6.76962">
        <ele>354.5</ele>
        <time>2016-12-30T10:48:18.000Z</time>
      </trkpt>
      <trkpt lat="47.48435" lon="6.76966">
        <ele>354.9</ele>
        <time>2016-12-30T10:48:19.000Z</time>
      </trkpt>
      <trkpt lat="47.48441" lon="6.7697">
        <ele>355.6</ele>
        <time>2016-12-30T10:48:20.000Z</time>
      </trkpt>
      <trkpt lat="47.48448" lon="6.76974">
        <ele>356.3</ele>
        <time>2016-12-30T10:48:21.000Z</time>
      </trkpt>
      <trkpt lat="47.48454" lon="6.76977">
        <ele>357.3</ele>
        <time>2016-12-30T10:48:22.000Z</time>
      </trkpt>
      <trkpt lat="47.48459" lon="6.76981">
        <ele>358.1</ele>
        <time>2016-12-30T10:48:23.000Z</time>
      </trkpt>
      <trkpt lat="47.48465" lon="6.76985">
        <ele>358.3</ele>
        <time>2016-12-30T10:48:24.000Z</time>
      </trkpt>
      <trkpt lat="47.48471" lon="6.76989">
        <ele>358.1</ele>
        <time>2016-12-30T10:48:25.000Z</time>
      </trkpt>
      <trkpt lat="47.48476" lon="6.76992">
        <ele>358.3</ele>
        <time>2016-12-30T10:48:26.000Z</time>
      </trkpt>
      <trkpt lat="47.48483" lon="6.76996">
        <ele>358.2</ele>
        <time>2016-12-30T10:48:27.000Z</time>
      </trkpt>
      <trkpt lat="47.4849" lon="6.77001">
        <ele>357.9</ele>
        <time>2016-12-30T10:48:28.000Z</time>
      </trkpt>
      <trkpt lat="47.48497" lon="6.77005">
        <ele>358</ele>
        <time>2016-12-30T10:48:29.000Z</time>
      </trkpt>
      <trkpt lat="47.48503" lon="6.77009">
        <ele>357.8</ele>
        <time>2016-12-30T10:48:30.000Z</time>
      </trkpt>
      <trkpt lat="47.4851" lon="6.77013">
        <ele>356.8</ele>
        <time>2016-12-30T10:48:31.000Z</time>
      </trkpt>
      <trkpt lat="47.48516" lon="6.77017">
        <ele>356.4</ele>
        <time>2016-12-30T10:48:32.000Z</time>
      </trkpt>
      <trkpt lat="47.48524" lon="6.77022">
        <ele>355.9</ele>
        <time>2016-12-30T10:48:33.000Z</time>
      </trkpt>
      <trkpt lat="47.4853" lon="6.77027">
        <ele>355.2</ele>
        <time>2016-12-30T10:48:34.000Z</time>
      </trkpt>
      <trkpt lat="47.48534" lon="6.7703">
        <ele>354.5</ele>
        <time>2016-12-30T10:48:35.000Z</time>
      </trkpt>
      <trkpt lat="47.4854" lon="6.77034">
        <ele>353.7</ele>
        <time>2016-12-30T10:48:36.000Z</time>
      </trkpt>
      <trkpt lat="47.48546" lon="6.77038">
        <ele>352.5</ele>
        <time>2016-12-30T10:48:37.000Z</time>
      </trkpt>
      <trkpt lat="47.48552" lon="6.77042">
        <ele>351.9</ele>
        <time>2016-12-30T10:48:38.000Z</time>
      </trkpt>
      <trkpt lat="47.48557" lon="6.77045">
        <ele>351.8</ele>
        <time>2016-12-30T10:48:39.000Z</time>
      </trkpt>
      <trkpt lat="47.48561" lon="6.77045">
        <ele>351.1</ele>
        <time>2016-12-30T10:48:40.000Z</time>
      </trkpt>
      <trkpt lat="47.48565" lon="6.77046">
        <ele>351.8</ele>
        <time>2016-12-30T10:48:41.000Z</time>
      </trkpt>
      <trkpt lat="47.48569" lon="6.77048">
        <ele>353</ele>
        <time>2016-12-30T10:48:42.000Z</time>
      </trkpt>
      <trkpt lat="47.48574" lon="6.77051">
        <ele>354.3</ele>
        <time>2016-12-30T10:48:43.000Z</time>
      </trkpt>
      <trkpt lat="47.4858" lon="6.77053">
        <ele>355.6</ele>
        <time>2016-12-30T10:48:44.000Z</time>
      </trkpt>
      <trkpt lat="47.48586" lon="6.77056">
        <ele>356</ele>
        <time>2016-12-30T10:48:45.000Z</time>
      </trkpt>
      <trkpt lat="47.48591" lon="6.77059">
        <ele>355.9</ele>
        <time>2016-12-30T10:48:46.000Z</time>
      </trkpt>
      <trkpt lat="47.48595" lon="6.77062">
        <ele>355.5</ele>
        <time>2016-12-30T10:48:47.000Z</time>
      </trkpt>
      <trkpt lat="47.486" lon="6.77065">
        <ele>354.8</ele>
        <time>2016-12-30T10:48:48.000Z</time>
      </trkpt>
      <trkpt lat="47.48605" lon="6.77068">
        <ele>355.1</ele>
        <time>2016-12-30T10:48:49.000Z</time>
      </trkpt>
      <trkpt lat="47.4861" lon="6.77073">
        <ele>355.7</ele>
        <time>2016-12-30T10:48:50.000Z</time>
      </trkpt>
      <trkpt lat="47.48614" lon="6.77077">
        <ele>355.8</ele>
        <time>2016-12-30T10:48:51.000Z</time>
      </trkpt>
      <trkpt lat="47.48618" lon="6.7708">
        <ele>355.8</ele>
        <time>2016-12-30T10:48:52.000Z</time>
      </trkpt>
      <trkpt lat="47.48624" lon="6.77083">
        <ele>356.5</ele>
        <time>2016-12-30T10:48:53.000Z</time>
      </trkpt>
      <trkpt lat="47.48627" lon="6.77086">
        <ele>356.8</ele>
        <time>2016-12-30T10:48:54.000Z</time>
      </trkpt>
      <trkpt lat="47.48632" lon="6.77089">
        <ele>357.5</ele>
        <time>2016-12-30T10:48:55.000Z</time>
      </trkpt>
      <trkpt lat="47.48635" lon="6.77093">
        <ele>357.3</ele>
        <time>2016-12-30T10:48:56.000Z</time>
      </trkpt>
      <trkpt lat="47.48639" lon="6.77098">
        <ele>356.6</ele>
        <time>2016-12-30T10:48:57.000Z</time>
      </trkpt>
      <trkpt lat="47.48644" lon="6.77104">
        <ele>356.4</ele>
        <time>2016-12-30T10:48:58.000Z</time>
      </trkpt>
      <trkpt lat="47.48649" lon="6.77109">
        <ele>356.5</ele>
        <time>2016-12-30T10:48:59.000Z</time>
      </trkpt>
      <trkpt lat="47.48655" lon="6.77115">
        <ele>356.2</ele>
        <time>2016-12-30T10:49:00.000Z</time>
      </trkpt>
      <trkpt lat="47.4866" lon="6.77121">
        <ele>356.1</ele>
        <time>2016-12-30T10:49:01.000Z</time>
      </trkpt>
      <trkpt lat="47.48665" lon="6.77127">
        <ele>356.1</ele>
        <time>2016-12-30T10:49:02.000Z</time>
      </trkpt>
      <trkpt lat="47.48669" lon="6.77132">
        <ele>356.2</ele>
        <time>2016-12-30T10:49:03.000Z</time>
      </trkpt>
      <trkpt lat="47.48673" lon="6.77136">
        <ele>356.8</ele>
        <time>2016-12-30T10:49:04.000Z</time>
      </trkpt>
      <trkpt lat="47.48678" lon="6.77141">
        <ele>356.8</ele>
        <time>2016-12-30T10:49:05.000Z</time>
      </trkpt>
      <trkpt lat="47.48683" lon="6.77147">
        <ele>356.7</ele>
        <time>2016-12-30T10:49:06.000Z</time>
      </trkpt>
      <trkpt lat="47.48687" lon="6.77152">
        <ele>356.4</ele>
        <time>2016-12-30T10:49:07.000Z</time>
      </trkpt>
      <trkpt lat="47.48692" lon="6.77156">
        <ele>356.8</ele>
        <time>2016-12-30T10:49:08.000Z</time>
      </trkpt>
      <trkpt lat="47.48696" lon="6.77161">
        <ele>357</ele>
        <time>2016-12-30T10:49:09.000Z</time>
      </trkpt>
      <trkpt lat="47.487" lon="6.77165">
        <ele>357.4</ele>
        <time>2016-12-30T10:49:10.000Z</time>
      </trkpt>
      <trkpt lat="47.48704" lon="6.77168">
        <ele>357.2</ele>
        <time>2016-12-30T10:49:11.000Z</time>
      </trkpt>
      <trkpt lat="47.48709" lon="6.77172">
        <ele>356.7</ele>
        <time>2016-12-30T10:49:12.000Z</time>
      </trkpt>
      <trkpt lat="47.48713" lon="6.77177">
        <ele>355.8</ele>
        <time>2016-12-30T10:49:13.000Z</time>
      </trkpt>
      <trkpt lat="47.48718" lon="6.7718">
        <ele>355.8</ele>
        <time>2016-12-30T10:49:14.000Z</time>
      </trkpt>
      <trkpt lat="47.48722" lon="6.77183">
        <ele>355.6</ele>
        <time>2016-12-30T10:49:15.000Z</time>
      </trkpt>
      <trkpt lat="47.48727" lon="6.77187">
        <ele>355.3</ele>
        <time>2016-12-30T10:49:16.000Z</time>
      </trkpt>
      <trkpt lat="47.48732" lon="6.7719">
        <ele>355</ele>
        <time>2016-12-30T10:49:17.000Z</time>
      </trkpt>
      <trkpt lat="47.48737" lon="6.77193">
        <ele>355.2</ele>
        <time>2016-12-30T10:49:18.000Z</time>
      </trkpt>
      <trkpt lat="47.48742" lon="6.77196">
        <ele>355</ele>
        <time>2016-12-30T10:49:19.000Z</time>
      </trkpt>
      <trkpt lat="47.48747" lon="6.77199">
        <ele>355.2</ele>
        <time>2016-12-30T10:49:20.000Z</time>
      </trkpt>
      <trkpt lat="47.48752" lon="6.77203">
        <ele>355.4</ele>
        <time>2016-12-30T10:49:21.000Z</time>
      </trkpt>
      <trkpt lat="47.48756" lon="6.77207">
        <ele>355.4</ele>
        <time>2016-12-30T10:49:22.000Z</time>
      </trkpt>
      <trkpt lat="47.48761" lon="6.7721">
        <ele>355.2</ele>
        <time>2016-12-30T10:49:23.000Z</time>
      </trkpt>
      <trkpt lat="47.48766" lon="6.77214">
        <ele>355.4</ele>
        <time>2016-12-30T10:49:24.000Z</time>
      </trkpt>
      <trkpt lat="47.4877" lon="6.77218">
        <ele>355.5</ele>
        <time>2016-12-30T10:49:25.000Z</time>
      </trkpt>
      <trkpt lat="47.48775" lon="6.77222">
        <ele>355.2</ele>
        <time>2016-12-30T10:49:26.000Z</time>
      </trkpt>
      <trkpt lat="47.48779" lon="6.77226">
        <ele>354.9</ele>
        <time>2016-12-30T10:49:27.000Z</time>
      </trkpt>
      <trkpt lat="47.48784" lon="6.7723">
        <ele>355.1</ele>
        <time>2016-12-30T10:49:28.000Z</time>
      </trkpt>
      <trkpt lat="47.48789" lon="6.77234">
        <ele>354.8</ele>
        <time>2016-12-30T10:49:29.000Z</time>
      </trkpt>
      <trkpt lat="47.48794" lon="6.77237">
        <ele>354.5</ele>
        <time>2016-12-30T10:49:30.000Z</time>
      </trkpt>
      <trkpt lat="47.48799" lon="6.77241">
        <ele>354.4</ele>
        <time>2016-12-30T10:49:31.000Z</time>
      </trkpt>
      <trkpt lat="47.48803" lon="6.77244">
        <ele>354.5</ele>
        <time>2016-12-30T10:49:32.000Z</time>
      </trkpt>
      <trkpt lat="47.48808" lon="6.77247">
        <ele>354.6</ele>
        <time>2016-12-30T10:49:33.000Z</time>
      </trkpt>
      <trkpt lat="47.48812" lon="6.77251">
        <ele>354.5</ele>
        <time>2016-12-30T10:49:34.000Z</time>
      </trkpt>
      <trkpt lat="47.48817" lon="6.77255">
        <ele>354.5</ele>
        <time>2016-12-30T10:49:35.000Z</time>
      </trkpt>
      <trkpt lat="47.48822" lon="6.77259">
        <ele>354.2</ele>
        <time>2016-12-30T10:49:36.000Z</time>
      </trkpt>
      <trkpt lat="47.48827" lon="6.77263">
        <ele>354.4</ele>
        <time>2016-12-30T10:49:37.000Z</time>
      </trkpt>
      <trkpt lat="47.48831" lon="6.77267">
        <ele>353.9</ele>
        <time>2016-12-30T10:49:38.000Z</time>
      </trkpt>
      <trkpt lat="47.48835" lon="6.7727">
        <ele>353.4</ele>
        <time>2016-12-30T10:49:39.000Z</time>
      </trkpt>
      <trkpt lat="47.4884" lon="6.77273">
        <ele>353.1</ele>
        <time>2016-12-30T10:49:40.000Z</time>
      </trkpt>
      <trkpt lat="47.48845" lon="6.77276">
        <ele>353.1</ele>
        <time>2016-12-30T10:49:41.000Z</time>
      </trkpt>
      <trkpt lat="47.4885" lon="6.77279">
        <ele>353.4</ele>
        <time>2016-12-30T10:49:42.000Z</time>
      </trkpt>
      <trkpt lat="47.48856" lon="6.77282">
        <ele>353.2</ele>
        <time>2016-12-30T10:49:43.000Z</time>
      </trkpt>
      <trkpt lat="47.48861" lon="6.77285">
        <ele>352.9</ele>
        <time>2016-12-30T10:49:44.000Z</time>
      </trkpt>
      <trkpt lat="47.48867" lon="6.77288">
        <ele>352.3</ele>
        <time>2016-12-30T10:49:45.000Z</time>
      </trkpt>
      <trkpt lat="47.48871" lon="6.7729">
        <ele>351.7</ele>
        <time>2016-12-30T10:49:46.000Z</time>
      </trkpt>
      <trkpt lat="47.48876" lon="6.77292">
        <ele>351.5</ele>
        <time>2016-12-30T10:49:47.000Z</time>
      </trkpt>
      <trkpt lat="47.48882" lon="6.77294">
        <ele>351.5</ele>
        <time>2016-12-30T10:49:48.000Z</time>
      </trkpt>
      <trkpt lat="47.48887" lon="6.77295">
        <ele>352</ele>
        <time>2016-12-30T10:49:49.000Z</time>
      </trkpt>
      <trkpt lat="47.48892" lon="6.77297">
        <ele>352.3</ele>
        <time>2016-12-30T10:49:50.000Z</time>
      </trkpt>
      <trkpt lat="47.48898" lon="6.77298">
        <ele>352.5</ele>
        <time>2016-12-30T10:49:51.000Z</time>
      </trkpt>
      <trkpt lat="47.48903" lon="6.77299">
        <ele>353</ele>
        <time>2016-12-30T10:49:52.000Z</time>
      </trkpt>
      <trkpt lat="47.48908" lon="6.77301">
        <ele>353.4</ele>
        <time>2016-12-30T10:49:53.000Z</time>
      </trkpt>
      <trkpt lat="47.48913" lon="6.77302">
        <ele>353.7</ele>
        <time>2016-12-30T10:49:54.000Z</time>
      </trkpt>
      <trkpt lat="47.48918" lon="6.77303">
        <ele>353.8</ele>
        <time>2016-12-30T10:49:55.000Z</time>
      </trkpt>
      <trkpt lat="47.48923" lon="6.77304">
        <ele>353.7</ele>
        <time>2016-12-30T10:49:56.000Z</time>
      </trkpt>
      <trkpt lat="47.48928" lon="6.77306">
        <ele>353.8</ele>
        <time>2016-12-30T10:49:57.000Z</time>
      </trkpt>
      <trkpt lat="47.48932" lon="6.77308">
        <ele>353.5</ele>
        <time>2016-12-30T10:49:58.000Z</time>
      </trkpt>
      <trkpt lat="47.48937" lon="6.7731">
        <ele>352.9</ele>
        <time>2016-12-30T10:49:59.000Z</time>
      </trkpt>
      <trkpt lat="47.48943" lon="6.77312">
        <ele>352.4</ele>
        <time>2016-12-30T10:50:00.000Z</time>
      </trkpt>
      <trkpt lat="47.48949" lon="6.77314">
        <ele>352</ele>
        <time>2016-12-30T10:50:01.000Z</time>
      </trkpt>
      <trkpt lat="47.48953" lon="6.77316">
        <ele>351.6</ele>
        <time>2016-12-30T10:50:02.000Z</time>
      </trkpt>
      <trkpt lat="47.48958" lon="6.77318">
        <ele>351</ele>
        <time>2016-12-30T10:50:03.000Z</time>
      </trkpt>
      <trkpt lat="47.48965" lon="6.77321">
        <ele>350.8</ele>
        <time>2016-12-30T10:50:04.000Z</time>
      </trkpt>
      <trkpt lat="47.4897" lon="6.77322">
        <ele>351.2</ele>
        <time>2016-12-30T10:50:05.000Z</time>
      </trkpt>
      <trkpt lat="47.48975" lon="6.77323">
        <ele>351.9</ele>
        <time>2016-12-30T10:50:06.000Z</time>
      </trkpt>
      <trkpt lat="47.48981" lon="6.77323">
        <ele>353</ele>
        <time>2016-12-30T10:50:07.000Z</time>
      </trkpt>
      <trkpt lat="47.48986" lon="6.77323">
        <ele>354.3</ele>
        <time>2016-12-30T10:50:08.000Z</time>
      </trkpt>
      <trkpt lat="47.48993" lon="6.77323">
        <ele>355.1</ele>
        <time>2016-12-30T10:50:09.000Z</time>
      </trkpt>
      <trkpt lat="47.48998" lon="6.77323">
        <ele>355.4</ele>
        <time>2016-12-30T10:50:10.000Z</time>
      </trkpt>
      <trkpt lat="47.49004" lon="6.77324">
        <ele>354.8</ele>
        <time>2016-12-30T10:50:11.000Z</time>
      </trkpt>
      <trkpt lat="47.49009" lon="6.77324">
        <ele>354.4</ele>
        <time>2016-12-30T10:50:12.000Z</time>
      </trkpt>
      <trkpt lat="47.49014" lon="6.77324">
        <ele>354.7</ele>
        <time>2016-12-30T10:50:13.000Z</time>
      </trkpt>
      <trkpt lat="47.49019" lon="6.77325">
        <ele>355.1</ele>
        <time>2016-12-30T10:50:14.000Z</time>
      </trkpt>
      <trkpt lat="47.49025" lon="6.77325">
        <ele>355.6</ele>
        <time>2016-12-30T10:50:15.000Z</time>
      </trkpt>
      <trkpt lat="47.4903" lon="6.77325">
        <ele>355.7</ele>
        <time>2016-12-30T10:50:16.000Z</time>
      </trkpt>
      <trkpt lat="47.49035" lon="6.77325">
        <ele>356</ele>
        <time>2016-12-30T10:50:17.000Z</time>
      </trkpt>
      <trkpt lat="47.49039" lon="6.77325">
        <ele>355.6</ele>
        <time>2016-12-30T10:50:18.000Z</time>
      </trkpt>
      <trkpt lat="47.49044" lon="6.77325">
        <ele>355.3</ele>
        <time>2016-12-30T10:50:19.000Z</time>
      </trkpt>
      <trkpt lat="47.49049" lon="6.77325">
        <ele>355.1</ele>
        <time>2016-12-30T10:50:20.000Z</time>
      </trkpt>
      <trkpt lat="47.49055" lon="6.77326">
        <ele>355.4</ele>
        <time>2016-12-30T10:50:21.000Z</time>
      </trkpt>
      <trkpt lat="47.49061" lon="6.77326">
        <ele>355.8</ele>
        <time>2016-12-30T10:50:22.000Z</time>
      </trkpt>
      <trkpt lat="47.49066" lon="6.77327">
        <ele>356.2</ele>
        <time>2016-12-30T10:50:23.000Z</time>
      </trkpt>
      <trkpt lat="47.49072" lon="6.77327">
        <ele>356.5</ele>
        <time>2016-12-30T10:50:24.000Z</time>
      </trkpt>
      <trkpt lat="47.49077" lon="6.77328">
        <ele>356.3</ele>
        <time>2016-12-30T10:50:25.000Z</time>
      </trkpt>
      <trkpt lat="47.49082" lon="6.77328">
        <ele>356.2</ele>
        <time>2016-12-30T10:50:26.000Z</time>
      </trkpt>
      <trkpt lat="47.49088" lon="6.77329">
        <ele>356.7</ele>
        <time>2016-12-30T10:50:27.000Z</time>
      </trkpt>
      <trkpt lat="47.49092" lon="6.77329">
        <ele>356.8</ele>
        <time>2016-12-30T10:50:28.000Z</time>
      </trkpt>
      <trkpt lat="47.49098" lon="6.77329">
        <ele>357</ele>
        <time>2016-12-30T10:50:29.000Z</time>
      </trkpt>
      <trkpt lat="47.49102" lon="6.7733">
        <ele>357.4</ele>
        <time>2016-12-30T10:50:30.000Z</time>
      </trkpt>
      <trkpt lat="47.49107" lon="6.7733">
        <ele>357.4</ele>
        <time>2016-12-30T10:50:31.000Z</time>
      </trkpt>
      <trkpt lat="47.49112" lon="6.7733">
        <ele>358</ele>
        <time>2016-12-30T10:50:32.000Z</time>
      </trkpt>
      <trkpt lat="47.49117" lon="6.7733">
        <ele>358.7</ele>
        <time>2016-12-30T10:50:33.000Z</time>
      </trkpt>
      <trkpt lat="47.49122" lon="6.77331">
        <ele>359.2</ele>
        <time>2016-12-30T10:50:34.000Z</time>
      </trkpt>
      <trkpt lat="47.49127" lon="6.77331">
        <ele>359.6</ele>
        <time>2016-12-30T10:50:35.000Z</time>
      </trkpt>
      <trkpt lat="47.49132" lon="6.77331">
        <ele>359.8</ele>
        <time>2016-12-30T10:50:36.000Z</time>
      </trkpt>
      <trkpt lat="47.49136" lon="6.77331">
        <ele>360.2</ele>
        <time>2016-12-30T10:50:37.000Z</time>
      </trkpt>
      <trkpt lat="47.49141" lon="6.77331">
        <ele>360.8</ele>
        <time>2016-12-30T10:50:38.000Z</time>
      </trkpt>
      <trkpt lat="47.49145" lon="6.77331">
        <ele>361.5</ele>
        <time>2016-12-30T10:50:39.000Z</time>
      </trkpt>
      <trkpt lat="47.4915" lon="6.77331">
        <ele>361.5</ele>
        <time>2016-12-30T10:50:40.000Z</time>
      </trkpt>
      <trkpt lat="47.49153" lon="6.77331">
        <ele>361.5</ele>
        <time>2016-12-30T10:50:41.000Z</time>
      </trkpt>
      <trkpt lat="47.49155" lon="6.77331">
        <ele>361.5</ele>
        <time>2016-12-30T10:50:42.000Z</time>
      </trkpt>
      <trkpt lat="47.49158" lon="6.77331">
        <ele>361.5</ele>
        <time>2016-12-30T10:50:43.000Z</time>
      </trkpt>
      <trkpt lat="47.4916" lon="6.77331">
        <ele>361.5</ele>
        <time>2016-12-30T10:50:44.000Z</time>
      </trkpt>
      <trkpt lat="47.49164" lon="6.77332">
        <ele>361.3</ele>
        <time>2016-12-30T10:50:45.000Z</time>
      </trkpt>
      <trkpt lat="47.49167" lon="6.77333">
        <ele>361.1</ele>
        <time>2016-12-30T10:50:46.000Z</time>
      </trkpt>
      <trkpt lat="47.49169" lon="6.77333">
        <ele>360.9</ele>
        <time>2016-12-30T10:50:47.000Z</time>
      </trkpt>
      <trkpt lat="47.49171" lon="6.77334">
        <ele>360.6</ele>
        <time>2016-12-30T10:50:48.000Z</time>
      </trkpt>
      <trkpt lat="47.49175" lon="6.77334">
        <ele>360.1</ele>
        <time>2016-12-30T10:50:50.000Z</time>
      </trkpt>
      <trkpt lat="47.49178" lon="6.77334">
        <ele>359.9</ele>
        <time>2016-12-30T10:50:51.000Z</time>
      </trkpt>
      <trkpt lat="47.4918" lon="6.77334">
        <ele>359.4</ele>
        <time>2016-12-30T10:50:56.000Z</time>
      </trkpt>
      <trkpt lat="47.49182" lon="6.7733">
        <ele>359.4</ele>
        <time>2016-12-30T10:50:57.000Z</time>
      </trkpt>
      <trkpt lat="47.49182" lon="6.7733">
        <ele>358.9</ele>
        <time>2016-12-30T10:53:43.000Z</time>
      </trkpt>
      <trkpt lat="47.49188" lon="6.77333">
        <ele>358.8</ele>
        <time>2016-12-30T10:53:44.000Z</time>
      </trkpt>
      <trkpt lat="47.49192" lon="6.77334">
        <ele>358.6</ele>
        <time>2016-12-30T10:53:46.000Z</time>
      </trkpt>
      <trkpt lat="47.49193" lon="6.77334">
        <ele>358.5</ele>
        <time>2016-12-30T10:53:47.000Z</time>
      </trkpt>
      <trkpt lat="47.49197" lon="6.77335">
        <ele>358.2</ele>
        <time>2016-12-30T10:53:51.000Z</time>
      </trkpt>
      <trkpt lat="47.49198" lon="6.77334">
        <ele>358.1</ele>
        <time>2016-12-30T10:53:52.000Z</time>
      </trkpt>
      <trkpt lat="47.49198" lon="6.77329">
        <ele>357.7</ele>
        <time>2016-12-30T10:54:11.000Z</time>
      </trkpt>
      <trkpt lat="47.49193" lon="6.77334">
        <ele>357.6</ele>
        <time>2016-12-30T10:54:12.000Z</time>
      </trkpt>
      <trkpt lat="47.49196" lon="6.77338">
        <ele>357.5</ele>
        <time>2016-12-30T10:54:15.000Z</time>
      </trkpt>
      <trkpt lat="47.49199" lon="6.77337">
        <ele>357.5</ele>
        <time>2016-12-30T10:54:16.000Z</time>
      </trkpt>
      <trkpt lat="47.49203" lon="6.77337">
        <ele>357.4</ele>
        <time>2016-12-30T10:54:17.000Z</time>
      </trkpt>
      <trkpt lat="47.49206" lon="6.77337">
        <ele>357.4</ele>
        <time>2016-12-30T10:54:18.000Z</time>
      </trkpt>
      <trkpt lat="47.4921" lon="6.77336">
        <ele>357.4</ele>
        <time>2016-12-30T10:54:19.000Z</time>
      </trkpt>
      <trkpt lat="47.49213" lon="6.77336">
        <ele>357.9</ele>
        <time>2016-12-30T10:54:20.000Z</time>
      </trkpt>
      <trkpt lat="47.49219" lon="6.77336">
        <ele>357.5</ele>
        <time>2016-12-30T10:54:21.000Z</time>
      </trkpt>
      <trkpt lat="47.49223" lon="6.77335">
        <ele>357</ele>
        <time>2016-12-30T10:54:22.000Z</time>
      </trkpt>
      <trkpt lat="47.49228" lon="6.77335">
        <ele>357.2</ele>
        <time>2016-12-30T10:54:23.000Z</time>
      </trkpt>
      <trkpt lat="47.49231" lon="6.77335">
        <ele>357</ele>
        <time>2016-12-30T10:54:24.000Z</time>
      </trkpt>
      <trkpt lat="47.49235" lon="6.77336">
        <ele>356.9</ele>
        <time>2016-12-30T10:54:25.000Z</time>
      </trkpt>
      <trkpt lat="47.49239" lon="6.77335">
        <ele>356.6</ele>
        <time>2016-12-30T10:54:26.000Z</time>
      </trkpt>
      <trkpt lat="47.49243" lon="6.77335">
        <ele>356.4</ele>
        <time>2016-12-30T10:54:27.000Z</time>
      </trkpt>
      <trkpt lat="47.49248" lon="6.77333">
        <ele>356.4</ele>
        <time>2016-12-30T10:54:28.000Z</time>
      </trkpt>
      <trkpt lat="47.49252" lon="6.77331">
        <ele>357.1</ele>
        <time>2016-12-30T10:54:29.000Z</time>
      </trkpt>
      <trkpt lat="47.49257" lon="6.77329">
        <ele>357.8</ele>
        <time>2016-12-30T10:54:30.000Z</time>
      </trkpt>
      <trkpt lat="47.49261" lon="6.77327">
        <ele>358.5</ele>
        <time>2016-12-30T10:54:31.000Z</time>
      </trkpt>
      <trkpt lat="47.49266" lon="6.77325">
        <ele>359</ele>
        <time>2016-12-30T10:54:32.000Z</time>
      </trkpt>
      <trkpt lat="47.49271" lon="6.77324">
        <ele>359.8</ele>
        <time>2016-12-30T10:54:33.000Z</time>
      </trkpt>
      <trkpt lat="47.49276" lon="6.77323">
        <ele>360.5</ele>
        <time>2016-12-30T10:54:34.000Z</time>
      </trkpt>
      <trkpt lat="47.49281" lon="6.77323">
        <ele>361.3</ele>
        <time>2016-12-30T10:54:35.000Z</time>
      </trkpt>
      <trkpt lat="47.49285" lon="6.77323">
        <ele>361.9</ele>
        <time>2016-12-30T10:54:36.000Z</time>
      </trkpt>
      <trkpt lat="47.49289" lon="6.77323">
        <ele>362.2</ele>
        <time>2016-12-30T10:54:37.000Z</time>
      </trkpt>
      <trkpt lat="47.49293" lon="6.77324">
        <ele>362.2</ele>
        <time>2016-12-30T10:54:38.000Z</time>
      </trkpt>
      <trkpt lat="47.49297" lon="6.77325">
        <ele>361.9</ele>
        <time>2016-12-30T10:54:39.000Z</time>
      </trkpt>
      <trkpt lat="47.49302" lon="6.77326">
        <ele>361.7</ele>
        <time>2016-12-30T10:54:40.000Z</time>
      </trkpt>
      <trkpt lat="47.49306" lon="6.77326">
        <ele>361.7</ele>
        <time>2016-12-30T10:54:41.000Z</time>
      </trkpt>
      <trkpt lat="47.49309" lon="6.77326">
        <ele>361.6</ele>
        <time>2016-12-30T10:54:42.000Z</time>
      </trkpt>
      <trkpt lat="47.49313" lon="6.77327">
        <ele>360.9</ele>
        <time>2016-12-30T10:54:43.000Z</time>
      </trkpt>
      <trkpt lat="47.49318" lon="6.77327">
        <ele>360.7</ele>
        <time>2016-12-30T10:54:44.000Z</time>
      </trkpt>
      <trkpt lat="47.49322" lon="6.77328">
        <ele>360.4</ele>
        <time>2016-12-30T10:54:45.000Z</time>
      </trkpt>
      <trkpt lat="47.49326" lon="6.7733">
        <ele>360.4</ele>
        <time>2016-12-30T10:54:46.000Z</time>
      </trkpt>
      <trkpt lat="47.4933" lon="6.77332">
        <ele>360.2</ele>
        <time>2016-12-30T10:54:47.000Z</time>
      </trkpt>
      <trkpt lat="47.49334" lon="6.77335">
        <ele>360.2</ele>
        <time>2016-12-30T10:54:48.000Z</time>
      </trkpt>
      <trkpt lat="47.49337" lon="6.77338">
        <ele>360.2</ele>
        <time>2016-12-30T10:54:49.000Z</time>
      </trkpt>
      <trkpt lat="47.4934" lon="6.7734">
        <ele>360.2</ele>
        <time>2016-12-30T10:54:50.000Z</time>
      </trkpt>
      <trkpt lat="47.49342" lon="6.77342">
        <ele>360.3</ele>
        <time>2016-12-30T10:54:51.000Z</time>
      </trkpt>
      <trkpt lat="47.49347" lon="6.77344">
        <ele>360.4</ele>
        <time>2016-12-30T10:54:52.000Z</time>
      </trkpt>
      <trkpt lat="47.4935" lon="6.77345">
        <ele>360.5</ele>
        <time>2016-12-30T10:54:53.000Z</time>
      </trkpt>
      <trkpt lat="47.49353" lon="6.77346">
        <ele>361.1</ele>
        <time>2016-12-30T10:54:54.000Z</time>
      </trkpt>
      <trkpt lat="47.49357" lon="6.77346">
        <ele>361.7</ele>
        <time>2016-12-30T10:54:55.000Z</time>
      </trkpt>
      <trkpt lat="47.49362" lon="6.77346">
        <ele>361.8</ele>
        <time>2016-12-30T10:54:56.000Z</time>
      </trkpt>
      <trkpt lat="47.49365" lon="6.77346">
        <ele>362</ele>
        <time>2016-12-30T10:54:57.000Z</time>
      </trkpt>
      <trkpt lat="47.49369" lon="6.77347">
        <ele>362.2</ele>
        <time>2016-12-30T10:54:58.000Z</time>
      </trkpt>
      <trkpt lat="47.49373" lon="6.77347">
        <ele>362.4</ele>
        <time>2016-12-30T10:54:59.000Z</time>
      </trkpt>
      <trkpt lat="47.49377" lon="6.77347">
        <ele>362.7</ele>
        <time>2016-12-30T10:55:00.000Z</time>
      </trkpt>
      <trkpt lat="47.49381" lon="6.77346">
        <ele>363.2</ele>
        <time>2016-12-30T10:55:01.000Z</time>
      </trkpt>
      <trkpt lat="47.49386" lon="6.77346">
        <ele>363.8</ele>
        <time>2016-12-30T10:55:02.000Z</time>
      </trkpt>
      <trkpt lat="47.49391" lon="6.77347">
        <ele>364.1</ele>
        <time>2016-12-30T10:55:03.000Z</time>
      </trkpt>
      <trkpt lat="47.49395" lon="6.77347">
        <ele>364.3</ele>
        <time>2016-12-30T10:55:04.000Z</time>
      </trkpt>
      <trkpt lat="47.494" lon="6.77348">
        <ele>364.1</ele>
        <time>2016-12-30T10:55:05.000Z</time>
      </trkpt>
      <trkpt lat="47.49404" lon="6.77349">
        <ele>364.1</ele>
        <time>2016-12-30T10:55:06.000Z</time>
      </trkpt>
      <trkpt lat="47.49409" lon="6.7735">
        <ele>363.8</ele>
        <time>2016-12-30T10:55:07.000Z</time>
      </trkpt>
      <trkpt lat="47.49414" lon="6.77351">
        <ele>363.8</ele>
        <time>2016-12-30T10:55:08.000Z</time>
      </trkpt>
      <trkpt lat="47.49418" lon="6.77352">
        <ele>363.7</ele>
        <time>2016-12-30T10:55:09.000Z</time>
      </trkpt>
      <trkpt lat="47.49422" lon="6.77353">
        <ele>363.5</ele>
        <time>2016-12-30T10:55:10.000Z</time>
      </trkpt>
      <trkpt lat="47.49426" lon="6.77354">
        <ele>363.7</ele>
        <time>2016-12-30T10:55:11.000Z</time>
      </trkpt>
      <trkpt lat="47.49431" lon="6.77354">
        <ele>363.7</ele>
        <time>2016-12-30T10:55:12.000Z</time>
      </trkpt>
      <trkpt lat="47.49435" lon="6.77354">
        <ele>363.9</ele>
        <time>2016-12-30T10:55:13.000Z</time>
      </trkpt>
      <trkpt lat="47.49439" lon="6.77354">
        <ele>364</ele>
        <time>2016-12-30T10:55:14.000Z</time>
      </trkpt>
      <trkpt lat="47.49444" lon="6.77354">
        <ele>364</ele>
        <time>2016-12-30T10:55:15.000Z</time>
      </trkpt>
      <trkpt lat="47.49448" lon="6.77354">
        <ele>364.1</ele>
        <time>2016-12-30T10:55:16.000Z</time>
      </trkpt>
      <trkpt lat="47.49453" lon="6.77354">
        <ele>364.1</ele>
        <time>2016-12-30T10:55:17.000Z</time>
      </trkpt>
      <trkpt lat="47.49457" lon="6.77355">
        <ele>364.1</ele>
        <time>2016-12-30T10:55:18.000Z</time>
      </trkpt>
      <trkpt lat="47.49462" lon="6.77355">
        <ele>364.2</ele>
        <time>2016-12-30T10:55:19.000Z</time>
      </trkpt>
      <trkpt lat="47.49467" lon="6.77355">
        <ele>364.2</ele>
        <time>2016-12-30T10:55:20.000Z</time>
      </trkpt>
      <trkpt lat="47.49471" lon="6.77355">
        <ele>364.4</ele>
        <time>2016-12-30T10:55:21.000Z</time>
      </trkpt>
      <trkpt lat="47.49475" lon="6.77355">
        <ele>364.5</ele>
        <time>2016-12-30T10:55:22.000Z</time>
      </trkpt>
      <trkpt lat="47.49479" lon="6.77355">
        <ele>364.8</ele>
        <time>2016-12-30T10:55:23.000Z</time>
      </trkpt>
      <trkpt lat="47.49484" lon="6.77355">
        <ele>364.9</ele>
        <time>2016-12-30T10:55:24.000Z</time>
      </trkpt>
      <trkpt lat="47.49488" lon="6.77355">
        <ele>365.1</ele>
        <time>2016-12-30T10:55:25.000Z</time>
      </trkpt>
      <trkpt lat="47.49493" lon="6.77355">
        <ele>365.2</ele>
        <time>2016-12-30T10:55:26.000Z</time>
      </trkpt>
      <trkpt lat="47.49497" lon="6.77355">
        <ele>365.5</ele>
        <time>2016-12-30T10:55:27.000Z</time>
      </trkpt>
      <trkpt lat="47.49502" lon="6.77354">
        <ele>366</ele>
        <time>2016-12-30T10:55:28.000Z</time>
      </trkpt>
      <trkpt lat="47.49505" lon="6.77354">
        <ele>366.2</ele>
        <time>2016-12-30T10:55:29.000Z</time>
      </trkpt>
      <trkpt lat="47.4951" lon="6.77354">
        <ele>366.7</ele>
        <time>2016-12-30T10:55:30.000Z</time>
      </trkpt>
      <trkpt lat="47.49514" lon="6.77354">
        <ele>367.1</ele>
        <time>2016-12-30T10:55:31.000Z</time>
      </trkpt>
      <trkpt lat="47.49519" lon="6.77355">
        <ele>367.2</ele>
        <time>2016-12-30T10:55:32.000Z</time>
      </trkpt>
      <trkpt lat="47.49523" lon="6.77355">
        <ele>367</ele>
        <time>2016-12-30T10:55:33.000Z</time>
      </trkpt>
      <trkpt lat="47.49527" lon="6.77355">
        <ele>366.8</ele>
        <time>2016-12-30T10:55:34.000Z</time>
      </trkpt>
      <trkpt lat="47.49532" lon="6.77356">
        <ele>366.5</ele>
        <time>2016-12-30T10:55:35.000Z</time>
      </trkpt>
      <trkpt lat="47.49536" lon="6.77356">
        <ele>366.4</ele>
        <time>2016-12-30T10:55:36.000Z</time>
      </trkpt>
      <trkpt lat="47.4954" lon="6.77356">
        <ele>366.3</ele>
        <time>2016-12-30T10:55:37.000Z</time>
      </trkpt>
      <trkpt lat="47.49544" lon="6.77356">
        <ele>366.2</ele>
        <time>2016-12-30T10:55:38.000Z</time>
      </trkpt>
      <trkpt lat="47.49549" lon="6.77356">
        <ele>365.8</ele>
        <time>2016-12-30T10:55:39.000Z</time>
      </trkpt>
      <trkpt lat="47.49553" lon="6.77356">
        <ele>364.8</ele>
        <time>2016-12-30T10:55:40.000Z</time>
      </trkpt>
      <trkpt lat="47.49557" lon="6.77357">
        <ele>364.7</ele>
        <time>2016-12-30T10:55:41.000Z</time>
      </trkpt>
      <trkpt lat="47.49561" lon="6.77358">
        <ele>364.3</ele>
        <time>2016-12-30T10:55:42.000Z</time>
      </trkpt>
      <trkpt lat="47.49566" lon="6.77358">
        <ele>364</ele>
        <time>2016-12-30T10:55:43.000Z</time>
      </trkpt>
      <trkpt lat="47.4957" lon="6.77358">
        <ele>364.2</ele>
        <time>2016-12-30T10:55:44.000Z</time>
      </trkpt>
      <trkpt lat="47.49576" lon="6.77359">
        <ele>363.9</ele>
        <time>2016-12-30T10:55:45.000Z</time>
      </trkpt>
      <trkpt lat="47.49581" lon="6.77359">
        <ele>363.5</ele>
        <time>2016-12-30T10:55:46.000Z</time>
      </trkpt>
      <trkpt lat="47.49585" lon="6.77359">
        <ele>363.2</ele>
        <time>2016-12-30T10:55:47.000Z</time>
      </trkpt>
      <trkpt lat="47.4959" lon="6.77358">
        <ele>363.5</ele>
        <time>2016-12-30T10:55:48.000Z</time>
      </trkpt>
      <trkpt lat="47.49595" lon="6.77357">
        <ele>363.7</ele>
        <time>2016-12-30T10:55:49.000Z</time>
      </trkpt>
      <trkpt lat="47.49599" lon="6.77356">
        <ele>363.8</ele>
        <time>2016-12-30T10:55:50.000Z</time>
      </trkpt>
      <trkpt lat="47.49604" lon="6.77355">
        <ele>363.9</ele>
        <time>2016-12-30T10:55:51.000Z</time>
      </trkpt>
      <trkpt lat="47.49608" lon="6.77354">
        <ele>364</ele>
        <time>2016-12-30T10:55:52.000Z</time>
      </trkpt>
      <trkpt lat="47.49612" lon="6.77354">
        <ele>364.3</ele>
        <time>2016-12-30T10:55:53.000Z</time>
      </trkpt>
      <trkpt lat="47.49616" lon="6.77354">
        <ele>364.6</ele>
        <time>2016-12-30T10:55:54.000Z</time>
      </trkpt>
      <trkpt lat="47.4962" lon="6.77354">
        <ele>364.6</ele>
        <time>2016-12-30T10:55:55.000Z</time>
      </trkpt>
      <trkpt lat="47.49625" lon="6.77353">
        <ele>364.7</ele>
        <time>2016-12-30T10:55:56.000Z</time>
      </trkpt>
      <trkpt lat="47.49629" lon="6.77352">
        <ele>364.7</ele>
        <time>2016-12-30T10:55:57.000Z</time>
      </trkpt>
      <trkpt lat="47.49633" lon="6.7735">
        <ele>364.9</ele>
        <time>2016-12-30T10:55:58.000Z</time>
      </trkpt>
      <trkpt lat="47.49638" lon="6.77349">
        <ele>364.8</ele>
        <time>2016-12-30T10:55:59.000Z</time>
      </trkpt>
      <trkpt lat="47.49642" lon="6.77348">
        <ele>364.7</ele>
        <time>2016-12-30T10:56:00.000Z</time>
      </trkpt>
      <trkpt lat="47.49646" lon="6.77347">
        <ele>364.8</ele>
        <time>2016-12-30T10:56:01.000Z</time>
      </trkpt>
      <trkpt lat="47.4965" lon="6.77346">
        <ele>364.9</ele>
        <time>2016-12-30T10:56:02.000Z</time>
      </trkpt>
      <trkpt lat="47.49654" lon="6.77345">
        <ele>364.7</ele>
        <time>2016-12-30T10:56:03.000Z</time>
      </trkpt>
      <trkpt lat="47.49658" lon="6.77344">
        <ele>364.7</ele>
        <time>2016-12-30T10:56:04.000Z</time>
      </trkpt>
      <trkpt lat="47.49662" lon="6.77342">
        <ele>364.6</ele>
        <time>2016-12-30T10:56:05.000Z</time>
      </trkpt>
      <trkpt lat="47.49666" lon="6.77341">
        <ele>364.5</ele>
        <time>2016-12-30T10:56:06.000Z</time>
      </trkpt>
      <trkpt lat="47.4967" lon="6.7734">
        <ele>364.3</ele>
        <time>2016-12-30T10:56:07.000Z</time>
      </trkpt>
      <trkpt lat="47.49674" lon="6.77339">
        <ele>364.2</ele>
        <time>2016-12-30T10:56:08.000Z</time>
      </trkpt>
      <trkpt lat="47.49678" lon="6.77338">
        <ele>364.2</ele>
        <time>2016-12-30T10:56:09.000Z</time>
      </trkpt>
      <trkpt lat="47.49682" lon="6.77337">
        <ele>364.4</ele>
        <time>2016-12-30T10:56:10.000Z</time>
      </trkpt>
      <trkpt lat="47.49687" lon="6.77336">
        <ele>364.5</ele>
        <time>2016-12-30T10:56:11.000Z</time>
      </trkpt>
      <trkpt lat="47.49691" lon="6.77335">
        <ele>364.5</ele>
        <time>2016-12-30T10:56:12.000Z</time>
      </trkpt>
      <trkpt lat="47.49696" lon="6.77334">
        <ele>364.7</ele>
        <time>2016-12-30T10:56:13.000Z</time>
      </trkpt>
      <trkpt lat="47.497" lon="6.77332">
        <ele>364.6</ele>
        <time>2016-12-30T10:56:14.000Z</time>
      </trkpt>
      <trkpt lat="47.49704" lon="6.77331">
        <ele>364.7</ele>
        <time>2016-12-30T10:56:15.000Z</time>
      </trkpt>
      <trkpt lat="47.49708" lon="6.77331">
        <ele>364.8</ele>
        <time>2016-12-30T10:56:16.000Z</time>
      </trkpt>
      <trkpt lat="47.49712" lon="6.7733">
        <ele>364.8</ele>
        <time>2016-12-30T10:56:17.000Z</time>
      </trkpt>
      <trkpt lat="47.49716" lon="6.7733">
        <ele>364.8</ele>
        <time>2016-12-30T10:56:18.000Z</time>
      </trkpt>
      <trkpt lat="47.4972" lon="6.77329">
        <ele>364.8</ele>
        <time>2016-12-30T10:56:19.000Z</time>
      </trkpt>
      <trkpt lat="47.49724" lon="6.77329">
        <ele>364.8</ele>
        <time>2016-12-30T10:56:20.000Z</time>
      </trkpt>
      <trkpt lat="47.49727" lon="6.77328">
        <ele>364.6</ele>
        <time>2016-12-30T10:56:21.000Z</time>
      </trkpt>
      <trkpt lat="47.49731" lon="6.77326">
        <ele>364.1</ele>
        <time>2016-12-30T10:56:22.000Z</time>
      </trkpt>
      <trkpt lat="47.49735" lon="6.77324">
        <ele>363.9</ele>
        <time>2016-12-30T10:56:23.000Z</time>
      </trkpt>
      <trkpt lat="47.49739" lon="6.77321">
        <ele>363.7</ele>
        <time>2016-12-30T10:56:24.000Z</time>
      </trkpt>
      <trkpt lat="47.49743" lon="6.77318">
        <ele>363.4</ele>
        <time>2016-12-30T10:56:25.000Z</time>
      </trkpt>
      <trkpt lat="47.49747" lon="6.77316">
        <ele>363.4</ele>
        <time>2016-12-30T10:56:26.000Z</time>
      </trkpt>
      <trkpt lat="47.49751" lon="6.77313">
        <ele>363.4</ele>
        <time>2016-12-30T10:56:27.000Z</time>
      </trkpt>
      <trkpt lat="47.49755" lon="6.77311">
        <ele>363.5</ele>
        <time>2016-12-30T10:56:28.000Z</time>
      </trkpt>
      <trkpt lat="47.49758" lon="6.7731">
        <ele>363.8</ele>
        <time>2016-12-30T10:56:29.000Z</time>
      </trkpt>
      <trkpt lat="47.49763" lon="6.77309">
        <ele>363.8</ele>
        <time>2016-12-30T10:56:30.000Z</time>
      </trkpt>
      <trkpt lat="47.49766" lon="6.77308">
        <ele>364.5</ele>
        <time>2016-12-30T10:56:31.000Z</time>
      </trkpt>
      <trkpt lat="47.4977" lon="6.77309">
        <ele>365.1</ele>
        <time>2016-12-30T10:56:32.000Z</time>
      </trkpt>
      <trkpt lat="47.49775" lon="6.77309">
        <ele>365.8</ele>
        <time>2016-12-30T10:56:33.000Z</time>
      </trkpt>
      <trkpt lat="47.49779" lon="6.77309">
        <ele>366.1</ele>
        <time>2016-12-30T10:56:34.000Z</time>
      </trkpt>
      <trkpt lat="47.49784" lon="6.77309">
        <ele>365.9</ele>
        <time>2016-12-30T10:56:35.000Z</time>
      </trkpt>
      <trkpt lat="47.49787" lon="6.77307">
        <ele>365.9</ele>
        <time>2016-12-30T10:56:36.000Z</time>
      </trkpt>
      <trkpt lat="47.49792" lon="6.77306">
        <ele>365.7</ele>
        <time>2016-12-30T10:56:37.000Z</time>
      </trkpt>
      <trkpt lat="47.49797" lon="6.77306">
        <ele>365.5</ele>
        <time>2016-12-30T10:56:38.000Z</time>
      </trkpt>
      <trkpt lat="47.49801" lon="6.77305">
        <ele>366.2</ele>
        <time>2016-12-30T10:56:39.000Z</time>
      </trkpt>
      <trkpt lat="47.49805" lon="6.77304">
        <ele>366.8</ele>
        <time>2016-12-30T10:56:40.000Z</time>
      </trkpt>
      <trkpt lat="47.49809" lon="6.77304">
        <ele>367.4</ele>
        <time>2016-12-30T10:56:41.000Z</time>
      </trkpt>
      <trkpt lat="47.49812" lon="6.77303">
        <ele>368.1</ele>
        <time>2016-12-30T10:56:42.000Z</time>
      </trkpt>
      <trkpt lat="47.49816" lon="6.77302">
        <ele>368.6</ele>
        <time>2016-12-30T10:56:43.000Z</time>
      </trkpt>
      <trkpt lat="47.4982" lon="6.77302">
        <ele>369</ele>
        <time>2016-12-30T10:56:44.000Z</time>
      </trkpt>
      <trkpt lat="47.49825" lon="6.77301">
        <ele>369.2</ele>
        <time>2016-12-30T10:56:45.000Z</time>
      </trkpt>
      <trkpt lat="47.49828" lon="6.77301">
        <ele>369</ele>
        <time>2016-12-30T10:56:46.000Z</time>
      </trkpt>
      <trkpt lat="47.49832" lon="6.773">
        <ele>369.3</ele>
        <time>2016-12-30T10:56:47.000Z</time>
      </trkpt>
      <trkpt lat="47.49836" lon="6.77299">
        <ele>369.6</ele>
        <time>2016-12-30T10:56:48.000Z</time>
      </trkpt>
      <trkpt lat="47.4984" lon="6.77299">
        <ele>369.9</ele>
        <time>2016-12-30T10:56:49.000Z</time>
      </trkpt>
      <trkpt lat="47.49843" lon="6.773">
        <ele>369.7</ele>
        <time>2016-12-30T10:56:50.000Z</time>
      </trkpt>
      <trkpt lat="47.49848" lon="6.773">
        <ele>369.7</ele>
        <time>2016-12-30T10:56:51.000Z</time>
      </trkpt>
      <trkpt lat="47.49852" lon="6.77299">
        <ele>369.4</ele>
        <time>2016-12-30T10:56:52.000Z</time>
      </trkpt>
      <trkpt lat="47.49857" lon="6.77298">
        <ele>369.5</ele>
        <time>2016-12-30T10:56:53.000Z</time>
      </trkpt>
      <trkpt lat="47.49863" lon="6.77297">
        <ele>369.7</ele>
        <time>2016-12-30T10:56:54.000Z</time>
      </trkpt>
      <trkpt lat="47.49867" lon="6.77297">
        <ele>369.5</ele>
        <time>2016-12-30T10:56:55.000Z</time>
      </trkpt>
      <trkpt lat="47.49872" lon="6.77296">
        <ele>369.4</ele>
        <time>2016-12-30T10:56:56.000Z</time>
      </trkpt>
      <trkpt lat="47.49877" lon="6.77295">
        <ele>369.1</ele>
        <time>2016-12-30T10:56:57.000Z</time>
      </trkpt>
      <trkpt lat="47.49882" lon="6.77295">
        <ele>369.3</ele>
        <time>2016-12-30T10:56:58.000Z</time>
      </trkpt>
      <trkpt lat="47.49887" lon="6.77294">
        <ele>369.7</ele>
        <time>2016-12-30T10:56:59.000Z</time>
      </trkpt>
      <trkpt lat="47.49893" lon="6.77292">
        <ele>370.4</ele>
        <time>2016-12-30T10:57:00.000Z</time>
      </trkpt>
      <trkpt lat="47.49898" lon="6.7729">
        <ele>371</ele>
        <time>2016-12-30T10:57:01.000Z</time>
      </trkpt>
      <trkpt lat="47.49903" lon="6.77289">
        <ele>371.2</ele>
        <time>2016-12-30T10:57:02.000Z</time>
      </trkpt>
      <trkpt lat="47.49906" lon="6.77288">
        <ele>371.1</ele>
        <time>2016-12-30T10:57:03.000Z</time>
      </trkpt>
      <trkpt lat="47.49911" lon="6.77285">
        <ele>370.7</ele>
        <time>2016-12-30T10:57:04.000Z</time>
      </trkpt>
      <trkpt lat="47.49915" lon="6.77284">
        <ele>370.6</ele>
        <time>2016-12-30T10:57:05.000Z</time>
      </trkpt>
      <trkpt lat="47.49919" lon="6.77283">
        <ele>370.5</ele>
        <time>2016-12-30T10:57:06.000Z</time>
      </trkpt>
      <trkpt lat="47.49922" lon="6.77281">
        <ele>370.4</ele>
        <time>2016-12-30T10:57:07.000Z</time>
      </trkpt>
      <trkpt lat="47.49926" lon="6.77278">
        <ele>368.9</ele>
        <time>2016-12-30T10:57:08.000Z</time>
      </trkpt>
      <trkpt lat="47.4993" lon="6.77275">
        <ele>368.8</ele>
        <time>2016-12-30T10:57:09.000Z</time>
      </trkpt>
      <trkpt lat="47.49934" lon="6.77272">
        <ele>368.6</ele>
        <time>2016-12-30T10:57:10.000Z</time>
      </trkpt>
      <trkpt lat="47.49938" lon="6.77269">
        <ele>366.8</ele>
        <time>2016-12-30T10:57:11.000Z</time>
      </trkpt>
      <trkpt lat="47.49942" lon="6.77265">
        <ele>364.7</ele>
        <time>2016-12-30T10:57:12.000Z</time>
      </trkpt>
      <trkpt lat="47.49947" lon="6.77262">
        <ele>362.8</ele>
        <time>2016-12-30T10:57:13.000Z</time>
      </trkpt>
      <trkpt lat="47.49952" lon="6.77258">
        <ele>360.6</ele>
        <time>2016-12-30T10:57:14.000Z</time>
      </trkpt>
      <trkpt lat="47.49956" lon="6.77255">
        <ele>358.9</ele>
        <time>2016-12-30T10:57:15.000Z</time>
      </trkpt>
      <trkpt lat="47.49959" lon="6.77253">
        <ele>356.7</ele>
        <time>2016-12-30T10:57:16.000Z</time>
      </trkpt>
      <trkpt lat="47.49963" lon="6.7725">
        <ele>354.6</ele>
        <time>2016-12-30T10:57:17.000Z</time>
      </trkpt>
      <trkpt lat="47.49966" lon="6.77248">
        <ele>353.9</ele>
        <time>2016-12-30T10:57:18.000Z</time>
      </trkpt>
      <trkpt lat="47.4997" lon="6.77245">
        <ele>353</ele>
        <time>2016-12-30T10:57:19.000Z</time>
      </trkpt>
      <trkpt lat="47.49974" lon="6.77243">
        <ele>352</ele>
        <time>2016-12-30T10:57:20.000Z</time>
      </trkpt>
      <trkpt lat="47.49978" lon="6.77241">
        <ele>351.3</ele>
        <time>2016-12-30T10:57:21.000Z</time>
      </trkpt>
      <trkpt lat="47.49983" lon="6.77238">
        <ele>350.2</ele>
        <time>2016-12-30T10:57:22.000Z</time>
      </trkpt>
      <trkpt lat="47.49988" lon="6.77236">
        <ele>348.8</ele>
        <time>2016-12-30T10:57:23.000Z</time>
      </trkpt>
      <trkpt lat="47.49993" lon="6.77234">
        <ele>348.3</ele>
        <time>2016-12-30T10:57:24.000Z</time>
      </trkpt>
      <trkpt lat="47.49997" lon="6.77231">
        <ele>348.4</ele>
        <time>2016-12-30T10:57:25.000Z</time>
      </trkpt>
      <trkpt lat="47.50001" lon="6.7723">
        <ele>348.3</ele>
        <time>2016-12-30T10:57:26.000Z</time>
      </trkpt>
      <trkpt lat="47.50004" lon="6.77228">
        <ele>348.4</ele>
        <time>2016-12-30T10:57:27.000Z</time>
      </trkpt>
      <trkpt lat="47.50007" lon="6.77227">
        <ele>348.4</ele>
        <time>2016-12-30T10:57:28.000Z</time>
      </trkpt>
      <trkpt lat="47.50008" lon="6.77227">
        <ele>348.5</ele>
        <time>2016-12-30T10:57:29.000Z</time>
      </trkpt>
      <trkpt lat="47.50012" lon="6.77225">
        <ele>348.8</ele>
        <time>2016-12-30T10:57:32.000Z</time>
      </trkpt>
      <trkpt lat="47.50015" lon="6.77222">
        <ele>348.9</ele>
        <time>2016-12-30T10:57:33.000Z</time>
      </trkpt>
      <trkpt lat="47.50018" lon="6.7722">
        <ele>349</ele>
        <time>2016-12-30T10:57:34.000Z</time>
      </trkpt>
      <trkpt lat="47.50021" lon="6.77218">
        <ele>349</ele>
        <time>2016-12-30T10:57:35.000Z</time>
      </trkpt>
      <trkpt lat="47.50024" lon="6.77217">
        <ele>349</ele>
        <time>2016-12-30T10:57:36.000Z</time>
      </trkpt>
      <trkpt lat="47.50027" lon="6.77215">
        <ele>349</ele>
        <time>2016-12-30T10:57:37.000Z</time>
      </trkpt>
      <trkpt lat="47.5003" lon="6.77213">
        <ele>348.9</ele>
        <time>2016-12-30T10:57:38.000Z</time>
      </trkpt>
      <trkpt lat="47.50034" lon="6.77211">
        <ele>348.8</ele>
        <time>2016-12-30T10:57:39.000Z</time>
      </trkpt>
      <trkpt lat="47.50038" lon="6.77209">
        <ele>347.8</ele>
        <time>2016-12-30T10:57:40.000Z</time>
      </trkpt>
      <trkpt lat="47.50042" lon="6.77207">
        <ele>347.9</ele>
        <time>2016-12-30T10:57:41.000Z</time>
      </trkpt>
      <trkpt lat="47.50046" lon="6.77205">
        <ele>348.3</ele>
        <time>2016-12-30T10:57:42.000Z</time>
      </trkpt>
      <trkpt lat="47.50051" lon="6.77204">
        <ele>348.1</ele>
        <time>2016-12-30T10:57:43.000Z</time>
      </trkpt>
      <trkpt lat="47.50056" lon="6.77203">
        <ele>348</ele>
        <time>2016-12-30T10:57:44.000Z</time>
      </trkpt>
      <trkpt lat="47.5006" lon="6.77203">
        <ele>347.1</ele>
        <time>2016-12-30T10:57:45.000Z</time>
      </trkpt>
      <trkpt lat="47.50064" lon="6.77203">
        <ele>346.4</ele>
        <time>2016-12-30T10:57:46.000Z</time>
      </trkpt>
      <trkpt lat="47.50069" lon="6.77202">
        <ele>345.7</ele>
        <time>2016-12-30T10:57:47.000Z</time>
      </trkpt>
      <trkpt lat="47.50072" lon="6.772">
        <ele>346.4</ele>
        <time>2016-12-30T10:57:48.000Z</time>
      </trkpt>
      <trkpt lat="47.50077" lon="6.77198">
        <ele>347</ele>
        <time>2016-12-30T10:57:49.000Z</time>
      </trkpt>
      <trkpt lat="47.50081" lon="6.77196">
        <ele>348.1</ele>
        <time>2016-12-30T10:57:50.000Z</time>
      </trkpt>
      <trkpt lat="47.50085" lon="6.77195">
        <ele>348.9</ele>
        <time>2016-12-30T10:57:51.000Z</time>
      </trkpt>
      <trkpt lat="47.50088" lon="6.77193">
        <ele>349</ele>
        <time>2016-12-30T10:57:52.000Z</time>
      </trkpt>
      <trkpt lat="47.50092" lon="6.77192">
        <ele>349</ele>
        <time>2016-12-30T10:57:53.000Z</time>
      </trkpt>
      <trkpt lat="47.50096" lon="6.77191">
        <ele>349</ele>
        <time>2016-12-30T10:57:54.000Z</time>
      </trkpt>
      <trkpt lat="47.50101" lon="6.77193">
        <ele>348.8</ele>
        <time>2016-12-30T10:57:55.000Z</time>
      </trkpt>
      <trkpt lat="47.50106" lon="6.77195">
        <ele>349.2</ele>
        <time>2016-12-30T10:57:56.000Z</time>
      </trkpt>
      <trkpt lat="47.5011" lon="6.77196">
        <ele>348.8</ele>
        <time>2016-12-30T10:57:57.000Z</time>
      </trkpt>
      <trkpt lat="47.50116" lon="6.77197">
        <ele>348.3</ele>
        <time>2016-12-30T10:57:58.000Z</time>
      </trkpt>
      <trkpt lat="47.50122" lon="6.77196">
        <ele>347.9</ele>
        <time>2016-12-30T10:57:59.000Z</time>
      </trkpt>
      <trkpt lat="47.50128" lon="6.77196">
        <ele>347.6</ele>
        <time>2016-12-30T10:58:00.000Z</time>
      </trkpt>
      <trkpt lat="47.50134" lon="6.77197">
        <ele>347.7</ele>
        <time>2016-12-30T10:58:01.000Z</time>
      </trkpt>
      <trkpt lat="47.50138" lon="6.77199">
        <ele>347.8</ele>
        <time>2016-12-30T10:58:02.000Z</time>
      </trkpt>
      <trkpt lat="47.50142" lon="6.77202">
        <ele>348.3</ele>
        <time>2016-12-30T10:58:03.000Z</time>
      </trkpt>
      <trkpt lat="47.50147" lon="6.77206">
        <ele>349.1</ele>
        <time>2016-12-30T10:58:04.000Z</time>
      </trkpt>
      <trkpt lat="47.50151" lon="6.7721">
        <ele>349.8</ele>
        <time>2016-12-30T10:58:05.000Z</time>
      </trkpt>
      <trkpt lat="47.50155" lon="6.77214">
        <ele>350.4</ele>
        <time>2016-12-30T10:58:06.000Z</time>
      </trkpt>
      <trkpt lat="47.50159" lon="6.77219">
        <ele>350.8</ele>
        <time>2016-12-30T10:58:07.000Z</time>
      </trkpt>
      <trkpt lat="47.50164" lon="6.77223">
        <ele>351.2</ele>
        <time>2016-12-30T10:58:08.000Z</time>
      </trkpt>
      <trkpt lat="47.50169" lon="6.77229">
        <ele>351.3</ele>
        <time>2016-12-30T10:58:09.000Z</time>
      </trkpt>
      <trkpt lat="47.50174" lon="6.77234">
        <ele>351.6</ele>
        <time>2016-12-30T10:58:10.000Z</time>
      </trkpt>
      <trkpt lat="47.50179" lon="6.77239">
        <ele>351.7</ele>
        <time>2016-12-30T10:58:11.000Z</time>
      </trkpt>
      <trkpt lat="47.50184" lon="6.77244">
        <ele>351.9</ele>
        <time>2016-12-30T10:58:12.000Z</time>
      </trkpt>
      <trkpt lat="47.5019" lon="6.77249">
        <ele>352</ele>
        <time>2016-12-30T10:58:13.000Z</time>
      </trkpt>
      <trkpt lat="47.50195" lon="6.77254">
        <ele>352.2</ele>
        <time>2016-12-30T10:58:14.000Z</time>
      </trkpt>
      <trkpt lat="47.50201" lon="6.77259">
        <ele>352.8</ele>
        <time>2016-12-30T10:58:15.000Z</time>
      </trkpt>
      <trkpt lat="47.50206" lon="6.77264">
        <ele>353.3</ele>
        <time>2016-12-30T10:58:16.000Z</time>
      </trkpt>
      <trkpt lat="47.50211" lon="6.77268">
        <ele>353.9</ele>
        <time>2016-12-30T10:58:17.000Z</time>
      </trkpt>
      <trkpt lat="47.50217" lon="6.77271">
        <ele>354.6</ele>
        <time>2016-12-30T10:58:18.000Z</time>
      </trkpt>
      <trkpt lat="47.50222" lon="6.77275">
        <ele>354.8</ele>
        <time>2016-12-30T10:58:19.000Z</time>
      </trkpt>
      <trkpt lat="47.50227" lon="6.77278">
        <ele>355.1</ele>
        <time>2016-12-30T10:58:20.000Z</time>
      </trkpt>
      <trkpt lat="47.50232" lon="6.77281">
        <ele>356.5</ele>
        <time>2016-12-30T10:58:21.000Z</time>
      </trkpt>
      <trkpt lat="47.50237" lon="6.77284">
        <ele>356.9</ele>
        <time>2016-12-30T10:58:22.000Z</time>
      </trkpt>
      <trkpt lat="47.50242" lon="6.77287">
        <ele>357</ele>
        <time>2016-12-30T10:58:23.000Z</time>
      </trkpt>
      <trkpt lat="47.50247" lon="6.7729">
        <ele>356.8</ele>
        <time>2016-12-30T10:58:24.000Z</time>
      </trkpt>
      <trkpt lat="47.50252" lon="6.77293">
        <ele>356.4</ele>
        <time>2016-12-30T10:58:25.000Z</time>
      </trkpt>
      <trkpt lat="47.50256" lon="6.77296">
        <ele>356.2</ele>
        <time>2016-12-30T10:58:26.000Z</time>
      </trkpt>
      <trkpt lat="47.50261" lon="6.773">
        <ele>356.2</ele>
        <time>2016-12-30T10:58:27.000Z</time>
      </trkpt>
      <trkpt lat="47.50265" lon="6.77303">
        <ele>356</ele>
        <time>2016-12-30T10:58:28.000Z</time>
      </trkpt>
      <trkpt lat="47.5027" lon="6.77306">
        <ele>356.1</ele>
        <time>2016-12-30T10:58:29.000Z</time>
      </trkpt>
      <trkpt lat="47.50274" lon="6.77309">
        <ele>356.1</ele>
        <time>2016-12-30T10:58:30.000Z</time>
      </trkpt>
      <trkpt lat="47.50279" lon="6.77312">
        <ele>356.4</ele>
        <time>2016-12-30T10:58:31.000Z</time>
      </trkpt>
      <trkpt lat="47.50284" lon="6.77315">
        <ele>357</ele>
        <time>2016-12-30T10:58:32.000Z</time>
      </trkpt>
      <trkpt lat="47.5029" lon="6.77319">
        <ele>357.7</ele>
        <time>2016-12-30T10:58:33.000Z</time>
      </trkpt>
      <trkpt lat="47.50295" lon="6.77322">
        <ele>358.2</ele>
        <time>2016-12-30T10:58:34.000Z</time>
      </trkpt>
      <trkpt lat="47.50299" lon="6.77325">
        <ele>358.8</ele>
        <time>2016-12-30T10:58:35.000Z</time>
      </trkpt>
      <trkpt lat="47.50304" lon="6.77329">
        <ele>359.5</ele>
        <time>2016-12-30T10:58:36.000Z</time>
      </trkpt>
      <trkpt lat="47.50308" lon="6.77332">
        <ele>360</ele>
        <time>2016-12-30T10:58:37.000Z</time>
      </trkpt>
      <trkpt lat="47.50313" lon="6.77336">
        <ele>360.7</ele>
        <time>2016-12-30T10:58:38.000Z</time>
      </trkpt>
      <trkpt lat="47.50317" lon="6.77339">
        <ele>361.4</ele>
        <time>2016-12-30T10:58:39.000Z</time>
      </trkpt>
      <trkpt lat="47.50322" lon="6.77342">
        <ele>362</ele>
        <time>2016-12-30T10:58:40.000Z</time>
      </trkpt>
      <trkpt lat="47.50326" lon="6.77346">
        <ele>362.3</ele>
        <time>2016-12-30T10:58:41.000Z</time>
      </trkpt>
      <trkpt lat="47.5033" lon="6.77349">
        <ele>362.4</ele>
        <time>2016-12-30T10:58:42.000Z</time>
      </trkpt>
      <trkpt lat="47.50335" lon="6.77352">
        <ele>362.3</ele>
        <time>2016-12-30T10:58:43.000Z</time>
      </trkpt>
      <trkpt lat="47.50339" lon="6.77355">
        <ele>362.1</ele>
        <time>2016-12-30T10:58:44.000Z</time>
      </trkpt>
      <trkpt lat="47.50343" lon="6.77359">
        <ele>361.7</ele>
        <time>2016-12-30T10:58:45.000Z</time>
      </trkpt>
      <trkpt lat="47.50347" lon="6.77362">
        <ele>361.5</ele>
        <time>2016-12-30T10:58:46.000Z</time>
      </trkpt>
      <trkpt lat="47.50351" lon="6.77366">
        <ele>361.3</ele>
        <time>2016-12-30T10:58:47.000Z</time>
      </trkpt>
      <trkpt lat="47.50356" lon="6.7737">
        <ele>361.3</ele>
        <time>2016-12-30T10:58:48.000Z</time>
      </trkpt>
      <trkpt lat="47.5036" lon="6.77374">
        <ele>361.4</ele>
        <time>2016-12-30T10:58:49.000Z</time>
      </trkpt>
      <trkpt lat="47.50364" lon="6.77377">
        <ele>361.4</ele>
        <time>2016-12-30T10:58:50.000Z</time>
      </trkpt>
      <trkpt lat="47.50369" lon="6.7738">
        <ele>361.6</ele>
        <time>2016-12-30T10:58:51.000Z</time>
      </trkpt>
      <trkpt lat="47.50374" lon="6.77384">
        <ele>362</ele>
        <time>2016-12-30T10:58:52.000Z</time>
      </trkpt>
      <trkpt lat="47.50378" lon="6.77387">
        <ele>362.3</ele>
        <time>2016-12-30T10:58:53.000Z</time>
      </trkpt>
      <trkpt lat="47.50382" lon="6.7739">
        <ele>362.3</ele>
        <time>2016-12-30T10:58:54.000Z</time>
      </trkpt>
      <trkpt lat="47.50386" lon="6.77393">
        <ele>362.2</ele>
        <time>2016-12-30T10:58:55.000Z</time>
      </trkpt>
      <trkpt lat="47.5039" lon="6.77396">
        <ele>362.2</ele>
        <time>2016-12-30T10:58:56.000Z</time>
      </trkpt>
      <trkpt lat="47.50395" lon="6.774">
        <ele>362.2</ele>
        <time>2016-12-30T10:58:57.000Z</time>
      </trkpt>
      <trkpt lat="47.50399" lon="6.77403">
        <ele>362.2</ele>
        <time>2016-12-30T10:58:58.000Z</time>
      </trkpt>
      <trkpt lat="47.50403" lon="6.77407">
        <ele>362.2</ele>
        <time>2016-12-30T10:58:59.000Z</time>
      </trkpt>
      <trkpt lat="47.50407" lon="6.7741">
        <ele>361.9</ele>
        <time>2016-12-30T10:59:00.000Z</time>
      </trkpt>
      <trkpt lat="47.5041" lon="6.77414">
        <ele>361.6</ele>
        <time>2016-12-30T10:59:01.000Z</time>
      </trkpt>
      <trkpt lat="47.50414" lon="6.77417">
        <ele>361.5</ele>
        <time>2016-12-30T10:59:02.000Z</time>
      </trkpt>
      <trkpt lat="47.50419" lon="6.77421">
        <ele>361.5</ele>
        <time>2016-12-30T10:59:03.000Z</time>
      </trkpt>
      <trkpt lat="47.50423" lon="6.77425">
        <ele>361.5</ele>
        <time>2016-12-30T10:59:04.000Z</time>
      </trkpt>
      <trkpt lat="47.50428" lon="6.77428">
        <ele>361.6</ele>
        <time>2016-12-30T10:59:05.000Z</time>
      </trkpt>
      <trkpt lat="47.50432" lon="6.77432">
        <ele>361.7</ele>
        <time>2016-12-30T10:59:06.000Z</time>
      </trkpt>
      <trkpt lat="47.50437" lon="6.77437">
        <ele>361.8</ele>
        <time>2016-12-30T10:59:07.000Z</time>
      </trkpt>
      <trkpt lat="47.50441" lon="6.7744">
        <ele>362.1</ele>
        <time>2016-12-30T10:59:08.000Z</time>
      </trkpt>
      <trkpt lat="47.50444" lon="6.77444">
        <ele>362.1</ele>
        <time>2016-12-30T10:59:09.000Z</time>
      </trkpt>
      <trkpt lat="47.50448" lon="6.77447">
        <ele>362</ele>
        <time>2016-12-30T10:59:10.000Z</time>
      </trkpt>
      <trkpt lat="47.50452" lon="6.77451">
        <ele>362.1</ele>
        <time>2016-12-30T10:59:11.000Z</time>
      </trkpt>
      <trkpt lat="47.50456" lon="6.77455">
        <ele>362.4</ele>
        <time>2016-12-30T10:59:12.000Z</time>
      </trkpt>
      <trkpt lat="47.5046" lon="6.77458">
        <ele>362.5</ele>
        <time>2016-12-30T10:59:13.000Z</time>
      </trkpt>
      <trkpt lat="47.50465" lon="6.77462">
        <ele>362.2</ele>
        <time>2016-12-30T10:59:14.000Z</time>
      </trkpt>
      <trkpt lat="47.50469" lon="6.77466">
        <ele>361.8</ele>
        <time>2016-12-30T10:59:15.000Z</time>
      </trkpt>
      <trkpt lat="47.50474" lon="6.7747">
        <ele>360.9</ele>
        <time>2016-12-30T10:59:16.000Z</time>
      </trkpt>
      <trkpt lat="47.50478" lon="6.77473">
        <ele>360.4</ele>
        <time>2016-12-30T10:59:17.000Z</time>
      </trkpt>
      <trkpt lat="47.50482" lon="6.77477">
        <ele>360.3</ele>
        <time>2016-12-30T10:59:18.000Z</time>
      </trkpt>
      <trkpt lat="47.50486" lon="6.7748">
        <ele>359.9</ele>
        <time>2016-12-30T10:59:19.000Z</time>
      </trkpt>
      <trkpt lat="47.5049" lon="6.77483">
        <ele>359.8</ele>
        <time>2016-12-30T10:59:20.000Z</time>
      </trkpt>
      <trkpt lat="47.50494" lon="6.77486">
        <ele>360.3</ele>
        <time>2016-12-30T10:59:21.000Z</time>
      </trkpt>
      <trkpt lat="47.50498" lon="6.7749">
        <ele>360.6</ele>
        <time>2016-12-30T10:59:22.000Z</time>
      </trkpt>
      <trkpt lat="47.50502" lon="6.77493">
        <ele>361</ele>
        <time>2016-12-30T10:59:23.000Z</time>
      </trkpt>
      <trkpt lat="47.50506" lon="6.77496">
        <ele>360.7</ele>
        <time>2016-12-30T10:59:24.000Z</time>
      </trkpt>
      <trkpt lat="47.50509" lon="6.77499">
        <ele>360.6</ele>
        <time>2016-12-30T10:59:25.000Z</time>
      </trkpt>
      <trkpt lat="47.50513" lon="6.77502">
        <ele>361.6</ele>
        <time>2016-12-30T10:59:26.000Z</time>
      </trkpt>
      <trkpt lat="47.50517" lon="6.77505">
        <ele>362</ele>
        <time>2016-12-30T10:59:27.000Z</time>
      </trkpt>
      <trkpt lat="47.50522" lon="6.77508">
        <ele>362.6</ele>
        <time>2016-12-30T10:59:28.000Z</time>
      </trkpt>
      <trkpt lat="47.50526" lon="6.77511">
        <ele>362.8</ele>
        <time>2016-12-30T10:59:29.000Z</time>
      </trkpt>
      <trkpt lat="47.50531" lon="6.77514">
        <ele>363.1</ele>
        <time>2016-12-30T10:59:30.000Z</time>
      </trkpt>
      <trkpt lat="47.50535" lon="6.77516">
        <ele>363.5</ele>
        <time>2016-12-30T10:59:31.000Z</time>
      </trkpt>
      <trkpt lat="47.5054" lon="6.77519">
        <ele>363.9</ele>
        <time>2016-12-30T10:59:32.000Z</time>
      </trkpt>
      <trkpt lat="47.50545" lon="6.77522">
        <ele>363.9</ele>
        <time>2016-12-30T10:59:33.000Z</time>
      </trkpt>
      <trkpt lat="47.50547" lon="6.77526">
        <ele>363.6</ele>
        <time>2016-12-30T10:59:34.000Z</time>
      </trkpt>
      <trkpt lat="47.5055" lon="6.77531">
        <ele>363.4</ele>
        <time>2016-12-30T10:59:35.000Z</time>
      </trkpt>
      <trkpt lat="47.50554" lon="6.77536">
        <ele>363.3</ele>
        <time>2016-12-30T10:59:36.000Z</time>
      </trkpt>
      <trkpt lat="47.50557" lon="6.77541">
        <ele>363.2</ele>
        <time>2016-12-30T10:59:37.000Z</time>
      </trkpt>
      <trkpt lat="47.50559" lon="6.77545">
        <ele>363.2</ele>
        <time>2016-12-30T10:59:38.000Z</time>
      </trkpt>
      <trkpt lat="47.50562" lon="6.77548">
        <ele>363</ele>
        <time>2016-12-30T10:59:39.000Z</time>
      </trkpt>
      <trkpt lat="47.50566" lon="6.77549">
        <ele>361.4</ele>
        <time>2016-12-30T10:59:40.000Z</time>
      </trkpt>
      <trkpt lat="47.5057" lon="6.77549">
        <ele>361.2</ele>
        <time>2016-12-30T10:59:41.000Z</time>
      </trkpt>
      <trkpt lat="47.50574" lon="6.77549">
        <ele>361.1</ele>
        <time>2016-12-30T10:59:42.000Z</time>
      </trkpt>
      <trkpt lat="47.50577" lon="6.77546">
        <ele>361</ele>
        <time>2016-12-30T10:59:43.000Z</time>
      </trkpt>
      <trkpt lat="47.50579" lon="6.77543">
        <ele>360.8</ele>
        <time>2016-12-30T10:59:44.000Z</time>
      </trkpt>
      <trkpt lat="47.50583" lon="6.7754">
        <ele>360.7</ele>
        <time>2016-12-30T10:59:45.000Z</time>
      </trkpt>
      <trkpt lat="47.50587" lon="6.77538">
        <ele>360.7</ele>
        <time>2016-12-30T10:59:46.000Z</time>
      </trkpt>
      <trkpt lat="47.50592" lon="6.77537">
        <ele>360.6</ele>
        <time>2016-12-30T10:59:47.000Z</time>
      </trkpt>
      <trkpt lat="47.50595" lon="6.77537">
        <ele>360.4</ele>
        <time>2016-12-30T10:59:48.000Z</time>
      </trkpt>
      <trkpt lat="47.50599" lon="6.77536">
        <ele>360.3</ele>
        <time>2016-12-30T10:59:49.000Z</time>
      </trkpt>
      <trkpt lat="47.50603" lon="6.77536">
        <ele>360.3</ele>
        <time>2016-12-30T10:59:50.000Z</time>
      </trkpt>
      <trkpt lat="47.50607" lon="6.77535">
        <ele>360.2</ele>
        <time>2016-12-30T10:59:51.000Z</time>
      </trkpt>
      <trkpt lat="47.5061" lon="6.77535">
        <ele>360.1</ele>
        <time>2016-12-30T10:59:52.000Z</time>
      </trkpt>
      <trkpt lat="47.50615" lon="6.77534">
        <ele>360.1</ele>
        <time>2016-12-30T10:59:53.000Z</time>
      </trkpt>
      <trkpt lat="47.50621" lon="6.77532">
        <ele>360</ele>
        <time>2016-12-30T10:59:54.000Z</time>
      </trkpt>
      <trkpt lat="47.50626" lon="6.77532">
        <ele>360</ele>
        <time>2016-12-30T10:59:55.000Z</time>
      </trkpt>
      <trkpt lat="47.5063" lon="6.77532">
        <ele>359.9</ele>
        <time>2016-12-30T10:59:56.000Z</time>
      </trkpt>
      <trkpt lat="47.50635" lon="6.77531">
        <ele>359.9</ele>
        <time>2016-12-30T10:59:57.000Z</time>
      </trkpt>
      <trkpt lat="47.50639" lon="6.77533">
        <ele>360</ele>
        <time>2016-12-30T10:59:58.000Z</time>
      </trkpt>
      <trkpt lat="47.50643" lon="6.77535">
        <ele>360</ele>
        <time>2016-12-30T10:59:59.000Z</time>
      </trkpt>
      <trkpt lat="47.50646" lon="6.77536">
        <ele>360</ele>
        <time>2016-12-30T11:00:00.000Z</time>
      </trkpt>
      <trkpt lat="47.5065" lon="6.77537">
        <ele>360</ele>
        <time>2016-12-30T11:00:01.000Z</time>
      </trkpt>
      <trkpt lat="47.50654" lon="6.77538">
        <ele>360</ele>
        <time>2016-12-30T11:00:02.000Z</time>
      </trkpt>
      <trkpt lat="47.50657" lon="6.77539">
        <ele>360</ele>
        <time>2016-12-30T11:00:03.000Z</time>
      </trkpt>
      <trkpt lat="47.50661" lon="6.77537">
        <ele>360</ele>
        <time>2016-12-30T11:00:04.000Z</time>
      </trkpt>
      <trkpt lat="47.50665" lon="6.77535">
        <ele>360</ele>
        <time>2016-12-30T11:00:05.000Z</time>
      </trkpt>
      <trkpt lat="47.50669" lon="6.77533">
        <ele>359.9</ele>
        <time>2016-12-30T11:00:06.000Z</time>
      </trkpt>
      <trkpt lat="47.50672" lon="6.77531">
        <ele>359.9</ele>
        <time>2016-12-30T11:00:07.000Z</time>
      </trkpt>
      <trkpt lat="47.50677" lon="6.7753">
        <ele>359.7</ele>
        <time>2016-12-30T11:00:08.000Z</time>
      </trkpt>
      <trkpt lat="47.50681" lon="6.77529">
        <ele>359.9</ele>
        <time>2016-12-30T11:00:09.000Z</time>
      </trkpt>
      <trkpt lat="47.50686" lon="6.77528">
        <ele>360.3</ele>
        <time>2016-12-30T11:00:10.000Z</time>
      </trkpt>
      <trkpt lat="47.5069" lon="6.77527">
        <ele>360.8</ele>
        <time>2016-12-30T11:00:11.000Z</time>
      </trkpt>
      <trkpt lat="47.50695" lon="6.77528">
        <ele>360.8</ele>
        <time>2016-12-30T11:00:12.000Z</time>
      </trkpt>
      <trkpt lat="47.507" lon="6.77529">
        <ele>361</ele>
        <time>2016-12-30T11:00:13.000Z</time>
      </trkpt>
      <trkpt lat="47.50705" lon="6.7753">
        <ele>361.3</ele>
        <time>2016-12-30T11:00:14.000Z</time>
      </trkpt>
      <trkpt lat="47.50709" lon="6.77533">
        <ele>361.8</ele>
        <time>2016-12-30T11:00:15.000Z</time>
      </trkpt>
      <trkpt lat="47.50714" lon="6.77535">
        <ele>362.2</ele>
        <time>2016-12-30T11:00:16.000Z</time>
      </trkpt>
      <trkpt lat="47.50718" lon="6.77538">
        <ele>362.5</ele>
        <time>2016-12-30T11:00:17.000Z</time>
      </trkpt>
      <trkpt lat="47.50723" lon="6.77541">
        <ele>362.9</ele>
        <time>2016-12-30T11:00:18.000Z</time>
      </trkpt>
      <trkpt lat="47.50728" lon="6.77545">
        <ele>363.1</ele>
        <time>2016-12-30T11:00:19.000Z</time>
      </trkpt>
      <trkpt lat="47.50733" lon="6.7755">
        <ele>363.4</ele>
        <time>2016-12-30T11:00:20.000Z</time>
      </trkpt>
      <trkpt lat="47.50737" lon="6.77553">
        <ele>363.6</ele>
        <time>2016-12-30T11:00:21.000Z</time>
      </trkpt>
      <trkpt lat="47.50742" lon="6.77558">
        <ele>363.7</ele>
        <time>2016-12-30T11:00:22.000Z</time>
      </trkpt>
      <trkpt lat="47.50748" lon="6.77562">
        <ele>364</ele>
        <time>2016-12-30T11:00:23.000Z</time>
      </trkpt>
      <trkpt lat="47.50752" lon="6.77566">
        <ele>364</ele>
        <time>2016-12-30T11:00:24.000Z</time>
      </trkpt>
      <trkpt lat="47.50757" lon="6.77568">
        <ele>364</ele>
        <time>2016-12-30T11:00:25.000Z</time>
      </trkpt>
      <trkpt lat="47.50761" lon="6.7757">
        <ele>363.8</ele>
        <time>2016-12-30T11:00:26.000Z</time>
      </trkpt>
      <trkpt lat="47.50766" lon="6.77572">
        <ele>364.3</ele>
        <time>2016-12-30T11:00:27.000Z</time>
      </trkpt>
      <trkpt lat="47.50771" lon="6.77575">
        <ele>364.4</ele>
        <time>2016-12-30T11:00:28.000Z</time>
      </trkpt>
      <trkpt lat="47.50776" lon="6.77577">
        <ele>365</ele>
        <time>2016-12-30T11:00:29.000Z</time>
      </trkpt>
      <trkpt lat="47.5078" lon="6.7758">
        <ele>365.2</ele>
        <time>2016-12-30T11:00:30.000Z</time>
      </trkpt>
      <trkpt lat="47.50785" lon="6.77584">
        <ele>365.4</ele>
        <time>2016-12-30T11:00:31.000Z</time>
      </trkpt>
      <trkpt lat="47.50789" lon="6.77587">
        <ele>365.4</ele>
        <time>2016-12-30T11:00:32.000Z</time>
      </trkpt>
      <trkpt lat="47.50793" lon="6.7759">
        <ele>365.4</ele>
        <time>2016-12-30T11:00:33.000Z</time>
      </trkpt>
      <trkpt lat="47.50797" lon="6.77593">
        <ele>365.9</ele>
        <time>2016-12-30T11:00:34.000Z</time>
      </trkpt>
      <trkpt lat="47.50801" lon="6.77595">
        <ele>366</ele>
        <time>2016-12-30T11:00:35.000Z</time>
      </trkpt>
      <trkpt lat="47.50805" lon="6.77598">
        <ele>367</ele>
        <time>2016-12-30T11:00:36.000Z</time>
      </trkpt>
      <trkpt lat="47.5081" lon="6.77601">
        <ele>366.9</ele>
        <time>2016-12-30T11:00:37.000Z</time>
      </trkpt>
      <trkpt lat="47.50814" lon="6.77604">
        <ele>366.8</ele>
        <time>2016-12-30T11:00:38.000Z</time>
      </trkpt>
      <trkpt lat="47.50819" lon="6.77608">
        <ele>366.7</ele>
        <time>2016-12-30T11:00:39.000Z</time>
      </trkpt>
      <trkpt lat="47.50824" lon="6.77612">
        <ele>366.6</ele>
        <time>2016-12-30T11:00:40.000Z</time>
      </trkpt>
      <trkpt lat="47.50828" lon="6.77616">
        <ele>366.5</ele>
        <time>2016-12-30T11:00:41.000Z</time>
      </trkpt>
      <trkpt lat="47.50833" lon="6.7762">
        <ele>366.4</ele>
        <time>2016-12-30T11:00:42.000Z</time>
      </trkpt>
      <trkpt lat="47.50837" lon="6.77626">
        <ele>366.3</ele>
        <time>2016-12-30T11:00:43.000Z</time>
      </trkpt>
      <trkpt lat="47.50841" lon="6.77631">
        <ele>365.7</ele>
        <time>2016-12-30T11:00:44.000Z</time>
      </trkpt>
      <trkpt lat="47.50845" lon="6.77635">
        <ele>365.6</ele>
        <time>2016-12-30T11:00:45.000Z</time>
      </trkpt>
      <trkpt lat="47.50849" lon="6.77639">
        <ele>364.5</ele>
        <time>2016-12-30T11:00:46.000Z</time>
      </trkpt>
      <trkpt lat="47.50852" lon="6.77643">
        <ele>364.4</ele>
        <time>2016-12-30T11:00:47.000Z</time>
      </trkpt>
      <trkpt lat="47.50855" lon="6.77647">
        <ele>364.3</ele>
        <time>2016-12-30T11:00:48.000Z</time>
      </trkpt>
      <trkpt lat="47.50858" lon="6.7765">
        <ele>364.3</ele>
        <time>2016-12-30T11:00:49.000Z</time>
      </trkpt>
      <trkpt lat="47.50862" lon="6.77656">
        <ele>363.1</ele>
        <time>2016-12-30T11:00:50.000Z</time>
      </trkpt>
      <trkpt lat="47.50864" lon="6.77661">
        <ele>363</ele>
        <time>2016-12-30T11:00:51.000Z</time>
      </trkpt>
      <trkpt lat="47.50868" lon="6.77667">
        <ele>362.9</ele>
        <time>2016-12-30T11:00:52.000Z</time>
      </trkpt>
      <trkpt lat="47.50873" lon="6.77673">
        <ele>362.9</ele>
        <time>2016-12-30T11:00:53.000Z</time>
      </trkpt>
      <trkpt lat="47.50876" lon="6.77679">
        <ele>362.4</ele>
        <time>2016-12-30T11:00:54.000Z</time>
      </trkpt>
      <trkpt lat="47.5088" lon="6.77685">
        <ele>362.4</ele>
        <time>2016-12-30T11:00:55.000Z</time>
      </trkpt>
      <trkpt lat="47.50884" lon="6.77692">
        <ele>362.4</ele>
        <time>2016-12-30T11:00:56.000Z</time>
      </trkpt>
      <trkpt lat="47.50888" lon="6.77697">
        <ele>362.3</ele>
        <time>2016-12-30T11:00:57.000Z</time>
      </trkpt>
      <trkpt lat="47.5089" lon="6.77702">
        <ele>362.2</ele>
        <time>2016-12-30T11:00:58.000Z</time>
      </trkpt>
      <trkpt lat="47.50894" lon="6.77703">
        <ele>362.1</ele>
        <time>2016-12-30T11:00:59.000Z</time>
      </trkpt>
      <trkpt lat="47.50897" lon="6.77703">
        <ele>362.1</ele>
        <time>2016-12-30T11:01:00.000Z</time>
      </trkpt>
      <trkpt lat="47.50899" lon="6.77703">
        <ele>362.1</ele>
        <time>2016-12-30T11:01:01.000Z</time>
      </trkpt>
      <trkpt lat="47.50901" lon="6.77702">
        <ele>362</ele>
        <time>2016-12-30T11:01:02.000Z</time>
      </trkpt>
      <trkpt lat="47.50903" lon="6.77701">
        <ele>361.9</ele>
        <time>2016-12-30T11:01:03.000Z</time>
      </trkpt>
      <trkpt lat="47.50907" lon="6.777">
        <ele>361.9</ele>
        <time>2016-12-30T11:01:04.000Z</time>
      </trkpt>
      <trkpt lat="47.5091" lon="6.777">
        <ele>361</ele>
        <time>2016-12-30T11:01:05.000Z</time>
      </trkpt>
      <trkpt lat="47.50914" lon="6.77699">
        <ele>360.9</ele>
        <time>2016-12-30T11:01:07.000Z</time>
      </trkpt>
      <trkpt lat="47.50917" lon="6.777">
        <ele>360.9</ele>
        <time>2016-12-30T11:01:08.000Z</time>
      </trkpt>
      <trkpt lat="47.5092" lon="6.77702">
        <ele>360.9</ele>
        <time>2016-12-30T11:01:09.000Z</time>
      </trkpt>
      <trkpt lat="47.50925" lon="6.77702">
        <ele>360.8</ele>
        <time>2016-12-30T11:01:10.000Z</time>
      </trkpt>
      <trkpt lat="47.50929" lon="6.77701">
        <ele>360.7</ele>
        <time>2016-12-30T11:01:11.000Z</time>
      </trkpt>
      <trkpt lat="47.50932" lon="6.777">
        <ele>360.6</ele>
        <time>2016-12-30T11:01:12.000Z</time>
      </trkpt>
      <trkpt lat="47.50935" lon="6.77699">
        <ele>360.6</ele>
        <time>2016-12-30T11:01:13.000Z</time>
      </trkpt>
      <trkpt lat="47.50937" lon="6.77699">
        <ele>360.5</ele>
        <time>2016-12-30T11:01:14.000Z</time>
      </trkpt>
      <trkpt lat="47.50941" lon="6.77701">
        <ele>360.4</ele>
        <time>2016-12-30T11:01:16.000Z</time>
      </trkpt>
      <trkpt lat="47.50942" lon="6.77701">
        <ele>360.3</ele>
        <time>2016-12-30T11:01:17.000Z</time>
      </trkpt>
      <trkpt lat="47.50946" lon="6.77701">
        <ele>360.1</ele>
        <time>2016-12-30T11:01:19.000Z</time>
      </trkpt>
      <trkpt lat="47.50948" lon="6.777">
        <ele>360</ele>
        <time>2016-12-30T11:01:20.000Z</time>
      </trkpt>
      <trkpt lat="47.50952" lon="6.77699">
        <ele>359.9</ele>
        <time>2016-12-30T11:01:21.000Z</time>
      </trkpt>
      <trkpt lat="47.50956" lon="6.77697">
        <ele>359.9</ele>
        <time>2016-12-30T11:01:22.000Z</time>
      </trkpt>
      <trkpt lat="47.50961" lon="6.77695">
        <ele>359.8</ele>
        <time>2016-12-30T11:01:23.000Z</time>
      </trkpt>
      <trkpt lat="47.50965" lon="6.77694">
        <ele>359.8</ele>
        <time>2016-12-30T11:01:24.000Z</time>
      </trkpt>
      <trkpt lat="47.50969" lon="6.77698">
        <ele>359.7</ele>
        <time>2016-12-30T11:01:25.000Z</time>
      </trkpt>
      <trkpt lat="47.50972" lon="6.77703">
        <ele>359.6</ele>
        <time>2016-12-30T11:01:26.000Z</time>
      </trkpt>
      <trkpt lat="47.50974" lon="6.77705">
        <ele>359.5</ele>
        <time>2016-12-30T11:01:27.000Z</time>
      </trkpt>
      <trkpt lat="47.50975" lon="6.77707">
        <ele>359.4</ele>
        <time>2016-12-30T11:01:28.000Z</time>
      </trkpt>
      <trkpt lat="47.50979" lon="6.77709">
        <ele>359.2</ele>
        <time>2016-12-30T11:01:30.000Z</time>
      </trkpt>
      <trkpt lat="47.50982" lon="6.77711">
        <ele>359.1</ele>
        <time>2016-12-30T11:01:31.000Z</time>
      </trkpt>
      <trkpt lat="47.50984" lon="6.77713">
        <ele>359</ele>
        <time>2016-12-30T11:01:32.000Z</time>
      </trkpt>
      <trkpt lat="47.50986" lon="6.77716">
        <ele>358.9</ele>
        <time>2016-12-30T11:01:33.000Z</time>
      </trkpt>
      <trkpt lat="47.5099" lon="6.77718">
        <ele>358.9</ele>
        <time>2016-12-30T11:01:34.000Z</time>
      </trkpt>
      <trkpt lat="47.50992" lon="6.7772">
        <ele>358.8</ele>
        <time>2016-12-30T11:01:35.000Z</time>
      </trkpt>
      <trkpt lat="47.50996" lon="6.77723">
        <ele>358.7</ele>
        <time>2016-12-30T11:01:36.000Z</time>
      </trkpt>
      <trkpt lat="47.51001" lon="6.77727">
        <ele>356.7</ele>
        <time>2016-12-30T11:01:37.000Z</time>
      </trkpt>
      <trkpt lat="47.51006" lon="6.77731">
        <ele>356.7</ele>
        <time>2016-12-30T11:01:38.000Z</time>
      </trkpt>
      <trkpt lat="47.5101" lon="6.77734">
        <ele>356.6</ele>
        <time>2016-12-30T11:01:39.000Z</time>
      </trkpt>
      <trkpt lat="47.51014" lon="6.77737">
        <ele>356.5</ele>
        <time>2016-12-30T11:01:40.000Z</time>
      </trkpt>
      <trkpt lat="47.51018" lon="6.7774">
        <ele>356.6</ele>
        <time>2016-12-30T11:01:41.000Z</time>
      </trkpt>
      <trkpt lat="47.51021" lon="6.77743">
        <ele>356.6</ele>
        <time>2016-12-30T11:01:42.000Z</time>
      </trkpt>
      <trkpt lat="47.51024" lon="6.77745">
        <ele>356.6</ele>
        <time>2016-12-30T11:01:43.000Z</time>
      </trkpt>
      <trkpt lat="47.51025" lon="6.77748">
        <ele>356.7</ele>
        <time>2016-12-30T11:01:44.000Z</time>
      </trkpt>
      <trkpt lat="47.51026" lon="6.7775">
        <ele>356.7</ele>
        <time>2016-12-30T11:01:45.000Z</time>
      </trkpt>
      <trkpt lat="47.51029" lon="6.77751">
        <ele>356.8</ele>
        <time>2016-12-30T11:01:46.000Z</time>
      </trkpt>
      <trkpt lat="47.51032" lon="6.77753">
        <ele>356.9</ele>
        <time>2016-12-30T11:01:47.000Z</time>
      </trkpt>
      <trkpt lat="47.51034" lon="6.77755">
        <ele>356.9</ele>
        <time>2016-12-30T11:01:48.000Z</time>
      </trkpt>
      <trkpt lat="47.51036" lon="6.77757">
        <ele>356.9</ele>
        <time>2016-12-30T11:01:49.000Z</time>
      </trkpt>
      <trkpt lat="47.51038" lon="6.77759">
        <ele>356.9</ele>
        <time>2016-12-30T11:01:50.000Z</time>
      </trkpt>
      <trkpt lat="47.51041" lon="6.7776">
        <ele>356.9</ele>
        <time>2016-12-30T11:01:51.000Z</time>
      </trkpt>
      <trkpt lat="47.51042" lon="6.77762">
        <ele>357</ele>
        <time>2016-12-30T11:01:52.000Z</time>
      </trkpt>
      <trkpt lat="47.51046" lon="6.77765">
        <ele>357.2</ele>
        <time>2016-12-30T11:01:55.000Z</time>
      </trkpt>
      <trkpt lat="47.51048" lon="6.77766">
        <ele>357.3</ele>
        <time>2016-12-30T11:01:56.000Z</time>
      </trkpt>
      <trkpt lat="47.5105" lon="6.77765">
        <ele>357.4</ele>
        <time>2016-12-30T11:01:58.000Z</time>
      </trkpt>
      <trkpt lat="47.51054" lon="6.77766">
        <ele>357.4</ele>
        <time>2016-12-30T11:01:59.000Z</time>
      </trkpt>
      <trkpt lat="47.51058" lon="6.77767">
        <ele>357.4</ele>
        <time>2016-12-30T11:02:00.000Z</time>
      </trkpt>
      <trkpt lat="47.51061" lon="6.77768">
        <ele>357.4</ele>
        <time>2016-12-30T11:02:01.000Z</time>
      </trkpt>
      <trkpt lat="47.51064" lon="6.77769">
        <ele>357.4</ele>
        <time>2016-12-30T11:02:02.000Z</time>
      </trkpt>
      <trkpt lat="47.51069" lon="6.7777">
        <ele>357.5</ele>
        <time>2016-12-30T11:02:03.000Z</time>
      </trkpt>
      <trkpt lat="47.51074" lon="6.77772">
        <ele>357.6</ele>
        <time>2016-12-30T11:02:04.000Z</time>
      </trkpt>
      <trkpt lat="47.51079" lon="6.77774">
        <ele>357.7</ele>
        <time>2016-12-30T11:02:05.000Z</time>
      </trkpt>
      <trkpt lat="47.51083" lon="6.77777">
        <ele>357.7</ele>
        <time>2016-12-30T11:02:06.000Z</time>
      </trkpt>
      <trkpt lat="47.51087" lon="6.7778">
        <ele>357.7</ele>
        <time>2016-12-30T11:02:07.000Z</time>
      </trkpt>
      <trkpt lat="47.5109" lon="6.77782">
        <ele>357.7</ele>
        <time>2016-12-30T11:02:08.000Z</time>
      </trkpt>
      <trkpt lat="47.51094" lon="6.77784">
        <ele>357.8</ele>
        <time>2016-12-30T11:02:09.000Z</time>
      </trkpt>
      <trkpt lat="47.51097" lon="6.77785">
        <ele>357.9</ele>
        <time>2016-12-30T11:02:10.000Z</time>
      </trkpt>
      <trkpt lat="47.51099" lon="6.77785">
        <ele>358.1</ele>
        <time>2016-12-30T11:02:11.000Z</time>
      </trkpt>
      <trkpt lat="47.51102" lon="6.77785">
        <ele>358.2</ele>
        <time>2016-12-30T11:02:12.000Z</time>
      </trkpt>
      <trkpt lat="47.51106" lon="6.77784">
        <ele>358.3</ele>
        <time>2016-12-30T11:02:13.000Z</time>
      </trkpt>
      <trkpt lat="47.51109" lon="6.77785">
        <ele>358.3</ele>
        <time>2016-12-30T11:02:14.000Z</time>
      </trkpt>
      <trkpt lat="47.51113" lon="6.77785">
        <ele>358.4</ele>
        <time>2016-12-30T11:02:15.000Z</time>
      </trkpt>
      <trkpt lat="47.51117" lon="6.77785">
        <ele>358.4</ele>
        <time>2016-12-30T11:02:16.000Z</time>
      </trkpt>
      <trkpt lat="47.51121" lon="6.77785">
        <ele>358.5</ele>
        <time>2016-12-30T11:02:17.000Z</time>
      </trkpt>
      <trkpt lat="47.51125" lon="6.77786">
        <ele>358.6</ele>
        <time>2016-12-30T11:02:18.000Z</time>
      </trkpt>
      <trkpt lat="47.51129" lon="6.77786">
        <ele>358.7</ele>
        <time>2016-12-30T11:02:19.000Z</time>
      </trkpt>
      <trkpt lat="47.51132" lon="6.77787">
        <ele>358.8</ele>
        <time>2016-12-30T11:02:20.000Z</time>
      </trkpt>
      <trkpt lat="47.51136" lon="6.77787">
        <ele>358.9</ele>
        <time>2016-12-30T11:02:21.000Z</time>
      </trkpt>
      <trkpt lat="47.51138" lon="6.77787">
        <ele>359.1</ele>
        <time>2016-12-30T11:02:22.000Z</time>
      </trkpt>
      <trkpt lat="47.5114" lon="6.77788">
        <ele>359.3</ele>
        <time>2016-12-30T11:02:23.000Z</time>
      </trkpt>
      <trkpt lat="47.51143" lon="6.77788">
        <ele>359.6</ele>
        <time>2016-12-30T11:02:24.000Z</time>
      </trkpt>
      <trkpt lat="47.51145" lon="6.77788">
        <ele>359.8</ele>
        <time>2016-12-30T11:02:25.000Z</time>
      </trkpt>
      <trkpt lat="47.51148" lon="6.77787">
        <ele>360.1</ele>
        <time>2016-12-30T11:02:26.000Z</time>
      </trkpt>
      <trkpt lat="47.51151" lon="6.77787">
        <ele>360.4</ele>
        <time>2016-12-30T11:02:27.000Z</time>
      </trkpt>
      <trkpt lat="47.51154" lon="6.77787">
        <ele>360.6</ele>
        <time>2016-12-30T11:02:28.000Z</time>
      </trkpt>
      <trkpt lat="47.51157" lon="6.77786">
        <ele>360.9</ele>
        <time>2016-12-30T11:02:29.000Z</time>
      </trkpt>
      <trkpt lat="47.5116" lon="6.77785">
        <ele>361.1</ele>
        <time>2016-12-30T11:02:30.000Z</time>
      </trkpt>
      <trkpt lat="47.51163" lon="6.77785">
        <ele>361.3</ele>
        <time>2016-12-30T11:02:31.000Z</time>
      </trkpt>
      <trkpt lat="47.51166" lon="6.77785">
        <ele>361.5</ele>
        <time>2016-12-30T11:02:32.000Z</time>
      </trkpt>
      <trkpt lat="47.51168" lon="6.77785">
        <ele>361.6</ele>
        <time>2016-12-30T11:02:33.000Z</time>
      </trkpt>
      <trkpt lat="47.5117" lon="6.77784">
        <ele>361.8</ele>
        <time>2016-12-30T11:02:34.000Z</time>
      </trkpt>
      <trkpt lat="47.51174" lon="6.77786">
        <ele>362.2</ele>
        <time>2016-12-30T11:02:38.000Z</time>
      </trkpt>
      <trkpt lat="47.51177" lon="6.77786">
        <ele>362.2</ele>
        <time>2016-12-30T11:02:39.000Z</time>
      </trkpt>
      <trkpt lat="47.51179" lon="6.77786">
        <ele>362.3</ele>
        <time>2016-12-30T11:02:40.000Z</time>
      </trkpt>
      <trkpt lat="47.51181" lon="6.77786">
        <ele>362.4</ele>
        <time>2016-12-30T11:02:41.000Z</time>
      </trkpt>
      <trkpt lat="47.51183" lon="6.77786">
        <ele>362.4</ele>
        <time>2016-12-30T11:02:42.000Z</time>
      </trkpt>
      <trkpt lat="47.51186" lon="6.77786">
        <ele>362.5</ele>
        <time>2016-12-30T11:02:43.000Z</time>
      </trkpt>
      <trkpt lat="47.51189" lon="6.77785">
        <ele>362.6</ele>
        <time>2016-12-30T11:02:44.000Z</time>
      </trkpt>
      <trkpt lat="47.51192" lon="6.77785">
        <ele>362.8</ele>
        <time>2016-12-30T11:02:45.000Z</time>
      </trkpt>
      <trkpt lat="47.51196" lon="6.77784">
        <ele>363.1</ele>
        <time>2016-12-30T11:02:47.000Z</time>
      </trkpt>
      <trkpt lat="47.51199" lon="6.77784">
        <ele>363.3</ele>
        <time>2016-12-30T11:02:48.000Z</time>
      </trkpt>
      <trkpt lat="47.51201" lon="6.77784">
        <ele>363.4</ele>
        <time>2016-12-30T11:02:49.000Z</time>
      </trkpt>
      <trkpt lat="47.51203" lon="6.77784">
        <ele>363.6</ele>
        <time>2016-12-30T11:02:50.000Z</time>
      </trkpt>
      <trkpt lat="47.51207" lon="6.77783">
        <ele>364.1</ele>
        <time>2016-12-30T11:02:52.000Z</time>
      </trkpt>
      <trkpt lat="47.5121" lon="6.77783">
        <ele>364.3</ele>
        <time>2016-12-30T11:02:53.000Z</time>
      </trkpt>
      <trkpt lat="47.51214" lon="6.77783">
        <ele>364.6</ele>
        <time>2016-12-30T11:02:55.000Z</time>
      </trkpt>
      <trkpt lat="47.51216" lon="6.77782">
        <ele>364.7</ele>
        <time>2016-12-30T11:02:56.000Z</time>
      </trkpt>
      <trkpt lat="47.5122" lon="6.77781">
        <ele>365</ele>
        <time>2016-12-30T11:02:59.000Z</time>
      </trkpt>
      <trkpt lat="47.51221" lon="6.77781">
        <ele>365.1</ele>
        <time>2016-12-30T11:03:00.000Z</time>
      </trkpt>
      <trkpt lat="47.51225" lon="6.7778">
        <ele>365.4</ele>
        <time>2016-12-30T11:03:02.000Z</time>
      </trkpt>
      <trkpt lat="47.51227" lon="6.7778">
        <ele>365.5</ele>
        <time>2016-12-30T11:03:03.000Z</time>
      </trkpt>
      <trkpt lat="47.51231" lon="6.77782">
        <ele>365.8</ele>
        <time>2016-12-30T11:03:05.000Z</time>
      </trkpt>
      <trkpt lat="47.51233" lon="6.77781">
        <ele>365.8</ele>
        <time>2016-12-30T11:03:06.000Z</time>
      </trkpt>
      <trkpt lat="47.51235" lon="6.7778">
        <ele>365.8</ele>
        <time>2016-12-30T11:03:07.000Z</time>
      </trkpt>
      <trkpt lat="47.51238" lon="6.77779">
        <ele>366</ele>
        <time>2016-12-30T11:03:08.000Z</time>
      </trkpt>
      <trkpt lat="47.51242" lon="6.7778">
        <ele>366.3</ele>
        <time>2016-12-30T11:03:10.000Z</time>
      </trkpt>
      <trkpt lat="47.51244" lon="6.77781">
        <ele>366.5</ele>
        <time>2016-12-30T11:03:11.000Z</time>
      </trkpt>
      <trkpt lat="47.51248" lon="6.77783">
        <ele>367.2</ele>
        <time>2016-12-30T11:03:16.000Z</time>
      </trkpt>
      <trkpt lat="47.51248" lon="6.77783">
        <ele>367.3</ele>
        <time>2016-12-30T11:03:17.000Z</time>
      </trkpt>
      <trkpt lat="47.51252" lon="6.77781">
        <ele>367.7</ele>
        <time>2016-12-30T11:03:20.000Z</time>
      </trkpt>
      <trkpt lat="47.51253" lon="6.77781">
        <ele>367.9</ele>
        <time>2016-12-30T11:03:21.000Z</time>
      </trkpt>
      <trkpt lat="47.51257" lon="6.7778">
        <ele>368.3</ele>
        <time>2016-12-30T11:03:24.000Z</time>
      </trkpt>
      <trkpt lat="47.51259" lon="6.7778">
        <ele>368.4</ele>
        <time>2016-12-30T11:03:25.000Z</time>
      </trkpt>
      <trkpt lat="47.51263" lon="6.7778">
        <ele>369.1</ele>
        <time>2016-12-30T11:03:28.000Z</time>
      </trkpt>
      <trkpt lat="47.51265" lon="6.77781">
        <ele>369.3</ele>
        <time>2016-12-30T11:03:29.000Z</time>
      </trkpt>
      <trkpt lat="47.51268" lon="6.77781">
        <ele>369.7</ele>
        <time>2016-12-30T11:03:31.000Z</time>
      </trkpt>
      <trkpt lat="47.5127" lon="6.7778">
        <ele>369.8</ele>
        <time>2016-12-30T11:03:32.000Z</time>
      </trkpt>
      <trkpt lat="47.51274" lon="6.7778">
        <ele>370.2</ele>
        <time>2016-12-30T11:03:34.000Z</time>
      </trkpt>
      <trkpt lat="47.51275" lon="6.7778">
        <ele>370.3</ele>
        <time>2016-12-30T11:03:35.000Z</time>
      </trkpt>
      <trkpt lat="47.51278" lon="6.7778">
        <ele>370.7</ele>
        <time>2016-12-30T11:03:38.000Z</time>
      </trkpt>
      <trkpt lat="47.5128" lon="6.7778">
        <ele>370.8</ele>
        <time>2016-12-30T11:03:39.000Z</time>
      </trkpt>
      <trkpt lat="47.51284" lon="6.7778">
        <ele>371.3</ele>
        <time>2016-12-30T11:03:42.000Z</time>
      </trkpt>
      <trkpt lat="47.51286" lon="6.7778">
        <ele>371.4</ele>
        <time>2016-12-30T11:03:43.000Z</time>
      </trkpt>
      <trkpt lat="47.5129" lon="6.77779">
        <ele>371.8</ele>
        <time>2016-12-30T11:03:46.000Z</time>
      </trkpt>
      <trkpt lat="47.51292" lon="6.77779">
        <ele>371.8</ele>
        <time>2016-12-30T11:03:47.000Z</time>
      </trkpt>
      <trkpt lat="47.51295" lon="6.77779">
        <ele>372.2</ele>
        <time>2016-12-30T11:03:49.000Z</time>
      </trkpt>
      <trkpt lat="47.51298" lon="6.77779">
        <ele>372.4</ele>
        <time>2016-12-30T11:03:50.000Z</time>
      </trkpt>
      <trkpt lat="47.51301" lon="6.77779">
        <ele>372.9</ele>
        <time>2016-12-30T11:03:53.000Z</time>
      </trkpt>
      <trkpt lat="47.51302" lon="6.77778">
        <ele>373.1</ele>
        <time>2016-12-30T11:03:54.000Z</time>
      </trkpt>
      <trkpt lat="47.51306" lon="6.77777">
        <ele>373.9</ele>
        <time>2016-12-30T11:03:57.000Z</time>
      </trkpt>
      <trkpt lat="47.51309" lon="6.77777">
        <ele>374.1</ele>
        <time>2016-12-30T11:03:58.000Z</time>
      </trkpt>
      <trkpt lat="47.51312" lon="6.77777">
        <ele>374.6</ele>
        <time>2016-12-30T11:04:00.000Z</time>
      </trkpt>
      <trkpt lat="47.51314" lon="6.77777">
        <ele>374.8</ele>
        <time>2016-12-30T11:04:01.000Z</time>
      </trkpt>
      <trkpt lat="47.51318" lon="6.77777">
        <ele>375.3</ele>
        <time>2016-12-30T11:04:03.000Z</time>
      </trkpt>
      <trkpt lat="47.5132" lon="6.77776">
        <ele>375.6</ele>
        <time>2016-12-30T11:04:04.000Z</time>
      </trkpt>
      <trkpt lat="47.51324" lon="6.77774">
        <ele>376.1</ele>
        <time>2016-12-30T11:04:06.000Z</time>
      </trkpt>
      <trkpt lat="47.51325" lon="6.77774">
        <ele>376.3</ele>
        <time>2016-12-30T11:04:07.000Z</time>
      </trkpt>
      <trkpt lat="47.51328" lon="6.77775">
        <ele>376.8</ele>
        <time>2016-12-30T11:04:10.000Z</time>
      </trkpt>
      <trkpt lat="47.51331" lon="6.77777">
        <ele>377</ele>
        <time>2016-12-30T11:04:11.000Z</time>
      </trkpt>
      <trkpt lat="47.51334" lon="6.77778">
        <ele>377.4</ele>
        <time>2016-12-30T11:04:13.000Z</time>
      </trkpt>
      <trkpt lat="47.51336" lon="6.77778">
        <ele>377.6</ele>
        <time>2016-12-30T11:04:14.000Z</time>
      </trkpt>
      <trkpt lat="47.51337" lon="6.77779">
        <ele>377.8</ele>
        <time>2016-12-30T11:04:15.000Z</time>
      </trkpt>
      <trkpt lat="47.5134" lon="6.77781">
        <ele>377.9</ele>
        <time>2016-12-30T11:04:16.000Z</time>
      </trkpt>
      <trkpt lat="47.51344" lon="6.77784">
        <ele>378.2</ele>
        <time>2016-12-30T11:04:18.000Z</time>
      </trkpt>
      <trkpt lat="47.51344" lon="6.77784">
        <ele>378.4</ele>
        <time>2016-12-30T11:04:19.000Z</time>
      </trkpt>
      <trkpt lat="47.51347" lon="6.77781">
        <ele>378.9</ele>
        <time>2016-12-30T11:04:22.000Z</time>
      </trkpt>
      <trkpt lat="47.51348" lon="6.7778">
        <ele>379.2</ele>
        <time>2016-12-30T11:04:23.000Z</time>
      </trkpt>
      <trkpt lat="47.51351" lon="6.77777">
        <ele>379.6</ele>
        <time>2016-12-30T11:04:25.000Z</time>
      </trkpt>
      <trkpt lat="47.51352" lon="6.77776">
        <ele>379.7</ele>
        <time>2016-12-30T11:04:26.000Z</time>
      </trkpt>
      <trkpt lat="47.51355" lon="6.77772">
        <ele>380.3</ele>
        <time>2016-12-30T11:04:29.000Z</time>
      </trkpt>
      <trkpt lat="47.51356" lon="6.7777">
        <ele>380.4</ele>
        <time>2016-12-30T11:04:30.000Z</time>
      </trkpt>
      <trkpt lat="47.51359" lon="6.77767">
        <ele>380.5</ele>
        <time>2016-12-30T11:04:32.000Z</time>
      </trkpt>
      <trkpt lat="47.5136" lon="6.77766">
        <ele>380.7</ele>
        <time>2016-12-30T11:04:33.000Z</time>
      </trkpt>
      <trkpt lat="47.51364" lon="6.77764">
        <ele>381</ele>
        <time>2016-12-30T11:04:35.000Z</time>
      </trkpt>
      <trkpt lat="47.51365" lon="6.77764">
        <ele>381.1</ele>
        <time>2016-12-30T11:04:36.000Z</time>
      </trkpt>
      <trkpt lat="47.51369" lon="6.77762">
        <ele>381.4</ele>
        <time>2016-12-30T11:04:39.000Z</time>
      </trkpt>
      <trkpt lat="47.5137" lon="6.77762">
        <ele>381.6</ele>
        <time>2016-12-30T11:04:40.000Z</time>
      </trkpt>
      <trkpt lat="47.51374" lon="6.77761">
        <ele>381.9</ele>
        <time>2016-12-30T11:04:42.000Z</time>
      </trkpt>
      <trkpt lat="47.51375" lon="6.7776">
        <ele>382.1</ele>
        <time>2016-12-30T11:04:43.000Z</time>
      </trkpt>
      <trkpt lat="47.51378" lon="6.77758">
        <ele>382.5</ele>
        <time>2016-12-30T11:04:45.000Z</time>
      </trkpt>
      <trkpt lat="47.5138" lon="6.77757">
        <ele>382.6</ele>
        <time>2016-12-30T11:04:46.000Z</time>
      </trkpt>
      <trkpt lat="47.51383" lon="6.77753">
        <ele>382.7</ele>
        <time>2016-12-30T11:04:49.000Z</time>
      </trkpt>
      <trkpt lat="47.51384" lon="6.77752">
        <ele>382.6</ele>
        <time>2016-12-30T11:04:50.000Z</time>
      </trkpt>
      <trkpt lat="47.51387" lon="6.77751">
        <ele>382.6</ele>
        <time>2016-12-30T11:04:52.000Z</time>
      </trkpt>
      <trkpt lat="47.51389" lon="6.7775">
        <ele>382.6</ele>
        <time>2016-12-30T11:04:53.000Z</time>
      </trkpt>
      <trkpt lat="47.51392" lon="6.77749">
        <ele>382.8</ele>
        <time>2016-12-30T11:04:56.000Z</time>
      </trkpt>
      <trkpt lat="47.51394" lon="6.77748">
        <ele>382.9</ele>
        <time>2016-12-30T11:04:57.000Z</time>
      </trkpt>
      <trkpt lat="47.51396" lon="6.77746">
        <ele>382.9</ele>
        <time>2016-12-30T11:04:58.000Z</time>
      </trkpt>
      <trkpt lat="47.51398" lon="6.77745">
        <ele>382.9</ele>
        <time>2016-12-30T11:04:59.000Z</time>
      </trkpt>
      <trkpt lat="47.51402" lon="6.77744">
        <ele>383.2</ele>
        <time>2016-12-30T11:05:02.000Z</time>
      </trkpt>
      <trkpt lat="47.51404" lon="6.77743">
        <ele>383.2</ele>
        <time>2016-12-30T11:05:03.000Z</time>
      </trkpt>
      <trkpt lat="47.51407" lon="6.7774">
        <ele>383.7</ele>
        <time>2016-12-30T11:05:07.000Z</time>
      </trkpt>
      <trkpt lat="47.51408" lon="6.77739">
        <ele>383.9</ele>
        <time>2016-12-30T11:05:08.000Z</time>
      </trkpt>
      <trkpt lat="47.51411" lon="6.77737">
        <ele>384.7</ele>
        <time>2016-12-30T11:05:11.000Z</time>
      </trkpt>
      <trkpt lat="47.51413" lon="6.77736">
        <ele>384.8</ele>
        <time>2016-12-30T11:05:12.000Z</time>
      </trkpt>
      <trkpt lat="47.51417" lon="6.77735">
        <ele>385.5</ele>
        <time>2016-12-30T11:05:17.000Z</time>
      </trkpt>
      <trkpt lat="47.51418" lon="6.77735">
        <ele>385.6</ele>
        <time>2016-12-30T11:05:18.000Z</time>
      </trkpt>
      <trkpt lat="47.51421" lon="6.77732">
        <ele>385.9</ele>
        <time>2016-12-30T11:05:22.000Z</time>
      </trkpt>
      <trkpt lat="47.51424" lon="6.77729">
        <ele>386.1</ele>
        <time>2016-12-30T11:05:23.000Z</time>
      </trkpt>
      <trkpt lat="47.51428" lon="6.77727">
        <ele>386.5</ele>
        <time>2016-12-30T11:05:26.000Z</time>
      </trkpt>
      <trkpt lat="47.51429" lon="6.77726">
        <ele>386.6</ele>
        <time>2016-12-30T11:05:27.000Z</time>
      </trkpt>
      <trkpt lat="47.51432" lon="6.77727">
        <ele>387</ele>
        <time>2016-12-30T11:05:29.000Z</time>
      </trkpt>
      <trkpt lat="47.51435" lon="6.77727">
        <ele>387.2</ele>
        <time>2016-12-30T11:05:30.000Z</time>
      </trkpt>
      <trkpt lat="47.51437" lon="6.77728">
        <ele>387.2</ele>
        <time>2016-12-30T11:05:31.000Z</time>
      </trkpt>
      <trkpt lat="47.51439" lon="6.77728">
        <ele>387.4</ele>
        <time>2016-12-30T11:05:32.000Z</time>
      </trkpt>
      <trkpt lat="47.51443" lon="6.77727">
        <ele>387.9</ele>
        <time>2016-12-30T11:05:36.000Z</time>
      </trkpt>
      <trkpt lat="47.51445" lon="6.77727">
        <ele>388</ele>
        <time>2016-12-30T11:05:37.000Z</time>
      </trkpt>
      <trkpt lat="47.51447" lon="6.77726">
        <ele>388.2</ele>
        <time>2016-12-30T11:05:39.000Z</time>
      </trkpt>
      <trkpt lat="47.5145" lon="6.77726">
        <ele>388.2</ele>
        <time>2016-12-30T11:05:40.000Z</time>
      </trkpt>
      <trkpt lat="47.51453" lon="6.77724">
        <ele>388.2</ele>
        <time>2016-12-30T11:05:43.000Z</time>
      </trkpt>
      <trkpt lat="47.51454" lon="6.77724">
        <ele>388.2</ele>
        <time>2016-12-30T11:05:44.000Z</time>
      </trkpt>
      <trkpt lat="47.51457" lon="6.77722">
        <ele>388.4</ele>
        <time>2016-12-30T11:05:47.000Z</time>
      </trkpt>
      <trkpt lat="47.51458" lon="6.77721">
        <ele>388.5</ele>
        <time>2016-12-30T11:05:48.000Z</time>
      </trkpt>
      <trkpt lat="47.51462" lon="6.77721">
        <ele>388.8</ele>
        <time>2016-12-30T11:05:51.000Z</time>
      </trkpt>
      <trkpt lat="47.51463" lon="6.77721">
        <ele>388.9</ele>
        <time>2016-12-30T11:05:52.000Z</time>
      </trkpt>
      <trkpt lat="47.51467" lon="6.7772">
        <ele>388.9</ele>
        <time>2016-12-30T11:05:55.000Z</time>
      </trkpt>
      <trkpt lat="47.51469" lon="6.7772">
        <ele>389</ele>
        <time>2016-12-30T11:05:56.000Z</time>
      </trkpt>
      <trkpt lat="47.51473" lon="6.7772">
        <ele>389.1</ele>
        <time>2016-12-30T11:05:58.000Z</time>
      </trkpt>
      <trkpt lat="47.51476" lon="6.77719">
        <ele>389.1</ele>
        <time>2016-12-30T11:05:59.000Z</time>
      </trkpt>
      <trkpt lat="47.51479" lon="6.77718">
        <ele>389.4</ele>
        <time>2016-12-30T11:06:01.000Z</time>
      </trkpt>
      <trkpt lat="47.51482" lon="6.77718">
        <ele>389.6</ele>
        <time>2016-12-30T11:06:02.000Z</time>
      </trkpt>
      <trkpt lat="47.51485" lon="6.77719">
        <ele>389.8</ele>
        <time>2016-12-30T11:06:04.000Z</time>
      </trkpt>
      <trkpt lat="47.51487" lon="6.77719">
        <ele>389.8</ele>
        <time>2016-12-30T11:06:05.000Z</time>
      </trkpt>
      <trkpt lat="47.5149" lon="6.77718">
        <ele>389.8</ele>
        <time>2016-12-30T11:06:07.000Z</time>
      </trkpt>
      <trkpt lat="47.51491" lon="6.77717">
        <ele>389.8</ele>
        <time>2016-12-30T11:06:08.000Z</time>
      </trkpt>
      <trkpt lat="47.51494" lon="6.77716">
        <ele>390</ele>
        <time>2016-12-30T11:06:10.000Z</time>
      </trkpt>
      <trkpt lat="47.51496" lon="6.77717">
        <ele>390</ele>
        <time>2016-12-30T11:06:11.000Z</time>
      </trkpt>
      <trkpt lat="47.515" lon="6.77717">
        <ele>390</ele>
        <time>2016-12-30T11:06:16.000Z</time>
      </trkpt>
      <trkpt lat="47.51501" lon="6.77718">
        <ele>390.1</ele>
        <time>2016-12-30T11:06:17.000Z</time>
      </trkpt>
      <trkpt lat="47.51505" lon="6.77715">
        <ele>390.6</ele>
        <time>2016-12-30T11:06:21.000Z</time>
      </trkpt>
      <trkpt lat="47.51506" lon="6.77714">
        <ele>390.8</ele>
        <time>2016-12-30T11:06:22.000Z</time>
      </trkpt>
      <trkpt lat="47.51509" lon="6.77714">
        <ele>391.1</ele>
        <time>2016-12-30T11:06:24.000Z</time>
      </trkpt>
      <trkpt lat="47.51512" lon="6.77714">
        <ele>391.2</ele>
        <time>2016-12-30T11:06:25.000Z</time>
      </trkpt>
      <trkpt lat="47.51516" lon="6.77714">
        <ele>391.5</ele>
        <time>2016-12-30T11:06:27.000Z</time>
      </trkpt>
      <trkpt lat="47.51518" lon="6.77713">
        <ele>391.6</ele>
        <time>2016-12-30T11:06:28.000Z</time>
      </trkpt>
      <trkpt lat="47.51521" lon="6.77713">
        <ele>391.9</ele>
        <time>2016-12-30T11:06:30.000Z</time>
      </trkpt>
      <trkpt lat="47.51523" lon="6.77713">
        <ele>392.1</ele>
        <time>2016-12-30T11:06:31.000Z</time>
      </trkpt>
      <trkpt lat="47.51527" lon="6.77714">
        <ele>392.6</ele>
        <time>2016-12-30T11:06:34.000Z</time>
      </trkpt>
      <trkpt lat="47.51528" lon="6.77714">
        <ele>392.9</ele>
        <time>2016-12-30T11:06:35.000Z</time>
      </trkpt>
      <trkpt lat="47.51532" lon="6.77714">
        <ele>393.8</ele>
        <time>2016-12-30T11:06:38.000Z</time>
      </trkpt>
      <trkpt lat="47.51533" lon="6.77715">
        <ele>394</ele>
        <time>2016-12-30T11:06:39.000Z</time>
      </trkpt>
      <trkpt lat="47.51536" lon="6.77716">
        <ele>394.4</ele>
        <time>2016-12-30T11:06:41.000Z</time>
      </trkpt>
      <trkpt lat="47.51537" lon="6.77716">
        <ele>394.5</ele>
        <time>2016-12-30T11:06:42.000Z</time>
      </trkpt>
      <trkpt lat="47.51542" lon="6.77717">
        <ele>395</ele>
        <time>2016-12-30T11:06:45.000Z</time>
      </trkpt>
      <trkpt lat="47.51544" lon="6.77718">
        <ele>395.2</ele>
        <time>2016-12-30T11:06:46.000Z</time>
      </trkpt>
      <trkpt lat="47.51548" lon="6.77719">
        <ele>395.6</ele>
        <time>2016-12-30T11:06:49.000Z</time>
      </trkpt>
      <trkpt lat="47.51551" lon="6.7772">
        <ele>395.8</ele>
        <time>2016-12-30T11:06:50.000Z</time>
      </trkpt>
      <trkpt lat="47.51554" lon="6.77721">
        <ele>396</ele>
        <time>2016-12-30T11:06:51.000Z</time>
      </trkpt>
      <trkpt lat="47.51557" lon="6.77722">
        <ele>396.3</ele>
        <time>2016-12-30T11:06:52.000Z</time>
      </trkpt>
      <trkpt lat="47.51561" lon="6.77724">
        <ele>397</ele>
        <time>2016-12-30T11:06:54.000Z</time>
      </trkpt>
      <trkpt lat="47.51562" lon="6.77724">
        <ele>397.2</ele>
        <time>2016-12-30T11:06:55.000Z</time>
      </trkpt>
      <trkpt lat="47.51565" lon="6.77726">
        <ele>398</ele>
        <time>2016-12-30T11:06:58.000Z</time>
      </trkpt>
      <trkpt lat="47.51567" lon="6.77726">
        <ele>398.2</ele>
        <time>2016-12-30T11:06:59.000Z</time>
      </trkpt>
      <trkpt lat="47.51571" lon="6.77727">
        <ele>398.6</ele>
        <time>2016-12-30T11:07:01.000Z</time>
      </trkpt>
      <trkpt lat="47.51572" lon="6.77728">
        <ele>398.9</ele>
        <time>2016-12-30T11:07:02.000Z</time>
      </trkpt>
      <trkpt lat="47.51576" lon="6.77729">
        <ele>400</ele>
        <time>2016-12-30T11:07:06.000Z</time>
      </trkpt>
      <trkpt lat="47.51578" lon="6.7773">
        <ele>400.3</ele>
        <time>2016-12-30T11:07:07.000Z</time>
      </trkpt>
      <trkpt lat="47.51581" lon="6.77732">
        <ele>400.9</ele>
        <time>2016-12-30T11:07:09.000Z</time>
      </trkpt>
      <trkpt lat="47.51582" lon="6.77733">
        <ele>401.2</ele>
        <time>2016-12-30T11:07:10.000Z</time>
      </trkpt>
      <trkpt lat="47.51585" lon="6.77733">
        <ele>401.8</ele>
        <time>2016-12-30T11:07:12.000Z</time>
      </trkpt>
      <trkpt lat="47.51587" lon="6.77732">
        <ele>402.2</ele>
        <time>2016-12-30T11:07:13.000Z</time>
      </trkpt>
      <trkpt lat="47.51591" lon="6.7773">
        <ele>402.9</ele>
        <time>2016-12-30T11:07:15.000Z</time>
      </trkpt>
      <trkpt lat="47.51593" lon="6.77728">
        <ele>403.3</ele>
        <time>2016-12-30T11:07:16.000Z</time>
      </trkpt>
      <trkpt lat="47.51597" lon="6.77731">
        <ele>404.3</ele>
        <time>2016-12-30T11:07:19.000Z</time>
      </trkpt>
      <trkpt lat="47.51598" lon="6.77733">
        <ele>404.5</ele>
        <time>2016-12-30T11:07:20.000Z</time>
      </trkpt>
      <trkpt lat="47.516" lon="6.77735">
        <ele>405.1</ele>
        <time>2016-12-30T11:07:22.000Z</time>
      </trkpt>
      <trkpt lat="47.51602" lon="6.77737">
        <ele>405.3</ele>
        <time>2016-12-30T11:07:23.000Z</time>
      </trkpt>
      <trkpt lat="47.51606" lon="6.7774">
        <ele>405.9</ele>
        <time>2016-12-30T11:07:26.000Z</time>
      </trkpt>
      <trkpt lat="47.51606" lon="6.77741">
        <ele>406</ele>
        <time>2016-12-30T11:07:27.000Z</time>
      </trkpt>
      <trkpt lat="47.5161" lon="6.77742">
        <ele>406.5</ele>
        <time>2016-12-30T11:07:30.000Z</time>
      </trkpt>
      <trkpt lat="47.51611" lon="6.77742">
        <ele>406.6</ele>
        <time>2016-12-30T11:07:31.000Z</time>
      </trkpt>
      <trkpt lat="47.51615" lon="6.77742">
        <ele>407.1</ele>
        <time>2016-12-30T11:07:35.000Z</time>
      </trkpt>
      <trkpt lat="47.51617" lon="6.77742">
        <ele>407.2</ele>
        <time>2016-12-30T11:07:36.000Z</time>
      </trkpt>
      <trkpt lat="47.5162" lon="6.77743">
        <ele>407.3</ele>
        <time>2016-12-30T11:07:37.000Z</time>
      </trkpt>
      <trkpt lat="47.51622" lon="6.77743">
        <ele>407.3</ele>
        <time>2016-12-30T11:07:38.000Z</time>
      </trkpt>
      <trkpt lat="47.51625" lon="6.77741">
        <ele>407.6</ele>
        <time>2016-12-30T11:07:40.000Z</time>
      </trkpt>
      <trkpt lat="47.51626" lon="6.7774">
        <ele>407.8</ele>
        <time>2016-12-30T11:07:41.000Z</time>
      </trkpt>
      <trkpt lat="47.5163" lon="6.7774">
        <ele>409.4</ele>
        <time>2016-12-30T11:07:47.000Z</time>
      </trkpt>
      <trkpt lat="47.51631" lon="6.7774">
        <ele>409.6</ele>
        <time>2016-12-30T11:07:48.000Z</time>
      </trkpt>
      <trkpt lat="47.51635" lon="6.77741">
        <ele>410.2</ele>
        <time>2016-12-30T11:07:51.000Z</time>
      </trkpt>
      <trkpt lat="47.51638" lon="6.77741">
        <ele>410.2</ele>
        <time>2016-12-30T11:07:52.000Z</time>
      </trkpt>
      <trkpt lat="47.51642" lon="6.77741">
        <ele>410.3</ele>
        <time>2016-12-30T11:07:54.000Z</time>
      </trkpt>
      <trkpt lat="47.51644" lon="6.77742">
        <ele>410.5</ele>
        <time>2016-12-30T11:07:55.000Z</time>
      </trkpt>
      <trkpt lat="47.51646" lon="6.77742">
        <ele>410.7</ele>
        <time>2016-12-30T11:07:56.000Z</time>
      </trkpt>
      <trkpt lat="47.51649" lon="6.77743">
        <ele>410.7</ele>
        <time>2016-12-30T11:07:57.000Z</time>
      </trkpt>
      <trkpt lat="47.51652" lon="6.77744">
        <ele>410.8</ele>
        <time>2016-12-30T11:07:59.000Z</time>
      </trkpt>
      <trkpt lat="47.51654" lon="6.77744">
        <ele>411</ele>
        <time>2016-12-30T11:08:00.000Z</time>
      </trkpt>
      <trkpt lat="47.51657" lon="6.77745">
        <ele>411.3</ele>
        <time>2016-12-30T11:08:02.000Z</time>
      </trkpt>
      <trkpt lat="47.51659" lon="6.77745">
        <ele>411.6</ele>
        <time>2016-12-30T11:08:03.000Z</time>
      </trkpt>
      <trkpt lat="47.51662" lon="6.77746">
        <ele>412</ele>
        <time>2016-12-30T11:08:05.000Z</time>
      </trkpt>
      <trkpt lat="47.51664" lon="6.77747">
        <ele>412.1</ele>
        <time>2016-12-30T11:08:06.000Z</time>
      </trkpt>
      <trkpt lat="47.51666" lon="6.77746">
        <ele>412.2</ele>
        <time>2016-12-30T11:08:08.000Z</time>
      </trkpt>
      <trkpt lat="47.51668" lon="6.77746">
        <ele>412.2</ele>
        <time>2016-12-30T11:08:09.000Z</time>
      </trkpt>
      <trkpt lat="47.51671" lon="6.77746">
        <ele>412.3</ele>
        <time>2016-12-30T11:08:11.000Z</time>
      </trkpt>
      <trkpt lat="47.51673" lon="6.77746">
        <ele>412.4</ele>
        <time>2016-12-30T11:08:12.000Z</time>
      </trkpt>
      <trkpt lat="47.51677" lon="6.77746">
        <ele>412.6</ele>
        <time>2016-12-30T11:08:15.000Z</time>
      </trkpt>
      <trkpt lat="47.51678" lon="6.77746">
        <ele>412.8</ele>
        <time>2016-12-30T11:08:16.000Z</time>
      </trkpt>
      <trkpt lat="47.51682" lon="6.77747">
        <ele>413</ele>
        <time>2016-12-30T11:08:19.000Z</time>
      </trkpt>
      <trkpt lat="47.51684" lon="6.77747">
        <ele>413.2</ele>
        <time>2016-12-30T11:08:20.000Z</time>
      </trkpt>
      <trkpt lat="47.51687" lon="6.77747">
        <ele>413.6</ele>
        <time>2016-12-30T11:08:22.000Z</time>
      </trkpt>
      <trkpt lat="47.51689" lon="6.77747">
        <ele>413.9</ele>
        <time>2016-12-30T11:08:23.000Z</time>
      </trkpt>
      <trkpt lat="47.51693" lon="6.77746">
        <ele>414.2</ele>
        <time>2016-12-30T11:08:25.000Z</time>
      </trkpt>
      <trkpt lat="47.51695" lon="6.77745">
        <ele>414.3</ele>
        <time>2016-12-30T11:08:26.000Z</time>
      </trkpt>
      <trkpt lat="47.51698" lon="6.77741">
        <ele>414.8</ele>
        <time>2016-12-30T11:08:29.000Z</time>
      </trkpt>
      <trkpt lat="47.51699" lon="6.7774">
        <ele>414.9</ele>
        <time>2016-12-30T11:08:30.000Z</time>
      </trkpt>
      <trkpt lat="47.51702" lon="6.77737">
        <ele>415.4</ele>
        <time>2016-12-30T11:08:32.000Z</time>
      </trkpt>
      <trkpt lat="47.51703" lon="6.77735">
        <ele>415.7</ele>
        <time>2016-12-30T11:08:33.000Z</time>
      </trkpt>
      <trkpt lat="47.51705" lon="6.77731">
        <ele>416.5</ele>
        <time>2016-12-30T11:08:36.000Z</time>
      </trkpt>
      <trkpt lat="47.51706" lon="6.7773">
        <ele>416.8</ele>
        <time>2016-12-30T11:08:37.000Z</time>
      </trkpt>
      <trkpt lat="47.51708" lon="6.77724">
        <ele>417.6</ele>
        <time>2016-12-30T11:08:40.000Z</time>
      </trkpt>
      <trkpt lat="47.51708" lon="6.77722">
        <ele>417.9</ele>
        <time>2016-12-30T11:08:41.000Z</time>
      </trkpt>
      <trkpt lat="47.51709" lon="6.77716">
        <ele>418.7</ele>
        <time>2016-12-30T11:08:44.000Z</time>
      </trkpt>
      <trkpt lat="47.51709" lon="6.77715">
        <ele>419.1</ele>
        <time>2016-12-30T11:08:45.000Z</time>
      </trkpt>
      <trkpt lat="47.51711" lon="6.77712">
        <ele>419.7</ele>
        <time>2016-12-30T11:08:47.000Z</time>
      </trkpt>
      <trkpt lat="47.51712" lon="6.77708">
        <ele>420</ele>
        <time>2016-12-30T11:08:48.000Z</time>
      </trkpt>
      <trkpt lat="47.51714" lon="6.77703">
        <ele>420.6</ele>
        <time>2016-12-30T11:08:50.000Z</time>
      </trkpt>
      <trkpt lat="47.51715" lon="6.77701">
        <ele>420.9</ele>
        <time>2016-12-30T11:08:51.000Z</time>
      </trkpt>
      <trkpt lat="47.51716" lon="6.77695">
        <ele>421.5</ele>
        <time>2016-12-30T11:08:53.000Z</time>
      </trkpt>
      <trkpt lat="47.51716" lon="6.77692">
        <ele>421.8</ele>
        <time>2016-12-30T11:08:54.000Z</time>
      </trkpt>
      <trkpt lat="47.51716" lon="6.77688">
        <ele>422.4</ele>
        <time>2016-12-30T11:08:56.000Z</time>
      </trkpt>
      <trkpt lat="47.51715" lon="6.77685">
        <ele>422.7</ele>
        <time>2016-12-30T11:08:57.000Z</time>
      </trkpt>
      <trkpt lat="47.51714" lon="6.7768">
        <ele>423.3</ele>
        <time>2016-12-30T11:08:59.000Z</time>
      </trkpt>
      <trkpt lat="47.51714" lon="6.77678">
        <ele>423.6</ele>
        <time>2016-12-30T11:09:00.000Z</time>
      </trkpt>
      <trkpt lat="47.51714" lon="6.77674">
        <ele>423.8</ele>
        <time>2016-12-30T11:09:01.000Z</time>
      </trkpt>
      <trkpt lat="47.51714" lon="6.7767">
        <ele>424.1</ele>
        <time>2016-12-30T11:09:02.000Z</time>
      </trkpt>
      <trkpt lat="47.51713" lon="6.77664">
        <ele>424.6</ele>
        <time>2016-12-30T11:09:04.000Z</time>
      </trkpt>
      <trkpt lat="47.51713" lon="6.77661">
        <ele>424.8</ele>
        <time>2016-12-30T11:09:05.000Z</time>
      </trkpt>
      <trkpt lat="47.51713" lon="6.77657">
        <ele>425.3</ele>
        <time>2016-12-30T11:09:07.000Z</time>
      </trkpt>
      <trkpt lat="47.51713" lon="6.77654">
        <ele>425.5</ele>
        <time>2016-12-30T11:09:08.000Z</time>
      </trkpt>
      <trkpt lat="47.51713" lon="6.77647">
        <ele>426</ele>
        <time>2016-12-30T11:09:10.000Z</time>
      </trkpt>
      <trkpt lat="47.51712" lon="6.77645">
        <ele>426.3</ele>
        <time>2016-12-30T11:09:11.000Z</time>
      </trkpt>
      <trkpt lat="47.51713" lon="6.77639">
        <ele>426.8</ele>
        <time>2016-12-30T11:09:13.000Z</time>
      </trkpt>
      <trkpt lat="47.51713" lon="6.77635">
        <ele>427</ele>
        <time>2016-12-30T11:09:14.000Z</time>
      </trkpt>
      <trkpt lat="47.51713" lon="6.77629">
        <ele>427.6</ele>
        <time>2016-12-30T11:09:16.000Z</time>
      </trkpt>
      <trkpt lat="47.51713" lon="6.77625">
        <ele>427.8</ele>
        <time>2016-12-30T11:09:17.000Z</time>
      </trkpt>
      <trkpt lat="47.51713" lon="6.77619">
        <ele>428.2</ele>
        <time>2016-12-30T11:09:19.000Z</time>
      </trkpt>
      <trkpt lat="47.51713" lon="6.77616">
        <ele>428.4</ele>
        <time>2016-12-30T11:09:20.000Z</time>
      </trkpt>
      <trkpt lat="47.51712" lon="6.77611">
        <ele>429</ele>
        <time>2016-12-30T11:09:22.000Z</time>
      </trkpt>
      <trkpt lat="47.51712" lon="6.77608">
        <ele>429.2</ele>
        <time>2016-12-30T11:09:23.000Z</time>
      </trkpt>
      <trkpt lat="47.51712" lon="6.77602">
        <ele>429.7</ele>
        <time>2016-12-30T11:09:25.000Z</time>
      </trkpt>
      <trkpt lat="47.51712" lon="6.77599">
        <ele>429.9</ele>
        <time>2016-12-30T11:09:26.000Z</time>
      </trkpt>
      <trkpt lat="47.51713" lon="6.77595">
        <ele>430.3</ele>
        <time>2016-12-30T11:09:28.000Z</time>
      </trkpt>
      <trkpt lat="47.51714" lon="6.77593">
        <ele>430.5</ele>
        <time>2016-12-30T11:09:29.000Z</time>
      </trkpt>
      <trkpt lat="47.51716" lon="6.77588">
        <ele>430.9</ele>
        <time>2016-12-30T11:09:31.000Z</time>
      </trkpt>
      <trkpt lat="47.51718" lon="6.77587">
        <ele>431</ele>
        <time>2016-12-30T11:09:32.000Z</time>
      </trkpt>
      <trkpt lat="47.51721" lon="6.77585">
        <ele>431.4</ele>
        <time>2016-12-30T11:09:34.000Z</time>
      </trkpt>
      <trkpt lat="47.51723" lon="6.77585">
        <ele>431.7</ele>
        <time>2016-12-30T11:09:35.000Z</time>
      </trkpt>
      <trkpt lat="47.51725" lon="6.7758">
        <ele>432.4</ele>
        <time>2016-12-30T11:09:38.000Z</time>
      </trkpt>
      <trkpt lat="47.51725" lon="6.77577">
        <ele>432.6</ele>
        <time>2016-12-30T11:09:39.000Z</time>
      </trkpt>
      <trkpt lat="47.51723" lon="6.77573">
        <ele>432.8</ele>
        <time>2016-12-30T11:09:40.000Z</time>
      </trkpt>
      <trkpt lat="47.51722" lon="6.7757">
        <ele>432.9</ele>
        <time>2016-12-30T11:09:41.000Z</time>
      </trkpt>
      <trkpt lat="47.51721" lon="6.77566">
        <ele>433.1</ele>
        <time>2016-12-30T11:09:42.000Z</time>
      </trkpt>
      <trkpt lat="47.51721" lon="6.77562">
        <ele>433.2</ele>
        <time>2016-12-30T11:09:43.000Z</time>
      </trkpt>
      <trkpt lat="47.51722" lon="6.77558">
        <ele>433.4</ele>
        <time>2016-12-30T11:09:44.000Z</time>
      </trkpt>
      <trkpt lat="47.51722" lon="6.77554">
        <ele>433.5</ele>
        <time>2016-12-30T11:09:45.000Z</time>
      </trkpt>
      <trkpt lat="47.51722" lon="6.77551">
        <ele>433.6</ele>
        <time>2016-12-30T11:09:46.000Z</time>
      </trkpt>
      <trkpt lat="47.51723" lon="6.77545">
        <ele>433.7</ele>
        <time>2016-12-30T11:09:47.000Z</time>
      </trkpt>
      <trkpt lat="47.51725" lon="6.7754">
        <ele>433.8</ele>
        <time>2016-12-30T11:09:48.000Z</time>
      </trkpt>
      <trkpt lat="47.51725" lon="6.77535">
        <ele>433.8</ele>
        <time>2016-12-30T11:09:49.000Z</time>
      </trkpt>
      <trkpt lat="47.51726" lon="6.7753">
        <ele>433.9</ele>
        <time>2016-12-30T11:09:50.000Z</time>
      </trkpt>
      <trkpt lat="47.51726" lon="6.77526">
        <ele>434</ele>
        <time>2016-12-30T11:09:51.000Z</time>
      </trkpt>
      <trkpt lat="47.51727" lon="6.7752">
        <ele>434.1</ele>
        <time>2016-12-30T11:09:52.000Z</time>
      </trkpt>
      <trkpt lat="47.51728" lon="6.77514">
        <ele>434.2</ele>
        <time>2016-12-30T11:09:53.000Z</time>
      </trkpt>
      <trkpt lat="47.51729" lon="6.77508">
        <ele>434.3</ele>
        <time>2016-12-30T11:09:54.000Z</time>
      </trkpt>
      <trkpt lat="47.51729" lon="6.77502">
        <ele>434.5</ele>
        <time>2016-12-30T11:09:55.000Z</time>
      </trkpt>
      <trkpt lat="47.5173" lon="6.77498">
        <ele>434.6</ele>
        <time>2016-12-30T11:09:56.000Z</time>
      </trkpt>
      <trkpt lat="47.51731" lon="6.77494">
        <ele>434.7</ele>
        <time>2016-12-30T11:09:57.000Z</time>
      </trkpt>
      <trkpt lat="47.51732" lon="6.77489">
        <ele>434.9</ele>
        <time>2016-12-30T11:09:58.000Z</time>
      </trkpt>
      <trkpt lat="47.51734" lon="6.77484">
        <ele>435</ele>
        <time>2016-12-30T11:09:59.000Z</time>
      </trkpt>
      <trkpt lat="47.51736" lon="6.7748">
        <ele>435.2</ele>
        <time>2016-12-30T11:10:00.000Z</time>
      </trkpt>
      <trkpt lat="47.51739" lon="6.77479">
        <ele>435.3</ele>
        <time>2016-12-30T11:10:01.000Z</time>
      </trkpt>
      <trkpt lat="47.51741" lon="6.77479">
        <ele>435.4</ele>
        <time>2016-12-30T11:10:02.000Z</time>
      </trkpt>
      <trkpt lat="47.51744" lon="6.7748">
        <ele>435.5</ele>
        <time>2016-12-30T11:10:03.000Z</time>
      </trkpt>
      <trkpt lat="47.51748" lon="6.77481">
        <ele>435.6</ele>
        <time>2016-12-30T11:10:04.000Z</time>
      </trkpt>
      <trkpt lat="47.51752" lon="6.77482">
        <ele>435.6</ele>
        <time>2016-12-30T11:10:05.000Z</time>
      </trkpt>
      <trkpt lat="47.51755" lon="6.77483">
        <ele>435.6</ele>
        <time>2016-12-30T11:10:06.000Z</time>
      </trkpt>
      <trkpt lat="47.51757" lon="6.77483">
        <ele>435.6</ele>
        <time>2016-12-30T11:10:07.000Z</time>
      </trkpt>
      <trkpt lat="47.5176" lon="6.77484">
        <ele>435.6</ele>
        <time>2016-12-30T11:10:08.000Z</time>
      </trkpt>
      <trkpt lat="47.51764" lon="6.77484">
        <ele>435.6</ele>
        <time>2016-12-30T11:10:09.000Z</time>
      </trkpt>
      <trkpt lat="47.51767" lon="6.77485">
        <ele>435.6</ele>
        <time>2016-12-30T11:10:10.000Z</time>
      </trkpt>
      <trkpt lat="47.51769" lon="6.77486">
        <ele>435.6</ele>
        <time>2016-12-30T11:10:11.000Z</time>
      </trkpt>
      <trkpt lat="47.51773" lon="6.77486">
        <ele>435.5</ele>
        <time>2016-12-30T11:10:12.000Z</time>
      </trkpt>
      <trkpt lat="47.51777" lon="6.77487">
        <ele>435.5</ele>
        <time>2016-12-30T11:10:13.000Z</time>
      </trkpt>
      <trkpt lat="47.5178" lon="6.77487">
        <ele>435.7</ele>
        <time>2016-12-30T11:10:14.000Z</time>
      </trkpt>
      <trkpt lat="47.51785" lon="6.77489">
        <ele>435.7</ele>
        <time>2016-12-30T11:10:15.000Z</time>
      </trkpt>
      <trkpt lat="47.51788" lon="6.77491">
        <ele>435.7</ele>
        <time>2016-12-30T11:10:16.000Z</time>
      </trkpt>
      <trkpt lat="47.51792" lon="6.77494">
        <ele>435.6</ele>
        <time>2016-12-30T11:10:17.000Z</time>
      </trkpt>
      <trkpt lat="47.51795" lon="6.77496">
        <ele>435.6</ele>
        <time>2016-12-30T11:10:18.000Z</time>
      </trkpt>
      <trkpt lat="47.51799" lon="6.77496">
        <ele>435.5</ele>
        <time>2016-12-30T11:10:19.000Z</time>
      </trkpt>
      <trkpt lat="47.51802" lon="6.77497">
        <ele>435.4</ele>
        <time>2016-12-30T11:10:20.000Z</time>
      </trkpt>
      <trkpt lat="47.51805" lon="6.77497">
        <ele>435.3</ele>
        <time>2016-12-30T11:10:21.000Z</time>
      </trkpt>
      <trkpt lat="47.51809" lon="6.77499">
        <ele>435.3</ele>
        <time>2016-12-30T11:10:22.000Z</time>
      </trkpt>
      <trkpt lat="47.51811" lon="6.77498">
        <ele>435.3</ele>
        <time>2016-12-30T11:10:23.000Z</time>
      </trkpt>
      <trkpt lat="47.51812" lon="6.77496">
        <ele>435.3</ele>
        <time>2016-12-30T11:10:24.000Z</time>
      </trkpt>
      <trkpt lat="47.51812" lon="6.77491">
        <ele>435.3</ele>
        <time>2016-12-30T11:10:25.000Z</time>
      </trkpt>
      <trkpt lat="47.51811" lon="6.77485">
        <ele>435.4</ele>
        <time>2016-12-30T11:10:27.000Z</time>
      </trkpt>
      <trkpt lat="47.51811" lon="6.77483">
        <ele>435.5</ele>
        <time>2016-12-30T11:10:28.000Z</time>
      </trkpt>
      <trkpt lat="47.5181" lon="6.7748">
        <ele>435.6</ele>
        <time>2016-12-30T11:10:29.000Z</time>
      </trkpt>
      <trkpt lat="47.51809" lon="6.77477">
        <ele>435.8</ele>
        <time>2016-12-30T11:10:30.000Z</time>
      </trkpt>
      <trkpt lat="47.51806" lon="6.77479">
        <ele>436.4</ele>
        <time>2016-12-30T11:11:09.000Z</time>
      </trkpt>
      <trkpt lat="47.51803" lon="6.77479">
        <ele>436.3</ele>
        <time>2016-12-30T11:11:10.000Z</time>
      </trkpt>
      <trkpt lat="47.51807" lon="6.77475">
        <ele>435.6</ele>
        <time>2016-12-30T11:11:47.000Z</time>
      </trkpt>
      <trkpt lat="47.51807" lon="6.77475">
        <ele>435.6</ele>
        <time>2016-12-30T11:11:48.000Z</time>
      </trkpt>
      <trkpt lat="47.51803" lon="6.77476">
        <ele>435.7</ele>
        <time>2016-12-30T11:14:05.000Z</time>
      </trkpt>
      <trkpt lat="47.51802" lon="6.77476">
        <ele>435.8</ele>
        <time>2016-12-30T11:14:06.000Z</time>
      </trkpt>
      <trkpt lat="47.51805" lon="6.77478">
        <ele>436.5</ele>
        <time>2016-12-30T11:14:30.000Z</time>
      </trkpt>
      <trkpt lat="47.51807" lon="6.77478">
        <ele>436.6</ele>
        <time>2016-12-30T11:14:31.000Z</time>
      </trkpt>
      <trkpt lat="47.51811" lon="6.77477">
        <ele>434</ele>
        <time>2016-12-30T11:19:08.999Z</time>
      </trkpt>
      <trkpt lat="47.51812" lon="6.77477">
        <ele>434</ele>
        <time>2016-12-30T11:19:09.999Z</time>
      </trkpt>
      <trkpt lat="47.51808" lon="6.77478">
        <ele>435</ele>
        <time>2016-12-30T11:20:32.999Z</time>
      </trkpt>
      <trkpt lat="47.51807" lon="6.77477">
        <ele>434.9</ele>
        <time>2016-12-30T11:20:33.999Z</time>
      </trkpt>
      <trkpt lat="47.51803" lon="6.77476">
        <ele>433.3</ele>
        <time>2016-12-30T11:22:02.999Z</time>
      </trkpt>
      <trkpt lat="47.51802" lon="6.77475">
        <ele>432.8</ele>
        <time>2016-12-30T11:22:03.999Z</time>
      </trkpt>
      <trkpt lat="47.51798" lon="6.77477">
        <ele>430.8</ele>
        <time>2016-12-30T11:23:13.999Z</time>
      </trkpt>
      <trkpt lat="47.51798" lon="6.77477">
        <ele>430.6</ele>
        <time>2016-12-30T11:23:14.999Z</time>
      </trkpt>
      <trkpt lat="47.51796" lon="6.7748">
        <ele>430</ele>
        <time>2016-12-30T11:23:36.999Z</time>
      </trkpt>
    </trkseg>
  </trk>
</gpx>